<?xml version='1.0' encoding='UTF-8'?><gpx version="1.1" creator="JPX - https://github.com/jenetics/jpx" xmlns="http://www.topografix.com/GPX/1/1"><trk><trkseg><trkpt lat="45.98057456009223" lon="12.314599902386167"><ele>115.00000000000001</ele><time>2026-04-05T08:58:47Z</time></trkpt><trkpt lat="45.9806336081097" lon="12.314708289377721"><ele>115.0</ele><time>2026-04-05T09:00:30.999Z</time></trkpt><trkpt lat="45.98071540285938" lon="12.314758388840882"><ele>115.0</ele><time>2026-04-05T09:00:54Z</time></trkpt><trkpt lat="45.980797172750044" lon="12.314806023214778"><ele>115.0</ele><time>2026-04-05T09:00:56Z</time></trkpt><trkpt lat="45.98086188221262" lon="12.314897596342833"><ele>115.00000000000001</ele><time>2026-04-05T09:00:58Z</time></trkpt><trkpt lat="45.980888654648275" lon="12.315008848566402"><ele>115.0</ele><time>2026-04-05T09:01:00Z</time></trkpt><trkpt lat="45.980925297678745" lon="12.315107363505028"><ele>116.25</ele><time>2026-04-05T09:01:01Z</time></trkpt><trkpt lat="45.980954037261775" lon="12.315198405799288"><ele>117.5</ele><time>2026-04-05T09:01:02Z</time></trkpt><trkpt lat="45.98095703429794" lon="12.315292117249674"><ele>118.75</ele><time>2026-04-05T09:01:03Z</time></trkpt><trkpt lat="45.98095029358572" lon="12.31552241914276"><ele>120.0</ele><time>2026-04-05T09:01:05Z</time></trkpt><trkpt lat="45.98105720056584" lon="12.315731011668827"><ele>120.0</ele><time>2026-04-05T09:01:06Z</time></trkpt><trkpt lat="45.98110299845572" lon="12.315932588888344"><ele>120.0</ele><time>2026-04-05T09:01:07Z</time></trkpt><trkpt lat="45.981172136791216" lon="12.316170890703718"><ele>120.0</ele><time>2026-04-05T09:01:08Z</time></trkpt><trkpt lat="45.981234583666854" lon="12.316352404627"><ele>119.0</ele><time>2026-04-05T09:01:09Z</time></trkpt><trkpt lat="45.98129856690987" lon="12.316524920364257"><ele>118.0</ele><time>2026-04-05T09:01:10Z</time></trkpt><trkpt lat="45.98137315346092" lon="12.316710475863566"><ele>117.0</ele><time>2026-04-05T09:01:11Z</time></trkpt><trkpt lat="45.98152193508627" lon="12.317028289561957"><ele>117.0</ele><time>2026-04-05T09:01:12Z</time></trkpt><trkpt lat="45.98160324553549" lon="12.317178513397083"><ele>117.0</ele><time>2026-04-05T09:01:13Z</time></trkpt><trkpt lat="45.981699392433214" lon="12.317341799575894"><ele>117.0</ele><time>2026-04-05T09:01:14Z</time></trkpt><trkpt lat="45.98184888526553" lon="12.31757466010234"><ele>117.0</ele><time>2026-04-05T09:01:15Z</time></trkpt><trkpt lat="45.982111144212816" lon="12.317911618760384"><ele>117.0</ele><time>2026-04-05T09:01:16Z</time></trkpt><trkpt lat="45.98224876661318" lon="12.318096705018819"><ele>117.0</ele><time>2026-04-05T09:01:17Z</time></trkpt><trkpt lat="45.982352889760435" lon="12.31823673867321"><ele>117.0</ele><time>2026-04-05T09:01:18Z</time></trkpt><trkpt lat="45.98245975944444" lon="12.318380466086358"><ele>117.0</ele><time>2026-04-05T09:01:19Z</time></trkpt><trkpt lat="45.98260210493524" lon="12.318523353161675"><ele>117.6</ele><time>2026-04-05T09:01:20Z</time></trkpt><trkpt lat="45.98270253938017" lon="12.31866626668676"><ele>118.19999999999999</ele><time>2026-04-05T09:01:21Z</time></trkpt><trkpt lat="45.98278478807365" lon="12.318762064033573"><ele>118.8</ele><time>2026-04-05T09:01:22Z</time></trkpt><trkpt lat="45.982864208538864" lon="12.318858926850284"><ele>119.4</ele><time>2026-04-05T09:01:23Z</time></trkpt><trkpt lat="45.982895373021734" lon="12.318948714733015"><ele>120.0</ele><time>2026-04-05T09:01:24Z</time></trkpt><trkpt lat="45.98293636977407" lon="12.319093816541558"><ele>120.6</ele><time>2026-04-05T09:01:26Z</time></trkpt><trkpt lat="45.9830214932681" lon="12.319114664654744"><ele>121.2</ele><time>2026-04-05T09:01:27Z</time></trkpt><trkpt lat="45.98309441807992" lon="12.319167944390454"><ele>121.80000000000001</ele><time>2026-04-05T09:01:28Z</time></trkpt><trkpt lat="45.983185598935655" lon="12.319258273733508"><ele>122.4</ele><time>2026-04-05T09:01:29Z</time></trkpt><trkpt lat="45.9833019875213" lon="12.319318568316817"><ele>123.0</ele><time>2026-04-05T09:01:30Z</time></trkpt><trkpt lat="45.98347430049085" lon="12.319401763403446"><ele>123.25</ele><time>2026-04-05T09:01:31Z</time></trkpt><trkpt lat="45.98359799314402" lon="12.31946885912153"><ele>123.5</ele><time>2026-04-05T09:01:32Z</time></trkpt><trkpt lat="45.983736569507045" lon="12.319538344403796"><ele>123.75</ele><time>2026-04-05T09:01:33Z</time></trkpt><trkpt lat="45.98387249096421" lon="12.319586854047877"><ele>124.0</ele><time>2026-04-05T09:01:34Z</time></trkpt><trkpt lat="45.98404308872643" lon="12.319647274212715"><ele>124.0</ele><time>2026-04-05T09:01:35Z</time></trkpt><trkpt lat="45.98425817488518" lon="12.319730737289236"><ele>124.0</ele><time>2026-04-05T09:01:36Z</time></trkpt><trkpt lat="45.98446787873836" lon="12.31980462137942"><ele>124.0</ele><time>2026-04-05T09:01:37Z</time></trkpt><trkpt lat="45.98464550343047" lon="12.31986662653108"><ele>124.0</ele><time>2026-04-05T09:01:38Z</time></trkpt><trkpt lat="45.984833975556676" lon="12.319952994688302"><ele>124.0</ele><time>2026-04-05T09:01:39Z</time></trkpt><trkpt lat="45.985029522172816" lon="12.320020290028243"><ele>124.0</ele><time>2026-04-05T09:01:40Z</time></trkpt><trkpt lat="45.985210512960236" lon="12.320091114690607"><ele>124.75</ele><time>2026-04-05T09:01:41Z</time></trkpt><trkpt lat="45.985369465607484" lon="12.320153029734927"><ele>125.5</ele><time>2026-04-05T09:01:42Z</time></trkpt><trkpt lat="45.98548316569277" lon="12.320196070780264"><ele>126.25</ele><time>2026-04-05T09:01:43Z</time></trkpt><trkpt lat="45.9855156710795" lon="12.320288641053157"><ele>127.0</ele><time>2026-04-05T09:01:44Z</time></trkpt><trkpt lat="45.985594384489474" lon="12.320430812341202"><ele>127.25</ele><time>2026-04-05T09:01:45Z</time></trkpt><trkpt lat="45.98566865296004" lon="12.320633858081536"><ele>127.5</ele><time>2026-04-05T09:01:46Z</time></trkpt><trkpt lat="45.985772421064226" lon="12.320739781607486"><ele>127.75</ele><time>2026-04-05T09:01:47Z</time></trkpt><trkpt lat="45.985828615623674" lon="12.320856721979792"><ele>128.0</ele><time>2026-04-05T09:01:48Z</time></trkpt><trkpt lat="45.98589227778688" lon="12.3210499597172"><ele>128.0</ele><time>2026-04-05T09:01:50Z</time></trkpt><trkpt lat="45.985901374075915" lon="12.321169360920221"><ele>128.0</ele><time>2026-04-05T09:01:51Z</time></trkpt><trkpt lat="45.985924442304224" lon="12.321308896903254"><ele>128.0</ele><time>2026-04-05T09:01:52Z</time></trkpt><trkpt lat="45.9858439336598" lon="12.32141300121627"><ele>128.0</ele><time>2026-04-05T09:01:53Z</time></trkpt><trkpt lat="45.98582224231745" lon="12.32161584171909"><ele>128.0</ele><time>2026-04-05T09:01:54Z</time></trkpt><trkpt lat="45.985801558251715" lon="12.321809260580011"><ele>128.0</ele><time>2026-04-05T09:01:55Z</time></trkpt><trkpt lat="45.985768604265246" lon="12.322119956120556"><ele>128.0</ele><time>2026-04-05T09:01:56Z</time></trkpt><trkpt lat="45.98573502688859" lon="12.322448033138828"><ele>128.0</ele><time>2026-04-05T09:01:57Z</time></trkpt><trkpt lat="45.985709079352155" lon="12.32270246108171"><ele>128.33333333333331</ele><time>2026-04-05T09:01:58Z</time></trkpt><trkpt lat="45.98568115948925" lon="12.322976227862727"><ele>128.66666666666666</ele><time>2026-04-05T09:01:59Z</time></trkpt><trkpt lat="45.985646582816386" lon="12.323332970260655"><ele>129.0</ele><time>2026-04-05T09:02:00Z</time></trkpt><trkpt lat="45.985622045931144" lon="12.323602207448854"><ele>129.0</ele><time>2026-04-05T09:02:01Z</time></trkpt><trkpt lat="45.98559928973342" lon="12.323879337442804"><ele>129.0</ele><time>2026-04-05T09:02:02Z</time></trkpt><trkpt lat="45.985587416459786" lon="12.324141328929214"><ele>129.0</ele><time>2026-04-05T09:02:03Z</time></trkpt><trkpt lat="45.985632504215744" lon="12.324315865958596"><ele>129.25</ele><time>2026-04-05T09:02:04Z</time></trkpt><trkpt lat="45.98562774228884" lon="12.324515938870627"><ele>129.5</ele><time>2026-04-05T09:02:05Z</time></trkpt><trkpt lat="45.98563795729574" lon="12.32470951114338"><ele>129.75</ele><time>2026-04-05T09:02:06Z</time></trkpt><trkpt lat="45.985689149714695" lon="12.324925808148155"><ele>130.0</ele><time>2026-04-05T09:02:07Z</time></trkpt><trkpt lat="45.98563788663263" lon="12.325210296138707"><ele>130.0</ele><time>2026-04-05T09:02:08Z</time></trkpt><trkpt lat="45.98566129366443" lon="12.325462375560907"><ele>130.0</ele><time>2026-04-05T09:02:09Z</time></trkpt><trkpt lat="45.98569252004068" lon="12.325725017810793"><ele>130.0</ele><time>2026-04-05T09:02:10Z</time></trkpt><trkpt lat="45.98571433896301" lon="12.326000810715195"><ele>130.33333333333334</ele><time>2026-04-05T09:02:11Z</time></trkpt><trkpt lat="45.985750552385085" lon="12.32622918000676"><ele>130.66666666666666</ele><time>2026-04-05T09:02:12Z</time></trkpt><trkpt lat="45.98575764658974" lon="12.326444106763653"><ele>131.0</ele><time>2026-04-05T09:02:13Z</time></trkpt><trkpt lat="45.98580197404737" lon="12.326648113200774"><ele>131.0</ele><time>2026-04-05T09:02:14Z</time></trkpt><trkpt lat="45.985802877442936" lon="12.326844454066276"><ele>131.0</ele><time>2026-04-05T09:02:15Z</time></trkpt><trkpt lat="45.98581151030845" lon="12.327037606412315"><ele>131.0</ele><time>2026-04-05T09:02:16Z</time></trkpt><trkpt lat="45.985831255146834" lon="12.327187410550401"><ele>131.0</ele><time>2026-04-05T09:02:17Z</time></trkpt><trkpt lat="45.98585130917878" lon="12.327295490569984"><ele>131.5</ele><time>2026-04-05T09:02:18Z</time></trkpt><trkpt lat="45.98586854536475" lon="12.327388319724221"><ele>132.0</ele><time>2026-04-05T09:02:19Z</time></trkpt><trkpt lat="45.985872458113185" lon="12.327529864830492"><ele>132.5</ele><time>2026-04-05T09:02:20Z</time></trkpt><trkpt lat="45.98589093143219" lon="12.32766595565709"><ele>133.0</ele><time>2026-04-05T09:02:21Z</time></trkpt><trkpt lat="45.98590982827647" lon="12.327780837116645"><ele>133.5</ele><time>2026-04-05T09:02:22Z</time></trkpt><trkpt lat="45.98591826678486" lon="12.327911271082147"><ele>134.0</ele><time>2026-04-05T09:02:23Z</time></trkpt><trkpt lat="45.98595689257663" lon="12.328039879569857"><ele>134.16666666666666</ele><time>2026-04-05T09:02:24Z</time></trkpt><trkpt lat="45.985944256314646" lon="12.32817054256464"><ele>134.33333333333331</ele><time>2026-04-05T09:02:25Z</time></trkpt><trkpt lat="45.98594376655061" lon="12.32828465395056"><ele>134.5</ele><time>2026-04-05T09:02:26Z</time></trkpt><trkpt lat="45.98595160004743" lon="12.328399024483174"><ele>134.66666666666666</ele><time>2026-04-05T09:02:27Z</time></trkpt><trkpt lat="45.98596139929548" lon="12.328525422100624"><ele>134.83333333333334</ele><time>2026-04-05T09:02:28Z</time></trkpt><trkpt lat="45.98597344084817" lon="12.328660897278652"><ele>135.0</ele><time>2026-04-05T09:02:29Z</time></trkpt><trkpt lat="45.985987001991795" lon="12.328804379753512"><ele>135.25</ele><time>2026-04-05T09:02:30Z</time></trkpt><trkpt lat="45.98600302074824" lon="12.328996230420154"><ele>135.5</ele><time>2026-04-05T09:02:31Z</time></trkpt><trkpt lat="45.986013275501215" lon="12.329188809198428"><ele>135.75</ele><time>2026-04-05T09:02:32Z</time></trkpt><trkpt lat="45.98600890316225" lon="12.329310148327263"><ele>136.0</ele><time>2026-04-05T09:02:32.999Z</time></trkpt><trkpt lat="45.98600646864496" lon="12.329519286261682"><ele>136.0</ele><time>2026-04-05T09:02:33.999Z</time></trkpt><trkpt lat="45.985988725805754" lon="12.329699618204359"><ele>136.0</ele><time>2026-04-05T09:02:34.999Z</time></trkpt><trkpt lat="45.98597168046933" lon="12.329807979878932"><ele>136.0</ele><time>2026-04-05T09:02:35.999Z</time></trkpt><trkpt lat="45.98593120531746" lon="12.329976947886706"><ele>136.0</ele><time>2026-04-05T09:02:36.999Z</time></trkpt><trkpt lat="45.985884740740836" lon="12.330130406069602"><ele>136.0</ele><time>2026-04-05T09:02:37.999Z</time></trkpt><trkpt lat="45.98582032128139" lon="12.33030987392054"><ele>135.33333333333334</ele><time>2026-04-05T09:02:38.999Z</time></trkpt><trkpt lat="45.9857250585006" lon="12.330528240708837"><ele>134.66666666666666</ele><time>2026-04-05T09:02:39.999Z</time></trkpt><trkpt lat="45.98566409127911" lon="12.330658757161489"><ele>134.0</ele><time>2026-04-05T09:02:40.999Z</time></trkpt><trkpt lat="45.98556623675355" lon="12.330864085260458"><ele>134.0</ele><time>2026-04-05T09:02:41.999Z</time></trkpt><trkpt lat="45.98548862468333" lon="12.331027462480272"><ele>134.0</ele><time>2026-04-05T09:02:42.999Z</time></trkpt><trkpt lat="45.98541450133653" lon="12.331188195233345"><ele>134.0</ele><time>2026-04-05T09:02:43.999Z</time></trkpt><trkpt lat="45.98534768447962" lon="12.33133308487397"><ele>134.0</ele><time>2026-04-05T09:02:44.999Z</time></trkpt><trkpt lat="45.98526228874894" lon="12.33151759909588"><ele>134.66666666666666</ele><time>2026-04-05T09:02:45.999Z</time></trkpt><trkpt lat="45.98519493597241" lon="12.331662039070672"><ele>135.33333333333334</ele><time>2026-04-05T09:02:46.999Z</time></trkpt><trkpt lat="45.985329323358094" lon="12.331981534873943"><ele>136.0</ele><time>2026-04-05T09:02:47.999Z</time></trkpt><trkpt lat="45.98526513606869" lon="12.332154721957"><ele>137.0</ele><time>2026-04-05T09:02:48.999Z</time></trkpt><trkpt lat="45.98505980549698" lon="12.332406521729748"><ele>138.0</ele><time>2026-04-05T09:02:49.999Z</time></trkpt><trkpt lat="45.98495297285308" lon="12.332563839722159"><ele>139.0</ele><time>2026-04-05T09:02:50.999Z</time></trkpt><trkpt lat="45.98491158690605" lon="12.332741228040929"><ele>136.0</ele><time>2026-04-05T09:02:51.999Z</time></trkpt><trkpt lat="45.9847203921217" lon="12.33268493998633"><ele>133.0</ele><time>2026-04-05T09:02:52.999Z</time></trkpt><trkpt lat="45.984752416254345" lon="12.332981471022766"><ele>130.0</ele><time>2026-04-05T09:02:53.999Z</time></trkpt><trkpt lat="45.98454753798598" lon="12.333071718726094"><ele>130.0</ele><time>2026-04-05T09:02:54.999Z</time></trkpt><trkpt lat="45.98449762978938" lon="12.33321522006574"><ele>130.0</ele><time>2026-04-05T09:02:56Z</time></trkpt><trkpt lat="45.98445113039628" lon="12.333322624346899"><ele>130.0</ele><time>2026-04-05T09:02:57Z</time></trkpt><trkpt lat="45.984354923588285" lon="12.333470662862972"><ele>130.0</ele><time>2026-04-05T09:02:58Z</time></trkpt><trkpt lat="45.9842747530258" lon="12.333643240739054"><ele>130.0</ele><time>2026-04-05T09:02:59Z</time></trkpt><trkpt lat="45.9841882823205" lon="12.333829380995425"><ele>130.0</ele><time>2026-04-05T09:03:00Z</time></trkpt><trkpt lat="45.98406841864184" lon="12.334102506804255"><ele>130.0</ele><time>2026-04-05T09:03:01Z</time></trkpt><trkpt lat="45.98400381897661" lon="12.334250572424422"><ele>128.33333333333334</ele><time>2026-04-05T09:03:02Z</time></trkpt><trkpt lat="45.98387332544603" lon="12.334402790955439"><ele>126.66666666666666</ele><time>2026-04-05T09:03:03Z</time></trkpt><trkpt lat="45.98375798197326" lon="12.334525139046345"><ele>125.0</ele><time>2026-04-05T09:03:04Z</time></trkpt><trkpt lat="45.98361195110094" lon="12.33467245893828"><ele>125.33333333333333</ele><time>2026-04-05T09:03:05Z</time></trkpt><trkpt lat="45.98352910611243" lon="12.334755859422891"><ele>125.66666666666666</ele><time>2026-04-05T09:03:06Z</time></trkpt><trkpt lat="45.98327650373154" lon="12.335038114797388"><ele>126.0</ele><time>2026-04-05T09:03:07Z</time></trkpt><trkpt lat="45.98312876411556" lon="12.335134495278393"><ele>124.75</ele><time>2026-04-05T09:03:08Z</time></trkpt><trkpt lat="45.98302493242743" lon="12.335228929544298"><ele>123.5</ele><time>2026-04-05T09:03:09Z</time></trkpt><trkpt lat="45.98289786487403" lon="12.335348039184007"><ele>122.25</ele><time>2026-04-05T09:03:10Z</time></trkpt><trkpt lat="45.98278307120649" lon="12.33550648745745"><ele>121.0</ele><time>2026-04-05T09:03:11Z</time></trkpt><trkpt lat="45.982677497112434" lon="12.335608431920278"><ele>121.0</ele><time>2026-04-05T09:03:12Z</time></trkpt><trkpt lat="45.982586476368006" lon="12.335736124820144"><ele>121.0</ele><time>2026-04-05T09:03:13Z</time></trkpt><trkpt lat="45.98248538121704" lon="12.335864863568212"><ele>121.0</ele><time>2026-04-05T09:03:14Z</time></trkpt><trkpt lat="45.98238671766309" lon="12.336019547173596"><ele>121.0</ele><time>2026-04-05T09:03:15Z</time></trkpt><trkpt lat="45.9822624321659" lon="12.336195356207853"><ele>120.25</ele><time>2026-04-05T09:03:16Z</time></trkpt><trkpt lat="45.98215468525663" lon="12.336361320916916"><ele>119.5</ele><time>2026-04-05T09:03:17Z</time></trkpt><trkpt lat="45.98206444546746" lon="12.336508519960086"><ele>118.75</ele><time>2026-04-05T09:03:18Z</time></trkpt><trkpt lat="45.981994705191305" lon="12.336656397887106"><ele>118.0</ele><time>2026-04-05T09:03:19Z</time></trkpt><trkpt lat="45.98186883175776" lon="12.336786418542927"><ele>118.0</ele><time>2026-04-05T09:03:20Z</time></trkpt><trkpt lat="45.981791322491624" lon="12.336903274687222"><ele>118.0</ele><time>2026-04-05T09:03:21Z</time></trkpt><trkpt lat="45.981684637542166" lon="12.337071281349013"><ele>118.0</ele><time>2026-04-05T09:03:22Z</time></trkpt><trkpt lat="45.98160616851195" lon="12.33720878665024"><ele>118.0</ele><time>2026-04-05T09:03:23Z</time></trkpt><trkpt lat="45.98152380523332" lon="12.33735913691978"><ele>117.4</ele><time>2026-04-05T09:03:24Z</time></trkpt><trkpt lat="45.981433023168044" lon="12.33746326660216"><ele>116.80000000000001</ele><time>2026-04-05T09:03:25Z</time></trkpt><trkpt lat="45.98136439818939" lon="12.337564849201794"><ele>116.2</ele><time>2026-04-05T09:03:26Z</time></trkpt><trkpt lat="45.98128836234222" lon="12.337678304558239"><ele>115.6</ele><time>2026-04-05T09:03:27Z</time></trkpt><trkpt lat="45.98121788484971" lon="12.33778400302414"><ele>115.0</ele><time>2026-04-05T09:03:28Z</time></trkpt><trkpt lat="45.98111065562815" lon="12.337944914225025"><ele>114.66666666666667</ele><time>2026-04-05T09:03:29Z</time></trkpt><trkpt lat="45.98099947731996" lon="12.338112574375888"><ele>114.33333333333334</ele><time>2026-04-05T09:03:30Z</time></trkpt><trkpt lat="45.98088890919691" lon="12.338300164420817"><ele>114.0</ele><time>2026-04-05T09:03:31Z</time></trkpt><trkpt lat="45.980767736324765" lon="12.338478705854818"><ele>114.0</ele><time>2026-04-05T09:03:32Z</time></trkpt><trkpt lat="45.98066609649216" lon="12.338605784828728"><ele>114.0</ele><time>2026-04-05T09:03:33Z</time></trkpt><trkpt lat="45.9805712845568" lon="12.338733696645237"><ele>114.0</ele><time>2026-04-05T09:03:34Z</time></trkpt><trkpt lat="45.9804581348587" lon="12.338874625528938"><ele>114.0</ele><time>2026-04-05T09:03:35Z</time></trkpt><trkpt lat="45.980364558388366" lon="12.339006232839473"><ele>113.75</ele><time>2026-04-05T09:03:36Z</time></trkpt><trkpt lat="45.98027280328446" lon="12.339118361413721"><ele>113.5</ele><time>2026-04-05T09:03:37Z</time></trkpt><trkpt lat="45.980177893803585" lon="12.339239370637399"><ele>113.25</ele><time>2026-04-05T09:03:38Z</time></trkpt><trkpt lat="45.98007818490145" lon="12.339378072248445"><ele>113.0</ele><time>2026-04-05T09:03:39Z</time></trkpt><trkpt lat="45.97996709384994" lon="12.339582864788422"><ele>113.33333333333333</ele><time>2026-04-05T09:03:40Z</time></trkpt><trkpt lat="45.97988006752431" lon="12.339726578534542"><ele>113.66666666666666</ele><time>2026-04-05T09:03:41Z</time></trkpt><trkpt lat="45.97973494062425" lon="12.339919595437456"><ele>114.0</ele><time>2026-04-05T09:03:42Z</time></trkpt><trkpt lat="45.97961776836631" lon="12.340058157671873"><ele>114.0</ele><time>2026-04-05T09:03:43Z</time></trkpt><trkpt lat="45.97948811685712" lon="12.340195066353525"><ele>114.0</ele><time>2026-04-05T09:03:44Z</time></trkpt><trkpt lat="45.97936475131933" lon="12.340332951503667"><ele>114.0</ele><time>2026-04-05T09:03:45Z</time></trkpt><trkpt lat="45.97923953394091" lon="12.340448883736027"><ele>115.0</ele><time>2026-04-05T09:03:46Z</time></trkpt><trkpt lat="45.979067239124085" lon="12.34058359692475"><ele>116.0</ele><time>2026-04-05T09:03:47Z</time></trkpt><trkpt lat="45.97892685255833" lon="12.340674286716132"><ele>117.0</ele><time>2026-04-05T09:03:48Z</time></trkpt><trkpt lat="45.97877996455776" lon="12.340762218659773"><ele>117.0</ele><time>2026-04-05T09:03:49Z</time></trkpt><trkpt lat="45.97864397901891" lon="12.340837899967966"><ele>117.0</ele><time>2026-04-05T09:03:50Z</time></trkpt><trkpt lat="45.9785030817736" lon="12.340916675494675"><ele>117.0</ele><time>2026-04-05T09:03:51Z</time></trkpt><trkpt lat="45.978377795741444" lon="12.340987936469599"><ele>117.0</ele><time>2026-04-05T09:03:52Z</time></trkpt><trkpt lat="45.97824551345163" lon="12.34106317694002"><ele>116.25</ele><time>2026-04-05T09:03:53Z</time></trkpt><trkpt lat="45.97813740335733" lon="12.3411246685515"><ele>115.5</ele><time>2026-04-05T09:03:54Z</time></trkpt><trkpt lat="45.97803087845684" lon="12.341185258505972"><ele>114.75</ele><time>2026-04-05T09:03:55Z</time></trkpt><trkpt lat="45.97789191004301" lon="12.341263412942084"><ele>114.0</ele><time>2026-04-05T09:03:56Z</time></trkpt><trkpt lat="45.97773489335789" lon="12.341330123201734"><ele>114.25</ele><time>2026-04-05T09:03:57Z</time></trkpt><trkpt lat="45.977610243208424" lon="12.341412610373046"><ele>114.5</ele><time>2026-04-05T09:03:58Z</time></trkpt><trkpt lat="45.97748371929224" lon="12.341536120048284"><ele>114.75</ele><time>2026-04-05T09:03:59Z</time></trkpt><trkpt lat="45.97736688073406" lon="12.341639219750917"><ele>115.0</ele><time>2026-04-05T09:04:00Z</time></trkpt><trkpt lat="45.97724679346885" lon="12.34176435912201"><ele>115.0</ele><time>2026-04-05T09:04:01Z</time></trkpt><trkpt lat="45.97708493361978" lon="12.341958871883843"><ele>115.0</ele><time>2026-04-05T09:04:02Z</time></trkpt><trkpt lat="45.97693870144437" lon="12.342113274272647"><ele>115.0</ele><time>2026-04-05T09:04:03Z</time></trkpt><trkpt lat="45.97681435853753" lon="12.342286782838864"><ele>113.0</ele><time>2026-04-05T09:04:04Z</time></trkpt><trkpt lat="45.97667439048241" lon="12.342424449497818"><ele>111.0</ele><time>2026-04-05T09:04:05Z</time></trkpt><trkpt lat="45.97655520936305" lon="12.342588663931478"><ele>109.0</ele><time>2026-04-05T09:04:06Z</time></trkpt><trkpt lat="45.9764369494018" lon="12.342717182974878"><ele>109.0</ele><time>2026-04-05T09:04:07Z</time></trkpt><trkpt lat="45.97630752813829" lon="12.342874823616182"><ele>109.0</ele><time>2026-04-05T09:04:08Z</time></trkpt><trkpt lat="45.97618359472486" lon="12.34302007984273"><ele>109.0</ele><time>2026-04-05T09:04:09Z</time></trkpt><trkpt lat="45.97605174608103" lon="12.34315567129691"><ele>108.33333333333334</ele><time>2026-04-05T09:04:10Z</time></trkpt><trkpt lat="45.97591037761126" lon="12.343280175856817"><ele>107.66666666666666</ele><time>2026-04-05T09:04:11Z</time></trkpt><trkpt lat="45.975792585657146" lon="12.343368098338692"><ele>107.0</ele><time>2026-04-05T09:04:12Z</time></trkpt><trkpt lat="45.975652523999834" lon="12.34345807008755"><ele>107.0</ele><time>2026-04-05T09:04:13Z</time></trkpt><trkpt lat="45.97552586760531" lon="12.343538155508625"><ele>107.0</ele><time>2026-04-05T09:04:14Z</time></trkpt><trkpt lat="45.97536066615161" lon="12.343640226937671"><ele>107.0</ele><time>2026-04-05T09:04:15Z</time></trkpt><trkpt lat="45.97523206890267" lon="12.34372002798478"><ele>107.0</ele><time>2026-04-05T09:04:16Z</time></trkpt><trkpt lat="45.975134632381575" lon="12.343781743128593"><ele>107.0</ele><time>2026-04-05T09:04:17Z</time></trkpt><trkpt lat="45.97502849427854" lon="12.343848969829859"><ele>107.0</ele><time>2026-04-05T09:04:17.999Z</time></trkpt><trkpt lat="45.974868370518735" lon="12.343948053669047"><ele>107.0</ele><time>2026-04-05T09:04:18.999Z</time></trkpt><trkpt lat="45.974760333030375" lon="12.344014737276167"><ele>107.0</ele><time>2026-04-05T09:04:19.999Z</time></trkpt><trkpt lat="45.97461359834558" lon="12.344107341203747"><ele>107.0</ele><time>2026-04-05T09:04:20.999Z</time></trkpt><trkpt lat="45.97445024975969" lon="12.344232116732135"><ele>107.0</ele><time>2026-04-05T09:04:21.999Z</time></trkpt><trkpt lat="45.974275722572294" lon="12.344425042120688"><ele>106.33333333333333</ele><time>2026-04-05T09:04:22.999Z</time></trkpt><trkpt lat="45.97412698582255" lon="12.344565858434388"><ele>105.66666666666666</ele><time>2026-04-05T09:04:23.999Z</time></trkpt><trkpt lat="45.97401816084934" lon="12.344724763198647"><ele>105.0</ele><time>2026-04-05T09:04:24.999Z</time></trkpt><trkpt lat="45.97389905856136" lon="12.344866202535057"><ele>105.0</ele><time>2026-04-05T09:04:25.999Z</time></trkpt><trkpt lat="45.97372861480036" lon="12.34512947711959"><ele>105.0</ele><time>2026-04-05T09:04:26.999Z</time></trkpt><trkpt lat="45.973568423702204" lon="12.345360525930138"><ele>104.0</ele><time>2026-04-05T09:04:27.999Z</time></trkpt><trkpt lat="45.97336652511451" lon="12.345640149969215"><ele>103.0</ele><time>2026-04-05T09:04:28.999Z</time></trkpt><trkpt lat="45.97312669830676" lon="12.345980891411587"><ele>103.0</ele><time>2026-04-05T09:04:29.999Z</time></trkpt><trkpt lat="45.97292143380067" lon="12.346295249411856"><ele>103.0</ele><time>2026-04-05T09:04:30.999Z</time></trkpt><trkpt lat="45.972712011023056" lon="12.346598231907189"><ele>102.5</ele><time>2026-04-05T09:04:31.999Z</time></trkpt><trkpt lat="45.97248975211054" lon="12.346907104391226"><ele>102.0</ele><time>2026-04-05T09:04:32.999Z</time></trkpt><trkpt lat="45.97237024355152" lon="12.347110920460926"><ele>104.5</ele><time>2026-04-05T09:04:33.999Z</time></trkpt><trkpt lat="45.972204117217125" lon="12.347370217024844"><ele>107.0</ele><time>2026-04-05T09:04:34.999Z</time></trkpt><trkpt lat="45.97202660562904" lon="12.347616276709507"><ele>107.0</ele><time>2026-04-05T09:04:35.999Z</time></trkpt><trkpt lat="45.97188076957188" lon="12.347836593221777"><ele>107.0</ele><time>2026-04-05T09:04:36.999Z</time></trkpt><trkpt lat="45.971762597449846" lon="12.347972956562252"><ele>107.0</ele><time>2026-04-05T09:04:37.999Z</time></trkpt><trkpt lat="45.97166032662197" lon="12.34820960174622"><ele>105.33333333333333</ele><time>2026-04-05T09:04:38.999Z</time></trkpt><trkpt lat="45.97153118732285" lon="12.348372351127797"><ele>103.66666666666666</ele><time>2026-04-05T09:04:39.999Z</time></trkpt><trkpt lat="45.97139816051199" lon="12.348561474578146"><ele>102.0</ele><time>2026-04-05T09:04:40.999Z</time></trkpt><trkpt lat="45.97126867300929" lon="12.34876230415763"><ele>101.66666666666666</ele><time>2026-04-05T09:04:41.999Z</time></trkpt><trkpt lat="45.97113202095686" lon="12.348973944984008"><ele>101.33333333333333</ele><time>2026-04-05T09:04:42.999Z</time></trkpt><trkpt lat="45.97099312594662" lon="12.34919598685431"><ele>101.0</ele><time>2026-04-05T09:04:43.999Z</time></trkpt><trkpt lat="45.97083548063328" lon="12.349447659774938"><ele>101.0</ele><time>2026-04-05T09:04:44.999Z</time></trkpt><trkpt lat="45.970724618935726" lon="12.349619594066043"><ele>101.0</ele><time>2026-04-05T09:04:45.999Z</time></trkpt><trkpt lat="45.97059749132452" lon="12.349815690725153"><ele>101.0</ele><time>2026-04-05T09:04:46.999Z</time></trkpt><trkpt lat="45.970477113542366" lon="12.350021482071766"><ele>102.0</ele><time>2026-04-05T09:04:47.999Z</time></trkpt><trkpt lat="45.97034981283423" lon="12.350220749352335"><ele>103.0</ele><time>2026-04-05T09:04:48.999Z</time></trkpt><trkpt lat="45.97018785341151" lon="12.350427503398096"><ele>104.0</ele><time>2026-04-05T09:04:49.999Z</time></trkpt><trkpt lat="45.970055134158734" lon="12.350622433130637"><ele>102.5</ele><time>2026-04-05T09:04:50.999Z</time></trkpt><trkpt lat="45.969948793535416" lon="12.350778243666246"><ele>101.0</ele><time>2026-04-05T09:04:51.999Z</time></trkpt><trkpt lat="45.96986399708173" lon="12.350903513367369"><ele>99.5</ele><time>2026-04-05T09:04:52.999Z</time></trkpt><trkpt lat="45.969802424358924" lon="12.350994465150361"><ele>98.0</ele><time>2026-04-05T09:04:53.999Z</time></trkpt><trkpt lat="45.96970864295039" lon="12.35113274087743"><ele>98.0</ele><time>2026-04-05T09:04:54.999Z</time></trkpt><trkpt lat="45.96958767764219" lon="12.35133377850857"><ele>98.0</ele><time>2026-04-05T09:04:55.999Z</time></trkpt><trkpt lat="45.969484729821794" lon="12.351391412327454"><ele>98.0</ele><time>2026-04-05T09:04:57.999Z</time></trkpt><trkpt lat="45.969404178056536" lon="12.351524508965728"><ele>98.0</ele><time>2026-04-05T09:04:58.999Z</time></trkpt><trkpt lat="45.96935322818996" lon="12.351604960449762"><ele>98.25</ele><time>2026-04-05T09:04:59.999Z</time></trkpt><trkpt lat="45.96926675026737" lon="12.351722205107052"><ele>98.5</ele><time>2026-04-05T09:05:02Z</time></trkpt><trkpt lat="45.96918256676712" lon="12.351850009491224"><ele>98.75</ele><time>2026-04-05T09:05:03Z</time></trkpt><trkpt lat="45.96906940002433" lon="12.352004315657656"><ele>99.0</ele><time>2026-04-05T09:05:04Z</time></trkpt><trkpt lat="45.9689844847618" lon="12.352137922054657"><ele>98.66666666666666</ele><time>2026-04-05T09:05:05Z</time></trkpt><trkpt lat="45.9688723018165" lon="12.352305661155924"><ele>98.33333333333333</ele><time>2026-04-05T09:05:06Z</time></trkpt><trkpt lat="45.96876257799023" lon="12.35247506329988"><ele>98.0</ele><time>2026-04-05T09:05:07Z</time></trkpt><trkpt lat="45.96862699825719" lon="12.352654201882018"><ele>98.0</ele><time>2026-04-05T09:05:08Z</time></trkpt><trkpt lat="45.96850313022745" lon="12.352819562535084"><ele>98.0</ele><time>2026-04-05T09:05:09Z</time></trkpt><trkpt lat="45.96838708904626" lon="12.353011435779909"><ele>98.0</ele><time>2026-04-05T09:05:10Z</time></trkpt><trkpt lat="45.96827642016938" lon="12.353161896626366"><ele>97.5</ele><time>2026-04-05T09:05:11Z</time></trkpt><trkpt lat="45.968168673383744" lon="12.35332698111079"><ele>97.0</ele><time>2026-04-05T09:05:12Z</time></trkpt><trkpt lat="45.968080851984226" lon="12.353467203219376"><ele>96.5</ele><time>2026-04-05T09:05:13Z</time></trkpt><trkpt lat="45.96800160741616" lon="12.353584199403686"><ele>96.0</ele><time>2026-04-05T09:05:14Z</time></trkpt><trkpt lat="45.96790716911488" lon="12.353763759748654"><ele>95.6</ele><time>2026-04-05T09:05:15Z</time></trkpt><trkpt lat="45.96784254993127" lon="12.353874950680162"><ele>95.19999999999999</ele><time>2026-04-05T09:05:16Z</time></trkpt><trkpt lat="45.96776837298221" lon="12.353970176079127"><ele>94.80000000000001</ele><time>2026-04-05T09:05:17Z</time></trkpt><trkpt lat="45.9676970923657" lon="12.354061902300863"><ele>94.4</ele><time>2026-04-05T09:05:18Z</time></trkpt><trkpt lat="45.96764497295879" lon="12.354134006176222"><ele>94.0</ele><time>2026-04-05T09:05:19Z</time></trkpt><trkpt lat="45.96757092942305" lon="12.354257350353874"><ele>94.25</ele><time>2026-04-05T09:05:20Z</time></trkpt><trkpt lat="45.96747525856806" lon="12.354392091827384"><ele>94.5</ele><time>2026-04-05T09:05:21Z</time></trkpt><trkpt lat="45.967385444527835" lon="12.354526227696699"><ele>94.75</ele><time>2026-04-05T09:05:22Z</time></trkpt><trkpt lat="45.967268095440225" lon="12.354710380577405"><ele>95.0</ele><time>2026-04-05T09:05:23Z</time></trkpt><trkpt lat="45.96715456228989" lon="12.35490523330889"><ele>95.0</ele><time>2026-04-05T09:05:24Z</time></trkpt><trkpt lat="45.96705998270526" lon="12.355100418126028"><ele>95.0</ele><time>2026-04-05T09:05:25Z</time></trkpt><trkpt lat="45.966890292889865" lon="12.355373387257547"><ele>95.0</ele><time>2026-04-05T09:05:26Z</time></trkpt><trkpt lat="45.96675993418944" lon="12.355604544701706"><ele>94.0</ele><time>2026-04-05T09:05:27Z</time></trkpt><trkpt lat="45.96659377984773" lon="12.355860599023295"><ele>93.0</ele><time>2026-04-05T09:05:28Z</time></trkpt><trkpt lat="45.966435263144845" lon="12.356120847367412"><ele>93.0</ele><time>2026-04-05T09:05:29Z</time></trkpt><trkpt lat="45.96628317631764" lon="12.356371041626959"><ele>93.0</ele><time>2026-04-05T09:05:30Z</time></trkpt><trkpt lat="45.9661454925761" lon="12.356597244603046"><ele>93.0</ele><time>2026-04-05T09:05:31Z</time></trkpt><trkpt lat="45.966010307031276" lon="12.356817200334701"><ele>93.0</ele><time>2026-04-05T09:05:32Z</time></trkpt><trkpt lat="45.96591508146728" lon="12.357000310173568"><ele>93.0</ele><time>2026-04-05T09:05:33Z</time></trkpt><trkpt lat="45.965812385712326" lon="12.3571391841671"><ele>93.0</ele><time>2026-04-05T09:05:34Z</time></trkpt><trkpt lat="45.965709061027574" lon="12.357307152444763"><ele>93.0</ele><time>2026-04-05T09:05:35Z</time></trkpt><trkpt lat="45.96562456829761" lon="12.357444506966418"><ele>93.0</ele><time>2026-04-05T09:05:36Z</time></trkpt><trkpt lat="45.96553234049348" lon="12.357594434974128"><ele>93.0</ele><time>2026-04-05T09:05:37Z</time></trkpt><trkpt lat="45.96543417726158" lon="12.357784869344298"><ele>93.0</ele><time>2026-04-05T09:05:38Z</time></trkpt><trkpt lat="45.96529699082076" lon="12.357977027398352"><ele>92.66666666666667</ele><time>2026-04-05T09:05:39Z</time></trkpt><trkpt lat="45.965172384568135" lon="12.35817959142311"><ele>92.33333333333334</ele><time>2026-04-05T09:05:40Z</time></trkpt><trkpt lat="45.96504128357232" lon="12.358392713793956"><ele>92.0</ele><time>2026-04-05T09:05:41Z</time></trkpt><trkpt lat="45.96492692905493" lon="12.358578612165427"><ele>92.0</ele><time>2026-04-05T09:05:42Z</time></trkpt><trkpt lat="45.9648054138465" lon="12.358776302772826"><ele>92.0</ele><time>2026-04-05T09:05:43Z</time></trkpt><trkpt lat="45.96467918109651" lon="12.358981717233391"><ele>92.0</ele><time>2026-04-05T09:05:44Z</time></trkpt><trkpt lat="45.96455639543217" lon="12.35918180504594"><ele>92.0</ele><time>2026-04-05T09:05:45Z</time></trkpt><trkpt lat="45.9644354965448" lon="12.359380108645663"><ele>92.0</ele><time>2026-04-05T09:05:46Z</time></trkpt><trkpt lat="45.96430604497398" lon="12.35959244085295"><ele>92.0</ele><time>2026-04-05T09:05:47Z</time></trkpt><trkpt lat="45.96414975784089" lon="12.359847545893803"><ele>92.0</ele><time>2026-04-05T09:05:48Z</time></trkpt><trkpt lat="45.96403012112176" lon="12.36004166981003"><ele>92.0</ele><time>2026-04-05T09:05:49Z</time></trkpt><trkpt lat="45.96391790587638" lon="12.360223118581683"><ele>92.0</ele><time>2026-04-05T09:05:50Z</time></trkpt><trkpt lat="45.96382381544142" lon="12.36037525838601"><ele>91.75</ele><time>2026-04-05T09:05:51Z</time></trkpt><trkpt lat="45.963717133250476" lon="12.360547759437965"><ele>91.5</ele><time>2026-04-05T09:05:52Z</time></trkpt><trkpt lat="45.96363843782762" lon="12.360675007101305"><ele>91.25</ele><time>2026-04-05T09:05:53Z</time></trkpt><trkpt lat="45.9635430995126" lon="12.360829792128952"><ele>91.0</ele><time>2026-04-05T09:05:54Z</time></trkpt><trkpt lat="45.96345119289757" lon="12.360978961236055"><ele>91.0</ele><time>2026-04-05T09:05:55Z</time></trkpt><trkpt lat="45.96337710701997" lon="12.361099206593781"><ele>91.0</ele><time>2026-04-05T09:05:56Z</time></trkpt><trkpt lat="45.96330718431364" lon="12.361233646555446"><ele>91.0</ele><time>2026-04-05T09:05:57Z</time></trkpt><trkpt lat="45.96321371387073" lon="12.361357138266259"><ele>91.0</ele><time>2026-04-05T09:05:58Z</time></trkpt><trkpt lat="45.96314434419208" lon="12.361436532191403"><ele>91.0</ele><time>2026-04-05T09:05:59Z</time></trkpt><trkpt lat="45.96306495717019" lon="12.361536517944472"><ele>91.4</ele><time>2026-04-05T09:06:00Z</time></trkpt><trkpt lat="45.96298973169119" lon="12.361633671099904"><ele>91.8</ele><time>2026-04-05T09:06:01Z</time></trkpt><trkpt lat="45.96292743421472" lon="12.361731651568352"><ele>92.2</ele><time>2026-04-05T09:06:02Z</time></trkpt><trkpt lat="45.96285218416364" lon="12.361842996656083"><ele>92.60000000000001</ele><time>2026-04-05T09:06:03Z</time></trkpt><trkpt lat="45.96283334993295" lon="12.361982767733451"><ele>93.0</ele><time>2026-04-05T09:06:04Z</time></trkpt><trkpt lat="45.962719902740275" lon="12.362105272994064"><ele>93.0</ele><time>2026-04-05T09:06:05Z</time></trkpt><trkpt lat="45.962625027908274" lon="12.3621674837505"><ele>93.0</ele><time>2026-04-05T09:06:06Z</time></trkpt><trkpt lat="45.962518856559534" lon="12.36223421508071"><ele>93.0</ele><time>2026-04-05T09:06:07Z</time></trkpt><trkpt lat="45.96245538799305" lon="12.362274894989056"><ele>93.0</ele><time>2026-04-05T09:06:08Z</time></trkpt><trkpt lat="45.96240743499442" lon="12.36243055147641"><ele>93.0</ele><time>2026-04-05T09:06:10Z</time></trkpt><trkpt lat="45.96241709588296" lon="12.362555096939062"><ele>92.5</ele><time>2026-04-05T09:06:11Z</time></trkpt><trkpt lat="45.96238743746852" lon="12.362687296920333"><ele>92.0</ele><time>2026-04-05T09:06:12Z</time></trkpt><trkpt lat="45.96230610017477" lon="12.362850997646277"><ele>91.5</ele><time>2026-04-05T09:06:13Z</time></trkpt><trkpt lat="45.962189117383595" lon="12.363017964059322"><ele>91.0</ele><time>2026-04-05T09:06:14Z</time></trkpt><trkpt lat="45.96205651942839" lon="12.363236162228604"><ele>91.0</ele><time>2026-04-05T09:06:15Z</time></trkpt><trkpt lat="45.961910558643055" lon="12.363476348401687"><ele>91.0</ele><time>2026-04-05T09:06:16Z</time></trkpt><trkpt lat="45.96180434504326" lon="12.363652398172475"><ele>91.0</ele><time>2026-04-05T09:06:17Z</time></trkpt><trkpt lat="45.96164057779401" lon="12.363923432592605"><ele>91.5</ele><time>2026-04-05T09:06:18Z</time></trkpt><trkpt lat="45.96148601391557" lon="12.364177751729914"><ele>92.0</ele><time>2026-04-05T09:06:19Z</time></trkpt><trkpt lat="45.96133537417961" lon="12.364423036263165"><ele>92.0</ele><time>2026-04-05T09:06:20Z</time></trkpt><trkpt lat="45.96119951278857" lon="12.364671172275935"><ele>92.0</ele><time>2026-04-05T09:06:21Z</time></trkpt><trkpt lat="45.96102979332139" lon="12.364833275412137"><ele>92.0</ele><time>2026-04-05T09:06:22Z</time></trkpt><trkpt lat="45.960949074324525" lon="12.365030003171038"><ele>91.33333333333334</ele><time>2026-04-05T09:06:23Z</time></trkpt><trkpt lat="45.960852756098966" lon="12.36521842732136"><ele>90.66666666666667</ele><time>2026-04-05T09:06:24Z</time></trkpt><trkpt lat="45.96072193083419" lon="12.365441525574358"><ele>90.0</ele><time>2026-04-05T09:06:25Z</time></trkpt><trkpt lat="45.96057137838849" lon="12.365633265277449"><ele>89.0</ele><time>2026-04-05T09:06:26Z</time></trkpt><trkpt lat="45.9603860355908" lon="12.365814666189257"><ele>88.0</ele><time>2026-04-05T09:06:27Z</time></trkpt><trkpt lat="45.9601805914891" lon="12.365989128878123"><ele>87.5</ele><time>2026-04-05T09:06:28Z</time></trkpt><trkpt lat="45.95996802613353" lon="12.366159616127538"><ele>87.0</ele><time>2026-04-05T09:06:29Z</time></trkpt><trkpt lat="45.959754124623316" lon="12.366420204368739"><ele>87.0</ele><time>2026-04-05T09:06:30Z</time></trkpt><trkpt lat="45.95959490118346" lon="12.366535322014697"><ele>87.0</ele><time>2026-04-05T09:06:31Z</time></trkpt><trkpt lat="45.95937277302938" lon="12.366728585077102"><ele>87.0</ele><time>2026-04-05T09:06:32Z</time></trkpt><trkpt lat="45.95919729268191" lon="12.366882826162092"><ele>86.33333333333333</ele><time>2026-04-05T09:06:32.999Z</time></trkpt><trkpt lat="45.95904147065797" lon="12.367016930538929"><ele>85.66666666666666</ele><time>2026-04-05T09:06:33.999Z</time></trkpt><trkpt lat="45.95885423324486" lon="12.367165602003043"><ele>85.0</ele><time>2026-04-05T09:06:34.999Z</time></trkpt><trkpt lat="45.95866568706354" lon="12.367320481660336"><ele>85.33333333333333</ele><time>2026-04-05T09:06:35.999Z</time></trkpt><trkpt lat="45.95846684490042" lon="12.367539643980077"><ele>85.66666666666667</ele><time>2026-04-05T09:06:36.999Z</time></trkpt><trkpt lat="45.9583108929519" lon="12.367677679148679"><ele>86.0</ele><time>2026-04-05T09:06:37.999Z</time></trkpt><trkpt lat="45.95814161208682" lon="12.367814992721735"><ele>86.0</ele><time>2026-04-05T09:06:38.999Z</time></trkpt><trkpt lat="45.95797346888996" lon="12.367946560352713"><ele>86.0</ele><time>2026-04-05T09:06:39.999Z</time></trkpt><trkpt lat="45.95781863788013" lon="12.368076115477791"><ele>86.0</ele><time>2026-04-05T09:06:40.999Z</time></trkpt><trkpt lat="45.95766888374276" lon="12.368204582294712"><ele>85.0</ele><time>2026-04-05T09:06:41.999Z</time></trkpt><trkpt lat="45.957561436538" lon="12.368329916069358"><ele>84.0</ele><time>2026-04-05T09:06:42.999Z</time></trkpt><trkpt lat="45.95749191990843" lon="12.368410034497153"><ele>83.0</ele><time>2026-04-05T09:06:43.999Z</time></trkpt><trkpt lat="45.95738738695099" lon="12.368553966824463"><ele>82.0</ele><time>2026-04-05T09:06:44.999Z</time></trkpt><trkpt lat="45.95728584465545" lon="12.368721493597501"><ele>81.33333333333333</ele><time>2026-04-05T09:06:45.999Z</time></trkpt><trkpt lat="45.95719070390381" lon="12.368936350132776"><ele>80.66666666666667</ele><time>2026-04-05T09:06:46.999Z</time></trkpt><trkpt lat="45.9570820163939" lon="12.369189471161292"><ele>80.0</ele><time>2026-04-05T09:06:47.999Z</time></trkpt><trkpt lat="45.957027966949106" lon="12.369428950411626"><ele>80.0</ele><time>2026-04-05T09:06:48.999Z</time></trkpt><trkpt lat="45.9569680254017" lon="12.369667878726013"><ele>80.0</ele><time>2026-04-05T09:06:49.999Z</time></trkpt><trkpt lat="45.95689522228609" lon="12.369904614526169"><ele>80.0</ele><time>2026-04-05T09:06:50.999Z</time></trkpt><trkpt lat="45.95682689766399" lon="12.370173262089862"><ele>80.33333333333334</ele><time>2026-04-05T09:06:51.999Z</time></trkpt><trkpt lat="45.956759605266505" lon="12.370432697926697"><ele>80.66666666666667</ele><time>2026-04-05T09:06:52.999Z</time></trkpt><trkpt lat="45.95670635853066" lon="12.370685058541868"><ele>81.0</ele><time>2026-04-05T09:06:53.999Z</time></trkpt><trkpt lat="45.9566560527783" lon="12.370958796161196"><ele>81.0</ele><time>2026-04-05T09:06:54.999Z</time></trkpt><trkpt lat="45.95661970441882" lon="12.371211344444843"><ele>81.0</ele><time>2026-04-05T09:06:55.999Z</time></trkpt><trkpt lat="45.956578346242694" lon="12.371452472121488"><ele>81.0</ele><time>2026-04-05T09:06:56.999Z</time></trkpt><trkpt lat="45.95652759451368" lon="12.371696115465518"><ele>81.0</ele><time>2026-04-05T09:06:57.999Z</time></trkpt><trkpt lat="45.95647247928421" lon="12.37194783227805"><ele>81.0</ele><time>2026-04-05T09:06:58.999Z</time></trkpt><trkpt lat="45.956418356101665" lon="12.372184840784026"><ele>81.0</ele><time>2026-04-05T09:06:59.999Z</time></trkpt><trkpt lat="45.95637056075484" lon="12.372421127551823"><ele>80.33333333333333</ele><time>2026-04-05T09:07:00.999Z</time></trkpt><trkpt lat="45.95633370995064" lon="12.372683697409522"><ele>79.66666666666666</ele><time>2026-04-05T09:07:01.999Z</time></trkpt><trkpt lat="45.95627099024642" lon="12.372937886412226"><ele>79.0</ele><time>2026-04-05T09:07:02.999Z</time></trkpt><trkpt lat="45.95622930808478" lon="12.373149973429578"><ele>78.66666666666666</ele><time>2026-04-05T09:07:03.999Z</time></trkpt><trkpt lat="45.95617503692539" lon="12.373353175394223"><ele>78.33333333333333</ele><time>2026-04-05T09:07:04.999Z</time></trkpt><trkpt lat="45.956169663012375" lon="12.373541064495708"><ele>78.0</ele><time>2026-04-05T09:07:05.999Z</time></trkpt><trkpt lat="45.956123092141645" lon="12.373779016400587"><ele>77.66666666666667</ele><time>2026-04-05T09:07:06.999Z</time></trkpt><trkpt lat="45.9560740519401" lon="12.374031095598028"><ele>77.33333333333334</ele><time>2026-04-05T09:07:08Z</time></trkpt><trkpt lat="45.956028766513974" lon="12.374261424105054"><ele>77.0</ele><time>2026-04-05T09:07:09Z</time></trkpt><trkpt lat="45.95598551264606" lon="12.374489378993902"><ele>77.0</ele><time>2026-04-05T09:07:10Z</time></trkpt><trkpt lat="45.95594392740653" lon="12.374719426338753"><ele>77.0</ele><time>2026-04-05T09:07:11Z</time></trkpt><trkpt lat="45.95590310734072" lon="12.374950311018612"><ele>77.0</ele><time>2026-04-05T09:07:12Z</time></trkpt><trkpt lat="45.955865679511646" lon="12.375175144824775"><ele>77.0</ele><time>2026-04-05T09:07:13Z</time></trkpt><trkpt lat="45.95582934662737" lon="12.375382346922148"><ele>77.0</ele><time>2026-04-05T09:07:14Z</time></trkpt><trkpt lat="45.95579060793072" lon="12.375572089006448"><ele>77.0</ele><time>2026-04-05T09:07:15Z</time></trkpt><trkpt lat="45.95575480302906" lon="12.375774138294773"><ele>77.0</ele><time>2026-04-05T09:07:16Z</time></trkpt><trkpt lat="45.955708578410714" lon="12.375943676974297"><ele>77.25</ele><time>2026-04-05T09:07:17Z</time></trkpt><trkpt lat="45.955673513360026" lon="12.376121865175199"><ele>77.5</ele><time>2026-04-05T09:07:18Z</time></trkpt><trkpt lat="45.9556362814993" lon="12.37631420129961"><ele>77.75</ele><time>2026-04-05T09:07:19Z</time></trkpt><trkpt lat="45.95560745682073" lon="12.37645878881924"><ele>78.0</ele><time>2026-04-05T09:07:20Z</time></trkpt><trkpt lat="45.9555700232829" lon="12.376644025033931"><ele>78.0</ele><time>2026-04-05T09:07:21Z</time></trkpt><trkpt lat="45.95553387918771" lon="12.376811506821333"><ele>78.0</ele><time>2026-04-05T09:07:22Z</time></trkpt><trkpt lat="45.955493612575566" lon="12.376982170868912"><ele>78.0</ele><time>2026-04-05T09:07:23Z</time></trkpt><trkpt lat="45.955422917866514" lon="12.377126655622094"><ele>78.0</ele><time>2026-04-05T09:07:24Z</time></trkpt><trkpt lat="45.955339784364305" lon="12.377269010372771"><ele>78.0</ele><time>2026-04-05T09:07:25Z</time></trkpt><trkpt lat="45.95524002293981" lon="12.377382206655279"><ele>78.0</ele><time>2026-04-05T09:07:26Z</time></trkpt><trkpt lat="45.95512959414434" lon="12.377436134821616"><ele>78.0</ele><time>2026-04-05T09:07:27Z</time></trkpt><trkpt lat="45.9550186760828" lon="12.377491354553326"><ele>78.0</ele><time>2026-04-05T09:07:28Z</time></trkpt><trkpt lat="45.9549234457357" lon="12.377542948920974"><ele>78.0</ele><time>2026-04-05T09:07:29Z</time></trkpt><trkpt lat="45.95482249569623" lon="12.37756601588855"><ele>78.0</ele><time>2026-04-05T09:07:30Z</time></trkpt><trkpt lat="45.95475254401024" lon="12.377547111872888"><ele>78.0</ele><time>2026-04-05T09:07:31Z</time></trkpt><trkpt lat="45.954677808447514" lon="12.37764470299921"><ele>78.0</ele><time>2026-04-05T09:07:32Z</time></trkpt><trkpt lat="45.954599719896095" lon="12.377749134139872"><ele>78.0</ele><time>2026-04-05T09:07:33Z</time></trkpt><trkpt lat="45.954539721002675" lon="12.377881860068852"><ele>77.66666666666667</ele><time>2026-04-05T09:07:34Z</time></trkpt><trkpt lat="45.95446290934197" lon="12.37804111940356"><ele>77.33333333333334</ele><time>2026-04-05T09:07:35Z</time></trkpt><trkpt lat="45.95437840731446" lon="12.378219356080445"><ele>77.0</ele><time>2026-04-05T09:07:36Z</time></trkpt><trkpt lat="45.954274318528746" lon="12.378414149809217"><ele>77.0</ele><time>2026-04-05T09:07:37Z</time></trkpt><trkpt lat="45.954156801589285" lon="12.378606469183442"><ele>77.0</ele><time>2026-04-05T09:07:38Z</time></trkpt><trkpt lat="45.95407449679394" lon="12.378802807121804"><ele>77.0</ele><time>2026-04-05T09:07:39Z</time></trkpt><trkpt lat="45.95398115221686" lon="12.378968538357231"><ele>76.6</ele><time>2026-04-05T09:07:40Z</time></trkpt><trkpt lat="45.95390714223918" lon="12.379102551508652"><ele>76.2</ele><time>2026-04-05T09:07:41Z</time></trkpt><trkpt lat="45.953825453425566" lon="12.37926971978427"><ele>75.8</ele><time>2026-04-05T09:07:42Z</time></trkpt><trkpt lat="45.953760995051375" lon="12.37936826182969"><ele>75.4</ele><time>2026-04-05T09:07:43Z</time></trkpt><trkpt lat="45.95371050829107" lon="12.379438090610142"><ele>75.0</ele><time>2026-04-05T09:07:44Z</time></trkpt><trkpt lat="45.95365464418961" lon="12.37950873304182"><ele>75.0</ele><time>2026-04-05T09:07:45Z</time></trkpt><trkpt lat="45.95357646969273" lon="12.379598380171423"><ele>75.0</ele><time>2026-04-05T09:07:47Z</time></trkpt><trkpt lat="45.95353219777826" lon="12.379669748496548"><ele>75.0</ele><time>2026-04-05T09:07:51Z</time></trkpt><trkpt lat="45.95345094210114" lon="12.379758703960817"><ele>75.0</ele><time>2026-04-05T09:07:52Z</time></trkpt><trkpt lat="45.95338435869399" lon="12.379825286397612"><ele>75.0</ele><time>2026-04-05T09:07:53Z</time></trkpt><trkpt lat="45.95339297810145" lon="12.380046095562113"><ele>75.25</ele><time>2026-04-05T09:07:54Z</time></trkpt><trkpt lat="45.953379116311545" lon="12.380230007858223"><ele>75.5</ele><time>2026-04-05T09:07:55Z</time></trkpt><trkpt lat="45.953341954552066" lon="12.380426508496745"><ele>75.75</ele><time>2026-04-05T09:07:56Z</time></trkpt><trkpt lat="45.9533036861756" lon="12.380656882535886"><ele>76.0</ele><time>2026-04-05T09:07:57Z</time></trkpt><trkpt lat="45.953259875015384" lon="12.38089884364017"><ele>76.33333333333333</ele><time>2026-04-05T09:07:58Z</time></trkpt><trkpt lat="45.95321886182998" lon="12.381173677819092"><ele>76.66666666666667</ele><time>2026-04-05T09:07:59Z</time></trkpt><trkpt lat="45.953155083928415" lon="12.381467185844988"><ele>77.0</ele><time>2026-04-05T09:08:00Z</time></trkpt><trkpt lat="45.95311171479327" lon="12.381762391491414"><ele>76.0</ele><time>2026-04-05T09:08:01Z</time></trkpt><trkpt lat="45.953047188098324" lon="12.382075896678334"><ele>75.0</ele><time>2026-04-05T09:08:02Z</time></trkpt><trkpt lat="45.95316348471026" lon="12.381705181114862"><ele>74.0</ele><time>2026-04-05T09:08:03Z</time></trkpt><trkpt lat="45.953013366624354" lon="12.382351016619221"><ele>74.0</ele><time>2026-04-05T09:08:04Z</time></trkpt><trkpt lat="45.95295852958047" lon="12.382652680145306"><ele>74.0</ele><time>2026-04-05T09:08:05Z</time></trkpt><trkpt lat="45.95291333898239" lon="12.38294106479853"><ele>74.0</ele><time>2026-04-05T09:08:06Z</time></trkpt><trkpt lat="45.952874257705915" lon="12.383190728483868"><ele>74.0</ele><time>2026-04-05T09:08:07Z</time></trkpt><trkpt lat="45.9528638225776" lon="12.383505014830801"><ele>74.0</ele><time>2026-04-05T09:08:08Z</time></trkpt><trkpt lat="45.95281826198572" lon="12.383921975180321"><ele>74.0</ele><time>2026-04-05T09:08:09Z</time></trkpt><trkpt lat="45.95278517435196" lon="12.384181878456841"><ele>74.0</ele><time>2026-04-05T09:08:10Z</time></trkpt><trkpt lat="45.95274812906067" lon="12.384362050362483"><ele>74.0</ele><time>2026-04-05T09:08:11Z</time></trkpt><trkpt lat="45.95272241431444" lon="12.384502105007325"><ele>74.0</ele><time>2026-04-05T09:08:12Z</time></trkpt><trkpt lat="45.95270471444293" lon="12.384651505670451"><ele>73.0</ele><time>2026-04-05T09:08:13Z</time></trkpt><trkpt lat="45.95266616508997" lon="12.384878711659137"><ele>72.0</ele><time>2026-04-05T09:08:14Z</time></trkpt><trkpt lat="45.95262517832178" lon="12.385132407395744"><ele>71.0</ele><time>2026-04-05T09:08:15Z</time></trkpt><trkpt lat="45.95258044375192" lon="12.385414508612179"><ele>71.25</ele><time>2026-04-05T09:08:16Z</time></trkpt><trkpt lat="45.95254787053822" lon="12.38561991885383"><ele>71.5</ele><time>2026-04-05T09:08:17Z</time></trkpt><trkpt lat="45.95251683473885" lon="12.385815633799735"><ele>71.75</ele><time>2026-04-05T09:08:18Z</time></trkpt><trkpt lat="45.952486452604695" lon="12.386009088495742"><ele>72.0</ele><time>2026-04-05T09:08:19Z</time></trkpt><trkpt lat="45.952455156669146" lon="12.386209270544674"><ele>72.0</ele><time>2026-04-05T09:08:20Z</time></trkpt><trkpt lat="45.9524161939879" lon="12.38641112035887"><ele>72.0</ele><time>2026-04-05T09:08:21Z</time></trkpt><trkpt lat="45.95237360329225" lon="12.386617906709125"><ele>72.0</ele><time>2026-04-05T09:08:22Z</time></trkpt><trkpt lat="45.952327624911746" lon="12.386822072349824"><ele>72.0</ele><time>2026-04-05T09:08:23Z</time></trkpt><trkpt lat="45.952283777107645" lon="12.387025399092247"><ele>71.75</ele><time>2026-04-05T09:08:24Z</time></trkpt><trkpt lat="45.952238870858686" lon="12.387219735948277"><ele>71.5</ele><time>2026-04-05T09:08:25Z</time></trkpt><trkpt lat="45.95219472530562" lon="12.387414294007312"><ele>71.25</ele><time>2026-04-05T09:08:26Z</time></trkpt><trkpt lat="45.95217528920668" lon="12.387593157518397"><ele>71.0</ele><time>2026-04-05T09:08:27Z</time></trkpt><trkpt lat="45.952158623490796" lon="12.387770110190129"><ele>71.0</ele><time>2026-04-05T09:08:28Z</time></trkpt><trkpt lat="45.952119109998144" lon="12.387943997126312"><ele>71.0</ele><time>2026-04-05T09:08:29Z</time></trkpt><trkpt lat="45.952077063834444" lon="12.388118233569037"><ele>71.0</ele><time>2026-04-05T09:08:30Z</time></trkpt><trkpt lat="45.95206220998647" lon="12.388303768672682"><ele>71.0</ele><time>2026-04-05T09:08:31Z</time></trkpt><trkpt lat="45.952033276620284" lon="12.388485911717538"><ele>70.75</ele><time>2026-04-05T09:08:31.999Z</time></trkpt><trkpt lat="45.9520026164564" lon="12.388679631746825"><ele>70.5</ele><time>2026-04-05T09:08:32.999Z</time></trkpt><trkpt lat="45.95197718372154" lon="12.388873351054501"><ele>70.25</ele><time>2026-04-05T09:08:33.999Z</time></trkpt><trkpt lat="45.95195921900112" lon="12.389017726354478"><ele>70.0</ele><time>2026-04-05T09:08:34.999Z</time></trkpt><trkpt lat="45.951944489741905" lon="12.389213508957827"><ele>69.66666666666666</ele><time>2026-04-05T09:08:35.999Z</time></trkpt><trkpt lat="45.95199534805321" lon="12.389388478017949"><ele>69.33333333333333</ele><time>2026-04-05T09:08:38.999Z</time></trkpt><trkpt lat="45.95199091935539" lon="12.38973269411458"><ele>69.0</ele><time>2026-04-05T09:08:39.999Z</time></trkpt><trkpt lat="45.95199271770534" lon="12.389981815766108"><ele>68.75</ele><time>2026-04-05T09:08:40.999Z</time></trkpt><trkpt lat="45.951993505898194" lon="12.39013624517771"><ele>68.5</ele><time>2026-04-05T09:08:41.999Z</time></trkpt><trkpt lat="45.95199441877956" lon="12.390315104901507"><ele>68.25</ele><time>2026-04-05T09:08:42.999Z</time></trkpt><trkpt lat="45.95199002429289" lon="12.390534589946242"><ele>68.0</ele><time>2026-04-05T09:08:43.999Z</time></trkpt><trkpt lat="45.95197998504232" lon="12.390677429008191"><ele>68.0</ele><time>2026-04-05T09:08:44.999Z</time></trkpt><trkpt lat="45.95197223204714" lon="12.390812955384083"><ele>68.0</ele><time>2026-04-05T09:08:45.999Z</time></trkpt><trkpt lat="45.951944419621896" lon="12.39096231388825"><ele>68.0</ele><time>2026-04-05T09:08:46.999Z</time></trkpt><trkpt lat="45.951917351978516" lon="12.391094403627521"><ele>68.0</ele><time>2026-04-05T09:08:47.999Z</time></trkpt><trkpt lat="45.95186111562738" lon="12.391186226746687"><ele>68.0</ele><time>2026-04-05T09:08:49.999Z</time></trkpt><trkpt lat="45.95174853127567" lon="12.391259594712109"><ele>68.25</ele><time>2026-04-05T09:08:51.999Z</time></trkpt><trkpt lat="45.9517174992755" lon="12.39137639848166"><ele>68.5</ele><time>2026-04-05T09:08:52.999Z</time></trkpt><trkpt lat="45.95167821736997" lon="12.391469457840888"><ele>68.75</ele><time>2026-04-05T09:08:53.999Z</time></trkpt><trkpt lat="45.95158156131732" lon="12.391635357662798"><ele>69.0</ele><time>2026-04-05T09:08:55.999Z</time></trkpt><trkpt lat="45.95171270610273" lon="12.391757634762175"><ele>69.0</ele><time>2026-04-05T09:08:56.999Z</time></trkpt><trkpt lat="45.95172071514311" lon="12.39160045882239"><ele>69.0</ele><time>2026-04-05T09:08:58.999Z</time></trkpt><trkpt lat="45.95171184261525" lon="12.391774580609724"><ele>69.0</ele><time>2026-04-05T09:09:00.999Z</time></trkpt><trkpt lat="45.951574919479135" lon="12.391999289424563"><ele>69.0</ele><time>2026-04-05T09:09:02.999Z</time></trkpt><trkpt lat="45.95153013077315" lon="12.392141750227356"><ele>69.0</ele><time>2026-04-05T09:09:03.999Z</time></trkpt><trkpt lat="45.95144334823693" lon="12.392417782046298"><ele>69.0</ele><time>2026-04-05T09:09:04.999Z</time></trkpt><trkpt lat="45.951209456208055" lon="12.393366491919794"><ele>69.0</ele><time>2026-04-05T09:09:05.999Z</time></trkpt><trkpt lat="45.951118282910855" lon="12.393656852594841"><ele>69.0</ele><time>2026-04-05T09:09:06.999Z</time></trkpt><trkpt lat="45.95105100949712" lon="12.393870031168072"><ele>69.0</ele><time>2026-04-05T09:09:07.999Z</time></trkpt><trkpt lat="45.950985402006765" lon="12.394073348072602"><ele>69.0</ele><time>2026-04-05T09:09:08.999Z</time></trkpt><trkpt lat="45.95089009267314" lon="12.394351905721548"><ele>69.0</ele><time>2026-04-05T09:09:09.999Z</time></trkpt><trkpt lat="45.95081549280787" lon="12.394562762979776"><ele>69.0</ele><time>2026-04-05T09:09:10.999Z</time></trkpt><trkpt lat="45.95074974524445" lon="12.394753751807093"><ele>69.0</ele><time>2026-04-05T09:09:11.999Z</time></trkpt><trkpt lat="45.95069360967392" lon="12.394974377976672"><ele>69.0</ele><time>2026-04-05T09:09:12.999Z</time></trkpt><trkpt lat="45.95071609157583" lon="12.395142019101325"><ele>69.0</ele><time>2026-04-05T09:09:14Z</time></trkpt><trkpt lat="45.95058605115411" lon="12.39535563900362"><ele>68.33333333333333</ele><time>2026-04-05T09:09:15Z</time></trkpt><trkpt lat="45.95055061274945" lon="12.395511962009513"><ele>67.66666666666666</ele><time>2026-04-05T09:09:16Z</time></trkpt><trkpt lat="45.95049788829629" lon="12.395791215905838"><ele>67.0</ele><time>2026-04-05T09:09:17Z</time></trkpt><trkpt lat="45.95047070846159" lon="12.396043120776346"><ele>67.0</ele><time>2026-04-05T09:09:18Z</time></trkpt><trkpt lat="45.95045323826341" lon="12.396268644640257"><ele>67.0</ele><time>2026-04-05T09:09:19Z</time></trkpt><trkpt lat="45.950441213798925" lon="12.396438797417359"><ele>67.0</ele><time>2026-04-05T09:09:20Z</time></trkpt><trkpt lat="45.950422414781535" lon="12.396701612180339"><ele>67.0</ele><time>2026-04-05T09:09:21Z</time></trkpt><trkpt lat="45.950404627563096" lon="12.396966102618421"><ele>67.0</ele><time>2026-04-05T09:09:22Z</time></trkpt><trkpt lat="45.95038529789643" lon="12.397247861788525"><ele>67.0</ele><time>2026-04-05T09:09:23Z</time></trkpt><trkpt lat="45.95036906755565" lon="12.397484444102648"><ele>67.0</ele><time>2026-04-05T09:09:24Z</time></trkpt><trkpt lat="45.950358358791334" lon="12.397640540490647"><ele>67.0</ele><time>2026-04-05T09:09:25Z</time></trkpt><trkpt lat="45.9503449848577" lon="12.397836484211872"><ele>67.0</ele><time>2026-04-05T09:09:26Z</time></trkpt><trkpt lat="45.95032969169007" lon="12.398074004450999"><ele>67.0</ele><time>2026-04-05T09:09:27Z</time></trkpt><trkpt lat="45.950318102792025" lon="12.398246158363774"><ele>67.0</ele><time>2026-04-05T09:09:28Z</time></trkpt><trkpt lat="45.95030203308139" lon="12.398482127034724"><ele>67.0</ele><time>2026-04-05T09:09:29Z</time></trkpt><trkpt lat="45.950286861715576" lon="12.398704400509109"><ele>67.0</ele><time>2026-04-05T09:09:30Z</time></trkpt><trkpt lat="45.95026939579297" lon="12.398960291097481"><ele>65.0</ele><time>2026-04-05T09:09:31Z</time></trkpt><trkpt lat="45.95024435230119" lon="12.399327200391161"><ele>63.0</ele><time>2026-04-05T09:09:32Z</time></trkpt><trkpt lat="45.95022495372456" lon="12.399616540986187"><ele>62.0</ele><time>2026-04-05T09:09:33Z</time></trkpt><trkpt lat="45.950172209958275" lon="12.400028662318356"><ele>61.0</ele><time>2026-04-05T09:09:34Z</time></trkpt><trkpt lat="45.95013582945237" lon="12.40026322268772"><ele>61.0</ele><time>2026-04-05T09:09:35Z</time></trkpt><trkpt lat="45.950111741302514" lon="12.400473404353885"><ele>61.0</ele><time>2026-04-05T09:09:36Z</time></trkpt><trkpt lat="45.95010132307165" lon="12.400661744830966"><ele>61.0</ele><time>2026-04-05T09:09:37Z</time></trkpt><trkpt lat="45.95007720160514" lon="12.400944476919403"><ele>61.5</ele><time>2026-04-05T09:09:38Z</time></trkpt><trkpt lat="45.950101144772624" lon="12.401148365087174"><ele>62.0</ele><time>2026-04-05T09:09:39Z</time></trkpt><trkpt lat="45.95009279805728" lon="12.401382002058625"><ele>62.5</ele><time>2026-04-05T09:09:40Z</time></trkpt><trkpt lat="45.950085451502915" lon="12.401564503197461"><ele>63.0</ele><time>2026-04-05T09:09:41Z</time></trkpt><trkpt lat="45.950075182809336" lon="12.401780848961664"><ele>63.33333333333333</ele><time>2026-04-05T09:09:42Z</time></trkpt><trkpt lat="45.95005302501656" lon="12.402002784992709"><ele>63.666666666666664</ele><time>2026-04-05T09:09:43Z</time></trkpt><trkpt lat="45.950030750938545" lon="12.402219054342224"><ele>64.0</ele><time>2026-04-05T09:09:44Z</time></trkpt><trkpt lat="45.95000050341487" lon="12.402424044780483"><ele>63.5</ele><time>2026-04-05T09:09:45Z</time></trkpt><trkpt lat="45.949961121215885" lon="12.402611876008605"><ele>63.0</ele><time>2026-04-05T09:09:46Z</time></trkpt><trkpt lat="45.949923559930916" lon="12.402806405394243"><ele>62.5</ele><time>2026-04-05T09:09:47Z</time></trkpt><trkpt lat="45.94986427797102" lon="12.402993132888733"><ele>62.0</ele><time>2026-04-05T09:09:48Z</time></trkpt><trkpt lat="45.94981384655042" lon="12.403049230885612"><ele>61.75</ele><time>2026-04-05T09:09:49Z</time></trkpt><trkpt lat="45.949755761359086" lon="12.403223459019229"><ele>61.5</ele><time>2026-04-05T09:09:50Z</time></trkpt><trkpt lat="45.949677147789245" lon="12.403455111076266"><ele>61.25</ele><time>2026-04-05T09:09:51Z</time></trkpt><trkpt lat="45.94962590900709" lon="12.403591159754848"><ele>61.0</ele><time>2026-04-05T09:09:52Z</time></trkpt><trkpt lat="45.9495648383605" lon="12.40376669456002"><ele>61.33333333333333</ele><time>2026-04-05T09:09:53Z</time></trkpt><trkpt lat="45.949473397930724" lon="12.404048336459285"><ele>61.66666666666667</ele><time>2026-04-05T09:09:55Z</time></trkpt><trkpt lat="45.94939730131041" lon="12.40425250129526"><ele>62.0</ele><time>2026-04-05T09:09:56Z</time></trkpt><trkpt lat="45.949311450070674" lon="12.404479302905248"><ele>62.0</ele><time>2026-04-05T09:09:57Z</time></trkpt><trkpt lat="45.94922793248424" lon="12.404718341319638"><ele>62.0</ele><time>2026-04-05T09:09:58Z</time></trkpt><trkpt lat="45.94912649196464" lon="12.404988369297008"><ele>62.0</ele><time>2026-04-05T09:09:59Z</time></trkpt><trkpt lat="45.94892322310172" lon="12.405376184721888"><ele>61.5</ele><time>2026-04-05T09:10:00Z</time></trkpt><trkpt lat="45.94882926785368" lon="12.405643662724572"><ele>61.0</ele><time>2026-04-05T09:10:01Z</time></trkpt><trkpt lat="45.948727893074334" lon="12.406097624985442"><ele>61.0</ele><time>2026-04-05T09:10:02Z</time></trkpt><trkpt lat="45.94865057765301" lon="12.406480017155232"><ele>61.0</ele><time>2026-04-05T09:10:03Z</time></trkpt><trkpt lat="45.94850178708692" lon="12.40687890350478"><ele>58.5</ele><time>2026-04-05T09:10:04Z</time></trkpt><trkpt lat="45.94835639958457" lon="12.40722894498687"><ele>56.0</ele><time>2026-04-05T09:10:05Z</time></trkpt><trkpt lat="45.94814788546103" lon="12.407720697688655"><ele>56.0</ele><time>2026-04-05T09:10:06Z</time></trkpt><trkpt lat="45.94807004110813" lon="12.407844490036265"><ele>56.0</ele><time>2026-04-05T09:10:07Z</time></trkpt><trkpt lat="45.94788981070395" lon="12.40832927579247"><ele>56.5</ele><time>2026-04-05T09:10:08Z</time></trkpt><trkpt lat="45.947697437401295" lon="12.408833233608108"><ele>57.0</ele><time>2026-04-05T09:10:09Z</time></trkpt><trkpt lat="45.9475178579588" lon="12.409241123052345"><ele>57.0</ele><time>2026-04-05T09:10:10Z</time></trkpt><trkpt lat="45.947345678524236" lon="12.409650065870155"><ele>57.0</ele><time>2026-04-05T09:10:11Z</time></trkpt><trkpt lat="45.94718242247764" lon="12.410061822572466"><ele>58.0</ele><time>2026-04-05T09:10:12Z</time></trkpt><trkpt lat="45.94699945019386" lon="12.410556623759497"><ele>59.0</ele><time>2026-04-05T09:10:13Z</time></trkpt><trkpt lat="45.94683592576599" lon="12.410998833364367"><ele>58.0</ele><time>2026-04-05T09:10:14Z</time></trkpt><trkpt lat="45.94667634524836" lon="12.411430377845578"><ele>57.0</ele><time>2026-04-05T09:10:15Z</time></trkpt><trkpt lat="45.946501974379345" lon="12.411901814518854"><ele>57.0</ele><time>2026-04-05T09:10:16Z</time></trkpt><trkpt lat="45.94634891598379" lon="12.412313530202326"><ele>57.0</ele><time>2026-04-05T09:10:17Z</time></trkpt><trkpt lat="45.94620532870827" lon="12.412697362193478"><ele>57.0</ele><time>2026-04-05T09:10:18Z</time></trkpt><trkpt lat="45.94602516820838" lon="12.413272400327516"><ele>57.0</ele><time>2026-04-05T09:10:19Z</time></trkpt><trkpt lat="45.94590160457382" lon="12.413577183657296"><ele>57.0</ele><time>2026-04-05T09:10:20Z</time></trkpt><trkpt lat="45.945842751690094" lon="12.413788199894816"><ele>57.0</ele><time>2026-04-05T09:10:21Z</time></trkpt><trkpt lat="45.94575707792589" lon="12.414111436329613"><ele>57.0</ele><time>2026-04-05T09:10:22Z</time></trkpt><trkpt lat="45.94570881228162" lon="12.414280344306114"><ele>57.0</ele><time>2026-04-05T09:10:23Z</time></trkpt><trkpt lat="45.94563404592404" lon="12.414555612827712"><ele>57.0</ele><time>2026-04-05T09:10:24Z</time></trkpt><trkpt lat="45.94557446705151" lon="12.414815300497315"><ele>57.0</ele><time>2026-04-05T09:10:25Z</time></trkpt><trkpt lat="45.94553562164807" lon="12.415016043911848"><ele>57.0</ele><time>2026-04-05T09:10:26Z</time></trkpt><trkpt lat="45.945507165127545" lon="12.415176161259554"><ele>57.0</ele><time>2026-04-05T09:10:27Z</time></trkpt><trkpt lat="45.94541426356414" lon="12.415527987725728"><ele>57.0</ele><time>2026-04-05T09:10:28Z</time></trkpt><trkpt lat="45.945475527425685" lon="12.415608179825744"><ele>57.0</ele><time>2026-04-05T09:10:29Z</time></trkpt><trkpt lat="45.945456621972866" lon="12.415747013147046"><ele>57.0</ele><time>2026-04-05T09:10:30Z</time></trkpt><trkpt lat="45.945347789980694" lon="12.416014135280012"><ele>57.0</ele><time>2026-04-05T09:10:31Z</time></trkpt><trkpt lat="45.94529317154858" lon="12.41616960456593"><ele>57.0</ele><time>2026-04-05T09:10:32Z</time></trkpt><trkpt lat="45.94520702277485" lon="12.416285753841892"><ele>57.0</ele><time>2026-04-05T09:10:33Z</time></trkpt><trkpt lat="45.94513387249946" lon="12.416401644155313"><ele>57.0</ele><time>2026-04-05T09:10:34Z</time></trkpt><trkpt lat="45.945117817186066" lon="12.416556297499515"><ele>57.0</ele><time>2026-04-05T09:10:35Z</time></trkpt><trkpt lat="45.94511874258541" lon="12.41672541739378"><ele>57.0</ele><time>2026-04-05T09:10:36Z</time></trkpt><trkpt lat="45.9451723163765" lon="12.416879313879102"><ele>57.0</ele><time>2026-04-05T09:10:36.999Z</time></trkpt><trkpt lat="45.94529889921191" lon="12.417060758621105"><ele>57.0</ele><time>2026-04-05T09:10:37.999Z</time></trkpt><trkpt lat="45.94531388438339" lon="12.417268267082104"><ele>57.0</ele><time>2026-04-05T09:10:38.999Z</time></trkpt><trkpt lat="45.945327745149626" lon="12.417457792270094"><ele>57.0</ele><time>2026-04-05T09:10:39.999Z</time></trkpt><trkpt lat="45.9453365431217" lon="12.417570240120833"><ele>57.0</ele><time>2026-04-05T09:10:40.999Z</time></trkpt><trkpt lat="45.945364319754994" lon="12.417935463740502"><ele>57.0</ele><time>2026-04-05T09:10:42.999Z</time></trkpt><trkpt lat="45.945383945087755" lon="12.4181990620999"><ele>55.66666666666667</ele><time>2026-04-05T09:10:43.999Z</time></trkpt><trkpt lat="45.945394886113" lon="12.418342699935934"><ele>54.333333333333336</ele><time>2026-04-05T09:10:44.999Z</time></trkpt><trkpt lat="45.94541916748996" lon="12.418678267695237"><ele>53.0</ele><time>2026-04-05T09:10:45.999Z</time></trkpt><trkpt lat="45.945454205194125" lon="12.419158681679102"><ele>52.0</ele><time>2026-04-05T09:10:46.999Z</time></trkpt><trkpt lat="45.945497417120094" lon="12.419748788533337"><ele>51.0</ele><time>2026-04-05T09:10:47.999Z</time></trkpt><trkpt lat="45.94552879231413" lon="12.420243691266945"><ele>51.0</ele><time>2026-04-05T09:10:48.999Z</time></trkpt><trkpt lat="45.94555385050687" lon="12.420521460979879"><ele>51.0</ele><time>2026-04-05T09:10:49.999Z</time></trkpt><trkpt lat="45.94562643798127" lon="12.421026600783618"><ele>51.0</ele><time>2026-04-05T09:10:50.999Z</time></trkpt><trkpt lat="45.945644852818766" lon="12.421298081045455"><ele>51.0</ele><time>2026-04-05T09:10:51.999Z</time></trkpt><trkpt lat="45.94564796406257" lon="12.421545048289977"><ele>51.0</ele><time>2026-04-05T09:10:52.999Z</time></trkpt><trkpt lat="45.945655417816944" lon="12.421871847757885"><ele>51.0</ele><time>2026-04-05T09:10:53.999Z</time></trkpt><trkpt lat="45.94563563332407" lon="12.422154887838733"><ele>51.0</ele><time>2026-04-05T09:10:54.999Z</time></trkpt><trkpt lat="45.945602059151035" lon="12.422412649195833"><ele>51.0</ele><time>2026-04-05T09:10:55.999Z</time></trkpt><trkpt lat="45.94556028429223" lon="12.422688092530477"><ele>51.0</ele><time>2026-04-05T09:10:56.999Z</time></trkpt><trkpt lat="45.94550497762247" lon="12.423017131814834"><ele>51.0</ele><time>2026-04-05T09:10:57.999Z</time></trkpt><trkpt lat="45.94547783843536" lon="12.423215864594235"><ele>51.0</ele><time>2026-04-05T09:10:58.999Z</time></trkpt><trkpt lat="45.945492271214256" lon="12.423484909933498"><ele>51.0</ele><time>2026-04-05T09:10:59.999Z</time></trkpt><trkpt lat="45.94549157983739" lon="12.423726118963701"><ele>51.0</ele><time>2026-04-05T09:11:00.999Z</time></trkpt><trkpt lat="45.945497521354994" lon="12.423971741612156"><ele>51.0</ele><time>2026-04-05T09:11:01.999Z</time></trkpt><trkpt lat="45.945459768253194" lon="12.424119469710936"><ele>51.0</ele><time>2026-04-05T09:11:02.999Z</time></trkpt><trkpt lat="45.94540957907761" lon="12.42434967176299"><ele>51.0</ele><time>2026-04-05T09:11:03.999Z</time></trkpt><trkpt lat="45.94538595040143" lon="12.424591636126395"><ele>51.0</ele><time>2026-04-05T09:11:04.999Z</time></trkpt><trkpt lat="45.94540697183549" lon="12.4247621590574"><ele>51.0</ele><time>2026-04-05T09:11:05.999Z</time></trkpt><trkpt lat="45.94539958142874" lon="12.425003802718011"><ele>51.0</ele><time>2026-04-05T09:11:06.999Z</time></trkpt><trkpt lat="45.94538322772343" lon="12.425258925328949"><ele>51.0</ele><time>2026-04-05T09:11:07.999Z</time></trkpt><trkpt lat="45.945397472705" lon="12.425485362164762"><ele>51.0</ele><time>2026-04-05T09:11:08.999Z</time></trkpt><trkpt lat="45.94537282485999" lon="12.425744894661637"><ele>51.0</ele><time>2026-04-05T09:11:09.999Z</time></trkpt><trkpt lat="45.945358693724245" lon="12.426163676675424"><ele>51.0</ele><time>2026-04-05T09:11:10.999Z</time></trkpt><trkpt lat="45.94528335700206" lon="12.42666791214163"><ele>50.66666666666667</ele><time>2026-04-05T09:11:11.999Z</time></trkpt><trkpt lat="45.945300272896354" lon="12.42681828729585"><ele>50.333333333333336</ele><time>2026-04-05T09:11:12.999Z</time></trkpt><trkpt lat="45.94528626654826" lon="12.427162031382224"><ele>50.0</ele><time>2026-04-05T09:11:13.999Z</time></trkpt><trkpt lat="45.94529020681257" lon="12.427503614004795"><ele>49.5</ele><time>2026-04-05T09:11:14.999Z</time></trkpt><trkpt lat="45.94531707034042" lon="12.427867205295902"><ele>49.0</ele><time>2026-04-05T09:11:15.999Z</time></trkpt><trkpt lat="45.94529821265747" lon="12.428265135770046"><ele>49.0</ele><time>2026-04-05T09:11:16.999Z</time></trkpt><trkpt lat="45.945343748683875" lon="12.428556701051708"><ele>49.0</ele><time>2026-04-05T09:11:17.999Z</time></trkpt><trkpt lat="45.945365242445575" lon="12.428884193187235"><ele>49.0</ele><time>2026-04-05T09:11:18.999Z</time></trkpt><trkpt lat="45.94541052040177" lon="12.429239790547527"><ele>49.0</ele><time>2026-04-05T09:11:20Z</time></trkpt><trkpt lat="45.945411842561654" lon="12.429589704955497"><ele>49.0</ele><time>2026-04-05T09:11:21Z</time></trkpt><trkpt lat="45.945388666168114" lon="12.429914062654783"><ele>49.0</ele><time>2026-04-05T09:11:22Z</time></trkpt><trkpt lat="45.94545569293512" lon="12.430371313217732"><ele>49.0</ele><time>2026-04-05T09:11:23Z</time></trkpt><trkpt lat="45.94535618596355" lon="12.430658775195477"><ele>48.666666666666664</ele><time>2026-04-05T09:11:24Z</time></trkpt><trkpt lat="45.9452951882233" lon="12.43096531081452"><ele>48.33333333333333</ele><time>2026-04-05T09:11:25Z</time></trkpt><trkpt lat="45.94523462550078" lon="12.431238172384766"><ele>48.0</ele><time>2026-04-05T09:11:26Z</time></trkpt><trkpt lat="45.94515980915851" lon="12.431554202687266"><ele>47.5</ele><time>2026-04-05T09:11:27Z</time></trkpt><trkpt lat="45.94508326553054" lon="12.43187696070424"><ele>47.0</ele><time>2026-04-05T09:11:28Z</time></trkpt><trkpt lat="45.94500686165019" lon="12.43219912943678"><ele>46.5</ele><time>2026-04-05T09:11:29Z</time></trkpt><trkpt lat="45.94491805366594" lon="12.432573601973445"><ele>46.0</ele><time>2026-04-05T09:11:30Z</time></trkpt><trkpt lat="45.94485496419143" lon="12.432839628485715"><ele>46.0</ele><time>2026-04-05T09:11:31Z</time></trkpt><trkpt lat="45.94478124360308" lon="12.433150390651281"><ele>46.0</ele><time>2026-04-05T09:11:32Z</time></trkpt><trkpt lat="45.94466741248807" lon="12.43362843622758"><ele>45.66666666666667</ele><time>2026-04-05T09:11:33Z</time></trkpt><trkpt lat="45.94458766204973" lon="12.433963356454191"><ele>45.333333333333336</ele><time>2026-04-05T09:11:34Z</time></trkpt><trkpt lat="45.944554722589615" lon="12.434101689198979"><ele>45.0</ele><time>2026-04-05T09:11:35Z</time></trkpt><trkpt lat="45.94449275822736" lon="12.434361914995774"><ele>45.0</ele><time>2026-04-05T09:11:36Z</time></trkpt><trkpt lat="45.94444246981608" lon="12.434573105042784"><ele>45.0</ele><time>2026-04-05T09:11:37Z</time></trkpt><trkpt lat="45.94448710071978" lon="12.434911438291468"><ele>45.0</ele><time>2026-04-05T09:11:39Z</time></trkpt><trkpt lat="45.944466971296535" lon="12.435019000824763"><ele>45.5</ele><time>2026-04-05T09:11:40Z</time></trkpt><trkpt lat="45.9443779688918" lon="12.435405180780961"><ele>46.0</ele><time>2026-04-05T09:11:41Z</time></trkpt><trkpt lat="45.94436813892098" lon="12.435683330737104"><ele>45.66666666666667</ele><time>2026-04-05T09:11:42Z</time></trkpt><trkpt lat="45.94437155621286" lon="12.435829357633317"><ele>45.333333333333336</ele><time>2026-04-05T09:11:43Z</time></trkpt><trkpt lat="45.944353227547786" lon="12.436072791506136"><ele>45.0</ele><time>2026-04-05T09:11:44Z</time></trkpt><trkpt lat="45.94433800145303" lon="12.436365703649097"><ele>45.0</ele><time>2026-04-05T09:11:45Z</time></trkpt><trkpt lat="45.944398208320955" lon="12.436586810308217"><ele>45.0</ele><time>2026-04-05T09:11:46Z</time></trkpt><trkpt lat="45.94442348956404" lon="12.436828390469097"><ele>45.0</ele><time>2026-04-05T09:11:47Z</time></trkpt><trkpt lat="45.94450651273476" lon="12.437041680910152"><ele>45.666666666666664</ele><time>2026-04-05T09:11:48Z</time></trkpt><trkpt lat="45.9446180145644" lon="12.437208287886174"><ele>46.33333333333333</ele><time>2026-04-05T09:11:49Z</time></trkpt><trkpt lat="45.94465613063976" lon="12.437435750170483"><ele>47.0</ele><time>2026-04-05T09:11:50Z</time></trkpt><trkpt lat="45.944710276465145" lon="12.437646594542633"><ele>47.0</ele><time>2026-04-05T09:11:51Z</time></trkpt><trkpt lat="45.944745223207946" lon="12.437873371048632"><ele>47.0</ele><time>2026-04-05T09:11:52Z</time></trkpt><trkpt lat="45.944758533538824" lon="12.438180538192006"><ele>47.0</ele><time>2026-04-05T09:11:53Z</time></trkpt><trkpt lat="45.94480234757544" lon="12.438420147700638"><ele>46.666666666666664</ele><time>2026-04-05T09:11:54Z</time></trkpt><trkpt lat="45.94484348410754" lon="12.438703569170368"><ele>46.333333333333336</ele><time>2026-04-05T09:11:55Z</time></trkpt><trkpt lat="45.94491723107496" lon="12.438840386070192"><ele>46.0</ele><time>2026-04-05T09:11:56Z</time></trkpt><trkpt lat="45.944920539199934" lon="12.439049480467741"><ele>46.0</ele><time>2026-04-05T09:11:57Z</time></trkpt><trkpt lat="45.94489987505786" lon="12.439344835056025"><ele>46.0</ele><time>2026-04-05T09:11:58Z</time></trkpt><trkpt lat="45.94498355434618" lon="12.439457842025657"><ele>46.0</ele><time>2026-04-05T09:11:59Z</time></trkpt><trkpt lat="45.94503918897477" lon="12.439627218659526"><ele>45.75</ele><time>2026-04-05T09:12:00Z</time></trkpt><trkpt lat="45.94507101165338" lon="12.439828014157214"><ele>45.5</ele><time>2026-04-05T09:12:02Z</time></trkpt><trkpt lat="45.94509856894908" lon="12.440032002491282"><ele>45.25</ele><time>2026-04-05T09:12:03Z</time></trkpt><trkpt lat="45.945139874791856" lon="12.440240852246065"><ele>45.0</ele><time>2026-04-05T09:12:04Z</time></trkpt><trkpt lat="45.94513294238698" lon="12.440519977180783"><ele>45.0</ele><time>2026-04-05T09:12:05Z</time></trkpt><trkpt lat="45.94494766577976" lon="12.440561354396179"><ele>45.0</ele><time>2026-04-05T09:12:06Z</time></trkpt><trkpt lat="45.94487677383585" lon="12.4408376016145"><ele>45.0</ele><time>2026-04-05T09:12:07Z</time></trkpt><trkpt lat="45.94459704863651" lon="12.441199911300092"><ele>45.0</ele><time>2026-04-05T09:12:08Z</time></trkpt><trkpt lat="45.94465433166333" lon="12.441500343953983"><ele>45.0</ele><time>2026-04-05T09:12:09Z</time></trkpt><trkpt lat="45.94461417630204" lon="12.441715130920006"><ele>45.0</ele><time>2026-04-05T09:12:10Z</time></trkpt><trkpt lat="45.944624106454015" lon="12.441896751894912"><ele>45.0</ele><time>2026-04-05T09:12:11Z</time></trkpt><trkpt lat="45.94468150125624" lon="12.441967977264607"><ele>45.0</ele><time>2026-04-05T09:12:12Z</time></trkpt><trkpt lat="45.94467443079543" lon="12.442163430467051"><ele>45.0</ele><time>2026-04-05T09:12:13Z</time></trkpt><trkpt lat="45.94467490603466" lon="12.442349032136246"><ele>45.0</ele><time>2026-04-05T09:12:14.015Z</time></trkpt><trkpt lat="45.94465609344758" lon="12.44257212311719"><ele>44.75</ele><time>2026-04-05T09:12:15.016Z</time></trkpt><trkpt lat="45.94464244429289" lon="12.44278377189983"><ele>44.5</ele><time>2026-04-05T09:12:16.012Z</time></trkpt><trkpt lat="45.9446297477071" lon="12.442995433605045"><ele>44.25</ele><time>2026-04-05T09:12:17.017Z</time></trkpt><trkpt lat="45.9446201585602" lon="12.443184298999393"><ele>44.0</ele><time>2026-04-05T09:12:18Z</time></trkpt><trkpt lat="45.944643557852956" lon="12.443310207138445"><ele>43.666666666666664</ele><time>2026-04-05T09:12:19Z</time></trkpt><trkpt lat="45.944609261429385" lon="12.443619901472317"><ele>43.333333333333336</ele><time>2026-04-05T09:12:20Z</time></trkpt><trkpt lat="45.944600463736656" lon="12.44383444048118"><ele>43.0</ele><time>2026-04-05T09:12:21Z</time></trkpt><trkpt lat="45.94457900170581" lon="12.444064574755675"><ele>43.0</ele><time>2026-04-05T09:12:22Z</time></trkpt><trkpt lat="45.944561830935605" lon="12.444252385169674"><ele>43.0</ele><time>2026-04-05T09:12:23Z</time></trkpt><trkpt lat="45.94447160520251" lon="12.444420870027583"><ele>43.0</ele><time>2026-04-05T09:12:24Z</time></trkpt><trkpt lat="45.94443975324487" lon="12.444626417003583"><ele>43.0</ele><time>2026-04-05T09:12:25Z</time></trkpt><trkpt lat="45.94440108738181" lon="12.444835321214311"><ele>43.0</ele><time>2026-04-05T09:12:26Z</time></trkpt><trkpt lat="45.94437536056401" lon="12.445008184249463"><ele>43.0</ele><time>2026-04-05T09:12:27Z</time></trkpt><trkpt lat="45.94430611044353" lon="12.44526576241307"><ele>43.0</ele><time>2026-04-05T09:12:28Z</time></trkpt><trkpt lat="45.944155615500094" lon="12.445556178683105"><ele>43.0</ele><time>2026-04-05T09:12:29Z</time></trkpt><trkpt lat="45.94405855270444" lon="12.445829148291136"><ele>43.0</ele><time>2026-04-05T09:12:30Z</time></trkpt><trkpt lat="45.94398590107061" lon="12.446137895961762"><ele>43.0</ele><time>2026-04-05T09:12:31Z</time></trkpt><trkpt lat="45.94395938537175" lon="12.446355038725502"><ele>42.5</ele><time>2026-04-05T09:12:32Z</time></trkpt><trkpt lat="45.943852000349516" lon="12.446659777041381"><ele>42.0</ele><time>2026-04-05T09:12:33Z</time></trkpt><trkpt lat="45.943826484076546" lon="12.446781804618157"><ele>41.5</ele><time>2026-04-05T09:12:34Z</time></trkpt><trkpt lat="45.94379089330894" lon="12.446939403866784"><ele>41.0</ele><time>2026-04-05T09:12:35Z</time></trkpt><trkpt lat="45.943777047540635" lon="12.44704742124069"><ele>40.75</ele><time>2026-04-05T09:12:36Z</time></trkpt><trkpt lat="45.94373247765451" lon="12.447202518988172"><ele>40.5</ele><time>2026-04-05T09:12:37Z</time></trkpt><trkpt lat="45.94374339097051" lon="12.44743031333272"><ele>40.25</ele><time>2026-04-05T09:12:38.999Z</time></trkpt><trkpt lat="45.94378658178354" lon="12.44764356347179"><ele>40.0</ele><time>2026-04-05T09:12:39.999Z</time></trkpt><trkpt lat="45.94385177689412" lon="12.447759967022971"><ele>40.0</ele><time>2026-04-05T09:12:40.999Z</time></trkpt><trkpt lat="45.943917539448485" lon="12.447809389801638"><ele>40.0</ele><time>2026-04-05T09:12:41.999Z</time></trkpt><trkpt lat="45.94393980003981" lon="12.447897321400793"><ele>40.0</ele><time>2026-04-05T09:12:42.999Z</time></trkpt><trkpt lat="45.943969536000345" lon="12.448042401880059"><ele>40.0</ele><time>2026-04-05T09:12:44.999Z</time></trkpt><trkpt lat="45.94395490446177" lon="12.448157893279845"><ele>40.0</ele><time>2026-04-05T09:12:45.999Z</time></trkpt><trkpt lat="45.94391588274583" lon="12.448258768924745"><ele>40.0</ele><time>2026-04-05T09:12:46.999Z</time></trkpt><trkpt lat="45.944001350854535" lon="12.448548360385168"><ele>40.0</ele><time>2026-04-05T09:12:47.999Z</time></trkpt><trkpt lat="45.94386603916125" lon="12.448539159488817"><ele>40.0</ele><time>2026-04-05T09:12:48.999Z</time></trkpt><trkpt lat="45.94379719133863" lon="12.448549178014208"><ele>40.0</ele><time>2026-04-05T09:12:49.999Z</time></trkpt><trkpt lat="45.94367352993345" lon="12.448520065041446"><ele>40.0</ele><time>2026-04-05T09:12:51.999Z</time></trkpt><trkpt lat="45.94361277475524" lon="12.448583139668802"><ele>40.0</ele><time>2026-04-05T09:12:52.999Z</time></trkpt><trkpt lat="45.94352652965386" lon="12.448710749949024"><ele>40.25</ele><time>2026-04-05T09:12:54.999Z</time></trkpt><trkpt lat="45.94348274393804" lon="12.448860355662292"><ele>40.5</ele><time>2026-04-05T09:12:55.999Z</time></trkpt><trkpt lat="45.943381390356045" lon="12.44894203179139"><ele>40.75</ele><time>2026-04-05T09:12:56.999Z</time></trkpt><trkpt lat="45.943372388077826" lon="12.449109969193495"><ele>41.0</ele><time>2026-04-05T09:12:57.999Z</time></trkpt><trkpt lat="45.943426777950926" lon="12.449323565670454"><ele>41.0</ele><time>2026-04-05T09:12:58.999Z</time></trkpt><trkpt lat="45.94347358336426" lon="12.449513054356274"><ele>41.0</ele><time>2026-04-05T09:13:00.999Z</time></trkpt><trkpt lat="45.94344816972653" lon="12.449604966459027"><ele>41.0</ele><time>2026-04-05T09:13:01.999Z</time></trkpt><trkpt lat="45.94343789563133" lon="12.449841993747851"><ele>41.0</ele><time>2026-04-05T09:13:02.999Z</time></trkpt><trkpt lat="45.943438155244856" lon="12.450008156000951"><ele>40.5</ele><time>2026-04-05T09:13:03.999Z</time></trkpt><trkpt lat="45.943370064245855" lon="12.450347439187173"><ele>40.0</ele><time>2026-04-05T09:13:04.999Z</time></trkpt><trkpt lat="45.94324347125121" lon="12.449779002949423"><ele>40.0</ele><time>2026-04-05T09:13:05.999Z</time></trkpt><trkpt lat="45.94327280305878" lon="12.449990780121489"><ele>40.0</ele><time>2026-04-05T09:13:06.999Z</time></trkpt><trkpt lat="45.94328227798406" lon="12.450102691540392"><ele>40.0</ele><time>2026-04-05T09:13:07.999Z</time></trkpt><trkpt lat="45.943241614435394" lon="12.450330387189597"><ele>40.0</ele><time>2026-04-05T09:13:08.999Z</time></trkpt><trkpt lat="45.94323210097223" lon="12.450463408014302"><ele>38.5</ele><time>2026-04-05T09:13:09.999Z</time></trkpt><trkpt lat="45.943280789531286" lon="12.450959295623582"><ele>37.0</ele><time>2026-04-05T09:13:10.999Z</time></trkpt><trkpt lat="45.94325447833823" lon="12.451155303338865"><ele>37.5</ele><time>2026-04-05T09:13:11.999Z</time></trkpt><trkpt lat="45.94318251245429" lon="12.451690918383603"><ele>38.0</ele><time>2026-04-05T09:13:12.999Z</time></trkpt><trkpt lat="45.94322859186246" lon="12.451896979418342"><ele>38.0</ele><time>2026-04-05T09:13:13.999Z</time></trkpt><trkpt lat="45.9431677117281" lon="12.452001615149609"><ele>38.0</ele><time>2026-04-05T09:13:14.999Z</time></trkpt><trkpt lat="45.94318310454155" lon="12.452334795492256"><ele>38.0</ele><time>2026-04-05T09:13:15.999Z</time></trkpt><trkpt lat="45.943094649206394" lon="12.452518312499357"><ele>38.0</ele><time>2026-04-05T09:13:16.999Z</time></trkpt><trkpt lat="45.943044663728294" lon="12.452704693537884"><ele>38.0</ele><time>2026-04-05T09:13:17.999Z</time></trkpt><trkpt lat="45.94301426443838" lon="12.452928739450181"><ele>38.0</ele><time>2026-04-05T09:13:18.999Z</time></trkpt><trkpt lat="45.94294436947012" lon="12.453193448460878"><ele>38.0</ele><time>2026-04-05T09:13:19.999Z</time></trkpt><trkpt lat="45.94288987575192" lon="12.453351924390402"><ele>38.0</ele><time>2026-04-05T09:13:20.999Z</time></trkpt><trkpt lat="45.9428665373336" lon="12.453618987576291"><ele>38.0</ele><time>2026-04-05T09:13:21.999Z</time></trkpt><trkpt lat="45.94284799241895" lon="12.453794295423243"><ele>38.0</ele><time>2026-04-05T09:13:22.999Z</time></trkpt><trkpt lat="45.942792468120466" lon="12.454096519448242"><ele>38.666666666666664</ele><time>2026-04-05T09:13:23.999Z</time></trkpt><trkpt lat="45.94277572108147" lon="12.454385990111799"><ele>39.333333333333336</ele><time>2026-04-05T09:13:24.999Z</time></trkpt><trkpt lat="45.94273007138994" lon="12.454657089549011"><ele>40.0</ele><time>2026-04-05T09:13:26Z</time></trkpt><trkpt lat="45.94268518952241" lon="12.45480493040951"><ele>40.0</ele><time>2026-04-05T09:13:27Z</time></trkpt><trkpt lat="45.94269293295299" lon="12.455076882137249"><ele>40.0</ele><time>2026-04-05T09:13:28Z</time></trkpt><trkpt lat="45.94263546382558" lon="12.455222960727406"><ele>40.0</ele><time>2026-04-05T09:13:29Z</time></trkpt><trkpt lat="45.94263704879218" lon="12.455515601358503"><ele>39.66666666666667</ele><time>2026-04-05T09:13:30Z</time></trkpt><trkpt lat="45.94263193616935" lon="12.455732242386182"><ele>39.333333333333336</ele><time>2026-04-05T09:13:31Z</time></trkpt><trkpt lat="45.94264956901237" lon="12.455946295207518"><ele>39.0</ele><time>2026-04-05T09:13:32Z</time></trkpt><trkpt lat="45.94269429292911" lon="12.456170567413501"><ele>38.333333333333336</ele><time>2026-04-05T09:13:33Z</time></trkpt><trkpt lat="45.942715364822" lon="12.45630144658488"><ele>37.66666666666667</ele><time>2026-04-05T09:13:34Z</time></trkpt><trkpt lat="45.94285064682401" lon="12.456484039123861"><ele>37.0</ele><time>2026-04-05T09:13:35Z</time></trkpt><trkpt lat="45.94292627392866" lon="12.4567080958553"><ele>37.0</ele><time>2026-04-05T09:13:36Z</time></trkpt><trkpt lat="45.94297917604505" lon="12.456926159610436"><ele>37.0</ele><time>2026-04-05T09:13:37Z</time></trkpt><trkpt lat="45.943062421501736" lon="12.457196559930518"><ele>37.0</ele><time>2026-04-05T09:13:38Z</time></trkpt><trkpt lat="45.94315229695609" lon="12.457491742704091"><ele>37.0</ele><time>2026-04-05T09:13:39Z</time></trkpt><trkpt lat="45.943204918708034" lon="12.457766418410007"><ele>37.0</ele><time>2026-04-05T09:13:40Z</time></trkpt><trkpt lat="45.94328432121249" lon="12.45807015353515"><ele>37.0</ele><time>2026-04-05T09:13:41Z</time></trkpt><trkpt lat="45.9433712756576" lon="12.458363961283"><ele>37.0</ele><time>2026-04-05T09:13:42Z</time></trkpt><trkpt lat="45.94344611901399" lon="12.458637355616453"><ele>37.0</ele><time>2026-04-05T09:13:43Z</time></trkpt><trkpt lat="45.94350796910392" lon="12.458902171503013"><ele>37.0</ele><time>2026-04-05T09:13:44Z</time></trkpt><trkpt lat="45.94358275701406" lon="12.459406661051663"><ele>36.333333333333336</ele><time>2026-04-05T09:13:45Z</time></trkpt><trkpt lat="45.94367405318556" lon="12.45966152459915"><ele>35.666666666666664</ele><time>2026-04-05T09:13:46Z</time></trkpt><trkpt lat="45.94377202298928" lon="12.45998791689721"><ele>35.0</ele><time>2026-04-05T09:13:47Z</time></trkpt><trkpt lat="45.943889630727625" lon="12.460214059222363"><ele>35.0</ele><time>2026-04-05T09:13:48Z</time></trkpt><trkpt lat="45.94401302638496" lon="12.460581388463558"><ele>35.0</ele><time>2026-04-05T09:13:49Z</time></trkpt><trkpt lat="45.94408094649469" lon="12.460858174257945"><ele>35.0</ele><time>2026-04-05T09:13:50Z</time></trkpt><trkpt lat="45.94416495490624" lon="12.461161539082058"><ele>35.0</ele><time>2026-04-05T09:13:51Z</time></trkpt><trkpt lat="45.94425225813171" lon="12.461475401681945"><ele>35.0</ele><time>2026-04-05T09:13:52Z</time></trkpt><trkpt lat="45.944343910806865" lon="12.461804961046836"><ele>35.0</ele><time>2026-04-05T09:13:53Z</time></trkpt><trkpt lat="45.94441109922057" lon="12.46201246761085"><ele>35.0</ele><time>2026-04-05T09:13:54Z</time></trkpt><trkpt lat="45.94446676139963" lon="12.462247760886871"><ele>35.0</ele><time>2026-04-05T09:13:55Z</time></trkpt><trkpt lat="45.94452820365126" lon="12.462469221851839"><ele>35.0</ele><time>2026-04-05T09:13:56Z</time></trkpt><trkpt lat="45.944608347792396" lon="12.462757594114114"><ele>35.0</ele><time>2026-04-05T09:13:57Z</time></trkpt><trkpt lat="45.94469947526632" lon="12.463084983127516"><ele>35.0</ele><time>2026-04-05T09:13:58Z</time></trkpt><trkpt lat="45.944771603481804" lon="12.463360891047813"><ele>35.0</ele><time>2026-04-05T09:13:59Z</time></trkpt><trkpt lat="45.944834482387684" lon="12.463618259804866"><ele>35.0</ele><time>2026-04-05T09:14:00Z</time></trkpt><trkpt lat="45.944892305050594" lon="12.463866848705175"><ele>35.0</ele><time>2026-04-05T09:14:01Z</time></trkpt><trkpt lat="45.94494520133167" lon="12.464083265113713"><ele>35.0</ele><time>2026-04-05T09:14:02Z</time></trkpt><trkpt lat="45.945031009533245" lon="12.46438721349432"><ele>35.0</ele><time>2026-04-05T09:14:03Z</time></trkpt><trkpt lat="45.945101189846476" lon="12.464630440726529"><ele>35.666666666666664</ele><time>2026-04-05T09:14:04Z</time></trkpt><trkpt lat="45.94515822401525" lon="12.464833398142712"><ele>36.333333333333336</ele><time>2026-04-05T09:14:05Z</time></trkpt><trkpt lat="45.945205464053345" lon="12.465067161942894"><ele>37.0</ele><time>2026-04-05T09:14:06Z</time></trkpt><trkpt lat="45.94526153649279" lon="12.465325862026695"><ele>37.0</ele><time>2026-04-05T09:14:07Z</time></trkpt><trkpt lat="45.945308276452785" lon="12.465601503781626"><ele>37.0</ele><time>2026-04-05T09:14:08Z</time></trkpt><trkpt lat="45.945397420405406" lon="12.465866376695942"><ele>37.0</ele><time>2026-04-05T09:14:09Z</time></trkpt><trkpt lat="45.94547899162822" lon="12.466124394825677"><ele>36.5</ele><time>2026-04-05T09:14:10Z</time></trkpt><trkpt lat="45.94558326434699" lon="12.466461552347644"><ele>36.0</ele><time>2026-04-05T09:14:11Z</time></trkpt><trkpt lat="45.94565899953439" lon="12.466739591173035"><ele>36.0</ele><time>2026-04-05T09:14:12Z</time></trkpt><trkpt lat="45.94575684205552" lon="12.467084575029382"><ele>36.0</ele><time>2026-04-05T09:14:13Z</time></trkpt><trkpt lat="45.94586116980646" lon="12.467419833046437"><ele>35.333333333333336</ele><time>2026-04-05T09:14:14Z</time></trkpt><trkpt lat="45.945907144650185" lon="12.467653841704102"><ele>34.66666666666667</ele><time>2026-04-05T09:14:15Z</time></trkpt><trkpt lat="45.94599009222119" lon="12.467965624302256"><ele>34.0</ele><time>2026-04-05T09:14:16Z</time></trkpt><trkpt lat="45.94606494172217" lon="12.468269565757613"><ele>34.0</ele><time>2026-04-05T09:14:17Z</time></trkpt><trkpt lat="45.94618142855377" lon="12.468614930050332"><ele>34.0</ele><time>2026-04-05T09:14:18Z</time></trkpt><trkpt lat="45.946264091277925" lon="12.468951204303735"><ele>34.0</ele><time>2026-04-05T09:14:19Z</time></trkpt><trkpt lat="45.94637826730489" lon="12.46921684666664"><ele>34.0</ele><time>2026-04-05T09:14:20Z</time></trkpt><trkpt lat="45.94650521882375" lon="12.469550770643906"><ele>33.0</ele><time>2026-04-05T09:14:21Z</time></trkpt><trkpt lat="45.94657848554011" lon="12.469845843033335"><ele>32.0</ele><time>2026-04-05T09:14:22Z</time></trkpt><trkpt lat="45.94668381922641" lon="12.47017404583508"><ele>32.0</ele><time>2026-04-05T09:14:23Z</time></trkpt><trkpt lat="45.94674129256675" lon="12.470424166326946"><ele>32.0</ele><time>2026-04-05T09:14:24Z</time></trkpt><trkpt lat="45.94681992098739" lon="12.470712623169195"><ele>32.0</ele><time>2026-04-05T09:14:25Z</time></trkpt><trkpt lat="45.94692384708589" lon="12.471053267923242"><ele>32.0</ele><time>2026-04-05T09:14:26Z</time></trkpt><trkpt lat="45.947018823247156" lon="12.47142455242014"><ele>32.0</ele><time>2026-04-05T09:14:27Z</time></trkpt><trkpt lat="45.94710964404367" lon="12.471749214286412"><ele>32.0</ele><time>2026-04-05T09:14:28Z</time></trkpt><trkpt lat="45.9471977701386" lon="12.472063738834262"><ele>32.0</ele><time>2026-04-05T09:14:29Z</time></trkpt><trkpt lat="45.94728820043581" lon="12.472388960315358"><ele>32.0</ele><time>2026-04-05T09:14:30Z</time></trkpt><trkpt lat="45.94739582282642" lon="12.472699895555385"><ele>32.0</ele><time>2026-04-05T09:14:31Z</time></trkpt><trkpt lat="45.947416614554065" lon="12.473098656991457"><ele>32.0</ele><time>2026-04-05T09:14:32Z</time></trkpt><trkpt lat="45.94750221492929" lon="12.473395741507579"><ele>32.0</ele><time>2026-04-05T09:14:33Z</time></trkpt><trkpt lat="45.94756938541897" lon="12.473667641630588"><ele>32.0</ele><time>2026-04-05T09:14:34Z</time></trkpt><trkpt lat="45.94762182901431" lon="12.473943387648726"><ele>32.0</ele><time>2026-04-05T09:14:35Z</time></trkpt><trkpt lat="45.947695882007466" lon="12.474231677773744"><ele>32.0</ele><time>2026-04-05T09:14:36Z</time></trkpt><trkpt lat="45.94779248002622" lon="12.47450136080334"><ele>32.0</ele><time>2026-04-05T09:14:37Z</time></trkpt><trkpt lat="45.94788386919295" lon="12.474799872567631"><ele>32.0</ele><time>2026-04-05T09:14:38Z</time></trkpt><trkpt lat="45.94799819771672" lon="12.475128915510844"><ele>32.0</ele><time>2026-04-05T09:14:39Z</time></trkpt><trkpt lat="45.94808194528555" lon="12.475436071158786"><ele>32.0</ele><time>2026-04-05T09:14:40Z</time></trkpt><trkpt lat="45.948167732951624" lon="12.475725760911272"><ele>32.0</ele><time>2026-04-05T09:14:41Z</time></trkpt><trkpt lat="45.948264987795035" lon="12.476034998833608"><ele>31.666666666666664</ele><time>2026-04-05T09:14:42Z</time></trkpt><trkpt lat="45.94834581398608" lon="12.476325224047079"><ele>31.333333333333336</ele><time>2026-04-05T09:14:43Z</time></trkpt><trkpt lat="45.94843953912122" lon="12.476613979920572"><ele>31.0</ele><time>2026-04-05T09:14:44Z</time></trkpt><trkpt lat="45.94852283175681" lon="12.476909342012293"><ele>31.5</ele><time>2026-04-05T09:14:45Z</time></trkpt><trkpt lat="45.94859953647924" lon="12.477202930485115"><ele>32.0</ele><time>2026-04-05T09:14:46Z</time></trkpt><trkpt lat="45.94868661209118" lon="12.47753138651201"><ele>32.0</ele><time>2026-04-05T09:14:47Z</time></trkpt><trkpt lat="45.94876522726447" lon="12.477870707136562"><ele>32.0</ele><time>2026-04-05T09:14:48Z</time></trkpt><trkpt lat="45.94885234651926" lon="12.478208768464867"><ele>31.5</ele><time>2026-04-05T09:14:49Z</time></trkpt><trkpt lat="45.948943083959044" lon="12.47851365013026"><ele>31.0</ele><time>2026-04-05T09:14:50Z</time></trkpt><trkpt lat="45.94903283353142" lon="12.478835717351933"><ele>31.0</ele><time>2026-04-05T09:14:51Z</time></trkpt><trkpt lat="45.949130718330586" lon="12.479181941084628"><ele>31.0</ele><time>2026-04-05T09:14:52Z</time></trkpt><trkpt lat="45.94922983998027" lon="12.479486846465303"><ele>31.0</ele><time>2026-04-05T09:14:53Z</time></trkpt><trkpt lat="45.949315849149336" lon="12.479765343635208"><ele>31.0</ele><time>2026-04-05T09:14:54Z</time></trkpt><trkpt lat="45.94939769963939" lon="12.480051675208678"><ele>31.0</ele><time>2026-04-05T09:14:55Z</time></trkpt><trkpt lat="45.949458926062675" lon="12.480311086826033"><ele>31.0</ele><time>2026-04-05T09:14:56Z</time></trkpt><trkpt lat="45.94950998828446" lon="12.480553567783495"><ele>31.0</ele><time>2026-04-05T09:14:57Z</time></trkpt><trkpt lat="45.949564598742185" lon="12.480784769213276"><ele>31.0</ele><time>2026-04-05T09:14:57.999Z</time></trkpt><trkpt lat="45.94963756218528" lon="12.48104143596418"><ele>30.333333333333336</ele><time>2026-04-05T09:14:58.999Z</time></trkpt><trkpt lat="45.94970557376311" lon="12.481326166233833"><ele>29.666666666666664</ele><time>2026-04-05T09:14:59.999Z</time></trkpt><trkpt lat="45.949783318050585" lon="12.481589303963116"><ele>29.0</ele><time>2026-04-05T09:15:00.999Z</time></trkpt><trkpt lat="45.949885138038226" lon="12.481768452819793"><ele>29.0</ele><time>2026-04-05T09:15:01.999Z</time></trkpt><trkpt lat="45.94992805918652" lon="12.481951409136887"><ele>29.0</ele><time>2026-04-05T09:15:02.999Z</time></trkpt><trkpt lat="45.949921601713996" lon="12.482128225073552"><ele>29.0</ele><time>2026-04-05T09:15:03.999Z</time></trkpt><trkpt lat="45.94992357122324" lon="12.48228447402541"><ele>29.0</ele><time>2026-04-05T09:15:04.999Z</time></trkpt><trkpt lat="45.94996281389683" lon="12.482456167063217"><ele>28.75</ele><time>2026-04-05T09:15:05.999Z</time></trkpt><trkpt lat="45.95003358805167" lon="12.482596806526361"><ele>28.5</ele><time>2026-04-05T09:15:06.999Z</time></trkpt><trkpt lat="45.950131443953445" lon="12.482740982219608"><ele>28.25</ele><time>2026-04-05T09:15:07.999Z</time></trkpt><trkpt lat="45.95021723546834" lon="12.482931271327065"><ele>28.0</ele><time>2026-04-05T09:15:08.999Z</time></trkpt><trkpt lat="45.950285976144606" lon="12.483158049893204"><ele>28.333333333333336</ele><time>2026-04-05T09:15:09.999Z</time></trkpt><trkpt lat="45.950346360668185" lon="12.483409796164393"><ele>28.666666666666664</ele><time>2026-04-05T09:15:10.999Z</time></trkpt><trkpt lat="45.95043092319015" lon="12.48367024530283"><ele>29.0</ele><time>2026-04-05T09:15:11.999Z</time></trkpt><trkpt lat="45.950505811182566" lon="12.483939101828032"><ele>29.0</ele><time>2026-04-05T09:15:12.999Z</time></trkpt><trkpt lat="45.95058135934125" lon="12.484213880080091"><ele>29.0</ele><time>2026-04-05T09:15:13.999Z</time></trkpt><trkpt lat="45.950666399702655" lon="12.484499620736461"><ele>29.0</ele><time>2026-04-05T09:15:14.999Z</time></trkpt><trkpt lat="45.950763589264355" lon="12.484789878700386"><ele>28.666666666666664</ele><time>2026-04-05T09:15:15.999Z</time></trkpt><trkpt lat="45.95084305850202" lon="12.485075302533241"><ele>28.333333333333336</ele><time>2026-04-05T09:15:16.999Z</time></trkpt><trkpt lat="45.9509372967765" lon="12.485359293842556"><ele>28.0</ele><time>2026-04-05T09:15:17.999Z</time></trkpt><trkpt lat="45.951005478566834" lon="12.485667993369544"><ele>27.666666666666668</ele><time>2026-04-05T09:15:18.999Z</time></trkpt><trkpt lat="45.95108656485238" lon="12.485942332947133"><ele>27.333333333333336</ele><time>2026-04-05T09:15:19.999Z</time></trkpt><trkpt lat="45.95117027820912" lon="12.486232449983728"><ele>27.0</ele><time>2026-04-05T09:15:20.999Z</time></trkpt><trkpt lat="45.9512497603217" lon="12.486533887623127"><ele>27.0</ele><time>2026-04-05T09:15:21.999Z</time></trkpt><trkpt lat="45.951337016828816" lon="12.486827737979574"><ele>27.0</ele><time>2026-04-05T09:15:22.999Z</time></trkpt><trkpt lat="45.951406668008424" lon="12.48712258822983"><ele>27.0</ele><time>2026-04-05T09:15:23.999Z</time></trkpt><trkpt lat="45.951487024590556" lon="12.48741307771441"><ele>27.333333333333336</ele><time>2026-04-05T09:15:24.999Z</time></trkpt><trkpt lat="45.95156030421539" lon="12.487688438936102"><ele>27.666666666666668</ele><time>2026-04-05T09:15:25.999Z</time></trkpt><trkpt lat="45.951646937432635" lon="12.487971078229183"><ele>28.0</ele><time>2026-04-05T09:15:26.999Z</time></trkpt><trkpt lat="45.95170987646861" lon="12.488260604939867"><ele>27.333333333333336</ele><time>2026-04-05T09:15:27.999Z</time></trkpt><trkpt lat="45.951774469594305" lon="12.488539025528189"><ele>26.666666666666664</ele><time>2026-04-05T09:15:28.999Z</time></trkpt><trkpt lat="45.951852358002846" lon="12.488800341437562"><ele>26.0</ele><time>2026-04-05T09:15:29.999Z</time></trkpt><trkpt lat="45.95192836388593" lon="12.489063577292024"><ele>25.666666666666664</ele><time>2026-04-05T09:15:30.999Z</time></trkpt><trkpt lat="45.95199930210423" lon="12.489337117329262"><ele>25.333333333333336</ele><time>2026-04-05T09:15:32Z</time></trkpt><trkpt lat="45.95206983684576" lon="12.489590608010847"><ele>25.0</ele><time>2026-04-05T09:15:33Z</time></trkpt><trkpt lat="45.952146826546226" lon="12.489829958301462"><ele>25.0</ele><time>2026-04-05T09:15:34Z</time></trkpt><trkpt lat="45.9522481773895" lon="12.490072342408071"><ele>25.0</ele><time>2026-04-05T09:15:35Z</time></trkpt><trkpt lat="45.952357941634055" lon="12.49026526368967"><ele>25.0</ele><time>2026-04-05T09:15:36Z</time></trkpt><trkpt lat="45.952505735343806" lon="12.490477815857549"><ele>26.0</ele><time>2026-04-05T09:15:37Z</time></trkpt><trkpt lat="45.952640174278436" lon="12.49068183754132"><ele>27.0</ele><time>2026-04-05T09:15:38Z</time></trkpt><trkpt lat="45.952794306193816" lon="12.490808302927155"><ele>28.0</ele><time>2026-04-05T09:15:39Z</time></trkpt><trkpt lat="45.95291832581989" lon="12.490950716613035"><ele>28.0</ele><time>2026-04-05T09:15:40Z</time></trkpt><trkpt lat="45.95304585810783" lon="12.49105858253109"><ele>28.0</ele><time>2026-04-05T09:15:41Z</time></trkpt><trkpt lat="45.95315269377084" lon="12.49120116672709"><ele>28.0</ele><time>2026-04-05T09:15:42Z</time></trkpt><trkpt lat="45.9532368615037" lon="12.491291951869645"><ele>28.0</ele><time>2026-04-05T09:15:43Z</time></trkpt><trkpt lat="45.953333218423225" lon="12.491388103019974"><ele>27.166666666666668</ele><time>2026-04-05T09:15:44Z</time></trkpt><trkpt lat="45.95342382738468" lon="12.49146105448276"><ele>26.333333333333336</ele><time>2026-04-05T09:15:45Z</time></trkpt><trkpt lat="45.95349328569801" lon="12.4915380384963"><ele>25.5</ele><time>2026-04-05T09:15:46Z</time></trkpt><trkpt lat="45.953556369336496" lon="12.491592952413253"><ele>24.666666666666668</ele><time>2026-04-05T09:15:47Z</time></trkpt><trkpt lat="45.95361733810035" lon="12.491642603977354"><ele>23.833333333333336</ele><time>2026-04-05T09:15:48Z</time></trkpt><trkpt lat="45.95367093987307" lon="12.491704272756772"><ele>23.0</ele><time>2026-04-05T09:15:49Z</time></trkpt><trkpt lat="45.95371477381225" lon="12.491774275050343"><ele>23.0</ele><time>2026-04-05T09:15:51Z</time></trkpt><trkpt lat="45.95376050406338" lon="12.491857190626492"><ele>23.0</ele><time>2026-04-05T09:15:54Z</time></trkpt><trkpt lat="45.95382792993199" lon="12.491929635920386"><ele>23.0</ele><time>2026-04-05T09:16:11Z</time></trkpt><trkpt lat="45.95392340592278" lon="12.492076230261256"><ele>23.0</ele><time>2026-04-05T09:16:13Z</time></trkpt><trkpt lat="45.954020135601105" lon="12.49216832977294"><ele>23.0</ele><time>2026-04-05T09:16:14Z</time></trkpt><trkpt lat="45.95413159089899" lon="12.492287906610954"><ele>23.333333333333336</ele><time>2026-04-05T09:16:15Z</time></trkpt><trkpt lat="45.95425200100289" lon="12.492428392609721"><ele>23.666666666666668</ele><time>2026-04-05T09:16:16Z</time></trkpt><trkpt lat="45.9543857061675" lon="12.49259007768409"><ele>24.0</ele><time>2026-04-05T09:16:17Z</time></trkpt><trkpt lat="45.95452996723777" lon="12.492763596624798"><ele>24.0</ele><time>2026-04-05T09:16:18Z</time></trkpt><trkpt lat="45.95465527113072" lon="12.49293736605701"><ele>24.0</ele><time>2026-04-05T09:16:19Z</time></trkpt><trkpt lat="45.95477360276111" lon="12.493130875810026"><ele>24.0</ele><time>2026-04-05T09:16:20Z</time></trkpt><trkpt lat="45.95488726243098" lon="12.493310666339443"><ele>24.0</ele><time>2026-04-05T09:16:21Z</time></trkpt><trkpt lat="45.95499673937019" lon="12.49349944321159"><ele>24.0</ele><time>2026-04-05T09:16:22Z</time></trkpt><trkpt lat="45.95510963478166" lon="12.49366409777729"><ele>24.0</ele><time>2026-04-05T09:16:23Z</time></trkpt><trkpt lat="45.9552276564378" lon="12.493842864375178"><ele>24.0</ele><time>2026-04-05T09:16:24Z</time></trkpt><trkpt lat="45.9553221565996" lon="12.494007846571973"><ele>24.0</ele><time>2026-04-05T09:16:25Z</time></trkpt><trkpt lat="45.95540424757379" lon="12.494145329663182"><ele>24.0</ele><time>2026-04-05T09:16:26Z</time></trkpt><trkpt lat="45.955503532480854" lon="12.494286956453344"><ele>24.0</ele><time>2026-04-05T09:16:27Z</time></trkpt><trkpt lat="45.955597160069395" lon="12.494426761560531"><ele>24.0</ele><time>2026-04-05T09:16:28Z</time></trkpt><trkpt lat="45.95569918115108" lon="12.494565326377362"><ele>24.0</ele><time>2026-04-05T09:16:29Z</time></trkpt><trkpt lat="45.95575545643463" lon="12.494669758308845"><ele>24.0</ele><time>2026-04-05T09:16:30Z</time></trkpt><trkpt lat="45.955864118305044" lon="12.494853740139181"><ele>24.0</ele><time>2026-04-05T09:16:31Z</time></trkpt><trkpt lat="45.95594570926532" lon="12.494978053103122"><ele>23.799999999999997</ele><time>2026-04-05T09:16:32Z</time></trkpt><trkpt lat="45.955999697891016" lon="12.49511072993104"><ele>23.599999999999998</ele><time>2026-04-05T09:16:33Z</time></trkpt><trkpt lat="45.95605136520779" lon="12.495216282191265"><ele>23.4</ele><time>2026-04-05T09:16:34Z</time></trkpt><trkpt lat="45.956094925922436" lon="12.495339022145775"><ele>23.2</ele><time>2026-04-05T09:16:35Z</time></trkpt><trkpt lat="45.956153083210275" lon="12.495428103822801"><ele>23.0</ele><time>2026-04-05T09:16:36Z</time></trkpt><trkpt lat="45.95627724688939" lon="12.49558211634198"><ele>23.0</ele><time>2026-04-05T09:16:37Z</time></trkpt><trkpt lat="45.95639300523025" lon="12.495721659923912"><ele>23.0</ele><time>2026-04-05T09:16:38Z</time></trkpt><trkpt lat="45.95651124895146" lon="12.495866504324072"><ele>23.0</ele><time>2026-04-05T09:16:39Z</time></trkpt><trkpt lat="45.956577913608335" lon="12.496089365348963"><ele>23.0</ele><time>2026-04-05T09:16:40Z</time></trkpt><trkpt lat="45.95666606543286" lon="12.496310338489993"><ele>23.0</ele><time>2026-04-05T09:16:41Z</time></trkpt><trkpt lat="45.95687895247113" lon="12.496499335827107"><ele>23.0</ele><time>2026-04-05T09:16:42Z</time></trkpt><trkpt lat="45.957033016738556" lon="12.496690404393691"><ele>23.0</ele><time>2026-04-05T09:16:43Z</time></trkpt><trkpt lat="45.95718521511757" lon="12.496914738694736"><ele>23.0</ele><time>2026-04-05T09:16:44Z</time></trkpt><trkpt lat="45.95731631299349" lon="12.497126796226492"><ele>23.0</ele><time>2026-04-05T09:16:45Z</time></trkpt><trkpt lat="45.957449563556466" lon="12.497363290436194"><ele>23.5</ele><time>2026-04-05T09:16:46Z</time></trkpt><trkpt lat="45.957597927199465" lon="12.497605083111981"><ele>24.0</ele><time>2026-04-05T09:16:47Z</time></trkpt><trkpt lat="45.957778006423126" lon="12.497842132548373"><ele>24.333333333333336</ele><time>2026-04-05T09:16:48Z</time></trkpt><trkpt lat="45.95786564912185" lon="12.498019152630002"><ele>24.666666666666668</ele><time>2026-04-05T09:16:49Z</time></trkpt><trkpt lat="45.95798447409367" lon="12.498242607951422"><ele>25.0</ele><time>2026-04-05T09:16:50Z</time></trkpt><trkpt lat="45.95809213236241" lon="12.498444310612546"><ele>25.0</ele><time>2026-04-05T09:16:51Z</time></trkpt><trkpt lat="45.958204915054516" lon="12.498620023290167"><ele>25.0</ele><time>2026-04-05T09:16:52Z</time></trkpt><trkpt lat="45.95831746850293" lon="12.498833530385923"><ele>25.0</ele><time>2026-04-05T09:16:53Z</time></trkpt><trkpt lat="45.95840418228435" lon="12.499018998632621"><ele>25.0</ele><time>2026-04-05T09:16:54Z</time></trkpt><trkpt lat="45.95846782677541" lon="12.499166920221445"><ele>25.0</ele><time>2026-04-05T09:16:55Z</time></trkpt><trkpt lat="45.958408863685115" lon="12.499316367562185"><ele>25.0</ele><time>2026-04-05T09:16:56Z</time></trkpt><trkpt lat="45.95843364283578" lon="12.499468211180602"><ele>25.0</ele><time>2026-04-05T09:16:57Z</time></trkpt><trkpt lat="45.958423493254564" lon="12.499565895556866"><ele>25.0</ele><time>2026-04-05T09:16:58Z</time></trkpt><trkpt lat="45.95853242803526" lon="12.499717979630557"><ele>24.75</ele><time>2026-04-05T09:16:59Z</time></trkpt><trkpt lat="45.958602597653034" lon="12.499819183275541"><ele>24.5</ele><time>2026-04-05T09:17:00Z</time></trkpt><trkpt lat="45.958563588468145" lon="12.499947582160807"><ele>24.25</ele><time>2026-04-05T09:17:01Z</time></trkpt><trkpt lat="45.95856215137086" lon="12.500166299139732"><ele>24.0</ele><time>2026-04-05T09:17:03Z</time></trkpt><trkpt lat="45.958654100762644" lon="12.500356451696655"><ele>24.0</ele><time>2026-04-05T09:17:05Z</time></trkpt><trkpt lat="45.95872706994978" lon="12.500407059606447"><ele>24.0</ele><time>2026-04-05T09:17:06Z</time></trkpt><trkpt lat="45.95879975913216" lon="12.500550892610118"><ele>24.0</ele><time>2026-04-05T09:17:07Z</time></trkpt><trkpt lat="45.958852253105775" lon="12.500712443530393"><ele>24.0</ele><time>2026-04-05T09:17:08Z</time></trkpt><trkpt lat="45.95887565661421" lon="12.500892864966538"><ele>24.25</ele><time>2026-04-05T09:17:09Z</time></trkpt><trkpt lat="45.95891808412508" lon="12.501069412827668"><ele>24.5</ele><time>2026-04-05T09:17:10Z</time></trkpt><trkpt lat="45.958957664751146" lon="12.501264411910645"><ele>24.75</ele><time>2026-04-05T09:17:11Z</time></trkpt><trkpt lat="45.95900610666085" lon="12.501459251733067"><ele>25.0</ele><time>2026-04-05T09:17:12Z</time></trkpt><trkpt lat="45.959041551349046" lon="12.501647123643389"><ele>25.333333333333336</ele><time>2026-04-05T09:17:13Z</time></trkpt><trkpt lat="45.95909146414741" lon="12.501924112662502"><ele>25.666666666666664</ele><time>2026-04-05T09:17:14Z</time></trkpt><trkpt lat="45.95917840365704" lon="12.502212029462267"><ele>26.0</ele><time>2026-04-05T09:17:15Z</time></trkpt><trkpt lat="45.95924009018747" lon="12.50249219397624"><ele>26.0</ele><time>2026-04-05T09:17:16Z</time></trkpt><trkpt lat="45.95931403432748" lon="12.502761328397407"><ele>26.0</ele><time>2026-04-05T09:17:17Z</time></trkpt><trkpt lat="45.95934354508706" lon="12.503026837261528"><ele>26.0</ele><time>2026-04-05T09:17:18Z</time></trkpt><trkpt lat="45.95941584790031" lon="12.503280129554351"><ele>26.0</ele><time>2026-04-05T09:17:19Z</time></trkpt><trkpt lat="45.95945435603708" lon="12.503513776829612"><ele>26.0</ele><time>2026-04-05T09:17:19.999Z</time></trkpt><trkpt lat="45.959517863179045" lon="12.50378209392361"><ele>26.0</ele><time>2026-04-05T09:17:20.999Z</time></trkpt><trkpt lat="45.959578560280285" lon="12.504023579413028"><ele>25.666666666666664</ele><time>2026-04-05T09:17:21.999Z</time></trkpt><trkpt lat="45.95964136474827" lon="12.504229313084506"><ele>25.333333333333336</ele><time>2026-04-05T09:17:22.999Z</time></trkpt><trkpt lat="45.95969549273827" lon="12.50450605886387"><ele>25.0</ele><time>2026-04-05T09:17:23.999Z</time></trkpt><trkpt lat="45.95968323569645" lon="12.504785450458867"><ele>25.0</ele><time>2026-04-05T09:17:24.999Z</time></trkpt><trkpt lat="45.95973096525468" lon="12.505054087629382"><ele>25.0</ele><time>2026-04-05T09:17:25.999Z</time></trkpt><trkpt lat="45.959779624424456" lon="12.505335616962018"><ele>25.0</ele><time>2026-04-05T09:17:26.999Z</time></trkpt><trkpt lat="45.959860803396246" lon="12.505587055758651"><ele>25.0</ele><time>2026-04-05T09:17:27.999Z</time></trkpt><trkpt lat="45.959907195409954" lon="12.505847551298052"><ele>25.0</ele><time>2026-04-05T09:17:28.999Z</time></trkpt><trkpt lat="45.959921053359714" lon="12.506099558724122"><ele>25.0</ele><time>2026-04-05T09:17:29.999Z</time></trkpt><trkpt lat="45.95986038443772" lon="12.506388409296848"><ele>24.666666666666668</ele><time>2026-04-05T09:17:30.999Z</time></trkpt><trkpt lat="45.959844738457406" lon="12.506614409697054"><ele>24.333333333333336</ele><time>2026-04-05T09:17:31.999Z</time></trkpt><trkpt lat="45.959848832580626" lon="12.506837042934489"><ele>24.0</ele><time>2026-04-05T09:17:32.999Z</time></trkpt><trkpt lat="45.95985847163623" lon="12.507056039593978"><ele>24.333333333333336</ele><time>2026-04-05T09:17:33.999Z</time></trkpt><trkpt lat="45.9598475101432" lon="12.50728733281109"><ele>24.666666666666668</ele><time>2026-04-05T09:17:34.999Z</time></trkpt><trkpt lat="45.95986430427569" lon="12.507521320884416"><ele>25.0</ele><time>2026-04-05T09:17:35.999Z</time></trkpt><trkpt lat="45.95986815673109" lon="12.50770924690677"><ele>25.0</ele><time>2026-04-05T09:17:36.999Z</time></trkpt><trkpt lat="45.95987482884765" lon="12.507895304037376"><ele>25.0</ele><time>2026-04-05T09:17:38Z</time></trkpt><trkpt lat="45.95991118767239" lon="12.508067824581547"><ele>25.0</ele><time>2026-04-05T09:17:40Z</time></trkpt><trkpt lat="45.95992120728223" lon="12.508202493881548"><ele>25.0</ele><time>2026-04-05T09:17:42Z</time></trkpt><trkpt lat="45.959871181248445" lon="12.508359799592519"><ele>25.2</ele><time>2026-04-05T09:17:44Z</time></trkpt><trkpt lat="45.95987429022168" lon="12.508472345049665"><ele>25.4</ele><time>2026-04-05T09:17:45Z</time></trkpt><trkpt lat="45.95987949101252" lon="12.508581539012296"><ele>25.6</ele><time>2026-04-05T09:17:46Z</time></trkpt><trkpt lat="45.95992620759558" lon="12.508717731137809"><ele>25.8</ele><time>2026-04-05T09:17:47Z</time></trkpt><trkpt lat="45.95997665338555" lon="12.508834747867512"><ele>26.0</ele><time>2026-04-05T09:17:48Z</time></trkpt><trkpt lat="45.95998870109593" lon="12.50897386010193"><ele>25.75</ele><time>2026-04-05T09:17:49Z</time></trkpt><trkpt lat="45.96006220783751" lon="12.509064694053453"><ele>25.5</ele><time>2026-04-05T09:17:50Z</time></trkpt><trkpt lat="45.960180767568204" lon="12.509159710282608"><ele>25.25</ele><time>2026-04-05T09:17:51Z</time></trkpt><trkpt lat="45.960315299219126" lon="12.509244125241095"><ele>25.0</ele><time>2026-04-05T09:17:53Z</time></trkpt><trkpt lat="45.96039105227839" lon="12.50937819732912"><ele>25.0</ele><time>2026-04-05T09:17:54Z</time></trkpt><trkpt lat="45.96047725037462" lon="12.509496129790017"><ele>25.0</ele><time>2026-04-05T09:17:55Z</time></trkpt><trkpt lat="45.96069806538329" lon="12.509775091457808"><ele>25.0</ele><time>2026-04-05T09:17:56Z</time></trkpt><trkpt lat="45.96079999321272" lon="12.509859217737853"><ele>25.333333333333336</ele><time>2026-04-05T09:17:57Z</time></trkpt><trkpt lat="45.96093750444025" lon="12.51003234765839"><ele>25.666666666666664</ele><time>2026-04-05T09:17:58Z</time></trkpt><trkpt lat="45.96104670711776" lon="12.510173421995741"><ele>26.0</ele><time>2026-04-05T09:17:59Z</time></trkpt><trkpt lat="45.96119249886839" lon="12.51035442127976"><ele>26.333333333333332</ele><time>2026-04-05T09:18:00Z</time></trkpt><trkpt lat="45.96132138647796" lon="12.510513636804768"><ele>26.666666666666664</ele><time>2026-04-05T09:18:01Z</time></trkpt><trkpt lat="45.961446943673245" lon="12.510667689698748"><ele>27.0</ele><time>2026-04-05T09:18:02Z</time></trkpt><trkpt lat="45.961561932412685" lon="12.510807867032392"><ele>26.5</ele><time>2026-04-05T09:18:03Z</time></trkpt><trkpt lat="45.961889097267644" lon="12.51110815433498"><ele>26.0</ele><time>2026-04-05T09:18:04Z</time></trkpt><trkpt lat="45.9620309650858" lon="12.511260557323531"><ele>26.0</ele><time>2026-04-05T09:18:05Z</time></trkpt><trkpt lat="45.962209336093814" lon="12.511435363350687"><ele>26.0</ele><time>2026-04-05T09:18:06Z</time></trkpt><trkpt lat="45.962343170212655" lon="12.511577269388972"><ele>26.0</ele><time>2026-04-05T09:18:07Z</time></trkpt><trkpt lat="45.96245719048409" lon="12.51167819994406"><ele>25.666666666666664</ele><time>2026-04-05T09:18:08Z</time></trkpt><trkpt lat="45.96254001672389" lon="12.51177332659158"><ele>25.333333333333336</ele><time>2026-04-05T09:18:09Z</time></trkpt><trkpt lat="45.96266619520236" lon="12.51190472449371"><ele>25.0</ele><time>2026-04-05T09:18:10Z</time></trkpt><trkpt lat="45.962812024098355" lon="12.512094458536733"><ele>25.0</ele><time>2026-04-05T09:18:11Z</time></trkpt><trkpt lat="45.96292150660936" lon="12.512220413151896"><ele>25.0</ele><time>2026-04-05T09:18:12Z</time></trkpt><trkpt lat="45.96303477380474" lon="12.512341310777382"><ele>25.0</ele><time>2026-04-05T09:18:13Z</time></trkpt><trkpt lat="45.963198612411766" lon="12.512512407016246"><ele>25.333333333333336</ele><time>2026-04-05T09:18:14Z</time></trkpt><trkpt lat="45.96337036743011" lon="12.512675135942786"><ele>25.666666666666664</ele><time>2026-04-05T09:18:15Z</time></trkpt><trkpt lat="45.96351903804973" lon="12.51282200046944"><ele>26.0</ele><time>2026-04-05T09:18:16Z</time></trkpt><trkpt lat="45.96365508742392" lon="12.512982140342128"><ele>26.0</ele><time>2026-04-05T09:18:17Z</time></trkpt><trkpt lat="45.96383148099239" lon="12.513131433399943"><ele>26.0</ele><time>2026-04-05T09:18:18Z</time></trkpt><trkpt lat="45.96400706452899" lon="12.513260774583022"><ele>26.0</ele><time>2026-04-05T09:18:19Z</time></trkpt><trkpt lat="45.96418471155922" lon="12.513380768449643"><ele>26.0</ele><time>2026-04-05T09:18:20Z</time></trkpt><trkpt lat="45.96436374009415" lon="12.51349815725376"><ele>26.0</ele><time>2026-04-05T09:18:21Z</time></trkpt><trkpt lat="45.96455988147164" lon="12.513628734172212"><ele>26.0</ele><time>2026-04-05T09:18:22Z</time></trkpt><trkpt lat="45.96473410561768" lon="12.513752342970664"><ele>26.0</ele><time>2026-04-05T09:18:23Z</time></trkpt><trkpt lat="45.964905052085115" lon="12.513875437180694"><ele>26.0</ele><time>2026-04-05T09:18:24Z</time></trkpt><trkpt lat="45.965070017898206" lon="12.51406273270178"><ele>26.0</ele><time>2026-04-05T09:18:25Z</time></trkpt><trkpt lat="45.965227199692244" lon="12.514214112685341"><ele>26.0</ele><time>2026-04-05T09:18:26Z</time></trkpt><trkpt lat="45.965381123741565" lon="12.514384992121435"><ele>26.0</ele><time>2026-04-05T09:18:27Z</time></trkpt><trkpt lat="45.965506741532266" lon="12.514519828390975"><ele>26.0</ele><time>2026-04-05T09:18:28Z</time></trkpt><trkpt lat="45.96564803422303" lon="12.51468462445565"><ele>26.333333333333332</ele><time>2026-04-05T09:18:29Z</time></trkpt><trkpt lat="45.9657883610253" lon="12.514835630212179"><ele>26.666666666666664</ele><time>2026-04-05T09:18:30Z</time></trkpt><trkpt lat="45.96593040562966" lon="12.514997991025542"><ele>27.0</ele><time>2026-04-05T09:18:31Z</time></trkpt><trkpt lat="45.96607142820971" lon="12.51514054465537"><ele>27.0</ele><time>2026-04-05T09:18:32Z</time></trkpt><trkpt lat="45.96621753454018" lon="12.515305071993456"><ele>27.0</ele><time>2026-04-05T09:18:33Z</time></trkpt><trkpt lat="45.96637398560761" lon="12.515442923056801"><ele>27.0</ele><time>2026-04-05T09:18:34Z</time></trkpt><trkpt lat="45.96651372055369" lon="12.515586236986486"><ele>26.666666666666664</ele><time>2026-04-05T09:18:35Z</time></trkpt><trkpt lat="45.96663843833129" lon="12.51571461663885"><ele>26.333333333333332</ele><time>2026-04-05T09:18:36Z</time></trkpt><trkpt lat="45.96675922816976" lon="12.515854647243403"><ele>26.0</ele><time>2026-04-05T09:18:37Z</time></trkpt><trkpt lat="45.96687295385894" lon="12.515993032664653"><ele>26.0</ele><time>2026-04-05T09:18:38Z</time></trkpt><trkpt lat="45.9669821999798" lon="12.516146340808866"><ele>26.0</ele><time>2026-04-05T09:18:39Z</time></trkpt><trkpt lat="45.96705869791712" lon="12.516301629785323"><ele>26.0</ele><time>2026-04-05T09:18:40Z</time></trkpt><trkpt lat="45.96714208028035" lon="12.516444203925237"><ele>26.0</ele><time>2026-04-05T09:18:41Z</time></trkpt><trkpt lat="45.967245357875555" lon="12.516577412446237"><ele>26.0</ele><time>2026-04-05T09:18:42Z</time></trkpt><trkpt lat="45.96734610058211" lon="12.516736189577392"><ele>26.0</ele><time>2026-04-05T09:18:43Z</time></trkpt><trkpt lat="45.96745058926977" lon="12.516890510950706"><ele>26.0</ele><time>2026-04-05T09:18:44Z</time></trkpt><trkpt lat="45.96755446103752" lon="12.517043956422121"><ele>26.0</ele><time>2026-04-05T09:18:45Z</time></trkpt><trkpt lat="45.96767749692121" lon="12.517218483430135"><ele>25.666666666666664</ele><time>2026-04-05T09:18:46Z</time></trkpt><trkpt lat="45.9678092292301" lon="12.51740131598165"><ele>25.333333333333336</ele><time>2026-04-05T09:18:47Z</time></trkpt><trkpt lat="45.96792511440178" lon="12.51755853759452"><ele>25.0</ele><time>2026-04-05T09:18:48Z</time></trkpt><trkpt lat="45.96805715943227" lon="12.517751726926171"><ele>25.0</ele><time>2026-04-05T09:18:49Z</time></trkpt><trkpt lat="45.96820127089574" lon="12.517930730073163"><ele>25.0</ele><time>2026-04-05T09:18:50Z</time></trkpt><trkpt lat="45.96833385418026" lon="12.518113179186091"><ele>25.0</ele><time>2026-04-05T09:18:51Z</time></trkpt><trkpt lat="45.968504394262354" lon="12.518332895573437"><ele>25.0</ele><time>2026-04-05T09:18:52Z</time></trkpt><trkpt lat="45.96866620308852" lon="12.518526671130793"><ele>25.0</ele><time>2026-04-05T09:18:53Z</time></trkpt><trkpt lat="45.968828306178054" lon="12.518743594464283"><ele>25.0</ele><time>2026-04-05T09:18:54Z</time></trkpt><trkpt lat="45.968991596550445" lon="12.518950013506302"><ele>25.0</ele><time>2026-04-05T09:18:55Z</time></trkpt><trkpt lat="45.969139230292946" lon="12.519155813422511"><ele>25.0</ele><time>2026-04-05T09:18:56Z</time></trkpt><trkpt lat="45.969294530058725" lon="12.519365604205651"><ele>25.0</ele><time>2026-04-05T09:18:57Z</time></trkpt><trkpt lat="45.96943607844568" lon="12.519585573074366"><ele>25.666666666666668</ele><time>2026-04-05T09:18:58Z</time></trkpt><trkpt lat="45.96958626676893" lon="12.519787231971359"><ele>26.333333333333336</ele><time>2026-04-05T09:18:59Z</time></trkpt><trkpt lat="45.96972946011883" lon="12.519985742146693"><ele>27.0</ele><time>2026-04-05T09:19:00Z</time></trkpt><trkpt lat="45.96987781277428" lon="12.520152491694581"><ele>27.0</ele><time>2026-04-05T09:19:01Z</time></trkpt><trkpt lat="45.97001945264182" lon="12.520323773367368"><ele>27.0</ele><time>2026-04-05T09:19:02Z</time></trkpt><trkpt lat="45.97016203067107" lon="12.520522877781746"><ele>27.0</ele><time>2026-04-05T09:19:03Z</time></trkpt><trkpt lat="45.970334054988435" lon="12.520707907049319"><ele>27.0</ele><time>2026-04-05T09:19:04Z</time></trkpt><trkpt lat="45.97048739812192" lon="12.520890091927978"><ele>27.0</ele><time>2026-04-05T09:19:05Z</time></trkpt><trkpt lat="45.970646749610204" lon="12.521086759856244"><ele>27.0</ele><time>2026-04-05T09:19:06Z</time></trkpt><trkpt lat="45.97076995423688" lon="12.521283937939618"><ele>27.666666666666664</ele><time>2026-04-05T09:19:07Z</time></trkpt><trkpt lat="45.97091023783501" lon="12.52147378892256"><ele>28.333333333333332</ele><time>2026-04-05T09:19:08Z</time></trkpt><trkpt lat="45.97104373470993" lon="12.521654455144798"><ele>29.0</ele><time>2026-04-05T09:19:09Z</time></trkpt><trkpt lat="45.971191414991125" lon="12.521854316299263"><ele>29.0</ele><time>2026-04-05T09:19:10Z</time></trkpt><trkpt lat="45.97132502868391" lon="12.5220366977939"><ele>29.0</ele><time>2026-04-05T09:19:11Z</time></trkpt><trkpt lat="45.97146402442605" lon="12.52222644195197"><ele>29.0</ele><time>2026-04-05T09:19:12Z</time></trkpt><trkpt lat="45.97161337468903" lon="12.522430321036884"><ele>28.666666666666664</ele><time>2026-04-05T09:19:13Z</time></trkpt><trkpt lat="45.97177351083535" lon="12.522648924295238"><ele>28.333333333333336</ele><time>2026-04-05T09:19:14Z</time></trkpt><trkpt lat="45.97192176765564" lon="12.522851310850392"><ele>28.0</ele><time>2026-04-05T09:19:15Z</time></trkpt><trkpt lat="45.97205356377148" lon="12.523031226778853"><ele>28.0</ele><time>2026-04-05T09:19:16Z</time></trkpt><trkpt lat="45.97220155951608" lon="12.523233254953311"><ele>28.0</ele><time>2026-04-05T09:19:17Z</time></trkpt><trkpt lat="45.97235806526022" lon="12.523447780261051"><ele>28.0</ele><time>2026-04-05T09:19:18Z</time></trkpt><trkpt lat="45.9725171172609" lon="12.523665535894857"><ele>28.333333333333336</ele><time>2026-04-05T09:19:19Z</time></trkpt><trkpt lat="45.972662889579695" lon="12.523865109867913"><ele>28.666666666666664</ele><time>2026-04-05T09:19:20Z</time></trkpt><trkpt lat="45.972808466341924" lon="12.524064878122772"><ele>29.0</ele><time>2026-04-05T09:19:21Z</time></trkpt><trkpt lat="45.97295274888685" lon="12.52425812250884"><ele>29.0</ele><time>2026-04-05T09:19:22Z</time></trkpt><trkpt lat="45.97309121443221" lon="12.524444910689738"><ele>29.0</ele><time>2026-04-05T09:19:22.999Z</time></trkpt><trkpt lat="45.973256784214776" lon="12.52467128007633"><ele>29.0</ele><time>2026-04-05T09:19:23.999Z</time></trkpt><trkpt lat="45.97343852369486" lon="12.524934077919356"><ele>29.333333333333332</ele><time>2026-04-05T09:19:24.999Z</time></trkpt><trkpt lat="45.973590647537534" lon="12.525141323999275"><ele>29.666666666666664</ele><time>2026-04-05T09:19:25.999Z</time></trkpt><trkpt lat="45.97371895584527" lon="12.525416489917786"><ele>30.0</ele><time>2026-04-05T09:19:26.999Z</time></trkpt><trkpt lat="45.97388224932197" lon="12.525608405514383"><ele>30.0</ele><time>2026-04-05T09:19:27.999Z</time></trkpt><trkpt lat="45.9740350416819" lon="12.525787273494826"><ele>30.0</ele><time>2026-04-05T09:19:28.999Z</time></trkpt><trkpt lat="45.974201419570235" lon="12.52595814042935"><ele>30.0</ele><time>2026-04-05T09:19:29.999Z</time></trkpt><trkpt lat="45.97436202475689" lon="12.526163059094468"><ele>30.0</ele><time>2026-04-05T09:19:30.999Z</time></trkpt><trkpt lat="45.97452599743735" lon="12.526364798340358"><ele>30.0</ele><time>2026-04-05T09:19:31.999Z</time></trkpt><trkpt lat="45.97469115402217" lon="12.526564340753078"><ele>30.0</ele><time>2026-04-05T09:19:32.999Z</time></trkpt><trkpt lat="45.97485869466785" lon="12.526756188170449"><ele>30.0</ele><time>2026-04-05T09:19:33.999Z</time></trkpt><trkpt lat="45.97502933732313" lon="12.526948039728385"><ele>30.0</ele><time>2026-04-05T09:19:34.999Z</time></trkpt><trkpt lat="45.9751921437358" lon="12.527141859842828"><ele>30.0</ele><time>2026-04-05T09:19:35.999Z</time></trkpt><trkpt lat="45.97535827467495" lon="12.527344900003946"><ele>30.0</ele><time>2026-04-05T09:19:36.999Z</time></trkpt><trkpt lat="45.975519310238965" lon="12.52753480189632"><ele>30.0</ele><time>2026-04-05T09:19:37.999Z</time></trkpt><trkpt lat="45.97567195086" lon="12.527706505941579"><ele>30.0</ele><time>2026-04-05T09:19:38.999Z</time></trkpt><trkpt lat="45.97582481739041" lon="12.527875834780005"><ele>30.666666666666664</ele><time>2026-04-05T09:19:39.999Z</time></trkpt><trkpt lat="45.97597235783281" lon="12.528034342087237"><ele>31.333333333333332</ele><time>2026-04-05T09:19:40.999Z</time></trkpt><trkpt lat="45.97612476259983" lon="12.528194373008931"><ele>32.0</ele><time>2026-04-05T09:19:41.999Z</time></trkpt><trkpt lat="45.976261779822934" lon="12.528360342332036"><ele>32.0</ele><time>2026-04-05T09:19:42.999Z</time></trkpt><trkpt lat="45.976404948414604" lon="12.528499278899687"><ele>32.0</ele><time>2026-04-05T09:19:44Z</time></trkpt><trkpt lat="45.976551829532234" lon="12.528614458516358"><ele>32.0</ele><time>2026-04-05T09:19:45Z</time></trkpt><trkpt lat="45.976694199471034" lon="12.52873820476904"><ele>32.0</ele><time>2026-04-05T09:19:46Z</time></trkpt><trkpt lat="45.9768384925023" lon="12.528859971004689"><ele>32.0</ele><time>2026-04-05T09:19:47Z</time></trkpt><trkpt lat="45.97697718401943" lon="12.528965825685018"><ele>32.0</ele><time>2026-04-05T09:19:48Z</time></trkpt><trkpt lat="45.97711834875927" lon="12.529058386378136"><ele>32.0</ele><time>2026-04-05T09:19:49Z</time></trkpt><trkpt lat="45.977232278599665" lon="12.529131761774345"><ele>32.0</ele><time>2026-04-05T09:19:50Z</time></trkpt><trkpt lat="45.977363872936735" lon="12.529177237623545"><ele>32.0</ele><time>2026-04-05T09:19:51Z</time></trkpt><trkpt lat="45.97749160149869" lon="12.52925294206522"><ele>32.0</ele><time>2026-04-05T09:19:52Z</time></trkpt><trkpt lat="45.97758619308074" lon="12.529280757190461"><ele>32.2</ele><time>2026-04-05T09:19:53Z</time></trkpt><trkpt lat="45.97769398579564" lon="12.52932377106533"><ele>32.400000000000006</ele><time>2026-04-05T09:19:54Z</time></trkpt><trkpt lat="45.977796201235336" lon="12.52938435571456"><ele>32.599999999999994</ele><time>2026-04-05T09:19:55Z</time></trkpt><trkpt lat="45.97786983216233" lon="12.529432050150795"><ele>32.8</ele><time>2026-04-05T09:19:56Z</time></trkpt><trkpt lat="45.97795750121317" lon="12.529446545087277"><ele>33.0</ele><time>2026-04-05T09:19:57Z</time></trkpt><trkpt lat="45.978005399603845" lon="12.529568214344968"><ele>33.0</ele><time>2026-04-05T09:19:58Z</time></trkpt><trkpt lat="45.978028873110105" lon="12.529685091032501"><ele>33.0</ele><time>2026-04-05T09:19:59Z</time></trkpt><trkpt lat="45.97801245873349" lon="12.529795700167071"><ele>33.0</ele><time>2026-04-05T09:20:00Z</time></trkpt><trkpt lat="45.97794299407862" lon="12.529874695003151"><ele>33.0</ele><time>2026-04-05T09:20:01Z</time></trkpt><trkpt lat="45.977856195612354" lon="12.529942502566682"><ele>33.0</ele><time>2026-04-05T09:20:02Z</time></trkpt><trkpt lat="45.977793853413004" lon="12.530046731055585"><ele>33.0</ele><time>2026-04-05T09:20:03Z</time></trkpt><trkpt lat="45.977673400461846" lon="12.530248114209817"><ele>33.0</ele><time>2026-04-05T09:20:05Z</time></trkpt><trkpt lat="45.97759732570365" lon="12.530375301987668"><ele>33.0</ele><time>2026-04-05T09:20:06Z</time></trkpt><trkpt lat="45.97748000792843" lon="12.53057144288462"><ele>33.0</ele><time>2026-04-05T09:20:07Z</time></trkpt><trkpt lat="45.97735884185225" lon="12.53077322674939"><ele>32.0</ele><time>2026-04-05T09:20:08Z</time></trkpt><trkpt lat="45.97723198159727" lon="12.53101804567262"><ele>31.0</ele><time>2026-04-05T09:20:09Z</time></trkpt><trkpt lat="45.97706595641362" lon="12.531199799792489"><ele>30.0</ele><time>2026-04-05T09:20:10Z</time></trkpt><trkpt lat="45.976905824936935" lon="12.531374026851697"><ele>29.666666666666664</ele><time>2026-04-05T09:20:11Z</time></trkpt><trkpt lat="45.976732484310546" lon="12.531581438860897"><ele>29.333333333333332</ele><time>2026-04-05T09:20:12Z</time></trkpt><trkpt lat="45.976582211650715" lon="12.531755577193932"><ele>29.0</ele><time>2026-04-05T09:20:13Z</time></trkpt><trkpt lat="45.9763682694484" lon="12.531974442599205"><ele>28.5</ele><time>2026-04-05T09:20:14Z</time></trkpt><trkpt lat="45.97663033854078" lon="12.531750811338787"><ele>28.0</ele><time>2026-04-05T09:20:15Z</time></trkpt><trkpt lat="45.97626759882214" lon="12.532159630893993"><ele>28.0</ele><time>2026-04-05T09:20:16Z</time></trkpt><trkpt lat="45.97591323603158" lon="12.532415760886787"><ele>28.0</ele><time>2026-04-05T09:20:17Z</time></trkpt><trkpt lat="45.97571963448907" lon="12.53252874693041"><ele>28.0</ele><time>2026-04-05T09:20:18Z</time></trkpt><trkpt lat="45.975368001781746" lon="12.532696183792957"><ele>28.0</ele><time>2026-04-05T09:20:19Z</time></trkpt><trkpt lat="45.97460957786132" lon="12.533002044630296"><ele>28.0</ele><time>2026-04-05T09:20:20Z</time></trkpt><trkpt lat="45.974264467062476" lon="12.533100350559964"><ele>28.0</ele><time>2026-04-05T09:20:21Z</time></trkpt><trkpt lat="45.974021340540524" lon="12.533314297249932"><ele>27.0</ele><time>2026-04-05T09:20:22Z</time></trkpt><trkpt lat="45.97377128175139" lon="12.533437618424886"><ele>26.0</ele><time>2026-04-05T09:20:23Z</time></trkpt><trkpt lat="45.973514923871775" lon="12.533649633078822"><ele>25.5</ele><time>2026-04-05T09:20:24Z</time></trkpt><trkpt lat="45.97326645444263" lon="12.533819224562265"><ele>25.0</ele><time>2026-04-05T09:20:26Z</time></trkpt><trkpt lat="45.972984066647726" lon="12.534094640465177"><ele>25.0</ele><time>2026-04-05T09:20:27Z</time></trkpt><trkpt lat="45.97276476646811" lon="12.534338577386714"><ele>25.0</ele><time>2026-04-05T09:20:28Z</time></trkpt><trkpt lat="45.97244587184085" lon="12.534745372560879"><ele>24.5</ele><time>2026-04-05T09:20:29Z</time></trkpt><trkpt lat="45.97222629666054" lon="12.535080239734853"><ele>24.0</ele><time>2026-04-05T09:20:30Z</time></trkpt><trkpt lat="45.97202437438432" lon="12.535418755457076"><ele>25.0</ele><time>2026-04-05T09:20:31Z</time></trkpt><trkpt lat="45.97187395048357" lon="12.535698514777305"><ele>26.0</ele><time>2026-04-05T09:20:32Z</time></trkpt><trkpt lat="45.971690768409296" lon="12.536089624694329"><ele>26.5</ele><time>2026-04-05T09:20:33Z</time></trkpt><trkpt lat="45.97153503924824" lon="12.536460035868862"><ele>27.0</ele><time>2026-04-05T09:20:34Z</time></trkpt><trkpt lat="45.97140224410019" lon="12.536823566251384"><ele>27.0</ele><time>2026-04-05T09:20:35Z</time></trkpt><trkpt lat="45.97126597306499" lon="12.53724925496789"><ele>27.0</ele><time>2026-04-05T09:20:36Z</time></trkpt><trkpt lat="45.97114314311092" lon="12.537702813136873"><ele>28.0</ele><time>2026-04-05T09:20:37Z</time></trkpt><trkpt lat="45.97109035111422" lon="12.53790712173875"><ele>29.0</ele><time>2026-04-05T09:20:38Z</time></trkpt><trkpt lat="45.970996445075244" lon="12.538281427137488"><ele>30.0</ele><time>2026-04-05T09:20:39Z</time></trkpt><trkpt lat="45.97095993304873" lon="12.53848120024811"><ele>30.0</ele><time>2026-04-05T09:20:40Z</time></trkpt><trkpt lat="45.97089477036077" lon="12.538771097058621"><ele>30.0</ele><time>2026-04-05T09:20:41Z</time></trkpt><trkpt lat="45.97080712376585" lon="12.539073917031738"><ele>30.0</ele><time>2026-04-05T09:20:42Z</time></trkpt><trkpt lat="45.97070563608593" lon="12.539382405842552"><ele>29.5</ele><time>2026-04-05T09:20:43Z</time></trkpt><trkpt lat="45.97066350930776" lon="12.539663765127292"><ele>29.0</ele><time>2026-04-05T09:20:44Z</time></trkpt><trkpt lat="45.970547404141286" lon="12.540007331454698"><ele>29.0</ele><time>2026-04-05T09:20:45Z</time></trkpt><trkpt lat="45.97043910228185" lon="12.54036130302785"><ele>29.0</ele><time>2026-04-05T09:20:46Z</time></trkpt><trkpt lat="45.97013582469186" lon="12.540513054994518"><ele>29.0</ele><time>2026-04-05T09:20:47Z</time></trkpt><trkpt lat="45.96998536809647" lon="12.540826777415333"><ele>29.0</ele><time>2026-04-05T09:20:48Z</time></trkpt><trkpt lat="45.970129204659024" lon="12.540149195207317"><ele>29.0</ele><time>2026-04-05T09:20:49Z</time></trkpt><trkpt lat="45.96997095894523" lon="12.540280713864354"><ele>29.0</ele><time>2026-04-05T09:20:50Z</time></trkpt><trkpt lat="45.969678979103044" lon="12.540559984080623"><ele>29.333333333333332</ele><time>2026-04-05T09:20:51Z</time></trkpt><trkpt lat="45.96951480187536" lon="12.540712508721713"><ele>29.666666666666664</ele><time>2026-04-05T09:20:52Z</time></trkpt><trkpt lat="45.96938074603153" lon="12.540835132693488"><ele>30.0</ele><time>2026-04-05T09:20:53Z</time></trkpt><trkpt lat="45.96920927744107" lon="12.540989494726617"><ele>30.0</ele><time>2026-04-05T09:20:54Z</time></trkpt><trkpt lat="45.968967957774055" lon="12.541202953755008"><ele>30.0</ele><time>2026-04-05T09:20:55Z</time></trkpt><trkpt lat="45.968743104129565" lon="12.541395927783629"><ele>30.0</ele><time>2026-04-05T09:20:56Z</time></trkpt><trkpt lat="45.96856112604212" lon="12.541542944763703"><ele>30.0</ele><time>2026-04-05T09:20:57Z</time></trkpt><trkpt lat="45.96815061509909" lon="12.541850481093006"><ele>30.0</ele><time>2026-04-05T09:20:58Z</time></trkpt><trkpt lat="45.967853810709094" lon="12.542048521781497"><ele>30.0</ele><time>2026-04-05T09:20:59Z</time></trkpt><trkpt lat="45.967636296926194" lon="12.542181186709776"><ele>30.5</ele><time>2026-04-05T09:21:00Z</time></trkpt><trkpt lat="45.96733724439884" lon="12.542347441451977"><ele>31.0</ele><time>2026-04-05T09:21:01Z</time></trkpt><trkpt lat="45.967158378990696" lon="12.542446878147604"><ele>31.0</ele><time>2026-04-05T09:21:02Z</time></trkpt><trkpt lat="45.966930869079874" lon="12.542573357797242"><ele>31.0</ele><time>2026-04-05T09:21:03Z</time></trkpt><trkpt lat="45.96669950363117" lon="12.542710562446826"><ele>29.5</ele><time>2026-04-05T09:21:04Z</time></trkpt><trkpt lat="45.96640990128506" lon="12.542946779667062"><ele>28.0</ele><time>2026-04-05T09:21:05Z</time></trkpt><trkpt lat="45.965975838627315" lon="12.542919555104918"><ele>29.0</ele><time>2026-04-05T09:21:06Z</time></trkpt><trkpt lat="45.96552894054147" lon="12.543014219303926"><ele>29.0</ele><time>2026-04-05T09:21:07Z</time></trkpt><trkpt lat="45.965143370098765" lon="12.543075720704943"><ele>29.0</ele><time>2026-04-05T09:21:08Z</time></trkpt><trkpt lat="45.964768850041935" lon="12.54314305615485"><ele>30.0</ele><time>2026-04-05T09:21:09Z</time></trkpt><trkpt lat="45.96445365615722" lon="12.544765072346177"><ele>28.0</ele><time>2026-04-05T09:21:10Z</time></trkpt><trkpt lat="45.963647234875886" lon="12.544964610737868"><ele>28.0</ele><time>2026-04-05T09:21:11Z</time></trkpt><trkpt lat="45.96332774131561" lon="12.545026043738922"><ele>28.0</ele><time>2026-04-05T09:21:12Z</time></trkpt><trkpt lat="45.96329756014671" lon="12.544098589899388"><ele>28.5</ele><time>2026-04-05T09:21:13Z</time></trkpt><trkpt lat="45.96298530624322" lon="12.54416624522875"><ele>29.0</ele><time>2026-04-05T09:21:14Z</time></trkpt><trkpt lat="45.96266947261744" lon="12.544358624824566"><ele>28.5</ele><time>2026-04-05T09:21:15Z</time></trkpt><trkpt lat="45.9623829349421" lon="12.544436688918779"><ele>28.0</ele><time>2026-04-05T09:21:16Z</time></trkpt><trkpt lat="45.96207939417291" lon="12.544462029205679"><ele>28.0</ele><time>2026-04-05T09:21:17Z</time></trkpt><trkpt lat="45.96182106421091" lon="12.544488326577797"><ele>28.0</ele><time>2026-04-05T09:21:18Z</time></trkpt><trkpt lat="45.96153995722297" lon="12.544592541852142"><ele>27.666666666666668</ele><time>2026-04-05T09:21:18.999Z</time></trkpt><trkpt lat="45.96132548712956" lon="12.544550299889426"><ele>27.333333333333336</ele><time>2026-04-05T09:21:19.999Z</time></trkpt><trkpt lat="45.96110208414024" lon="12.544493802999414"><ele>27.0</ele><time>2026-04-05T09:21:20.999Z</time></trkpt><trkpt lat="45.96083493955561" lon="12.544488319943433"><ele>26.5</ele><time>2026-04-05T09:21:21.999Z</time></trkpt><trkpt lat="45.96057497625811" lon="12.544169869515546"><ele>26.0</ele><time>2026-04-05T09:21:22.999Z</time></trkpt><trkpt lat="45.96034176301922" lon="12.544180302046403"><ele>26.0</ele><time>2026-04-05T09:21:23.999Z</time></trkpt><trkpt lat="45.96005029092943" lon="12.544233207383634"><ele>26.0</ele><time>2026-04-05T09:21:24.999Z</time></trkpt><trkpt lat="45.959822481699526" lon="12.544293078384115"><ele>26.5</ele><time>2026-04-05T09:21:25.999Z</time></trkpt><trkpt lat="45.95958052539164" lon="12.544328798372083"><ele>27.0</ele><time>2026-04-05T09:21:26.999Z</time></trkpt><trkpt lat="45.959350075054644" lon="12.544380673132927"><ele>27.0</ele><time>2026-04-05T09:21:27.999Z</time></trkpt><trkpt lat="45.95927864008114" lon="12.54330117277922"><ele>26.333333333333336</ele><time>2026-04-05T09:21:28.999Z</time></trkpt><trkpt lat="45.95918601765209" lon="12.543338480434567"><ele>25.666666666666668</ele><time>2026-04-05T09:21:29.999Z</time></trkpt><trkpt lat="45.958988935968044" lon="12.54336325519272"><ele>25.0</ele><time>2026-04-05T09:21:30.999Z</time></trkpt><trkpt lat="45.958778010223796" lon="12.543385493784893"><ele>25.0</ele><time>2026-04-05T09:21:31.999Z</time></trkpt><trkpt lat="45.958581115140035" lon="12.54341858181536"><ele>25.0</ele><time>2026-04-05T09:21:32.999Z</time></trkpt><trkpt lat="45.9583708340798" lon="12.543451562691025"><ele>25.0</ele><time>2026-04-05T09:21:33.999Z</time></trkpt><trkpt lat="45.95816325119331" lon="12.543495346693264"><ele>24.333333333333336</ele><time>2026-04-05T09:21:34.999Z</time></trkpt><trkpt lat="45.957951855817306" lon="12.543532335713785"><ele>23.666666666666668</ele><time>2026-04-05T09:21:35.999Z</time></trkpt><trkpt lat="45.95775664699413" lon="12.543553139065137"><ele>23.0</ele><time>2026-04-05T09:21:36.999Z</time></trkpt><trkpt lat="45.95755793204181" lon="12.543590641147759"><ele>23.0</ele><time>2026-04-05T09:21:37.999Z</time></trkpt><trkpt lat="45.957341941044724" lon="12.543636741542384"><ele>23.0</ele><time>2026-04-05T09:21:38.999Z</time></trkpt><trkpt lat="45.95713790079596" lon="12.543664848611444"><ele>23.0</ele><time>2026-04-05T09:21:39.999Z</time></trkpt><trkpt lat="45.95692658487039" lon="12.543691786925397"><ele>23.333333333333336</ele><time>2026-04-05T09:21:40.999Z</time></trkpt><trkpt lat="45.95671146667685" lon="12.543716477747456"><ele>23.666666666666668</ele><time>2026-04-05T09:21:41.999Z</time></trkpt><trkpt lat="45.95649485015247" lon="12.543746215286406"><ele>24.0</ele><time>2026-04-05T09:21:42.999Z</time></trkpt><trkpt lat="45.956271162114966" lon="12.543786265369702"><ele>24.666666666666664</ele><time>2026-04-05T09:21:43.999Z</time></trkpt><trkpt lat="45.95607325119809" lon="12.543825706060279"><ele>25.333333333333332</ele><time>2026-04-05T09:21:44.999Z</time></trkpt><trkpt lat="45.95587976123451" lon="12.543843843061204"><ele>26.0</ele><time>2026-04-05T09:21:45.999Z</time></trkpt><trkpt lat="45.9556675621648" lon="12.543881343444054"><ele>27.0</ele><time>2026-04-05T09:21:46.999Z</time></trkpt><trkpt lat="45.95544156337577" lon="12.543914340935409"><ele>28.0</ele><time>2026-04-05T09:21:47.999Z</time></trkpt><trkpt lat="45.95523319570636" lon="12.543949069585992"><ele>29.0</ele><time>2026-04-05T09:21:48.999Z</time></trkpt><trkpt lat="45.955023343570964" lon="12.543983351551494"><ele>29.0</ele><time>2026-04-05T09:21:50Z</time></trkpt><trkpt lat="45.95481242986265" lon="12.544012897871424"><ele>29.0</ele><time>2026-04-05T09:21:51Z</time></trkpt><trkpt lat="45.95459677495625" lon="12.54406015201133"><ele>29.0</ele><time>2026-04-05T09:21:52Z</time></trkpt><trkpt lat="45.954386494268725" lon="12.544094760539336"><ele>27.5</ele><time>2026-04-05T09:21:53Z</time></trkpt><trkpt lat="45.95416124993955" lon="12.544173973919834"><ele>26.0</ele><time>2026-04-05T09:21:54Z</time></trkpt><trkpt lat="45.953927856319275" lon="12.544211646767044"><ele>26.0</ele><time>2026-04-05T09:21:55Z</time></trkpt><trkpt lat="45.953722259343586" lon="12.544256384599615"><ele>26.0</ele><time>2026-04-05T09:21:56Z</time></trkpt><trkpt lat="45.95353143872063" lon="12.544299180066567"><ele>26.0</ele><time>2026-04-05T09:21:57Z</time></trkpt><trkpt lat="45.953330295675826" lon="12.54434621192704"><ele>25.666666666666664</ele><time>2026-04-05T09:21:58Z</time></trkpt><trkpt lat="45.95313282872597" lon="12.544360688731253"><ele>25.333333333333336</ele><time>2026-04-05T09:21:59Z</time></trkpt><trkpt lat="45.952937246409476" lon="12.544374150244503"><ele>25.0</ele><time>2026-04-05T09:22:00Z</time></trkpt><trkpt lat="45.95274559793916" lon="12.544335925690406"><ele>25.0</ele><time>2026-04-05T09:22:01Z</time></trkpt><trkpt lat="45.95255633763122" lon="12.544332703964544"><ele>25.0</ele><time>2026-04-05T09:22:02Z</time></trkpt><trkpt lat="45.95237110818452" lon="12.544326476489541"><ele>25.0</ele><time>2026-04-05T09:22:03Z</time></trkpt><trkpt lat="45.95219868464952" lon="12.544216102423713"><ele>25.0</ele><time>2026-04-05T09:22:04Z</time></trkpt><trkpt lat="45.952035314406956" lon="12.544149859392352"><ele>25.0</ele><time>2026-04-05T09:22:05Z</time></trkpt><trkpt lat="45.95186571540957" lon="12.544093945440727"><ele>25.0</ele><time>2026-04-05T09:22:06Z</time></trkpt><trkpt lat="45.95168493008011" lon="12.544028449754407"><ele>25.0</ele><time>2026-04-05T09:22:07Z</time></trkpt><trkpt lat="45.95150841634" lon="12.54394620221314"><ele>25.0</ele><time>2026-04-05T09:22:08Z</time></trkpt><trkpt lat="45.951327366136624" lon="12.543826333839949"><ele>25.0</ele><time>2026-04-05T09:22:09Z</time></trkpt><trkpt lat="45.95115303882591" lon="12.543713078825677"><ele>25.0</ele><time>2026-04-05T09:22:10Z</time></trkpt><trkpt lat="45.950978558117505" lon="12.543610918561747"><ele>25.0</ele><time>2026-04-05T09:22:11Z</time></trkpt><trkpt lat="45.950801824388975" lon="12.543491438472778"><ele>25.0</ele><time>2026-04-05T09:22:12Z</time></trkpt><trkpt lat="45.95061707083787" lon="12.543347498356262"><ele>25.0</ele><time>2026-04-05T09:22:13Z</time></trkpt><trkpt lat="45.95046025400586" lon="12.543178067714479"><ele>25.0</ele><time>2026-04-05T09:22:14Z</time></trkpt><trkpt lat="45.950296787256555" lon="12.54300961117173"><ele>25.0</ele><time>2026-04-05T09:22:15Z</time></trkpt><trkpt lat="45.95013744958319" lon="12.54283881747291"><ele>25.0</ele><time>2026-04-05T09:22:16Z</time></trkpt><trkpt lat="45.9499942034133" lon="12.542676391065232"><ele>25.0</ele><time>2026-04-05T09:22:17Z</time></trkpt><trkpt lat="45.94986231852265" lon="12.542518009032774"><ele>25.0</ele><time>2026-04-05T09:22:18Z</time></trkpt><trkpt lat="45.9497615441146" lon="12.542394498539837"><ele>25.0</ele><time>2026-04-05T09:22:19Z</time></trkpt><trkpt lat="45.949619287775235" lon="12.54222239359718"><ele>25.0</ele><time>2026-04-05T09:22:20Z</time></trkpt><trkpt lat="45.94947094711684" lon="12.542038884193087"><ele>25.0</ele><time>2026-04-05T09:22:21Z</time></trkpt><trkpt lat="45.94934000829632" lon="12.541876902280167"><ele>24.0</ele><time>2026-04-05T09:22:22Z</time></trkpt><trkpt lat="45.94909052279718" lon="12.541569504800433"><ele>23.0</ele><time>2026-04-05T09:22:23Z</time></trkpt><trkpt lat="45.948945915370054" lon="12.541397815650948"><ele>23.0</ele><time>2026-04-05T09:22:24Z</time></trkpt><trkpt lat="45.948786192795396" lon="12.541209899519297"><ele>23.0</ele><time>2026-04-05T09:22:25Z</time></trkpt><trkpt lat="45.94860301322265" lon="12.54100739386789"><ele>23.0</ele><time>2026-04-05T09:22:26Z</time></trkpt><trkpt lat="45.94840465032712" lon="12.540802118751845"><ele>23.0</ele><time>2026-04-05T09:22:27Z</time></trkpt><trkpt lat="45.94822498097788" lon="12.54063158079192"><ele>23.0</ele><time>2026-04-05T09:22:28Z</time></trkpt><trkpt lat="45.94805201696329" lon="12.540478762399966"><ele>23.0</ele><time>2026-04-05T09:22:29Z</time></trkpt><trkpt lat="45.94787428943249" lon="12.540336425622142"><ele>23.333333333333336</ele><time>2026-04-05T09:22:30Z</time></trkpt><trkpt lat="45.947680507780184" lon="12.540219831712502"><ele>23.666666666666668</ele><time>2026-04-05T09:22:31Z</time></trkpt><trkpt lat="45.94756464787669" lon="12.540119232019427"><ele>24.0</ele><time>2026-04-05T09:22:32Z</time></trkpt><trkpt lat="45.94733553344211" lon="12.539980067800764"><ele>24.0</ele><time>2026-04-05T09:22:33Z</time></trkpt><trkpt lat="45.94714192328107" lon="12.539873735575156"><ele>24.0</ele><time>2026-04-05T09:22:34Z</time></trkpt><trkpt lat="45.946935306241045" lon="12.539771758329891"><ele>24.0</ele><time>2026-04-05T09:22:35Z</time></trkpt><trkpt lat="45.94672680695948" lon="12.5396838371045"><ele>23.666666666666668</ele><time>2026-04-05T09:22:36Z</time></trkpt><trkpt lat="45.94652378481624" lon="12.539616746102912"><ele>23.333333333333336</ele><time>2026-04-05T09:22:37Z</time></trkpt><trkpt lat="45.9463031155769" lon="12.539544180046956"><ele>23.0</ele><time>2026-04-05T09:22:38Z</time></trkpt><trkpt lat="45.94611048848354" lon="12.539448731242906"><ele>23.0</ele><time>2026-04-05T09:22:39Z</time></trkpt><trkpt lat="45.9458997461518" lon="12.53936254210018"><ele>23.0</ele><time>2026-04-05T09:22:40Z</time></trkpt><trkpt lat="45.945702610979794" lon="12.539359545951365"><ele>23.0</ele><time>2026-04-05T09:22:41Z</time></trkpt><trkpt lat="45.945507398317545" lon="12.539333949022819"><ele>23.0</ele><time>2026-04-05T09:22:42Z</time></trkpt><trkpt lat="45.94530082575044" lon="12.539322760466465"><ele>23.0</ele><time>2026-04-05T09:22:43Z</time></trkpt><trkpt lat="45.94508882256942" lon="12.539319453842579"><ele>23.0</ele><time>2026-04-05T09:22:44Z</time></trkpt><trkpt lat="45.944879449059236" lon="12.539287914836288"><ele>23.333333333333336</ele><time>2026-04-05T09:22:45Z</time></trkpt><trkpt lat="45.94465655449314" lon="12.539262058141444"><ele>23.666666666666668</ele><time>2026-04-05T09:22:46Z</time></trkpt><trkpt lat="45.94444700655919" lon="12.539288511600255"><ele>24.0</ele><time>2026-04-05T09:22:47Z</time></trkpt><trkpt lat="45.94423843204254" lon="12.539277869132787"><ele>24.0</ele><time>2026-04-05T09:22:48Z</time></trkpt><trkpt lat="45.94401241042222" lon="12.539274094234619"><ele>24.0</ele><time>2026-04-05T09:22:49Z</time></trkpt><trkpt lat="45.94378639082597" lon="12.539214825979998"><ele>24.0</ele><time>2026-04-05T09:22:50Z</time></trkpt><trkpt lat="45.94353103579894" lon="12.539206430213692"><ele>24.0</ele><time>2026-04-05T09:22:51Z</time></trkpt><trkpt lat="45.943315509867965" lon="12.539185870137908"><ele>24.333333333333336</ele><time>2026-04-05T09:22:52Z</time></trkpt><trkpt lat="45.943098508073" lon="12.539165171853055"><ele>24.666666666666668</ele><time>2026-04-05T09:22:53Z</time></trkpt><trkpt lat="45.94287901658286" lon="12.539114129485899"><ele>25.0</ele><time>2026-04-05T09:22:54Z</time></trkpt><trkpt lat="45.9426442406581" lon="12.539130937245165"><ele>24.5</ele><time>2026-04-05T09:22:55Z</time></trkpt><trkpt lat="45.94238787053927" lon="12.539095159357736"><ele>24.0</ele><time>2026-04-05T09:22:56Z</time></trkpt><trkpt lat="45.94217020220504" lon="12.539059824506978"><ele>24.0</ele><time>2026-04-05T09:22:57Z</time></trkpt><trkpt lat="45.94191747338091" lon="12.53906699620881"><ele>24.0</ele><time>2026-04-05T09:22:58Z</time></trkpt><trkpt lat="45.941706943684416" lon="12.539007783731405"><ele>24.0</ele><time>2026-04-05T09:22:59Z</time></trkpt><trkpt lat="45.941514177992254" lon="12.53898067502383"><ele>24.0</ele><time>2026-04-05T09:23:00Z</time></trkpt><trkpt lat="45.94129638916372" lon="12.538959346443894"><ele>24.0</ele><time>2026-04-05T09:23:01Z</time></trkpt><trkpt lat="45.94111180460448" lon="12.538971754748045"><ele>24.0</ele><time>2026-04-05T09:23:02Z</time></trkpt><trkpt lat="45.940879118670956" lon="12.539003341612096"><ele>24.0</ele><time>2026-04-05T09:23:03Z</time></trkpt><trkpt lat="45.940755391047404" lon="12.539023852252804"><ele>24.0</ele><time>2026-04-05T09:23:04Z</time></trkpt><trkpt lat="45.94053639753038" lon="12.53908006336192"><ele>24.0</ele><time>2026-04-05T09:23:05Z</time></trkpt><trkpt lat="45.940357179445826" lon="12.53913656656191"><ele>24.0</ele><time>2026-04-05T09:23:06Z</time></trkpt><trkpt lat="45.94016202411066" lon="12.539279559996592"><ele>24.0</ele><time>2026-04-05T09:23:07Z</time></trkpt><trkpt lat="45.939997594416816" lon="12.539378198541101"><ele>24.0</ele><time>2026-04-05T09:23:08Z</time></trkpt><trkpt lat="45.93972305605321" lon="12.539479217514701"><ele>24.0</ele><time>2026-04-05T09:23:09Z</time></trkpt><trkpt lat="45.93963625168136" lon="12.539520163321225"><ele>24.0</ele><time>2026-04-05T09:23:10Z</time></trkpt><trkpt lat="45.93945239531354" lon="12.539683410629152"><ele>24.333333333333336</ele><time>2026-04-05T09:23:11Z</time></trkpt><trkpt lat="45.93938661691427" lon="12.539770337123446"><ele>24.666666666666668</ele><time>2026-04-05T09:23:12Z</time></trkpt><trkpt lat="45.93930176775578" lon="12.539842142493992"><ele>25.0</ele><time>2026-04-05T09:23:13Z</time></trkpt><trkpt lat="45.93906090175146" lon="12.540089361547965"><ele>25.0</ele><time>2026-04-05T09:23:14Z</time></trkpt><trkpt lat="45.93889165243877" lon="12.540284733310118"><ele>25.0</ele><time>2026-04-05T09:23:15Z</time></trkpt><trkpt lat="45.938732256757135" lon="12.54050197486156"><ele>25.0</ele><time>2026-04-05T09:23:16Z</time></trkpt><trkpt lat="45.938386153391775" lon="12.540849723575002"><ele>24.0</ele><time>2026-04-05T09:23:17Z</time></trkpt><trkpt lat="45.938074414699926" lon="12.541362115268468"><ele>24.0</ele><time>2026-04-05T09:23:18Z</time></trkpt><trkpt lat="45.93792942223495" lon="12.54162224603949"><ele>24.0</ele><time>2026-04-05T09:23:19Z</time></trkpt><trkpt lat="45.93776366420617" lon="12.54191968173275"><ele>22.5</ele><time>2026-04-05T09:23:20Z</time></trkpt><trkpt lat="45.93759622873999" lon="12.542220980659433"><ele>21.0</ele><time>2026-04-05T09:23:21Z</time></trkpt><trkpt lat="45.937393550862325" lon="12.542585719810791"><ele>21.5</ele><time>2026-04-05T09:23:22Z</time></trkpt><trkpt lat="45.93721809329753" lon="12.54290463755195"><ele>22.0</ele><time>2026-04-05T09:23:23Z</time></trkpt><trkpt lat="45.93700504044754" lon="12.5432925519493"><ele>22.0</ele><time>2026-04-05T09:23:24Z</time></trkpt><trkpt lat="45.93680291183471" lon="12.543649061196586"><ele>22.0</ele><time>2026-04-05T09:23:24.999Z</time></trkpt><trkpt lat="45.93663153727153" lon="12.543939431103446"><ele>21.666666666666664</ele><time>2026-04-05T09:23:25.999Z</time></trkpt><trkpt lat="45.93650471008983" lon="12.544135967719171"><ele>21.333333333333332</ele><time>2026-04-05T09:23:26.999Z</time></trkpt><trkpt lat="45.936384368146356" lon="12.544394812587223"><ele>21.0</ele><time>2026-04-05T09:23:27.999Z</time></trkpt><trkpt lat="45.93626806790152" lon="12.544601398707877"><ele>21.0</ele><time>2026-04-05T09:23:28.999Z</time></trkpt><trkpt lat="45.93606442822155" lon="12.544849341878383"><ele>21.0</ele><time>2026-04-05T09:23:29.999Z</time></trkpt><trkpt lat="45.93585226693492" lon="12.545051919290898"><ele>20.666666666666668</ele><time>2026-04-05T09:23:30.999Z</time></trkpt><trkpt lat="45.935644730479304" lon="12.545217125300756"><ele>20.333333333333336</ele><time>2026-04-05T09:23:31.999Z</time></trkpt><trkpt lat="45.93553756629801" lon="12.545293788421096"><ele>20.0</ele><time>2026-04-05T09:23:32.999Z</time></trkpt><trkpt lat="45.93524525453118" lon="12.545477555273976"><ele>20.5</ele><time>2026-04-05T09:23:33.999Z</time></trkpt><trkpt lat="45.93501393807311" lon="12.545647555266767"><ele>21.0</ele><time>2026-04-05T09:23:34.999Z</time></trkpt><trkpt lat="45.934808261666625" lon="12.545815403150993"><ele>21.0</ele><time>2026-04-05T09:23:35.999Z</time></trkpt><trkpt lat="45.93448876508993" lon="12.545977569740687"><ele>21.0</ele><time>2026-04-05T09:23:36.999Z</time></trkpt><trkpt lat="45.93421965799392" lon="12.546101091051977"><ele>21.5</ele><time>2026-04-05T09:23:37.999Z</time></trkpt><trkpt lat="45.934013495939915" lon="12.54624078478426"><ele>22.0</ele><time>2026-04-05T09:23:38.999Z</time></trkpt><trkpt lat="45.933739265319474" lon="12.546324556749303"><ele>22.0</ele><time>2026-04-05T09:23:39.999Z</time></trkpt><trkpt lat="45.93347967507255" lon="12.54636104255172"><ele>22.0</ele><time>2026-04-05T09:23:40.999Z</time></trkpt><trkpt lat="45.933144019321844" lon="12.546434857200895"><ele>21.5</ele><time>2026-04-05T09:23:41.999Z</time></trkpt><trkpt lat="45.93286771997575" lon="12.546479792700875"><ele>21.0</ele><time>2026-04-05T09:23:42.999Z</time></trkpt><trkpt lat="45.93255434158122" lon="12.546518148120771"><ele>21.0</ele><time>2026-04-05T09:23:43.999Z</time></trkpt><trkpt lat="45.932273434654654" lon="12.546558845844617"><ele>21.0</ele><time>2026-04-05T09:23:44.999Z</time></trkpt><trkpt lat="45.93196232039451" lon="12.546618313757328"><ele>20.5</ele><time>2026-04-05T09:23:45.999Z</time></trkpt><trkpt lat="45.93167989309982" lon="12.546634345122174"><ele>20.0</ele><time>2026-04-05T09:23:46.999Z</time></trkpt><trkpt lat="45.93138580013894" lon="12.54666210053287"><ele>20.0</ele><time>2026-04-05T09:23:47.999Z</time></trkpt><trkpt lat="45.931112791210666" lon="12.54670195433677"><ele>20.0</ele><time>2026-04-05T09:23:48.999Z</time></trkpt><trkpt lat="45.93085249345042" lon="12.546783789366843"><ele>20.0</ele><time>2026-04-05T09:23:49.999Z</time></trkpt><trkpt lat="45.93062401307699" lon="12.546908852471674"><ele>20.0</ele><time>2026-04-05T09:23:50.999Z</time></trkpt><trkpt lat="45.930402125696276" lon="12.54695849499571"><ele>20.0</ele><time>2026-04-05T09:23:51.999Z</time></trkpt><trkpt lat="45.930218246393906" lon="12.547011864422283"><ele>20.0</ele><time>2026-04-05T09:23:52.999Z</time></trkpt><trkpt lat="45.92999695768577" lon="12.547089073848353"><ele>20.0</ele><time>2026-04-05T09:23:53.999Z</time></trkpt><trkpt lat="45.92983338188781" lon="12.54728143069857"><ele>19.666666666666668</ele><time>2026-04-05T09:23:54.999Z</time></trkpt><trkpt lat="45.92967742485147" lon="12.547370742014474"><ele>19.333333333333332</ele><time>2026-04-05T09:23:56Z</time></trkpt><trkpt lat="45.92951967140534" lon="12.547465866876093"><ele>19.0</ele><time>2026-04-05T09:23:57Z</time></trkpt><trkpt lat="45.929388618128755" lon="12.547507818807679"><ele>19.0</ele><time>2026-04-05T09:23:58Z</time></trkpt><trkpt lat="45.929282711635736" lon="12.547745157149436"><ele>19.0</ele><time>2026-04-05T09:23:59Z</time></trkpt><trkpt lat="45.9291548072347" lon="12.54788096110044"><ele>19.0</ele><time>2026-04-05T09:24:00Z</time></trkpt><trkpt lat="45.92901898237553" lon="12.54808221066229"><ele>19.0</ele><time>2026-04-05T09:24:01Z</time></trkpt><trkpt lat="45.92889062180606" lon="12.54815209643657"><ele>19.0</ele><time>2026-04-05T09:24:02Z</time></trkpt><trkpt lat="45.928759367070896" lon="12.548169962641115"><ele>19.0</ele><time>2026-04-05T09:24:03Z</time></trkpt><trkpt lat="45.92863329971374" lon="12.548177977455653"><ele>19.0</ele><time>2026-04-05T09:24:04Z</time></trkpt><trkpt lat="45.928496984067266" lon="12.548139109775404"><ele>19.25</ele><time>2026-04-05T09:24:05Z</time></trkpt><trkpt lat="45.928345275475706" lon="12.548175347333652"><ele>19.5</ele><time>2026-04-05T09:24:06Z</time></trkpt><trkpt lat="45.92823873246642" lon="12.548360463771827"><ele>19.75</ele><time>2026-04-05T09:24:07Z</time></trkpt><trkpt lat="45.92814600582816" lon="12.548482890879535"><ele>20.0</ele><time>2026-04-05T09:24:08Z</time></trkpt><trkpt lat="45.928098008918234" lon="12.54856142807763"><ele>20.0</ele><time>2026-04-05T09:24:09Z</time></trkpt><trkpt lat="45.92804827236613" lon="12.548683072474045"><ele>20.0</ele><time>2026-04-05T09:24:10Z</time></trkpt><trkpt lat="45.92798921258076" lon="12.54883834463412"><ele>20.0</ele><time>2026-04-05T09:24:11Z</time></trkpt><trkpt lat="45.92786011126688" lon="12.548987313073702"><ele>20.0</ele><time>2026-04-05T09:24:12Z</time></trkpt><trkpt lat="45.92767413488595" lon="12.549210272077538"><ele>20.5</ele><time>2026-04-05T09:24:13Z</time></trkpt><trkpt lat="45.927520543197126" lon="12.549400235174238"><ele>21.0</ele><time>2026-04-05T09:24:14Z</time></trkpt><trkpt lat="45.92733052438633" lon="12.549712506365294"><ele>19.0</ele><time>2026-04-05T09:24:15Z</time></trkpt><trkpt lat="45.92715937968243" lon="12.549987866591064"><ele>17.0</ele><time>2026-04-05T09:24:16Z</time></trkpt><trkpt lat="45.92701398228643" lon="12.549613506871088"><ele>17.0</ele><time>2026-04-05T09:24:17Z</time></trkpt><trkpt lat="45.926904165856975" lon="12.549715479192374"><ele>17.0</ele><time>2026-04-05T09:24:18Z</time></trkpt><trkpt lat="45.92688664685056" lon="12.550318873606185"><ele>17.666666666666668</ele><time>2026-04-05T09:24:19Z</time></trkpt><trkpt lat="45.926911012998744" lon="12.550642618884815"><ele>18.333333333333332</ele><time>2026-04-05T09:24:20Z</time></trkpt><trkpt lat="45.926854737623614" lon="12.550944879784593"><ele>19.0</ele><time>2026-04-05T09:24:21Z</time></trkpt><trkpt lat="45.92652376025671" lon="12.551367683738695"><ele>19.5</ele><time>2026-04-05T09:24:22Z</time></trkpt><trkpt lat="45.926339257066836" lon="12.551877987914981"><ele>20.0</ele><time>2026-04-05T09:24:23Z</time></trkpt><trkpt lat="45.926224751528125" lon="12.552237117131305"><ele>20.0</ele><time>2026-04-05T09:24:24Z</time></trkpt><trkpt lat="45.92610514888731" lon="12.552576194318322"><ele>20.0</ele><time>2026-04-05T09:24:25Z</time></trkpt><trkpt lat="45.92601961153781" lon="12.552949039446062"><ele>19.5</ele><time>2026-04-05T09:24:26Z</time></trkpt><trkpt lat="45.925883037013726" lon="12.553203047337462"><ele>19.0</ele><time>2026-04-05T09:24:27Z</time></trkpt><trkpt lat="45.92579106727654" lon="12.553508673023355"><ele>19.0</ele><time>2026-04-05T09:24:28Z</time></trkpt><trkpt lat="45.92568067777167" lon="12.55364890312291"><ele>19.0</ele><time>2026-04-05T09:24:29Z</time></trkpt><trkpt lat="45.925551527203126" lon="12.553759704624543"><ele>19.0</ele><time>2026-04-05T09:24:30Z</time></trkpt><trkpt lat="45.92544123595958" lon="12.554001873148382"><ele>19.0</ele><time>2026-04-05T09:24:31Z</time></trkpt><trkpt lat="45.92525773675186" lon="12.554245071893464"><ele>19.0</ele><time>2026-04-05T09:24:32Z</time></trkpt><trkpt lat="45.92503092591832" lon="12.55436923211073"><ele>18.0</ele><time>2026-04-05T09:24:33Z</time></trkpt><trkpt lat="45.924831663437516" lon="12.554675425710533"><ele>17.0</ele><time>2026-04-05T09:24:34Z</time></trkpt><trkpt lat="45.92465626119123" lon="12.554932093193417"><ele>17.0</ele><time>2026-04-05T09:24:35Z</time></trkpt><trkpt lat="45.92449989033297" lon="12.555162327146878"><ele>17.0</ele><time>2026-04-05T09:24:36Z</time></trkpt><trkpt lat="45.924263393611845" lon="12.555536128935323"><ele>17.0</ele><time>2026-04-05T09:24:37Z</time></trkpt><trkpt lat="45.92406937019664" lon="12.555782063635455"><ele>17.0</ele><time>2026-04-05T09:24:38Z</time></trkpt><trkpt lat="45.92387231372256" lon="12.556046054190816"><ele>17.5</ele><time>2026-04-05T09:24:39Z</time></trkpt><trkpt lat="45.923698119591506" lon="12.556282167027861"><ele>18.0</ele><time>2026-04-05T09:24:40Z</time></trkpt><trkpt lat="45.92351411922816" lon="12.556551861055002"><ele>18.0</ele><time>2026-04-05T09:24:41Z</time></trkpt><trkpt lat="45.92328982651507" lon="12.556857820459054"><ele>18.0</ele><time>2026-04-05T09:24:42Z</time></trkpt><trkpt lat="45.92309875603731" lon="12.557118457583691"><ele>17.5</ele><time>2026-04-05T09:24:43Z</time></trkpt><trkpt lat="45.92287934955162" lon="12.557360745852936"><ele>17.0</ele><time>2026-04-05T09:24:44Z</time></trkpt><trkpt lat="45.92265965165099" lon="12.55757714760286"><ele>18.0</ele><time>2026-04-05T09:24:45Z</time></trkpt><trkpt lat="45.922244239686485" lon="12.55827879966641"><ele>18.0</ele><time>2026-04-05T09:24:46Z</time></trkpt><trkpt lat="45.92204812190499" lon="12.558616280049385"><ele>18.0</ele><time>2026-04-05T09:24:47Z</time></trkpt><trkpt lat="45.921577511145195" lon="12.558765632313458"><ele>19.0</ele><time>2026-04-05T09:24:48Z</time></trkpt><trkpt lat="45.92122649574291" lon="12.559102566386496"><ele>20.0</ele><time>2026-04-05T09:24:49Z</time></trkpt><trkpt lat="45.920997814174335" lon="12.5593637637963"><ele>20.0</ele><time>2026-04-05T09:24:50Z</time></trkpt><trkpt lat="45.92128951408452" lon="12.559279336919516"><ele>20.0</ele><time>2026-04-05T09:24:52Z</time></trkpt><trkpt lat="45.92155735759659" lon="12.559149857498896"><ele>19.0</ele><time>2026-04-05T09:24:53Z</time></trkpt><trkpt lat="45.921165683275134" lon="12.559551443612948"><ele>19.0</ele><time>2026-04-05T09:24:54Z</time></trkpt><trkpt lat="45.92109358217302" lon="12.559741423384398"><ele>19.0</ele><time>2026-04-05T09:24:55Z</time></trkpt><trkpt lat="45.92095751771249" lon="12.559900134032272"><ele>19.0</ele><time>2026-04-05T09:24:56Z</time></trkpt><trkpt lat="45.920795433285654" lon="12.560044369970218"><ele>19.0</ele><time>2026-04-05T09:24:57Z</time></trkpt><trkpt lat="45.9207416439056" lon="12.560092692676214"><ele>19.0</ele><time>2026-04-05T09:24:59Z</time></trkpt><trkpt lat="45.92059757559619" lon="12.560222119231614"><ele>19.0</ele><time>2026-04-05T09:25:00Z</time></trkpt><trkpt lat="45.92046944639002" lon="12.560337214998572"><ele>19.0</ele><time>2026-04-05T09:25:01Z</time></trkpt><trkpt lat="45.9203363551212" lon="12.560456192808143"><ele>19.0</ele><time>2026-04-05T09:25:02Z</time></trkpt><trkpt lat="45.92020355815203" lon="12.560573413794828"><ele>19.0</ele><time>2026-04-05T09:25:03Z</time></trkpt><trkpt lat="45.919864820321905" lon="12.560862025267276"><ele>19.0</ele><time>2026-04-05T09:25:04Z</time></trkpt><trkpt lat="45.9195841216371" lon="12.561095089464528"><ele>19.0</ele><time>2026-04-05T09:25:05Z</time></trkpt><trkpt lat="45.91947533376306" lon="12.561181010908756"><ele>19.0</ele><time>2026-04-05T09:25:06Z</time></trkpt><trkpt lat="45.91911592533092" lon="12.561463954480704"><ele>18.0</ele><time>2026-04-05T09:25:07Z</time></trkpt><trkpt lat="45.91892255261331" lon="12.561622138326063"><ele>17.0</ele><time>2026-04-05T09:25:08Z</time></trkpt><trkpt lat="45.918743053166985" lon="12.56176796017373"><ele>16.0</ele><time>2026-04-05T09:25:09Z</time></trkpt><trkpt lat="45.91840328311801" lon="12.562042298277078"><ele>17.0</ele><time>2026-04-05T09:25:10Z</time></trkpt><trkpt lat="45.91806325927787" lon="12.562316537485742"><ele>18.0</ele><time>2026-04-05T09:25:11Z</time></trkpt><trkpt lat="45.91778617500393" lon="12.562546518769693"><ele>16.0</ele><time>2026-04-05T09:25:12Z</time></trkpt><trkpt lat="45.91712403292911" lon="12.56316014893446"><ele>16.0</ele><time>2026-04-05T09:25:13Z</time></trkpt><trkpt lat="45.916947135493146" lon="12.563386543022032"><ele>16.0</ele><time>2026-04-05T09:25:14Z</time></trkpt><trkpt lat="45.91679545079889" lon="12.563706103304703"><ele>17.5</ele><time>2026-04-05T09:25:17Z</time></trkpt><trkpt lat="45.91661588460924" lon="12.563945229442336"><ele>19.0</ele><time>2026-04-05T09:25:18Z</time></trkpt><trkpt lat="45.91642871543916" lon="12.564171342669002"><ele>19.0</ele><time>2026-04-05T09:25:19Z</time></trkpt><trkpt lat="45.91623953752235" lon="12.564359478751719"><ele>19.0</ele><time>2026-04-05T09:25:20Z</time></trkpt><trkpt lat="45.91604542192425" lon="12.564539542201068"><ele>18.5</ele><time>2026-04-05T09:25:21Z</time></trkpt><trkpt lat="45.915758932414136" lon="12.56480410437904"><ele>18.0</ele><time>2026-04-05T09:25:22Z</time></trkpt><trkpt lat="45.915457130970445" lon="12.565064679126175"><ele>16.0</ele><time>2026-04-05T09:25:23Z</time></trkpt><trkpt lat="45.91489048640184" lon="12.565607578979352"><ele>16.0</ele><time>2026-04-05T09:25:24Z</time></trkpt><trkpt lat="45.9146789220771" lon="12.565807428517363"><ele>16.0</ele><time>2026-04-05T09:25:24.999Z</time></trkpt><trkpt lat="45.914480775953585" lon="12.566064132714402"><ele>16.0</ele><time>2026-04-05T09:25:25.999Z</time></trkpt><trkpt lat="45.914259650752925" lon="12.566241630051735"><ele>16.0</ele><time>2026-04-05T09:25:26.999Z</time></trkpt><trkpt lat="45.91401473468117" lon="12.566436011795307"><ele>16.0</ele><time>2026-04-05T09:25:27.999Z</time></trkpt><trkpt lat="45.91379218778318" lon="12.56659584555681"><ele>16.0</ele><time>2026-04-05T09:25:28.999Z</time></trkpt><trkpt lat="45.91362282834449" lon="12.566659868289952"><ele>16.0</ele><time>2026-04-05T09:25:29.999Z</time></trkpt><trkpt lat="45.91341868838785" lon="12.566808811996298"><ele>16.0</ele><time>2026-04-05T09:25:30.999Z</time></trkpt><trkpt lat="45.91320451000985" lon="12.566911684055603"><ele>16.0</ele><time>2026-04-05T09:25:31.999Z</time></trkpt><trkpt lat="45.91298944747727" lon="12.566998232731596"><ele>16.0</ele><time>2026-04-05T09:25:32.999Z</time></trkpt><trkpt lat="45.91278698364817" lon="12.567130148174252"><ele>16.0</ele><time>2026-04-05T09:25:33.999Z</time></trkpt><trkpt lat="45.91257428285736" lon="12.56726792913652"><ele>16.0</ele><time>2026-04-05T09:25:34.999Z</time></trkpt><trkpt lat="45.91239609821497" lon="12.567506594879838"><ele>16.0</ele><time>2026-04-05T09:25:35.999Z</time></trkpt><trkpt lat="45.91222036977629" lon="12.567674947132712"><ele>16.0</ele><time>2026-04-05T09:25:36.999Z</time></trkpt><trkpt lat="45.91187992984038" lon="12.567926472027143"><ele>16.333333333333332</ele><time>2026-04-05T09:25:37.999Z</time></trkpt><trkpt lat="45.911683712940935" lon="12.568099976245982"><ele>16.666666666666668</ele><time>2026-04-05T09:25:38.999Z</time></trkpt><trkpt lat="45.91154597092434" lon="12.568290563549636"><ele>17.0</ele><time>2026-04-05T09:25:39.999Z</time></trkpt><trkpt lat="45.91161787754162" lon="12.568533840041342"><ele>16.666666666666668</ele><time>2026-04-05T09:25:40.999Z</time></trkpt><trkpt lat="45.911644062238935" lon="12.568745123311533"><ele>16.333333333333332</ele><time>2026-04-05T09:25:41.999Z</time></trkpt><trkpt lat="45.91145636869273" lon="12.5690699635463"><ele>16.0</ele><time>2026-04-05T09:25:42.999Z</time></trkpt><trkpt lat="45.911273574018004" lon="12.56940206339259"><ele>16.333333333333332</ele><time>2026-04-05T09:25:43.999Z</time></trkpt><trkpt lat="45.91116139150867" lon="12.56967293696609"><ele>16.666666666666668</ele><time>2026-04-05T09:25:44.999Z</time></trkpt><trkpt lat="45.911073749637325" lon="12.569880275790133"><ele>17.0</ele><time>2026-04-05T09:25:46.999Z</time></trkpt><trkpt lat="45.910941144392424" lon="12.570075909986436"><ele>16.666666666666668</ele><time>2026-04-05T09:25:47.999Z</time></trkpt><trkpt lat="45.9107969057327" lon="12.570229929954317"><ele>16.333333333333332</ele><time>2026-04-05T09:25:48.999Z</time></trkpt><trkpt lat="45.91065127753247" lon="12.57038163441868"><ele>16.0</ele><time>2026-04-05T09:25:49.999Z</time></trkpt><trkpt lat="45.91050681488488" lon="12.570530193350514"><ele>16.0</ele><time>2026-04-05T09:25:50.999Z</time></trkpt><trkpt lat="45.91049523345073" lon="12.570823371881643"><ele>16.0</ele><time>2026-04-05T09:25:52.999Z</time></trkpt><trkpt lat="45.910351483854306" lon="12.57103267432405"><ele>16.0</ele><time>2026-04-05T09:25:53.999Z</time></trkpt><trkpt lat="45.91028578370379" lon="12.57125253025431"><ele>16.5</ele><time>2026-04-05T09:25:54.999Z</time></trkpt><trkpt lat="45.91020432148585" lon="12.571448389544006"><ele>17.0</ele><time>2026-04-05T09:25:55.999Z</time></trkpt><trkpt lat="45.910085248628874" lon="12.572155616341"><ele>17.0</ele><time>2026-04-05T09:25:56.999Z</time></trkpt><trkpt lat="45.90993389339241" lon="12.572491111913719"><ele>17.0</ele><time>2026-04-05T09:25:57.999Z</time></trkpt><trkpt lat="45.90981679631948" lon="12.572701091257256"><ele>17.0</ele><time>2026-04-05T09:25:58.999Z</time></trkpt><trkpt lat="45.909606981052214" lon="12.572798706802512"><ele>17.0</ele><time>2026-04-05T09:25:59.999Z</time></trkpt><trkpt lat="45.90931823098655" lon="12.572962296378902"><ele>17.0</ele><time>2026-04-05T09:26:00.999Z</time></trkpt><trkpt lat="45.90909755532212" lon="12.57308344056643"><ele>17.0</ele><time>2026-04-05T09:26:02Z</time></trkpt><trkpt lat="45.90887651134449" lon="12.57325467934405"><ele>17.0</ele><time>2026-04-05T09:26:03Z</time></trkpt><trkpt lat="45.90856849901534" lon="12.573373624315284"><ele>17.0</ele><time>2026-04-05T09:26:04Z</time></trkpt><trkpt lat="45.90811395176425" lon="12.573257068085784"><ele>17.0</ele><time>2026-04-05T09:26:05Z</time></trkpt><trkpt lat="45.90776657428642" lon="12.573432296085196"><ele>17.0</ele><time>2026-04-05T09:26:06Z</time></trkpt><trkpt lat="45.90752469984726" lon="12.573473989945859"><ele>16.0</ele><time>2026-04-05T09:26:07Z</time></trkpt><trkpt lat="45.90675560542177" lon="12.573598099611372"><ele>17.0</ele><time>2026-04-05T09:26:08Z</time></trkpt><trkpt lat="45.906251678587054" lon="12.573755746608546"><ele>17.0</ele><time>2026-04-05T09:26:09Z</time></trkpt><trkpt lat="45.90585439342908" lon="12.57386145242425"><ele>17.0</ele><time>2026-04-05T09:26:10Z</time></trkpt><trkpt lat="45.9054979564557" lon="12.573959329862722"><ele>17.0</ele><time>2026-04-05T09:26:11Z</time></trkpt><trkpt lat="45.90515802119727" lon="12.574030836319018"><ele>17.0</ele><time>2026-04-05T09:26:12Z</time></trkpt><trkpt lat="45.904795285643495" lon="12.574120298868905"><ele>17.0</ele><time>2026-04-05T09:26:13Z</time></trkpt><trkpt lat="45.904445386614796" lon="12.574209681447734"><ele>17.0</ele><time>2026-04-05T09:26:14Z</time></trkpt><trkpt lat="45.904080714483435" lon="12.574318182856796"><ele>17.0</ele><time>2026-04-05T09:26:15Z</time></trkpt><trkpt lat="45.90373290248646" lon="12.574412717256235"><ele>17.0</ele><time>2026-04-05T09:26:16Z</time></trkpt><trkpt lat="45.90337366531128" lon="12.574514281655473"><ele>17.0</ele><time>2026-04-05T09:26:17Z</time></trkpt><trkpt lat="45.90304079948789" lon="12.574762958347234"><ele>17.0</ele><time>2026-04-05T09:26:18Z</time></trkpt><trkpt lat="45.90272584121612" lon="12.574869477507542"><ele>17.0</ele><time>2026-04-05T09:26:19Z</time></trkpt><trkpt lat="45.90240227557017" lon="12.575005010082043"><ele>17.0</ele><time>2026-04-05T09:26:20Z</time></trkpt><trkpt lat="45.902065818359155" lon="12.575141066646852"><ele>17.0</ele><time>2026-04-05T09:26:21Z</time></trkpt><trkpt lat="45.901818042620725" lon="12.575261796378935"><ele>17.0</ele><time>2026-04-05T09:26:22Z</time></trkpt><trkpt lat="45.901558132647" lon="12.575384170784513"><ele>16.0</ele><time>2026-04-05T09:26:23Z</time></trkpt><trkpt lat="45.9012424156341" lon="12.575515231123244"><ele>15.0</ele><time>2026-04-05T09:26:24Z</time></trkpt><trkpt lat="45.901110128098146" lon="12.576037657021363"><ele>15.5</ele><time>2026-04-05T09:26:25Z</time></trkpt><trkpt lat="45.900814654565465" lon="12.576210730085485"><ele>16.0</ele><time>2026-04-05T09:26:26Z</time></trkpt><trkpt lat="45.90055180086879" lon="12.576391451184694"><ele>16.0</ele><time>2026-04-05T09:26:27Z</time></trkpt><trkpt lat="45.90026556104941" lon="12.576561490816827"><ele>16.0</ele><time>2026-04-05T09:26:28Z</time></trkpt><trkpt lat="45.89998381206715" lon="12.576742836739795"><ele>15.333333333333332</ele><time>2026-04-05T09:26:29Z</time></trkpt><trkpt lat="45.899839500714975" lon="12.576896295622793"><ele>14.666666666666668</ele><time>2026-04-05T09:26:30Z</time></trkpt><trkpt lat="45.89959943799735" lon="12.576921806913422"><ele>14.0</ele><time>2026-04-05T09:26:31Z</time></trkpt><trkpt lat="45.89937036101112" lon="12.57694062319857"><ele>15.0</ele><time>2026-04-05T09:26:32Z</time></trkpt><trkpt lat="45.89907996077741" lon="12.57710493183322"><ele>16.0</ele><time>2026-04-05T09:26:33Z</time></trkpt><trkpt lat="45.90048360503824" lon="12.576174726497783"><ele>16.0</ele><time>2026-04-05T09:26:34Z</time></trkpt><trkpt lat="45.90047229501764" lon="12.576308419305533"><ele>16.0</ele><time>2026-04-05T09:26:36Z</time></trkpt><trkpt lat="45.90038126857937" lon="12.576315564090828"><ele>16.0</ele><time>2026-04-05T09:26:37Z</time></trkpt><trkpt lat="45.900283938391325" lon="12.576384655956366"><ele>16.0</ele><time>2026-04-05T09:26:38Z</time></trkpt><trkpt lat="45.9001950401646" lon="12.576437530776918"><ele>16.0</ele><time>2026-04-05T09:26:39Z</time></trkpt><trkpt lat="45.900026386432025" lon="12.576483897954517"><ele>15.0</ele><time>2026-04-05T09:26:40Z</time></trkpt><trkpt lat="45.89969844585895" lon="12.576731570872454"><ele>14.0</ele><time>2026-04-05T09:26:41Z</time></trkpt><trkpt lat="45.899403474737454" lon="12.576895083412717"><ele>15.0</ele><time>2026-04-05T09:26:42Z</time></trkpt><trkpt lat="45.89920189154316" lon="12.577007715076983"><ele>16.0</ele><time>2026-04-05T09:26:43Z</time></trkpt><trkpt lat="45.898854580976405" lon="12.577201769782056"><ele>16.0</ele><time>2026-04-05T09:26:44Z</time></trkpt><trkpt lat="45.89860910074415" lon="12.577341157486407"><ele>16.0</ele><time>2026-04-05T09:26:45Z</time></trkpt><trkpt lat="45.89840125810612" lon="12.577459848526127"><ele>15.0</ele><time>2026-04-05T09:26:46Z</time></trkpt><trkpt lat="45.898005359023486" lon="12.577687345888792"><ele>14.0</ele><time>2026-04-05T09:26:47Z</time></trkpt><trkpt lat="45.897737304629295" lon="12.577843902999609"><ele>15.0</ele><time>2026-04-05T09:26:48Z</time></trkpt><trkpt lat="45.89744811089092" lon="12.578019575650252"><ele>16.0</ele><time>2026-04-05T09:26:49Z</time></trkpt><trkpt lat="45.897168488664" lon="12.578189710412362"><ele>16.0</ele><time>2026-04-05T09:26:50Z</time></trkpt><trkpt lat="45.896853767189306" lon="12.578381201140434"><ele>16.0</ele><time>2026-04-05T09:26:51Z</time></trkpt><trkpt lat="45.89655285558869" lon="12.578565264364471"><ele>14.5</ele><time>2026-04-05T09:26:52Z</time></trkpt><trkpt lat="45.8963211964078" lon="12.578710925817644"><ele>13.0</ele><time>2026-04-05T09:26:53Z</time></trkpt><trkpt lat="45.89603787153584" lon="12.578893190678057"><ele>12.333333333333332</ele><time>2026-04-05T09:26:54Z</time></trkpt><trkpt lat="45.89578754668608" lon="12.579054150438907"><ele>11.666666666666666</ele><time>2026-04-05T09:26:55Z</time></trkpt><trkpt lat="45.895654015197245" lon="12.579076703415607"><ele>11.0</ele><time>2026-04-05T09:26:56Z</time></trkpt><trkpt lat="45.89543224982704" lon="12.579224378587039"><ele>11.0</ele><time>2026-04-05T09:26:57Z</time></trkpt><trkpt lat="45.89522700831854" lon="12.579363851071896"><ele>11.0</ele><time>2026-04-05T09:26:58Z</time></trkpt><trkpt lat="45.89493462356281" lon="12.579580885553023"><ele>12.5</ele><time>2026-04-05T09:26:59Z</time></trkpt><trkpt lat="45.894703990212705" lon="12.579729692298569"><ele>14.0</ele><time>2026-04-05T09:27:00Z</time></trkpt><trkpt lat="45.89447143325648" lon="12.579868506273396"><ele>14.333333333333334</ele><time>2026-04-05T09:27:01Z</time></trkpt><trkpt lat="45.894211722211665" lon="12.579927412638208"><ele>14.666666666666668</ele><time>2026-04-05T09:27:02Z</time></trkpt><trkpt lat="45.894084326212685" lon="12.579951784871419"><ele>15.0</ele><time>2026-04-05T09:27:03Z</time></trkpt><trkpt lat="45.8939186310344" lon="12.579974051120944"><ele>15.0</ele><time>2026-04-05T09:27:04Z</time></trkpt><trkpt lat="45.89367543519123" lon="12.579944611660665"><ele>15.0</ele><time>2026-04-05T09:27:06Z</time></trkpt><trkpt lat="45.89344529690433" lon="12.579950448142386"><ele>14.5</ele><time>2026-04-05T09:27:07Z</time></trkpt><trkpt lat="45.89329447688944" lon="12.579945296438046"><ele>14.0</ele><time>2026-04-05T09:27:08Z</time></trkpt><trkpt lat="45.89310711522701" lon="12.579951727349584"><ele>13.5</ele><time>2026-04-05T09:27:09Z</time></trkpt><trkpt lat="45.893077743567126" lon="12.579867102102925"><ele>13.0</ele><time>2026-04-05T09:27:10Z</time></trkpt><trkpt lat="45.89335002886517" lon="12.579784076717603"><ele>13.0</ele><time>2026-04-05T09:27:11Z</time></trkpt><trkpt lat="45.89310383868982" lon="12.58018536748863"><ele>13.0</ele><time>2026-04-05T09:27:16Z</time></trkpt><trkpt lat="45.89302957730619" lon="12.580216972662551"><ele>13.0</ele><time>2026-04-05T09:27:17Z</time></trkpt><trkpt lat="45.89290946027909" lon="12.580344535972042"><ele>13.0</ele><time>2026-04-05T09:27:18Z</time></trkpt><trkpt lat="45.89277991477391" lon="12.580358230370203"><ele>13.0</ele><time>2026-04-05T09:27:19Z</time></trkpt><trkpt lat="45.89258493475827" lon="12.580412693759703"><ele>13.333333333333332</ele><time>2026-04-05T09:27:20Z</time></trkpt><trkpt lat="45.89245856849232" lon="12.580513466289931"><ele>13.666666666666668</ele><time>2026-04-05T09:27:20.999Z</time></trkpt><trkpt lat="45.89226087668098" lon="12.580572973715812"><ele>14.0</ele><time>2026-04-05T09:27:21.999Z</time></trkpt><trkpt lat="45.892100564888786" lon="12.580519659022022"><ele>14.0</ele><time>2026-04-05T09:27:22.999Z</time></trkpt><trkpt lat="45.891927767507724" lon="12.580700031533503"><ele>14.0</ele><time>2026-04-05T09:27:23.999Z</time></trkpt><trkpt lat="45.891703131888306" lon="12.580771181228501"><ele>14.0</ele><time>2026-04-05T09:27:24.999Z</time></trkpt><trkpt lat="45.89145767417939" lon="12.580872993160176"><ele>14.0</ele><time>2026-04-05T09:27:25.999Z</time></trkpt><trkpt lat="45.891192624704985" lon="12.580974315324054"><ele>14.0</ele><time>2026-04-05T09:27:26.999Z</time></trkpt><trkpt lat="45.8910043678129" lon="12.581139747279334"><ele>13.5</ele><time>2026-04-05T09:27:27.999Z</time></trkpt><trkpt lat="45.890839893309646" lon="12.581293798134372"><ele>13.0</ele><time>2026-04-05T09:27:28.999Z</time></trkpt><trkpt lat="45.890616538014186" lon="12.581499738598557"><ele>13.0</ele><time>2026-04-05T09:27:29.999Z</time></trkpt><trkpt lat="45.890377642357585" lon="12.58171367350542"><ele>13.0</ele><time>2026-04-05T09:27:30.999Z</time></trkpt><trkpt lat="45.890193629754336" lon="12.581912203011221"><ele>13.0</ele><time>2026-04-05T09:27:31.999Z</time></trkpt><trkpt lat="45.88994175706145" lon="12.582101879077813"><ele>13.0</ele><time>2026-04-05T09:27:32.999Z</time></trkpt><trkpt lat="45.88986568043121" lon="12.582207299048354"><ele>13.0</ele><time>2026-04-05T09:27:34.999Z</time></trkpt><trkpt lat="45.88977025343669" lon="12.582333722659031"><ele>13.0</ele><time>2026-04-05T09:27:35.999Z</time></trkpt><trkpt lat="45.88939754860726" lon="12.582673629772415"><ele>13.0</ele><time>2026-04-05T09:27:36.999Z</time></trkpt><trkpt lat="45.88915391642545" lon="12.582871695113502"><ele>13.2</ele><time>2026-04-05T09:27:37.999Z</time></trkpt><trkpt lat="45.88903415746181" lon="12.582921148668952"><ele>13.4</ele><time>2026-04-05T09:27:38.999Z</time></trkpt><trkpt lat="45.888943780315586" lon="12.582995566065959"><ele>13.599999999999998</ele><time>2026-04-05T09:27:39.999Z</time></trkpt><trkpt lat="45.88885418277143" lon="12.582968312238634"><ele>13.799999999999999</ele><time>2026-04-05T09:27:40.999Z</time></trkpt><trkpt lat="45.888785902623134" lon="12.58298183273359"><ele>14.0</ele><time>2026-04-05T09:27:42.999Z</time></trkpt><trkpt lat="45.888646848550444" lon="12.582900931689128"><ele>14.0</ele><time>2026-04-05T09:27:44.999Z</time></trkpt><trkpt lat="45.88856971665384" lon="12.582909749563322"><ele>14.0</ele><time>2026-04-05T09:27:45.999Z</time></trkpt><trkpt lat="45.88848915183269" lon="12.582920926738472"><ele>14.0</ele><time>2026-04-05T09:27:46.999Z</time></trkpt><trkpt lat="45.88834398165999" lon="12.583135696354962"><ele>14.0</ele><time>2026-04-05T09:27:48.999Z</time></trkpt><trkpt lat="45.888342013446064" lon="12.5832873344875"><ele>14.000000000000002</ele><time>2026-04-05T09:27:49.999Z</time></trkpt><trkpt lat="45.88835065667438" lon="12.5834297571802"><ele>14.0</ele><time>2026-04-05T09:27:50.999Z</time></trkpt><trkpt lat="45.88841694960198" lon="12.583473740803418"><ele>14.0</ele><time>2026-04-05T09:27:51.999Z</time></trkpt><trkpt lat="45.888501148908404" lon="12.583509034442113"><ele>14.0</ele><time>2026-04-05T09:27:53.999Z</time></trkpt><trkpt lat="45.88857831143375" lon="12.583569716413388"><ele>14.000000000000002</ele><time>2026-04-05T09:27:54.999Z</time></trkpt><trkpt lat="45.88864826430981" lon="12.583525681838326"><ele>14.0</ele><time>2026-04-05T09:27:55.999Z</time></trkpt><trkpt lat="45.88867414604556" lon="12.583879868212884"><ele>14.5</ele><time>2026-04-05T09:27:56.999Z</time></trkpt><trkpt lat="45.88869963315167" lon="12.584073303548823"><ele>15.0</ele><time>2026-04-05T09:27:57.999Z</time></trkpt><trkpt lat="45.88872814732769" lon="12.584272940204201"><ele>15.5</ele><time>2026-04-05T09:27:58.999Z</time></trkpt><trkpt lat="45.88884239788579" lon="12.584447437878223"><ele>16.0</ele><time>2026-04-05T09:27:59.999Z</time></trkpt><trkpt lat="45.88887594555183" lon="12.584633552838122"><ele>16.0</ele><time>2026-04-05T09:28:00.999Z</time></trkpt><trkpt lat="45.888918940772484" lon="12.584809985173306"><ele>16.0</ele><time>2026-04-05T09:28:01.999Z</time></trkpt><trkpt lat="45.889268339860706" lon="12.584924354518343"><ele>16.0</ele><time>2026-04-05T09:28:03.999Z</time></trkpt><trkpt lat="45.88937321133523" lon="12.585138183236575"><ele>16.0</ele><time>2026-04-05T09:28:04.999Z</time></trkpt><trkpt lat="45.88948010523507" lon="12.585356650967395"><ele>16.0</ele><time>2026-04-05T09:28:05.999Z</time></trkpt><trkpt lat="45.88957141073404" lon="12.585540562348442"><ele>16.0</ele><time>2026-04-05T09:28:06.999Z</time></trkpt><trkpt lat="45.889680208293875" lon="12.585758495660368"><ele>16.0</ele><time>2026-04-05T09:28:08Z</time></trkpt><trkpt lat="45.889753562299795" lon="12.585906142862278"><ele>16.0</ele><time>2026-04-05T09:28:09Z</time></trkpt><trkpt lat="45.88986837490708" lon="12.586138026088364"><ele>15.0</ele><time>2026-04-05T09:28:10Z</time></trkpt><trkpt lat="45.88998719302806" lon="12.586378404462305"><ele>14.0</ele><time>2026-04-05T09:28:11Z</time></trkpt><trkpt lat="45.89008313648012" lon="12.586571741227802"><ele>13.0</ele><time>2026-04-05T09:28:12Z</time></trkpt><trkpt lat="45.8901057432335" lon="12.586949633100469"><ele>14.0</ele><time>2026-04-05T09:28:13Z</time></trkpt><trkpt lat="45.89023746100333" lon="12.587167200824256"><ele>15.0</ele><time>2026-04-05T09:28:14Z</time></trkpt><trkpt lat="45.89465023868832" lon="12.598637955517882"><ele>14.4</ele><time>2026-04-05T09:29:57.999Z</time></trkpt><trkpt lat="45.894701117328864" lon="12.598737492100087"><ele>13.8</ele><time>2026-04-05T09:29:58.999Z</time></trkpt><trkpt lat="45.89474347006862" lon="12.598820571914093"><ele>13.2</ele><time>2026-04-05T09:29:59.999Z</time></trkpt><trkpt lat="45.894859464389306" lon="12.599037588893527"><ele>12.6</ele><time>2026-04-05T09:30:02.999Z</time></trkpt><trkpt lat="45.89491071663416" lon="12.599123948779175"><ele>12.0</ele><time>2026-04-05T09:30:03.999Z</time></trkpt><trkpt lat="45.8949412916637" lon="12.599220189187992"><ele>11.999999999999998</ele><time>2026-04-05T09:30:04.999Z</time></trkpt><trkpt lat="45.89498185513797" lon="12.59929846273336"><ele>12.0</ele><time>2026-04-05T09:30:05.999Z</time></trkpt><trkpt lat="45.89502212663096" lon="12.59937617287506"><ele>12.0</ele><time>2026-04-05T09:30:06.999Z</time></trkpt><trkpt lat="45.89506786938354" lon="12.599464441185837"><ele>12.0</ele><time>2026-04-05T09:30:07.999Z</time></trkpt><trkpt lat="45.89511060591811" lon="12.599547674685471"><ele>12.0</ele><time>2026-04-05T09:30:08.999Z</time></trkpt><trkpt lat="45.89515600881623" lon="12.599635879530208"><ele>11.999999999999998</ele><time>2026-04-05T09:30:09.999Z</time></trkpt><trkpt lat="45.895218327703006" lon="12.599711182121096"><ele>12.0</ele><time>2026-04-05T09:30:10.999Z</time></trkpt><trkpt lat="45.895264799745576" lon="12.59980672303837"><ele>12.0</ele><time>2026-04-05T09:30:11.999Z</time></trkpt><trkpt lat="45.895307698232315" lon="12.599900771848976"><ele>12.0</ele><time>2026-04-05T09:30:12.999Z</time></trkpt><trkpt lat="45.89535648269544" lon="12.59999340075111"><ele>12.0</ele><time>2026-04-05T09:30:14Z</time></trkpt><trkpt lat="45.89540561832782" lon="12.600085829475374"><ele>12.0</ele><time>2026-04-05T09:30:15Z</time></trkpt><trkpt lat="45.89544067235364" lon="12.600192718594482"><ele>12.0</ele><time>2026-04-05T09:30:16Z</time></trkpt><trkpt lat="45.89548126565144" lon="12.600271539833866"><ele>12.0</ele><time>2026-04-05T09:30:17Z</time></trkpt><trkpt lat="45.89563859515199" lon="12.600227478051389"><ele>12.0</ele><time>2026-04-05T09:30:19Z</time></trkpt><trkpt lat="45.89569741078272" lon="12.600071569274151"><ele>12.0</ele><time>2026-04-05T09:30:21Z</time></trkpt><trkpt lat="45.89563165392811" lon="12.599885679901133"><ele>12.0</ele><time>2026-04-05T09:30:23Z</time></trkpt><trkpt lat="45.89565682734311" lon="12.599775506022842"><ele>12.0</ele><time>2026-04-05T09:30:25Z</time></trkpt><trkpt lat="45.89572917909807" lon="12.599699772663616"><ele>12.0</ele><time>2026-04-05T09:30:26Z</time></trkpt><trkpt lat="45.89580379336158" lon="12.599608287792638"><ele>12.0</ele><time>2026-04-05T09:30:27Z</time></trkpt><trkpt lat="45.895896439204044" lon="12.599538191849"><ele>12.0</ele><time>2026-04-05T09:30:28Z</time></trkpt><trkpt lat="45.89599851313623" lon="12.599490554871583"><ele>12.0</ele><time>2026-04-05T09:30:29Z</time></trkpt><trkpt lat="45.89610479039499" lon="12.599496767460563"><ele>12.0</ele><time>2026-04-05T09:30:30Z</time></trkpt><trkpt lat="45.896194096314254" lon="12.599558546092304"><ele>12.0</ele><time>2026-04-05T09:30:31Z</time></trkpt><trkpt lat="45.89626005659028" lon="12.599655455609158"><ele>12.0</ele><time>2026-04-05T09:30:32Z</time></trkpt><trkpt lat="45.8963353733373" lon="12.599737853463784"><ele>12.0</ele><time>2026-04-05T09:30:33Z</time></trkpt><trkpt lat="45.89643896469843" lon="12.599769607151408"><ele>12.0</ele><time>2026-04-05T09:30:34Z</time></trkpt><trkpt lat="45.896566223566325" lon="12.5997857170154"><ele>12.0</ele><time>2026-04-05T09:30:35Z</time></trkpt><trkpt lat="45.89667934095175" lon="12.59983443150418"><ele>12.0</ele><time>2026-04-05T09:30:36Z</time></trkpt><trkpt lat="45.89677296887486" lon="12.599924564721567"><ele>12.0</ele><time>2026-04-05T09:30:37Z</time></trkpt><trkpt lat="45.89685624472274" lon="12.600058691750574"><ele>12.0</ele><time>2026-04-05T09:30:38Z</time></trkpt><trkpt lat="45.896918857354585" lon="12.600226956913538"><ele>12.0</ele><time>2026-04-05T09:30:39Z</time></trkpt><trkpt lat="45.89699103502888" lon="12.600409524645027"><ele>12.0</ele><time>2026-04-05T09:30:40Z</time></trkpt><trkpt lat="45.897074666542736" lon="12.600603174517579"><ele>12.0</ele><time>2026-04-05T09:30:41Z</time></trkpt><trkpt lat="45.8971704046639" lon="12.600796915538751"><ele>12.0</ele><time>2026-04-05T09:30:42Z</time></trkpt></trkseg><trkseg><trkpt lat="45.89929405159971" lon="12.605519783933456"><ele>11.0</ele><time>2026-04-05T09:31:04Z</time></trkpt><trkpt lat="45.899339982098645" lon="12.605769574805267"><ele>11.0</ele><time>2026-04-05T09:31:05Z</time></trkpt><trkpt lat="45.89937801006977" lon="12.606023318756097"><ele>11.0</ele><time>2026-04-05T09:31:06Z</time></trkpt><trkpt lat="45.899405741754556" lon="12.606276063954486"><ele>11.333333333333332</ele><time>2026-04-05T09:31:07Z</time></trkpt><trkpt lat="45.89941908918759" lon="12.606526921568852"><ele>11.666666666666666</ele><time>2026-04-05T09:31:08Z</time></trkpt><trkpt lat="45.899426969997364" lon="12.606768102697888"><ele>12.0</ele><time>2026-04-05T09:31:09Z</time></trkpt><trkpt lat="45.89943218689158" lon="12.60700076660583"><ele>12.333333333333332</ele><time>2026-04-05T09:31:10Z</time></trkpt><trkpt lat="45.89941633491452" lon="12.607234528741957"><ele>12.666666666666666</ele><time>2026-04-05T09:31:11Z</time></trkpt><trkpt lat="45.8994086398745" lon="12.607471559963482"><ele>13.0</ele><time>2026-04-05T09:31:12Z</time></trkpt><trkpt lat="45.8993997031514" lon="12.607683568039658"><ele>13.0</ele><time>2026-04-05T09:31:13Z</time></trkpt><trkpt lat="45.899409776937" lon="12.607884304894686"><ele>13.0</ele><time>2026-04-05T09:31:13.999Z</time></trkpt><trkpt lat="45.89939833784258" lon="12.60815193687652"><ele>13.0</ele><time>2026-04-05T09:31:14.999Z</time></trkpt><trkpt lat="45.89940424908503" lon="12.60839730791646"><ele>13.0</ele><time>2026-04-05T09:31:15.999Z</time></trkpt><trkpt lat="45.899411584977734" lon="12.608653772902771"><ele>13.0</ele><time>2026-04-05T09:31:16.999Z</time></trkpt><trkpt lat="45.89943776825257" lon="12.608902383494243"><ele>13.0</ele><time>2026-04-05T09:31:17.999Z</time></trkpt><trkpt lat="45.899470615158286" lon="12.60917624979813"><ele>13.0</ele><time>2026-04-05T09:31:18.999Z</time></trkpt><trkpt lat="45.89951299763028" lon="12.609437134272772"><ele>13.0</ele><time>2026-04-05T09:31:19.999Z</time></trkpt><trkpt lat="45.8995692723847" lon="12.609685463062846"><ele>13.0</ele><time>2026-04-05T09:31:20.999Z</time></trkpt><trkpt lat="45.899629071544645" lon="12.609934318954636"><ele>13.0</ele><time>2026-04-05T09:31:21.999Z</time></trkpt><trkpt lat="45.899691800923065" lon="12.610176567959961"><ele>13.0</ele><time>2026-04-05T09:31:22.999Z</time></trkpt><trkpt lat="45.89975609380326" lon="12.610407876137833"><ele>13.0</ele><time>2026-04-05T09:31:23.999Z</time></trkpt><trkpt lat="45.89983479209538" lon="12.610622959504173"><ele>13.333333333333332</ele><time>2026-04-05T09:31:24.999Z</time></trkpt><trkpt lat="45.89991328569756" lon="12.610829809530832"><ele>13.666666666666668</ele><time>2026-04-05T09:31:25.999Z</time></trkpt><trkpt lat="45.90002096347191" lon="12.611002354758655"><ele>14.0</ele><time>2026-04-05T09:31:26.999Z</time></trkpt><trkpt lat="45.900115377565136" lon="12.61117041321491"><ele>14.0</ele><time>2026-04-05T09:31:27.999Z</time></trkpt><trkpt lat="45.90021750075983" lon="12.61132835742483"><ele>14.0</ele><time>2026-04-05T09:31:28.999Z</time></trkpt><trkpt lat="45.90033718432883" lon="12.611469712063254"><ele>14.0</ele><time>2026-04-05T09:31:29.999Z</time></trkpt><trkpt lat="45.90038523561194" lon="12.611567911114676"><ele>14.0</ele><time>2026-04-05T09:31:30.999Z</time></trkpt><trkpt lat="45.90041989158948" lon="12.611644529036388"><ele>14.0</ele><time>2026-04-05T09:31:31.999Z</time></trkpt><trkpt lat="45.90041683553476" lon="12.611741962723348"><ele>14.0</ele><time>2026-04-05T09:31:33.999Z</time></trkpt><trkpt lat="45.90043654557192" lon="12.611870722292117"><ele>14.0</ele><time>2026-04-05T09:31:35.999Z</time></trkpt><trkpt lat="45.90024183093549" lon="12.61208649660584"><ele>14.0</ele><time>2026-04-05T09:31:39.999Z</time></trkpt><trkpt lat="45.90016663704167" lon="12.612134381968712"><ele>14.0</ele><time>2026-04-05T09:31:40.999Z</time></trkpt><trkpt lat="45.90010165936071" lon="12.6121974444469"><ele>14.0</ele><time>2026-04-05T09:31:41.999Z</time></trkpt><trkpt lat="45.90006296135769" lon="12.612271405173741"><ele>14.0</ele><time>2026-04-05T09:31:43.999Z</time></trkpt><trkpt lat="45.899924036304355" lon="12.612427949006626"><ele>14.0</ele><time>2026-04-05T09:31:44.999Z</time></trkpt><trkpt lat="45.899855089283754" lon="12.612587670529443"><ele>12.0</ele><time>2026-04-05T09:31:46.999Z</time></trkpt><trkpt lat="45.89968759973519" lon="12.61286422196763"><ele>10.0</ele><time>2026-04-05T09:31:47.999Z</time></trkpt><trkpt lat="45.89997257835748" lon="12.613041796517894"><ele>10.0</ele><time>2026-04-05T09:31:48.999Z</time></trkpt><trkpt lat="45.89973088924794" lon="12.613572915780212"><ele>10.0</ele><time>2026-04-05T09:31:49.999Z</time></trkpt><trkpt lat="45.89959890062651" lon="12.613889034116301"><ele>9.666666666666668</ele><time>2026-04-05T09:31:50.999Z</time></trkpt><trkpt lat="45.899613670540624" lon="12.614148582187177"><ele>9.333333333333334</ele><time>2026-04-05T09:31:51.999Z</time></trkpt><trkpt lat="45.899630075901136" lon="12.614395423500339"><ele>9.0</ele><time>2026-04-05T09:31:52.999Z</time></trkpt><trkpt lat="45.89965076075139" lon="12.614651307908073"><ele>10.0</ele><time>2026-04-05T09:31:53.999Z</time></trkpt><trkpt lat="45.8996453369773" lon="12.614935314336845"><ele>11.0</ele><time>2026-04-05T09:31:54.999Z</time></trkpt><trkpt lat="45.899677750082965" lon="12.61525103104381"><ele>12.0</ele><time>2026-04-05T09:31:55.999Z</time></trkpt><trkpt lat="45.89963444806107" lon="12.61568150410987"><ele>12.0</ele><time>2026-04-05T09:31:56.999Z</time></trkpt><trkpt lat="45.89964877841581" lon="12.616056222396947"><ele>12.0</ele><time>2026-04-05T09:31:57.999Z</time></trkpt><trkpt lat="45.8996517638959" lon="12.61637053966408"><ele>12.0</ele><time>2026-04-05T09:31:58.999Z</time></trkpt><trkpt lat="45.899654120115194" lon="12.61672557723497"><ele>12.0</ele><time>2026-04-05T09:31:59.999Z</time></trkpt><trkpt lat="45.899655689687066" lon="12.617026843495832"><ele>12.5</ele><time>2026-04-05T09:32:00.999Z</time></trkpt><trkpt lat="45.899656031927634" lon="12.617329802368372"><ele>13.0</ele><time>2026-04-05T09:32:01.999Z</time></trkpt><trkpt lat="45.89964366102116" lon="12.617684309381064"><ele>13.0</ele><time>2026-04-05T09:32:02.999Z</time></trkpt><trkpt lat="45.8996651665319" lon="12.617977897795045"><ele>13.0</ele><time>2026-04-05T09:32:03.999Z</time></trkpt><trkpt lat="45.89966021645796" lon="12.61829590783499"><ele>13.0</ele><time>2026-04-05T09:32:04.999Z</time></trkpt><trkpt lat="45.89965709534193" lon="12.618764974094583"><ele>12.0</ele><time>2026-04-05T09:32:05.999Z</time></trkpt><trkpt lat="45.89965673641579" lon="12.619131356823678"><ele>11.0</ele><time>2026-04-05T09:32:06.999Z</time></trkpt><trkpt lat="45.89965684086325" lon="12.619509809222093"><ele>11.0</ele><time>2026-04-05T09:32:07.999Z</time></trkpt><trkpt lat="45.89965740093798" lon="12.619818791728436"><ele>11.0</ele><time>2026-04-05T09:32:08.999Z</time></trkpt><trkpt lat="45.89965740093701" lon="12.62014967933388"><ele>11.0</ele><time>2026-04-05T09:32:09.999Z</time></trkpt><trkpt lat="45.89968475095352" lon="12.6204474637669"><ele>12.0</ele><time>2026-04-05T09:32:10.999Z</time></trkpt><trkpt lat="45.899653992388274" lon="12.620882395864259"><ele>13.0</ele><time>2026-04-05T09:32:11.999Z</time></trkpt><trkpt lat="45.89965809145108" lon="12.621239171215564"><ele>14.0</ele><time>2026-04-05T09:32:12.999Z</time></trkpt><trkpt lat="45.899685354349465" lon="12.62159161329684"><ele>15.0</ele><time>2026-04-05T09:32:13.999Z</time></trkpt><trkpt lat="45.89970611737521" lon="12.621917827907147"><ele>14.666666666666668</ele><time>2026-04-05T09:32:14.999Z</time></trkpt><trkpt lat="45.89972641631689" lon="12.622248851315309"><ele>14.333333333333334</ele><time>2026-04-05T09:32:15.999Z</time></trkpt><trkpt lat="45.8997453174789" lon="12.62255708062246"><ele>14.0</ele><time>2026-04-05T09:32:16.999Z</time></trkpt><trkpt lat="45.89976239477022" lon="12.622829785395036"><ele>13.666666666666668</ele><time>2026-04-05T09:32:17.999Z</time></trkpt><trkpt lat="45.89978083094441" lon="12.623120996038429"><ele>13.333333333333332</ele><time>2026-04-05T09:32:18.999Z</time></trkpt><trkpt lat="45.899797133825444" lon="12.623378254723349"><ele>13.0</ele><time>2026-04-05T09:32:20Z</time></trkpt><trkpt lat="45.89986730120247" lon="12.623548664834798"><ele>14.0</ele><time>2026-04-05T09:32:21Z</time></trkpt><trkpt lat="45.89989356826104" lon="12.623912234986914"><ele>15.0</ele><time>2026-04-05T09:32:22Z</time></trkpt><trkpt lat="45.89991178396819" lon="12.624283184320628"><ele>15.0</ele><time>2026-04-05T09:32:23Z</time></trkpt><trkpt lat="45.89997636139803" lon="12.624405052088752"><ele>15.0</ele><time>2026-04-05T09:32:24Z</time></trkpt><trkpt lat="45.90005551850653" lon="12.624739372102802"><ele>15.0</ele><time>2026-04-05T09:32:25Z</time></trkpt><trkpt lat="45.90016687569356" lon="12.624922644754319"><ele>14.666666666666668</ele><time>2026-04-05T09:32:26Z</time></trkpt><trkpt lat="45.90028432712825" lon="12.625147685537046"><ele>14.333333333333334</ele><time>2026-04-05T09:32:27Z</time></trkpt><trkpt lat="45.900415681423276" lon="12.625404683751194"><ele>14.0</ele><time>2026-04-05T09:32:28Z</time></trkpt><trkpt lat="45.90055215444297" lon="12.625644331679768"><ele>14.0</ele><time>2026-04-05T09:32:29Z</time></trkpt><trkpt lat="45.90064733741797" lon="12.625887460996909"><ele>14.0</ele><time>2026-04-05T09:32:30Z</time></trkpt><trkpt lat="45.900732874143884" lon="12.626141517123038"><ele>14.0</ele><time>2026-04-05T09:32:31Z</time></trkpt><trkpt lat="45.900798462833635" lon="12.62640281475802"><ele>14.0</ele><time>2026-04-05T09:32:32Z</time></trkpt><trkpt lat="45.90089313922461" lon="12.62675213598696"><ele>14.0</ele><time>2026-04-05T09:32:33Z</time></trkpt><trkpt lat="45.90094083926674" lon="12.627077567039422"><ele>13.666666666666668</ele><time>2026-04-05T09:32:34Z</time></trkpt><trkpt lat="45.90094884669102" lon="12.627370262661456"><ele>13.333333333333332</ele><time>2026-04-05T09:32:35Z</time></trkpt><trkpt lat="45.90094315411742" lon="12.627678764559274"><ele>13.0</ele><time>2026-04-05T09:32:36Z</time></trkpt><trkpt lat="45.900921731295846" lon="12.627985366724804"><ele>14.0</ele><time>2026-04-05T09:32:37Z</time></trkpt><trkpt lat="45.90089047796844" lon="12.628350136485992"><ele>15.0</ele><time>2026-04-05T09:32:38Z</time></trkpt><trkpt lat="45.90090762377839" lon="12.628758142347317"><ele>15.0</ele><time>2026-04-05T09:32:39Z</time></trkpt><trkpt lat="45.90087008687051" lon="12.629123055756326"><ele>15.0</ele><time>2026-04-05T09:32:40Z</time></trkpt><trkpt lat="45.9008677845174" lon="12.62948286825973"><ele>15.5</ele><time>2026-04-05T09:32:41Z</time></trkpt><trkpt lat="45.90089445871362" lon="12.629814843146349"><ele>16.0</ele><time>2026-04-05T09:32:42Z</time></trkpt><trkpt lat="45.90092953059119" lon="12.63013997641848"><ele>15.666666666666666</ele><time>2026-04-05T09:32:43Z</time></trkpt><trkpt lat="45.90098685751893" lon="12.630446182421618"><ele>15.333333333333332</ele><time>2026-04-05T09:32:44Z</time></trkpt><trkpt lat="45.90104244247021" lon="12.630747653942471"><ele>15.0</ele><time>2026-04-05T09:32:45Z</time></trkpt><trkpt lat="45.901085004944406" lon="12.631086152145137"><ele>15.0</ele><time>2026-04-05T09:32:46Z</time></trkpt><trkpt lat="45.90112316898242" lon="12.631422221875994"><ele>15.0</ele><time>2026-04-05T09:32:47Z</time></trkpt><trkpt lat="45.901191345669446" lon="12.631702230309063"><ele>15.0</ele><time>2026-04-05T09:32:48Z</time></trkpt><trkpt lat="45.90121863162041" lon="12.632034283606675"><ele>15.0</ele><time>2026-04-05T09:32:49Z</time></trkpt><trkpt lat="45.90127037434549" lon="12.632356700755706"><ele>15.0</ele><time>2026-04-05T09:32:50Z</time></trkpt><trkpt lat="45.90132975861993" lon="12.632668331769082"><ele>15.5</ele><time>2026-04-05T09:32:51Z</time></trkpt><trkpt lat="45.901422463532306" lon="12.632952196470445"><ele>16.0</ele><time>2026-04-05T09:32:52Z</time></trkpt><trkpt lat="45.901527472759035" lon="12.633250267312537"><ele>16.0</ele><time>2026-04-05T09:32:53Z</time></trkpt><trkpt lat="45.90167755546802" lon="12.633480455814995"><ele>16.0</ele><time>2026-04-05T09:32:54Z</time></trkpt><trkpt lat="45.90181648110068" lon="12.633779623292085"><ele>16.5</ele><time>2026-04-05T09:32:55Z</time></trkpt><trkpt lat="45.901954077455365" lon="12.634054414897317"><ele>17.0</ele><time>2026-04-05T09:32:56Z</time></trkpt><trkpt lat="45.90210390301328" lon="12.634336307029038"><ele>16.5</ele><time>2026-04-05T09:32:57Z</time></trkpt><trkpt lat="45.902239254274505" lon="12.634584444290004"><ele>16.0</ele><time>2026-04-05T09:32:58Z</time></trkpt><trkpt lat="45.902389161279736" lon="12.634916951660763"><ele>16.0</ele><time>2026-04-05T09:32:59Z</time></trkpt><trkpt lat="45.90249602531413" lon="12.63519572697254"><ele>16.0</ele><time>2026-04-05T09:33:00Z</time></trkpt><trkpt lat="45.902600087923005" lon="12.635445846580582"><ele>16.0</ele><time>2026-04-05T09:33:01Z</time></trkpt><trkpt lat="45.90268963371761" lon="12.635677464523901"><ele>16.0</ele><time>2026-04-05T09:33:02Z</time></trkpt><trkpt lat="45.90278734714167" lon="12.635909195235934"><ele>16.0</ele><time>2026-04-05T09:33:03Z</time></trkpt><trkpt lat="45.90287656501693" lon="12.636148798195348"><ele>16.0</ele><time>2026-04-05T09:33:04Z</time></trkpt><trkpt lat="45.90294305638724" lon="12.63639290176817"><ele>16.0</ele><time>2026-04-05T09:33:05Z</time></trkpt><trkpt lat="45.90301859615781" lon="12.636633565994472"><ele>16.0</ele><time>2026-04-05T09:33:06Z</time></trkpt><trkpt lat="45.903084079029554" lon="12.636882564447253"><ele>16.0</ele><time>2026-04-05T09:33:07Z</time></trkpt><trkpt lat="45.90312583982961" lon="12.637145455522756"><ele>16.0</ele><time>2026-04-05T09:33:08Z</time></trkpt><trkpt lat="45.90316310725079" lon="12.637435212912047"><ele>16.0</ele><time>2026-04-05T09:33:09Z</time></trkpt><trkpt lat="45.903177075761704" lon="12.637707181186757"><ele>16.0</ele><time>2026-04-05T09:33:10Z</time></trkpt><trkpt lat="45.903162414767095" lon="12.637945814088033"><ele>16.0</ele><time>2026-04-05T09:33:11Z</time></trkpt><trkpt lat="45.90313171960511" lon="12.63816697557216"><ele>16.0</ele><time>2026-04-05T09:33:12Z</time></trkpt><trkpt lat="45.90311839073241" lon="12.638434228928727"><ele>16.0</ele><time>2026-04-05T09:33:13Z</time></trkpt><trkpt lat="45.903097581018464" lon="12.63870893080128"><ele>15.666666666666666</ele><time>2026-04-05T09:33:14Z</time></trkpt><trkpt lat="45.9030748037149" lon="12.639019895347026"><ele>15.333333333333332</ele><time>2026-04-05T09:33:15Z</time></trkpt><trkpt lat="45.90304677552079" lon="12.639279820669252"><ele>15.0</ele><time>2026-04-05T09:33:16Z</time></trkpt><trkpt lat="45.903010947379016" lon="12.639559361966391"><ele>15.0</ele><time>2026-04-05T09:33:17Z</time></trkpt><trkpt lat="45.90296773069531" lon="12.63982700847143"><ele>15.0</ele><time>2026-04-05T09:33:18Z</time></trkpt><trkpt lat="45.902902827250635" lon="12.640078037434447"><ele>15.0</ele><time>2026-04-05T09:33:19Z</time></trkpt><trkpt lat="45.90281868382118" lon="12.640319644336188"><ele>15.0</ele><time>2026-04-05T09:33:20Z</time></trkpt><trkpt lat="45.90272277560109" lon="12.64055490195785"><ele>15.0</ele><time>2026-04-05T09:33:21Z</time></trkpt><trkpt lat="45.902628983506844" lon="12.64077968505107"><ele>15.0</ele><time>2026-04-05T09:33:22Z</time></trkpt><trkpt lat="45.90255020494201" lon="12.640954549975653"><ele>14.75</ele><time>2026-04-05T09:33:23Z</time></trkpt><trkpt lat="45.90246925910861" lon="12.641150864865434"><ele>14.5</ele><time>2026-04-05T09:33:24Z</time></trkpt><trkpt lat="45.90238373871811" lon="12.641301247124794"><ele>14.25</ele><time>2026-04-05T09:33:25Z</time></trkpt><trkpt lat="45.902293112304314" lon="12.64147321931274"><ele>14.0</ele><time>2026-04-05T09:33:26Z</time></trkpt><trkpt lat="45.90208633548055" lon="12.641811674894798"><ele>14.0</ele><time>2026-04-05T09:33:27Z</time></trkpt><trkpt lat="45.90193596713423" lon="12.641984150748746"><ele>14.0</ele><time>2026-04-05T09:33:29Z</time></trkpt><trkpt lat="45.90184728769775" lon="12.642158945815883"><ele>14.0</ele><time>2026-04-05T09:33:30Z</time></trkpt><trkpt lat="45.90166998908541" lon="12.642470292149643"><ele>14.0</ele><time>2026-04-05T09:33:31Z</time></trkpt><trkpt lat="45.90154364013678" lon="12.642727795092298"><ele>14.0</ele><time>2026-04-05T09:33:32Z</time></trkpt><trkpt lat="45.90146344953783" lon="12.642955908244817"><ele>14.0</ele><time>2026-04-05T09:33:33Z</time></trkpt><trkpt lat="45.90140469092089" lon="12.64319624959661"><ele>14.0</ele><time>2026-04-05T09:33:34Z</time></trkpt><trkpt lat="45.90131741822682" lon="12.643459126157614"><ele>14.0</ele><time>2026-04-05T09:33:34.999Z</time></trkpt><trkpt lat="45.90121701881042" lon="12.643738273050088"><ele>14.0</ele><time>2026-04-05T09:33:35.999Z</time></trkpt><trkpt lat="45.90113633280943" lon="12.644012346202222"><ele>14.0</ele><time>2026-04-05T09:33:36.999Z</time></trkpt><trkpt lat="45.90108731617073" lon="12.644319753109523"><ele>14.0</ele><time>2026-04-05T09:33:37.999Z</time></trkpt><trkpt lat="45.900981244491255" lon="12.644631543102332"><ele>14.5</ele><time>2026-04-05T09:33:38.999Z</time></trkpt><trkpt lat="45.90094900482736" lon="12.644965739697637"><ele>15.0</ele><time>2026-04-05T09:33:39.999Z</time></trkpt><trkpt lat="45.90089930263396" lon="12.645279132181535"><ele>15.0</ele><time>2026-04-05T09:33:40.999Z</time></trkpt><trkpt lat="45.900876291831416" lon="12.645647987770625"><ele>15.0</ele><time>2026-04-05T09:33:41.999Z</time></trkpt><trkpt lat="45.90073271099734" lon="12.645876008496026"><ele>15.0</ele><time>2026-04-05T09:33:42.999Z</time></trkpt><trkpt lat="45.90067230781869" lon="12.646170578360822"><ele>15.0</ele><time>2026-04-05T09:33:43.999Z</time></trkpt><trkpt lat="45.90062925743231" lon="12.646515648768387"><ele>15.0</ele><time>2026-04-05T09:33:44.999Z</time></trkpt><trkpt lat="45.90056222510659" lon="12.646778172195194"><ele>15.0</ele><time>2026-04-05T09:33:45.999Z</time></trkpt><trkpt lat="45.90062470143326" lon="12.647132044635185"><ele>15.0</ele><time>2026-04-05T09:33:46.999Z</time></trkpt><trkpt lat="45.89996384212642" lon="12.647296165701201"><ele>15.0</ele><time>2026-04-05T09:33:47.999Z</time></trkpt><trkpt lat="45.89983867013713" lon="12.647517020401326"><ele>15.0</ele><time>2026-04-05T09:33:48.999Z</time></trkpt><trkpt lat="45.89980213629536" lon="12.647731751711575"><ele>15.0</ele><time>2026-04-05T09:33:49.999Z</time></trkpt><trkpt lat="45.8997317417923" lon="12.647972656601262"><ele>15.0</ele><time>2026-04-05T09:33:50.999Z</time></trkpt><trkpt lat="45.8996930857351" lon="12.648200441933277"><ele>15.0</ele><time>2026-04-05T09:33:51.999Z</time></trkpt><trkpt lat="45.89966649753017" lon="12.648441908820764"><ele>15.0</ele><time>2026-04-05T09:33:52.999Z</time></trkpt><trkpt lat="45.89966042212544" lon="12.648692647629222"><ele>15.0</ele><time>2026-04-05T09:33:53.999Z</time></trkpt><trkpt lat="45.89966965956459" lon="12.648960242360387"><ele>15.0</ele><time>2026-04-05T09:33:54.999Z</time></trkpt><trkpt lat="45.89967632402964" lon="12.649245525333805"><ele>15.0</ele><time>2026-04-05T09:33:55.999Z</time></trkpt><trkpt lat="45.89967441690088" lon="12.649537684690468"><ele>15.333333333333332</ele><time>2026-04-05T09:33:56.999Z</time></trkpt><trkpt lat="45.899676520316405" lon="12.649833434651704"><ele>15.666666666666666</ele><time>2026-04-05T09:33:57.999Z</time></trkpt><trkpt lat="45.89967881369668" lon="12.650136320374022"><ele>16.0</ele><time>2026-04-05T09:33:58.999Z</time></trkpt><trkpt lat="45.89968174944625" lon="12.650453579301667"><ele>16.5</ele><time>2026-04-05T09:33:59.999Z</time></trkpt><trkpt lat="45.899692437076666" lon="12.650787594407868"><ele>17.0</ele><time>2026-04-05T09:34:00.999Z</time></trkpt><trkpt lat="45.899714516978754" lon="12.651117080603862"><ele>16.5</ele><time>2026-04-05T09:34:01.999Z</time></trkpt><trkpt lat="45.89972609101335" lon="12.651445825921478"><ele>16.0</ele><time>2026-04-05T09:34:02.999Z</time></trkpt><trkpt lat="45.899728857496676" lon="12.651795168899884"><ele>15.0</ele><time>2026-04-05T09:34:03.999Z</time></trkpt><trkpt lat="45.899728243933055" lon="12.652140271327658"><ele>14.0</ele><time>2026-04-05T09:34:04.999Z</time></trkpt><trkpt lat="45.89974337778672" lon="12.652489111249793"><ele>14.5</ele><time>2026-04-05T09:34:05.999Z</time></trkpt><trkpt lat="45.899754669935064" lon="12.652831071452935"><ele>15.0</ele><time>2026-04-05T09:34:06.999Z</time></trkpt><trkpt lat="45.89975866015658" lon="12.653168456544442"><ele>15.0</ele><time>2026-04-05T09:34:07.999Z</time></trkpt><trkpt lat="45.89975407415508" lon="12.653505498898626"><ele>15.0</ele><time>2026-04-05T09:34:08.999Z</time></trkpt><trkpt lat="45.89973922925018" lon="12.653858562625203"><ele>15.0</ele><time>2026-04-05T09:34:09.999Z</time></trkpt><trkpt lat="45.89969697785157" lon="12.654209221301015"><ele>15.0</ele><time>2026-04-05T09:34:10.999Z</time></trkpt><trkpt lat="45.899641275032714" lon="12.654563876001312"><ele>15.0</ele><time>2026-04-05T09:34:11.999Z</time></trkpt><trkpt lat="45.89957927266957" lon="12.654915241762618"><ele>15.0</ele><time>2026-04-05T09:34:12.999Z</time></trkpt><trkpt lat="45.899500829767405" lon="12.655262244416646"><ele>14.5</ele><time>2026-04-05T09:34:13.999Z</time></trkpt><trkpt lat="45.899399070584664" lon="12.65560165211542"><ele>14.0</ele><time>2026-04-05T09:34:14.999Z</time></trkpt><trkpt lat="45.89928772562713" lon="12.65589417212863"><ele>13.5</ele><time>2026-04-05T09:34:15.999Z</time></trkpt><trkpt lat="45.89913824261674" lon="12.656196689148953"><ele>13.0</ele><time>2026-04-05T09:34:16.999Z</time></trkpt><trkpt lat="45.89898273969299" lon="12.656480813448004"><ele>13.0</ele><time>2026-04-05T09:34:17.999Z</time></trkpt><trkpt lat="45.898809873535434" lon="12.656810302148953"><ele>13.0</ele><time>2026-04-05T09:34:18.999Z</time></trkpt><trkpt lat="45.89866962580418" lon="12.657038430231633"><ele>13.5</ele><time>2026-04-05T09:34:19.999Z</time></trkpt><trkpt lat="45.89853036125164" lon="12.657286631536321"><ele>14.0</ele><time>2026-04-05T09:34:20.999Z</time></trkpt><trkpt lat="45.8983573226069" lon="12.657591303630717"><ele>14.333333333333334</ele><time>2026-04-05T09:34:21.999Z</time></trkpt><trkpt lat="45.89819877167102" lon="12.657869856005409"><ele>14.666666666666668</ele><time>2026-04-05T09:34:22.999Z</time></trkpt><trkpt lat="45.89809444784576" lon="12.658053138648468"><ele>15.0</ele><time>2026-04-05T09:34:23.999Z</time></trkpt><trkpt lat="45.89791665880108" lon="12.658365489592367"><ele>15.0</ele><time>2026-04-05T09:34:24.999Z</time></trkpt><trkpt lat="45.89775961704639" lon="12.658626829718706"><ele>15.0</ele><time>2026-04-05T09:34:26Z</time></trkpt><trkpt lat="45.8975799999606" lon="12.65885922760307"><ele>15.0</ele><time>2026-04-05T09:34:27Z</time></trkpt><trkpt lat="45.89739182794343" lon="12.659024161917465"><ele>15.0</ele><time>2026-04-05T09:34:28Z</time></trkpt><trkpt lat="45.89718711933264" lon="12.65916837818025"><ele>15.0</ele><time>2026-04-05T09:34:29Z</time></trkpt><trkpt lat="45.89696137845296" lon="12.659320477865643"><ele>15.0</ele><time>2026-04-05T09:34:30Z</time></trkpt><trkpt lat="45.89674572114792" lon="12.659465783345906"><ele>15.0</ele><time>2026-04-05T09:34:31Z</time></trkpt><trkpt lat="45.89654201646596" lon="12.659603035483798"><ele>15.0</ele><time>2026-04-05T09:34:32Z</time></trkpt><trkpt lat="45.89635377170338" lon="12.659729870983107"><ele>15.0</ele><time>2026-04-05T09:34:33Z</time></trkpt><trkpt lat="45.89613627274812" lon="12.659879379823684"><ele>15.0</ele><time>2026-04-05T09:34:34Z</time></trkpt><trkpt lat="45.89593293861603" lon="12.660040371482696"><ele>15.0</ele><time>2026-04-05T09:34:35Z</time></trkpt><trkpt lat="45.89575667967531" lon="12.660182826599163"><ele>15.0</ele><time>2026-04-05T09:34:36Z</time></trkpt><trkpt lat="45.895601816209236" lon="12.66036684675421"><ele>15.0</ele><time>2026-04-05T09:34:37Z</time></trkpt><trkpt lat="45.895421477576846" lon="12.660629156987694"><ele>15.0</ele><time>2026-04-05T09:34:38Z</time></trkpt><trkpt lat="45.89523121293997" lon="12.660872013625836"><ele>15.0</ele><time>2026-04-05T09:34:39Z</time></trkpt><trkpt lat="45.89507799957342" lon="12.661103551791872"><ele>14.333333333333332</ele><time>2026-04-05T09:34:40Z</time></trkpt><trkpt lat="45.89492316892633" lon="12.661338243840307"><ele>13.666666666666666</ele><time>2026-04-05T09:34:41Z</time></trkpt><trkpt lat="45.89478280245207" lon="12.661587288855822"><ele>13.0</ele><time>2026-04-05T09:34:42Z</time></trkpt><trkpt lat="45.89466434433528" lon="12.661862479087945"><ele>13.333333333333332</ele><time>2026-04-05T09:34:43Z</time></trkpt><trkpt lat="45.89458022933467" lon="12.66217219175329"><ele>13.666666666666668</ele><time>2026-04-05T09:34:44Z</time></trkpt><trkpt lat="45.89450505298194" lon="12.662464505747101"><ele>14.0</ele><time>2026-04-05T09:34:45Z</time></trkpt><trkpt lat="45.894458544043054" lon="12.662798915002718"><ele>14.0</ele><time>2026-04-05T09:34:46Z</time></trkpt><trkpt lat="45.89441268695474" lon="12.663092479917445"><ele>14.0</ele><time>2026-04-05T09:34:47Z</time></trkpt><trkpt lat="45.89437583015159" lon="12.6633996992478"><ele>14.0</ele><time>2026-04-05T09:34:48Z</time></trkpt><trkpt lat="45.894315106455686" lon="12.663668436211383"><ele>14.0</ele><time>2026-04-05T09:34:49Z</time></trkpt><trkpt lat="45.894265108508854" lon="12.66396980559987"><ele>14.0</ele><time>2026-04-05T09:34:50Z</time></trkpt><trkpt lat="45.89422323366195" lon="12.664278428167265"><ele>14.0</ele><time>2026-04-05T09:34:51Z</time></trkpt><trkpt lat="45.89413674135488" lon="12.664619261997307"><ele>14.0</ele><time>2026-04-05T09:34:52Z</time></trkpt><trkpt lat="45.89409503475293" lon="12.664903950252285"><ele>14.0</ele><time>2026-04-05T09:34:53Z</time></trkpt><trkpt lat="45.894042848801696" lon="12.665188679670434"><ele>14.0</ele><time>2026-04-05T09:34:54Z</time></trkpt><trkpt lat="45.894031934140386" lon="12.665368840649393"><ele>13.666666666666668</ele><time>2026-04-05T09:34:55Z</time></trkpt><trkpt lat="45.89398393053933" lon="12.665655098393598"><ele>13.333333333333332</ele><time>2026-04-05T09:34:56Z</time></trkpt><trkpt lat="45.89393832080472" lon="12.665927066753644"><ele>13.0</ele><time>2026-04-05T09:34:57Z</time></trkpt><trkpt lat="45.89389163223136" lon="12.66620546267278"><ele>13.0</ele><time>2026-04-05T09:34:58Z</time></trkpt><trkpt lat="45.89386067263974" lon="12.666483687485796"><ele>13.0</ele><time>2026-04-05T09:34:59Z</time></trkpt><trkpt lat="45.893796249477205" lon="12.666727590414474"><ele>13.0</ele><time>2026-04-05T09:35:00Z</time></trkpt><trkpt lat="45.8937265553266" lon="12.666951388819042"><ele>12.666666666666666</ele><time>2026-04-05T09:35:01Z</time></trkpt><trkpt lat="45.89365463185037" lon="12.667181178760824"><ele>12.333333333333332</ele><time>2026-04-05T09:35:02Z</time></trkpt><trkpt lat="45.89357766142243" lon="12.667528244810224"><ele>12.0</ele><time>2026-04-05T09:35:03Z</time></trkpt><trkpt lat="45.89350414012574" lon="12.667707543086536"><ele>12.0</ele><time>2026-04-05T09:35:04Z</time></trkpt><trkpt lat="45.893437201456564" lon="12.667918723201232"><ele>12.0</ele><time>2026-04-05T09:35:05Z</time></trkpt><trkpt lat="45.893374603316914" lon="12.668129474450513"><ele>12.0</ele><time>2026-04-05T09:35:06Z</time></trkpt><trkpt lat="45.89331411244899" lon="12.66832466037653"><ele>12.25</ele><time>2026-04-05T09:35:07Z</time></trkpt><trkpt lat="45.89322434247317" lon="12.668430954622456"><ele>12.5</ele><time>2026-04-05T09:35:08Z</time></trkpt><trkpt lat="45.89317060600616" lon="12.668608255359503"><ele>12.75</ele><time>2026-04-05T09:35:09Z</time></trkpt><trkpt lat="45.89304228641074" lon="12.668746334914497"><ele>13.0</ele><time>2026-04-05T09:35:10Z</time></trkpt><trkpt lat="45.89299916892479" lon="12.66884644456646"><ele>13.0</ele><time>2026-04-05T09:35:12Z</time></trkpt><trkpt lat="45.893056598975605" lon="12.66876478617038"><ele>13.0</ele><time>2026-04-05T09:35:13Z</time></trkpt><trkpt lat="45.892978575123145" lon="12.668809632202684"><ele>13.0</ele><time>2026-04-05T09:35:14Z</time></trkpt><trkpt lat="45.892933193244204" lon="12.669024955913514"><ele>13.0</ele><time>2026-04-05T09:35:15Z</time></trkpt><trkpt lat="45.89280782626909" lon="12.669226625808701"><ele>13.0</ele><time>2026-04-05T09:35:16Z</time></trkpt><trkpt lat="45.89267922990452" lon="12.669423820078512"><ele>13.0</ele><time>2026-04-05T09:35:17Z</time></trkpt><trkpt lat="45.892525574766026" lon="12.669608968249108"><ele>13.0</ele><time>2026-04-05T09:35:18Z</time></trkpt><trkpt lat="45.8923423099184" lon="12.669810526388773"><ele>13.0</ele><time>2026-04-05T09:35:19Z</time></trkpt><trkpt lat="45.892186219356496" lon="12.669998467134556"><ele>13.0</ele><time>2026-04-05T09:35:20Z</time></trkpt><trkpt lat="45.89202196014976" lon="12.67020070186823"><ele>13.0</ele><time>2026-04-05T09:35:21Z</time></trkpt><trkpt lat="45.891865099242956" lon="12.670384322669522"><ele>14.0</ele><time>2026-04-05T09:35:22Z</time></trkpt><trkpt lat="45.891729751173635" lon="12.670555396978148"><ele>15.0</ele><time>2026-04-05T09:35:23Z</time></trkpt><trkpt lat="45.89156488634387" lon="12.670738302684079"><ele>16.0</ele><time>2026-04-05T09:35:24Z</time></trkpt><trkpt lat="45.891443535914604" lon="12.670897181664088"><ele>16.0</ele><time>2026-04-05T09:35:25Z</time></trkpt><trkpt lat="45.89135008396411" lon="12.671053887652628"><ele>16.0</ele><time>2026-04-05T09:35:26Z</time></trkpt><trkpt lat="45.89128086568204" lon="12.671196439696564"><ele>16.0</ele><time>2026-04-05T09:35:27Z</time></trkpt><trkpt lat="45.89119155306512" lon="12.671372953889032"><ele>16.0</ele><time>2026-04-05T09:35:28Z</time></trkpt><trkpt lat="45.89116113727581" lon="12.671504297586866"><ele>15.600000000000001</ele><time>2026-04-05T09:35:29Z</time></trkpt><trkpt lat="45.89111581047324" lon="12.671642567274404"><ele>15.200000000000001</ele><time>2026-04-05T09:35:31Z</time></trkpt><trkpt lat="45.89108201002531" lon="12.671789406580382"><ele>14.799999999999999</ele><time>2026-04-05T09:35:32Z</time></trkpt><trkpt lat="45.89109338619443" lon="12.671928619619448"><ele>14.399999999999999</ele><time>2026-04-05T09:35:33Z</time></trkpt><trkpt lat="45.89108274482129" lon="12.672082015013737"><ele>14.0</ele><time>2026-04-05T09:35:34Z</time></trkpt><trkpt lat="45.891026796489186" lon="12.672248670567493"><ele>13.666666666666668</ele><time>2026-04-05T09:35:35Z</time></trkpt><trkpt lat="45.890933222096514" lon="12.672415750924342"><ele>13.333333333333332</ele><time>2026-04-05T09:35:36Z</time></trkpt><trkpt lat="45.89085250804035" lon="12.672596071810803"><ele>13.0</ele><time>2026-04-05T09:35:37Z</time></trkpt><trkpt lat="45.890493686245065" lon="12.672782059015887"><ele>12.0</ele><time>2026-04-05T09:35:38Z</time></trkpt><trkpt lat="45.8901975137348" lon="12.673022401850009"><ele>11.0</ele><time>2026-04-05T09:35:39Z</time></trkpt><trkpt lat="45.890156087919785" lon="12.673229844576277"><ele>11.0</ele><time>2026-04-05T09:35:40Z</time></trkpt><trkpt lat="45.89078464627822" lon="12.673511544741585"><ele>11.0</ele><time>2026-04-05T09:35:41Z</time></trkpt><trkpt lat="45.890869974525344" lon="12.673793713571538"><ele>11.0</ele><time>2026-04-05T09:35:42Z</time></trkpt><trkpt lat="45.89089133218484" lon="12.674078007627537"><ele>11.0</ele><time>2026-04-05T09:35:43Z</time></trkpt><trkpt lat="45.89095792228044" lon="12.67425909054689"><ele>11.333333333333332</ele><time>2026-04-05T09:35:44Z</time></trkpt><trkpt lat="45.890977126195445" lon="12.674453688047866"><ele>11.666666666666666</ele><time>2026-04-05T09:35:45Z</time></trkpt><trkpt lat="45.890994010248825" lon="12.674704222412554"><ele>12.0</ele><time>2026-04-05T09:35:46Z</time></trkpt><trkpt lat="45.89095137258554" lon="12.67497902080424"><ele>12.0</ele><time>2026-04-05T09:35:47Z</time></trkpt><trkpt lat="45.890991759524056" lon="12.675212257073037"><ele>12.0</ele><time>2026-04-05T09:35:48Z</time></trkpt><trkpt lat="45.89100123574994" lon="12.675418216278878"><ele>12.0</ele><time>2026-04-05T09:35:49Z</time></trkpt><trkpt lat="45.891049496624326" lon="12.675519223992566"><ele>12.0</ele><time>2026-04-05T09:35:50Z</time></trkpt><trkpt lat="45.891025736694424" lon="12.675667165116334"><ele>11.8</ele><time>2026-04-05T09:35:53Z</time></trkpt><trkpt lat="45.89102479592918" lon="12.67580345783471"><ele>11.6</ele><time>2026-04-05T09:35:54Z</time></trkpt><trkpt lat="45.891027368718674" lon="12.675959440221467"><ele>11.4</ele><time>2026-04-05T09:35:55Z</time></trkpt><trkpt lat="45.89100094933538" lon="12.676076521365918"><ele>11.200000000000001</ele><time>2026-04-05T09:35:56Z</time></trkpt><trkpt lat="45.890975466058315" lon="12.676219982213645"><ele>11.0</ele><time>2026-04-05T09:35:57Z</time></trkpt><trkpt lat="45.89093650224792" lon="12.67641755341499"><ele>10.5</ele><time>2026-04-05T09:36:01Z</time></trkpt><trkpt lat="45.8909359414114" lon="12.676542324338078"><ele>10.0</ele><time>2026-04-05T09:36:02Z</time></trkpt><trkpt lat="45.89086782691534" lon="12.67669468642558"><ele>9.5</ele><time>2026-04-05T09:36:03Z</time></trkpt><trkpt lat="45.89086123843782" lon="12.676927973167507"><ele>9.0</ele><time>2026-04-05T09:36:04Z</time></trkpt><trkpt lat="45.89083959922122" lon="12.67707848475162"><ele>8.666666666666666</ele><time>2026-04-05T09:36:05Z</time></trkpt><trkpt lat="45.890704847604646" lon="12.677389576059557"><ele>8.333333333333332</ele><time>2026-04-05T09:36:06Z</time></trkpt><trkpt lat="45.89069962380214" lon="12.677603132242872"><ele>8.0</ele><time>2026-04-05T09:36:07Z</time></trkpt><trkpt lat="45.89066320582666" lon="12.677777775815477"><ele>9.0</ele><time>2026-04-05T09:36:08Z</time></trkpt><trkpt lat="45.89058439065857" lon="12.678140767604697"><ele>10.0</ele><time>2026-04-05T09:36:09Z</time></trkpt><trkpt lat="45.890268147944454" lon="12.67849413113208"><ele>11.0</ele><time>2026-04-05T09:36:10Z</time></trkpt><trkpt lat="45.88982684808873" lon="12.678960185171363"><ele>12.0</ele><time>2026-04-05T09:36:11Z</time></trkpt><trkpt lat="45.8896252071506" lon="12.679533480023343"><ele>13.0</ele><time>2026-04-05T09:36:12Z</time></trkpt><trkpt lat="45.889473147216165" lon="12.67996589649268"><ele>13.0</ele><time>2026-04-05T09:36:13Z</time></trkpt><trkpt lat="45.88937073643019" lon="12.680260832896568"><ele>13.0</ele><time>2026-04-05T09:36:13.999Z</time></trkpt><trkpt lat="45.889272678678644" lon="12.680542846309967"><ele>13.0</ele><time>2026-04-05T09:36:14.999Z</time></trkpt><trkpt lat="45.88916017329681" lon="12.68086947974068"><ele>14.0</ele><time>2026-04-05T09:36:15.999Z</time></trkpt><trkpt lat="45.88906100371395" lon="12.681160048854617"><ele>15.0</ele><time>2026-04-05T09:36:16.999Z</time></trkpt><trkpt lat="45.88907607012229" lon="12.681681816431384"><ele>15.0</ele><time>2026-04-05T09:36:17.999Z</time></trkpt><trkpt lat="45.889010561920074" lon="12.681849426541866"><ele>15.0</ele><time>2026-04-05T09:36:18.999Z</time></trkpt><trkpt lat="45.888891700086006" lon="12.68202874326659"><ele>15.0</ele><time>2026-04-05T09:36:19.999Z</time></trkpt><trkpt lat="45.88887375452834" lon="12.682436922605282"><ele>15.0</ele><time>2026-04-05T09:36:20.999Z</time></trkpt><trkpt lat="45.88864921642814" lon="12.682615811892758"><ele>15.0</ele><time>2026-04-05T09:36:21.999Z</time></trkpt><trkpt lat="45.8886086538622" lon="12.682815522411877"><ele>15.0</ele><time>2026-04-05T09:36:22.999Z</time></trkpt><trkpt lat="45.88854845625518" lon="12.683042305732126"><ele>15.0</ele><time>2026-04-05T09:36:23.999Z</time></trkpt><trkpt lat="45.88849315292469" lon="12.683310595930088"><ele>15.0</ele><time>2026-04-05T09:36:24.999Z</time></trkpt><trkpt lat="45.88839030896879" lon="12.68357601338118"><ele>15.0</ele><time>2026-04-05T09:36:25.999Z</time></trkpt><trkpt lat="45.888342526906044" lon="12.683843258161751"><ele>14.666666666666668</ele><time>2026-04-05T09:36:26.999Z</time></trkpt><trkpt lat="45.88829328166817" lon="12.684090613709191"><ele>14.333333333333334</ele><time>2026-04-05T09:36:27.999Z</time></trkpt><trkpt lat="45.88825398782247" lon="12.684287984113986"><ele>14.0</ele><time>2026-04-05T09:36:28.999Z</time></trkpt><trkpt lat="45.88820398191399" lon="12.684539159148894"><ele>14.0</ele><time>2026-04-05T09:36:29.999Z</time></trkpt><trkpt lat="45.888163091070496" lon="12.684742635243705"><ele>14.0</ele><time>2026-04-05T09:36:32Z</time></trkpt><trkpt lat="45.888102382312745" lon="12.685045270315209"><ele>14.0</ele><time>2026-04-05T09:36:33Z</time></trkpt><trkpt lat="45.888046923963486" lon="12.68532173271095"><ele>14.0</ele><time>2026-04-05T09:36:34Z</time></trkpt><trkpt lat="45.888028916997676" lon="12.68571364547577"><ele>14.0</ele><time>2026-04-05T09:36:35Z</time></trkpt><trkpt lat="45.88796539854058" lon="12.686035327282603"><ele>14.0</ele><time>2026-04-05T09:36:36Z</time></trkpt><trkpt lat="45.88790311583425" lon="12.686340956258126"><ele>14.0</ele><time>2026-04-05T09:36:37Z</time></trkpt><trkpt lat="45.88777716575168" lon="12.686665625985714"><ele>14.333333333333334</ele><time>2026-04-05T09:36:38Z</time></trkpt><trkpt lat="45.88771449334829" lon="12.686952211824739"><ele>14.666666666666668</ele><time>2026-04-05T09:36:39Z</time></trkpt><trkpt lat="45.88774739502127" lon="12.68718198422242"><ele>15.0</ele><time>2026-04-05T09:36:40Z</time></trkpt><trkpt lat="45.88768801719907" lon="12.68748826136329"><ele>14.0</ele><time>2026-04-05T09:36:41Z</time></trkpt><trkpt lat="45.88758722279778" lon="12.687923918518978"><ele>13.0</ele><time>2026-04-05T09:36:42Z</time></trkpt><trkpt lat="45.88752358480367" lon="12.688243082237165"><ele>13.0</ele><time>2026-04-05T09:36:43Z</time></trkpt><trkpt lat="45.88747909289867" lon="12.6884662222658"><ele>13.0</ele><time>2026-04-05T09:36:44Z</time></trkpt><trkpt lat="45.88744836870291" lon="12.688620313298795"><ele>13.0</ele><time>2026-04-05T09:36:45Z</time></trkpt><trkpt lat="45.88739072374119" lon="12.688909420183538"><ele>13.5</ele><time>2026-04-05T09:36:46Z</time></trkpt><trkpt lat="45.887344149092286" lon="12.689143005924764"><ele>14.0</ele><time>2026-04-05T09:36:47Z</time></trkpt><trkpt lat="45.88731143273985" lon="12.68930900490418"><ele>14.5</ele><time>2026-04-05T09:36:48Z</time></trkpt><trkpt lat="45.88727544266848" lon="12.68949281281292"><ele>15.0</ele><time>2026-04-05T09:36:49Z</time></trkpt><trkpt lat="45.88724143774738" lon="12.689665796599774"><ele>15.25</ele><time>2026-04-05T09:36:50Z</time></trkpt><trkpt lat="45.88720946962011" lon="12.689828466321538"><ele>15.5</ele><time>2026-04-05T09:36:51Z</time></trkpt><trkpt lat="45.88719125782793" lon="12.690005249813305"><ele>15.75</ele><time>2026-04-05T09:36:52Z</time></trkpt><trkpt lat="45.88714934070109" lon="12.690154361103062"><ele>16.0</ele><time>2026-04-05T09:36:53Z</time></trkpt><trkpt lat="45.88711218559932" lon="12.690285299923943"><ele>15.5</ele><time>2026-04-05T09:36:54Z</time></trkpt><trkpt lat="45.88708924038461" lon="12.690426180739047"><ele>15.0</ele><time>2026-04-05T09:36:55Z</time></trkpt><trkpt lat="45.88706882068549" lon="12.690576229579738"><ele>14.5</ele><time>2026-04-05T09:36:56Z</time></trkpt><trkpt lat="45.88704043215474" lon="12.690738976886763"><ele>14.0</ele><time>2026-04-05T09:36:57Z</time></trkpt><trkpt lat="45.88700457088217" lon="12.690930466406758"><ele>14.0</ele><time>2026-04-05T09:36:58Z</time></trkpt><trkpt lat="45.88696166684774" lon="12.691153472003107"><ele>14.0</ele><time>2026-04-05T09:36:59Z</time></trkpt><trkpt lat="45.88690588628457" lon="12.691417499903045"><ele>14.0</ele><time>2026-04-05T09:37:00Z</time></trkpt><trkpt lat="45.88685322958489" lon="12.691676055676059"><ele>14.0</ele><time>2026-04-05T09:37:01Z</time></trkpt><trkpt lat="45.886792150245455" lon="12.69196324488828"><ele>14.0</ele><time>2026-04-05T09:37:02Z</time></trkpt><trkpt lat="45.88673036375474" lon="12.692266251558191"><ele>14.0</ele><time>2026-04-05T09:37:03Z</time></trkpt><trkpt lat="45.886664973304434" lon="12.692574846799015"><ele>13.333333333333334</ele><time>2026-04-05T09:37:04Z</time></trkpt><trkpt lat="45.886602720016285" lon="12.69288572760694"><ele>12.666666666666668</ele><time>2026-04-05T09:37:05Z</time></trkpt><trkpt lat="45.886558811107356" lon="12.693163187151608"><ele>12.0</ele><time>2026-04-05T09:37:06Z</time></trkpt><trkpt lat="45.88649904177792" lon="12.693439833634772"><ele>12.333333333333332</ele><time>2026-04-05T09:37:07Z</time></trkpt><trkpt lat="45.88644940490273" lon="12.693723226603435"><ele>12.666666666666666</ele><time>2026-04-05T09:37:08Z</time></trkpt><trkpt lat="45.88638014379845" lon="12.69399500650928"><ele>13.0</ele><time>2026-04-05T09:37:09Z</time></trkpt><trkpt lat="45.886331029910075" lon="12.694283742853647"><ele>13.666666666666666</ele><time>2026-04-05T09:37:10Z</time></trkpt><trkpt lat="45.88627255043436" lon="12.694554955233686"><ele>14.333333333333332</ele><time>2026-04-05T09:37:11Z</time></trkpt><trkpt lat="45.88620788851332" lon="12.694835492957015"><ele>15.0</ele><time>2026-04-05T09:37:12Z</time></trkpt><trkpt lat="45.88615809697795" lon="12.69513009025456"><ele>15.0</ele><time>2026-04-05T09:37:13Z</time></trkpt><trkpt lat="45.886096844983506" lon="12.695438654037643"><ele>15.0</ele><time>2026-04-05T09:37:14Z</time></trkpt><trkpt lat="45.88603334661036" lon="12.69573266274545"><ele>15.0</ele><time>2026-04-05T09:37:15Z</time></trkpt><trkpt lat="45.885976181558824" lon="12.696041950659968"><ele>15.333333333333332</ele><time>2026-04-05T09:37:16Z</time></trkpt><trkpt lat="45.885918360097186" lon="12.696344361159401"><ele>15.666666666666666</ele><time>2026-04-05T09:37:17Z</time></trkpt><trkpt lat="45.88586347597924" lon="12.696649198865186"><ele>16.0</ele><time>2026-04-05T09:37:18Z</time></trkpt><trkpt lat="45.885796100593524" lon="12.696934010264998"><ele>16.0</ele><time>2026-04-05T09:37:19Z</time></trkpt><trkpt lat="45.88575169770789" lon="12.697226027679937"><ele>16.0</ele><time>2026-04-05T09:37:20Z</time></trkpt><trkpt lat="45.88568869944321" lon="12.697534063229774"><ele>16.0</ele><time>2026-04-05T09:37:21Z</time></trkpt><trkpt lat="45.88563705925513" lon="12.697811725759744"><ele>16.0</ele><time>2026-04-05T09:37:22Z</time></trkpt><trkpt lat="45.88557916520754" lon="12.69807501405154"><ele>16.0</ele><time>2026-04-05T09:37:23Z</time></trkpt><trkpt lat="45.88551721275345" lon="12.698336473743302"><ele>16.0</ele><time>2026-04-05T09:37:24Z</time></trkpt><trkpt lat="45.88546412153197" lon="12.698606156920611"><ele>16.0</ele><time>2026-04-05T09:37:25Z</time></trkpt><trkpt lat="45.88541015741032" lon="12.698871342712792"><ele>16.0</ele><time>2026-04-05T09:37:26Z</time></trkpt><trkpt lat="45.88535162881121" lon="12.69914632403107"><ele>16.0</ele><time>2026-04-05T09:37:27Z</time></trkpt><trkpt lat="45.88529484213471" lon="12.699416350214573"><ele>15.666666666666666</ele><time>2026-04-05T09:37:28Z</time></trkpt><trkpt lat="45.8852310615282" lon="12.69970728439626"><ele>15.333333333333332</ele><time>2026-04-05T09:37:29Z</time></trkpt><trkpt lat="45.885169688829436" lon="12.699986446469385"><ele>15.0</ele><time>2026-04-05T09:37:30Z</time></trkpt><trkpt lat="45.885109909872995" lon="12.70026765373057"><ele>15.0</ele><time>2026-04-05T09:37:31Z</time></trkpt><trkpt lat="45.88505383209457" lon="12.700552180243818"><ele>15.0</ele><time>2026-04-05T09:37:32Z</time></trkpt><trkpt lat="45.884999560581036" lon="12.700831613263016"><ele>15.0</ele><time>2026-04-05T09:37:33Z</time></trkpt><trkpt lat="45.884945907312286" lon="12.701084363237102"><ele>15.0</ele><time>2026-04-05T09:37:34Z</time></trkpt><trkpt lat="45.88490043134301" lon="12.701283842280054"><ele>15.0</ele><time>2026-04-05T09:37:35Z</time></trkpt><trkpt lat="45.884855528530146" lon="12.70146035779481"><ele>15.0</ele><time>2026-04-05T09:37:36Z</time></trkpt><trkpt lat="45.884817445465" lon="12.70159711634118"><ele>15.0</ele><time>2026-04-05T09:37:37Z</time></trkpt><trkpt lat="45.88478071898259" lon="12.701721670818015"><ele>15.0</ele><time>2026-04-05T09:37:38Z</time></trkpt><trkpt lat="45.884748437231075" lon="12.701854091613892"><ele>15.0</ele><time>2026-04-05T09:37:39Z</time></trkpt><trkpt lat="45.88471566285199" lon="12.701990006300933"><ele>15.0</ele><time>2026-04-05T09:37:40Z</time></trkpt><trkpt lat="45.88467358075211" lon="12.70217414121527"><ele>15.0</ele><time>2026-04-05T09:37:41Z</time></trkpt><trkpt lat="45.884624848385904" lon="12.702364482778922"><ele>15.0</ele><time>2026-04-05T09:37:42Z</time></trkpt><trkpt lat="45.884580338832635" lon="12.702544194535804"><ele>15.0</ele><time>2026-04-05T09:37:43Z</time></trkpt><trkpt lat="45.884530233317925" lon="12.702736021814186"><ele>15.0</ele><time>2026-04-05T09:37:44Z</time></trkpt><trkpt lat="45.88448000063405" lon="12.702944413382447"><ele>15.0</ele><time>2026-04-05T09:37:45Z</time></trkpt><trkpt lat="45.88447213896655" lon="12.703172309791018"><ele>15.0</ele><time>2026-04-05T09:37:46Z</time></trkpt><trkpt lat="45.88441633280411" lon="12.703416955402021"><ele>15.0</ele><time>2026-04-05T09:37:47Z</time></trkpt><trkpt lat="45.884360746871934" lon="12.703640896010244"><ele>15.0</ele><time>2026-04-05T09:37:48Z</time></trkpt><trkpt lat="45.884306034973676" lon="12.703844080789084"><ele>14.666666666666668</ele><time>2026-04-05T09:37:49Z</time></trkpt><trkpt lat="45.884262475526604" lon="12.70406042369753"><ele>14.333333333333334</ele><time>2026-04-05T09:37:50Z</time></trkpt><trkpt lat="45.88420647624723" lon="12.704327745787209"><ele>14.0</ele><time>2026-04-05T09:37:51Z</time></trkpt><trkpt lat="45.88413964244572" lon="12.704646788320286"><ele>14.0</ele><time>2026-04-05T09:37:52Z</time></trkpt><trkpt lat="45.88407948941085" lon="12.70493556462558"><ele>14.0</ele><time>2026-04-05T09:37:53Z</time></trkpt><trkpt lat="45.88401598626021" lon="12.705240706149896"><ele>14.0</ele><time>2026-04-05T09:37:54Z</time></trkpt><trkpt lat="45.883958025325576" lon="12.70551921681603"><ele>14.0</ele><time>2026-04-05T09:37:55Z</time></trkpt><trkpt lat="45.88389250068485" lon="12.70583407219465"><ele>14.0</ele><time>2026-04-05T09:37:56Z</time></trkpt><trkpt lat="45.88382468583786" lon="12.706159932096737"><ele>14.0</ele><time>2026-04-05T09:37:57Z</time></trkpt><trkpt lat="45.8837652006625" lon="12.706445766960865"><ele>14.0</ele><time>2026-04-05T09:37:58Z</time></trkpt><trkpt lat="45.883710282755466" lon="12.706709655089199"><ele>14.0</ele><time>2026-04-05T09:37:59Z</time></trkpt><trkpt lat="45.88365675269176" lon="12.70696687435166"><ele>14.0</ele><time>2026-04-05T09:38:00Z</time></trkpt><trkpt lat="45.88370458025835" lon="12.707029044416979"><ele>14.0</ele><time>2026-04-05T09:38:01Z</time></trkpt><trkpt lat="45.883649257365725" lon="12.707294412504103"><ele>14.0</ele><time>2026-04-05T09:38:02Z</time></trkpt><trkpt lat="45.88361605526918" lon="12.707456483988992"><ele>14.0</ele><time>2026-04-05T09:38:03Z</time></trkpt><trkpt lat="45.883578726294104" lon="12.707637726821345"><ele>14.0</ele><time>2026-04-05T09:38:04Z</time></trkpt><trkpt lat="45.88354457506844" lon="12.707803141725812"><ele>14.0</ele><time>2026-04-05T09:38:05Z</time></trkpt><trkpt lat="45.88349124815099" lon="12.70806143588133"><ele>14.0</ele><time>2026-04-05T09:38:06Z</time></trkpt><trkpt lat="45.883450811086114" lon="12.70825707644597"><ele>14.0</ele><time>2026-04-05T09:38:07Z</time></trkpt><trkpt lat="45.88340608697006" lon="12.708471813402383"><ele>14.0</ele><time>2026-04-05T09:38:08Z</time></trkpt><trkpt lat="45.88346761637778" lon="12.708743994663099"><ele>14.0</ele><time>2026-04-05T09:38:09Z</time></trkpt><trkpt lat="45.88342652834386" lon="12.708970994526968"><ele>14.0</ele><time>2026-04-05T09:38:10Z</time></trkpt><trkpt lat="45.883407534301156" lon="12.709115917208194"><ele>14.0</ele><time>2026-04-05T09:38:11Z</time></trkpt><trkpt lat="45.88333547159664" lon="12.709377645478005"><ele>14.0</ele><time>2026-04-05T09:38:11.999Z</time></trkpt><trkpt lat="45.883203953127605" lon="12.709448437712897"><ele>14.0</ele><time>2026-04-05T09:38:12.999Z</time></trkpt><trkpt lat="45.883265833809176" lon="12.709842837943256"><ele>14.0</ele><time>2026-04-05T09:38:13.999Z</time></trkpt><trkpt lat="45.883156900270556" lon="12.710057768082388"><ele>14.0</ele><time>2026-04-05T09:38:14.999Z</time></trkpt><trkpt lat="45.88309466548287" lon="12.710323699241602"><ele>14.0</ele><time>2026-04-05T09:38:15.999Z</time></trkpt><trkpt lat="45.88264311607013" lon="12.710658964762958"><ele>14.0</ele><time>2026-04-05T09:38:16.999Z</time></trkpt><trkpt lat="45.882568830711605" lon="12.71085407145309"><ele>14.0</ele><time>2026-04-05T09:38:17.999Z</time></trkpt><trkpt lat="45.882488703952895" lon="12.710980991557406"><ele>14.0</ele><time>2026-04-05T09:38:19.018Z</time></trkpt><trkpt lat="45.882767007183915" lon="12.711237281858898"><ele>13.75</ele><time>2026-04-05T09:38:20.018Z</time></trkpt><trkpt lat="45.88274929680365" lon="12.71132560563086"><ele>13.5</ele><time>2026-04-05T09:38:22.999Z</time></trkpt><trkpt lat="45.882726496482185" lon="12.711438014064287"><ele>13.25</ele><time>2026-04-05T09:38:24.999Z</time></trkpt><trkpt lat="45.88269905409112" lon="12.711573308526155"><ele>13.0</ele><time>2026-04-05T09:38:25.999Z</time></trkpt><trkpt lat="45.88253312844458" lon="12.71265257176502"><ele>12.75</ele><time>2026-04-05T09:38:26.999Z</time></trkpt><trkpt lat="45.88242102178123" lon="12.712547172800777"><ele>12.5</ele><time>2026-04-05T09:38:28.999Z</time></trkpt><trkpt lat="45.88236780707151" lon="12.712612267167772"><ele>12.25</ele><time>2026-04-05T09:38:30.999Z</time></trkpt><trkpt lat="45.88217323462132" lon="12.712758306595026"><ele>12.0</ele><time>2026-04-05T09:38:32.999Z</time></trkpt><trkpt lat="45.88204971950641" lon="12.71282892585551"><ele>12.0</ele><time>2026-04-05T09:38:33.999Z</time></trkpt><trkpt lat="45.88211209615335" lon="12.713043744714312"><ele>12.0</ele><time>2026-04-05T09:38:40Z</time></trkpt><trkpt lat="45.882186694354814" lon="12.713085032442583"><ele>12.0</ele><time>2026-04-05T09:38:41Z</time></trkpt><trkpt lat="45.8821742185242" lon="12.713250883898505"><ele>12.0</ele><time>2026-04-05T09:38:42Z</time></trkpt><trkpt lat="45.88229129356403" lon="12.713285983816643"><ele>12.0</ele><time>2026-04-05T09:38:43Z</time></trkpt><trkpt lat="45.88232928920865" lon="12.713435760156496"><ele>12.0</ele><time>2026-04-05T09:38:44Z</time></trkpt><trkpt lat="45.88241249800515" lon="12.713532522542689"><ele>12.0</ele><time>2026-04-05T09:38:45Z</time></trkpt><trkpt lat="45.88248206297906" lon="12.713649080665823"><ele>12.0</ele><time>2026-04-05T09:38:46Z</time></trkpt><trkpt lat="45.88254776850539" lon="12.713808200934588"><ele>11.75</ele><time>2026-04-05T09:38:47Z</time></trkpt><trkpt lat="45.88262593857647" lon="12.713959214883609"><ele>11.5</ele><time>2026-04-05T09:38:48Z</time></trkpt><trkpt lat="45.88271554271707" lon="12.714084364030155"><ele>11.25</ele><time>2026-04-05T09:38:49Z</time></trkpt><trkpt lat="45.882792716553915" lon="12.7142344448153"><ele>11.0</ele><time>2026-04-05T09:38:50Z</time></trkpt><trkpt lat="45.88286389229099" lon="12.714350675298396"><ele>11.0</ele><time>2026-04-05T09:38:51Z</time></trkpt><trkpt lat="45.882907016817015" lon="12.714469346603323"><ele>11.0</ele><time>2026-04-05T09:38:52Z</time></trkpt><trkpt lat="45.8830206150021" lon="12.714630238468725"><ele>11.0</ele><time>2026-04-05T09:38:54Z</time></trkpt><trkpt lat="45.883135936582626" lon="12.714787566416287"><ele>11.0</ele><time>2026-04-05T09:38:55Z</time></trkpt><trkpt lat="45.883230436421094" lon="12.714956608063064"><ele>11.0</ele><time>2026-04-05T09:38:56Z</time></trkpt><trkpt lat="45.883343677586524" lon="12.715138911044264"><ele>11.0</ele><time>2026-04-05T09:38:57Z</time></trkpt><trkpt lat="45.88344136722559" lon="12.715246744451989"><ele>11.0</ele><time>2026-04-05T09:38:58Z</time></trkpt><trkpt lat="45.88353983735563" lon="12.715400888032262"><ele>11.0</ele><time>2026-04-05T09:38:59Z</time></trkpt><trkpt lat="45.883669119247465" lon="12.715550302108618"><ele>11.0</ele><time>2026-04-05T09:39:00Z</time></trkpt><trkpt lat="45.88377295124662" lon="12.715647213710167"><ele>11.0</ele><time>2026-04-05T09:39:01Z</time></trkpt><trkpt lat="45.88383066356057" lon="12.71588042669421"><ele>11.0</ele><time>2026-04-05T09:39:02Z</time></trkpt><trkpt lat="45.88389154677118" lon="12.715982090589074"><ele>11.0</ele><time>2026-04-05T09:39:03Z</time></trkpt><trkpt lat="45.8839415500736" lon="12.716073127457928"><ele>11.0</ele><time>2026-04-05T09:39:04Z</time></trkpt><trkpt lat="45.8839378303252" lon="12.716195258358002"><ele>11.0</ele><time>2026-04-05T09:39:06Z</time></trkpt><trkpt lat="45.8840835636982" lon="12.716306260845949"><ele>11.0</ele><time>2026-04-05T09:39:08Z</time></trkpt><trkpt lat="45.88390578875875" lon="12.716357398073884"><ele>11.0</ele><time>2026-04-05T09:39:09Z</time></trkpt><trkpt lat="45.883885842150114" lon="12.716706275077518"><ele>11.0</ele><time>2026-04-05T09:39:10Z</time></trkpt><trkpt lat="45.88379844476233" lon="12.716917897826185"><ele>11.0</ele><time>2026-04-05T09:39:11Z</time></trkpt><trkpt lat="45.88370346603735" lon="12.716836893148288"><ele>11.0</ele><time>2026-04-05T09:39:12Z</time></trkpt><trkpt lat="45.883582126532545" lon="12.716953107840846"><ele>11.0</ele><time>2026-04-05T09:39:13Z</time></trkpt><trkpt lat="45.88347585404472" lon="12.71712043722855"><ele>11.0</ele><time>2026-04-05T09:39:14Z</time></trkpt><trkpt lat="45.88334156069085" lon="12.717115649803233"><ele>11.0</ele><time>2026-04-05T09:39:15Z</time></trkpt><trkpt lat="45.883217665700585" lon="12.717182972202853"><ele>11.0</ele><time>2026-04-05T09:39:16Z</time></trkpt><trkpt lat="45.88310870585876" lon="12.717265013971954"><ele>11.0</ele><time>2026-04-05T09:39:17Z</time></trkpt><trkpt lat="45.88315105139258" lon="12.717457304771429"><ele>11.0</ele><time>2026-04-05T09:39:19Z</time></trkpt><trkpt lat="45.88309999844069" lon="12.717539104055856"><ele>11.0</ele><time>2026-04-05T09:39:20Z</time></trkpt><trkpt lat="45.88302429324259" lon="12.717655108701305"><ele>11.0</ele><time>2026-04-05T09:39:21Z</time></trkpt><trkpt lat="45.88284124196304" lon="12.717847056256709"><ele>11.0</ele><time>2026-04-05T09:39:22Z</time></trkpt><trkpt lat="45.88257628049768" lon="12.718220742265162"><ele>10.666666666666666</ele><time>2026-04-05T09:39:23Z</time></trkpt><trkpt lat="45.882434633623184" lon="12.718398699630816"><ele>10.333333333333334</ele><time>2026-04-05T09:39:24Z</time></trkpt><trkpt lat="45.88232262356498" lon="12.718571008966052"><ele>10.0</ele><time>2026-04-05T09:39:25Z</time></trkpt><trkpt lat="45.88217334780343" lon="12.718670078167635"><ele>10.0</ele><time>2026-04-05T09:39:26Z</time></trkpt><trkpt lat="45.881973667487294" lon="12.71888816237508"><ele>10.0</ele><time>2026-04-05T09:39:27Z</time></trkpt><trkpt lat="45.881813455358234" lon="12.718989640558782"><ele>10.0</ele><time>2026-04-05T09:39:28Z</time></trkpt><trkpt lat="45.8816531094572" lon="12.719181669628522"><ele>9.0</ele><time>2026-04-05T09:39:29Z</time></trkpt><trkpt lat="45.88136343880464" lon="12.719334874766568"><ele>8.0</ele><time>2026-04-05T09:39:30Z</time></trkpt><trkpt lat="45.881105180839874" lon="12.719382860019941"><ele>8.5</ele><time>2026-04-05T09:39:31Z</time></trkpt><trkpt lat="45.880839328167866" lon="12.719554574476083"><ele>9.0</ele><time>2026-04-05T09:39:32Z</time></trkpt><trkpt lat="45.88062643666599" lon="12.719641867247267"><ele>9.0</ele><time>2026-04-05T09:39:33Z</time></trkpt><trkpt lat="45.8804341047516" lon="12.71972670900554"><ele>9.0</ele><time>2026-04-05T09:39:34Z</time></trkpt><trkpt lat="45.880287573059775" lon="12.719761566876052"><ele>9.0</ele><time>2026-04-05T09:39:35Z</time></trkpt><trkpt lat="45.88014750643894" lon="12.719800896320482"><ele>8.75</ele><time>2026-04-05T09:39:36Z</time></trkpt><trkpt lat="45.88001149091401" lon="12.719839764889702"><ele>8.5</ele><time>2026-04-05T09:39:37Z</time></trkpt><trkpt lat="45.87984005213178" lon="12.719919404847689"><ele>8.25</ele><time>2026-04-05T09:39:38Z</time></trkpt><trkpt lat="45.87976298595902" lon="12.719968861991218"><ele>8.0</ele><time>2026-04-05T09:39:39Z</time></trkpt><trkpt lat="45.87954546324636" lon="12.720085582900865"><ele>8.0</ele><time>2026-04-05T09:39:40Z</time></trkpt><trkpt lat="45.87928429672467" lon="12.720241266623228"><ele>8.0</ele><time>2026-04-05T09:39:41Z</time></trkpt><trkpt lat="45.87908359558568" lon="12.7203302594449"><ele>7.333333333333333</ele><time>2026-04-05T09:39:42Z</time></trkpt><trkpt lat="45.8789136337937" lon="12.720437064025518"><ele>6.666666666666666</ele><time>2026-04-05T09:39:43Z</time></trkpt><trkpt lat="45.878775976324974" lon="12.72054326562423"><ele>6.0</ele><time>2026-04-05T09:39:44Z</time></trkpt><trkpt lat="45.87862088221686" lon="12.720665186394694"><ele>6.0</ele><time>2026-04-05T09:39:45Z</time></trkpt><trkpt lat="45.87846687243477" lon="12.72079910325558"><ele>6.0</ele><time>2026-04-05T09:39:46Z</time></trkpt><trkpt lat="45.878321299785895" lon="12.720936961321328"><ele>6.0</ele><time>2026-04-05T09:39:47Z</time></trkpt><trkpt lat="45.878190472917865" lon="12.721115538871468"><ele>6.0</ele><time>2026-04-05T09:39:48Z</time></trkpt><trkpt lat="45.87802081355331" lon="12.721356137336699"><ele>6.0</ele><time>2026-04-05T09:39:49Z</time></trkpt><trkpt lat="45.87787888164048" lon="12.721560527263376"><ele>6.0</ele><time>2026-04-05T09:39:50Z</time></trkpt><trkpt lat="45.877746690889886" lon="12.721777442869314"><ele>6.333333333333334</ele><time>2026-04-05T09:39:51Z</time></trkpt><trkpt lat="45.87764595003696" lon="12.722013140375557"><ele>6.666666666666667</ele><time>2026-04-05T09:39:52Z</time></trkpt><trkpt lat="45.87754668244205" lon="12.72221498862407"><ele>7.0</ele><time>2026-04-05T09:39:53Z</time></trkpt><trkpt lat="45.87737846483053" lon="12.722375031569477"><ele>7.333333333333334</ele><time>2026-04-05T09:39:54Z</time></trkpt><trkpt lat="45.87719273098752" lon="12.72251866240917"><ele>7.666666666666666</ele><time>2026-04-05T09:39:55Z</time></trkpt><trkpt lat="45.87703727030101" lon="12.72268933475142"><ele>8.0</ele><time>2026-04-05T09:39:56Z</time></trkpt><trkpt lat="45.876854068708425" lon="12.722838619250203"><ele>8.666666666666666</ele><time>2026-04-05T09:39:57Z</time></trkpt><trkpt lat="45.87669307517772" lon="12.722983333387775"><ele>9.333333333333334</ele><time>2026-04-05T09:39:58Z</time></trkpt><trkpt lat="45.87651790315399" lon="12.723102562104026"><ele>10.0</ele><time>2026-04-05T09:39:59Z</time></trkpt><trkpt lat="45.87632366128143" lon="12.723165664398145"><ele>10.0</ele><time>2026-04-05T09:39:59.999Z</time></trkpt><trkpt lat="45.87615372470965" lon="12.723278305864648"><ele>10.0</ele><time>2026-04-05T09:40:00.999Z</time></trkpt><trkpt lat="45.87598039167611" lon="12.723314437568652"><ele>10.0</ele><time>2026-04-05T09:40:01.999Z</time></trkpt><trkpt lat="45.875772588485034" lon="12.723347039812213"><ele>10.0</ele><time>2026-04-05T09:40:02.999Z</time></trkpt><trkpt lat="45.87558870458589" lon="12.723341607199401"><ele>10.0</ele><time>2026-04-05T09:40:03.999Z</time></trkpt><trkpt lat="45.87537932922722" lon="12.723385628643793"><ele>10.0</ele><time>2026-04-05T09:40:04.999Z</time></trkpt><trkpt lat="45.875187478051195" lon="12.7234131291168"><ele>10.0</ele><time>2026-04-05T09:40:05.999Z</time></trkpt><trkpt lat="45.874963330963844" lon="12.72347626292492"><ele>10.0</ele><time>2026-04-05T09:40:06.999Z</time></trkpt><trkpt lat="45.87478440533714" lon="12.723488989200074"><ele>10.0</ele><time>2026-04-05T09:40:07.999Z</time></trkpt><trkpt lat="45.87460955152736" lon="12.723507715127052"><ele>10.0</ele><time>2026-04-05T09:40:08.999Z</time></trkpt><trkpt lat="45.87444515324256" lon="12.723536892995725"><ele>10.0</ele><time>2026-04-05T09:40:09.999Z</time></trkpt><trkpt lat="45.87429138236671" lon="12.723565626796011"><ele>10.0</ele><time>2026-04-05T09:40:10.999Z</time></trkpt><trkpt lat="45.87414168199578" lon="12.72359141209082"><ele>9.666666666666668</ele><time>2026-04-05T09:40:11.999Z</time></trkpt><trkpt lat="45.87398478301844" lon="12.723617634326466"><ele>9.333333333333334</ele><time>2026-04-05T09:40:12.999Z</time></trkpt><trkpt lat="45.873830943899996" lon="12.72364264558437"><ele>9.0</ele><time>2026-04-05T09:40:13.999Z</time></trkpt><trkpt lat="45.87367571090252" lon="12.723618633606605"><ele>9.0</ele><time>2026-04-05T09:40:14.999Z</time></trkpt><trkpt lat="45.87351713922036" lon="12.72363777302302"><ele>9.0</ele><time>2026-04-05T09:40:15.999Z</time></trkpt><trkpt lat="45.8733633463896" lon="12.723657971596053"><ele>9.0</ele><time>2026-04-05T09:40:16.999Z</time></trkpt><trkpt lat="45.87320705430044" lon="12.723680805991822"><ele>10.0</ele><time>2026-04-05T09:40:17.999Z</time></trkpt><trkpt lat="45.873053472552094" lon="12.723706984706126"><ele>11.0</ele><time>2026-04-05T09:40:18.999Z</time></trkpt><trkpt lat="45.872899134099214" lon="12.723734968048577"><ele>12.0</ele><time>2026-04-05T09:40:19.999Z</time></trkpt><trkpt lat="45.87275274415485" lon="12.72375196285025"><ele>12.0</ele><time>2026-04-05T09:40:20.999Z</time></trkpt><trkpt lat="45.872613889367734" lon="12.723776074825045"><ele>12.0</ele><time>2026-04-05T09:40:21.999Z</time></trkpt><trkpt lat="45.87247094306117" lon="12.723816523413578"><ele>12.0</ele><time>2026-04-05T09:40:22.999Z</time></trkpt><trkpt lat="45.87233683608708" lon="12.723888562958287"><ele>12.0</ele><time>2026-04-05T09:40:23.999Z</time></trkpt><trkpt lat="45.8721974463236" lon="12.723984984094946"><ele>11.0</ele><time>2026-04-05T09:40:24.999Z</time></trkpt><trkpt lat="45.87206894638288" lon="12.724121508452846"><ele>10.0</ele><time>2026-04-05T09:40:25.999Z</time></trkpt><trkpt lat="45.871942998466736" lon="12.724284583520092"><ele>9.0</ele><time>2026-04-05T09:40:26.999Z</time></trkpt><trkpt lat="45.87181188134742" lon="12.72445522048947"><ele>9.666666666666666</ele><time>2026-04-05T09:40:27.999Z</time></trkpt><trkpt lat="45.87167679225234" lon="12.72463472625346"><ele>10.333333333333332</ele><time>2026-04-05T09:40:28.999Z</time></trkpt><trkpt lat="45.87153665784277" lon="12.72483632036093"><ele>11.0</ele><time>2026-04-05T09:40:29.999Z</time></trkpt><trkpt lat="45.87139167121158" lon="12.725051260248415"><ele>10.5</ele><time>2026-04-05T09:40:30.999Z</time></trkpt><trkpt lat="45.87123696184094" lon="12.725284984034"><ele>10.0</ele><time>2026-04-05T09:40:31.999Z</time></trkpt><trkpt lat="45.871074974192815" lon="12.725524748374003"><ele>9.5</ele><time>2026-04-05T09:40:32.999Z</time></trkpt><trkpt lat="45.8709069224505" lon="12.72576550149974"><ele>9.0</ele><time>2026-04-05T09:40:33.999Z</time></trkpt><trkpt lat="45.8707346263142" lon="12.726010724259934"><ele>8.5</ele><time>2026-04-05T09:40:34.999Z</time></trkpt><trkpt lat="45.87056941588068" lon="12.726244815786897"><ele>8.0</ele><time>2026-04-05T09:40:35.999Z</time></trkpt><trkpt lat="45.87040847515395" lon="12.726477363481553"><ele>8.0</ele><time>2026-04-05T09:40:36.999Z</time></trkpt><trkpt lat="45.87025731348791" lon="12.72670292703834"><ele>8.0</ele><time>2026-04-05T09:40:37.999Z</time></trkpt><trkpt lat="45.87011126158774" lon="12.726935028478986"><ele>8.0</ele><time>2026-04-05T09:40:38.999Z</time></trkpt><trkpt lat="45.869965219027286" lon="12.727138196486516"><ele>9.0</ele><time>2026-04-05T09:40:39.999Z</time></trkpt><trkpt lat="45.86982553374713" lon="12.727337700219099"><ele>10.0</ele><time>2026-04-05T09:40:40.999Z</time></trkpt><trkpt lat="45.86969325791385" lon="12.727547891649008"><ele>11.0</ele><time>2026-04-05T09:40:41.999Z</time></trkpt><trkpt lat="45.86954971733688" lon="12.727751134005679"><ele>11.333333333333332</ele><time>2026-04-05T09:40:42.999Z</time></trkpt><trkpt lat="45.86940537188377" lon="12.72795158871796"><ele>11.666666666666666</ele><time>2026-04-05T09:40:44Z</time></trkpt><trkpt lat="45.869263595029835" lon="12.728171074445676"><ele>12.0</ele><time>2026-04-05T09:40:45Z</time></trkpt><trkpt lat="45.86912044077122" lon="12.72838564415367"><ele>12.0</ele><time>2026-04-05T09:40:46Z</time></trkpt><trkpt lat="45.86896929588787" lon="12.728605670248324"><ele>12.0</ele><time>2026-04-05T09:40:47Z</time></trkpt><trkpt lat="45.868833183579454" lon="12.728822218104707"><ele>12.0</ele><time>2026-04-05T09:40:48Z</time></trkpt><trkpt lat="45.86868551086031" lon="12.729041769318801"><ele>12.0</ele><time>2026-04-05T09:40:49Z</time></trkpt><trkpt lat="45.86853422188435" lon="12.729255653554043"><ele>12.0</ele><time>2026-04-05T09:40:50Z</time></trkpt><trkpt lat="45.86838431649581" lon="12.729475319802745"><ele>12.0</ele><time>2026-04-05T09:40:51Z</time></trkpt><trkpt lat="45.86823039306218" lon="12.729700883629924"><ele>12.0</ele><time>2026-04-05T09:40:52Z</time></trkpt><trkpt lat="45.8680816987307" lon="12.72991457708863"><ele>12.0</ele><time>2026-04-05T09:40:53Z</time></trkpt><trkpt lat="45.867932821644494" lon="12.730144169225099"><ele>12.0</ele><time>2026-04-05T09:40:54Z</time></trkpt><trkpt lat="45.867790785309786" lon="12.730368409232039"><ele>12.0</ele><time>2026-04-05T09:40:55Z</time></trkpt><trkpt lat="45.86765051586503" lon="12.730578423092853"><ele>12.0</ele><time>2026-04-05T09:40:56Z</time></trkpt><trkpt lat="45.86751915305251" lon="12.73076985037743"><ele>12.0</ele><time>2026-04-05T09:40:57Z</time></trkpt><trkpt lat="45.86739182783151" lon="12.730969581702507"><ele>12.0</ele><time>2026-04-05T09:40:58Z</time></trkpt><trkpt lat="45.867260599466995" lon="12.731148814697644"><ele>12.0</ele><time>2026-04-05T09:40:59Z</time></trkpt><trkpt lat="45.86713755716555" lon="12.731327754973808"><ele>12.0</ele><time>2026-04-05T09:41:00Z</time></trkpt><trkpt lat="45.86701233413941" lon="12.731520375399716"><ele>12.0</ele><time>2026-04-05T09:41:01Z</time></trkpt><trkpt lat="45.866884397730104" lon="12.731715209994857"><ele>12.0</ele><time>2026-04-05T09:41:02Z</time></trkpt><trkpt lat="45.86674978913933" lon="12.731916623337955"><ele>12.0</ele><time>2026-04-05T09:41:03Z</time></trkpt><trkpt lat="45.866611976114505" lon="12.732128645609178"><ele>12.0</ele><time>2026-04-05T09:41:04Z</time></trkpt><trkpt lat="45.866474241354155" lon="12.73233349075741"><ele>12.0</ele><time>2026-04-05T09:41:05Z</time></trkpt><trkpt lat="45.86632557638175" lon="12.732519373835943"><ele>12.0</ele><time>2026-04-05T09:41:06Z</time></trkpt><trkpt lat="45.86619082152422" lon="12.732742324243294"><ele>12.0</ele><time>2026-04-05T09:41:07Z</time></trkpt><trkpt lat="45.86604480748956" lon="12.732961594536297"><ele>12.0</ele><time>2026-04-05T09:41:08Z</time></trkpt><trkpt lat="45.86591004202183" lon="12.733162503285277"><ele>12.0</ele><time>2026-04-05T09:41:09Z</time></trkpt><trkpt lat="45.865770115007884" lon="12.733366226367554"><ele>12.0</ele><time>2026-04-05T09:41:10Z</time></trkpt><trkpt lat="45.86562903561673" lon="12.733569433994015"><ele>12.0</ele><time>2026-04-05T09:41:11Z</time></trkpt><trkpt lat="45.86549281539905" lon="12.733776836849163"><ele>12.0</ele><time>2026-04-05T09:41:12Z</time></trkpt><trkpt lat="45.86535654135404" lon="12.733982827112744"><ele>12.0</ele><time>2026-04-05T09:41:13Z</time></trkpt><trkpt lat="45.86521275553247" lon="12.73419149050905"><ele>12.0</ele><time>2026-04-05T09:41:14Z</time></trkpt><trkpt lat="45.865073189692694" lon="12.734395827428724"><ele>12.0</ele><time>2026-04-05T09:41:15Z</time></trkpt><trkpt lat="45.86492934403362" lon="12.734611172092666"><ele>12.333333333333332</ele><time>2026-04-05T09:41:16Z</time></trkpt><trkpt lat="45.86478844070737" lon="12.73482189406544"><ele>12.666666666666666</ele><time>2026-04-05T09:41:17Z</time></trkpt><trkpt lat="45.86464561178233" lon="12.735035597752718"><ele>13.0</ele><time>2026-04-05T09:41:18Z</time></trkpt><trkpt lat="45.8645116838861" lon="12.735266074895122"><ele>13.333333333333332</ele><time>2026-04-05T09:41:19Z</time></trkpt><trkpt lat="45.864389727686344" lon="12.735509939592681"><ele>13.666666666666668</ele><time>2026-04-05T09:41:20Z</time></trkpt><trkpt lat="45.864273003184636" lon="12.735763964203306"><ele>14.0</ele><time>2026-04-05T09:41:21Z</time></trkpt><trkpt lat="45.86415809051604" lon="12.73602061039274"><ele>13.666666666666668</ele><time>2026-04-05T09:41:22Z</time></trkpt><trkpt lat="45.86404623007932" lon="12.736273762245693"><ele>13.333333333333332</ele><time>2026-04-05T09:41:23Z</time></trkpt><trkpt lat="45.863936739557474" lon="12.736527678325855"><ele>13.0</ele><time>2026-04-05T09:41:24Z</time></trkpt><trkpt lat="45.86382877355193" lon="12.736775287344388"><ele>12.666666666666666</ele><time>2026-04-05T09:41:25Z</time></trkpt><trkpt lat="45.86372873951007" lon="12.737013945588497"><ele>12.333333333333332</ele><time>2026-04-05T09:41:26Z</time></trkpt><trkpt lat="45.86362710954541" lon="12.737249839742695"><ele>12.0</ele><time>2026-04-05T09:41:27Z</time></trkpt><trkpt lat="45.86353487504565" lon="12.73747267752473"><ele>12.0</ele><time>2026-04-05T09:41:28Z</time></trkpt><trkpt lat="45.8634464263062" lon="12.737695829758554"><ele>12.0</ele><time>2026-04-05T09:41:29Z</time></trkpt><trkpt lat="45.8633608707463" lon="12.737926094792293"><ele>12.0</ele><time>2026-04-05T09:41:30Z</time></trkpt><trkpt lat="45.86327343615631" lon="12.738149588693167"><ele>12.0</ele><time>2026-04-05T09:41:31Z</time></trkpt><trkpt lat="45.863186676361714" lon="12.73837096683913"><ele>12.0</ele><time>2026-04-05T09:41:32Z</time></trkpt><trkpt lat="45.8631030404422" lon="12.738598002127935"><ele>12.0</ele><time>2026-04-05T09:41:33Z</time></trkpt><trkpt lat="45.86301517496422" lon="12.738847769473225"><ele>11.666666666666666</ele><time>2026-04-05T09:41:34Z</time></trkpt><trkpt lat="45.86293243269451" lon="12.739106179580812"><ele>11.333333333333332</ele><time>2026-04-05T09:41:35Z</time></trkpt><trkpt lat="45.862867452993015" lon="12.739373590232065"><ele>11.0</ele><time>2026-04-05T09:41:36Z</time></trkpt><trkpt lat="45.862818881305735" lon="12.73965143494134"><ele>11.0</ele><time>2026-04-05T09:41:37Z</time></trkpt><trkpt lat="45.86278452264234" lon="12.739940178524222"><ele>11.0</ele><time>2026-04-05T09:41:38Z</time></trkpt><trkpt lat="45.86275759044938" lon="12.740233446048839"><ele>11.0</ele><time>2026-04-05T09:41:39Z</time></trkpt><trkpt lat="45.86274271844331" lon="12.740526343462827"><ele>11.0</ele><time>2026-04-05T09:41:40Z</time></trkpt><trkpt lat="45.862736078185236" lon="12.740813926586144"><ele>11.0</ele><time>2026-04-05T09:41:41Z</time></trkpt><trkpt lat="45.86275014269159" lon="12.741087546653945"><ele>11.0</ele><time>2026-04-05T09:41:42Z</time></trkpt><trkpt lat="45.86276159274575" lon="12.741350635036117"><ele>11.0</ele><time>2026-04-05T09:41:43Z</time></trkpt><trkpt lat="45.86277542784658" lon="12.74160825816612"><ele>11.0</ele><time>2026-04-05T09:41:44Z</time></trkpt><trkpt lat="45.86279033005493" lon="12.741837299576845"><ele>11.0</ele><time>2026-04-05T09:41:45Z</time></trkpt><trkpt lat="45.86279502438388" lon="12.7420868845468"><ele>11.0</ele><time>2026-04-05T09:41:46Z</time></trkpt><trkpt lat="45.862803402567025" lon="12.742286971500981"><ele>11.0</ele><time>2026-04-05T09:41:47Z</time></trkpt><trkpt lat="45.86280844790524" lon="12.742541758067768"><ele>11.0</ele><time>2026-04-05T09:41:48Z</time></trkpt><trkpt lat="45.86282063951683" lon="12.742718264872805"><ele>11.0</ele><time>2026-04-05T09:41:49Z</time></trkpt><trkpt lat="45.86279405994256" lon="12.74287397983959"><ele>11.0</ele><time>2026-04-05T09:41:50Z</time></trkpt><trkpt lat="45.862767948298085" lon="12.743097349024612"><ele>11.0</ele><time>2026-04-05T09:41:51Z</time></trkpt><trkpt lat="45.86273185134435" lon="12.743325094912295"><ele>11.0</ele><time>2026-04-05T09:41:52Z</time></trkpt><trkpt lat="45.8626865336292" lon="12.743581191880846"><ele>11.0</ele><time>2026-04-05T09:41:53Z</time></trkpt><trkpt lat="45.86264417441234" lon="12.743816247716747"><ele>11.0</ele><time>2026-04-05T09:41:54Z</time></trkpt><trkpt lat="45.86261794709588" lon="12.744045054710698"><ele>11.0</ele><time>2026-04-05T09:41:55Z</time></trkpt><trkpt lat="45.862578335557885" lon="12.744259709888622"><ele>11.333333333333332</ele><time>2026-04-05T09:41:56Z</time></trkpt><trkpt lat="45.86253885811456" lon="12.744480598590998"><ele>11.666666666666666</ele><time>2026-04-05T09:41:57Z</time></trkpt><trkpt lat="45.8625019076638" lon="12.744691193513793"><ele>12.0</ele><time>2026-04-05T09:41:58Z</time></trkpt><trkpt lat="45.862469328080486" lon="12.744892574884057"><ele>12.0</ele><time>2026-04-05T09:41:59Z</time></trkpt><trkpt lat="45.86241735906556" lon="12.745098238341"><ele>12.0</ele><time>2026-04-05T09:41:59.999Z</time></trkpt><trkpt lat="45.862378106879895" lon="12.745310668059595"><ele>12.0</ele><time>2026-04-05T09:42:00.999Z</time></trkpt><trkpt lat="45.862339277564" lon="12.745522723779926"><ele>12.0</ele><time>2026-04-05T09:42:01.999Z</time></trkpt><trkpt lat="45.8623021038981" lon="12.74572737651298"><ele>12.0</ele><time>2026-04-05T09:42:02.999Z</time></trkpt><trkpt lat="45.8622642444203" lon="12.745935804857059"><ele>12.0</ele><time>2026-04-05T09:42:03.999Z</time></trkpt><trkpt lat="45.86223693212171" lon="12.746164570109427"><ele>12.0</ele><time>2026-04-05T09:42:04.999Z</time></trkpt><trkpt lat="45.8621960083552" lon="12.746381796889121"><ele>12.0</ele><time>2026-04-05T09:42:05.999Z</time></trkpt><trkpt lat="45.862161741075695" lon="12.746592684274678"><ele>12.0</ele><time>2026-04-05T09:42:06.999Z</time></trkpt><trkpt lat="45.86211744759612" lon="12.746782951726487"><ele>12.0</ele><time>2026-04-05T09:42:07.999Z</time></trkpt><trkpt lat="45.862062486154244" lon="12.746954527814319"><ele>12.25</ele><time>2026-04-05T09:42:08.999Z</time></trkpt><trkpt lat="45.86199306106233" lon="12.747112589622384"><ele>12.5</ele><time>2026-04-05T09:42:09.999Z</time></trkpt><trkpt lat="45.86191785993653" lon="12.7472585948141"><ele>12.75</ele><time>2026-04-05T09:42:10.999Z</time></trkpt><trkpt lat="45.861827458192444" lon="12.74740265986216"><ele>13.0</ele><time>2026-04-05T09:42:11.999Z</time></trkpt><trkpt lat="45.86173090207852" lon="12.747548455495211"><ele>13.0</ele><time>2026-04-05T09:42:12.999Z</time></trkpt><trkpt lat="45.86163749909399" lon="12.74770448120545"><ele>13.0</ele><time>2026-04-05T09:42:13.999Z</time></trkpt><trkpt lat="45.86154252339174" lon="12.747863095655752"><ele>13.0</ele><time>2026-04-05T09:42:14.999Z</time></trkpt><trkpt lat="45.86143964125567" lon="12.748026608288072"><ele>13.0</ele><time>2026-04-05T09:42:15.999Z</time></trkpt><trkpt lat="45.8613367910149" lon="12.748198830816007"><ele>13.25</ele><time>2026-04-05T09:42:16.999Z</time></trkpt><trkpt lat="45.86123634021041" lon="12.748370800912555"><ele>13.5</ele><time>2026-04-05T09:42:17.999Z</time></trkpt><trkpt lat="45.86114245533509" lon="12.748534298318013"><ele>13.75</ele><time>2026-04-05T09:42:18.999Z</time></trkpt><trkpt lat="45.861047875567536" lon="12.748668398335111"><ele>14.0</ele><time>2026-04-05T09:42:19.999Z</time></trkpt><trkpt lat="45.860967402703466" lon="12.748793682885244"><ele>13.799999999999999</ele><time>2026-04-05T09:42:20.999Z</time></trkpt><trkpt lat="45.86089171048119" lon="12.74891365554592"><ele>13.599999999999998</ele><time>2026-04-05T09:42:21.999Z</time></trkpt><trkpt lat="45.86081976132108" lon="12.74902392751538"><ele>13.4</ele><time>2026-04-05T09:42:22.999Z</time></trkpt><trkpt lat="45.860755699802546" lon="12.749130085338443"><ele>13.2</ele><time>2026-04-05T09:42:23.999Z</time></trkpt><trkpt lat="45.86069734463364" lon="12.749228294600963"><ele>13.0</ele><time>2026-04-05T09:42:24.999Z</time></trkpt><trkpt lat="45.860640584218125" lon="12.74932308839453"><ele>12.999999999999998</ele><time>2026-04-05T09:42:25.999Z</time></trkpt><trkpt lat="45.860591458168045" lon="12.74940358815776"><ele>13.0</ele><time>2026-04-05T09:42:26.999Z</time></trkpt><trkpt lat="45.86054751113711" lon="12.749474851042418"><ele>13.0</ele><time>2026-04-05T09:42:27.999Z</time></trkpt><trkpt lat="45.86046877317588" lon="12.749588833548833"><ele>13.0</ele><time>2026-04-05T09:42:29.999Z</time></trkpt><trkpt lat="45.86042386053887" lon="12.749657708203245"><ele>12.999999999999998</ele><time>2026-04-05T09:42:30.999Z</time></trkpt><trkpt lat="45.860372269313885" lon="12.749716981474135"><ele>13.0</ele><time>2026-04-05T09:42:31.999Z</time></trkpt><trkpt lat="45.860304528856986" lon="12.749771952076426"><ele>13.0</ele><time>2026-04-05T09:42:32.999Z</time></trkpt><trkpt lat="45.860232015125895" lon="12.749829803482411"><ele>13.0</ele><time>2026-04-05T09:42:33.999Z</time></trkpt><trkpt lat="45.86017380772917" lon="12.749929452596287"><ele>13.0</ele><time>2026-04-05T09:42:34.999Z</time></trkpt><trkpt lat="45.86012138765699" lon="12.750050149938483"><ele>13.0</ele><time>2026-04-05T09:42:35.999Z</time></trkpt><trkpt lat="45.86008163185019" lon="12.750205691031006"><ele>13.0</ele><time>2026-04-05T09:42:36.999Z</time></trkpt><trkpt lat="45.86002825575057" lon="12.750377102160916"><ele>13.666666666666666</ele><time>2026-04-05T09:42:37.999Z</time></trkpt><trkpt lat="45.85995269982429" lon="12.75055261995361"><ele>14.333333333333332</ele><time>2026-04-05T09:42:38.999Z</time></trkpt><trkpt lat="45.859863416296754" lon="12.750726818575302"><ele>15.0</ele><time>2026-04-05T09:42:39.999Z</time></trkpt><trkpt lat="45.85976217967833" lon="12.75090936648852"><ele>15.0</ele><time>2026-04-05T09:42:40.999Z</time></trkpt><trkpt lat="45.85964890472286" lon="12.75110320272169"><ele>15.0</ele><time>2026-04-05T09:42:41.999Z</time></trkpt><trkpt lat="45.859536521010796" lon="12.751301133873321"><ele>15.0</ele><time>2026-04-05T09:42:42.999Z</time></trkpt><trkpt lat="45.859427916995834" lon="12.75150444202039"><ele>15.0</ele><time>2026-04-05T09:42:43.999Z</time></trkpt><trkpt lat="45.85931240471884" lon="12.7517274860531"><ele>15.0</ele><time>2026-04-05T09:42:44.999Z</time></trkpt><trkpt lat="45.85918466592954" lon="12.751960840747833"><ele>15.0</ele><time>2026-04-05T09:42:45.999Z</time></trkpt><trkpt lat="45.85905784172167" lon="12.75220617473638"><ele>14.666666666666668</ele><time>2026-04-05T09:42:46.999Z</time></trkpt><trkpt lat="45.85892032984107" lon="12.752440450692166"><ele>14.333333333333334</ele><time>2026-04-05T09:42:47.999Z</time></trkpt><trkpt lat="45.85877240608425" lon="12.752703133757318"><ele>14.0</ele><time>2026-04-05T09:42:48.999Z</time></trkpt><trkpt lat="45.85860396483677" lon="12.75296841143465"><ele>13.0</ele><time>2026-04-05T09:42:50Z</time></trkpt><trkpt lat="45.85843680565895" lon="12.753252003695659"><ele>12.0</ele><time>2026-04-05T09:42:51Z</time></trkpt><trkpt lat="45.85826672991306" lon="12.753469263783593"><ele>12.5</ele><time>2026-04-05T09:42:52Z</time></trkpt><trkpt lat="45.85807373854494" lon="12.753728513353405"><ele>13.0</ele><time>2026-04-05T09:42:53Z</time></trkpt><trkpt lat="45.857888960982606" lon="12.75395784717024"><ele>13.0</ele><time>2026-04-05T09:42:54Z</time></trkpt><trkpt lat="45.857699978194134" lon="12.754189572697735"><ele>13.0</ele><time>2026-04-05T09:42:55Z</time></trkpt><trkpt lat="45.857504093308314" lon="12.754422238273705"><ele>12.5</ele><time>2026-04-05T09:42:56Z</time></trkpt><trkpt lat="45.85731348620154" lon="12.754646416512605"><ele>12.0</ele><time>2026-04-05T09:42:57Z</time></trkpt><trkpt lat="45.85713543130173" lon="12.754864076666223"><ele>12.0</ele><time>2026-04-05T09:42:58Z</time></trkpt><trkpt lat="45.85696015635209" lon="12.755085659733226"><ele>12.0</ele><time>2026-04-05T09:42:59Z</time></trkpt><trkpt lat="45.85678710503056" lon="12.755314494296352"><ele>12.5</ele><time>2026-04-05T09:43:00Z</time></trkpt><trkpt lat="45.85659093988265" lon="12.755538155550525"><ele>13.0</ele><time>2026-04-05T09:43:01Z</time></trkpt><trkpt lat="45.85640462886768" lon="12.755764568484395"><ele>13.0</ele><time>2026-04-05T09:43:02Z</time></trkpt><trkpt lat="45.85619903007725" lon="12.756010807363701"><ele>13.0</ele><time>2026-04-05T09:43:03Z</time></trkpt><trkpt lat="45.85601682918859" lon="12.75625263090251"><ele>12.5</ele><time>2026-04-05T09:43:04Z</time></trkpt><trkpt lat="45.85583483191848" lon="12.756457507254957"><ele>12.0</ele><time>2026-04-05T09:43:05Z</time></trkpt><trkpt lat="45.85563826035025" lon="12.756679403047146"><ele>11.5</ele><time>2026-04-05T09:43:06Z</time></trkpt><trkpt lat="45.85545658315214" lon="12.756895585372984"><ele>11.0</ele><time>2026-04-05T09:43:07Z</time></trkpt><trkpt lat="45.855273384453334" lon="12.757110923928465"><ele>11.5</ele><time>2026-04-05T09:43:08Z</time></trkpt><trkpt lat="45.85509365019648" lon="12.757344080576585"><ele>12.0</ele><time>2026-04-05T09:43:09Z</time></trkpt><trkpt lat="45.85491542475189" lon="12.757576054565622"><ele>11.5</ele><time>2026-04-05T09:43:10Z</time></trkpt><trkpt lat="45.85472950650594" lon="12.757792276655184"><ele>11.0</ele><time>2026-04-05T09:43:11Z</time></trkpt><trkpt lat="45.85454983822106" lon="12.758008513480169"><ele>11.0</ele><time>2026-04-05T09:43:12Z</time></trkpt><trkpt lat="45.854390710954554" lon="12.758199946730096"><ele>11.0</ele><time>2026-04-05T09:43:13Z</time></trkpt><trkpt lat="45.854253108501766" lon="12.758382605971477"><ele>11.0</ele><time>2026-04-05T09:43:14Z</time></trkpt><trkpt lat="45.85407252078279" lon="12.758582735855931"><ele>12.0</ele><time>2026-04-05T09:43:15Z</time></trkpt><trkpt lat="45.85391714914131" lon="12.758790588314957"><ele>13.0</ele><time>2026-04-05T09:43:16Z</time></trkpt><trkpt lat="45.85375774698905" lon="12.758973822286823"><ele>14.0</ele><time>2026-04-05T09:43:17Z</time></trkpt><trkpt lat="45.85360530648989" lon="12.759170300309531"><ele>12.5</ele><time>2026-04-05T09:43:18Z</time></trkpt><trkpt lat="45.85341064677149" lon="12.75939943284279"><ele>11.0</ele><time>2026-04-05T09:43:19Z</time></trkpt><trkpt lat="45.8532243221704" lon="12.759609460055461"><ele>11.0</ele><time>2026-04-05T09:43:20Z</time></trkpt><trkpt lat="45.85303922559437" lon="12.75982117577494"><ele>11.0</ele><time>2026-04-05T09:43:21Z</time></trkpt><trkpt lat="45.85284105760189" lon="12.760034690309924"><ele>11.5</ele><time>2026-04-05T09:43:22Z</time></trkpt><trkpt lat="45.85263643480403" lon="12.760261224256821"><ele>12.0</ele><time>2026-04-05T09:43:23Z</time></trkpt><trkpt lat="45.85242488847381" lon="12.760497740173362"><ele>12.0</ele><time>2026-04-05T09:43:24Z</time></trkpt><trkpt lat="45.8522218270968" lon="12.760712518122638"><ele>12.0</ele><time>2026-04-05T09:43:25Z</time></trkpt><trkpt lat="45.85203322636141" lon="12.76092135184988"><ele>11.5</ele><time>2026-04-05T09:43:26Z</time></trkpt><trkpt lat="45.851844813066656" lon="12.761130724590256"><ele>11.0</ele><time>2026-04-05T09:43:27Z</time></trkpt><trkpt lat="45.851670728808735" lon="12.7613349771267"><ele>11.0</ele><time>2026-04-05T09:43:28Z</time></trkpt><trkpt lat="45.85151300522691" lon="12.761529991166908"><ele>11.0</ele><time>2026-04-05T09:43:29Z</time></trkpt><trkpt lat="45.851331296550455" lon="12.761741034673495"><ele>11.0</ele><time>2026-04-05T09:43:30Z</time></trkpt><trkpt lat="45.85115089165968" lon="12.761915205761596"><ele>11.5</ele><time>2026-04-05T09:43:31Z</time></trkpt><trkpt lat="45.85096281679928" lon="12.762124392483752"><ele>12.0</ele><time>2026-04-05T09:43:32Z</time></trkpt><trkpt lat="45.85077199097119" lon="12.762326612743642"><ele>12.0</ele><time>2026-04-05T09:43:33Z</time></trkpt><trkpt lat="45.8505765640731" lon="12.762544849408133"><ele>12.0</ele><time>2026-04-05T09:43:34Z</time></trkpt><trkpt lat="45.85038483633835" lon="12.762758269214196"><ele>12.5</ele><time>2026-04-05T09:43:35Z</time></trkpt><trkpt lat="45.85020048409949" lon="12.762971273705105"><ele>13.0</ele><time>2026-04-05T09:43:36Z</time></trkpt><trkpt lat="45.85001340953264" lon="12.763189543061598"><ele>13.0</ele><time>2026-04-05T09:43:37Z</time></trkpt><trkpt lat="45.84981294491903" lon="12.763413649590966"><ele>13.0</ele><time>2026-04-05T09:43:38Z</time></trkpt><trkpt lat="45.849615560119105" lon="12.763661293412875"><ele>12.5</ele><time>2026-04-05T09:43:39Z</time></trkpt><trkpt lat="45.84942810251035" lon="12.763878951845532"><ele>12.0</ele><time>2026-04-05T09:43:40Z</time></trkpt><trkpt lat="45.84921687153224" lon="12.76410628114988"><ele>12.0</ele><time>2026-04-05T09:43:41Z</time></trkpt><trkpt lat="45.84901971248528" lon="12.764322395919361"><ele>12.0</ele><time>2026-04-05T09:43:42Z</time></trkpt><trkpt lat="45.84881573431073" lon="12.764559735585202"><ele>12.0</ele><time>2026-04-05T09:43:43Z</time></trkpt><trkpt lat="45.84863625826912" lon="12.76478620934763"><ele>12.0</ele><time>2026-04-05T09:43:44Z</time></trkpt><trkpt lat="45.848445986834" lon="12.76501566667331"><ele>11.5</ele><time>2026-04-05T09:43:45Z</time></trkpt><trkpt lat="45.848236768127684" lon="12.765251012965173"><ele>11.0</ele><time>2026-04-05T09:43:46Z</time></trkpt><trkpt lat="45.84805620042387" lon="12.765496656426386"><ele>11.0</ele><time>2026-04-05T09:43:47Z</time></trkpt><trkpt lat="45.84786076105032" lon="12.765717982074982"><ele>11.0</ele><time>2026-04-05T09:43:48Z</time></trkpt><trkpt lat="45.84766404171635" lon="12.765958575842854"><ele>10.0</ele><time>2026-04-05T09:43:49Z</time></trkpt><trkpt lat="45.847480227803835" lon="12.766174329856826"><ele>9.0</ele><time>2026-04-05T09:43:50Z</time></trkpt><trkpt lat="45.847285548646255" lon="12.76641284364256"><ele>9.0</ele><time>2026-04-05T09:43:51Z</time></trkpt><trkpt lat="45.8470855599993" lon="12.76665254479118"><ele>9.0</ele><time>2026-04-05T09:43:52Z</time></trkpt><trkpt lat="45.84690631145667" lon="12.766875703150271"><ele>10.0</ele><time>2026-04-05T09:43:53Z</time></trkpt><trkpt lat="45.84672820211776" lon="12.767083213545174"><ele>11.0</ele><time>2026-04-05T09:43:54Z</time></trkpt><trkpt lat="45.84655202979469" lon="12.767285803405729"><ele>11.0</ele><time>2026-04-05T09:43:55Z</time></trkpt><trkpt lat="45.84638054325463" lon="12.767495356315598"><ele>11.0</ele><time>2026-04-05T09:43:56Z</time></trkpt><trkpt lat="45.84621195562687" lon="12.767707722321878"><ele>11.0</ele><time>2026-04-05T09:43:56.999Z</time></trkpt><trkpt lat="45.84602216210441" lon="12.767934325748111"><ele>11.5</ele><time>2026-04-05T09:43:57.999Z</time></trkpt><trkpt lat="45.84584763587383" lon="12.768143260929943"><ele>12.0</ele><time>2026-04-05T09:43:58.999Z</time></trkpt><trkpt lat="45.84565085070291" lon="12.76838050576331"><ele>12.0</ele><time>2026-04-05T09:43:59.999Z</time></trkpt><trkpt lat="45.84547041051593" lon="12.768593921851702"><ele>12.0</ele><time>2026-04-05T09:44:00.999Z</time></trkpt><trkpt lat="45.845304429860754" lon="12.768788345653554"><ele>12.0</ele><time>2026-04-05T09:44:01.999Z</time></trkpt><trkpt lat="45.845102737436676" lon="12.76899073069013"><ele>12.5</ele><time>2026-04-05T09:44:02.999Z</time></trkpt><trkpt lat="45.84489068414546" lon="12.769190082043185"><ele>13.0</ele><time>2026-04-05T09:44:03.999Z</time></trkpt><trkpt lat="45.84468296505628" lon="12.769377432014782"><ele>13.0</ele><time>2026-04-05T09:44:04.999Z</time></trkpt><trkpt lat="45.84450078714356" lon="12.769566567094072"><ele>13.0</ele><time>2026-04-05T09:44:05.999Z</time></trkpt><trkpt lat="45.84430291296293" lon="12.769747340165738"><ele>13.5</ele><time>2026-04-05T09:44:06.999Z</time></trkpt><trkpt lat="45.84409998149038" lon="12.76993892131156"><ele>14.0</ele><time>2026-04-05T09:44:07.999Z</time></trkpt><trkpt lat="45.84388333152971" lon="12.770117236916107"><ele>13.0</ele><time>2026-04-05T09:44:08.999Z</time></trkpt><trkpt lat="45.84367493859828" lon="12.77031037960554"><ele>12.0</ele><time>2026-04-05T09:44:09.999Z</time></trkpt><trkpt lat="45.84348014556508" lon="12.770527528794966"><ele>12.0</ele><time>2026-04-05T09:44:10.999Z</time></trkpt><trkpt lat="45.8432661586189" lon="12.77071029077291"><ele>12.0</ele><time>2026-04-05T09:44:11.999Z</time></trkpt><trkpt lat="45.84304789094071" lon="12.77090631717488"><ele>12.0</ele><time>2026-04-05T09:44:12.999Z</time></trkpt><trkpt lat="45.842828274018146" lon="12.771115648007749"><ele>12.0</ele><time>2026-04-05T09:44:13.999Z</time></trkpt><trkpt lat="45.842621847126495" lon="12.771305332698809"><ele>12.5</ele><time>2026-04-05T09:44:14.999Z</time></trkpt><trkpt lat="45.84242230028142" lon="12.771501222388546"><ele>13.0</ele><time>2026-04-05T09:44:15.999Z</time></trkpt><trkpt lat="45.84217465984727" lon="12.771707768947438"><ele>13.0</ele><time>2026-04-05T09:44:16.999Z</time></trkpt><trkpt lat="45.84197417726701" lon="12.771890222824144"><ele>13.0</ele><time>2026-04-05T09:44:17.999Z</time></trkpt><trkpt lat="45.84177642799104" lon="12.772073152499893"><ele>12.5</ele><time>2026-04-05T09:44:18.999Z</time></trkpt><trkpt lat="45.84155904729445" lon="12.772247731543375"><ele>12.0</ele><time>2026-04-05T09:44:19.999Z</time></trkpt><trkpt lat="45.84134291437795" lon="12.772427820563298"><ele>12.0</ele><time>2026-04-05T09:44:20.999Z</time></trkpt><trkpt lat="45.84111158717031" lon="12.77267274050176"><ele>12.0</ele><time>2026-04-05T09:44:21.999Z</time></trkpt><trkpt lat="45.84092524634367" lon="12.772885858948323"><ele>12.5</ele><time>2026-04-05T09:44:22.999Z</time></trkpt><trkpt lat="45.840729709303375" lon="12.773071538952925"><ele>13.0</ele><time>2026-04-05T09:44:23.999Z</time></trkpt><trkpt lat="45.84050099520114" lon="12.77325093449741"><ele>13.0</ele><time>2026-04-05T09:44:24.999Z</time></trkpt><trkpt lat="45.84027434761741" lon="12.773461367182314"><ele>13.0</ele><time>2026-04-05T09:44:25.999Z</time></trkpt><trkpt lat="45.840021546636855" lon="12.773775124746315"><ele>13.0</ele><time>2026-04-05T09:44:26.999Z</time></trkpt><trkpt lat="45.83980654357744" lon="12.773971703424227"><ele>13.0</ele><time>2026-04-05T09:44:27.999Z</time></trkpt><trkpt lat="45.83960510610448" lon="12.774169973334677"><ele>13.0</ele><time>2026-04-05T09:44:28.999Z</time></trkpt><trkpt lat="45.83939939405826" lon="12.774380991944408"><ele>13.0</ele><time>2026-04-05T09:44:29.999Z</time></trkpt><trkpt lat="45.83920257544544" lon="12.77456572338466"><ele>13.0</ele><time>2026-04-05T09:44:30.999Z</time></trkpt><trkpt lat="45.83898877503692" lon="12.774765399450592"><ele>13.0</ele><time>2026-04-05T09:44:31.999Z</time></trkpt><trkpt lat="45.83877978418216" lon="12.774968446696628"><ele>13.0</ele><time>2026-04-05T09:44:32.999Z</time></trkpt><trkpt lat="45.838571918354724" lon="12.775162964309512"><ele>13.0</ele><time>2026-04-05T09:44:33.999Z</time></trkpt><trkpt lat="45.83833906313332" lon="12.775390149438628"><ele>12.5</ele><time>2026-04-05T09:44:34.999Z</time></trkpt><trkpt lat="45.838120260271786" lon="12.77559470798144"><ele>12.0</ele><time>2026-04-05T09:44:35.999Z</time></trkpt><trkpt lat="45.837906303061715" lon="12.775793505298187"><ele>12.0</ele><time>2026-04-05T09:44:36.999Z</time></trkpt><trkpt lat="45.8376889063827" lon="12.776000833297736"><ele>12.0</ele><time>2026-04-05T09:44:37.999Z</time></trkpt><trkpt lat="45.837462835889674" lon="12.776210681782972"><ele>12.0</ele><time>2026-04-05T09:44:38.999Z</time></trkpt><trkpt lat="45.837289361504325" lon="12.776399472960982"><ele>12.0</ele><time>2026-04-05T09:44:39.999Z</time></trkpt><trkpt lat="45.837098559032384" lon="12.776582756099982"><ele>12.0</ele><time>2026-04-05T09:44:40.999Z</time></trkpt><trkpt lat="45.836897092691" lon="12.776746838653601"><ele>11.666666666666666</ele><time>2026-04-05T09:44:41.999Z</time></trkpt><trkpt lat="45.836714014811655" lon="12.776920339788015"><ele>11.333333333333332</ele><time>2026-04-05T09:44:42.999Z</time></trkpt><trkpt lat="45.83652703703533" lon="12.777097458243107"><ele>11.0</ele><time>2026-04-05T09:44:43.999Z</time></trkpt><trkpt lat="45.836344443459545" lon="12.777270341202701"><ele>11.0</ele><time>2026-04-05T09:44:44.999Z</time></trkpt><trkpt lat="45.836165110897916" lon="12.777440621731612"><ele>11.0</ele><time>2026-04-05T09:44:45.999Z</time></trkpt><trkpt lat="45.83599456612553" lon="12.777606760932729"><ele>11.0</ele><time>2026-04-05T09:44:46.999Z</time></trkpt><trkpt lat="45.83583411997161" lon="12.777794646853657"><ele>10.666666666666666</ele><time>2026-04-05T09:44:47.999Z</time></trkpt><trkpt lat="45.8356560396781" lon="12.777959293201961"><ele>10.333333333333334</ele><time>2026-04-05T09:44:48.999Z</time></trkpt><trkpt lat="45.835484847672596" lon="12.778110923740494"><ele>10.0</ele><time>2026-04-05T09:44:49.999Z</time></trkpt><trkpt lat="45.8352994606078" lon="12.778255132582515"><ele>10.666666666666668</ele><time>2026-04-05T09:44:50.999Z</time></trkpt><trkpt lat="45.835130109650564" lon="12.778379598214618"><ele>11.333333333333334</ele><time>2026-04-05T09:44:51.999Z</time></trkpt><trkpt lat="45.83494885297751" lon="12.778461995866396"><ele>12.0</ele><time>2026-04-05T09:44:52.999Z</time></trkpt><trkpt lat="45.83474477900911" lon="12.778506411606111"><ele>12.0</ele><time>2026-04-05T09:44:53.999Z</time></trkpt><trkpt lat="45.834535518050295" lon="12.778529380443917"><ele>12.0</ele><time>2026-04-05T09:44:54.999Z</time></trkpt><trkpt lat="45.83432235312911" lon="12.778562172306604"><ele>12.0</ele><time>2026-04-05T09:44:56Z</time></trkpt><trkpt lat="45.834101066731016" lon="12.77858838343953"><ele>12.0</ele><time>2026-04-05T09:44:57Z</time></trkpt><trkpt lat="45.83387947132742" lon="12.778625229869837"><ele>12.0</ele><time>2026-04-05T09:44:58Z</time></trkpt><trkpt lat="45.83364413061835" lon="12.778659559791558"><ele>12.0</ele><time>2026-04-05T09:44:59Z</time></trkpt><trkpt lat="45.83340801497573" lon="12.77866519175065"><ele>12.0</ele><time>2026-04-05T09:45:00Z</time></trkpt><trkpt lat="45.83316524950322" lon="12.778708759205939"><ele>12.0</ele><time>2026-04-05T09:45:01Z</time></trkpt><trkpt lat="45.832921825815696" lon="12.778726212859349"><ele>12.0</ele><time>2026-04-05T09:45:02Z</time></trkpt><trkpt lat="45.832678860051004" lon="12.778751023075664"><ele>12.0</ele><time>2026-04-05T09:45:03Z</time></trkpt><trkpt lat="45.83242745120561" lon="12.778762719864238"><ele>12.0</ele><time>2026-04-05T09:45:04Z</time></trkpt><trkpt lat="45.832188190289564" lon="12.778782424141207"><ele>12.0</ele><time>2026-04-05T09:45:05Z</time></trkpt><trkpt lat="45.83195492094802" lon="12.778794757764006"><ele>12.0</ele><time>2026-04-05T09:45:06Z</time></trkpt><trkpt lat="45.83173437044473" lon="12.778807030560348"><ele>11.666666666666666</ele><time>2026-04-05T09:45:07Z</time></trkpt><trkpt lat="45.83153439657206" lon="12.778845073935871"><ele>11.333333333333332</ele><time>2026-04-05T09:45:08Z</time></trkpt><trkpt lat="45.83134293068375" lon="12.778916167955757"><ele>11.0</ele><time>2026-04-05T09:45:09Z</time></trkpt><trkpt lat="45.83118735278105" lon="12.779047962861705"><ele>11.0</ele><time>2026-04-05T09:45:10Z</time></trkpt><trkpt lat="45.831078495238266" lon="12.779152082417"><ele>11.0</ele><time>2026-04-05T09:45:11Z</time></trkpt><trkpt lat="45.83095846001377" lon="12.779193553979166"><ele>11.0</ele><time>2026-04-05T09:45:12Z</time></trkpt><trkpt lat="45.83086138844907" lon="12.77918394143447"><ele>11.0</ele><time>2026-04-05T09:45:13Z</time></trkpt><trkpt lat="45.8307840756509" lon="12.779234474789495"><ele>11.0</ele><time>2026-04-05T09:45:14Z</time></trkpt><trkpt lat="45.830719585276356" lon="12.779320572619303"><ele>10.75</ele><time>2026-04-05T09:45:15Z</time></trkpt><trkpt lat="45.830652502147366" lon="12.779460213718474"><ele>10.5</ele><time>2026-04-05T09:45:16Z</time></trkpt><trkpt lat="45.83057443442185" lon="12.779627925888397"><ele>10.25</ele><time>2026-04-05T09:45:17Z</time></trkpt><trkpt lat="45.830462627610004" lon="12.779806483402028"><ele>10.0</ele><time>2026-04-05T09:45:18Z</time></trkpt><trkpt lat="45.83030930329673" lon="12.779975473617402"><ele>10.5</ele><time>2026-04-05T09:45:19Z</time></trkpt><trkpt lat="45.83011305294572" lon="12.780192502777835"><ele>11.0</ele><time>2026-04-05T09:45:20Z</time></trkpt><trkpt lat="45.829925236991514" lon="12.780416905615336"><ele>11.0</ele><time>2026-04-05T09:45:21Z</time></trkpt><trkpt lat="45.82975012283941" lon="12.78057885740575"><ele>11.0</ele><time>2026-04-05T09:45:22Z</time></trkpt><trkpt lat="45.82951603872906" lon="12.780828919802955"><ele>11.0</ele><time>2026-04-05T09:45:23Z</time></trkpt><trkpt lat="45.82932388606846" lon="12.781036907688973"><ele>11.0</ele><time>2026-04-05T09:45:24Z</time></trkpt><trkpt lat="45.82916080809874" lon="12.781232284387485"><ele>11.5</ele><time>2026-04-05T09:45:25Z</time></trkpt><trkpt lat="45.828969357534945" lon="12.781487989471152"><ele>12.0</ele><time>2026-04-05T09:45:26Z</time></trkpt><trkpt lat="45.82879234216781" lon="12.781702323133274"><ele>11.666666666666666</ele><time>2026-04-05T09:45:27Z</time></trkpt><trkpt lat="45.828627035980126" lon="12.781865497808838"><ele>11.333333333333332</ele><time>2026-04-05T09:45:28Z</time></trkpt><trkpt lat="45.828477844425585" lon="12.782038023715725"><ele>11.0</ele><time>2026-04-05T09:45:29Z</time></trkpt><trkpt lat="45.82829975091452" lon="12.782220206612411"><ele>11.0</ele><time>2026-04-05T09:45:30Z</time></trkpt><trkpt lat="45.82814669034048" lon="12.782373193549192"><ele>11.0</ele><time>2026-04-05T09:45:31Z</time></trkpt><trkpt lat="45.82804087444365" lon="12.782488606917196"><ele>11.0</ele><time>2026-04-05T09:45:32Z</time></trkpt><trkpt lat="45.82793381377527" lon="12.782605581916135"><ele>11.25</ele><time>2026-04-05T09:45:33Z</time></trkpt><trkpt lat="45.82786666132717" lon="12.782739551070653"><ele>11.5</ele><time>2026-04-05T09:45:34Z</time></trkpt><trkpt lat="45.827760836921115" lon="12.782864380498426"><ele>11.75</ele><time>2026-04-05T09:45:35Z</time></trkpt><trkpt lat="45.82766821133943" lon="12.782973329570265"><ele>12.0</ele><time>2026-04-05T09:45:36Z</time></trkpt><trkpt lat="45.82758069164194" lon="12.783105012631788"><ele>12.0</ele><time>2026-04-05T09:45:37Z</time></trkpt><trkpt lat="45.82746386275025" lon="12.783221630294523"><ele>12.0</ele><time>2026-04-05T09:45:38Z</time></trkpt><trkpt lat="45.827348776323085" lon="12.783333238184397"><ele>12.0</ele><time>2026-04-05T09:45:39Z</time></trkpt><trkpt lat="45.82721161342962" lon="12.783471203049343"><ele>12.0</ele><time>2026-04-05T09:45:40Z</time></trkpt><trkpt lat="45.82708593934811" lon="12.783606425308896"><ele>12.0</ele><time>2026-04-05T09:45:41Z</time></trkpt><trkpt lat="45.826967115910485" lon="12.783735169389558"><ele>12.0</ele><time>2026-04-05T09:45:42Z</time></trkpt><trkpt lat="45.826851469739466" lon="12.783844601598554"><ele>12.0</ele><time>2026-04-05T09:45:43Z</time></trkpt><trkpt lat="45.82676310686721" lon="12.783936522978106"><ele>12.0</ele><time>2026-04-05T09:45:44Z</time></trkpt><trkpt lat="45.826655544354054" lon="12.784069064739432"><ele>11.5</ele><time>2026-04-05T09:45:45Z</time></trkpt><trkpt lat="45.82654896096908" lon="12.784173812639422"><ele>11.0</ele><time>2026-04-05T09:45:46Z</time></trkpt><trkpt lat="45.82642931907844" lon="12.784315351746669"><ele>10.5</ele><time>2026-04-05T09:45:47Z</time></trkpt><trkpt lat="45.82630719406602" lon="12.784465001377685"><ele>10.0</ele><time>2026-04-05T09:45:48Z</time></trkpt><trkpt lat="45.82618859446903" lon="12.784649618291088"><ele>10.0</ele><time>2026-04-05T09:45:49Z</time></trkpt><trkpt lat="45.826133787587224" lon="12.784806628816021"><ele>10.0</ele><time>2026-04-05T09:45:50Z</time></trkpt><trkpt lat="45.82605193443231" lon="12.78498329769603"><ele>10.0</ele><time>2026-04-05T09:45:51Z</time></trkpt><trkpt lat="45.82600886973198" lon="12.785121755524633"><ele>10.0</ele><time>2026-04-05T09:45:52Z</time></trkpt><trkpt lat="45.8259405136666" lon="12.78527971860506"><ele>10.0</ele><time>2026-04-05T09:45:53Z</time></trkpt><trkpt lat="45.82586820937652" lon="12.78541741976639"><ele>10.0</ele><time>2026-04-05T09:45:54Z</time></trkpt><trkpt lat="45.82577165911238" lon="12.785523193606751"><ele>10.0</ele><time>2026-04-05T09:45:55Z</time></trkpt><trkpt lat="45.82567524596753" lon="12.785620303398003"><ele>10.0</ele><time>2026-04-05T09:45:56Z</time></trkpt><trkpt lat="45.82555527558675" lon="12.78568752930689"><ele>10.0</ele><time>2026-04-05T09:45:57Z</time></trkpt><trkpt lat="45.82542641314976" lon="12.785751254966142"><ele>10.0</ele><time>2026-04-05T09:45:58Z</time></trkpt><trkpt lat="45.82531296714819" lon="12.785823584667659"><ele>10.0</ele><time>2026-04-05T09:45:59Z</time></trkpt><trkpt lat="45.82515799214094" lon="12.78583757943478"><ele>10.0</ele><time>2026-04-05T09:46:00Z</time></trkpt><trkpt lat="45.8250163251607" lon="12.785871700183677"><ele>10.0</ele><time>2026-04-05T09:46:00.999Z</time></trkpt><trkpt lat="45.82489949094924" lon="12.785951701987663"><ele>10.0</ele><time>2026-04-05T09:46:01.999Z</time></trkpt><trkpt lat="45.82478044602909" lon="12.786064374287479"><ele>10.0</ele><time>2026-04-05T09:46:02.999Z</time></trkpt><trkpt lat="45.82466318986775" lon="12.786179184994362"><ele>10.0</ele><time>2026-04-05T09:46:03.999Z</time></trkpt><trkpt lat="45.82454418026448" lon="12.786314480397902"><ele>10.0</ele><time>2026-04-05T09:46:04.999Z</time></trkpt><trkpt lat="45.824431870729626" lon="12.786434006387864"><ele>10.0</ele><time>2026-04-05T09:46:05.999Z</time></trkpt><trkpt lat="45.82433124045175" lon="12.78656857284552"><ele>10.0</ele><time>2026-04-05T09:46:06.999Z</time></trkpt><trkpt lat="45.82426712338281" lon="12.786718344972265"><ele>10.0</ele><time>2026-04-05T09:46:07.999Z</time></trkpt><trkpt lat="45.82421793908493" lon="12.786825135843928"><ele>10.2</ele><time>2026-04-05T09:46:08.999Z</time></trkpt><trkpt lat="45.824164379847396" lon="12.786983027929898"><ele>10.4</ele><time>2026-04-05T09:46:10.999Z</time></trkpt><trkpt lat="45.82408675003012" lon="12.786978416548497"><ele>10.600000000000001</ele><time>2026-04-05T09:46:11.999Z</time></trkpt><trkpt lat="45.82398765466808" lon="12.787008881840068"><ele>10.8</ele><time>2026-04-05T09:46:12.999Z</time></trkpt><trkpt lat="45.823901753688844" lon="12.787135130498996"><ele>11.0</ele><time>2026-04-05T09:46:14.999Z</time></trkpt><trkpt lat="45.823766773409396" lon="12.787198742874255"><ele>11.0</ele><time>2026-04-05T09:46:19.999Z</time></trkpt></trkseg><trkseg><trkpt lat="45.7942747604531" lon="13.031719783333159"><ele>2.0</ele><time>2026-04-05T15:10:39.999Z</time></trkpt><trkpt lat="45.794500028929974" lon="13.031500999847504"><ele>1.0</ele><time>2026-04-05T15:10:49.999Z</time></trkpt><trkpt lat="45.794378051908176" lon="13.030865507057111"><ele>1.3333333333333333</ele><time>2026-04-05T15:10:51.999Z</time></trkpt><trkpt lat="45.79420799920139" lon="13.030515759830834"><ele>1.6666666666666665</ele><time>2026-04-05T15:10:52.999Z</time></trkpt><trkpt lat="45.79416768124586" lon="13.030338739516907"><ele>2.0</ele><time>2026-04-05T15:10:53.999Z</time></trkpt><trkpt lat="45.794111033184485" lon="13.0301837730426"><ele>2.0</ele><time>2026-04-05T15:10:54.999Z</time></trkpt><trkpt lat="45.79394002867598" lon="13.028282698861045"><ele>2.0</ele><time>2026-04-05T15:10:55.999Z</time></trkpt><trkpt lat="45.7938488701811" lon="13.027839893624158"><ele>2.0</ele><time>2026-04-05T15:10:56.999Z</time></trkpt><trkpt lat="45.793844569589865" lon="13.02752533570537"><ele>5.0</ele><time>2026-04-05T15:10:58.999Z</time></trkpt><trkpt lat="45.793565036755275" lon="13.025007909408457"><ele>5.0</ele><time>2026-04-05T15:11:05.999Z</time></trkpt><trkpt lat="45.793531190913164" lon="13.024728692454149"><ele>5.0</ele><time>2026-04-05T15:11:06.999Z</time></trkpt><trkpt lat="45.79349563131918" lon="13.024405606450848"><ele>5.0</ele><time>2026-04-05T15:11:07.999Z</time></trkpt><trkpt lat="45.79340553633063" lon="13.024098904493783"><ele>3.5</ele><time>2026-04-05T15:11:09.016Z</time></trkpt><trkpt lat="45.79336431573225" lon="13.023781582747427"><ele>2.0</ele><time>2026-04-05T15:11:10.014Z</time></trkpt><trkpt lat="45.79332280612289" lon="13.023463011693783"><ele>2.0</ele><time>2026-04-05T15:11:11.016Z</time></trkpt><trkpt lat="45.79328223898202" lon="13.023142990324855"><ele>2.0</ele><time>2026-04-05T15:11:12.013Z</time></trkpt><trkpt lat="45.793244045344736" lon="13.022823992739353"><ele>6.0</ele><time>2026-04-05T15:11:13.015Z</time></trkpt><trkpt lat="45.79305241110306" lon="13.019644761544894"><ele>4.0</ele><time>2026-04-05T15:11:24.998Z</time></trkpt><trkpt lat="45.7917666254958" lon="13.018559530819127"><ele>5.0</ele><time>2026-04-05T15:11:44.845Z</time></trkpt><trkpt lat="45.78014769129993" lon="12.99895190635044"><ele>5.0</ele><time>2026-04-05T15:13:05.998Z</time></trkpt><trkpt lat="45.78003385611623" lon="12.998760945679793"><ele>5.0</ele><time>2026-04-05T15:13:06.998Z</time></trkpt><trkpt lat="45.77992141737635" lon="12.998605066276005"><ele>5.0</ele><time>2026-04-05T15:13:07.998Z</time></trkpt><trkpt lat="45.77984130936172" lon="12.998465831637096"><ele>5.0</ele><time>2026-04-05T15:13:08.998Z</time></trkpt><trkpt lat="45.7797488071862" lon="12.998299241621952"><ele>5.0</ele><time>2026-04-05T15:13:09.998Z</time></trkpt><trkpt lat="45.77965232710839" lon="12.998140970548825"><ele>5.0</ele><time>2026-04-05T15:13:10.998Z</time></trkpt><trkpt lat="45.77955339670658" lon="12.997992539973481"><ele>5.0</ele><time>2026-04-05T15:13:11.998Z</time></trkpt><trkpt lat="45.77946573594677" lon="12.997836110035095"><ele>5.0</ele><time>2026-04-05T15:13:12.998Z</time></trkpt><trkpt lat="45.7794190254191" lon="12.997690715500378"><ele>5.0</ele><time>2026-04-05T15:13:13.998Z</time></trkpt><trkpt lat="45.7793463364248" lon="12.997555672648712"><ele>5.0</ele><time>2026-04-05T15:13:14.998Z</time></trkpt><trkpt lat="45.77924112026411" lon="12.997395240598777"><ele>5.0</ele><time>2026-04-05T15:13:15.999Z</time></trkpt><trkpt lat="45.77917517668567" lon="12.997279715560548"><ele>5.25</ele><time>2026-04-05T15:13:16.999Z</time></trkpt><trkpt lat="45.77911010449169" lon="12.997131505729454"><ele>5.5</ele><time>2026-04-05T15:13:17.999Z</time></trkpt><trkpt lat="45.77904088727721" lon="12.997000270689105"><ele>5.75</ele><time>2026-04-05T15:13:18.999Z</time></trkpt><trkpt lat="45.77895969394473" lon="12.99692177917126"><ele>6.0</ele><time>2026-04-05T15:13:19.999Z</time></trkpt><trkpt lat="45.778870995244176" lon="12.996788617522435"><ele>6.0</ele><time>2026-04-05T15:13:20.999Z</time></trkpt><trkpt lat="45.778803239373325" lon="12.99666149324158"><ele>6.0</ele><time>2026-04-05T15:13:21.999Z</time></trkpt><trkpt lat="45.77873224725654" lon="12.996545297173247"><ele>6.0</ele><time>2026-04-05T15:13:22.999Z</time></trkpt><trkpt lat="45.77865333276093" lon="12.996454346758087"><ele>6.0</ele><time>2026-04-05T15:13:23.999Z</time></trkpt><trkpt lat="45.77857504576088" lon="12.996354969361564"><ele>6.0</ele><time>2026-04-05T15:13:24.999Z</time></trkpt><trkpt lat="45.77850243824786" lon="12.996273522011041"><ele>6.0</ele><time>2026-04-05T15:13:25.999Z</time></trkpt><trkpt lat="45.778452565580054" lon="12.996165797957385"><ele>6.0</ele><time>2026-04-05T15:13:26.999Z</time></trkpt><trkpt lat="45.77839502232041" lon="12.996090934924208"><ele>6.0</ele><time>2026-04-05T15:13:27.999Z</time></trkpt><trkpt lat="45.778345304549" lon="12.996026252481203"><ele>6.0</ele><time>2026-04-05T15:13:28.999Z</time></trkpt><trkpt lat="45.77826589400886" lon="12.995915911621877"><ele>6.0</ele><time>2026-04-05T15:13:30.999Z</time></trkpt><trkpt lat="45.77820836197359" lon="12.995826944154782"><ele>6.0</ele><time>2026-04-05T15:13:31.999Z</time></trkpt><trkpt lat="45.77814060709121" lon="12.995744172607587"><ele>6.0</ele><time>2026-04-05T15:13:32.999Z</time></trkpt><trkpt lat="45.77803145948548" lon="12.995550436813087"><ele>6.0</ele><time>2026-04-05T15:13:35Z</time></trkpt><trkpt lat="45.77793353863852" lon="12.995402953779633"><ele>6.0</ele><time>2026-04-05T15:13:36Z</time></trkpt><trkpt lat="45.77783776066444" lon="12.995271109163228"><ele>6.0</ele><time>2026-04-05T15:13:37Z</time></trkpt><trkpt lat="45.777776636667916" lon="12.995224349816178"><ele>6.199999999999999</ele><time>2026-04-05T15:13:38Z</time></trkpt><trkpt lat="45.777683557351516" lon="12.99511394381265"><ele>6.3999999999999995</ele><time>2026-04-05T15:13:40Z</time></trkpt><trkpt lat="45.77759280427193" lon="12.99502328903058"><ele>6.6</ele><time>2026-04-05T15:13:42Z</time></trkpt><trkpt lat="45.77750750560278" lon="12.99492900451867"><ele>6.8</ele><time>2026-04-05T15:13:44Z</time></trkpt><trkpt lat="45.77741109475706" lon="12.994855577364829"><ele>7.0</ele><time>2026-04-05T15:13:46Z</time></trkpt><trkpt lat="45.777356146168934" lon="12.994810315141029"><ele>7.0</ele><time>2026-04-05T15:13:50Z</time></trkpt><trkpt lat="45.7769144401497" lon="12.994406173043812"><ele>7.0</ele><time>2026-04-05T15:13:51Z</time></trkpt><trkpt lat="45.77723361307171" lon="12.994151009649803"><ele>7.0</ele><time>2026-04-05T15:13:55Z</time></trkpt><trkpt lat="45.777120772049926" lon="12.99423471632908"><ele>7.0</ele><time>2026-04-05T15:13:59Z</time></trkpt><trkpt lat="45.77722802208835" lon="12.994173069168841"><ele>6.999999999999999</ele><time>2026-04-05T15:14:00Z</time></trkpt><trkpt lat="45.77730469603332" lon="12.994092192262425"><ele>6.999999999999999</ele><time>2026-04-05T15:14:01Z</time></trkpt><trkpt lat="45.77737577780583" lon="12.99403125474926"><ele>7.0</ele><time>2026-04-05T15:14:02Z</time></trkpt><trkpt lat="45.77745148795529" lon="12.994000811853665"><ele>7.0</ele><time>2026-04-05T15:14:02.999Z</time></trkpt><trkpt lat="45.77754466792295" lon="12.993958872408099"><ele>7.0</ele><time>2026-04-05T15:14:03.999Z</time></trkpt><trkpt lat="45.77765596336414" lon="12.993931306794037"><ele>7.0</ele><time>2026-04-05T15:14:05.014Z</time></trkpt><trkpt lat="45.777762807380554" lon="12.993878121831637"><ele>7.0</ele><time>2026-04-05T15:14:06.015Z</time></trkpt><trkpt lat="45.77803205527183" lon="12.993698509440934"><ele>7.0</ele><time>2026-04-05T15:14:17.468Z</time></trkpt><trkpt lat="45.77788642146231" lon="12.993556475278915"><ele>7.0</ele><time>2026-04-05T15:14:17.999Z</time></trkpt><trkpt lat="45.778273657868546" lon="12.993755281499508"><ele>6.5</ele><time>2026-04-05T15:14:19.999Z</time></trkpt><trkpt lat="45.77842392550138" lon="12.994302942403355"><ele>6.0</ele><time>2026-04-05T15:14:20.999Z</time></trkpt><trkpt lat="45.77844870225378" lon="12.994431322742448"><ele>6.0</ele><time>2026-04-05T15:14:21.999Z</time></trkpt><trkpt lat="45.77849619699653" lon="12.99450051460413"><ele>6.0</ele><time>2026-04-05T15:14:22.999Z</time></trkpt><trkpt lat="45.77855493649309" lon="12.99459756262707"><ele>6.0</ele><time>2026-04-05T15:14:23.999Z</time></trkpt><trkpt lat="45.778605137191484" lon="12.994680503269722"><ele>6.0</ele><time>2026-04-05T15:14:25.999Z</time></trkpt><trkpt lat="45.77850071655487" lon="12.994987490629379"><ele>5.666666666666667</ele><time>2026-04-05T15:14:27.999Z</time></trkpt><trkpt lat="45.77853855729206" lon="12.995094147346412"><ele>5.333333333333334</ele><time>2026-04-05T15:14:28.999Z</time></trkpt><trkpt lat="45.7786254717324" lon="12.99526479038683"><ele>5.0</ele><time>2026-04-05T15:14:30.999Z</time></trkpt><trkpt lat="45.778901089447075" lon="12.995257300339109"><ele>5.0</ele><time>2026-04-05T15:14:32.999Z</time></trkpt><trkpt lat="45.7789483814804" lon="12.995334752444947"><ele>5.0</ele><time>2026-04-05T15:14:33.999Z</time></trkpt><trkpt lat="45.77893570964972" lon="12.995456582684147"><ele>5.0</ele><time>2026-04-05T15:14:35.999Z</time></trkpt><trkpt lat="45.77898159711598" lon="12.995558942306662"><ele>5.0</ele><time>2026-04-05T15:14:37.999Z</time></trkpt><trkpt lat="45.77890133780147" lon="12.995301590197867"><ele>5.0</ele><time>2026-04-05T15:14:39.999Z</time></trkpt><trkpt lat="45.7789940522174" lon="12.9952361191444"><ele>5.0</ele><time>2026-04-05T15:14:40.999Z</time></trkpt><trkpt lat="45.779060723349765" lon="12.995031871834609"><ele>5.0</ele><time>2026-04-05T15:14:41.999Z</time></trkpt><trkpt lat="45.77914466451012" lon="12.995131338309651"><ele>5.0</ele><time>2026-04-05T15:15:00.014Z</time></trkpt><trkpt lat="45.77928538471103" lon="12.995276671721406"><ele>5.0</ele><time>2026-04-05T15:15:01.014Z</time></trkpt><trkpt lat="45.77942445997807" lon="12.995259757831061"><ele>5.0</ele><time>2026-04-05T15:15:04.016Z</time></trkpt><trkpt lat="45.78472337224128" lon="12.992816688504995"><ele>5.0</ele><time>2026-04-05T15:15:43.999Z</time></trkpt><trkpt lat="45.78486599629248" lon="12.992745156441478"><ele>5.0</ele><time>2026-04-05T15:15:44.999Z</time></trkpt><trkpt lat="45.78493635584278" lon="12.992725114087355"><ele>5.0</ele><time>2026-04-05T15:15:45.999Z</time></trkpt><trkpt lat="45.78501462768356" lon="12.992655702196602"><ele>5.0</ele><time>2026-04-05T15:15:46.999Z</time></trkpt><trkpt lat="45.78508807824083" lon="12.992598340243587"><ele>5.0</ele><time>2026-04-05T15:15:47.999Z</time></trkpt><trkpt lat="45.78522537320091" lon="12.992529463906463"><ele>5.333333333333334</ele><time>2026-04-05T15:15:48.999Z</time></trkpt><trkpt lat="45.7853558562985" lon="12.99245962022355"><ele>5.666666666666667</ele><time>2026-04-05T15:15:49.999Z</time></trkpt><trkpt lat="45.78550377961489" lon="12.992370914936158"><ele>6.0</ele><time>2026-04-05T15:15:50.999Z</time></trkpt><trkpt lat="45.785674980335735" lon="12.992285196408806"><ele>6.0</ele><time>2026-04-05T15:15:52Z</time></trkpt><trkpt lat="45.785817382461886" lon="12.992242239569213"><ele>6.0</ele><time>2026-04-05T15:15:53Z</time></trkpt><trkpt lat="45.78595600612154" lon="12.99216534657711"><ele>6.0</ele><time>2026-04-05T15:15:54Z</time></trkpt><trkpt lat="45.78614396227125" lon="12.992115688065706"><ele>5.666666666666667</ele><time>2026-04-05T15:15:55Z</time></trkpt><trkpt lat="45.786281595615286" lon="12.992076345384321"><ele>5.333333333333334</ele><time>2026-04-05T15:15:56Z</time></trkpt><trkpt lat="45.78645082627099" lon="12.992043510494176"><ele>5.0</ele><time>2026-04-05T15:15:57Z</time></trkpt><trkpt lat="45.786604499899184" lon="12.99201848393332"><ele>5.0</ele><time>2026-04-05T15:15:58Z</time></trkpt><trkpt lat="45.78673975833153" lon="12.991996373917724"><ele>5.0</ele><time>2026-04-05T15:15:59Z</time></trkpt><trkpt lat="45.78687189109168" lon="12.991973159216876"><ele>5.0</ele><time>2026-04-05T15:16:00Z</time></trkpt><trkpt lat="45.78701688335332" lon="12.991951671133995"><ele>5.0</ele><time>2026-04-05T15:16:01Z</time></trkpt><trkpt lat="45.787138549718485" lon="12.991941457532194"><ele>5.25</ele><time>2026-04-05T15:16:02Z</time></trkpt><trkpt lat="45.78727313657494" lon="12.991909774087873"><ele>5.5</ele><time>2026-04-05T15:16:03Z</time></trkpt><trkpt lat="45.7873962418381" lon="12.991888579971803"><ele>5.75</ele><time>2026-04-05T15:16:04Z</time></trkpt><trkpt lat="45.78753157116143" lon="12.991866224951654"><ele>6.0</ele><time>2026-04-05T15:16:05Z</time></trkpt><trkpt lat="45.78764376171717" lon="12.991849969437004"><ele>5.75</ele><time>2026-04-05T15:16:06Z</time></trkpt><trkpt lat="45.787761957449945" lon="12.99183428554686"><ele>5.5</ele><time>2026-04-05T15:16:07Z</time></trkpt><trkpt lat="45.78787193061534" lon="12.991827249875872"><ele>5.25</ele><time>2026-04-05T15:16:08Z</time></trkpt><trkpt lat="45.78798968781533" lon="12.991810881128798"><ele>5.0</ele><time>2026-04-05T15:16:09Z</time></trkpt><trkpt lat="45.7880969280743" lon="12.991803236326248"><ele>5.0</ele><time>2026-04-05T15:16:10Z</time></trkpt><trkpt lat="45.78819509699129" lon="12.99179149582073"><ele>5.0</ele><time>2026-04-05T15:16:11Z</time></trkpt><trkpt lat="45.7882978081384" lon="12.991780911219793"><ele>5.0</ele><time>2026-04-05T15:16:12Z</time></trkpt><trkpt lat="45.78838853159234" lon="12.991764884942388"><ele>5.0</ele><time>2026-04-05T15:16:13Z</time></trkpt><trkpt lat="45.788468834663675" lon="12.991753866015724"><ele>5.0</ele><time>2026-04-05T15:16:14Z</time></trkpt><trkpt lat="45.78854038617781" lon="12.991750367232038"><ele>5.0</ele><time>2026-04-05T15:16:15Z</time></trkpt><trkpt lat="45.78861709171116" lon="12.991733641383368"><ele>5.0</ele><time>2026-04-05T15:16:16Z</time></trkpt><trkpt lat="45.788730790551085" lon="12.99171274985291"><ele>5.0</ele><time>2026-04-05T15:16:18Z</time></trkpt><trkpt lat="45.788839033761946" lon="12.991693091478627"><ele>5.0</ele><time>2026-04-05T15:16:20Z</time></trkpt><trkpt lat="45.788923621996545" lon="12.991671616673342"><ele>5.0</ele><time>2026-04-05T15:16:22Z</time></trkpt><trkpt lat="45.78900523752428" lon="12.99165466205279"><ele>5.0</ele><time>2026-04-05T15:16:25Z</time></trkpt><trkpt lat="45.78912655838309" lon="12.991662077837331"><ele>5.2</ele><time>2026-04-05T15:16:43Z</time></trkpt><trkpt lat="45.789207163465726" lon="12.99164923694037"><ele>5.4</ele><time>2026-04-05T15:16:44Z</time></trkpt><trkpt lat="45.78930081211821" lon="12.991633777475876"><ele>5.6</ele><time>2026-04-05T15:16:45Z</time></trkpt><trkpt lat="45.78940533132705" lon="12.991612789865346"><ele>5.8</ele><time>2026-04-05T15:16:46Z</time></trkpt><trkpt lat="45.78952654751852" lon="12.991588640148727"><ele>6.0</ele><time>2026-04-05T15:16:47Z</time></trkpt><trkpt lat="45.78965934721085" lon="12.991567960590022"><ele>6.0</ele><time>2026-04-05T15:16:48Z</time></trkpt><trkpt lat="45.789797993221754" lon="12.991557619507834"><ele>6.0</ele><time>2026-04-05T15:16:49Z</time></trkpt><trkpt lat="45.78993331102868" lon="12.991512114567321"><ele>6.0</ele><time>2026-04-05T15:16:50Z</time></trkpt><trkpt lat="45.790113287950675" lon="12.991489430153742"><ele>5.666666666666667</ele><time>2026-04-05T15:16:51Z</time></trkpt><trkpt lat="45.79029672911581" lon="12.991484453013616"><ele>5.333333333333334</ele><time>2026-04-05T15:16:52Z</time></trkpt><trkpt lat="45.7904831574197" lon="12.991458589501203"><ele>5.0</ele><time>2026-04-05T15:16:53Z</time></trkpt><trkpt lat="45.7906811247228" lon="12.99143105424391"><ele>5.0</ele><time>2026-04-05T15:16:54Z</time></trkpt><trkpt lat="45.79087654067112" lon="12.99140481672774"><ele>5.0</ele><time>2026-04-05T15:16:55Z</time></trkpt><trkpt lat="45.7910623865573" lon="12.991355042668792"><ele>5.0</ele><time>2026-04-05T15:16:56Z</time></trkpt><trkpt lat="45.79124151867926" lon="12.991330599197918"><ele>5.0</ele><time>2026-04-05T15:16:57Z</time></trkpt><trkpt lat="45.791423160396036" lon="12.991310660592983"><ele>5.0</ele><time>2026-04-05T15:16:58Z</time></trkpt><trkpt lat="45.791594951366335" lon="12.991301973051819"><ele>5.0</ele><time>2026-04-05T15:16:59Z</time></trkpt><trkpt lat="45.79176966637056" lon="12.991254683296855"><ele>5.333333333333334</ele><time>2026-04-05T15:17:00Z</time></trkpt><trkpt lat="45.791943413138135" lon="12.991252231502923"><ele>5.666666666666667</ele><time>2026-04-05T15:17:01Z</time></trkpt><trkpt lat="45.79211343757437" lon="12.991211798831818"><ele>6.0</ele><time>2026-04-05T15:17:02Z</time></trkpt><trkpt lat="45.79228458925022" lon="12.99119378440614"><ele>6.0</ele><time>2026-04-05T15:17:03Z</time></trkpt><trkpt lat="45.79245675614643" lon="12.99117582038496"><ele>6.0</ele><time>2026-04-05T15:17:04Z</time></trkpt><trkpt lat="45.79262418313935" lon="12.991156494614705"><ele>6.0</ele><time>2026-04-05T15:17:05Z</time></trkpt><trkpt lat="45.79279088699411" lon="12.99113109014041"><ele>5.666666666666667</ele><time>2026-04-05T15:17:06Z</time></trkpt><trkpt lat="45.792950149933674" lon="12.991101332415433"><ele>5.333333333333334</ele><time>2026-04-05T15:17:07Z</time></trkpt><trkpt lat="45.79311142567626" lon="12.991083054644063"><ele>5.0</ele><time>2026-04-05T15:17:08Z</time></trkpt><trkpt lat="45.79326272145857" lon="12.991056260146227"><ele>5.0</ele><time>2026-04-05T15:17:09Z</time></trkpt><trkpt lat="45.79340167043989" lon="12.991029764355405"><ele>5.0</ele><time>2026-04-05T15:17:10Z</time></trkpt><trkpt lat="45.793538567559146" lon="12.991012069070692"><ele>5.0</ele><time>2026-04-05T15:17:11Z</time></trkpt><trkpt lat="45.79366490935509" lon="12.991001287979225"><ele>5.0</ele><time>2026-04-05T15:17:12Z</time></trkpt><trkpt lat="45.79378034246647" lon="12.990995031137706"><ele>5.0</ele><time>2026-04-05T15:17:13Z</time></trkpt><trkpt lat="45.793875234534845" lon="12.990993342462314"><ele>5.0</ele><time>2026-04-05T15:17:14Z</time></trkpt><trkpt lat="45.793940534964975" lon="12.990981850341239"><ele>5.0</ele><time>2026-04-05T15:17:15Z</time></trkpt><trkpt lat="45.79400599004375" lon="12.990994735669284"><ele>5.0</ele><time>2026-04-05T15:17:17Z</time></trkpt><trkpt lat="45.79396608306487" lon="12.990752825714605"><ele>5.0</ele><time>2026-04-05T15:17:19Z</time></trkpt><trkpt lat="45.79389000318649" lon="12.990698964146757"><ele>5.0</ele><time>2026-04-05T15:17:20Z</time></trkpt><trkpt lat="45.79382278938159" lon="12.990611708213853"><ele>5.0</ele><time>2026-04-05T15:17:21Z</time></trkpt><trkpt lat="45.79373384261927" lon="12.990556284754414"><ele>5.0</ele><time>2026-04-05T15:17:21.999Z</time></trkpt><trkpt lat="45.79364843415454" lon="12.99047395132851"><ele>5.0</ele><time>2026-04-05T15:17:22.999Z</time></trkpt><trkpt lat="45.793549494875904" lon="12.99038533676778"><ele>5.0</ele><time>2026-04-05T15:17:23.999Z</time></trkpt><trkpt lat="45.79343649611618" lon="12.990285562208907"><ele>5.5</ele><time>2026-04-05T15:17:24.999Z</time></trkpt><trkpt lat="45.79332911997027" lon="12.990180621748738"><ele>6.0</ele><time>2026-04-05T15:17:25.999Z</time></trkpt><trkpt lat="45.79322534397391" lon="12.99005232988109"><ele>6.5</ele><time>2026-04-05T15:17:26.999Z</time></trkpt><trkpt lat="45.79312289352285" lon="12.989898048499837"><ele>7.0</ele><time>2026-04-05T15:17:27.999Z</time></trkpt><trkpt lat="45.79301822348981" lon="12.989742746301323"><ele>7.0</ele><time>2026-04-05T15:17:28.999Z</time></trkpt><trkpt lat="45.7929059814164" lon="12.989585116301933"><ele>7.0</ele><time>2026-04-05T15:17:29.999Z</time></trkpt><trkpt lat="45.79279122282064" lon="12.98943187208539"><ele>7.0</ele><time>2026-04-05T15:17:30.999Z</time></trkpt><trkpt lat="45.792671428638805" lon="12.989284293020841"><ele>6.666666666666667</ele><time>2026-04-05T15:17:31.999Z</time></trkpt><trkpt lat="45.79254967551078" lon="12.989146761743047"><ele>6.333333333333334</ele><time>2026-04-05T15:17:32.999Z</time></trkpt><trkpt lat="45.79242552957055" lon="12.989020303313737"><ele>6.0</ele><time>2026-04-05T15:17:33.999Z</time></trkpt><trkpt lat="45.792297169193844" lon="12.98889901633151"><ele>6.0</ele><time>2026-04-05T15:17:34.999Z</time></trkpt><trkpt lat="45.79216227726877" lon="12.988791807919197"><ele>6.0</ele><time>2026-04-05T15:17:35.999Z</time></trkpt><trkpt lat="45.792033142724975" lon="12.988654052341166"><ele>6.0</ele><time>2026-04-05T15:17:36.999Z</time></trkpt><trkpt lat="45.79188287893505" lon="12.988552026274553"><ele>6.0</ele><time>2026-04-05T15:17:37.999Z</time></trkpt><trkpt lat="45.79173435787899" lon="12.988433716981948"><ele>6.0</ele><time>2026-04-05T15:17:38.999Z</time></trkpt><trkpt lat="45.79157997720217" lon="12.988320199880278"><ele>6.0</ele><time>2026-04-05T15:17:39.999Z</time></trkpt><trkpt lat="45.791420503964844" lon="12.988216117773678"><ele>6.0</ele><time>2026-04-05T15:17:40.999Z</time></trkpt><trkpt lat="45.79125324096722" lon="12.98811877761119"><ele>6.0</ele><time>2026-04-05T15:17:41.999Z</time></trkpt><trkpt lat="45.79108935639786" lon="12.988026766108176"><ele>6.0</ele><time>2026-04-05T15:17:42.999Z</time></trkpt><trkpt lat="45.790938835417776" lon="12.98794034667137"><ele>5.666666666666667</ele><time>2026-04-05T15:17:43.999Z</time></trkpt><trkpt lat="45.79079007522365" lon="12.987860590462065"><ele>5.333333333333334</ele><time>2026-04-05T15:17:44.999Z</time></trkpt><trkpt lat="45.790649177827675" lon="12.987789113607787"><ele>5.0</ele><time>2026-04-05T15:17:45.999Z</time></trkpt><trkpt lat="45.79051304466618" lon="12.987719915672548"><ele>5.0</ele><time>2026-04-05T15:17:46.999Z</time></trkpt><trkpt lat="45.790375434415495" lon="12.987646419966824"><ele>5.0</ele><time>2026-04-05T15:17:47.999Z</time></trkpt><trkpt lat="45.79024450078702" lon="12.987567120260598"><ele>5.0</ele><time>2026-04-05T15:17:48.999Z</time></trkpt><trkpt lat="45.79012935571955" lon="12.987480118188044"><ele>5.0</ele><time>2026-04-05T15:17:49.999Z</time></trkpt><trkpt lat="45.790015527870146" lon="12.987398669835724"><ele>5.5</ele><time>2026-04-05T15:17:50.999Z</time></trkpt><trkpt lat="45.78990692030999" lon="12.987316562057776"><ele>6.0</ele><time>2026-04-05T15:17:51.999Z</time></trkpt><trkpt lat="45.78979239655995" lon="12.987237215417673"><ele>6.5</ele><time>2026-04-05T15:17:52.999Z</time></trkpt><trkpt lat="45.78968162879184" lon="12.987160865917796"><ele>7.0</ele><time>2026-04-05T15:17:53.999Z</time></trkpt><trkpt lat="45.78957282556479" lon="12.987079856083799"><ele>7.0</ele><time>2026-04-05T15:17:54.999Z</time></trkpt><trkpt lat="45.78946573166072" lon="12.987002113310687"><ele>7.0</ele><time>2026-04-05T15:17:55.999Z</time></trkpt><trkpt lat="45.7893567298072" lon="12.986921865031752"><ele>7.0</ele><time>2026-04-05T15:17:56.999Z</time></trkpt><trkpt lat="45.78925548372038" lon="12.986847891154568"><ele>7.0</ele><time>2026-04-05T15:17:58Z</time></trkpt><trkpt lat="45.78915732938797" lon="12.986784598074816"><ele>7.0</ele><time>2026-04-05T15:17:59Z</time></trkpt><trkpt lat="45.78905712702447" lon="12.986747347308349"><ele>6.999999999999999</ele><time>2026-04-05T15:18:00Z</time></trkpt><trkpt lat="45.788949652748315" lon="12.98672579361302"><ele>6.999999999999999</ele><time>2026-04-05T15:18:01Z</time></trkpt><trkpt lat="45.788843820564296" lon="12.98671766287354"><ele>7.0</ele><time>2026-04-05T15:18:02Z</time></trkpt><trkpt lat="45.788740892542144" lon="12.986680443477045"><ele>7.0</ele><time>2026-04-05T15:18:03Z</time></trkpt><trkpt lat="45.788633235323125" lon="12.986649135578498"><ele>7.0</ele><time>2026-04-05T15:18:04Z</time></trkpt><trkpt lat="45.788531856376494" lon="12.986603886617727"><ele>6.999999999999999</ele><time>2026-04-05T15:18:05Z</time></trkpt><trkpt lat="45.788446128906216" lon="12.98650596024615"><ele>6.999999999999999</ele><time>2026-04-05T15:18:06Z</time></trkpt><trkpt lat="45.78836421895338" lon="12.986404104671559"><ele>7.0</ele><time>2026-04-05T15:18:07Z</time></trkpt><trkpt lat="45.78829890495124" lon="12.9862773797217"><ele>7.0</ele><time>2026-04-05T15:18:08Z</time></trkpt><trkpt lat="45.78822917631493" lon="12.986183154372506"><ele>6.3999999999999995</ele><time>2026-04-05T15:18:09Z</time></trkpt><trkpt lat="45.7881766433381" lon="12.986092851471051"><ele>5.799999999999999</ele><time>2026-04-05T15:18:10Z</time></trkpt><trkpt lat="45.788126826353576" lon="12.986021618743116"><ele>5.2</ele><time>2026-04-05T15:18:11Z</time></trkpt><trkpt lat="45.78806838123031" lon="12.98592634761705"><ele>4.6</ele><time>2026-04-05T15:18:13Z</time></trkpt><trkpt lat="45.787938937423036" lon="12.98606250103344"><ele>4.0</ele><time>2026-04-05T15:18:14Z</time></trkpt><trkpt lat="45.787868546706775" lon="12.986107701748264"><ele>4.0</ele><time>2026-04-05T15:18:15Z</time></trkpt><trkpt lat="45.78780387330357" lon="12.98615819989036"><ele>4.0</ele><time>2026-04-05T15:18:16Z</time></trkpt><trkpt lat="45.78773319158836" lon="12.986203487749158"><ele>4.0</ele><time>2026-04-05T15:18:18Z</time></trkpt><trkpt lat="45.78762156567838" lon="12.986079654046694"><ele>4.0</ele><time>2026-04-05T15:18:20Z</time></trkpt><trkpt lat="45.787563643453275" lon="12.985977130526916"><ele>4.0</ele><time>2026-04-05T15:18:21Z</time></trkpt><trkpt lat="45.7874885931586" lon="12.98586294514776"><ele>4.25</ele><time>2026-04-05T15:18:22Z</time></trkpt><trkpt lat="45.78739082195753" lon="12.98574080236246"><ele>4.5</ele><time>2026-04-05T15:18:23Z</time></trkpt><trkpt lat="45.7872971181489" lon="12.985588940737923"><ele>4.75</ele><time>2026-04-05T15:18:24Z</time></trkpt><trkpt lat="45.78717745171585" lon="12.985443775323835"><ele>5.0</ele><time>2026-04-05T15:18:25Z</time></trkpt><trkpt lat="45.787047923670855" lon="12.985300725703143"><ele>5.0</ele><time>2026-04-05T15:18:26Z</time></trkpt><trkpt lat="45.78691725853961" lon="12.985159072443775"><ele>5.0</ele><time>2026-04-05T15:18:27Z</time></trkpt><trkpt lat="45.786799949208564" lon="12.985031775934095"><ele>5.0</ele><time>2026-04-05T15:18:28Z</time></trkpt><trkpt lat="45.78670396274916" lon="12.98491925142382"><ele>5.0</ele><time>2026-04-05T15:18:29Z</time></trkpt><trkpt lat="45.786619022853905" lon="12.984808184738693"><ele>5.2</ele><time>2026-04-05T15:18:30Z</time></trkpt><trkpt lat="45.78654515107182" lon="12.984705889085992"><ele>5.4</ele><time>2026-04-05T15:18:31Z</time></trkpt><trkpt lat="45.786493487296504" lon="12.984596770880813"><ele>5.6</ele><time>2026-04-05T15:18:32Z</time></trkpt><trkpt lat="45.78644281266717" lon="12.984490764422054"><ele>5.8</ele><time>2026-04-05T15:18:33Z</time></trkpt><trkpt lat="45.78639944256884" lon="12.984394037815797"><ele>6.0</ele><time>2026-04-05T15:18:34Z</time></trkpt><trkpt lat="45.78635334475127" lon="12.984262038656754"><ele>6.0</ele><time>2026-04-05T15:18:36Z</time></trkpt><trkpt lat="45.78622010569462" lon="12.984270686911424"><ele>6.0</ele><time>2026-04-05T15:18:37Z</time></trkpt><trkpt lat="45.78615584585329" lon="12.984314808697535"><ele>6.0</ele><time>2026-04-05T15:18:38Z</time></trkpt><trkpt lat="45.78607974605676" lon="12.984366227539848"><ele>6.0</ele><time>2026-04-05T15:18:41Z</time></trkpt><trkpt lat="45.785988976795" lon="12.984444011666199"><ele>6.0</ele><time>2026-04-05T15:18:43Z</time></trkpt><trkpt lat="45.78592193211766" lon="12.984486449265686"><ele>6.4</ele><time>2026-04-05T15:18:44Z</time></trkpt><trkpt lat="45.78584435285992" lon="12.984535751731595"><ele>6.8</ele><time>2026-04-05T15:18:45Z</time></trkpt><trkpt lat="45.7857558116129" lon="12.984589896088286"><ele>7.200000000000001</ele><time>2026-04-05T15:18:46Z</time></trkpt><trkpt lat="45.785662898084986" lon="12.984639468303135"><ele>7.6000000000000005</ele><time>2026-04-05T15:18:47Z</time></trkpt><trkpt lat="45.78556759911422" lon="12.984697963971694"><ele>8.0</ele><time>2026-04-05T15:18:48Z</time></trkpt><trkpt lat="45.785475920508624" lon="12.984757474513092"><ele>7.999999999999999</ele><time>2026-04-05T15:18:49Z</time></trkpt><trkpt lat="45.785384598989985" lon="12.984806923309549"><ele>8.0</ele><time>2026-04-05T15:18:50Z</time></trkpt><trkpt lat="45.78531731764156" lon="12.984841511611304"><ele>8.0</ele><time>2026-04-05T15:18:51Z</time></trkpt><trkpt lat="45.78525869803433" lon="12.9848805367334"><ele>8.0</ele><time>2026-04-05T15:18:52Z</time></trkpt><trkpt lat="45.7851522154952" lon="12.984958292155364"><ele>7.999999999999999</ele><time>2026-04-05T15:18:54Z</time></trkpt><trkpt lat="45.78509700855625" lon="12.985010785125963"><ele>8.0</ele><time>2026-04-05T15:18:55Z</time></trkpt><trkpt lat="45.78502880177504" lon="12.985067854726575"><ele>8.5</ele><time>2026-04-05T15:18:56Z</time></trkpt><trkpt lat="45.78496782492131" lon="12.98514183043274"><ele>9.0</ele><time>2026-04-05T15:18:57Z</time></trkpt><trkpt lat="45.784901082259786" lon="12.985212515152929"><ele>9.5</ele><time>2026-04-05T15:18:58Z</time></trkpt><trkpt lat="45.78484846317442" lon="12.985307241989803"><ele>10.0</ele><time>2026-04-05T15:18:59Z</time></trkpt><trkpt lat="45.78480014619119" lon="12.98541978650294"><ele>10.5</ele><time>2026-04-05T15:19:00Z</time></trkpt><trkpt lat="45.784756523140736" lon="12.985550401053834"><ele>11.0</ele><time>2026-04-05T15:19:01Z</time></trkpt><trkpt lat="45.78473009069749" lon="12.985695223758132"><ele>11.0</ele><time>2026-04-05T15:19:02Z</time></trkpt><trkpt lat="45.78467914982212" lon="12.985840012656267"><ele>11.0</ele><time>2026-04-05T15:19:03Z</time></trkpt><trkpt lat="45.78463814890626" lon="12.985990705688234"><ele>11.0</ele><time>2026-04-05T15:19:04Z</time></trkpt><trkpt lat="45.784599865897796" lon="12.986151067829818"><ele>11.0</ele><time>2026-04-05T15:19:05Z</time></trkpt><trkpt lat="45.784562256714004" lon="12.986318462601629"><ele>10.5</ele><time>2026-04-05T15:19:06Z</time></trkpt><trkpt lat="45.78453492940637" lon="12.986478222791636"><ele>10.0</ele><time>2026-04-05T15:19:07Z</time></trkpt><trkpt lat="45.784513851280146" lon="12.986639311839632"><ele>9.5</ele><time>2026-04-05T15:19:08Z</time></trkpt><trkpt lat="45.784495140909456" lon="12.98680178037668"><ele>9.0</ele><time>2026-04-05T15:19:09Z</time></trkpt><trkpt lat="45.784474073261684" lon="12.986966066960346"><ele>8.333333333333334</ele><time>2026-04-05T15:19:10Z</time></trkpt><trkpt lat="45.78445606293225" lon="12.987117561124087"><ele>7.666666666666667</ele><time>2026-04-05T15:19:11Z</time></trkpt><trkpt lat="45.78444059596139" lon="12.987251393706446"><ele>7.0</ele><time>2026-04-05T15:19:12Z</time></trkpt><trkpt lat="45.784421145825696" lon="12.987373074199422"><ele>6.333333333333334</ele><time>2026-04-05T15:19:13Z</time></trkpt><trkpt lat="45.78440510944773" lon="12.98748501574442"><ele>5.666666666666667</ele><time>2026-04-05T15:19:14Z</time></trkpt><trkpt lat="45.784386752686856" lon="12.987586230322782"><ele>5.0</ele><time>2026-04-05T15:19:15Z</time></trkpt><trkpt lat="45.78437131110933" lon="12.987677877003009"><ele>5.0</ele><time>2026-04-05T15:19:16Z</time></trkpt><trkpt lat="45.78433320023048" lon="12.987858796693656"><ele>5.0</ele><time>2026-04-05T15:19:18Z</time></trkpt><trkpt lat="45.784310624338424" lon="12.987964600415605"><ele>5.0</ele><time>2026-04-05T15:19:19Z</time></trkpt><trkpt lat="45.7842894164094" lon="12.988080453897403"><ele>5.0</ele><time>2026-04-05T15:19:20Z</time></trkpt><trkpt lat="45.78426467710608" lon="12.988212649992807"><ele>5.0</ele><time>2026-04-05T15:19:21Z</time></trkpt><trkpt lat="45.78423349672099" lon="12.98835084149843"><ele>5.0</ele><time>2026-04-05T15:19:21.999Z</time></trkpt><trkpt lat="45.78419856607043" lon="12.988497186008356"><ele>5.0</ele><time>2026-04-05T15:19:22.999Z</time></trkpt><trkpt lat="45.78415976925155" lon="12.988649672848672"><ele>5.0</ele><time>2026-04-05T15:19:23.999Z</time></trkpt><trkpt lat="45.78411809566805" lon="12.988816424095994"><ele>5.0</ele><time>2026-04-05T15:19:24.999Z</time></trkpt><trkpt lat="45.78407323248628" lon="12.988992981455375"><ele>4.333333333333334</ele><time>2026-04-05T15:19:25.999Z</time></trkpt><trkpt lat="45.784021147940756" lon="12.989182483681796"><ele>3.666666666666667</ele><time>2026-04-05T15:19:26.999Z</time></trkpt><trkpt lat="45.783967727082896" lon="12.989385532022737"><ele>3.0</ele><time>2026-04-05T15:19:27.999Z</time></trkpt><trkpt lat="45.78391089212515" lon="12.989596029249356"><ele>3.0</ele><time>2026-04-05T15:19:28.999Z</time></trkpt><trkpt lat="45.783856337161446" lon="12.98981431927062"><ele>3.0</ele><time>2026-04-05T15:19:29.999Z</time></trkpt><trkpt lat="45.78380042251461" lon="12.990029928013275"><ele>3.0</ele><time>2026-04-05T15:19:30.999Z</time></trkpt><trkpt lat="45.78374456414537" lon="12.990247980633074"><ele>3.25</ele><time>2026-04-05T15:19:31.999Z</time></trkpt><trkpt lat="45.78369334389108" lon="12.990456898355035"><ele>3.5</ele><time>2026-04-05T15:19:32.999Z</time></trkpt><trkpt lat="45.7836428002048" lon="12.990647599986271"><ele>3.75</ele><time>2026-04-05T15:19:33.999Z</time></trkpt><trkpt lat="45.78359648571073" lon="12.990821650639118"><ele>4.0</ele><time>2026-04-05T15:19:34.999Z</time></trkpt><trkpt lat="45.78355274822717" lon="12.990980290744844"><ele>4.0</ele><time>2026-04-05T15:19:35.999Z</time></trkpt><trkpt lat="45.783516380226" lon="12.991109364512448"><ele>4.0</ele><time>2026-04-05T15:19:36.999Z</time></trkpt><trkpt lat="45.78349838086658" lon="12.991198590870964"><ele>4.0</ele><time>2026-04-05T15:19:37.999Z</time></trkpt><trkpt lat="45.78359059341801" lon="12.991379954880479"><ele>4.0</ele><time>2026-04-05T15:19:40.999Z</time></trkpt><trkpt lat="45.78364036534865" lon="12.991474740249194"><ele>4.0</ele><time>2026-04-05T15:19:41.999Z</time></trkpt><trkpt lat="45.78367712658585" lon="12.991606631654525"><ele>4.0</ele><time>2026-04-05T15:19:42.999Z</time></trkpt><trkpt lat="45.78371760285363" lon="12.991750914063365"><ele>4.0</ele><time>2026-04-05T15:19:43.999Z</time></trkpt><trkpt lat="45.78376201006366" lon="12.99192334746627"><ele>4.0</ele><time>2026-04-05T15:19:44.999Z</time></trkpt><trkpt lat="45.78380967861978" lon="12.992105693504511"><ele>4.0</ele><time>2026-04-05T15:19:45.999Z</time></trkpt><trkpt lat="45.78386134512545" lon="12.992287216064037"><ele>4.0</ele><time>2026-04-05T15:19:46.999Z</time></trkpt><trkpt lat="45.783914344974846" lon="12.992459459690032"><ele>4.0</ele><time>2026-04-05T15:19:47.999Z</time></trkpt><trkpt lat="45.78396505872539" lon="12.992627816559013"><ele>4.0</ele><time>2026-04-05T15:19:48.999Z</time></trkpt><trkpt lat="45.78400812603076" lon="12.992778672703622"><ele>4.0</ele><time>2026-04-05T15:19:49.999Z</time></trkpt><trkpt lat="45.78405017708179" lon="12.992911739267495"><ele>4.0</ele><time>2026-04-05T15:19:50.999Z</time></trkpt><trkpt lat="45.78408054726406" lon="12.99301840780377"><ele>4.0</ele><time>2026-04-05T15:19:51.999Z</time></trkpt><trkpt lat="45.78408685466987" lon="12.993153988063774"><ele>4.0</ele><time>2026-04-05T15:19:53.999Z</time></trkpt><trkpt lat="45.78394247840021" lon="12.993255431048755"><ele>4.0</ele><time>2026-04-05T15:19:56.999Z</time></trkpt><trkpt lat="45.78385675658865" lon="12.993298432815326"><ele>4.0</ele><time>2026-04-05T15:19:57.999Z</time></trkpt><trkpt lat="45.78375836326263" lon="12.993349284841301"><ele>4.0</ele><time>2026-04-05T15:19:58.999Z</time></trkpt><trkpt lat="45.78364051565995" lon="12.993414024415612"><ele>4.0</ele><time>2026-04-05T15:19:59.999Z</time></trkpt><trkpt lat="45.78350646902562" lon="12.993498336115648"><ele>4.0</ele><time>2026-04-05T15:20:00.999Z</time></trkpt><trkpt lat="45.78335868588194" lon="12.993588876439741"><ele>4.0</ele><time>2026-04-05T15:20:01.999Z</time></trkpt><trkpt lat="45.78319241340889" lon="12.993678431230894"><ele>4.666666666666666</ele><time>2026-04-05T15:20:02.999Z</time></trkpt><trkpt lat="45.78301634083677" lon="12.993778100658654"><ele>5.333333333333333</ele><time>2026-04-05T15:20:04Z</time></trkpt><trkpt lat="45.782825312584635" lon="12.993886652429135"><ele>6.0</ele><time>2026-04-05T15:20:05Z</time></trkpt><trkpt lat="45.78262979509072" lon="12.994004437521445"><ele>6.0</ele><time>2026-04-05T15:20:06Z</time></trkpt><trkpt lat="45.782425219932435" lon="12.994124490315563"><ele>6.0</ele><time>2026-04-05T15:20:07Z</time></trkpt><trkpt lat="45.78221895216765" lon="12.99424763108542"><ele>6.0</ele><time>2026-04-05T15:20:08Z</time></trkpt><trkpt lat="45.78202685039411" lon="12.994363675706683"><ele>6.0</ele><time>2026-04-05T15:20:09Z</time></trkpt><trkpt lat="45.78185166534888" lon="12.994465081209997"><ele>6.0</ele><time>2026-04-05T15:20:10Z</time></trkpt><trkpt lat="45.78169049826237" lon="12.994559349025826"><ele>6.0</ele><time>2026-04-05T15:20:11Z</time></trkpt><trkpt lat="45.781534137041255" lon="12.99465527724357"><ele>6.0</ele><time>2026-04-05T15:20:12Z</time></trkpt><trkpt lat="45.781384430970874" lon="12.994743724223879"><ele>6.0</ele><time>2026-04-05T15:20:13Z</time></trkpt><trkpt lat="45.78123960346413" lon="12.994827133825316"><ele>6.0</ele><time>2026-04-05T15:20:14Z</time></trkpt><trkpt lat="45.78109966184199" lon="12.994912764478272"><ele>6.0</ele><time>2026-04-05T15:20:15Z</time></trkpt><trkpt lat="45.78095541597607" lon="12.994997473959463"><ele>6.0</ele><time>2026-04-05T15:20:16Z</time></trkpt><trkpt lat="45.7808140401138" lon="12.995085761291291"><ele>6.0</ele><time>2026-04-05T15:20:17Z</time></trkpt><trkpt lat="45.780676606225484" lon="12.995171119308404"><ele>6.0</ele><time>2026-04-05T15:20:18Z</time></trkpt><trkpt lat="45.78055040695801" lon="12.995250015437138"><ele>6.0</ele><time>2026-04-05T15:20:19Z</time></trkpt><trkpt lat="45.78043314512601" lon="12.995321350444497"><ele>6.0</ele><time>2026-04-05T15:20:20Z</time></trkpt><trkpt lat="45.78032582814003" lon="12.995383269224801"><ele>6.0</ele><time>2026-04-05T15:20:21Z</time></trkpt><trkpt lat="45.78021754599141" lon="12.995438448208759"><ele>6.25</ele><time>2026-04-05T15:20:22Z</time></trkpt><trkpt lat="45.78010140072537" lon="12.995460523678183"><ele>6.5</ele><time>2026-04-05T15:20:23Z</time></trkpt><trkpt lat="45.77998482427478" lon="12.995438336868508"><ele>6.75</ele><time>2026-04-05T15:20:24Z</time></trkpt><trkpt lat="45.77986371043694" lon="12.995387312695199"><ele>7.0</ele><time>2026-04-05T15:20:25Z</time></trkpt><trkpt lat="45.77974820678227" lon="12.995335682733856"><ele>7.0</ele><time>2026-04-05T15:20:26Z</time></trkpt><trkpt lat="45.779631800857885" lon="12.995296045014268"><ele>6.999999999999999</ele><time>2026-04-05T15:20:27Z</time></trkpt><trkpt lat="45.77952911338678" lon="12.995260667346487"><ele>6.999999999999999</ele><time>2026-04-05T15:20:28Z</time></trkpt><trkpt lat="45.7794300596175" lon="12.995232345068494"><ele>7.0</ele><time>2026-04-05T15:20:29Z</time></trkpt><trkpt lat="45.77933346389028" lon="12.995238766877694"><ele>7.0</ele><time>2026-04-05T15:20:30Z</time></trkpt><trkpt lat="45.77923946177539" lon="12.995260385459778"><ele>6.6</ele><time>2026-04-05T15:20:31Z</time></trkpt><trkpt lat="45.77914407644531" lon="12.995321983862848"><ele>6.199999999999999</ele><time>2026-04-05T15:20:32Z</time></trkpt><trkpt lat="45.7790582128775" lon="12.995396428471192"><ele>5.8</ele><time>2026-04-05T15:20:33Z</time></trkpt><trkpt lat="45.778979026348146" lon="12.995470247546177"><ele>5.4</ele><time>2026-04-05T15:20:34Z</time></trkpt><trkpt lat="45.77890726939626" lon="12.995548870564763"><ele>5.0</ele><time>2026-04-05T15:20:35Z</time></trkpt><trkpt lat="45.778849127472185" lon="12.995609480896977"><ele>5.0</ele><time>2026-04-05T15:20:36Z</time></trkpt><trkpt lat="45.778759309175214" lon="12.995705519152775"><ele>5.0</ele><time>2026-04-05T15:20:38Z</time></trkpt><trkpt lat="45.77868523328266" lon="12.995789388553543"><ele>5.0</ele><time>2026-04-05T15:20:40Z</time></trkpt><trkpt lat="45.77863563166476" lon="12.995874676151915"><ele>5.0</ele><time>2026-04-05T15:20:42Z</time></trkpt><trkpt lat="45.77855391443602" lon="12.995921564818023"><ele>5.0</ele><time>2026-04-05T15:20:45Z</time></trkpt><trkpt lat="45.778449208341556" lon="12.995993427424292"><ele>5.4</ele><time>2026-04-05T15:21:09Z</time></trkpt><trkpt lat="45.77838607261795" lon="12.996054337800356"><ele>5.8</ele><time>2026-04-05T15:21:10Z</time></trkpt><trkpt lat="45.778298396425974" lon="12.996131006928902"><ele>6.199999999999999</ele><time>2026-04-05T15:21:11Z</time></trkpt><trkpt lat="45.77818633708608" lon="12.996216129517634"><ele>6.6</ele><time>2026-04-05T15:21:12Z</time></trkpt><trkpt lat="45.778062813157874" lon="12.996304830053282"><ele>7.0</ele><time>2026-04-05T15:21:13Z</time></trkpt><trkpt lat="45.777919932669235" lon="12.996405357380702"><ele>7.0</ele><time>2026-04-05T15:21:14Z</time></trkpt><trkpt lat="45.77778324556783" lon="12.996526008833582"><ele>7.0</ele><time>2026-04-05T15:21:15Z</time></trkpt><trkpt lat="45.77766239865985" lon="12.996633437572576"><ele>7.0</ele><time>2026-04-05T15:21:16Z</time></trkpt><trkpt lat="45.77754862537883" lon="12.996720147235145"><ele>7.0</ele><time>2026-04-05T15:21:17Z</time></trkpt><trkpt lat="45.77743394027919" lon="12.99678392597065"><ele>7.5</ele><time>2026-04-05T15:21:18Z</time></trkpt><trkpt lat="45.77731792387491" lon="12.996827645383801"><ele>8.0</ele><time>2026-04-05T15:21:19Z</time></trkpt><trkpt lat="45.77718767907164" lon="12.996850804016427"><ele>8.5</ele><time>2026-04-05T15:21:20Z</time></trkpt><trkpt lat="45.77706135012573" lon="12.996832220189194"><ele>9.0</ele><time>2026-04-05T15:21:21Z</time></trkpt><trkpt lat="45.77693276097568" lon="12.996764598720787"><ele>8.75</ele><time>2026-04-05T15:21:22Z</time></trkpt><trkpt lat="45.7768128803898" lon="12.996680882906002"><ele>8.5</ele><time>2026-04-05T15:21:23Z</time></trkpt><trkpt lat="45.77670554235895" lon="12.996616798820494"><ele>8.25</ele><time>2026-04-05T15:21:24Z</time></trkpt><trkpt lat="45.77661023925222" lon="12.996560415630983"><ele>8.0</ele><time>2026-04-05T15:21:25Z</time></trkpt><trkpt lat="45.776515111989205" lon="12.996531824568702"><ele>8.0</ele><time>2026-04-05T15:21:26Z</time></trkpt><trkpt lat="45.77642470587089" lon="12.996487305428575"><ele>8.0</ele><time>2026-04-05T15:21:27Z</time></trkpt><trkpt lat="45.776324612232095" lon="12.996408880124244"><ele>8.0</ele><time>2026-04-05T15:21:28Z</time></trkpt><trkpt lat="45.77621596044847" lon="12.996325211944672"><ele>8.0</ele><time>2026-04-05T15:21:29Z</time></trkpt><trkpt lat="45.77609962093044" lon="12.996239811175446"><ele>8.0</ele><time>2026-04-05T15:21:30Z</time></trkpt><trkpt lat="45.77598321972195" lon="12.996152991291154"><ele>8.0</ele><time>2026-04-05T15:21:31Z</time></trkpt><trkpt lat="45.775875556338654" lon="12.996080730888531"><ele>8.0</ele><time>2026-04-05T15:21:32Z</time></trkpt><trkpt lat="45.77577734535271" lon="12.996008465795068"><ele>8.0</ele><time>2026-04-05T15:21:33Z</time></trkpt><trkpt lat="45.77569718213806" lon="12.995940669124133"><ele>7.999999999999999</ele><time>2026-04-05T15:21:34Z</time></trkpt><trkpt lat="45.775632065434515" lon="12.995857571518156"><ele>8.0</ele><time>2026-04-05T15:21:35Z</time></trkpt><trkpt lat="45.775568631875934" lon="12.995795562074465"><ele>8.0</ele><time>2026-04-05T15:21:36Z</time></trkpt><trkpt lat="45.775495333697435" lon="12.995786028667876"><ele>8.0</ele><time>2026-04-05T15:21:37Z</time></trkpt><trkpt lat="45.775428853907954" lon="12.99582551470061"><ele>7.999999999999999</ele><time>2026-04-05T15:21:38Z</time></trkpt><trkpt lat="45.77537508556729" lon="12.99591251698294"><ele>8.0</ele><time>2026-04-05T15:21:39Z</time></trkpt><trkpt lat="45.775309596683925" lon="12.99599701194614"><ele>8.0</ele><time>2026-04-05T15:21:40Z</time></trkpt><trkpt lat="45.77522753526972" lon="12.996075768632116"><ele>8.0</ele><time>2026-04-05T15:21:40.999Z</time></trkpt><trkpt lat="45.775132907253315" lon="12.996178136066474"><ele>8.0</ele><time>2026-04-05T15:21:41.999Z</time></trkpt><trkpt lat="45.77502678210809" lon="12.99627374520029"><ele>8.0</ele><time>2026-04-05T15:21:42.999Z</time></trkpt><trkpt lat="45.77491346761601" lon="12.996364643060485"><ele>8.5</ele><time>2026-04-05T15:21:43.999Z</time></trkpt><trkpt lat="45.774798411034205" lon="12.996451132560868"><ele>9.0</ele><time>2026-04-05T15:21:44.999Z</time></trkpt><trkpt lat="45.774684307190824" lon="12.996526303112715"><ele>9.5</ele><time>2026-04-05T15:21:45.999Z</time></trkpt><trkpt lat="45.77457640338167" lon="12.99658065095234"><ele>10.0</ele><time>2026-04-05T15:21:46.999Z</time></trkpt><trkpt lat="45.77447947533031" lon="12.996625670076407"><ele>10.0</ele><time>2026-04-05T15:21:47.999Z</time></trkpt><trkpt lat="45.7743889241523" lon="12.996664533493073"><ele>10.0</ele><time>2026-04-05T15:21:48.999Z</time></trkpt><trkpt lat="45.774311022282355" lon="12.996692592529202"><ele>10.0</ele><time>2026-04-05T15:21:49.999Z</time></trkpt><trkpt lat="45.77423848433031" lon="12.996733567104092"><ele>10.0</ele><time>2026-04-05T15:21:50.999Z</time></trkpt><trkpt lat="45.7741753744108" lon="12.996765776959847"><ele>10.0</ele><time>2026-04-05T15:21:51.999Z</time></trkpt><trkpt lat="45.77406158523904" lon="12.996828286248023"><ele>10.0</ele><time>2026-04-05T15:21:53.999Z</time></trkpt><trkpt lat="45.773960925537416" lon="12.996878906859521"><ele>9.4</ele><time>2026-04-05T15:21:55.999Z</time></trkpt><trkpt lat="45.77388130534892" lon="12.99691944136676"><ele>8.8</ele><time>2026-04-05T15:21:57.999Z</time></trkpt><trkpt lat="45.77379260924475" lon="12.9969653283914"><ele>8.2</ele><time>2026-04-05T15:22:00.999Z</time></trkpt><trkpt lat="45.77370606632917" lon="12.997000568831725"><ele>7.6</ele><time>2026-04-05T15:22:03.999Z</time></trkpt><trkpt lat="45.773632176415106" lon="12.997028555349493"><ele>7.0</ele><time>2026-04-05T15:22:05.999Z</time></trkpt><trkpt lat="45.77352529610782" lon="12.997082429866202"><ele>7.0</ele><time>2026-04-05T15:22:07.999Z</time></trkpt><trkpt lat="45.77344972672526" lon="12.99712039201222"><ele>6.999999999999999</ele><time>2026-04-05T15:22:08.999Z</time></trkpt><trkpt lat="45.77335218576413" lon="12.99717208140325"><ele>6.999999999999999</ele><time>2026-04-05T15:22:10Z</time></trkpt><trkpt lat="45.77325710285256" lon="12.997218494333907"><ele>7.0</ele><time>2026-04-05T15:22:11Z</time></trkpt><trkpt lat="45.77314740299469" lon="12.997275929486845"><ele>7.0</ele><time>2026-04-05T15:22:12Z</time></trkpt><trkpt lat="45.77305051648692" lon="12.99731443249244"><ele>7.0</ele><time>2026-04-05T15:22:13Z</time></trkpt><trkpt lat="45.77296264674803" lon="12.997363027910898"><ele>6.999999999999999</ele><time>2026-04-05T15:22:14Z</time></trkpt><trkpt lat="45.772874218589344" lon="12.997413143524739"><ele>6.999999999999999</ele><time>2026-04-05T15:22:15Z</time></trkpt><trkpt lat="45.77278724649084" lon="12.997464007921888"><ele>7.0</ele><time>2026-04-05T15:22:16Z</time></trkpt><trkpt lat="45.77269675790939" lon="12.997508632410586"><ele>7.0</ele><time>2026-04-05T15:22:17Z</time></trkpt><trkpt lat="45.77259883675226" lon="12.997553700580868"><ele>6.75</ele><time>2026-04-05T15:22:18Z</time></trkpt><trkpt lat="45.77249466653111" lon="12.997597276808987"><ele>6.5</ele><time>2026-04-05T15:22:19Z</time></trkpt><trkpt lat="45.77238434581273" lon="12.997644374738202"><ele>6.25</ele><time>2026-04-05T15:22:20Z</time></trkpt><trkpt lat="45.77226939919652" lon="12.997693675855524"><ele>6.0</ele><time>2026-04-05T15:22:21Z</time></trkpt><trkpt lat="45.772144659574224" lon="12.997749957513937"><ele>6.0</ele><time>2026-04-05T15:22:22Z</time></trkpt><trkpt lat="45.7720238792772" lon="12.997804258890165"><ele>6.0</ele><time>2026-04-05T15:22:23Z</time></trkpt><trkpt lat="45.771912827075035" lon="12.997860443176801"><ele>6.0</ele><time>2026-04-05T15:22:24Z</time></trkpt><trkpt lat="45.77180907542573" lon="12.997934653564855"><ele>6.0</ele><time>2026-04-05T15:22:25Z</time></trkpt><trkpt lat="45.77170632988003" lon="12.99799378825238"><ele>6.4</ele><time>2026-04-05T15:22:26Z</time></trkpt><trkpt lat="45.771609958794336" lon="12.998060080953099"><ele>6.8</ele><time>2026-04-05T15:22:27Z</time></trkpt><trkpt lat="45.77151950294255" lon="12.998103435647515"><ele>7.200000000000001</ele><time>2026-04-05T15:22:28Z</time></trkpt><trkpt lat="45.77142846471981" lon="12.99814983030226"><ele>7.6000000000000005</ele><time>2026-04-05T15:22:29Z</time></trkpt><trkpt lat="45.771338519289074" lon="12.998201578265599"><ele>8.0</ele><time>2026-04-05T15:22:30Z</time></trkpt><trkpt lat="45.771248348728065" lon="12.99824760689832"><ele>8.0</ele><time>2026-04-05T15:22:31Z</time></trkpt><trkpt lat="45.77115712864516" lon="12.998301167873034"><ele>8.0</ele><time>2026-04-05T15:22:32Z</time></trkpt><trkpt lat="45.77106579766253" lon="12.998350883306403"><ele>8.0</ele><time>2026-04-05T15:22:33Z</time></trkpt><trkpt lat="45.77097245791303" lon="12.998386407931367"><ele>8.0</ele><time>2026-04-05T15:22:34Z</time></trkpt><trkpt lat="45.77088981646267" lon="12.998489168454817"><ele>8.0</ele><time>2026-04-05T15:22:35Z</time></trkpt><trkpt lat="45.77078218323485" lon="12.998389615244918"><ele>7.6000000000000005</ele><time>2026-04-05T15:22:36Z</time></trkpt><trkpt lat="45.77069389116461" lon="12.998312582364267"><ele>7.200000000000001</ele><time>2026-04-05T15:22:37Z</time></trkpt><trkpt lat="45.77062828302972" lon="12.998231076859323"><ele>6.8</ele><time>2026-04-05T15:22:38Z</time></trkpt><trkpt lat="45.77055432220291" lon="12.998112949823707"><ele>6.4</ele><time>2026-04-05T15:22:39Z</time></trkpt><trkpt lat="45.77051094647407" lon="12.997967837036326"><ele>6.0</ele><time>2026-04-05T15:22:40Z</time></trkpt><trkpt lat="45.770464924949785" lon="12.997812823103045"><ele>6.0</ele><time>2026-04-05T15:22:41Z</time></trkpt><trkpt lat="45.77040522912206" lon="12.99763373058564"><ele>6.0</ele><time>2026-04-05T15:22:42Z</time></trkpt><trkpt lat="45.77033561552943" lon="12.997406940415155"><ele>6.0</ele><time>2026-04-05T15:22:43Z</time></trkpt><trkpt lat="45.7702701384786" lon="12.99716357308083"><ele>5.666666666666667</ele><time>2026-04-05T15:22:44Z</time></trkpt><trkpt lat="45.77019507972682" lon="12.9969145703394"><ele>5.333333333333334</ele><time>2026-04-05T15:22:45Z</time></trkpt><trkpt lat="45.770132305926495" lon="12.99669534204103"><ele>5.0</ele><time>2026-04-05T15:22:46Z</time></trkpt><trkpt lat="45.7700726129756" lon="12.996497148882144"><ele>5.0</ele><time>2026-04-05T15:22:47Z</time></trkpt><trkpt lat="45.77001013458232" lon="12.996294279539628"><ele>5.0</ele><time>2026-04-05T15:22:48Z</time></trkpt><trkpt lat="45.76994884738922" lon="12.996075368322492"><ele>5.0</ele><time>2026-04-05T15:22:49Z</time></trkpt><trkpt lat="45.769887127371895" lon="12.995848433475317"><ele>6.666666666666667</ele><time>2026-04-05T15:22:50Z</time></trkpt><trkpt lat="45.76981864256581" lon="12.995593509162667"><ele>8.333333333333334</ele><time>2026-04-05T15:22:51Z</time></trkpt><trkpt lat="45.769747246100685" lon="12.995335042588666"><ele>10.0</ele><time>2026-04-05T15:22:52Z</time></trkpt><trkpt lat="45.769666938809316" lon="12.995068191402865"><ele>10.333333333333334</ele><time>2026-04-05T15:22:53Z</time></trkpt><trkpt lat="45.769583289219476" lon="12.994792429573753"><ele>10.666666666666666</ele><time>2026-04-05T15:22:54Z</time></trkpt><trkpt lat="45.76949346186544" lon="12.99450417589418"><ele>11.0</ele><time>2026-04-05T15:22:55Z</time></trkpt><trkpt lat="45.769404571715185" lon="12.99420031370749"><ele>9.5</ele><time>2026-04-05T15:22:56Z</time></trkpt><trkpt lat="45.76931541184745" lon="12.993890006523678"><ele>8.0</ele><time>2026-04-05T15:22:57Z</time></trkpt><trkpt lat="45.76922452001178" lon="12.99359229621582"><ele>7.666666666666666</ele><time>2026-04-05T15:22:58Z</time></trkpt><trkpt lat="45.769136633102725" lon="12.993302062509073"><ele>7.333333333333334</ele><time>2026-04-05T15:22:59Z</time></trkpt><trkpt lat="45.769065678089035" lon="12.99299607836876"><ele>7.0</ele><time>2026-04-05T15:23:00Z</time></trkpt><trkpt lat="45.769010256561" lon="12.992686977024206"><ele>6.0</ele><time>2026-04-05T15:23:01Z</time></trkpt><trkpt lat="45.76896510841697" lon="12.992373597554131"><ele>5.0</ele><time>2026-04-05T15:23:02Z</time></trkpt><trkpt lat="45.768936593906716" lon="12.992051449958334"><ele>5.0</ele><time>2026-04-05T15:23:03Z</time></trkpt><trkpt lat="45.76893439269644" lon="12.991726759223788"><ele>5.0</ele><time>2026-04-05T15:23:04Z</time></trkpt><trkpt lat="45.76895403812253" lon="12.991408328098013"><ele>5.0</ele><time>2026-04-05T15:23:05Z</time></trkpt><trkpt lat="45.76899066762034" lon="12.991097524156906"><ele>5.333333333333334</ele><time>2026-04-05T15:23:06Z</time></trkpt><trkpt lat="45.769038643097026" lon="12.990787483963224"><ele>5.666666666666667</ele><time>2026-04-05T15:23:07Z</time></trkpt><trkpt lat="45.769096294971185" lon="12.99048699923284"><ele>6.0</ele><time>2026-04-05T15:23:08Z</time></trkpt><trkpt lat="45.76916051831415" lon="12.990191272050925"><ele>6.333333333333334</ele><time>2026-04-05T15:23:09Z</time></trkpt><trkpt lat="45.76922544003212" lon="12.989899848041123"><ele>6.666666666666667</ele><time>2026-04-05T15:23:10Z</time></trkpt><trkpt lat="45.76929010193701" lon="12.989610671206723"><ele>7.0</ele><time>2026-04-05T15:23:11Z</time></trkpt><trkpt lat="45.76935641621891" lon="12.989330184739384"><ele>8.0</ele><time>2026-04-05T15:23:12Z</time></trkpt><trkpt lat="45.76942103355316" lon="12.989066182237869"><ele>9.0</ele><time>2026-04-05T15:23:13Z</time></trkpt><trkpt lat="45.76948102576522" lon="12.988811312706293"><ele>10.0</ele><time>2026-04-05T15:23:14Z</time></trkpt><trkpt lat="45.76952203151849" lon="12.988564634365215"><ele>8.333333333333334</ele><time>2026-04-05T15:23:15Z</time></trkpt><trkpt lat="45.76955801968272" lon="12.988326424130838"><ele>6.666666666666667</ele><time>2026-04-05T15:23:16Z</time></trkpt><trkpt lat="45.76959104267924" lon="12.988097043647024"><ele>5.0</ele><time>2026-04-05T15:23:17Z</time></trkpt><trkpt lat="45.76962075629987" lon="12.987874102871537"><ele>5.0</ele><time>2026-04-05T15:23:18Z</time></trkpt><trkpt lat="45.76964589887704" lon="12.987650729160743"><ele>5.0</ele><time>2026-04-05T15:23:19Z</time></trkpt><trkpt lat="45.76967076575417" lon="12.987428630229402"><ele>5.0</ele><time>2026-04-05T15:23:20Z</time></trkpt><trkpt lat="45.76969510889728" lon="12.987207947610967"><ele>4.333333333333334</ele><time>2026-04-05T15:23:21Z</time></trkpt><trkpt lat="45.769714867179495" lon="12.986976393920902"><ele>3.666666666666667</ele><time>2026-04-05T15:23:22Z</time></trkpt><trkpt lat="45.76974210635436" lon="12.986754821185086"><ele>3.0</ele><time>2026-04-05T15:23:23Z</time></trkpt><trkpt lat="45.76976316465827" lon="12.986536606186302"><ele>3.0</ele><time>2026-04-05T15:23:24Z</time></trkpt><trkpt lat="45.769782267944045" lon="12.986339954972337"><ele>3.0</ele><time>2026-04-05T15:23:25Z</time></trkpt><trkpt lat="45.76980202989965" lon="12.986161461752088"><ele>3.0</ele><time>2026-04-05T15:23:26Z</time></trkpt><trkpt lat="45.76983116356418" lon="12.985997720525711"><ele>3.0</ele><time>2026-04-05T15:23:27Z</time></trkpt><trkpt lat="45.769845929940104" lon="12.98584280878251"><ele>3.1666666666666665</ele><time>2026-04-05T15:23:28Z</time></trkpt><trkpt lat="45.76985927242059" lon="12.985700522060242"><ele>3.333333333333333</ele><time>2026-04-05T15:23:29Z</time></trkpt><trkpt lat="45.7698696079657" lon="12.985567394618466"><ele>3.5</ele><time>2026-04-05T15:23:30Z</time></trkpt><trkpt lat="45.76987622661278" lon="12.98544105918451"><ele>3.6666666666666665</ele><time>2026-04-05T15:23:31Z</time></trkpt><trkpt lat="45.76987640933605" lon="12.985342715419389"><ele>3.833333333333333</ele><time>2026-04-05T15:23:32Z</time></trkpt><trkpt lat="45.769877032212136" lon="12.98521525333987"><ele>4.0</ele><time>2026-04-05T15:23:34Z</time></trkpt><trkpt lat="45.76988565481957" lon="12.98510867322483"><ele>4.0</ele><time>2026-04-05T15:23:36Z</time></trkpt><trkpt lat="45.76993151013333" lon="12.984954706907068"><ele>4.0</ele><time>2026-04-05T15:23:38Z</time></trkpt><trkpt lat="45.76995489672336" lon="12.984858059399512"><ele>4.0</ele><time>2026-04-05T15:23:39Z</time></trkpt><trkpt lat="45.769969369978206" lon="12.98473418020075"><ele>4.0</ele><time>2026-04-05T15:23:40Z</time></trkpt><trkpt lat="45.76996816980446" lon="12.984599275341996"><ele>4.0</ele><time>2026-04-05T15:23:41Z</time></trkpt><trkpt lat="45.76996471376094" lon="12.984461222340022"><ele>4.0</ele><time>2026-04-05T15:23:42Z</time></trkpt><trkpt lat="45.76997650821909" lon="12.984315722833228"><ele>4.0</ele><time>2026-04-05T15:23:43Z</time></trkpt><trkpt lat="45.77001785635139" lon="12.984152208319303"><ele>4.0</ele><time>2026-04-05T15:23:44Z</time></trkpt><trkpt lat="45.77006514631297" lon="12.98396757713591"><ele>4.0</ele><time>2026-04-05T15:23:45Z</time></trkpt><trkpt lat="45.770096779744" lon="12.98376452699674"><ele>4.0</ele><time>2026-04-05T15:23:46Z</time></trkpt><trkpt lat="45.77012093052263" lon="12.983539889977358"><ele>4.0</ele><time>2026-04-05T15:23:47Z</time></trkpt><trkpt lat="45.77014663334836" lon="12.983302662229399"><ele>4.0</ele><time>2026-04-05T15:23:48Z</time></trkpt><trkpt lat="45.7701753622858" lon="12.983050996201253"><ele>4.0</ele><time>2026-04-05T15:23:49Z</time></trkpt><trkpt lat="45.77023646240646" lon="12.98251822508392"><ele>4.0</ele><time>2026-04-05T15:23:51Z</time></trkpt><trkpt lat="45.77026974183945" lon="12.982240791680596"><ele>4.0</ele><time>2026-04-05T15:23:52Z</time></trkpt><trkpt lat="45.77031680738814" lon="12.98196974590447"><ele>4.0</ele><time>2026-04-05T15:23:53Z</time></trkpt><trkpt lat="45.770339224453615" lon="12.98168916700291"><ele>4.0</ele><time>2026-04-05T15:23:54Z</time></trkpt><trkpt lat="45.77037301982209" lon="12.981406200774812"><ele>4.0</ele><time>2026-04-05T15:23:54.999Z</time></trkpt><trkpt lat="45.77041457315175" lon="12.981127288589587"><ele>4.0</ele><time>2026-04-05T15:23:55.999Z</time></trkpt><trkpt lat="45.77045743709834" lon="12.980836695980583"><ele>4.0</ele><time>2026-04-05T15:23:56.999Z</time></trkpt><trkpt lat="45.770499765673435" lon="12.980544081261575"><ele>4.0</ele><time>2026-04-05T15:23:57.999Z</time></trkpt><trkpt lat="45.77054256397873" lon="12.980244213434808"><ele>4.0</ele><time>2026-04-05T15:23:58.999Z</time></trkpt><trkpt lat="45.77058289071903" lon="12.979944796308953"><ele>4.0</ele><time>2026-04-05T15:23:59.999Z</time></trkpt><trkpt lat="45.77061755475218" lon="12.97967504888264"><ele>4.333333333333333</ele><time>2026-04-05T15:24:00.999Z</time></trkpt><trkpt lat="45.77065399926323" lon="12.979399376043691"><ele>4.666666666666667</ele><time>2026-04-05T15:24:01.999Z</time></trkpt><trkpt lat="45.77068533592085" lon="12.979144644212163"><ele>5.0</ele><time>2026-04-05T15:24:02.999Z</time></trkpt><trkpt lat="45.770719611676235" lon="12.978902605789315"><ele>5.0</ele><time>2026-04-05T15:24:03.999Z</time></trkpt><trkpt lat="45.7707417645251" lon="12.978618423275256"><ele>5.0</ele><time>2026-04-05T15:24:04.999Z</time></trkpt><trkpt lat="45.77076619063501" lon="12.978331189776439"><ele>5.0</ele><time>2026-04-05T15:24:05.999Z</time></trkpt><trkpt lat="45.77079045001972" lon="12.97802866997598"><ele>5.5</ele><time>2026-04-05T15:24:06.999Z</time></trkpt><trkpt lat="45.77082315490036" lon="12.977698314845071"><ele>6.0</ele><time>2026-04-05T15:24:07.999Z</time></trkpt><trkpt lat="45.770860242468046" lon="12.977378647650324"><ele>5.0</ele><time>2026-04-05T15:24:08.999Z</time></trkpt><trkpt lat="45.77090132988968" lon="12.977064044834753"><ele>4.0</ele><time>2026-04-05T15:24:09.999Z</time></trkpt><trkpt lat="45.77095290222615" lon="12.976694861804742"><ele>3.5</ele><time>2026-04-05T15:24:10.999Z</time></trkpt><trkpt lat="45.770998756709496" lon="12.976326434374931"><ele>3.0</ele><time>2026-04-05T15:24:11.999Z</time></trkpt><trkpt lat="45.771055823354686" lon="12.975981413212827"><ele>2.5</ele><time>2026-04-05T15:24:12.999Z</time></trkpt><trkpt lat="45.771085298579806" lon="12.97560284032386"><ele>2.0</ele><time>2026-04-05T15:24:13.999Z</time></trkpt><trkpt lat="45.77111905227044" lon="12.975253928469009"><ele>1.6666666666666665</ele><time>2026-04-05T15:24:14.999Z</time></trkpt><trkpt lat="45.771161484545495" lon="12.974949519774945"><ele>1.3333333333333333</ele><time>2026-04-05T15:24:16Z</time></trkpt><trkpt lat="45.7712000410088" lon="12.974647453662897"><ele>1.0</ele><time>2026-04-05T15:24:17Z</time></trkpt><trkpt lat="45.77123956675081" lon="12.974314478154371"><ele>1.3333333333333333</ele><time>2026-04-05T15:24:18Z</time></trkpt><trkpt lat="45.771274583920864" lon="12.974019857821295"><ele>1.6666666666666665</ele><time>2026-04-05T15:24:19Z</time></trkpt><trkpt lat="45.77131093766269" lon="12.973715008936239"><ele>2.0</ele><time>2026-04-05T15:24:20Z</time></trkpt><trkpt lat="45.77134332721696" lon="12.973436982049025"><ele>1.6666666666666665</ele><time>2026-04-05T15:24:21Z</time></trkpt><trkpt lat="45.77137670563147" lon="12.973150491842784"><ele>1.3333333333333333</ele><time>2026-04-05T15:24:22Z</time></trkpt><trkpt lat="45.77140950373414" lon="12.972868982501069"><ele>1.0</ele><time>2026-04-05T15:24:23Z</time></trkpt><trkpt lat="45.77144200351918" lon="12.972590033547947"><ele>1.3333333333333333</ele><time>2026-04-05T15:24:24Z</time></trkpt><trkpt lat="45.7714692228454" lon="12.972356407796134"><ele>1.6666666666666665</ele><time>2026-04-05T15:24:25Z</time></trkpt><trkpt lat="45.77149810359766" lon="12.972108521234748"><ele>2.0</ele><time>2026-04-05T15:24:26Z</time></trkpt><trkpt lat="45.77152945738002" lon="12.97183940854348"><ele>2.0</ele><time>2026-04-05T15:24:27Z</time></trkpt><trkpt lat="45.771563135784994" lon="12.97155034351415"><ele>2.0</ele><time>2026-04-05T15:24:28Z</time></trkpt><trkpt lat="45.771595495737316" lon="12.971272443290612"><ele>2.0</ele><time>2026-04-05T15:24:29Z</time></trkpt><trkpt lat="45.77163035994983" lon="12.97097147972038"><ele>2.5</ele><time>2026-04-05T15:24:30Z</time></trkpt><trkpt lat="45.77166673674485" lon="12.970657459164263"><ele>3.0</ele><time>2026-04-05T15:24:31Z</time></trkpt><trkpt lat="45.771700441959226" lon="12.970322269236842"><ele>3.0</ele><time>2026-04-05T15:24:32Z</time></trkpt><trkpt lat="45.771753416242134" lon="12.969996260200872"><ele>3.0</ele><time>2026-04-05T15:24:33Z</time></trkpt><trkpt lat="45.771786466860796" lon="12.96964025525071"><ele>3.0</ele><time>2026-04-05T15:24:34Z</time></trkpt><trkpt lat="45.7718171757514" lon="12.969279656637624"><ele>3.0</ele><time>2026-04-05T15:24:35Z</time></trkpt><trkpt lat="45.77185842915673" lon="12.968925327826334"><ele>3.0</ele><time>2026-04-05T15:24:36Z</time></trkpt><trkpt lat="45.771910391671724" lon="12.968582822293056"><ele>3.0</ele><time>2026-04-05T15:24:37Z</time></trkpt><trkpt lat="45.77195433734473" lon="12.968213805619458"><ele>3.0</ele><time>2026-04-05T15:24:38Z</time></trkpt><trkpt lat="45.771998073737855" lon="12.967853593495308"><ele>3.0</ele><time>2026-04-05T15:24:39Z</time></trkpt><trkpt lat="45.77204029903198" lon="12.967505823068791"><ele>3.0</ele><time>2026-04-05T15:24:40Z</time></trkpt><trkpt lat="45.772043504712066" lon="12.967159589207117"><ele>3.0</ele><time>2026-04-05T15:24:41Z</time></trkpt><trkpt lat="45.77210036568086" lon="12.966824079080352"><ele>3.0</ele><time>2026-04-05T15:24:42Z</time></trkpt><trkpt lat="45.77215434490116" lon="12.96646682108544"><ele>3.0</ele><time>2026-04-05T15:24:43Z</time></trkpt><trkpt lat="45.77220043736332" lon="12.966163638658042"><ele>2.5</ele><time>2026-04-05T15:24:44Z</time></trkpt><trkpt lat="45.77224293633782" lon="12.965819853763623"><ele>2.0</ele><time>2026-04-05T15:24:45Z</time></trkpt><trkpt lat="45.772286907757966" lon="12.965494558537502"><ele>2.0</ele><time>2026-04-05T15:24:46Z</time></trkpt><trkpt lat="45.77231081777351" lon="12.965193418847965"><ele>2.0</ele><time>2026-04-05T15:24:47Z</time></trkpt><trkpt lat="45.772342993900224" lon="12.964905532561492"><ele>2.0</ele><time>2026-04-05T15:24:48Z</time></trkpt><trkpt lat="45.772392501010806" lon="12.9646051890335"><ele>2.333333333333333</ele><time>2026-04-05T15:24:49Z</time></trkpt><trkpt lat="45.77242680909163" lon="12.964311718177962"><ele>2.6666666666666665</ele><time>2026-04-05T15:24:50Z</time></trkpt><trkpt lat="45.77245958983716" lon="12.964031312120555"><ele>3.0</ele><time>2026-04-05T15:24:51Z</time></trkpt><trkpt lat="45.77249310371462" lon="12.96374463073444"><ele>3.0</ele><time>2026-04-05T15:24:52Z</time></trkpt><trkpt lat="45.772526057869136" lon="12.9634627321892"><ele>3.0</ele><time>2026-04-05T15:24:53Z</time></trkpt><trkpt lat="45.772550459787894" lon="12.963145268440055"><ele>3.0</ele><time>2026-04-05T15:24:54Z</time></trkpt><trkpt lat="45.77258495991873" lon="12.962859454234662"><ele>3.0</ele><time>2026-04-05T15:24:55Z</time></trkpt><trkpt lat="45.772611663837885" lon="12.962555513823203"><ele>3.0</ele><time>2026-04-05T15:24:56Z</time></trkpt><trkpt lat="45.77262055748827" lon="12.962289933502856"><ele>3.0</ele><time>2026-04-05T15:24:57Z</time></trkpt><trkpt lat="45.77265367459143" lon="12.961987217075832"><ele>3.0</ele><time>2026-04-05T15:24:58Z</time></trkpt><trkpt lat="45.77270758433034" lon="12.96171777201057"><ele>3.0</ele><time>2026-04-05T15:24:59Z</time></trkpt><trkpt lat="45.77274344099564" lon="12.961410110475894"><ele>3.0</ele><time>2026-04-05T15:25:00Z</time></trkpt><trkpt lat="45.77278198538157" lon="12.961125136559861"><ele>2.0</ele><time>2026-04-05T15:25:01Z</time></trkpt><trkpt lat="45.772829158894595" lon="12.960845696679124"><ele>1.0</ele><time>2026-04-05T15:25:02Z</time></trkpt><trkpt lat="45.77287188948585" lon="12.960532794179448"><ele>0.0</ele><time>2026-04-05T15:25:03Z</time></trkpt><trkpt lat="45.772915839202" lon="12.960222075239368"><ele>0.6666666666666666</ele><time>2026-04-05T15:25:04Z</time></trkpt><trkpt lat="45.77293731814599" lon="12.95995364130732"><ele>1.3333333333333333</ele><time>2026-04-05T15:25:05Z</time></trkpt><trkpt lat="45.772968267457074" lon="12.95966220676745"><ele>2.0</ele><time>2026-04-05T15:25:06Z</time></trkpt><trkpt lat="45.77300001374305" lon="12.959361676616153"><ele>2.0</ele><time>2026-04-05T15:25:07Z</time></trkpt><trkpt lat="45.773040166582334" lon="12.959093784424097"><ele>2.0</ele><time>2026-04-05T15:25:08Z</time></trkpt><trkpt lat="45.77308666209259" lon="12.958802523559598"><ele>2.0</ele><time>2026-04-05T15:25:09Z</time></trkpt><trkpt lat="45.7731009789432" lon="12.958516626146167"><ele>2.0</ele><time>2026-04-05T15:25:10Z</time></trkpt><trkpt lat="45.77314481586195" lon="12.958241914683995"><ele>2.0</ele><time>2026-04-05T15:25:11Z</time></trkpt><trkpt lat="45.77318592702193" lon="12.957960349108488"><ele>2.0</ele><time>2026-04-05T15:25:12Z</time></trkpt><trkpt lat="45.773214098560274" lon="12.957689664906777"><ele>1.6666666666666665</ele><time>2026-04-05T15:25:13Z</time></trkpt><trkpt lat="45.77324485285275" lon="12.95741802404262"><ele>1.3333333333333333</ele><time>2026-04-05T15:25:14Z</time></trkpt><trkpt lat="45.77328045012474" lon="12.957103119663833"><ele>1.0</ele><time>2026-04-05T15:25:15Z</time></trkpt><trkpt lat="45.77330689429451" lon="12.956805931954928"><ele>1.3333333333333333</ele><time>2026-04-05T15:25:16Z</time></trkpt><trkpt lat="45.77333943027723" lon="12.956541548859068"><ele>1.6666666666666665</ele><time>2026-04-05T15:25:17Z</time></trkpt><trkpt lat="45.77338549665929" lon="12.956261319324714"><ele>2.0</ele><time>2026-04-05T15:25:18Z</time></trkpt><trkpt lat="45.77340095102594" lon="12.955964294311109"><ele>2.333333333333333</ele><time>2026-04-05T15:25:19Z</time></trkpt><trkpt lat="45.773434860582796" lon="12.955668418033857"><ele>2.6666666666666665</ele><time>2026-04-05T15:25:20Z</time></trkpt><trkpt lat="45.77347731706157" lon="12.955377410693847"><ele>3.0</ele><time>2026-04-05T15:25:21Z</time></trkpt><trkpt lat="45.773512764419884" lon="12.955070939044315"><ele>3.0</ele><time>2026-04-05T15:25:22Z</time></trkpt><trkpt lat="45.77355360625774" lon="12.954753860326338"><ele>3.0</ele><time>2026-04-05T15:25:23Z</time></trkpt><trkpt lat="45.773589799565514" lon="12.954448573162416"><ele>3.0</ele><time>2026-04-05T15:25:24Z</time></trkpt><trkpt lat="45.773622332570625" lon="12.954144154963812"><ele>2.3333333333333335</ele><time>2026-04-05T15:25:25Z</time></trkpt><trkpt lat="45.77364711904681" lon="12.953855682638597"><ele>1.6666666666666665</ele><time>2026-04-05T15:25:26Z</time></trkpt><trkpt lat="45.77368532973735" lon="12.953552725660964"><ele>1.0</ele><time>2026-04-05T15:25:27Z</time></trkpt><trkpt lat="45.7737028520236" lon="12.953267749959386"><ele>1.0</ele><time>2026-04-05T15:25:28Z</time></trkpt><trkpt lat="45.77373684903225" lon="12.95298715766243"><ele>1.0</ele><time>2026-04-05T15:25:29Z</time></trkpt><trkpt lat="45.77375602974839" lon="12.952703643706174"><ele>1.0</ele><time>2026-04-05T15:25:30Z</time></trkpt><trkpt lat="45.77381374044464" lon="12.952411823979944"><ele>1.0</ele><time>2026-04-05T15:25:31Z</time></trkpt><trkpt lat="45.7738530594427" lon="12.952127598050517"><ele>1.0</ele><time>2026-04-05T15:25:32Z</time></trkpt><trkpt lat="45.773899589757875" lon="12.951832598892782"><ele>1.0</ele><time>2026-04-05T15:25:33Z</time></trkpt><trkpt lat="45.77393203705729" lon="12.951556390642299"><ele>1.0</ele><time>2026-04-05T15:25:34Z</time></trkpt><trkpt lat="45.77395225965309" lon="12.951268629556086"><ele>1.0</ele><time>2026-04-05T15:25:35Z</time></trkpt><trkpt lat="45.77398476933301" lon="12.950982844266067"><ele>1.0</ele><time>2026-04-05T15:25:36Z</time></trkpt><trkpt lat="45.77401409091171" lon="12.95067949276284"><ele>0.6666666666666666</ele><time>2026-04-05T15:25:37Z</time></trkpt><trkpt lat="45.774052963350286" lon="12.950386372712186"><ele>0.3333333333333333</ele><time>2026-04-05T15:25:38Z</time></trkpt><trkpt lat="45.77409256273114" lon="12.950101640734944"><ele>0.0</ele><time>2026-04-05T15:25:39Z</time></trkpt><trkpt lat="45.77411184861098" lon="12.94979650282631"><ele>-0.5</ele><time>2026-04-05T15:25:40Z</time></trkpt><trkpt lat="45.77414247007459" lon="12.949498096586582"><ele>-1.0</ele><time>2026-04-05T15:25:41Z</time></trkpt><trkpt lat="45.77421612952068" lon="12.949169124609648"><ele>0.0</ele><time>2026-04-05T15:25:42Z</time></trkpt><trkpt lat="45.77425025426488" lon="12.948856924124081"><ele>1.0</ele><time>2026-04-05T15:25:43Z</time></trkpt><trkpt lat="45.77428047808438" lon="12.948529383865214"><ele>1.5</ele><time>2026-04-05T15:25:43.999Z</time></trkpt><trkpt lat="45.77433864987595" lon="12.94820431647979"><ele>2.0</ele><time>2026-04-05T15:25:44.999Z</time></trkpt><trkpt lat="45.77438393254492" lon="12.947878362334826"><ele>2.0</ele><time>2026-04-05T15:25:45.999Z</time></trkpt><trkpt lat="45.774428273904455" lon="12.947545582165398"><ele>2.0</ele><time>2026-04-05T15:25:46.999Z</time></trkpt><trkpt lat="45.774458828036124" lon="12.947225361803685"><ele>2.0</ele><time>2026-04-05T15:25:47.999Z</time></trkpt><trkpt lat="45.774486810522895" lon="12.946884168304715"><ele>2.0</ele><time>2026-04-05T15:25:48.999Z</time></trkpt><trkpt lat="45.774504181662145" lon="12.946562806741063"><ele>1.5</ele><time>2026-04-05T15:25:49.999Z</time></trkpt><trkpt lat="45.77452256293086" lon="12.946231387819237"><ele>1.0</ele><time>2026-04-05T15:25:50.999Z</time></trkpt><trkpt lat="45.77455062917479" lon="12.945913707926092"><ele>0.6666666666666666</ele><time>2026-04-05T15:25:51.999Z</time></trkpt><trkpt lat="45.77463341054674" lon="12.945611274330625"><ele>0.3333333333333333</ele><time>2026-04-05T15:25:52.999Z</time></trkpt><trkpt lat="45.77466944493144" lon="12.94531072949666"><ele>0.0</ele><time>2026-04-05T15:25:53.999Z</time></trkpt><trkpt lat="45.77471703109091" lon="12.945041495545581"><ele>0.0</ele><time>2026-04-05T15:25:54.999Z</time></trkpt><trkpt lat="45.77474589725553" lon="12.944772651288604"><ele>0.0</ele><time>2026-04-05T15:25:55.999Z</time></trkpt><trkpt lat="45.77477530764179" lon="12.944508157298475"><ele>0.0</ele><time>2026-04-05T15:25:56.999Z</time></trkpt><trkpt lat="45.77479348067214" lon="12.944243031813967"><ele>0.3333333333333333</ele><time>2026-04-05T15:25:57.999Z</time></trkpt><trkpt lat="45.77482424275702" lon="12.943986250873497"><ele>0.6666666666666666</ele><time>2026-04-05T15:25:58.999Z</time></trkpt><trkpt lat="45.77483874647237" lon="12.943748376158263"><ele>1.0</ele><time>2026-04-05T15:25:59.999Z</time></trkpt><trkpt lat="45.77490504324688" lon="12.943505133185326"><ele>1.0</ele><time>2026-04-05T15:26:00.999Z</time></trkpt><trkpt lat="45.77493543421902" lon="12.943249312046017"><ele>1.0</ele><time>2026-04-05T15:26:01.999Z</time></trkpt><trkpt lat="45.77495050437465" lon="12.942992777231245"><ele>1.0</ele><time>2026-04-05T15:26:02.999Z</time></trkpt><trkpt lat="45.774977931236194" lon="12.942752869313066"><ele>1.3333333333333333</ele><time>2026-04-05T15:26:03.999Z</time></trkpt><trkpt lat="45.775009580684824" lon="12.942512501253185"><ele>1.6666666666666665</ele><time>2026-04-05T15:26:04.999Z</time></trkpt><trkpt lat="45.77505035318314" lon="12.942281961965167"><ele>2.0</ele><time>2026-04-05T15:26:05.999Z</time></trkpt><trkpt lat="45.77507525709244" lon="12.942041278169755"><ele>2.0</ele><time>2026-04-05T15:26:06.999Z</time></trkpt><trkpt lat="45.77510708442453" lon="12.941805173469863"><ele>2.0</ele><time>2026-04-05T15:26:07.999Z</time></trkpt><trkpt lat="45.77513716199707" lon="12.941554025657936"><ele>2.0</ele><time>2026-04-05T15:26:08.999Z</time></trkpt><trkpt lat="45.77516799467194" lon="12.941296572683035"><ele>1.6666666666666665</ele><time>2026-04-05T15:26:09.999Z</time></trkpt><trkpt lat="45.77519889141045" lon="12.941038657400284"><ele>1.3333333333333333</ele><time>2026-04-05T15:26:10.999Z</time></trkpt><trkpt lat="45.7752293794027" lon="12.940784273964983"><ele>1.0</ele><time>2026-04-05T15:26:11.999Z</time></trkpt><trkpt lat="45.775261146186836" lon="12.940519689855025"><ele>1.0</ele><time>2026-04-05T15:26:12.999Z</time></trkpt><trkpt lat="45.775294120612635" lon="12.940245047348615"><ele>1.0</ele><time>2026-04-05T15:26:13.999Z</time></trkpt><trkpt lat="45.77532829833409" lon="12.93996038263989"><ele>1.0</ele><time>2026-04-05T15:26:14.999Z</time></trkpt><trkpt lat="45.77536277410211" lon="12.939673235502404"><ele>1.0</ele><time>2026-04-05T15:26:15.999Z</time></trkpt><trkpt lat="45.77539614926769" lon="12.939396627226287"><ele>1.0</ele><time>2026-04-05T15:26:16.999Z</time></trkpt><trkpt lat="45.775429749247586" lon="12.93911968441543"><ele>1.0</ele><time>2026-04-05T15:26:17.999Z</time></trkpt><trkpt lat="45.775464799851534" lon="12.938830784041157"><ele>0.6666666666666666</ele><time>2026-04-05T15:26:18.999Z</time></trkpt><trkpt lat="45.775500742451634" lon="12.938534531918556"><ele>0.3333333333333333</ele><time>2026-04-05T15:26:19.999Z</time></trkpt><trkpt lat="45.77553620425959" lon="12.938242243007583"><ele>0.0</ele><time>2026-04-05T15:26:20.999Z</time></trkpt><trkpt lat="45.77557001569466" lon="12.937954988702323"><ele>0.0</ele><time>2026-04-05T15:26:22Z</time></trkpt><trkpt lat="45.7756003478765" lon="12.93766131406313"><ele>0.0</ele><time>2026-04-05T15:26:23Z</time></trkpt><trkpt lat="45.77563093311806" lon="12.937348381776006"><ele>0.0</ele><time>2026-04-05T15:26:24Z</time></trkpt><trkpt lat="45.7756641142412" lon="12.93703456503634"><ele>1.0</ele><time>2026-04-05T15:26:25Z</time></trkpt><trkpt lat="45.775703156588925" lon="12.936694926842312"><ele>2.0</ele><time>2026-04-05T15:26:26Z</time></trkpt><trkpt lat="45.775745427364036" lon="12.936338818612496"><ele>2.0</ele><time>2026-04-05T15:26:27Z</time></trkpt><trkpt lat="45.775787354278414" lon="12.935992517610364"><ele>2.0</ele><time>2026-04-05T15:26:28Z</time></trkpt><trkpt lat="45.775830168400844" lon="12.93563953202907"><ele>2.5</ele><time>2026-04-05T15:26:29Z</time></trkpt><trkpt lat="45.77587944866475" lon="12.93526291474771"><ele>3.0</ele><time>2026-04-05T15:26:30Z</time></trkpt><trkpt lat="45.775933412068085" lon="12.934867519208689"><ele>3.0</ele><time>2026-04-05T15:26:31Z</time></trkpt><trkpt lat="45.77598075328582" lon="12.934481451509043"><ele>3.0</ele><time>2026-04-05T15:26:32Z</time></trkpt><trkpt lat="45.77602639624692" lon="12.934096847549434"><ele>2.5</ele><time>2026-04-05T15:26:33Z</time></trkpt><trkpt lat="45.77607018035866" lon="12.933727906566617"><ele>2.0</ele><time>2026-04-05T15:26:34Z</time></trkpt><trkpt lat="45.77611362871988" lon="12.933361794780716"><ele>2.0</ele><time>2026-04-05T15:26:35Z</time></trkpt><trkpt lat="45.7761604997641" lon="12.933018467946752"><ele>2.0</ele><time>2026-04-05T15:26:36Z</time></trkpt><trkpt lat="45.776207526158025" lon="12.932701037638367"><ele>2.6666666666666665</ele><time>2026-04-05T15:26:37Z</time></trkpt><trkpt lat="45.7762402442691" lon="12.932428346088566"><ele>3.333333333333333</ele><time>2026-04-05T15:26:38Z</time></trkpt><trkpt lat="45.77626696305731" lon="12.932151926059362"><ele>4.0</ele><time>2026-04-05T15:26:39Z</time></trkpt><trkpt lat="45.77629405629122" lon="12.931897344865211"><ele>4.0</ele><time>2026-04-05T15:26:40Z</time></trkpt><trkpt lat="45.77630812483931" lon="12.931664018090418"><ele>4.0</ele><time>2026-04-05T15:26:41Z</time></trkpt><trkpt lat="45.776338411449444" lon="12.931448087454456"><ele>4.0</ele><time>2026-04-05T15:26:42Z</time></trkpt><trkpt lat="45.7763634560728" lon="12.931228589999154"><ele>4.0</ele><time>2026-04-05T15:26:43Z</time></trkpt><trkpt lat="45.776396457995816" lon="12.93105370357897"><ele>4.0</ele><time>2026-04-05T15:26:44Z</time></trkpt><trkpt lat="45.776438086080695" lon="12.930876163870428"><ele>4.0</ele><time>2026-04-05T15:26:45Z</time></trkpt><trkpt lat="45.77649050960398" lon="12.930722792100172"><ele>4.0</ele><time>2026-04-05T15:26:46Z</time></trkpt><trkpt lat="45.77658694627579" lon="12.930588293788864"><ele>3.333333333333333</ele><time>2026-04-05T15:26:47Z</time></trkpt><trkpt lat="45.77669755184044" lon="12.930478125444184"><ele>2.6666666666666665</ele><time>2026-04-05T15:26:48Z</time></trkpt><trkpt lat="45.77683630182548" lon="12.930320733418597"><ele>2.0</ele><time>2026-04-05T15:26:49Z</time></trkpt><trkpt lat="45.77690263060848" lon="12.930106482293349"><ele>2.0</ele><time>2026-04-05T15:26:50Z</time></trkpt><trkpt lat="45.776932213712236" lon="12.92986926329925"><ele>2.0</ele><time>2026-04-05T15:26:51Z</time></trkpt><trkpt lat="45.77692884564318" lon="12.929639750309796"><ele>2.0</ele><time>2026-04-05T15:26:52Z</time></trkpt><trkpt lat="45.77683707219365" lon="12.929409655558109"><ele>2.0</ele><time>2026-04-05T15:26:53Z</time></trkpt><trkpt lat="45.776757014976745" lon="12.929175539297383"><ele>2.0</ele><time>2026-04-05T15:26:54Z</time></trkpt><trkpt lat="45.77664817402931" lon="12.928944904934038"><ele>2.0</ele><time>2026-04-05T15:26:55Z</time></trkpt><trkpt lat="45.776603038099154" lon="12.928658192556513"><ele>2.0</ele><time>2026-04-05T15:26:56Z</time></trkpt><trkpt lat="45.776603835627476" lon="12.928343837697035"><ele>2.0</ele><time>2026-04-05T15:26:57Z</time></trkpt><trkpt lat="45.77664877320606" lon="12.927990411347006"><ele>2.0</ele><time>2026-04-05T15:26:58Z</time></trkpt><trkpt lat="45.77667853916615" lon="12.927596294425438"><ele>2.0</ele><time>2026-04-05T15:26:59Z</time></trkpt><trkpt lat="45.77671526118345" lon="12.927171055374401"><ele>2.0</ele><time>2026-04-05T15:27:00Z</time></trkpt><trkpt lat="45.776445144193474" lon="12.927420785982443"><ele>2.0</ele><time>2026-04-05T15:27:01Z</time></trkpt><trkpt lat="45.776337598761444" lon="12.926903604262392"><ele>2.5</ele><time>2026-04-05T15:27:02Z</time></trkpt><trkpt lat="45.77633826773746" lon="12.926275281395288"><ele>3.0</ele><time>2026-04-05T15:27:03Z</time></trkpt><trkpt lat="45.77699776551259" lon="12.92503443091609"><ele>3.5</ele><time>2026-04-05T15:27:04Z</time></trkpt><trkpt lat="45.777108912653915" lon="12.924747095715581"><ele>4.0</ele><time>2026-04-05T15:27:05Z</time></trkpt><trkpt lat="45.77715527158038" lon="12.924303791117671"><ele>4.5</ele><time>2026-04-05T15:27:06Z</time></trkpt><trkpt lat="45.777208646459556" lon="12.923909880266853"><ele>5.0</ele><time>2026-04-05T15:27:07Z</time></trkpt><trkpt lat="45.77726290876092" lon="12.923551117169369"><ele>4.666666666666667</ele><time>2026-04-05T15:27:08Z</time></trkpt><trkpt lat="45.77730851314525" lon="12.923227116184922"><ele>4.333333333333333</ele><time>2026-04-05T15:27:09Z</time></trkpt><trkpt lat="45.7773485769433" lon="12.922933518223886"><ele>4.0</ele><time>2026-04-05T15:27:10Z</time></trkpt><trkpt lat="45.777370366014374" lon="12.922617356184615"><ele>4.0</ele><time>2026-04-05T15:27:11Z</time></trkpt><trkpt lat="45.777422423697494" lon="12.922347789914614"><ele>4.0</ele><time>2026-04-05T15:27:12Z</time></trkpt><trkpt lat="45.77746880796171" lon="12.92208995958731"><ele>4.0</ele><time>2026-04-05T15:27:13Z</time></trkpt><trkpt lat="45.777512244597695" lon="12.9218666690427"><ele>4.0</ele><time>2026-04-05T15:27:14Z</time></trkpt><trkpt lat="45.77759977970744" lon="12.921682491866267"><ele>4.0</ele><time>2026-04-05T15:27:15Z</time></trkpt><trkpt lat="45.777670244967375" lon="12.921499989325804"><ele>4.0</ele><time>2026-04-05T15:27:16Z</time></trkpt><trkpt lat="45.777716152594586" lon="12.921380946056377"><ele>4.0</ele><time>2026-04-05T15:27:17Z</time></trkpt><trkpt lat="45.77767227813345" lon="12.921249727489739"><ele>4.0</ele><time>2026-04-05T15:27:18Z</time></trkpt><trkpt lat="45.77762732813624" lon="12.92109526291222"><ele>4.0</ele><time>2026-04-05T15:27:19Z</time></trkpt><trkpt lat="45.77762163281851" lon="12.92092375098018"><ele>4.0</ele><time>2026-04-05T15:27:20Z</time></trkpt><trkpt lat="45.77763327807575" lon="12.92075189269841"><ele>4.0</ele><time>2026-04-05T15:27:21Z</time></trkpt><trkpt lat="45.77763316435656" lon="12.92046306834657"><ele>4.5</ele><time>2026-04-05T15:27:22Z</time></trkpt><trkpt lat="45.77768368207837" lon="12.92006118640817"><ele>5.0</ele><time>2026-04-05T15:27:23Z</time></trkpt><trkpt lat="45.77767776398593" lon="12.919734444953514"><ele>5.5</ele><time>2026-04-05T15:27:24Z</time></trkpt><trkpt lat="45.77774556195451" lon="12.919232189556352"><ele>6.0</ele><time>2026-04-05T15:27:25Z</time></trkpt><trkpt lat="45.77779605854697" lon="12.918683423081106"><ele>6.0</ele><time>2026-04-05T15:27:26Z</time></trkpt><trkpt lat="45.77784841192445" lon="12.91829862852181"><ele>6.0</ele><time>2026-04-05T15:27:27Z</time></trkpt><trkpt lat="45.777909625859174" lon="12.917975860348639"><ele>6.0</ele><time>2026-04-05T15:27:28Z</time></trkpt><trkpt lat="45.77795064339629" lon="12.917637209591199"><ele>6.0</ele><time>2026-04-05T15:27:29Z</time></trkpt><trkpt lat="45.77800814338078" lon="12.917246287730617"><ele>5.0</ele><time>2026-04-05T15:27:30Z</time></trkpt><trkpt lat="45.778058194111516" lon="12.916844269504148"><ele>4.0</ele><time>2026-04-05T15:27:31Z</time></trkpt><trkpt lat="45.77811000900092" lon="12.91640473914226"><ele>4.0</ele><time>2026-04-05T15:27:32Z</time></trkpt><trkpt lat="45.778173011514" lon="12.915944835214464"><ele>4.0</ele><time>2026-04-05T15:27:33Z</time></trkpt><trkpt lat="45.778230171617935" lon="12.915486130600993"><ele>4.0</ele><time>2026-04-05T15:27:34Z</time></trkpt><trkpt lat="45.778265912526884" lon="12.915100761514339"><ele>4.0</ele><time>2026-04-05T15:27:35Z</time></trkpt><trkpt lat="45.77828964704964" lon="12.914745526213098"><ele>4.0</ele><time>2026-04-05T15:27:36Z</time></trkpt><trkpt lat="45.7783176696782" lon="12.91442335317636"><ele>4.0</ele><time>2026-04-05T15:27:37Z</time></trkpt><trkpt lat="45.77835644364049" lon="12.914099291991347"><ele>4.0</ele><time>2026-04-05T15:27:38Z</time></trkpt><trkpt lat="45.77838182530916" lon="12.913797967395546"><ele>4.0</ele><time>2026-04-05T15:27:39Z</time></trkpt><trkpt lat="45.77842386224702" lon="12.913479935271816"><ele>4.0</ele><time>2026-04-05T15:27:40Z</time></trkpt><trkpt lat="45.77846571360526" lon="12.913178747280698"><ele>3.0</ele><time>2026-04-05T15:27:41Z</time></trkpt><trkpt lat="45.77849757152783" lon="12.912866430967597"><ele>2.0</ele><time>2026-04-05T15:27:42Z</time></trkpt><trkpt lat="45.77852858292709" lon="12.912572386715825"><ele>1.0</ele><time>2026-04-05T15:27:43Z</time></trkpt><trkpt lat="45.77857018691983" lon="12.912285018490143"><ele>2.3333333333333335</ele><time>2026-04-05T15:27:44Z</time></trkpt><trkpt lat="45.77861688886239" lon="12.911990454256133"><ele>3.666666666666667</ele><time>2026-04-05T15:27:45Z</time></trkpt><trkpt lat="45.778650894031145" lon="12.911709330125149"><ele>5.0</ele><time>2026-04-05T15:27:46Z</time></trkpt><trkpt lat="45.778670835406984" lon="12.911448191273633"><ele>5.0</ele><time>2026-04-05T15:27:47Z</time></trkpt><trkpt lat="45.778696104672875" lon="12.911174756250977"><ele>5.0</ele><time>2026-04-05T15:27:48Z</time></trkpt><trkpt lat="45.77873715728721" lon="12.910908361100322"><ele>5.0</ele><time>2026-04-05T15:27:49Z</time></trkpt><trkpt lat="45.778810091032376" lon="12.910666184620245"><ele>5.0</ele><time>2026-04-05T15:27:50Z</time></trkpt><trkpt lat="45.77884149516666" lon="12.91040275542807"><ele>5.0</ele><time>2026-04-05T15:27:51Z</time></trkpt><trkpt lat="45.77887211245452" lon="12.910145926584846"><ele>5.0</ele><time>2026-04-05T15:27:52Z</time></trkpt><trkpt lat="45.77890231034714" lon="12.90989261564863"><ele>5.0</ele><time>2026-04-05T15:27:53Z</time></trkpt><trkpt lat="45.778932624866655" lon="12.9096371498989"><ele>5.0</ele><time>2026-04-05T15:27:54Z</time></trkpt><trkpt lat="45.77896248945104" lon="12.90939426901012"><ele>5.0</ele><time>2026-04-05T15:27:55Z</time></trkpt><trkpt lat="45.77898777564305" lon="12.909188623479572"><ele>4.666666666666667</ele><time>2026-04-05T15:27:56Z</time></trkpt><trkpt lat="45.77901629721988" lon="12.908956664951667"><ele>4.333333333333333</ele><time>2026-04-05T15:27:57Z</time></trkpt><trkpt lat="45.77904632027526" lon="12.908755638314155"><ele>4.0</ele><time>2026-04-05T15:27:58Z</time></trkpt><trkpt lat="45.77911271886009" lon="12.908546916820757"><ele>4.0</ele><time>2026-04-05T15:27:59Z</time></trkpt><trkpt lat="45.779163772549765" lon="12.908411208834387"><ele>4.0</ele><time>2026-04-05T15:28:00Z</time></trkpt><trkpt lat="45.77918490388113" lon="12.908247770204962"><ele>4.0</ele><time>2026-04-05T15:28:01Z</time></trkpt><trkpt lat="45.77920329357636" lon="12.908090815472715"><ele>4.0</ele><time>2026-04-05T15:28:02Z</time></trkpt><trkpt lat="45.7792225120799" lon="12.907927889304883"><ele>4.0</ele><time>2026-04-05T15:28:02.999Z</time></trkpt><trkpt lat="45.77926957528227" lon="12.907528025942955"><ele>4.0</ele><time>2026-04-05T15:28:04.999Z</time></trkpt><trkpt lat="45.7793039481015" lon="12.907244906547323"><ele>4.0</ele><time>2026-04-05T15:28:05.999Z</time></trkpt><trkpt lat="45.77932834945251" lon="12.907041717764724"><ele>4.0</ele><time>2026-04-05T15:28:06.999Z</time></trkpt><trkpt lat="45.77935520364331" lon="12.906814012652557"><ele>4.0</ele><time>2026-04-05T15:28:07.999Z</time></trkpt><trkpt lat="45.77938468444486" lon="12.906570894415154"><ele>4.333333333333333</ele><time>2026-04-05T15:28:08.999Z</time></trkpt><trkpt lat="45.779407170738985" lon="12.906370605614239"><ele>4.666666666666667</ele><time>2026-04-05T15:28:09.999Z</time></trkpt><trkpt lat="45.77940306137182" lon="12.906033289238714"><ele>5.0</ele><time>2026-04-05T15:28:10.999Z</time></trkpt><trkpt lat="45.77942569487743" lon="12.905758160640028"><ele>5.0</ele><time>2026-04-05T15:28:11.999Z</time></trkpt><trkpt lat="45.779453216245905" lon="12.905429392181823"><ele>5.0</ele><time>2026-04-05T15:28:12.999Z</time></trkpt><trkpt lat="45.77948789470964" lon="12.905085938125584"><ele>5.0</ele><time>2026-04-05T15:28:13.999Z</time></trkpt><trkpt lat="45.77954206682106" lon="12.904768735240319"><ele>5.0</ele><time>2026-04-05T15:28:14.999Z</time></trkpt><trkpt lat="45.77957843203133" lon="12.90443999830297"><ele>4.0</ele><time>2026-04-05T15:28:15.999Z</time></trkpt><trkpt lat="45.779622407339325" lon="12.904092588330613"><ele>3.0</ele><time>2026-04-05T15:28:16.999Z</time></trkpt><trkpt lat="45.779678145784" lon="12.903733351756149"><ele>3.5</ele><time>2026-04-05T15:28:17.999Z</time></trkpt><trkpt lat="45.779727988048265" lon="12.903355428116594"><ele>4.0</ele><time>2026-04-05T15:28:18.999Z</time></trkpt><trkpt lat="45.77975039282757" lon="12.902984705839952"><ele>4.0</ele><time>2026-04-05T15:28:19.999Z</time></trkpt><trkpt lat="45.77977468755402" lon="12.902633121470094"><ele>4.0</ele><time>2026-04-05T15:28:20.999Z</time></trkpt><trkpt lat="45.77981432643195" lon="12.902281141047125"><ele>4.0</ele><time>2026-04-05T15:28:21.999Z</time></trkpt><trkpt lat="45.779850819203496" lon="12.901945513051265"><ele>4.0</ele><time>2026-04-05T15:28:22.999Z</time></trkpt><trkpt lat="45.77989747975469" lon="12.901555996389284"><ele>4.0</ele><time>2026-04-05T15:28:23.999Z</time></trkpt><trkpt lat="45.779937995260745" lon="12.901190812535955"><ele>4.0</ele><time>2026-04-05T15:28:24.999Z</time></trkpt><trkpt lat="45.77997725802326" lon="12.900875585585174"><ele>3.333333333333333</ele><time>2026-04-05T15:28:25.999Z</time></trkpt><trkpt lat="45.779998638370586" lon="12.900713961339706"><ele>2.6666666666666665</ele><time>2026-04-05T15:28:26.999Z</time></trkpt><trkpt lat="45.780025344904445" lon="12.900491659371692"><ele>2.0</ele><time>2026-04-05T15:28:28Z</time></trkpt><trkpt lat="45.78006107386141" lon="12.900194253929426"><ele>2.6666666666666665</ele><time>2026-04-05T15:28:29Z</time></trkpt><trkpt lat="45.780095607957385" lon="12.899904310999219"><ele>3.333333333333333</ele><time>2026-04-05T15:28:30Z</time></trkpt><trkpt lat="45.78012911572464" lon="12.89962303025956"><ele>4.0</ele><time>2026-04-05T15:28:31Z</time></trkpt><trkpt lat="45.78016176285962" lon="12.899348974435977"><ele>3.6666666666666665</ele><time>2026-04-05T15:28:32Z</time></trkpt><trkpt lat="45.78019508160603" lon="12.899069280471206"><ele>3.333333333333333</ele><time>2026-04-05T15:28:33Z</time></trkpt><trkpt lat="45.780215829969585" lon="12.898839983884208"><ele>3.0</ele><time>2026-04-05T15:28:34Z</time></trkpt><trkpt lat="45.78023400479992" lon="12.898619336645432"><ele>3.0</ele><time>2026-04-05T15:28:35Z</time></trkpt><trkpt lat="45.780265685355296" lon="12.898397741336435"><ele>3.0</ele><time>2026-04-05T15:28:36Z</time></trkpt><trkpt lat="45.780285206217485" lon="12.898213880800443"><ele>3.0</ele><time>2026-04-05T15:28:37Z</time></trkpt><trkpt lat="45.780300779303005" lon="12.898030974262934"><ele>3.0</ele><time>2026-04-05T15:28:38Z</time></trkpt><trkpt lat="45.78032923097924" lon="12.897857178942399"><ele>3.0</ele><time>2026-04-05T15:28:39Z</time></trkpt><trkpt lat="45.780348141730364" lon="12.897699009250244"><ele>3.0</ele><time>2026-04-05T15:28:40Z</time></trkpt><trkpt lat="45.780376379848015" lon="12.897551658553883"><ele>3.0</ele><time>2026-04-05T15:28:41Z</time></trkpt><trkpt lat="45.7804275501236" lon="12.897416668561346"><ele>3.0</ele><time>2026-04-05T15:28:42Z</time></trkpt><trkpt lat="45.780482916667395" lon="12.897278629502669"><ele>3.0</ele><time>2026-04-05T15:28:43Z</time></trkpt><trkpt lat="45.78055303811084" lon="12.897147141068814"><ele>3.0</ele><time>2026-04-05T15:28:44Z</time></trkpt><trkpt lat="45.78056031307787" lon="12.897006264152433"><ele>3.0</ele><time>2026-04-05T15:28:45Z</time></trkpt><trkpt lat="45.78051911474483" lon="12.89685177751561"><ele>3.0</ele><time>2026-04-05T15:28:46Z</time></trkpt><trkpt lat="45.78050787979446" lon="12.896670562908227"><ele>3.0</ele><time>2026-04-05T15:28:47Z</time></trkpt><trkpt lat="45.78052113420323" lon="12.896477788806372"><ele>3.333333333333333</ele><time>2026-04-05T15:28:48Z</time></trkpt><trkpt lat="45.78052438350871" lon="12.896218758020428"><ele>3.6666666666666665</ele><time>2026-04-05T15:28:49Z</time></trkpt><trkpt lat="45.78057106188327" lon="12.895966383791782"><ele>4.0</ele><time>2026-04-05T15:28:50Z</time></trkpt><trkpt lat="45.78060574684969" lon="12.895690227554319"><ele>4.0</ele><time>2026-04-05T15:28:51Z</time></trkpt><trkpt lat="45.78063116230977" lon="12.895359945499537"><ele>4.0</ele><time>2026-04-05T15:28:52Z</time></trkpt><trkpt lat="45.780690338789995" lon="12.89498382435986"><ele>3.5</ele><time>2026-04-05T15:28:53Z</time></trkpt><trkpt lat="45.780744514831305" lon="12.894573283386968"><ele>3.0</ele><time>2026-04-05T15:28:54Z</time></trkpt><trkpt lat="45.78078987319049" lon="12.894214013743698"><ele>3.0</ele><time>2026-04-05T15:28:55Z</time></trkpt><trkpt lat="45.78082997508089" lon="12.89389137655249"><ele>3.0</ele><time>2026-04-05T15:28:56Z</time></trkpt><trkpt lat="45.780870327317544" lon="12.893566725473127"><ele>3.666666666666667</ele><time>2026-04-05T15:28:57Z</time></trkpt><trkpt lat="45.780910608604856" lon="12.893242646798424"><ele>4.333333333333334</ele><time>2026-04-05T15:28:58Z</time></trkpt><trkpt lat="45.78094687256179" lon="12.892952988872807"><ele>5.0</ele><time>2026-04-05T15:28:59Z</time></trkpt><trkpt lat="45.78098592083764" lon="12.892640793656874"><ele>4.5</ele><time>2026-04-05T15:29:00Z</time></trkpt><trkpt lat="45.78102752602765" lon="12.892308155836659"><ele>4.0</ele><time>2026-04-05T15:29:01Z</time></trkpt><trkpt lat="45.7810296430401" lon="12.891968483573178"><ele>3.333333333333333</ele><time>2026-04-05T15:29:02Z</time></trkpt><trkpt lat="45.781076114457036" lon="12.891643712664163"><ele>2.6666666666666665</ele><time>2026-04-05T15:29:03Z</time></trkpt><trkpt lat="45.781121629938646" lon="12.891348521046693"><ele>2.0</ele><time>2026-04-05T15:29:04Z</time></trkpt><trkpt lat="45.7811724237704" lon="12.891060230010911"><ele>2.333333333333333</ele><time>2026-04-05T15:29:05Z</time></trkpt><trkpt lat="45.781212708487814" lon="12.89077775775883"><ele>2.6666666666666665</ele><time>2026-04-05T15:29:06Z</time></trkpt><trkpt lat="45.78124864874795" lon="12.89048588112995"><ele>3.0</ele><time>2026-04-05T15:29:07Z</time></trkpt><trkpt lat="45.78128794960703" lon="12.890228965599919"><ele>3.666666666666667</ele><time>2026-04-05T15:29:08Z</time></trkpt><trkpt lat="45.78131969193567" lon="12.889973184614748"><ele>4.333333333333334</ele><time>2026-04-05T15:29:09Z</time></trkpt><trkpt lat="45.78135206992459" lon="12.88971228140646"><ele>5.0</ele><time>2026-04-05T15:29:10Z</time></trkpt><trkpt lat="45.781378926182086" lon="12.889495872827203"><ele>5.0</ele><time>2026-04-05T15:29:11Z</time></trkpt><trkpt lat="45.78140620337256" lon="12.88927607190886"><ele>5.0</ele><time>2026-04-05T15:29:12Z</time></trkpt><trkpt lat="45.78143386777397" lon="12.88905315106559"><ele>5.0</ele><time>2026-04-05T15:29:13Z</time></trkpt><trkpt lat="45.78146417728169" lon="12.888808916058162"><ele>5.0</ele><time>2026-04-05T15:29:14Z</time></trkpt><trkpt lat="45.78149359510544" lon="12.888571866210894"><ele>5.0</ele><time>2026-04-05T15:29:15Z</time></trkpt><trkpt lat="45.781522271258694" lon="12.888283468614992"><ele>5.0</ele><time>2026-04-05T15:29:16Z</time></trkpt><trkpt lat="45.78155568358209" lon="12.887989276789812"><ele>5.0</ele><time>2026-04-05T15:29:17Z</time></trkpt><trkpt lat="45.781602541178124" lon="12.887686739444408"><ele>5.0</ele><time>2026-04-05T15:29:18Z</time></trkpt><trkpt lat="45.78163343291006" lon="12.887372814578802"><ele>5.0</ele><time>2026-04-05T15:29:19Z</time></trkpt><trkpt lat="45.78166459275479" lon="12.887084423853173"><ele>4.666666666666667</ele><time>2026-04-05T15:29:20Z</time></trkpt><trkpt lat="45.78166322669406" lon="12.88679420971093"><ele>4.333333333333333</ele><time>2026-04-05T15:29:21Z</time></trkpt><trkpt lat="45.78168881126611" lon="12.886514337247137"><ele>4.0</ele><time>2026-04-05T15:29:22Z</time></trkpt><trkpt lat="45.78169447673602" lon="12.88621843377572"><ele>3.333333333333333</ele><time>2026-04-05T15:29:23Z</time></trkpt><trkpt lat="45.78168377639504" lon="12.885924047306078"><ele>2.6666666666666665</ele><time>2026-04-05T15:29:24Z</time></trkpt><trkpt lat="45.78168521521035" lon="12.885605446976603"><ele>2.0</ele><time>2026-04-05T15:29:25Z</time></trkpt><trkpt lat="45.78166979756868" lon="12.88525853658431"><ele>3.0</ele><time>2026-04-05T15:29:26Z</time></trkpt><trkpt lat="45.78161294278953" lon="12.884871884365355"><ele>4.0</ele><time>2026-04-05T15:29:27Z</time></trkpt><trkpt lat="45.78156716722655" lon="12.884482220868179"><ele>3.0</ele><time>2026-04-05T15:29:28Z</time></trkpt><trkpt lat="45.78153757591276" lon="12.884102323935766"><ele>2.0</ele><time>2026-04-05T15:29:29Z</time></trkpt><trkpt lat="45.781511602887925" lon="12.88374478442218"><ele>1.0</ele><time>2026-04-05T15:29:30Z</time></trkpt><trkpt lat="45.781492722876855" lon="12.883401310425153"><ele>0.0</ele><time>2026-04-05T15:29:31Z</time></trkpt><trkpt lat="45.78149989527503" lon="12.883081996538085"><ele>0.0</ele><time>2026-04-05T15:29:32Z</time></trkpt><trkpt lat="45.78151660791139" lon="12.88273988891505"><ele>0.0</ele><time>2026-04-05T15:29:33Z</time></trkpt><trkpt lat="45.781541057262274" lon="12.882425498700247"><ele>0.3333333333333333</ele><time>2026-04-05T15:29:34Z</time></trkpt><trkpt lat="45.781575683811965" lon="12.882104275163599"><ele>0.6666666666666666</ele><time>2026-04-05T15:29:35Z</time></trkpt><trkpt lat="45.78161240665292" lon="12.881822690931418"><ele>1.0</ele><time>2026-04-05T15:29:36Z</time></trkpt><trkpt lat="45.781657221758365" lon="12.88154546347257"><ele>1.3333333333333333</ele><time>2026-04-05T15:29:37Z</time></trkpt><trkpt lat="45.78170734448011" lon="12.88128646983847"><ele>1.6666666666666665</ele><time>2026-04-05T15:29:38Z</time></trkpt><trkpt lat="45.7817687336049" lon="12.880996472183108"><ele>2.0</ele><time>2026-04-05T15:29:39Z</time></trkpt><trkpt lat="45.78180367140881" lon="12.8806798000234"><ele>2.0</ele><time>2026-04-05T15:29:40Z</time></trkpt><trkpt lat="45.78189011959233" lon="12.880388538502809"><ele>2.0</ele><time>2026-04-05T15:29:41Z</time></trkpt><trkpt lat="45.78199273151178" lon="12.880091470972557"><ele>1.5</ele><time>2026-04-05T15:29:42Z</time></trkpt><trkpt lat="45.782112905084695" lon="12.879763044477281"><ele>1.0</ele><time>2026-04-05T15:29:43Z</time></trkpt><trkpt lat="45.782243952377875" lon="12.879411518574834"><ele>0.5</ele><time>2026-04-05T15:29:44Z</time></trkpt><trkpt lat="45.78238877083148" lon="12.878994884448682"><ele>0.0</ele><time>2026-04-05T15:29:45Z</time></trkpt><trkpt lat="45.78251978851363" lon="12.878604865251797"><ele>0.5</ele><time>2026-04-05T15:29:46Z</time></trkpt><trkpt lat="45.78265560019193" lon="12.878221717744355"><ele>1.0</ele><time>2026-04-05T15:29:47Z</time></trkpt><trkpt lat="45.782792905892705" lon="12.87781919976619"><ele>1.5</ele><time>2026-04-05T15:29:48Z</time></trkpt><trkpt lat="45.78290275446042" lon="12.877449768598748"><ele>2.0</ele><time>2026-04-05T15:29:49Z</time></trkpt><trkpt lat="45.78301176384125" lon="12.877093364422763"><ele>2.0</ele><time>2026-04-05T15:29:50Z</time></trkpt><trkpt lat="45.78312694711853" lon="12.876760150133482"><ele>2.0</ele><time>2026-04-05T15:29:51Z</time></trkpt><trkpt lat="45.78320889323678" lon="12.876437799830038"><ele>2.0</ele><time>2026-04-05T15:29:52Z</time></trkpt><trkpt lat="45.78333162526807" lon="12.876126436293605"><ele>2.0</ele><time>2026-04-05T15:29:53Z</time></trkpt><trkpt lat="45.78340953685254" lon="12.875853996961387"><ele>2.0</ele><time>2026-04-05T15:29:54Z</time></trkpt><trkpt lat="45.783504386363795" lon="12.875569007718966"><ele>2.0</ele><time>2026-04-05T15:29:55Z</time></trkpt><trkpt lat="45.783592970595684" lon="12.875272918494765"><ele>2.0</ele><time>2026-04-05T15:29:55.999Z</time></trkpt><trkpt lat="45.78367716324204" lon="12.874966915669752"><ele>2.0</ele><time>2026-04-05T15:29:56.999Z</time></trkpt><trkpt lat="45.78375851003104" lon="12.874657615954566"><ele>2.0</ele><time>2026-04-05T15:29:57.999Z</time></trkpt><trkpt lat="45.78382358492825" lon="12.874329740683933"><ele>2.0</ele><time>2026-04-05T15:29:58.999Z</time></trkpt><trkpt lat="45.783889636292926" lon="12.873962809191388"><ele>2.0</ele><time>2026-04-05T15:29:59.999Z</time></trkpt><trkpt lat="45.783916270867" lon="12.873564613539823"><ele>2.5</ele><time>2026-04-05T15:30:00.999Z</time></trkpt><trkpt lat="45.783912350702536" lon="12.873219604920951"><ele>3.0</ele><time>2026-04-05T15:30:01.999Z</time></trkpt><trkpt lat="45.783934316267796" lon="12.872842685725544"><ele>3.5</ele><time>2026-04-05T15:30:02.999Z</time></trkpt><trkpt lat="45.78395998963669" lon="12.872456647041318"><ele>4.0</ele><time>2026-04-05T15:30:03.999Z</time></trkpt><trkpt lat="45.7839521174087" lon="12.872046125773103"><ele>3.5</ele><time>2026-04-05T15:30:04.999Z</time></trkpt><trkpt lat="45.78396375266502" lon="12.871636551508598"><ele>3.0</ele><time>2026-04-05T15:30:05.999Z</time></trkpt><trkpt lat="45.78394878650062" lon="12.871211973010872"><ele>3.5</ele><time>2026-04-05T15:30:06.999Z</time></trkpt><trkpt lat="45.78396239758719" lon="12.870766715101466"><ele>4.0</ele><time>2026-04-05T15:30:07.999Z</time></trkpt><trkpt lat="45.78397811089231" lon="12.870279698927774"><ele>3.0</ele><time>2026-04-05T15:30:08.999Z</time></trkpt><trkpt lat="45.7839987436832" lon="12.869734818910004"><ele>2.0</ele><time>2026-04-05T15:30:09.999Z</time></trkpt><trkpt lat="45.78395775878989" lon="12.869153319319528"><ele>2.0</ele><time>2026-04-05T15:30:10.999Z</time></trkpt><trkpt lat="45.78398353269658" lon="12.86855831577734"><ele>2.0</ele><time>2026-04-05T15:30:11.999Z</time></trkpt><trkpt lat="45.78396753235321" lon="12.867959070759245"><ele>2.0</ele><time>2026-04-05T15:30:12.999Z</time></trkpt><trkpt lat="45.78395009383051" lon="12.86732845292179"><ele>2.0</ele><time>2026-04-05T15:30:13.999Z</time></trkpt><trkpt lat="45.78391989048366" lon="12.866714613745838"><ele>2.0</ele><time>2026-04-05T15:30:14.999Z</time></trkpt><trkpt lat="45.783898498918475" lon="12.866124894615071"><ele>2.0</ele><time>2026-04-05T15:30:15.999Z</time></trkpt><trkpt lat="45.78386542965031" lon="12.86556722474064"><ele>2.0</ele><time>2026-04-05T15:30:16.999Z</time></trkpt><trkpt lat="45.78385430719596" lon="12.865044534120097"><ele>2.0</ele><time>2026-04-05T15:30:17.999Z</time></trkpt><trkpt lat="45.78383375486995" lon="12.864567371884679"><ele>2.0</ele><time>2026-04-05T15:30:18.999Z</time></trkpt><trkpt lat="45.78380343039582" lon="12.864092191099315"><ele>2.0</ele><time>2026-04-05T15:30:19.999Z</time></trkpt><trkpt lat="45.783771687970805" lon="12.86364933889841"><ele>2.5</ele><time>2026-04-05T15:30:20.999Z</time></trkpt><trkpt lat="45.7837515602486" lon="12.863216045852893"><ele>3.0</ele><time>2026-04-05T15:30:21.999Z</time></trkpt><trkpt lat="45.78373735621412" lon="12.86281828175388"><ele>2.0</ele><time>2026-04-05T15:30:22.999Z</time></trkpt><trkpt lat="45.78373795740037" lon="12.862401267080683"><ele>1.0</ele><time>2026-04-05T15:30:23.999Z</time></trkpt><trkpt lat="45.78373273385355" lon="12.86202260345988"><ele>2.0</ele><time>2026-04-05T15:30:24.999Z</time></trkpt><trkpt lat="45.78374342265846" lon="12.861690888064821"><ele>3.0</ele><time>2026-04-05T15:30:25.999Z</time></trkpt><trkpt lat="45.783724426216246" lon="12.8613458547566"><ele>3.0</ele><time>2026-04-05T15:30:26.999Z</time></trkpt><trkpt lat="45.78371363139189" lon="12.860994386497312"><ele>3.0</ele><time>2026-04-05T15:30:27.999Z</time></trkpt><trkpt lat="45.78369967743909" lon="12.860648916874128"><ele>3.0</ele><time>2026-04-05T15:30:28.999Z</time></trkpt><trkpt lat="45.78369641089099" lon="12.860325066325341"><ele>3.0</ele><time>2026-04-05T15:30:29.999Z</time></trkpt><trkpt lat="45.783696952339234" lon="12.859970749389015"><ele>2.0</ele><time>2026-04-05T15:30:30.999Z</time></trkpt><trkpt lat="45.78370322267081" lon="12.859641904932003"><ele>1.0</ele><time>2026-04-05T15:30:31.999Z</time></trkpt><trkpt lat="45.78368080294036" lon="12.859323146424016"><ele>1.0</ele><time>2026-04-05T15:30:32.999Z</time></trkpt><trkpt lat="45.78366782497545" lon="12.859013603817441"><ele>1.0</ele><time>2026-04-05T15:30:34Z</time></trkpt><trkpt lat="45.783674081827506" lon="12.858682355051643"><ele>1.0</ele><time>2026-04-05T15:30:35Z</time></trkpt><trkpt lat="45.783675700065665" lon="12.858320215228716"><ele>1.0</ele><time>2026-04-05T15:30:36Z</time></trkpt><trkpt lat="45.78366271567302" lon="12.857950328749041"><ele>1.0</ele><time>2026-04-05T15:30:37Z</time></trkpt><trkpt lat="45.78367111483497" lon="12.857579799954854"><ele>1.0</ele><time>2026-04-05T15:30:38Z</time></trkpt><trkpt lat="45.78370630549636" lon="12.857183980464253"><ele>1.0</ele><time>2026-04-05T15:30:39Z</time></trkpt><trkpt lat="45.78374722301959" lon="12.856811126971024"><ele>1.0</ele><time>2026-04-05T15:30:40Z</time></trkpt><trkpt lat="45.783761529066304" lon="12.856463976357702"><ele>1.0</ele><time>2026-04-05T15:30:41Z</time></trkpt><trkpt lat="45.78380381933107" lon="12.856182919241434"><ele>1.0</ele><time>2026-04-05T15:30:42Z</time></trkpt><trkpt lat="45.78382427437784" lon="12.85593111134408"><ele>1.6666666666666665</ele><time>2026-04-05T15:30:43Z</time></trkpt><trkpt lat="45.78385207554404" lon="12.855661836576921"><ele>2.3333333333333335</ele><time>2026-04-05T15:30:44Z</time></trkpt><trkpt lat="45.78389008101629" lon="12.855331762514584"><ele>3.0</ele><time>2026-04-05T15:30:45Z</time></trkpt><trkpt lat="45.78393794953884" lon="12.855001226217583"><ele>3.0</ele><time>2026-04-05T15:30:46Z</time></trkpt><trkpt lat="45.78398416416082" lon="12.854669056691721"><ele>3.0</ele><time>2026-04-05T15:30:47Z</time></trkpt><trkpt lat="45.7840280627898" lon="12.854319912618937"><ele>2.5</ele><time>2026-04-05T15:30:48Z</time></trkpt><trkpt lat="45.784098608831" lon="12.853924212697027"><ele>2.0</ele><time>2026-04-05T15:30:49Z</time></trkpt><trkpt lat="45.78415201065956" lon="12.853542084181496"><ele>1.5</ele><time>2026-04-05T15:30:50Z</time></trkpt><trkpt lat="45.784194020781705" lon="12.85318318904973"><ele>1.0</ele><time>2026-04-05T15:30:51Z</time></trkpt><trkpt lat="45.784226746643945" lon="12.852828618652625"><ele>1.0</ele><time>2026-04-05T15:30:52Z</time></trkpt><trkpt lat="45.784281488111" lon="12.852465051001808"><ele>1.0</ele><time>2026-04-05T15:30:53Z</time></trkpt><trkpt lat="45.78435095391717" lon="12.852108641065813"><ele>0.5</ele><time>2026-04-05T15:30:54Z</time></trkpt><trkpt lat="45.78438877705581" lon="12.851753276705816"><ele>0.0</ele><time>2026-04-05T15:30:55Z</time></trkpt><trkpt lat="45.78442981056983" lon="12.851384254123126"><ele>0.0</ele><time>2026-04-05T15:30:56Z</time></trkpt><trkpt lat="45.78449396812057" lon="12.851072640569567"><ele>0.0</ele><time>2026-04-05T15:30:57Z</time></trkpt><trkpt lat="45.784543942202134" lon="12.850732998579378"><ele>1.0</ele><time>2026-04-05T15:30:58Z</time></trkpt><trkpt lat="45.78460718421187" lon="12.850364113026739"><ele>2.0</ele><time>2026-04-05T15:30:59Z</time></trkpt><trkpt lat="45.78466324751912" lon="12.849991728877733"><ele>2.0</ele><time>2026-04-05T15:31:00Z</time></trkpt><trkpt lat="45.78471052603941" lon="12.849624486467988"><ele>2.0</ele><time>2026-04-05T15:31:01Z</time></trkpt><trkpt lat="45.78475429402682" lon="12.849217970027443"><ele>1.0</ele><time>2026-04-05T15:31:02Z</time></trkpt><trkpt lat="45.784800964164035" lon="12.84888085082215"><ele>0.0</ele><time>2026-04-05T15:31:03Z</time></trkpt><trkpt lat="45.78484478137577" lon="12.848534641501692"><ele>0.0</ele><time>2026-04-05T15:31:04Z</time></trkpt><trkpt lat="45.784879179103385" lon="12.84821963455619"><ele>0.0</ele><time>2026-04-05T15:31:05Z</time></trkpt><trkpt lat="45.78492153789756" lon="12.847933842672816"><ele>0.0</ele><time>2026-04-05T15:31:06Z</time></trkpt><trkpt lat="45.784941582341695" lon="12.847662439673147"><ele>0.3333333333333333</ele><time>2026-04-05T15:31:07Z</time></trkpt><trkpt lat="45.78497826121741" lon="12.847406822095012"><ele>0.6666666666666666</ele><time>2026-04-05T15:31:08Z</time></trkpt><trkpt lat="45.78500360091147" lon="12.847093233599939"><ele>1.0</ele><time>2026-04-05T15:31:09Z</time></trkpt><trkpt lat="45.785024761876365" lon="12.846822655954123"><ele>1.3333333333333333</ele><time>2026-04-05T15:31:10Z</time></trkpt><trkpt lat="45.78506852665296" lon="12.84655580427735"><ele>1.6666666666666665</ele><time>2026-04-05T15:31:11Z</time></trkpt><trkpt lat="45.785104841707515" lon="12.846251593930743"><ele>2.0</ele><time>2026-04-05T15:31:12Z</time></trkpt><trkpt lat="45.78515971488598" lon="12.845943347089941"><ele>1.5</ele><time>2026-04-05T15:31:13Z</time></trkpt><trkpt lat="45.785198689826245" lon="12.84559135433065"><ele>1.0</ele><time>2026-04-05T15:31:14Z</time></trkpt><trkpt lat="45.78524655936258" lon="12.845287670923293"><ele>0.6666666666666666</ele><time>2026-04-05T15:31:15Z</time></trkpt><trkpt lat="45.785297727732086" lon="12.844953713752739"><ele>0.3333333333333333</ele><time>2026-04-05T15:31:16Z</time></trkpt><trkpt lat="45.785355220582105" lon="12.844666831571798"><ele>0.0</ele><time>2026-04-05T15:31:17Z</time></trkpt><trkpt lat="45.78541156221968" lon="12.844358287902821"><ele>0.0</ele><time>2026-04-05T15:31:18Z</time></trkpt><trkpt lat="45.78546876803367" lon="12.844056775269774"><ele>0.0</ele><time>2026-04-05T15:31:19Z</time></trkpt><trkpt lat="45.78552954888354" lon="12.843761648946566"><ele>0.0</ele><time>2026-04-05T15:31:20Z</time></trkpt><trkpt lat="45.785598587691176" lon="12.84344810665896"><ele>0.0</ele><time>2026-04-05T15:31:21Z</time></trkpt><trkpt lat="45.78566508087155" lon="12.843160986882271"><ele>0.0</ele><time>2026-04-05T15:31:22Z</time></trkpt><trkpt lat="45.78573415872913" lon="12.842880691695"><ele>0.0</ele><time>2026-04-05T15:31:23Z</time></trkpt><trkpt lat="45.78580501794713" lon="12.842601286196395"><ele>0.3333333333333333</ele><time>2026-04-05T15:31:24Z</time></trkpt><trkpt lat="45.78588536254887" lon="12.842299446258764"><ele>0.6666666666666666</ele><time>2026-04-05T15:31:25Z</time></trkpt><trkpt lat="45.78596152600916" lon="12.84203014685041"><ele>1.0</ele><time>2026-04-05T15:31:26Z</time></trkpt><trkpt lat="45.78605122162092" lon="12.84172186599309"><ele>2.0</ele><time>2026-04-05T15:31:27Z</time></trkpt><trkpt lat="45.786151973938495" lon="12.841392957081982"><ele>3.0</ele><time>2026-04-05T15:31:28Z</time></trkpt><trkpt lat="45.786254857509135" lon="12.841074106652332"><ele>3.0</ele><time>2026-04-05T15:31:29Z</time></trkpt><trkpt lat="45.78636919101185" lon="12.840732494230531"><ele>3.0</ele><time>2026-04-05T15:31:30Z</time></trkpt><trkpt lat="45.786491328318576" lon="12.840376452173631"><ele>3.5</ele><time>2026-04-05T15:31:31Z</time></trkpt><trkpt lat="45.786620134813" lon="12.840000968990084"><ele>4.0</ele><time>2026-04-05T15:31:32Z</time></trkpt><trkpt lat="45.78674153480337" lon="12.839615056981115"><ele>4.5</ele><time>2026-04-05T15:31:33Z</time></trkpt><trkpt lat="45.78687579355712" lon="12.839228258535858"><ele>5.0</ele><time>2026-04-05T15:31:34Z</time></trkpt><trkpt lat="45.78700462661292" lon="12.838822525341081"><ele>4.5</ele><time>2026-04-05T15:31:35Z</time></trkpt><trkpt lat="45.7871537742084" lon="12.838399828228024"><ele>4.0</ele><time>2026-04-05T15:31:36Z</time></trkpt><trkpt lat="45.787264808470184" lon="12.837978826629843"><ele>4.0</ele><time>2026-04-05T15:31:37Z</time></trkpt><trkpt lat="45.787394760572724" lon="12.837517369600894"><ele>4.0</ele><time>2026-04-05T15:31:38Z</time></trkpt><trkpt lat="45.787546459052045" lon="12.837063542978154"><ele>3.5</ele><time>2026-04-05T15:31:39Z</time></trkpt><trkpt lat="45.7876295770335" lon="12.83663672059929"><ele>3.0</ele><time>2026-04-05T15:31:40Z</time></trkpt><trkpt lat="45.787707291580766" lon="12.836198974876469"><ele>2.5</ele><time>2026-04-05T15:31:41Z</time></trkpt><trkpt lat="45.78776560278267" lon="12.835786745417462"><ele>2.0</ele><time>2026-04-05T15:31:42Z</time></trkpt><trkpt lat="45.78779225716828" lon="12.835372031630842"><ele>2.0</ele><time>2026-04-05T15:31:43Z</time></trkpt><trkpt lat="45.78782798688826" lon="12.834946253419036"><ele>2.0</ele><time>2026-04-05T15:31:44Z</time></trkpt><trkpt lat="45.787868781308255" lon="12.834668827953125"><ele>2.0</ele><time>2026-04-05T15:31:45Z</time></trkpt><trkpt lat="45.787863165897534" lon="12.834325762896444"><ele>2.0</ele><time>2026-04-05T15:31:46Z</time></trkpt><trkpt lat="45.787855456335215" lon="12.834015945938667"><ele>1.6666666666666665</ele><time>2026-04-05T15:31:47Z</time></trkpt><trkpt lat="45.787835604878666" lon="12.833696355534391"><ele>1.3333333333333333</ele><time>2026-04-05T15:31:48Z</time></trkpt><trkpt lat="45.787827368076805" lon="12.833377386714355"><ele>1.0</ele><time>2026-04-05T15:31:49Z</time></trkpt><trkpt lat="45.78781199946739" lon="12.83308550632567"><ele>0.6666666666666666</ele><time>2026-04-05T15:31:50Z</time></trkpt><trkpt lat="45.787840908941355" lon="12.832806200805583"><ele>0.3333333333333333</ele><time>2026-04-05T15:31:51Z</time></trkpt><trkpt lat="45.78783066671746" lon="12.832562752936727"><ele>0.0</ele><time>2026-04-05T15:31:52Z</time></trkpt><trkpt lat="45.78783454525746" lon="12.832307849475947"><ele>0.0</ele><time>2026-04-05T15:31:53Z</time></trkpt><trkpt lat="45.78781109390622" lon="12.832066663553663"><ele>0.0</ele><time>2026-04-05T15:31:54Z</time></trkpt><trkpt lat="45.787788540343435" lon="12.831792197018684"><ele>0.0</ele><time>2026-04-05T15:31:55Z</time></trkpt><trkpt lat="45.78774835675902" lon="12.831508259373727"><ele>0.6666666666666666</ele><time>2026-04-05T15:31:55.999Z</time></trkpt><trkpt lat="45.787719496645785" lon="12.831190948484961"><ele>1.3333333333333333</ele><time>2026-04-05T15:31:56.999Z</time></trkpt><trkpt lat="45.78769194910204" lon="12.830888400411538"><ele>2.0</ele><time>2026-04-05T15:31:57.999Z</time></trkpt><trkpt lat="45.78764734223164" lon="12.830605489119646"><ele>2.333333333333333</ele><time>2026-04-05T15:31:58.999Z</time></trkpt><trkpt lat="45.78762171628562" lon="12.830354823247408"><ele>2.6666666666666665</ele><time>2026-04-05T15:31:59.999Z</time></trkpt><trkpt lat="45.78759391864566" lon="12.830119238271786"><ele>3.0</ele><time>2026-04-05T15:32:00.999Z</time></trkpt><trkpt lat="45.78756575716958" lon="12.829898864161912"><ele>3.4</ele><time>2026-04-05T15:32:01.999Z</time></trkpt><trkpt lat="45.787549125750765" lon="12.829709472182122"><ele>3.8</ele><time>2026-04-05T15:32:02.999Z</time></trkpt><trkpt lat="45.787553403044726" lon="12.829556609053407"><ele>4.2</ele><time>2026-04-05T15:32:03.999Z</time></trkpt><trkpt lat="45.787575099897985" lon="12.829459764772857"><ele>4.6</ele><time>2026-04-05T15:32:04.999Z</time></trkpt><trkpt lat="45.78762670765692" lon="12.829328661998531"><ele>5.0</ele><time>2026-04-05T15:32:06.999Z</time></trkpt><trkpt lat="45.78768035873077" lon="12.829183955839625"><ele>5.2</ele><time>2026-04-05T15:32:08.999Z</time></trkpt><trkpt lat="45.787757296667756" lon="12.829073393765391"><ele>5.4</ele><time>2026-04-05T15:32:09.999Z</time></trkpt><trkpt lat="45.78781419534737" lon="12.82892319193846"><ele>5.6</ele><time>2026-04-05T15:32:10.999Z</time></trkpt><trkpt lat="45.78784826005207" lon="12.828772635013612"><ele>5.8</ele><time>2026-04-05T15:32:11.999Z</time></trkpt><trkpt lat="45.787879553713886" lon="12.828638292794873"><ele>6.0</ele><time>2026-04-05T15:32:12.999Z</time></trkpt><trkpt lat="45.78790542154703" lon="12.828510334238599"><ele>5.8</ele><time>2026-04-05T15:32:13.999Z</time></trkpt><trkpt lat="45.78793956884428" lon="12.828389873842665"><ele>5.6</ele><time>2026-04-05T15:32:14.999Z</time></trkpt><trkpt lat="45.78800118051777" lon="12.828274915003721"><ele>5.4</ele><time>2026-04-05T15:32:15.999Z</time></trkpt><trkpt lat="45.788089072536565" lon="12.828156870420052"><ele>5.2</ele><time>2026-04-05T15:32:16.999Z</time></trkpt><trkpt lat="45.78818448344226" lon="12.828060036211621"><ele>5.0</ele><time>2026-04-05T15:32:17.999Z</time></trkpt><trkpt lat="45.78832386967394" lon="12.827952254027249"><ele>5.0</ele><time>2026-04-05T15:32:18.999Z</time></trkpt><trkpt lat="45.7884134748934" lon="12.827852339343458"><ele>5.0</ele><time>2026-04-05T15:32:19.999Z</time></trkpt><trkpt lat="45.78850818387579" lon="12.827757254559112"><ele>5.0</ele><time>2026-04-05T15:32:20.999Z</time></trkpt><trkpt lat="45.78861235874792" lon="12.827686365723276"><ele>5.0</ele><time>2026-04-05T15:32:21.999Z</time></trkpt><trkpt lat="45.78869025962382" lon="12.827613115687017"><ele>5.0</ele><time>2026-04-05T15:32:22.999Z</time></trkpt><trkpt lat="45.788780939653606" lon="12.827545055495653"><ele>5.0</ele><time>2026-04-05T15:32:23.999Z</time></trkpt><trkpt lat="45.78886585288886" lon="12.82748768115065"><ele>5.0</ele><time>2026-04-05T15:32:24.999Z</time></trkpt><trkpt lat="45.78892896829864" lon="12.82745016843433"><ele>5.0</ele><time>2026-04-05T15:32:25.999Z</time></trkpt><trkpt lat="45.7890212219445" lon="12.827464124371316"><ele>5.0</ele><time>2026-04-05T15:32:26.999Z</time></trkpt><trkpt lat="45.7891066980635" lon="12.82749416020768"><ele>5.0</ele><time>2026-04-05T15:32:27.999Z</time></trkpt><trkpt lat="45.78919127427678" lon="12.827549078607191"><ele>5.0</ele><time>2026-04-05T15:32:28.999Z</time></trkpt><trkpt lat="45.78928659201531" lon="12.827498755526806"><ele>5.2</ele><time>2026-04-05T15:32:29.999Z</time></trkpt><trkpt lat="45.78936269892716" lon="12.827405952176392"><ele>5.4</ele><time>2026-04-05T15:32:30.999Z</time></trkpt><trkpt lat="45.78941715079344" lon="12.827270562857827"><ele>5.6</ele><time>2026-04-05T15:32:31.999Z</time></trkpt><trkpt lat="45.78947681961793" lon="12.827130358660556"><ele>5.8</ele><time>2026-04-05T15:32:32.999Z</time></trkpt><trkpt lat="45.78955907780635" lon="12.827014688558927"><ele>6.0</ele><time>2026-04-05T15:32:33.999Z</time></trkpt><trkpt lat="45.789665390339756" lon="12.826907519138782"><ele>5.666666666666667</ele><time>2026-04-05T15:32:34.999Z</time></trkpt><trkpt lat="45.7897997374892" lon="12.826770760053648"><ele>5.333333333333334</ele><time>2026-04-05T15:32:35.999Z</time></trkpt><trkpt lat="45.789928433883404" lon="12.826636703103636"><ele>5.0</ele><time>2026-04-05T15:32:36.999Z</time></trkpt><trkpt lat="45.79005530665027" lon="12.826506920389413"><ele>4.666666666666667</ele><time>2026-04-05T15:32:37.999Z</time></trkpt><trkpt lat="45.79018253110701" lon="12.82637271974028"><ele>4.333333333333333</ele><time>2026-04-05T15:32:38.999Z</time></trkpt><trkpt lat="45.790338757205646" lon="12.826234365665025"><ele>4.0</ele><time>2026-04-05T15:32:40Z</time></trkpt><trkpt lat="45.79049255870512" lon="12.826109701340922"><ele>4.0</ele><time>2026-04-05T15:32:41Z</time></trkpt><trkpt lat="45.79064639078582" lon="12.82598892197448"><ele>4.0</ele><time>2026-04-05T15:32:42Z</time></trkpt><trkpt lat="45.79081281502048" lon="12.825868771720172"><ele>4.0</ele><time>2026-04-05T15:32:43Z</time></trkpt><trkpt lat="45.79097885725472" lon="12.82574521722139"><ele>5.0</ele><time>2026-04-05T15:32:44Z</time></trkpt><trkpt lat="45.79113327016858" lon="12.825581422038058"><ele>6.0</ele><time>2026-04-05T15:32:45Z</time></trkpt><trkpt lat="45.79129742641298" lon="12.82544537452836"><ele>7.0</ele><time>2026-04-05T15:32:46Z</time></trkpt><trkpt lat="45.791457474436875" lon="12.825259654575841"><ele>7.333333333333334</ele><time>2026-04-05T15:32:47Z</time></trkpt><trkpt lat="45.791620332683365" lon="12.825096642576591"><ele>7.666666666666666</ele><time>2026-04-05T15:32:48Z</time></trkpt><trkpt lat="45.791777123575585" lon="12.824927256924825"><ele>8.0</ele><time>2026-04-05T15:32:49Z</time></trkpt><trkpt lat="45.79193460425331" lon="12.824765773526467"><ele>8.0</ele><time>2026-04-05T15:32:50Z</time></trkpt><trkpt lat="45.79210386086629" lon="12.824594315253428"><ele>8.0</ele><time>2026-04-05T15:32:51Z</time></trkpt><trkpt lat="45.792277098552255" lon="12.824400727931323"><ele>8.0</ele><time>2026-04-05T15:32:52Z</time></trkpt><trkpt lat="45.792449562088464" lon="12.82421071706958"><ele>8.0</ele><time>2026-04-05T15:32:53Z</time></trkpt><trkpt lat="45.79262483124875" lon="12.824001715852589"><ele>8.0</ele><time>2026-04-05T15:32:54Z</time></trkpt><trkpt lat="45.79279197194431" lon="12.82378011904833"><ele>8.0</ele><time>2026-04-05T15:32:55Z</time></trkpt><trkpt lat="45.79295483827922" lon="12.82356893498681"><ele>8.0</ele><time>2026-04-05T15:32:56Z</time></trkpt><trkpt lat="45.79310149672582" lon="12.823331273636631"><ele>8.0</ele><time>2026-04-05T15:32:57Z</time></trkpt><trkpt lat="45.79324799193728" lon="12.823074087276163"><ele>8.0</ele><time>2026-04-05T15:32:58Z</time></trkpt><trkpt lat="45.79340778511275" lon="12.822835262832688"><ele>8.0</ele><time>2026-04-05T15:32:59Z</time></trkpt><trkpt lat="45.793572467763155" lon="12.822611697780443"><ele>7.666666666666666</ele><time>2026-04-05T15:33:00Z</time></trkpt><trkpt lat="45.79372526736291" lon="12.82240933163489"><ele>7.333333333333334</ele><time>2026-04-05T15:33:01Z</time></trkpt><trkpt lat="45.79386948185685" lon="12.822221511948122"><ele>7.0</ele><time>2026-04-05T15:33:02Z</time></trkpt><trkpt lat="45.794017541842535" lon="12.822035232464154"><ele>7.0</ele><time>2026-04-05T15:33:03Z</time></trkpt><trkpt lat="45.794169767754326" lon="12.821843932566928"><ele>7.0</ele><time>2026-04-05T15:33:04Z</time></trkpt><trkpt lat="45.79431942796596" lon="12.821656464852076"><ele>7.0</ele><time>2026-04-05T15:33:05Z</time></trkpt><trkpt lat="45.79446469980609" lon="12.821474494105754"><ele>7.0</ele><time>2026-04-05T15:33:06Z</time></trkpt><trkpt lat="45.794615393145165" lon="12.821285732219101"><ele>7.0</ele><time>2026-04-05T15:33:07Z</time></trkpt><trkpt lat="45.794769782176026" lon="12.821092341098964"><ele>7.0</ele><time>2026-04-05T15:33:08Z</time></trkpt><trkpt lat="45.794924693090316" lon="12.820898160407209"><ele>7.333333333333334</ele><time>2026-04-05T15:33:09Z</time></trkpt><trkpt lat="45.79507674785056" lon="12.820707918971435"><ele>7.666666666666666</ele><time>2026-04-05T15:33:10Z</time></trkpt><trkpt lat="45.795224961920674" lon="12.820530623153408"><ele>8.0</ele><time>2026-04-05T15:33:11Z</time></trkpt><trkpt lat="45.79536544747594" lon="12.820330167969477"><ele>8.333333333333332</ele><time>2026-04-05T15:33:12Z</time></trkpt><trkpt lat="45.79550965799515" lon="12.820158789453691"><ele>8.666666666666666</ele><time>2026-04-05T15:33:13Z</time></trkpt><trkpt lat="45.795641673785696" lon="12.819993874778719"><ele>9.0</ele><time>2026-04-05T15:33:14Z</time></trkpt><trkpt lat="45.795780137509894" lon="12.819843688199738"><ele>9.0</ele><time>2026-04-05T15:33:15Z</time></trkpt><trkpt lat="45.79591711306657" lon="12.819693896335112"><ele>9.0</ele><time>2026-04-05T15:33:16Z</time></trkpt><trkpt lat="45.796048261235015" lon="12.819533976970016"><ele>9.0</ele><time>2026-04-05T15:33:17Z</time></trkpt><trkpt lat="45.79618237272387" lon="12.819393593740035"><ele>8.75</ele><time>2026-04-05T15:33:18Z</time></trkpt><trkpt lat="45.7963050998932" lon="12.81926362683041"><ele>8.5</ele><time>2026-04-05T15:33:19Z</time></trkpt><trkpt lat="45.79642192126787" lon="12.819132703239331"><ele>8.25</ele><time>2026-04-05T15:33:20Z</time></trkpt><trkpt lat="45.79654256399887" lon="12.819021354044656"><ele>8.0</ele><time>2026-04-05T15:33:21Z</time></trkpt><trkpt lat="45.79664463292034" lon="12.81890458906859"><ele>8.0</ele><time>2026-04-05T15:33:22Z</time></trkpt><trkpt lat="45.79676661310191" lon="12.818784336608578"><ele>8.0</ele><time>2026-04-05T15:33:23Z</time></trkpt><trkpt lat="45.79688544212549" lon="12.81865382987854"><ele>8.0</ele><time>2026-04-05T15:33:24Z</time></trkpt><trkpt lat="45.79699512907917" lon="12.818526925340636"><ele>8.0</ele><time>2026-04-05T15:33:25Z</time></trkpt><trkpt lat="45.797111618997505" lon="12.818398872156097"><ele>8.0</ele><time>2026-04-05T15:33:26Z</time></trkpt><trkpt lat="45.79722172992239" lon="12.81827021135818"><ele>8.0</ele><time>2026-04-05T15:33:27Z</time></trkpt><trkpt lat="45.797325544488146" lon="12.818149473325137"><ele>8.0</ele><time>2026-04-05T15:33:28Z</time></trkpt><trkpt lat="45.79742819959143" lon="12.818027432754162"><ele>8.0</ele><time>2026-04-05T15:33:29Z</time></trkpt><trkpt lat="45.79752423174017" lon="12.817919584546322"><ele>8.0</ele><time>2026-04-05T15:33:30Z</time></trkpt><trkpt lat="45.7976202278262" lon="12.817812925859196"><ele>8.0</ele><time>2026-04-05T15:33:31Z</time></trkpt><trkpt lat="45.79769873967949" lon="12.817730527685523"><ele>8.0</ele><time>2026-04-05T15:33:32Z</time></trkpt><trkpt lat="45.797773107548" lon="12.817641612746083"><ele>8.0</ele><time>2026-04-05T15:33:33Z</time></trkpt><trkpt lat="45.797852370771636" lon="12.817562026274164"><ele>8.0</ele><time>2026-04-05T15:33:34Z</time></trkpt><trkpt lat="45.79791998407239" lon="12.817492504752346"><ele>7.499999999999999</ele><time>2026-04-05T15:33:35Z</time></trkpt><trkpt lat="45.79798865031798" lon="12.817443203609075"><ele>7.0</ele><time>2026-04-05T15:33:36Z</time></trkpt><trkpt lat="45.79805725253503" lon="12.817418648176261"><ele>6.5</ele><time>2026-04-05T15:33:37Z</time></trkpt><trkpt lat="45.79813477228339" lon="12.817404065829383"><ele>6.0</ele><time>2026-04-05T15:33:38Z</time></trkpt><trkpt lat="45.79821181264564" lon="12.817411344441878"><ele>5.5</ele><time>2026-04-05T15:33:39Z</time></trkpt><trkpt lat="45.798289180548906" lon="12.817439540804344"><ele>5.0</ele><time>2026-04-05T15:33:40Z</time></trkpt><trkpt lat="45.79836750824894" lon="12.81748955590474"><ele>5.0</ele><time>2026-04-05T15:33:41Z</time></trkpt><trkpt lat="45.79842511572305" lon="12.817569828047635"><ele>5.0</ele><time>2026-04-05T15:33:42Z</time></trkpt><trkpt lat="45.798487912414394" lon="12.817671899935771"><ele>5.0</ele><time>2026-04-05T15:33:43Z</time></trkpt><trkpt lat="45.79856051170642" lon="12.817777934918054"><ele>5.0</ele><time>2026-04-05T15:33:44Z</time></trkpt><trkpt lat="45.79865595030061" lon="12.817873486007752"><ele>5.0</ele><time>2026-04-05T15:33:45Z</time></trkpt><trkpt lat="45.79876536322595" lon="12.817940167822652"><ele>5.0</ele><time>2026-04-05T15:33:46Z</time></trkpt><trkpt lat="45.79888014132735" lon="12.817983218688449"><ele>5.0</ele><time>2026-04-05T15:33:47Z</time></trkpt><trkpt lat="45.79900384074972" lon="12.817984049460987"><ele>5.0</ele><time>2026-04-05T15:33:47.999Z</time></trkpt><trkpt lat="45.799114617292325" lon="12.817932261470904"><ele>5.0</ele><time>2026-04-05T15:33:48.999Z</time></trkpt><trkpt lat="45.79921574142504" lon="12.817853152683886"><ele>5.0</ele><time>2026-04-05T15:33:49.999Z</time></trkpt><trkpt lat="45.79929487492686" lon="12.817736396814315"><ele>5.0</ele><time>2026-04-05T15:33:50.999Z</time></trkpt><trkpt lat="45.79935020458274" lon="12.817602261016464"><ele>5.0</ele><time>2026-04-05T15:33:51.999Z</time></trkpt><trkpt lat="45.799378951996026" lon="12.817457047463193"><ele>5.0</ele><time>2026-04-05T15:33:52.999Z</time></trkpt><trkpt lat="45.799388292121904" lon="12.817317539680605"><ele>5.0</ele><time>2026-04-05T15:33:53.999Z</time></trkpt><trkpt lat="45.79938809626523" lon="12.817191545427992"><ele>5.0</ele><time>2026-04-05T15:33:54.999Z</time></trkpt><trkpt lat="45.79937395059553" lon="12.817062401204169"><ele>5.0</ele><time>2026-04-05T15:33:55.999Z</time></trkpt><trkpt lat="45.79933861672889" lon="12.81693768761546"><ele>5.0</ele><time>2026-04-05T15:33:56.999Z</time></trkpt><trkpt lat="45.79928143482089" lon="12.816821314127191"><ele>5.0</ele><time>2026-04-05T15:33:57.999Z</time></trkpt><trkpt lat="45.799219479094795" lon="12.81672292486755"><ele>5.0</ele><time>2026-04-05T15:33:58.999Z</time></trkpt><trkpt lat="45.799140987261005" lon="12.816643364392945"><ele>5.0</ele><time>2026-04-05T15:33:59.999Z</time></trkpt><trkpt lat="45.79905517680371" lon="12.816587572164808"><ele>5.0</ele><time>2026-04-05T15:34:00.999Z</time></trkpt><trkpt lat="45.798964884518476" lon="12.816563886735544"><ele>5.0</ele><time>2026-04-05T15:34:01.999Z</time></trkpt><trkpt lat="45.79887346079227" lon="12.816553393960547"><ele>5.0</ele><time>2026-04-05T15:34:02.999Z</time></trkpt><trkpt lat="45.798786509307135" lon="12.816559087278948"><ele>5.0</ele><time>2026-04-05T15:34:03.999Z</time></trkpt><trkpt lat="45.798700043965695" lon="12.816591243411848"><ele>5.0</ele><time>2026-04-05T15:34:04.999Z</time></trkpt><trkpt lat="45.798619949866975" lon="12.81664807580677"><ele>5.0</ele><time>2026-04-05T15:34:05.999Z</time></trkpt><trkpt lat="45.798535949987894" lon="12.816736282372553"><ele>5.0</ele><time>2026-04-05T15:34:06.999Z</time></trkpt><trkpt lat="45.798461938136526" lon="12.816852246945972"><ele>5.0</ele><time>2026-04-05T15:34:07.999Z</time></trkpt><trkpt lat="45.79840024059822" lon="12.817011019033309"><ele>5.0</ele><time>2026-04-05T15:34:08.999Z</time></trkpt><trkpt lat="45.798380924983825" lon="12.81718227274222"><ele>5.0</ele><time>2026-04-05T15:34:09.999Z</time></trkpt><trkpt lat="45.79838623051988" lon="12.817378073453911"><ele>5.0</ele><time>2026-04-05T15:34:10.999Z</time></trkpt><trkpt lat="45.79842660936944" lon="12.817563987594877"><ele>5.0</ele><time>2026-04-05T15:34:11.999Z</time></trkpt><trkpt lat="45.79851032272496" lon="12.817725922592437"><ele>5.0</ele><time>2026-04-05T15:34:12.999Z</time></trkpt><trkpt lat="45.798628928668116" lon="12.817853811673384"><ele>5.0</ele><time>2026-04-05T15:34:13.999Z</time></trkpt><trkpt lat="45.79875050461256" lon="12.817942401118813"><ele>5.0</ele><time>2026-04-05T15:34:14.999Z</time></trkpt><trkpt lat="45.79888311687043" lon="12.817990102533665"><ele>5.0</ele><time>2026-04-05T15:34:15.999Z</time></trkpt><trkpt lat="45.79901549095782" lon="12.817957851281713"><ele>5.0</ele><time>2026-04-05T15:34:16.999Z</time></trkpt><trkpt lat="45.799137864381706" lon="12.817889187280151"><ele>5.0</ele><time>2026-04-05T15:34:17.999Z</time></trkpt><trkpt lat="45.7992421505361" lon="12.817772630240674"><ele>5.0</ele><time>2026-04-05T15:34:18.999Z</time></trkpt><trkpt lat="45.79932230699621" lon="12.81762188914161"><ele>5.0</ele><time>2026-04-05T15:34:19.999Z</time></trkpt><trkpt lat="45.799376422035905" lon="12.8174528686024"><ele>5.0</ele><time>2026-04-05T15:34:20.999Z</time></trkpt><trkpt lat="45.79940617247353" lon="12.817275124542649"><ele>5.0</ele><time>2026-04-05T15:34:21.999Z</time></trkpt><trkpt lat="45.799386241700404" lon="12.817094691674018"><ele>5.0</ele><time>2026-04-05T15:34:22.999Z</time></trkpt><trkpt lat="45.79934013030686" lon="12.816915164498752"><ele>5.0</ele><time>2026-04-05T15:34:23.999Z</time></trkpt><trkpt lat="45.79927824480924" lon="12.816767397478811"><ele>5.0</ele><time>2026-04-05T15:34:24.999Z</time></trkpt><trkpt lat="45.79919482112858" lon="12.816656772767733"><ele>5.0</ele><time>2026-04-05T15:34:25.999Z</time></trkpt><trkpt lat="45.79910196656998" lon="12.816560550843972"><ele>5.0</ele><time>2026-04-05T15:34:26.999Z</time></trkpt><trkpt lat="45.79902265979939" lon="12.816482564846755"><ele>5.0</ele><time>2026-04-05T15:34:27.999Z</time></trkpt><trkpt lat="45.79899406113528" lon="12.816307070490874"><ele>5.0</ele><time>2026-04-05T15:34:28.999Z</time></trkpt><trkpt lat="45.799018020123" lon="12.816182709327707"><ele>5.0</ele><time>2026-04-05T15:34:29.999Z</time></trkpt><trkpt lat="45.79901521531887" lon="12.816068249076109"><ele>5.333333333333334</ele><time>2026-04-05T15:34:30.999Z</time></trkpt><trkpt lat="45.79907196861025" lon="12.815879725821153"><ele>5.666666666666667</ele><time>2026-04-05T15:34:32.999Z</time></trkpt><trkpt lat="45.799307935714474" lon="12.815898654259511"><ele>6.0</ele><time>2026-04-05T15:34:33.999Z</time></trkpt><trkpt lat="45.79940770256136" lon="12.81578682268744"><ele>6.199999999999999</ele><time>2026-04-05T15:34:34.999Z</time></trkpt><trkpt lat="45.79947276381648" lon="12.81567992210005"><ele>6.3999999999999995</ele><time>2026-04-05T15:34:35.999Z</time></trkpt><trkpt lat="45.799566219440614" lon="12.81563033047161"><ele>6.6</ele><time>2026-04-05T15:34:36.999Z</time></trkpt><trkpt lat="45.79965280008494" lon="12.81567365026639"><ele>6.8</ele><time>2026-04-05T15:34:37.999Z</time></trkpt><trkpt lat="45.79972314258387" lon="12.815594001539113"><ele>7.0</ele><time>2026-04-05T15:34:38.999Z</time></trkpt><trkpt lat="45.79978131831505" lon="12.815460230391773"><ele>7.0</ele><time>2026-04-05T15:34:39.999Z</time></trkpt><trkpt lat="45.79984168197268" lon="12.815335284475298"><ele>6.999999999999999</ele><time>2026-04-05T15:34:40.999Z</time></trkpt><trkpt lat="45.79990891131219" lon="12.815223788496949"><ele>6.999999999999999</ele><time>2026-04-05T15:34:41.999Z</time></trkpt><trkpt lat="45.79997365774191" lon="12.815109399998502"><ele>7.0</ele><time>2026-04-05T15:34:42.999Z</time></trkpt><trkpt lat="45.800085591630555" lon="12.815008572457895"><ele>7.0</ele><time>2026-04-05T15:34:43.999Z</time></trkpt><trkpt lat="45.80029498732017" lon="12.814778483412821"><ele>7.5</ele><time>2026-04-05T15:34:44.999Z</time></trkpt><trkpt lat="45.80049989346725" lon="12.814587026741677"><ele>8.0</ele><time>2026-04-05T15:34:46Z</time></trkpt><trkpt lat="45.80072810380103" lon="12.814359170600914"><ele>8.0</ele><time>2026-04-05T15:34:47Z</time></trkpt><trkpt lat="45.800907070198974" lon="12.814119375992078"><ele>8.0</ele><time>2026-04-05T15:34:48Z</time></trkpt><trkpt lat="45.80113274808669" lon="12.81389764013501"><ele>7.5</ele><time>2026-04-05T15:34:49Z</time></trkpt><trkpt lat="45.80135770165342" lon="12.813623721804998"><ele>7.0</ele><time>2026-04-05T15:34:50Z</time></trkpt><trkpt lat="45.801573669277744" lon="12.813376307746328"><ele>7.0</ele><time>2026-04-05T15:34:51Z</time></trkpt><trkpt lat="45.801777920859045" lon="12.813144419199396"><ele>7.0</ele><time>2026-04-05T15:34:52Z</time></trkpt><trkpt lat="45.8019497264337" lon="12.812904890001283"><ele>7.0</ele><time>2026-04-05T15:34:53Z</time></trkpt><trkpt lat="45.80214824136152" lon="12.812678946110507"><ele>7.0</ele><time>2026-04-05T15:34:54Z</time></trkpt><trkpt lat="45.80226599440595" lon="12.812501979894389"><ele>7.0</ele><time>2026-04-05T15:34:55Z</time></trkpt><trkpt lat="45.80239196985655" lon="12.81233394237768"><ele>6.333333333333334</ele><time>2026-04-05T15:34:56Z</time></trkpt><trkpt lat="45.802557496178274" lon="12.81216996670517"><ele>5.666666666666667</ele><time>2026-04-05T15:34:57Z</time></trkpt><trkpt lat="45.802696427718296" lon="12.812011617570775"><ele>5.0</ele><time>2026-04-05T15:34:58Z</time></trkpt><trkpt lat="45.80283813929089" lon="12.811850099850496"><ele>6.0</ele><time>2026-04-05T15:34:59Z</time></trkpt><trkpt lat="45.802976679572296" lon="12.811691736682874"><ele>7.0</ele><time>2026-04-05T15:35:00Z</time></trkpt><trkpt lat="45.80308705726277" lon="12.811527073004218"><ele>8.0</ele><time>2026-04-05T15:35:01Z</time></trkpt><trkpt lat="45.80321365374586" lon="12.811339769818169"><ele>8.0</ele><time>2026-04-05T15:35:02Z</time></trkpt><trkpt lat="45.80335498986067" lon="12.811191200816223"><ele>8.0</ele><time>2026-04-05T15:35:03Z</time></trkpt><trkpt lat="45.8034924081369" lon="12.811023966426212"><ele>8.0</ele><time>2026-04-05T15:35:04Z</time></trkpt><trkpt lat="45.803649181553055" lon="12.810926666171397"><ele>7.333333333333333</ele><time>2026-04-05T15:35:05Z</time></trkpt><trkpt lat="45.80378833798724" lon="12.810768108819847"><ele>6.666666666666666</ele><time>2026-04-05T15:35:06Z</time></trkpt><trkpt lat="45.803922293866584" lon="12.81061602036348"><ele>6.0</ele><time>2026-04-05T15:35:07Z</time></trkpt><trkpt lat="45.80406255845462" lon="12.810456420705195"><ele>6.0</ele><time>2026-04-05T15:35:08Z</time></trkpt><trkpt lat="45.8041773724722" lon="12.81032757701268"><ele>6.0</ele><time>2026-04-05T15:35:09Z</time></trkpt><trkpt lat="45.80427965519092" lon="12.810219294550519"><ele>6.0</ele><time>2026-04-05T15:35:10Z</time></trkpt><trkpt lat="45.80436256845155" lon="12.810096721065847"><ele>6.0</ele><time>2026-04-05T15:35:11Z</time></trkpt><trkpt lat="45.80448722805452" lon="12.81009399459341"><ele>5.75</ele><time>2026-04-05T15:35:12Z</time></trkpt><trkpt lat="45.80460467211469" lon="12.81016355096188"><ele>5.5</ele><time>2026-04-05T15:35:13Z</time></trkpt><trkpt lat="45.804717517633975" lon="12.810277873668499"><ele>5.25</ele><time>2026-04-05T15:35:14Z</time></trkpt><trkpt lat="45.80481467716321" lon="12.81040657565739"><ele>5.0</ele><time>2026-04-05T15:35:15Z</time></trkpt><trkpt lat="45.804901560265954" lon="12.810463924230339"><ele>5.0</ele><time>2026-04-05T15:35:16Z</time></trkpt><trkpt lat="45.80497443059177" lon="12.810466807631611"><ele>5.0</ele><time>2026-04-05T15:35:17Z</time></trkpt><trkpt lat="45.80505747712908" lon="12.810412780283958"><ele>5.0</ele><time>2026-04-05T15:35:18Z</time></trkpt><trkpt lat="45.805153734912665" lon="12.81033784894786"><ele>5.0</ele><time>2026-04-05T15:35:19Z</time></trkpt><trkpt lat="45.80527050815023" lon="12.810251194357186"><ele>5.0</ele><time>2026-04-05T15:35:20Z</time></trkpt><trkpt lat="45.80540213211547" lon="12.810153472165062"><ele>4.333333333333334</ele><time>2026-04-05T15:35:21Z</time></trkpt><trkpt lat="45.805551665503785" lon="12.810043267729677"><ele>3.666666666666667</ele><time>2026-04-05T15:35:22Z</time></trkpt><trkpt lat="45.8057196552529" lon="12.809921268134474"><ele>3.0</ele><time>2026-04-05T15:35:23Z</time></trkpt><trkpt lat="45.80590337085555" lon="12.809784021079002"><ele>2.6666666666666665</ele><time>2026-04-05T15:35:24Z</time></trkpt><trkpt lat="45.80607703446522" lon="12.809655620929814"><ele>2.333333333333333</ele><time>2026-04-05T15:35:25Z</time></trkpt><trkpt lat="45.80622523403959" lon="12.809512464656219"><ele>2.0</ele><time>2026-04-05T15:35:26Z</time></trkpt><trkpt lat="45.80635658167442" lon="12.8093790664889"><ele>2.333333333333333</ele><time>2026-04-05T15:35:27Z</time></trkpt><trkpt lat="45.806460596729856" lon="12.809218419051255"><ele>2.6666666666666665</ele><time>2026-04-05T15:35:28Z</time></trkpt><trkpt lat="45.80657435302142" lon="12.808997859321327"><ele>3.0</ele><time>2026-04-05T15:35:29Z</time></trkpt><trkpt lat="45.80666198056372" lon="12.808726663140146"><ele>2.5</ele><time>2026-04-05T15:35:30Z</time></trkpt><trkpt lat="45.8067586361637" lon="12.808416174753994"><ele>2.0</ele><time>2026-04-05T15:35:31Z</time></trkpt><trkpt lat="45.806855003196084" lon="12.808061021919901"><ele>2.0</ele><time>2026-04-05T15:35:32Z</time></trkpt><trkpt lat="45.80697772830844" lon="12.807720928271088"><ele>2.0</ele><time>2026-04-05T15:35:33Z</time></trkpt><trkpt lat="45.80708571376019" lon="12.807408772335542"><ele>2.0</ele><time>2026-04-05T15:35:34Z</time></trkpt><trkpt lat="45.8071690793242" lon="12.80710722074625"><ele>2.0</ele><time>2026-04-05T15:35:35Z</time></trkpt><trkpt lat="45.80725360492807" lon="12.806829887210746"><ele>2.0</ele><time>2026-04-05T15:35:36Z</time></trkpt><trkpt lat="45.80733106735884" lon="12.80656866810811"><ele>2.0</ele><time>2026-04-05T15:35:37Z</time></trkpt><trkpt lat="45.80742881370866" lon="12.80633227417754"><ele>2.0</ele><time>2026-04-05T15:35:38Z</time></trkpt><trkpt lat="45.80752825804841" lon="12.80611313131973"><ele>2.0</ele><time>2026-04-05T15:35:39Z</time></trkpt><trkpt lat="45.807632727886876" lon="12.805920967940839"><ele>2.6666666666666665</ele><time>2026-04-05T15:35:40Z</time></trkpt><trkpt lat="45.80773262213015" lon="12.805743245782512"><ele>3.333333333333333</ele><time>2026-04-05T15:35:41Z</time></trkpt><trkpt lat="45.80788132136906" lon="12.805573850814959"><ele>4.0</ele><time>2026-04-05T15:35:42Z</time></trkpt><trkpt lat="45.80801096150003" lon="12.805417240823576"><ele>4.0</ele><time>2026-04-05T15:35:43Z</time></trkpt><trkpt lat="45.80818041276436" lon="12.80522674277415"><ele>4.0</ele><time>2026-04-05T15:35:44Z</time></trkpt><trkpt lat="45.80835769679395" lon="12.805032617778771"><ele>4.0</ele><time>2026-04-05T15:35:45Z</time></trkpt><trkpt lat="45.80854828101074" lon="12.804823846026993"><ele>2.5</ele><time>2026-04-05T15:35:46Z</time></trkpt><trkpt lat="45.808749641274304" lon="12.804605329650823"><ele>1.0</ele><time>2026-04-05T15:35:47Z</time></trkpt><trkpt lat="45.808965769453906" lon="12.804370787129667"><ele>1.5</ele><time>2026-04-05T15:35:48Z</time></trkpt><trkpt lat="45.809168314244026" lon="12.804118175702426"><ele>2.0</ele><time>2026-04-05T15:35:48.999Z</time></trkpt><trkpt lat="45.809400482318274" lon="12.803879987875343"><ele>2.5</ele><time>2026-04-05T15:35:49.999Z</time></trkpt><trkpt lat="45.80961094022737" lon="12.80359740160221"><ele>3.0</ele><time>2026-04-05T15:35:50.999Z</time></trkpt><trkpt lat="45.80980980823128" lon="12.803268277531897"><ele>3.0</ele><time>2026-04-05T15:35:51.999Z</time></trkpt><trkpt lat="45.81002624201569" lon="12.802966014111318"><ele>3.0</ele><time>2026-04-05T15:35:52.999Z</time></trkpt><trkpt lat="45.81023728783212" lon="12.802667457754252"><ele>2.5</ele><time>2026-04-05T15:35:53.999Z</time></trkpt><trkpt lat="45.81042898345903" lon="12.802364742753053"><ele>2.0</ele><time>2026-04-05T15:35:54.999Z</time></trkpt><trkpt lat="45.8106324843927" lon="12.80208211566638"><ele>2.0</ele><time>2026-04-05T15:35:55.999Z</time></trkpt><trkpt lat="45.81082841364162" lon="12.801784661672734"><ele>2.0</ele><time>2026-04-05T15:35:56.999Z</time></trkpt><trkpt lat="45.81100890068048" lon="12.801492663592018"><ele>3.5</ele><time>2026-04-05T15:35:57.999Z</time></trkpt><trkpt lat="45.81120669908243" lon="12.80120422629878"><ele>5.0</ele><time>2026-04-05T15:35:58.999Z</time></trkpt><trkpt lat="45.81138231167937" lon="12.800924916220808"><ele>5.0</ele><time>2026-04-05T15:35:59.999Z</time></trkpt><trkpt lat="45.81158327005217" lon="12.80067226781188"><ele>5.0</ele><time>2026-04-05T15:36:00.999Z</time></trkpt><trkpt lat="45.81179253243913" lon="12.800428871503692"><ele>5.0</ele><time>2026-04-05T15:36:01.999Z</time></trkpt><trkpt lat="45.81200636382039" lon="12.800174669155952"><ele>5.0</ele><time>2026-04-05T15:36:02.999Z</time></trkpt><trkpt lat="45.81222085080516" lon="12.799921312947479"><ele>5.0</ele><time>2026-04-05T15:36:03.999Z</time></trkpt><trkpt lat="45.81243911946529" lon="12.799672881695642"><ele>5.0</ele><time>2026-04-05T15:36:04.999Z</time></trkpt><trkpt lat="45.81264680422401" lon="12.79940724808965"><ele>5.0</ele><time>2026-04-05T15:36:05.999Z</time></trkpt><trkpt lat="45.81286093069596" lon="12.799160720759302"><ele>5.0</ele><time>2026-04-05T15:36:06.999Z</time></trkpt><trkpt lat="45.813066303134306" lon="12.798899586873015"><ele>5.0</ele><time>2026-04-05T15:36:07.999Z</time></trkpt><trkpt lat="45.81327482128141" lon="12.798640772598757"><ele>5.0</ele><time>2026-04-05T15:36:08.999Z</time></trkpt><trkpt lat="45.813469034768424" lon="12.798389997330297"><ele>7.0</ele><time>2026-04-05T15:36:09.999Z</time></trkpt><trkpt lat="45.81365084184923" lon="12.798168803225726"><ele>9.0</ele><time>2026-04-05T15:36:10.999Z</time></trkpt><trkpt lat="45.81382484444788" lon="12.79794672507822"><ele>9.0</ele><time>2026-04-05T15:36:11.999Z</time></trkpt><trkpt lat="45.813993254085005" lon="12.797746068619679"><ele>9.0</ele><time>2026-04-05T15:36:12.999Z</time></trkpt><trkpt lat="45.81415150404951" lon="12.797553871290235"><ele>9.0</ele><time>2026-04-05T15:36:13.999Z</time></trkpt><trkpt lat="45.81431141607125" lon="12.79735782887453"><ele>8.666666666666666</ele><time>2026-04-05T15:36:14.999Z</time></trkpt><trkpt lat="45.81448481108677" lon="12.797183365681477"><ele>8.333333333333332</ele><time>2026-04-05T15:36:15.999Z</time></trkpt><trkpt lat="45.81465188723573" lon="12.796976673491134"><ele>8.0</ele><time>2026-04-05T15:36:16.999Z</time></trkpt><trkpt lat="45.81482353832484" lon="12.796787992596746"><ele>8.0</ele><time>2026-04-05T15:36:17.999Z</time></trkpt><trkpt lat="45.81497970469349" lon="12.796600278349947"><ele>8.0</ele><time>2026-04-05T15:36:18.999Z</time></trkpt><trkpt lat="45.81515142791643" lon="12.796397910779673"><ele>8.0</ele><time>2026-04-05T15:36:19.999Z</time></trkpt><trkpt lat="45.815293567344874" lon="12.7962045932118"><ele>8.0</ele><time>2026-04-05T15:36:20.999Z</time></trkpt><trkpt lat="45.815444660172574" lon="12.796003905115242"><ele>8.0</ele><time>2026-04-05T15:36:21.999Z</time></trkpt><trkpt lat="45.81560632095289" lon="12.795784594402072"><ele>8.0</ele><time>2026-04-05T15:36:22.999Z</time></trkpt><trkpt lat="45.81574109325959" lon="12.795578110301694"><ele>8.0</ele><time>2026-04-05T15:36:23.999Z</time></trkpt><trkpt lat="45.81592343183178" lon="12.795358265779576"><ele>8.0</ele><time>2026-04-05T15:36:24.999Z</time></trkpt><trkpt lat="45.81608436904415" lon="12.795123192571177"><ele>8.0</ele><time>2026-04-05T15:36:25.999Z</time></trkpt><trkpt lat="45.8162453251218" lon="12.794894762716181"><ele>8.0</ele><time>2026-04-05T15:36:26.999Z</time></trkpt><trkpt lat="45.81639600848797" lon="12.794712197024243"><ele>8.0</ele><time>2026-04-05T15:36:27.999Z</time></trkpt><trkpt lat="45.81658842001918" lon="12.794558089910549"><ele>8.0</ele><time>2026-04-05T15:36:28.999Z</time></trkpt><trkpt lat="45.816810003691124" lon="12.794435961425558"><ele>8.0</ele><time>2026-04-05T15:36:29.999Z</time></trkpt><trkpt lat="45.81705503578686" lon="12.794279542609766"><ele>8.5</ele><time>2026-04-05T15:36:30.999Z</time></trkpt><trkpt lat="45.81729894215567" lon="12.794078974201538"><ele>9.0</ele><time>2026-04-05T15:36:31.999Z</time></trkpt><trkpt lat="45.81754606491337" lon="12.793850116143915"><ele>8.5</ele><time>2026-04-05T15:36:32.999Z</time></trkpt><trkpt lat="45.81775400266649" lon="12.793576109074516"><ele>8.0</ele><time>2026-04-05T15:36:33.999Z</time></trkpt><trkpt lat="45.8179559669025" lon="12.793326247674779"><ele>7.5</ele><time>2026-04-05T15:36:34.999Z</time></trkpt><trkpt lat="45.81812023081067" lon="12.79305749420279"><ele>7.0</ele><time>2026-04-05T15:36:35.999Z</time></trkpt><trkpt lat="45.81827419398382" lon="12.792800831766359"><ele>7.333333333333334</ele><time>2026-04-05T15:36:36.999Z</time></trkpt><trkpt lat="45.818413252108535" lon="12.792552459879326"><ele>7.666666666666666</ele><time>2026-04-05T15:36:37.999Z</time></trkpt><trkpt lat="45.8185508039729" lon="12.79232216095269"><ele>8.0</ele><time>2026-04-05T15:36:38.999Z</time></trkpt><trkpt lat="45.81867791134429" lon="12.792106874292617"><ele>8.0</ele><time>2026-04-05T15:36:39.999Z</time></trkpt><trkpt lat="45.81879849491988" lon="12.791914255166715"><ele>8.0</ele><time>2026-04-05T15:36:40.999Z</time></trkpt><trkpt lat="45.81893993889426" lon="12.791744606676803"><ele>8.0</ele><time>2026-04-05T15:36:41.999Z</time></trkpt><trkpt lat="45.81907423654878" lon="12.791595664452263"><ele>8.0</ele><time>2026-04-05T15:36:42.999Z</time></trkpt><trkpt lat="45.81926510104787" lon="12.79143987189977"><ele>8.0</ele><time>2026-04-05T15:36:43.999Z</time></trkpt><trkpt lat="45.81946287549076" lon="12.79128527033616"><ele>8.0</ele><time>2026-04-05T15:36:44.999Z</time></trkpt><trkpt lat="45.81968544178396" lon="12.791130534203539"><ele>8.5</ele><time>2026-04-05T15:36:45.999Z</time></trkpt><trkpt lat="45.819933296616604" lon="12.790966533069392"><ele>9.0</ele><time>2026-04-05T15:36:46.999Z</time></trkpt><trkpt lat="45.820164708585594" lon="12.790779275817487"><ele>9.0</ele><time>2026-04-05T15:36:47.999Z</time></trkpt><trkpt lat="45.82040928430676" lon="12.790612373619947"><ele>9.0</ele><time>2026-04-05T15:36:48.999Z</time></trkpt><trkpt lat="45.820628700645486" lon="12.790444543918852"><ele>9.0</ele><time>2026-04-05T15:36:49.999Z</time></trkpt><trkpt lat="45.82084874964652" lon="12.790281270567299"><ele>9.0</ele><time>2026-04-05T15:36:50.999Z</time></trkpt><trkpt lat="45.8210491311815" lon="12.790118135972689"><ele>10.0</ele><time>2026-04-05T15:36:52Z</time></trkpt><trkpt lat="45.82125794295944" lon="12.7899491692537"><ele>11.0</ele><time>2026-04-05T15:36:53Z</time></trkpt><trkpt lat="45.82145442079468" lon="12.789800765606238"><ele>11.0</ele><time>2026-04-05T15:36:54Z</time></trkpt><trkpt lat="45.821627781247265" lon="12.789695734232854"><ele>11.0</ele><time>2026-04-05T15:36:55Z</time></trkpt><trkpt lat="45.821760034702464" lon="12.789599436436784"><ele>11.0</ele><time>2026-04-05T15:36:56Z</time></trkpt><trkpt lat="45.8218896979705" lon="12.78951065231004"><ele>11.0</ele><time>2026-04-05T15:36:57Z</time></trkpt><trkpt lat="45.8220187586797" lon="12.789379622632211"><ele>11.0</ele><time>2026-04-05T15:36:58Z</time></trkpt><trkpt lat="45.82211869731306" lon="12.789185150863457"><ele>11.0</ele><time>2026-04-05T15:36:59Z</time></trkpt><trkpt lat="45.822180948347906" lon="12.788975216910353"><ele>11.0</ele><time>2026-04-05T15:37:00Z</time></trkpt><trkpt lat="45.82223201714004" lon="12.78872127538648"><ele>11.0</ele><time>2026-04-05T15:37:01Z</time></trkpt><trkpt lat="45.82225918877267" lon="12.78845697018785"><ele>11.0</ele><time>2026-04-05T15:37:02Z</time></trkpt><trkpt lat="45.82230755616486" lon="12.788211685265784"><ele>11.0</ele><time>2026-04-05T15:37:03Z</time></trkpt><trkpt lat="45.82236913665311" lon="12.788007009363088"><ele>11.0</ele><time>2026-04-05T15:37:04Z</time></trkpt><trkpt lat="45.82246178491642" lon="12.787816943813024"><ele>11.0</ele><time>2026-04-05T15:37:05Z</time></trkpt><trkpt lat="45.82257972679117" lon="12.787664033334718"><ele>10.666666666666666</ele><time>2026-04-05T15:37:06Z</time></trkpt><trkpt lat="45.822724191393846" lon="12.787554072614327"><ele>10.333333333333334</ele><time>2026-04-05T15:37:07Z</time></trkpt><trkpt lat="45.8228893610157" lon="12.787467791295088"><ele>10.0</ele><time>2026-04-05T15:37:08Z</time></trkpt><trkpt lat="45.82304751012069" lon="12.78740316537485"><ele>10.0</ele><time>2026-04-05T15:37:09Z</time></trkpt><trkpt lat="45.82324370840228" lon="12.78740811196349"><ele>10.0</ele><time>2026-04-05T15:37:10Z</time></trkpt><trkpt lat="45.823398852573305" lon="12.787417153513863"><ele>10.0</ele><time>2026-04-05T15:37:11Z</time></trkpt><trkpt lat="45.823583759395916" lon="12.7873980559254"><ele>10.25</ele><time>2026-04-05T15:37:12Z</time></trkpt><trkpt lat="45.82371423391784" lon="12.787266389933338"><ele>10.5</ele><time>2026-04-05T15:37:13Z</time></trkpt><trkpt lat="45.823828123749934" lon="12.787108433597313"><ele>10.75</ele><time>2026-04-05T15:37:14Z</time></trkpt><trkpt lat="45.82393400957362" lon="12.787000283286737"><ele>11.0</ele><time>2026-04-05T15:37:15Z</time></trkpt><trkpt lat="45.82406230344973" lon="12.786857292483047"><ele>11.0</ele><time>2026-04-05T15:37:16Z</time></trkpt><trkpt lat="45.824217166788685" lon="12.786763310935886"><ele>11.0</ele><time>2026-04-05T15:37:17Z</time></trkpt><trkpt lat="45.82433556488148" lon="12.7866457775488"><ele>11.0</ele><time>2026-04-05T15:37:18Z</time></trkpt><trkpt lat="45.8244403776591" lon="12.786525306186851"><ele>11.0</ele><time>2026-04-05T15:37:19Z</time></trkpt><trkpt lat="45.82455781121461" lon="12.786418542383275"><ele>10.75</ele><time>2026-04-05T15:37:20Z</time></trkpt><trkpt lat="45.82467544488209" lon="12.786312967742482"><ele>10.5</ele><time>2026-04-05T15:37:21Z</time></trkpt><trkpt lat="45.82476923552366" lon="12.786231410430299"><ele>10.25</ele><time>2026-04-05T15:37:22Z</time></trkpt><trkpt lat="45.82491578947822" lon="12.786170612950551"><ele>10.0</ele><time>2026-04-05T15:37:23Z</time></trkpt><trkpt lat="45.825030602491104" lon="12.786125817029633"><ele>10.0</ele><time>2026-04-05T15:37:24Z</time></trkpt><trkpt lat="45.82514264290371" lon="12.786084011296179"><ele>10.0</ele><time>2026-04-05T15:37:25Z</time></trkpt><trkpt lat="45.825248094989696" lon="12.785924111911209"><ele>10.0</ele><time>2026-04-05T15:37:26Z</time></trkpt><trkpt lat="45.82535014805319" lon="12.785909575064958"><ele>10.0</ele><time>2026-04-05T15:37:27Z</time></trkpt><trkpt lat="45.82547394648225" lon="12.785847754305335"><ele>10.0</ele><time>2026-04-05T15:37:28Z</time></trkpt><trkpt lat="45.82560134279074" lon="12.785782893894158"><ele>10.0</ele><time>2026-04-05T15:37:29Z</time></trkpt><trkpt lat="45.82571406069398" lon="12.785703508644282"><ele>10.0</ele><time>2026-04-05T15:37:30Z</time></trkpt><trkpt lat="45.82583033339551" lon="12.785628575071243"><ele>10.0</ele><time>2026-04-05T15:37:31Z</time></trkpt><trkpt lat="45.82592859175795" lon="12.785476486317148"><ele>10.0</ele><time>2026-04-05T15:37:32Z</time></trkpt><trkpt lat="45.82602846755348" lon="12.785311106511827"><ele>10.0</ele><time>2026-04-05T15:37:33Z</time></trkpt><trkpt lat="45.8261193741135" lon="12.78512680722653"><ele>10.0</ele><time>2026-04-05T15:37:34Z</time></trkpt><trkpt lat="45.82621126280651" lon="12.784921592199908"><ele>10.0</ele><time>2026-04-05T15:37:35Z</time></trkpt><trkpt lat="45.826326695727424" lon="12.784758235740785"><ele>10.0</ele><time>2026-04-05T15:37:36Z</time></trkpt><trkpt lat="45.826453600032686" lon="12.784560197339799"><ele>10.0</ele><time>2026-04-05T15:37:37Z</time></trkpt><trkpt lat="45.82658103427445" lon="12.784385767244919"><ele>9.666666666666668</ele><time>2026-04-05T15:37:38Z</time></trkpt><trkpt lat="45.826721999706876" lon="12.784218568796861"><ele>9.333333333333334</ele><time>2026-04-05T15:37:39Z</time></trkpt><trkpt lat="45.82686359151366" lon="12.784019294920087"><ele>9.0</ele><time>2026-04-05T15:37:40Z</time></trkpt><trkpt lat="45.8270118925705" lon="12.783835087426796"><ele>10.0</ele><time>2026-04-05T15:37:41Z</time></trkpt><trkpt lat="45.827157772859415" lon="12.783658370652947"><ele>11.0</ele><time>2026-04-05T15:37:42Z</time></trkpt><trkpt lat="45.82731203717108" lon="12.78348818557147"><ele>12.0</ele><time>2026-04-05T15:37:43Z</time></trkpt><trkpt lat="45.82745852308155" lon="12.783322509092876"><ele>12.0</ele><time>2026-04-05T15:37:44Z</time></trkpt><trkpt lat="45.82755659586871" lon="12.783118182208032"><ele>12.0</ele><time>2026-04-05T15:37:45Z</time></trkpt><trkpt lat="45.82774317912876" lon="12.782954087842585"><ele>12.0</ele><time>2026-04-05T15:37:46Z</time></trkpt><trkpt lat="45.82789210635689" lon="12.78279843038924"><ele>11.666666666666666</ele><time>2026-04-05T15:37:47Z</time></trkpt><trkpt lat="45.82803037021318" lon="12.782631959840218"><ele>11.333333333333332</ele><time>2026-04-05T15:37:48Z</time></trkpt><trkpt lat="45.828177595937476" lon="12.782450665377127"><ele>11.0</ele><time>2026-04-05T15:37:49Z</time></trkpt><trkpt lat="45.82832807742085" lon="12.782267426358379"><ele>11.0</ele><time>2026-04-05T15:37:50Z</time></trkpt><trkpt lat="45.82847574609999" lon="12.782066543856617"><ele>11.0</ele><time>2026-04-05T15:37:51Z</time></trkpt><trkpt lat="45.82862198965037" lon="12.781885875764775"><ele>11.0</ele><time>2026-04-05T15:37:52Z</time></trkpt><trkpt lat="45.82877789614407" lon="12.781698958620865"><ele>11.333333333333332</ele><time>2026-04-05T15:37:53Z</time></trkpt><trkpt lat="45.82893480616754" lon="12.781524944484906"><ele>11.666666666666666</ele><time>2026-04-05T15:37:54Z</time></trkpt><trkpt lat="45.829087578777646" lon="12.781345695358672"><ele>12.0</ele><time>2026-04-05T15:37:55Z</time></trkpt><trkpt lat="45.82924652543025" lon="12.781168950127862"><ele>11.666666666666666</ele><time>2026-04-05T15:37:55.999Z</time></trkpt><trkpt lat="45.829403308692925" lon="12.780989790524938"><ele>11.333333333333332</ele><time>2026-04-05T15:37:56.999Z</time></trkpt><trkpt lat="45.82956525358429" lon="12.780825357065618"><ele>11.0</ele><time>2026-04-05T15:37:57.999Z</time></trkpt><trkpt lat="45.82972313309157" lon="12.780661524403293"><ele>11.0</ele><time>2026-04-05T15:37:58.999Z</time></trkpt><trkpt lat="45.82986924746547" lon="12.780496309612483"><ele>11.0</ele><time>2026-04-05T15:37:59.999Z</time></trkpt><trkpt lat="45.830016851397225" lon="12.78034062434169"><ele>11.0</ele><time>2026-04-05T15:38:00.999Z</time></trkpt><trkpt lat="45.83015584848475" lon="12.78019419167101"><ele>10.666666666666666</ele><time>2026-04-05T15:38:01.999Z</time></trkpt><trkpt lat="45.83028604985803" lon="12.780053694324321"><ele>10.333333333333334</ele><time>2026-04-05T15:38:02.999Z</time></trkpt><trkpt lat="45.83040491664973" lon="12.779924924026796"><ele>10.0</ele><time>2026-04-05T15:38:03.999Z</time></trkpt><trkpt lat="45.83051984404339" lon="12.779799529030655"><ele>10.0</ele><time>2026-04-05T15:38:04.999Z</time></trkpt><trkpt lat="45.830621596398395" lon="12.779681453118911"><ele>10.0</ele><time>2026-04-05T15:38:05.999Z</time></trkpt><trkpt lat="45.83071939708899" lon="12.77957544400991"><ele>10.0</ele><time>2026-04-05T15:38:06.999Z</time></trkpt><trkpt lat="45.83082352713856" lon="12.779477952927286"><ele>10.0</ele><time>2026-04-05T15:38:07.999Z</time></trkpt><trkpt lat="45.83093432098628" lon="12.779389088565944"><ele>10.333333333333334</ele><time>2026-04-05T15:38:08.999Z</time></trkpt><trkpt lat="45.83104991076859" lon="12.779282433564573"><ele>10.666666666666666</ele><time>2026-04-05T15:38:09.999Z</time></trkpt><trkpt lat="45.83117586113013" lon="12.779162717907305"><ele>11.0</ele><time>2026-04-05T15:38:10.999Z</time></trkpt><trkpt lat="45.831316600369384" lon="12.779047361693996"><ele>11.0</ele><time>2026-04-05T15:38:11.999Z</time></trkpt><trkpt lat="45.83147833041692" lon="12.778951069517518"><ele>11.0</ele><time>2026-04-05T15:38:12.999Z</time></trkpt><trkpt lat="45.831642470713746" lon="12.778882205327264"><ele>11.0</ele><time>2026-04-05T15:38:13.999Z</time></trkpt><trkpt lat="45.83182766780063" lon="12.778859193128172"><ele>11.333333333333332</ele><time>2026-04-05T15:38:14.999Z</time></trkpt><trkpt lat="45.83202245346338" lon="12.778844376373517"><ele>11.666666666666666</ele><time>2026-04-05T15:38:15.999Z</time></trkpt><trkpt lat="45.83223946867059" lon="12.77882007924357"><ele>12.0</ele><time>2026-04-05T15:38:16.999Z</time></trkpt><trkpt lat="45.83246130436367" lon="12.778784311890306"><ele>12.0</ele><time>2026-04-05T15:38:17.999Z</time></trkpt><trkpt lat="45.83269060938242" lon="12.778782466340331"><ele>12.0</ele><time>2026-04-05T15:38:18.999Z</time></trkpt><trkpt lat="45.83293219148828" lon="12.77875974490634"><ele>12.0</ele><time>2026-04-05T15:38:19.999Z</time></trkpt><trkpt lat="45.83317327485359" lon="12.778720707191825"><ele>12.0</ele><time>2026-04-05T15:38:20.999Z</time></trkpt><trkpt lat="45.83341028605914" lon="12.778712700793738"><ele>12.0</ele><time>2026-04-05T15:38:21.999Z</time></trkpt><trkpt lat="45.83362307786589" lon="12.778691904275545"><ele>12.0</ele><time>2026-04-05T15:38:22.999Z</time></trkpt><trkpt lat="45.833856910754875" lon="12.778668505862555"><ele>12.0</ele><time>2026-04-05T15:38:23.999Z</time></trkpt><trkpt lat="45.83404842726939" lon="12.778647166749497"><ele>12.0</ele><time>2026-04-05T15:38:24.999Z</time></trkpt><trkpt lat="45.834225662571995" lon="12.778623183862578"><ele>12.0</ele><time>2026-04-05T15:38:25.999Z</time></trkpt><trkpt lat="45.83441280380273" lon="12.77857482454297"><ele>12.0</ele><time>2026-04-05T15:38:26.999Z</time></trkpt><trkpt lat="45.83460595670056" lon="12.778560150999583"><ele>12.0</ele><time>2026-04-05T15:38:27.999Z</time></trkpt><trkpt lat="45.834797704041854" lon="12.77853458234601"><ele>12.0</ele><time>2026-04-05T15:38:28.999Z</time></trkpt><trkpt lat="45.83498742388585" lon="12.778511162892414"><ele>12.0</ele><time>2026-04-05T15:38:29.999Z</time></trkpt><trkpt lat="45.83517612343876" lon="12.778423060436513"><ele>11.333333333333334</ele><time>2026-04-05T15:38:30.999Z</time></trkpt><trkpt lat="45.83535270862086" lon="12.778279842701345"><ele>10.666666666666668</ele><time>2026-04-05T15:38:31.999Z</time></trkpt><trkpt lat="45.83552121751974" lon="12.778129664308747"><ele>10.0</ele><time>2026-04-05T15:38:32.999Z</time></trkpt><trkpt lat="45.83568673245797" lon="12.77796788322491"><ele>10.0</ele><time>2026-04-05T15:38:33.999Z</time></trkpt><trkpt lat="45.83586252287497" lon="12.77779615031878"><ele>10.0</ele><time>2026-04-05T15:38:34.999Z</time></trkpt><trkpt lat="45.83603201848017" lon="12.777599324843868"><ele>10.0</ele><time>2026-04-05T15:38:35.999Z</time></trkpt><trkpt lat="45.83622272237951" lon="12.777436804915823"><ele>10.5</ele><time>2026-04-05T15:38:36.999Z</time></trkpt><trkpt lat="45.83641070117809" lon="12.777260763034645"><ele>11.0</ele><time>2026-04-05T15:38:37.999Z</time></trkpt><trkpt lat="45.836599008400384" lon="12.777082081097406"><ele>11.0</ele><time>2026-04-05T15:38:38.999Z</time></trkpt><trkpt lat="45.83679195323306" lon="12.776894633778518"><ele>11.0</ele><time>2026-04-05T15:38:39.999Z</time></trkpt><trkpt lat="45.836981850627375" lon="12.7767030353124"><ele>11.5</ele><time>2026-04-05T15:38:40.999Z</time></trkpt><trkpt lat="45.83717735782784" lon="12.776515500843976"><ele>12.0</ele><time>2026-04-05T15:38:41.999Z</time></trkpt><trkpt lat="45.83737931938372" lon="12.776346962389212"><ele>12.0</ele><time>2026-04-05T15:38:42.999Z</time></trkpt><trkpt lat="45.83756975295793" lon="12.776141139024004"><ele>12.0</ele><time>2026-04-05T15:38:43.999Z</time></trkpt><trkpt lat="45.837768425866656" lon="12.775962112107504"><ele>12.0</ele><time>2026-04-05T15:38:44.999Z</time></trkpt><trkpt lat="45.837958584728604" lon="12.775789500794513"><ele>12.0</ele><time>2026-04-05T15:38:45.999Z</time></trkpt><trkpt lat="45.838145559736475" lon="12.77560895001858"><ele>12.0</ele><time>2026-04-05T15:38:46.999Z</time></trkpt><trkpt lat="45.83833523051033" lon="12.775424204780931"><ele>12.0</ele><time>2026-04-05T15:38:47.999Z</time></trkpt><trkpt lat="45.83852446102193" lon="12.775242125063734"><ele>12.5</ele><time>2026-04-05T15:38:48.999Z</time></trkpt><trkpt lat="45.83871275638701" lon="12.775062923205647"><ele>13.0</ele><time>2026-04-05T15:38:49.999Z</time></trkpt><trkpt lat="45.8389027686088" lon="12.774883719268493"><ele>13.0</ele><time>2026-04-05T15:38:50.999Z</time></trkpt><trkpt lat="45.839085876658075" lon="12.774706632065405"><ele>13.0</ele><time>2026-04-05T15:38:51.999Z</time></trkpt><trkpt lat="45.83927178151103" lon="12.774535646266266"><ele>13.0</ele><time>2026-04-05T15:38:52.999Z</time></trkpt><trkpt lat="45.83945415187806" lon="12.774353812823747"><ele>13.0</ele><time>2026-04-05T15:38:53.999Z</time></trkpt><trkpt lat="45.839637125632414" lon="12.774175178586484"><ele>13.0</ele><time>2026-04-05T15:38:54.999Z</time></trkpt><trkpt lat="45.83982368322231" lon="12.773995108888078"><ele>13.0</ele><time>2026-04-05T15:38:55.999Z</time></trkpt><trkpt lat="45.840012065270535" lon="12.773813200831745"><ele>13.0</ele><time>2026-04-05T15:38:56.999Z</time></trkpt><trkpt lat="45.84021649631103" lon="12.773647257318657"><ele>13.0</ele><time>2026-04-05T15:38:58Z</time></trkpt><trkpt lat="45.840409863073695" lon="12.773463503321192"><ele>13.0</ele><time>2026-04-05T15:38:59Z</time></trkpt><trkpt lat="45.8405899922671" lon="12.773264762110843"><ele>13.0</ele><time>2026-04-05T15:39:00Z</time></trkpt><trkpt lat="45.84078478110206" lon="12.773106222166078"><ele>12.666666666666666</ele><time>2026-04-05T15:39:01Z</time></trkpt><trkpt lat="45.840969097094295" lon="12.772930519445742"><ele>12.333333333333332</ele><time>2026-04-05T15:39:02Z</time></trkpt><trkpt lat="45.841150848137936" lon="12.77275718897591"><ele>12.0</ele><time>2026-04-05T15:39:03Z</time></trkpt><trkpt lat="45.841332591635506" lon="12.77258386569069"><ele>12.0</ele><time>2026-04-05T15:39:04Z</time></trkpt><trkpt lat="45.84151194601726" lon="12.772412820816038"><ele>12.0</ele><time>2026-04-05T15:39:05Z</time></trkpt><trkpt lat="45.84168698868786" lon="12.772246304298676"><ele>12.0</ele><time>2026-04-05T15:39:06Z</time></trkpt><trkpt lat="45.8418186345259" lon="12.772121178891028"><ele>12.333333333333332</ele><time>2026-04-05T15:39:07Z</time></trkpt><trkpt lat="45.84198575899551" lon="12.771962331789553"><ele>12.666666666666666</ele><time>2026-04-05T15:39:08Z</time></trkpt><trkpt lat="45.84214429429201" lon="12.771793070107595"><ele>13.0</ele><time>2026-04-05T15:39:09Z</time></trkpt><trkpt lat="45.84231149502236" lon="12.771638176296088"><ele>13.0</ele><time>2026-04-05T15:39:10Z</time></trkpt><trkpt lat="45.84246998404771" lon="12.77148443302902"><ele>13.0</ele><time>2026-04-05T15:39:11Z</time></trkpt><trkpt lat="45.842629897875696" lon="12.771328667782779"><ele>13.0</ele><time>2026-04-05T15:39:12Z</time></trkpt><trkpt lat="45.84279819691212" lon="12.771190133226815"><ele>12.666666666666666</ele><time>2026-04-05T15:39:13Z</time></trkpt><trkpt lat="45.842955764776946" lon="12.771040369611955"><ele>12.333333333333332</ele><time>2026-04-05T15:39:14Z</time></trkpt><trkpt lat="45.84311366586305" lon="12.770890289073378"><ele>12.0</ele><time>2026-04-05T15:39:15Z</time></trkpt><trkpt lat="45.84326785800423" lon="12.770717355997057"><ele>12.0</ele><time>2026-04-05T15:39:16Z</time></trkpt><trkpt lat="45.84343100790112" lon="12.770569932710982"><ele>12.0</ele><time>2026-04-05T15:39:17Z</time></trkpt><trkpt lat="45.84358873399188" lon="12.770417546245092"><ele>12.0</ele><time>2026-04-05T15:39:18Z</time></trkpt><trkpt lat="45.8437427454183" lon="12.770266975719963"><ele>12.666666666666668</ele><time>2026-04-05T15:39:19Z</time></trkpt><trkpt lat="45.84391376686467" lon="12.77011516546322"><ele>13.333333333333334</ele><time>2026-04-05T15:39:20Z</time></trkpt><trkpt lat="45.84408898247414" lon="12.769956096046553"><ele>14.0</ele><time>2026-04-05T15:39:21Z</time></trkpt><trkpt lat="45.84426291240466" lon="12.769787913278353"><ele>13.666666666666668</ele><time>2026-04-05T15:39:22Z</time></trkpt><trkpt lat="45.84443660620997" lon="12.769619265867021"><ele>13.333333333333332</ele><time>2026-04-05T15:39:23Z</time></trkpt><trkpt lat="45.84461448499243" lon="12.769446521096576"><ele>13.0</ele><time>2026-04-05T15:39:24Z</time></trkpt><trkpt lat="45.84479453013328" lon="12.769279511389836"><ele>13.0</ele><time>2026-04-05T15:39:25Z</time></trkpt><trkpt lat="45.844974741937726" lon="12.769098873285277"><ele>13.0</ele><time>2026-04-05T15:39:26Z</time></trkpt><trkpt lat="45.84516274878001" lon="12.768921502498435"><ele>13.0</ele><time>2026-04-05T15:39:27Z</time></trkpt><trkpt lat="45.84534283412957" lon="12.768738697472783"><ele>12.666666666666666</ele><time>2026-04-05T15:39:28Z</time></trkpt><trkpt lat="45.84551896790866" lon="12.768546168575947"><ele>12.333333333333332</ele><time>2026-04-05T15:39:29Z</time></trkpt><trkpt lat="45.84569587227108" lon="12.768339875050689"><ele>12.0</ele><time>2026-04-05T15:39:30Z</time></trkpt><trkpt lat="45.84586829453265" lon="12.768123965187081"><ele>11.5</ele><time>2026-04-05T15:39:31Z</time></trkpt><trkpt lat="45.84605405978536" lon="12.76789791331589"><ele>11.0</ele><time>2026-04-05T15:39:32Z</time></trkpt><trkpt lat="45.84623034186962" lon="12.767685770303801"><ele>11.0</ele><time>2026-04-05T15:39:33Z</time></trkpt><trkpt lat="45.84639870867015" lon="12.767467543384027"><ele>11.0</ele><time>2026-04-05T15:39:34Z</time></trkpt><trkpt lat="45.84656981599462" lon="12.76725104349415"><ele>11.0</ele><time>2026-04-05T15:39:35Z</time></trkpt><trkpt lat="45.84674446837564" lon="12.767038283111722"><ele>11.0</ele><time>2026-04-05T15:39:36Z</time></trkpt><trkpt lat="45.84691607501536" lon="12.766830530306098"><ele>10.333333333333332</ele><time>2026-04-05T15:39:37Z</time></trkpt><trkpt lat="45.84708465827697" lon="12.76662238969761"><ele>9.666666666666666</ele><time>2026-04-05T15:39:38Z</time></trkpt><trkpt lat="45.84725127789789" lon="12.766410180574654"><ele>9.0</ele><time>2026-04-05T15:39:39Z</time></trkpt><trkpt lat="45.84742571798815" lon="12.76620699750183"><ele>9.333333333333334</ele><time>2026-04-05T15:39:40Z</time></trkpt><trkpt lat="45.84758590191923" lon="12.766008240304457"><ele>9.666666666666668</ele><time>2026-04-05T15:39:41Z</time></trkpt><trkpt lat="45.84775140807799" lon="12.765805562894846"><ele>10.0</ele><time>2026-04-05T15:39:42Z</time></trkpt><trkpt lat="45.84791836972168" lon="12.76560828440178"><ele>10.333333333333334</ele><time>2026-04-05T15:39:43Z</time></trkpt><trkpt lat="45.84809268492886" lon="12.765410120517874"><ele>10.666666666666666</ele><time>2026-04-05T15:39:44Z</time></trkpt><trkpt lat="45.84826429041235" lon="12.765217849172704"><ele>11.0</ele><time>2026-04-05T15:39:45Z</time></trkpt><trkpt lat="45.84843644343913" lon="12.765029519971776"><ele>11.666666666666666</ele><time>2026-04-05T15:39:46Z</time></trkpt><trkpt lat="45.84860795616182" lon="12.764837739744154"><ele>12.333333333333332</ele><time>2026-04-05T15:39:47Z</time></trkpt><trkpt lat="45.84877969200391" lon="12.764644883295107"><ele>13.0</ele><time>2026-04-05T15:39:48Z</time></trkpt><trkpt lat="45.84894964280697" lon="12.764449384212575"><ele>12.666666666666666</ele><time>2026-04-05T15:39:49Z</time></trkpt><trkpt lat="45.849116787545704" lon="12.76426234177859"><ele>12.333333333333332</ele><time>2026-04-05T15:39:50Z</time></trkpt><trkpt lat="45.84929185140604" lon="12.764072693282017"><ele>12.0</ele><time>2026-04-05T15:39:51Z</time></trkpt><trkpt lat="45.849459730992656" lon="12.763883478350357"><ele>12.0</ele><time>2026-04-05T15:39:52Z</time></trkpt><trkpt lat="45.84962015354383" lon="12.763686116613384"><ele>12.0</ele><time>2026-04-05T15:39:53Z</time></trkpt><trkpt lat="45.84979129776596" lon="12.763499761989879"><ele>12.0</ele><time>2026-04-05T15:39:54Z</time></trkpt><trkpt lat="45.84996918533266" lon="12.76331978905455"><ele>12.666666666666668</ele><time>2026-04-05T15:39:55Z</time></trkpt><trkpt lat="45.85014902760776" lon="12.763147288535723"><ele>13.333333333333334</ele><time>2026-04-05T15:39:56Z</time></trkpt><trkpt lat="45.85028894690602" lon="12.762944769147644"><ele>14.0</ele><time>2026-04-05T15:39:57Z</time></trkpt><trkpt lat="45.850451596178985" lon="12.762770223593929"><ele>13.333333333333334</ele><time>2026-04-05T15:39:58Z</time></trkpt><trkpt lat="45.85064062172699" lon="12.762568857883622"><ele>12.666666666666668</ele><time>2026-04-05T15:39:59Z</time></trkpt><trkpt lat="45.85079970044561" lon="12.762381373667946"><ele>12.0</ele><time>2026-04-05T15:40:00Z</time></trkpt><trkpt lat="45.85096623594306" lon="12.762198276587814"><ele>12.0</ele><time>2026-04-05T15:40:01Z</time></trkpt><trkpt lat="45.8511396780638" lon="12.76201838486399"><ele>12.0</ele><time>2026-04-05T15:40:02Z</time></trkpt><trkpt lat="45.85131504408609" lon="12.761828976462144"><ele>12.0</ele><time>2026-04-05T15:40:03Z</time></trkpt><trkpt lat="45.851495893154784" lon="12.761630349862136"><ele>11.666666666666666</ele><time>2026-04-05T15:40:04Z</time></trkpt><trkpt lat="45.85166923830011" lon="12.761426589106813"><ele>11.333333333333332</ele><time>2026-04-05T15:40:05Z</time></trkpt><trkpt lat="45.85183365581871" lon="12.761233638134831"><ele>11.0</ele><time>2026-04-05T15:40:05.999Z</time></trkpt><trkpt lat="45.852003710097776" lon="12.761036753927238"><ele>11.5</ele><time>2026-04-05T15:40:06.999Z</time></trkpt><trkpt lat="45.85218379866325" lon="12.760826367866917"><ele>12.0</ele><time>2026-04-05T15:40:07.999Z</time></trkpt><trkpt lat="45.852359446454784" lon="12.760630669688547"><ele>12.0</ele><time>2026-04-05T15:40:08.999Z</time></trkpt><trkpt lat="45.85254596389355" lon="12.760419655709995"><ele>12.0</ele><time>2026-04-05T15:40:09.999Z</time></trkpt><trkpt lat="45.85272427068579" lon="12.760212822031082"><ele>11.666666666666666</ele><time>2026-04-05T15:40:10.999Z</time></trkpt><trkpt lat="45.852900549853835" lon="12.760020562126376"><ele>11.333333333333332</ele><time>2026-04-05T15:40:11.999Z</time></trkpt><trkpt lat="45.85307284340534" lon="12.75983569917288"><ele>11.0</ele><time>2026-04-05T15:40:12.999Z</time></trkpt><trkpt lat="45.85323694464579" lon="12.759641436723127"><ele>11.0</ele><time>2026-04-05T15:40:13.999Z</time></trkpt><trkpt lat="45.8534074882063" lon="12.759440447013622"><ele>11.0</ele><time>2026-04-05T15:40:14.999Z</time></trkpt><trkpt lat="45.85358034652958" lon="12.759233285638839"><ele>11.0</ele><time>2026-04-05T15:40:15.999Z</time></trkpt><trkpt lat="45.853748070712975" lon="12.759029058466083"><ele>10.666666666666666</ele><time>2026-04-05T15:40:16.999Z</time></trkpt><trkpt lat="45.85391227555164" lon="12.758826686633482"><ele>10.333333333333334</ele><time>2026-04-05T15:40:17.999Z</time></trkpt><trkpt lat="45.854079151081194" lon="12.758627202037566"><ele>10.0</ele><time>2026-04-05T15:40:18.999Z</time></trkpt><trkpt lat="45.854234639486236" lon="12.758428759579706"><ele>10.333333333333334</ele><time>2026-04-05T15:40:19.999Z</time></trkpt><trkpt lat="45.8543992880806" lon="12.75822737432256"><ele>10.666666666666666</ele><time>2026-04-05T15:40:20.999Z</time></trkpt><trkpt lat="45.85456179085109" lon="12.758015508541334"><ele>11.0</ele><time>2026-04-05T15:40:21.999Z</time></trkpt><trkpt lat="45.85472873200235" lon="12.757811120328657"><ele>11.0</ele><time>2026-04-05T15:40:22.999Z</time></trkpt><trkpt lat="45.854883471122406" lon="12.757621348494549"><ele>11.0</ele><time>2026-04-05T15:40:23.999Z</time></trkpt><trkpt lat="45.85504647445875" lon="12.757431051095063"><ele>11.0</ele><time>2026-04-05T15:40:24.999Z</time></trkpt><trkpt lat="45.85521368208893" lon="12.757237863807093"><ele>11.0</ele><time>2026-04-05T15:40:25.999Z</time></trkpt><trkpt lat="45.855396635474335" lon="12.757023392884683"><ele>11.0</ele><time>2026-04-05T15:40:26.999Z</time></trkpt><trkpt lat="45.85556863460736" lon="12.756821309137523"><ele>11.333333333333332</ele><time>2026-04-05T15:40:27.999Z</time></trkpt><trkpt lat="45.85573904046555" lon="12.756624834415089"><ele>11.666666666666666</ele><time>2026-04-05T15:40:28.999Z</time></trkpt><trkpt lat="45.855904326373235" lon="12.756429316269118"><ele>12.0</ele><time>2026-04-05T15:40:29.999Z</time></trkpt><trkpt lat="45.85606268378675" lon="12.756219379934368"><ele>12.333333333333332</ele><time>2026-04-05T15:40:30.999Z</time></trkpt><trkpt lat="45.85623361304044" lon="12.756019100060604"><ele>12.666666666666666</ele><time>2026-04-05T15:40:31.999Z</time></trkpt><trkpt lat="45.85640910524348" lon="12.755818307329424"><ele>13.0</ele><time>2026-04-05T15:40:32.999Z</time></trkpt><trkpt lat="45.85657970851293" lon="12.75561718544174"><ele>13.0</ele><time>2026-04-05T15:40:33.999Z</time></trkpt><trkpt lat="45.85674699995144" lon="12.755410447978283"><ele>13.0</ele><time>2026-04-05T15:40:34.999Z</time></trkpt><trkpt lat="45.85691649908051" lon="12.755203277095823"><ele>13.0</ele><time>2026-04-05T15:40:35.999Z</time></trkpt><trkpt lat="45.85708029142158" lon="12.754999457025413"><ele>12.666666666666666</ele><time>2026-04-05T15:40:36.999Z</time></trkpt><trkpt lat="45.857251140891606" lon="12.754802382344877"><ele>12.333333333333332</ele><time>2026-04-05T15:40:37.999Z</time></trkpt><trkpt lat="45.85742480395226" lon="12.754600400898806"><ele>12.0</ele><time>2026-04-05T15:40:38.999Z</time></trkpt><trkpt lat="45.85759281867517" lon="12.754396983405742"><ele>12.333333333333332</ele><time>2026-04-05T15:40:39.999Z</time></trkpt><trkpt lat="45.857764529605525" lon="12.75418690084798"><ele>12.666666666666666</ele><time>2026-04-05T15:40:40.999Z</time></trkpt><trkpt lat="45.857931100589255" lon="12.753980366403791"><ele>13.0</ele><time>2026-04-05T15:40:41.999Z</time></trkpt><trkpt lat="45.858091102599886" lon="12.7537669377634"><ele>13.0</ele><time>2026-04-05T15:40:42.999Z</time></trkpt><trkpt lat="45.85824721192748" lon="12.753548014285375"><ele>13.0</ele><time>2026-04-05T15:40:43.999Z</time></trkpt><trkpt lat="45.85840995502115" lon="12.753342889597123"><ele>13.0</ele><time>2026-04-05T15:40:44.999Z</time></trkpt><trkpt lat="45.85854495867897" lon="12.753100265136352"><ele>13.333333333333332</ele><time>2026-04-05T15:40:45.999Z</time></trkpt><trkpt lat="45.85869648236725" lon="12.752890386596984"><ele>13.666666666666668</ele><time>2026-04-05T15:40:46.999Z</time></trkpt><trkpt lat="45.8588439877357" lon="12.752640578260554"><ele>14.0</ele><time>2026-04-05T15:40:47.999Z</time></trkpt><trkpt lat="45.85897545011541" lon="12.752401835891474"><ele>14.333333333333334</ele><time>2026-04-05T15:40:48.999Z</time></trkpt><trkpt lat="45.8591076132288" lon="12.752160909230092"><ele>14.666666666666668</ele><time>2026-04-05T15:40:49.999Z</time></trkpt><trkpt lat="45.85922735574529" lon="12.75194262471165"><ele>15.0</ele><time>2026-04-05T15:40:50.999Z</time></trkpt><trkpt lat="45.859342643130475" lon="12.751731750564211"><ele>15.0</ele><time>2026-04-05T15:40:51.999Z</time></trkpt><trkpt lat="45.85945152030669" lon="12.751531994051438"><ele>15.0</ele><time>2026-04-05T15:40:52.999Z</time></trkpt><trkpt lat="45.85953977286143" lon="12.75132626188461"><ele>15.0</ele><time>2026-04-05T15:40:53.999Z</time></trkpt><trkpt lat="45.859647087086834" lon="12.751130586227928"><ele>15.0</ele><time>2026-04-05T15:40:54.999Z</time></trkpt><trkpt lat="45.85975401239954" lon="12.750948303849153"><ele>15.0</ele><time>2026-04-05T15:40:55.999Z</time></trkpt><trkpt lat="45.85986378863292" lon="12.750779161122077"><ele>15.0</ele><time>2026-04-05T15:40:56.999Z</time></trkpt><trkpt lat="45.85996051565894" lon="12.75060853600845"><ele>15.0</ele><time>2026-04-05T15:40:57.999Z</time></trkpt><trkpt lat="45.860063861368914" lon="12.750452527274396"><ele>15.0</ele><time>2026-04-05T15:40:58.999Z</time></trkpt><trkpt lat="45.86017551117651" lon="12.75033592357709"><ele>15.0</ele><time>2026-04-05T15:40:59.999Z</time></trkpt><trkpt lat="45.86029552474835" lon="12.750259392214984"><ele>15.0</ele><time>2026-04-05T15:41:00.999Z</time></trkpt><trkpt lat="45.8604058703857" lon="12.750214847045617"><ele>14.6</ele><time>2026-04-05T15:41:01.999Z</time></trkpt><trkpt lat="45.86047542436199" lon="12.750109856602805"><ele>14.2</ele><time>2026-04-05T15:41:02.999Z</time></trkpt><trkpt lat="45.860505858298936" lon="12.749965517208906"><ele>13.8</ele><time>2026-04-05T15:41:04Z</time></trkpt><trkpt lat="45.86051048574247" lon="12.74981906650184"><ele>13.4</ele><time>2026-04-05T15:41:05Z</time></trkpt><trkpt lat="45.860523018841505" lon="12.74965833026699"><ele>13.0</ele><time>2026-04-05T15:41:06Z</time></trkpt><trkpt lat="45.86058323723772" lon="12.74948017114255"><ele>13.0</ele><time>2026-04-05T15:41:07Z</time></trkpt><trkpt lat="45.860684540657275" lon="12.74930805662194"><ele>13.0</ele><time>2026-04-05T15:41:08Z</time></trkpt><trkpt lat="45.860801872228485" lon="12.749123182220002"><ele>13.0</ele><time>2026-04-05T15:41:09Z</time></trkpt><trkpt lat="45.86093854667523" lon="12.74891783644243"><ele>13.5</ele><time>2026-04-05T15:41:10Z</time></trkpt><trkpt lat="45.861081519258775" lon="12.74867920729846"><ele>14.0</ele><time>2026-04-05T15:41:11Z</time></trkpt><trkpt lat="45.861234688014235" lon="12.748428135275711"><ele>14.0</ele><time>2026-04-05T15:41:12Z</time></trkpt><trkpt lat="45.8613946431234" lon="12.748164925199312"><ele>14.0</ele><time>2026-04-05T15:41:13Z</time></trkpt><trkpt lat="45.86155900521403" lon="12.747913086215563"><ele>13.5</ele><time>2026-04-05T15:41:14Z</time></trkpt><trkpt lat="45.861717944365374" lon="12.747660925502561"><ele>13.0</ele><time>2026-04-05T15:41:15Z</time></trkpt><trkpt lat="45.86187398903044" lon="12.747421588797204"><ele>12.666666666666666</ele><time>2026-04-05T15:41:16Z</time></trkpt><trkpt lat="45.862004519150304" lon="12.747191167859302"><ele>12.333333333333332</ele><time>2026-04-05T15:41:17Z</time></trkpt><trkpt lat="45.862102443024554" lon="12.746931218816279"><ele>12.0</ele><time>2026-04-05T15:41:18Z</time></trkpt><trkpt lat="45.8621692945527" lon="12.746622826261783"><ele>12.0</ele><time>2026-04-05T15:41:19Z</time></trkpt><trkpt lat="45.8622268956252" lon="12.74629456914887"><ele>12.0</ele><time>2026-04-05T15:41:20Z</time></trkpt><trkpt lat="45.86230099957977" lon="12.74595480337214"><ele>12.0</ele><time>2026-04-05T15:41:21Z</time></trkpt><trkpt lat="45.862376430129125" lon="12.745606604057802"><ele>12.0</ele><time>2026-04-05T15:41:22Z</time></trkpt><trkpt lat="45.862445692329594" lon="12.745263728346316"><ele>12.0</ele><time>2026-04-05T15:41:23Z</time></trkpt><trkpt lat="45.86250551955905" lon="12.744916358849375"><ele>12.0</ele><time>2026-04-05T15:41:24Z</time></trkpt><trkpt lat="45.8625664506883" lon="12.744565752759108"><ele>11.5</ele><time>2026-04-05T15:41:25Z</time></trkpt><trkpt lat="45.862635509858514" lon="12.744221493988935"><ele>11.0</ele><time>2026-04-05T15:41:26Z</time></trkpt><trkpt lat="45.86270425572518" lon="12.743882907392031"><ele>11.0</ele><time>2026-04-05T15:41:27Z</time></trkpt><trkpt lat="45.86276997465734" lon="12.743501108464555"><ele>11.0</ele><time>2026-04-05T15:41:28Z</time></trkpt><trkpt lat="45.862825145915224" lon="12.743173439618161"><ele>11.0</ele><time>2026-04-05T15:41:29Z</time></trkpt><trkpt lat="45.862867795507725" lon="12.742858388841162"><ele>11.0</ele><time>2026-04-05T15:41:30Z</time></trkpt><trkpt lat="45.862870199184506" lon="12.742562088486125"><ele>11.0</ele><time>2026-04-05T15:41:31Z</time></trkpt><trkpt lat="45.86286673239421" lon="12.742259259807954"><ele>11.0</ele><time>2026-04-05T15:41:32Z</time></trkpt><trkpt lat="45.86284164555592" lon="12.741948200899426"><ele>11.0</ele><time>2026-04-05T15:41:33Z</time></trkpt><trkpt lat="45.8628274098628" lon="12.741650097878937"><ele>11.0</ele><time>2026-04-05T15:41:34Z</time></trkpt><trkpt lat="45.862819201431066" lon="12.741339056419646"><ele>11.0</ele><time>2026-04-05T15:41:35Z</time></trkpt><trkpt lat="45.86280364732278" lon="12.741036395113875"><ele>11.0</ele><time>2026-04-05T15:41:36Z</time></trkpt><trkpt lat="45.86280178151936" lon="12.740729954476869"><ele>11.0</ele><time>2026-04-05T15:41:37Z</time></trkpt><trkpt lat="45.86279223324119" lon="12.740440531697901"><ele>11.0</ele><time>2026-04-05T15:41:38Z</time></trkpt><trkpt lat="45.86281231457188" lon="12.740149717445913"><ele>11.0</ele><time>2026-04-05T15:41:39Z</time></trkpt><trkpt lat="45.86283392775033" lon="12.739861333860762"><ele>11.0</ele><time>2026-04-05T15:41:40Z</time></trkpt><trkpt lat="45.86286773206378" lon="12.739578784404204"><ele>10.666666666666666</ele><time>2026-04-05T15:41:41Z</time></trkpt><trkpt lat="45.86291703836673" lon="12.739297555900212"><ele>10.333333333333334</ele><time>2026-04-05T15:41:42Z</time></trkpt><trkpt lat="45.86298059928667" lon="12.739017609828343"><ele>10.0</ele><time>2026-04-05T15:41:43Z</time></trkpt><trkpt lat="45.86306160947513" lon="12.738760319914306"><ele>10.666666666666668</ele><time>2026-04-05T15:41:44Z</time></trkpt><trkpt lat="45.86314217573491" lon="12.738548048037469"><ele>11.333333333333334</ele><time>2026-04-05T15:41:45Z</time></trkpt><trkpt lat="45.86322719251601" lon="12.738320482328076"><ele>12.0</ele><time>2026-04-05T15:41:46Z</time></trkpt><trkpt lat="45.86331018093027" lon="12.738107501237684"><ele>12.0</ele><time>2026-04-05T15:41:47Z</time></trkpt><trkpt lat="45.86339677804627" lon="12.737885652529474"><ele>12.0</ele><time>2026-04-05T15:41:48Z</time></trkpt><trkpt lat="45.86348974585711" lon="12.737649252190684"><ele>12.0</ele><time>2026-04-05T15:41:49Z</time></trkpt><trkpt lat="45.86359219011612" lon="12.737388755030679"><ele>12.0</ele><time>2026-04-05T15:41:50Z</time></trkpt><trkpt lat="45.86369506943513" lon="12.737137345234515"><ele>12.0</ele><time>2026-04-05T15:41:51Z</time></trkpt><trkpt lat="45.863814170453736" lon="12.736863305995833"><ele>12.0</ele><time>2026-04-05T15:41:52Z</time></trkpt><trkpt lat="45.86394764388462" lon="12.736562941496963"><ele>12.5</ele><time>2026-04-05T15:41:53Z</time></trkpt><trkpt lat="45.86408141546373" lon="12.736261861431348"><ele>13.0</ele><time>2026-04-05T15:41:54Z</time></trkpt><trkpt lat="45.86422555895267" lon="12.73594109457611"><ele>12.0</ele><time>2026-04-05T15:41:55Z</time></trkpt><trkpt lat="45.86436183723109" lon="12.73564691801093"><ele>11.0</ele><time>2026-04-05T15:41:56Z</time></trkpt><trkpt lat="45.86451025186459" lon="12.735345597391829"><ele>12.0</ele><time>2026-04-05T15:41:57Z</time></trkpt><trkpt lat="45.864654601348505" lon="12.735093218498944"><ele>13.0</ele><time>2026-04-05T15:41:58Z</time></trkpt><trkpt lat="45.86482178758639" lon="12.734828680544007"><ele>13.0</ele><time>2026-04-05T15:41:59Z</time></trkpt><trkpt lat="45.86498895805948" lon="12.734576646338812"><ele>13.0</ele><time>2026-04-05T15:42:00Z</time></trkpt><trkpt lat="45.865148885422165" lon="12.73433580411122"><ele>12.5</ele><time>2026-04-05T15:42:01Z</time></trkpt><trkpt lat="45.86532867453403" lon="12.734065051089082"><ele>12.0</ele><time>2026-04-05T15:42:02Z</time></trkpt><trkpt lat="45.86549249394871" lon="12.733818348105487"><ele>12.0</ele><time>2026-04-05T15:42:03Z</time></trkpt><trkpt lat="45.86563647644565" lon="12.733601518418205"><ele>12.0</ele><time>2026-04-05T15:42:04Z</time></trkpt><trkpt lat="45.865783107446894" lon="12.733371497063073"><ele>12.0</ele><time>2026-04-05T15:42:05Z</time></trkpt><trkpt lat="45.865897106619855" lon="12.7330917182619"><ele>12.0</ele><time>2026-04-05T15:42:06Z</time></trkpt><trkpt lat="45.86605353957326" lon="12.732900782475262"><ele>12.0</ele><time>2026-04-05T15:42:07Z</time></trkpt><trkpt lat="45.86628112006332" lon="12.732662938184621"><ele>12.333333333333332</ele><time>2026-04-05T15:42:08Z</time></trkpt><trkpt lat="45.866423342866234" lon="12.732409545572047"><ele>12.666666666666666</ele><time>2026-04-05T15:42:08.999Z</time></trkpt><trkpt lat="45.866567761718514" lon="12.732179547460385"><ele>13.0</ele><time>2026-04-05T15:42:09.999Z</time></trkpt><trkpt lat="45.86672353386885" lon="12.731942396765247"><ele>12.5</ele><time>2026-04-05T15:42:10.999Z</time></trkpt><trkpt lat="45.86687737183992" lon="12.731698191447895"><ele>12.0</ele><time>2026-04-05T15:42:11.999Z</time></trkpt><trkpt lat="45.867044262618556" lon="12.731451743432784"><ele>12.0</ele><time>2026-04-05T15:42:12.999Z</time></trkpt><trkpt lat="45.86720510415586" lon="12.731195862954381"><ele>12.0</ele><time>2026-04-05T15:42:13.999Z</time></trkpt><trkpt lat="45.86737138374054" lon="12.73094749927782"><ele>12.0</ele><time>2026-04-05T15:42:14.999Z</time></trkpt><trkpt lat="45.86754133553735" lon="12.730700466662045"><ele>12.0</ele><time>2026-04-05T15:42:15.999Z</time></trkpt><trkpt lat="45.86771926414819" lon="12.730448169471831"><ele>12.0</ele><time>2026-04-05T15:42:16.999Z</time></trkpt><trkpt lat="45.86788718386801" lon="12.73020647941929"><ele>12.0</ele><time>2026-04-05T15:42:17.999Z</time></trkpt><trkpt lat="45.868051830901926" lon="12.729970465556239"><ele>12.0</ele><time>2026-04-05T15:42:18.999Z</time></trkpt><trkpt lat="45.86821344300793" lon="12.729727327841267"><ele>12.0</ele><time>2026-04-05T15:42:19.999Z</time></trkpt><trkpt lat="45.86837634119667" lon="12.729500836720318"><ele>12.0</ele><time>2026-04-05T15:42:20.999Z</time></trkpt><trkpt lat="45.86852363066327" lon="12.729270505045282"><ele>12.0</ele><time>2026-04-05T15:42:21.999Z</time></trkpt><trkpt lat="45.86867900107475" lon="12.729055770906767"><ele>12.0</ele><time>2026-04-05T15:42:22.999Z</time></trkpt><trkpt lat="45.86883548373148" lon="12.728858980204937"><ele>12.0</ele><time>2026-04-05T15:42:23.999Z</time></trkpt><trkpt lat="45.86893546237632" lon="12.728658641966899"><ele>12.0</ele><time>2026-04-05T15:42:24.999Z</time></trkpt><trkpt lat="45.86907681446841" lon="12.728450762538946"><ele>12.0</ele><time>2026-04-05T15:42:25.999Z</time></trkpt><trkpt lat="45.86922760446379" lon="12.728245593313709"><ele>12.333333333333332</ele><time>2026-04-05T15:42:26.999Z</time></trkpt><trkpt lat="45.86934782015638" lon="12.728071717710757"><ele>12.666666666666666</ele><time>2026-04-05T15:42:27.999Z</time></trkpt><trkpt lat="45.86948737424511" lon="12.727879054459443"><ele>13.0</ele><time>2026-04-05T15:42:28.999Z</time></trkpt><trkpt lat="45.869630988265456" lon="12.727673274938008"><ele>12.333333333333332</ele><time>2026-04-05T15:42:29.999Z</time></trkpt><trkpt lat="45.869759334196345" lon="12.727479906302207"><ele>11.666666666666666</ele><time>2026-04-05T15:42:30.999Z</time></trkpt><trkpt lat="45.869890494933294" lon="12.727277416423775"><ele>11.0</ele><time>2026-04-05T15:42:31.999Z</time></trkpt><trkpt lat="45.8700200382166" lon="12.727089935000938"><ele>10.666666666666666</ele><time>2026-04-05T15:42:32.999Z</time></trkpt><trkpt lat="45.87014553846504" lon="12.726901990941458"><ele>10.333333333333334</ele><time>2026-04-05T15:42:33.999Z</time></trkpt><trkpt lat="45.870264864356926" lon="12.726714520048203"><ele>10.0</ele><time>2026-04-05T15:42:34.999Z</time></trkpt><trkpt lat="45.87041445309153" lon="12.726516216351023"><ele>9.666666666666668</ele><time>2026-04-05T15:42:35.999Z</time></trkpt><trkpt lat="45.87054092818007" lon="12.726331350419589"><ele>9.333333333333334</ele><time>2026-04-05T15:42:36.999Z</time></trkpt><trkpt lat="45.87066596671898" lon="12.726145812785223"><ele>9.0</ele><time>2026-04-05T15:42:37.999Z</time></trkpt><trkpt lat="45.87080622191862" lon="12.725942792554116"><ele>9.333333333333334</ele><time>2026-04-05T15:42:38.999Z</time></trkpt><trkpt lat="45.87095012249175" lon="12.725741242958895"><ele>9.666666666666668</ele><time>2026-04-05T15:42:39.999Z</time></trkpt><trkpt lat="45.871088473706706" lon="12.725531093194748"><ele>10.0</ele><time>2026-04-05T15:42:40.999Z</time></trkpt><trkpt lat="45.87122643128825" lon="12.725317873378943"><ele>10.333333333333334</ele><time>2026-04-05T15:42:41.999Z</time></trkpt><trkpt lat="45.871370785010704" lon="12.725113588025168"><ele>10.666666666666666</ele><time>2026-04-05T15:42:42.999Z</time></trkpt><trkpt lat="45.87150612276862" lon="12.724919722419134"><ele>11.0</ele><time>2026-04-05T15:42:43.999Z</time></trkpt><trkpt lat="45.871635113540826" lon="12.724731982569459"><ele>11.0</ele><time>2026-04-05T15:42:44.999Z</time></trkpt><trkpt lat="45.87176818165143" lon="12.72456141268296"><ele>11.0</ele><time>2026-04-05T15:42:45.999Z</time></trkpt><trkpt lat="45.871891890642516" lon="12.724391899003566"><ele>11.0</ele><time>2026-04-05T15:42:46.999Z</time></trkpt><trkpt lat="45.87200723238674" lon="12.724246129445653"><ele>10.25</ele><time>2026-04-05T15:42:47.999Z</time></trkpt><trkpt lat="45.872127424925225" lon="12.724116232804532"><ele>9.5</ele><time>2026-04-05T15:42:48.999Z</time></trkpt><trkpt lat="45.87225553004857" lon="12.724001613176023"><ele>8.75</ele><time>2026-04-05T15:42:49.999Z</time></trkpt><trkpt lat="45.872379619947516" lon="12.72391308485379"><ele>8.0</ele><time>2026-04-05T15:42:50.999Z</time></trkpt><trkpt lat="45.87249776540915" lon="12.723849300504158"><ele>9.0</ele><time>2026-04-05T15:42:51.999Z</time></trkpt><trkpt lat="45.872628182048835" lon="12.723812524412907"><ele>10.0</ele><time>2026-04-05T15:42:52.999Z</time></trkpt><trkpt lat="45.872766771555874" lon="12.72378718388619"><ele>11.0</ele><time>2026-04-05T15:42:53.999Z</time></trkpt><trkpt lat="45.87290626741637" lon="12.723762599180837"><ele>12.0</ele><time>2026-04-05T15:42:54.999Z</time></trkpt><trkpt lat="45.873042797918515" lon="12.723738907222982"><ele>12.0</ele><time>2026-04-05T15:42:55.999Z</time></trkpt><trkpt lat="45.8731976227018" lon="12.723699541293705"><ele>12.0</ele><time>2026-04-05T15:42:56.999Z</time></trkpt><trkpt lat="45.87335832197083" lon="12.723660143220938"><ele>12.0</ele><time>2026-04-05T15:42:57.999Z</time></trkpt><trkpt lat="45.87352751705327" lon="12.72362497489588"><ele>11.666666666666666</ele><time>2026-04-05T15:42:58.999Z</time></trkpt><trkpt lat="45.87369216051617" lon="12.723596469583"><ele>11.333333333333332</ele><time>2026-04-05T15:42:59.999Z</time></trkpt><trkpt lat="45.87386316112967" lon="12.723573179362438"><ele>11.0</ele><time>2026-04-05T15:43:00.999Z</time></trkpt><trkpt lat="45.87402202462759" lon="12.723528130834849"><ele>11.0</ele><time>2026-04-05T15:43:01.999Z</time></trkpt><trkpt lat="45.87420858879313" lon="12.723518357526773"><ele>11.0</ele><time>2026-04-05T15:43:02.999Z</time></trkpt><trkpt lat="45.87438485524573" lon="12.723492959123233"><ele>11.0</ele><time>2026-04-05T15:43:03.999Z</time></trkpt><trkpt lat="45.87454112047704" lon="12.723480744927276"><ele>10.666666666666666</ele><time>2026-04-05T15:43:04.999Z</time></trkpt><trkpt lat="45.8747369356" lon="12.723448989202323"><ele>10.333333333333334</ele><time>2026-04-05T15:43:05.999Z</time></trkpt><trkpt lat="45.87491694827053" lon="12.723421212820718"><ele>10.0</ele><time>2026-04-05T15:43:06.999Z</time></trkpt><trkpt lat="45.87511404471312" lon="12.723380008539676"><ele>10.0</ele><time>2026-04-05T15:43:07.999Z</time></trkpt><trkpt lat="45.87530050338347" lon="12.723348594687602"><ele>10.0</ele><time>2026-04-05T15:43:08.999Z</time></trkpt><trkpt lat="45.87552482140005" lon="12.723316758162204"><ele>10.0</ele><time>2026-04-05T15:43:10Z</time></trkpt><trkpt lat="45.87573151267889" lon="12.723249359416712"><ele>10.0</ele><time>2026-04-05T15:43:11Z</time></trkpt><trkpt lat="45.87595938773984" lon="12.72324152501697"><ele>10.0</ele><time>2026-04-05T15:43:12Z</time></trkpt><trkpt lat="45.87616176728937" lon="12.723202356377625"><ele>10.0</ele><time>2026-04-05T15:43:13Z</time></trkpt><trkpt lat="45.87637993732859" lon="12.723187782171108"><ele>10.0</ele><time>2026-04-05T15:43:14Z</time></trkpt><trkpt lat="45.87658706508879" lon="12.723163674687031"><ele>10.0</ele><time>2026-04-05T15:43:15Z</time></trkpt><trkpt lat="45.8767836316865" lon="12.723043826100293"><ele>10.0</ele><time>2026-04-05T15:43:16Z</time></trkpt><trkpt lat="45.8769464877043" lon="12.72293717329055"><ele>10.0</ele><time>2026-04-05T15:43:17Z</time></trkpt><trkpt lat="45.87709930984368" lon="12.72279682541418"><ele>10.0</ele><time>2026-04-05T15:43:18Z</time></trkpt><trkpt lat="45.877291711719494" lon="12.72259414070263"><ele>10.0</ele><time>2026-04-05T15:43:19Z</time></trkpt><trkpt lat="45.87745129827758" lon="12.722378438453081"><ele>8.5</ele><time>2026-04-05T15:43:20Z</time></trkpt><trkpt lat="45.87760353033819" lon="12.722114104552224"><ele>7.0</ele><time>2026-04-05T15:43:21Z</time></trkpt><trkpt lat="45.877776077536296" lon="12.721832153234535"><ele>6.5</ele><time>2026-04-05T15:43:22Z</time></trkpt><trkpt lat="45.87794592283832" lon="12.721563070987193"><ele>6.0</ele><time>2026-04-05T15:43:23Z</time></trkpt><trkpt lat="45.87814570283526" lon="12.721300769547558"><ele>6.0</ele><time>2026-04-05T15:43:24Z</time></trkpt><trkpt lat="45.87836056264032" lon="12.721061663726408"><ele>6.0</ele><time>2026-04-05T15:43:25Z</time></trkpt><trkpt lat="45.878597491283664" lon="12.720858406397978"><ele>6.0</ele><time>2026-04-05T15:43:26Z</time></trkpt><trkpt lat="45.8788034182962" lon="12.720668627152731"><ele>6.0</ele><time>2026-04-05T15:43:27Z</time></trkpt><trkpt lat="45.87903425369265" lon="12.72053612233402"><ele>7.0</ele><time>2026-04-05T15:43:28Z</time></trkpt><trkpt lat="45.87928720518597" lon="12.720405732268528"><ele>8.0</ele><time>2026-04-05T15:43:29Z</time></trkpt><trkpt lat="45.87952908485341" lon="12.7202975115726"><ele>8.0</ele><time>2026-04-05T15:43:30Z</time></trkpt><trkpt lat="45.879763016523576" lon="12.720180097041492"><ele>8.0</ele><time>2026-04-05T15:43:31Z</time></trkpt><trkpt lat="45.879998537704225" lon="12.720063450442165"><ele>8.333333333333332</ele><time>2026-04-05T15:43:32Z</time></trkpt><trkpt lat="45.88020962434595" lon="12.719902857411263"><ele>8.666666666666666</ele><time>2026-04-05T15:43:33Z</time></trkpt><trkpt lat="45.880408409480715" lon="12.719809089322851"><ele>9.0</ele><time>2026-04-05T15:43:34Z</time></trkpt><trkpt lat="45.88059903294037" lon="12.719704816575229"><ele>9.0</ele><time>2026-04-05T15:43:35Z</time></trkpt><trkpt lat="45.880782463839516" lon="12.719597494125486"><ele>9.0</ele><time>2026-04-05T15:43:36Z</time></trkpt><trkpt lat="45.880995693511345" lon="12.719551465214469"><ele>9.0</ele><time>2026-04-05T15:43:37Z</time></trkpt><trkpt lat="45.88118779375875" lon="12.719458842518"><ele>8.666666666666666</ele><time>2026-04-05T15:43:38Z</time></trkpt><trkpt lat="45.881371690752346" lon="12.719360917827933"><ele>8.333333333333332</ele><time>2026-04-05T15:43:39Z</time></trkpt><trkpt lat="45.88156921200736" lon="12.719238617806763"><ele>8.0</ele><time>2026-04-05T15:43:40Z</time></trkpt><trkpt lat="45.881750182712494" lon="12.719108611344497"><ele>8.666666666666666</ele><time>2026-04-05T15:43:41Z</time></trkpt><trkpt lat="45.88192037890897" lon="12.718942651454691"><ele>9.333333333333334</ele><time>2026-04-05T15:43:42Z</time></trkpt><trkpt lat="45.882100018518436" lon="12.718777631824706"><ele>10.0</ele><time>2026-04-05T15:43:43Z</time></trkpt><trkpt lat="45.882273800247056" lon="12.718614724595817"><ele>9.666666666666668</ele><time>2026-04-05T15:43:44Z</time></trkpt><trkpt lat="45.88244702425109" lon="12.718442820983018"><ele>9.333333333333334</ele><time>2026-04-05T15:43:45Z</time></trkpt><trkpt lat="45.882579483765575" lon="12.718255044694018"><ele>9.0</ele><time>2026-04-05T15:43:46Z</time></trkpt><trkpt lat="45.88270880416224" lon="12.718056063620411"><ele>9.0</ele><time>2026-04-05T15:43:47Z</time></trkpt><trkpt lat="45.88284204398934" lon="12.717911390501941"><ele>9.0</ele><time>2026-04-05T15:43:48Z</time></trkpt><trkpt lat="45.882964645846435" lon="12.717746057788062"><ele>9.0</ele><time>2026-04-05T15:43:49Z</time></trkpt><trkpt lat="45.88307909657268" lon="12.7175903957995"><ele>9.4</ele><time>2026-04-05T15:43:50Z</time></trkpt><trkpt lat="45.88315457754449" lon="12.717465283325263"><ele>9.8</ele><time>2026-04-05T15:43:51Z</time></trkpt><trkpt lat="45.88321205317225" lon="12.717428100535598"><ele>10.200000000000001</ele><time>2026-04-05T15:43:52Z</time></trkpt><trkpt lat="45.88327970909973" lon="12.717376321434754"><ele>10.600000000000001</ele><time>2026-04-05T15:43:54Z</time></trkpt><trkpt lat="45.88333035921072" lon="12.717256997802092"><ele>11.0</ele><time>2026-04-05T15:43:56Z</time></trkpt><trkpt lat="45.88340621572994" lon="12.717117643906597"><ele>11.0</ele><time>2026-04-05T15:43:58Z</time></trkpt><trkpt lat="45.88346923391598" lon="12.717042365131869"><ele>11.0</ele><time>2026-04-05T15:43:59Z</time></trkpt><trkpt lat="45.883569128393184" lon="12.716913745492043"><ele>11.0</ele><time>2026-04-05T15:44:00Z</time></trkpt><trkpt lat="45.88365772348804" lon="12.716785466311462"><ele>11.0</ele><time>2026-04-05T15:44:01Z</time></trkpt><trkpt lat="45.8837699246898" lon="12.71664009642638"><ele>11.0</ele><time>2026-04-05T15:44:02Z</time></trkpt><trkpt lat="45.88386569158473" lon="12.716517714352095"><ele>11.0</ele><time>2026-04-05T15:44:03Z</time></trkpt><trkpt lat="45.883961444999436" lon="12.71639212604891"><ele>11.0</ele><time>2026-04-05T15:44:04Z</time></trkpt><trkpt lat="45.88409110148276" lon="12.716206042057003"><ele>11.0</ele><time>2026-04-05T15:44:05Z</time></trkpt><trkpt lat="45.88421241267076" lon="12.71604542218757"><ele>11.666666666666666</ele><time>2026-04-05T15:44:06Z</time></trkpt><trkpt lat="45.88437013131608" lon="12.715831625645283"><ele>12.333333333333332</ele><time>2026-04-05T15:44:07Z</time></trkpt><trkpt lat="45.88448707560344" lon="12.715645099534258"><ele>13.0</ele><time>2026-04-05T15:44:08Z</time></trkpt><trkpt lat="45.88467517064308" lon="12.715392488288336"><ele>12.0</ele><time>2026-04-05T15:44:09Z</time></trkpt><trkpt lat="45.88484939520482" lon="12.715153987742948"><ele>11.0</ele><time>2026-04-05T15:44:10Z</time></trkpt><trkpt lat="45.88500575931947" lon="12.714939935394789"><ele>11.5</ele><time>2026-04-05T15:44:11Z</time></trkpt><trkpt lat="45.885180838974605" lon="12.714625814856678"><ele>12.0</ele><time>2026-04-05T15:44:12Z</time></trkpt><trkpt lat="45.88534864383896" lon="12.714387025494954"><ele>13.0</ele><time>2026-04-05T15:44:13Z</time></trkpt><trkpt lat="45.88554688782569" lon="12.71413562949779"><ele>14.0</ele><time>2026-04-05T15:44:14Z</time></trkpt><trkpt lat="45.88573624320787" lon="12.713868816810797"><ele>14.0</ele><time>2026-04-05T15:44:15Z</time></trkpt><trkpt lat="45.8859581018465" lon="12.713642557099874"><ele>14.0</ele><time>2026-04-05T15:44:16Z</time></trkpt><trkpt lat="45.88618837156193" lon="12.713351452024865"><ele>14.0</ele><time>2026-04-05T15:44:16.999Z</time></trkpt><trkpt lat="45.8864285606971" lon="12.71307061474986"><ele>14.0</ele><time>2026-04-05T15:44:17.999Z</time></trkpt><trkpt lat="45.88661766914576" lon="12.712818392382703"><ele>14.0</ele><time>2026-04-05T15:44:18.999Z</time></trkpt><trkpt lat="45.8868818701625" lon="12.712499035443612"><ele>14.0</ele><time>2026-04-05T15:44:19.999Z</time></trkpt><trkpt lat="45.88697844908868" lon="12.712324334256234"><ele>14.0</ele><time>2026-04-05T15:44:20.999Z</time></trkpt><trkpt lat="45.88711682860256" lon="12.71207594501371"><ele>14.0</ele><time>2026-04-05T15:44:21.999Z</time></trkpt><trkpt lat="45.88726684609205" lon="12.711882786139007"><ele>14.0</ele><time>2026-04-05T15:44:22.999Z</time></trkpt><trkpt lat="45.887426332045344" lon="12.711649762809017"><ele>14.0</ele><time>2026-04-05T15:44:23.999Z</time></trkpt><trkpt lat="45.88760181067344" lon="12.711416962402508"><ele>14.0</ele><time>2026-04-05T15:44:24.999Z</time></trkpt><trkpt lat="45.887767795662924" lon="12.711183318625991"><ele>13.0</ele><time>2026-04-05T15:44:25.999Z</time></trkpt><trkpt lat="45.88794750511078" lon="12.710933834270518"><ele>12.0</ele><time>2026-04-05T15:44:26.999Z</time></trkpt><trkpt lat="45.888121940259715" lon="12.710687895788892"><ele>12.0</ele><time>2026-04-05T15:44:27.999Z</time></trkpt><trkpt lat="45.88829154912784" lon="12.710450291329671"><ele>12.0</ele><time>2026-04-05T15:44:28.999Z</time></trkpt><trkpt lat="45.888448488716186" lon="12.710240260560447"><ele>12.0</ele><time>2026-04-05T15:44:29.999Z</time></trkpt><trkpt lat="45.88859980764015" lon="12.710019372806219"><ele>12.0</ele><time>2026-04-05T15:44:30.999Z</time></trkpt><trkpt lat="45.88873135049829" lon="12.709793274466778"><ele>12.0</ele><time>2026-04-05T15:44:31.999Z</time></trkpt><trkpt lat="45.88881750049068" lon="12.709600419232183"><ele>12.0</ele><time>2026-04-05T15:44:32.999Z</time></trkpt><trkpt lat="45.888915065483744" lon="12.709436883925047"><ele>12.0</ele><time>2026-04-05T15:44:33.999Z</time></trkpt><trkpt lat="45.889018301845354" lon="12.709327773223746"><ele>12.0</ele><time>2026-04-05T15:44:34.999Z</time></trkpt><trkpt lat="45.889111097737405" lon="12.709245990911915"><ele>12.0</ele><time>2026-04-05T15:44:35.999Z</time></trkpt><trkpt lat="45.889190777192795" lon="12.709161855272619"><ele>12.2</ele><time>2026-04-05T15:44:36.999Z</time></trkpt><trkpt lat="45.889235189609074" lon="12.709039158212565"><ele>12.399999999999999</ele><time>2026-04-05T15:44:37.999Z</time></trkpt><trkpt lat="45.88925459183539" lon="12.708909549053905"><ele>12.600000000000001</ele><time>2026-04-05T15:44:38.999Z</time></trkpt><trkpt lat="45.88924857206501" lon="12.708783551114731"><ele>12.8</ele><time>2026-04-05T15:44:39.999Z</time></trkpt><trkpt lat="45.88926324515214" lon="12.708651916188051"><ele>13.0</ele><time>2026-04-05T15:44:40.999Z</time></trkpt><trkpt lat="45.88931452617604" lon="12.708498095195"><ele>13.333333333333332</ele><time>2026-04-05T15:44:41.999Z</time></trkpt><trkpt lat="45.88936873432298" lon="12.708315984844834"><ele>13.666666666666668</ele><time>2026-04-05T15:44:42.999Z</time></trkpt><trkpt lat="45.88941822057887" lon="12.708101347647473"><ele>14.0</ele><time>2026-04-05T15:44:43.999Z</time></trkpt><trkpt lat="45.88951426996615" lon="12.707883303883591"><ele>13.666666666666668</ele><time>2026-04-05T15:44:44.999Z</time></trkpt><trkpt lat="45.88960572194333" lon="12.707637035058285"><ele>13.333333333333332</ele><time>2026-04-05T15:44:45.999Z</time></trkpt><trkpt lat="45.889697778214945" lon="12.707370705679695"><ele>13.0</ele><time>2026-04-05T15:44:46.999Z</time></trkpt><trkpt lat="45.889791761093214" lon="12.707096326348651"><ele>14.666666666666666</ele><time>2026-04-05T15:44:47.999Z</time></trkpt><trkpt lat="45.88988905149053" lon="12.706826102726458"><ele>16.333333333333332</ele><time>2026-04-05T15:44:48.999Z</time></trkpt><trkpt lat="45.88998279116498" lon="12.706544990033354"><ele>18.0</ele><time>2026-04-05T15:44:49.999Z</time></trkpt><trkpt lat="45.89007465288783" lon="12.706229598662066"><ele>17.0</ele><time>2026-04-05T15:44:50.999Z</time></trkpt><trkpt lat="45.89016931661738" lon="12.705923244233878"><ele>16.0</ele><time>2026-04-05T15:44:51.999Z</time></trkpt><trkpt lat="45.89024150764243" lon="12.705635938330454"><ele>15.0</ele><time>2026-04-05T15:44:52.999Z</time></trkpt><trkpt lat="45.89033705123894" lon="12.70531362717289"><ele>14.0</ele><time>2026-04-05T15:44:53.999Z</time></trkpt><trkpt lat="45.89043127507827" lon="12.70499576813157"><ele>13.0</ele><time>2026-04-05T15:44:54.999Z</time></trkpt><trkpt lat="45.89052257609637" lon="12.704686665553442"><ele>13.0</ele><time>2026-04-05T15:44:55.999Z</time></trkpt><trkpt lat="45.89061360453612" lon="12.704377551187347"><ele>13.0</ele><time>2026-04-05T15:44:56.999Z</time></trkpt><trkpt lat="45.890702417703416" lon="12.704073682092371"><ele>13.0</ele><time>2026-04-05T15:44:57.999Z</time></trkpt><trkpt lat="45.89079232065397" lon="12.7037678031979"><ele>13.0</ele><time>2026-04-05T15:44:58.999Z</time></trkpt><trkpt lat="45.89088360710116" lon="12.703457583005038"><ele>13.5</ele><time>2026-04-05T15:44:59.999Z</time></trkpt><trkpt lat="45.89097205294119" lon="12.703157016269783"><ele>14.0</ele><time>2026-04-05T15:45:00.999Z</time></trkpt><trkpt lat="45.89106586842369" lon="12.70283820179795"><ele>15.0</ele><time>2026-04-05T15:45:01.999Z</time></trkpt><trkpt lat="45.891149636288205" lon="12.702553532230064"><ele>16.0</ele><time>2026-04-05T15:45:02.999Z</time></trkpt><trkpt lat="45.8912400434629" lon="12.702246300224934"><ele>17.0</ele><time>2026-04-05T15:45:03.999Z</time></trkpt><trkpt lat="45.8913306898395" lon="12.701972693739975"><ele>16.333333333333336</ele><time>2026-04-05T15:45:04.999Z</time></trkpt><trkpt lat="45.891399352205504" lon="12.701689926014751"><ele>15.666666666666668</ele><time>2026-04-05T15:45:05.999Z</time></trkpt><trkpt lat="45.89148405037447" lon="12.701378902847221"><ele>15.0</ele><time>2026-04-05T15:45:06.999Z</time></trkpt><trkpt lat="45.89151683948926" lon="12.701171438762085"><ele>15.0</ele><time>2026-04-05T15:45:07.999Z</time></trkpt><trkpt lat="45.891614907840896" lon="12.700907994372168"><ele>15.0</ele><time>2026-04-05T15:45:08.999Z</time></trkpt><trkpt lat="45.891686552793416" lon="12.700727976830667"><ele>15.0</ele><time>2026-04-05T15:45:09.999Z</time></trkpt><trkpt lat="45.891836598703875" lon="12.700184301395414"><ele>15.0</ele><time>2026-04-05T15:45:10.999Z</time></trkpt><trkpt lat="45.89192923411594" lon="12.699828605196284"><ele>15.0</ele><time>2026-04-05T15:45:11.999Z</time></trkpt><trkpt lat="45.8919863347455" lon="12.699555295525204"><ele>15.333333333333332</ele><time>2026-04-05T15:45:12.999Z</time></trkpt><trkpt lat="45.892064410378914" lon="12.699299957720362"><ele>15.666666666666666</ele><time>2026-04-05T15:45:13.999Z</time></trkpt><trkpt lat="45.89216275621797" lon="12.699077632595035"><ele>16.0</ele><time>2026-04-05T15:45:14.999Z</time></trkpt><trkpt lat="45.89227275207692" lon="12.698898113948319"><ele>16.0</ele><time>2026-04-05T15:45:16Z</time></trkpt><trkpt lat="45.89237183937462" lon="12.698688470986086"><ele>16.0</ele><time>2026-04-05T15:45:17Z</time></trkpt><trkpt lat="45.89246791008141" lon="12.698520867474695"><ele>16.0</ele><time>2026-04-05T15:45:18Z</time></trkpt><trkpt lat="45.892559469078286" lon="12.698365581298795"><ele>16.25</ele><time>2026-04-05T15:45:19Z</time></trkpt><trkpt lat="45.8926235466193" lon="12.698196429711674"><ele>16.5</ele><time>2026-04-05T15:45:20Z</time></trkpt><trkpt lat="45.89266425083166" lon="12.698025969495001"><ele>16.75</ele><time>2026-04-05T15:45:21Z</time></trkpt><trkpt lat="45.89273905508345" lon="12.697908204095352"><ele>17.0</ele><time>2026-04-05T15:45:22Z</time></trkpt><trkpt lat="45.89282926231934" lon="12.697810161017246"><ele>16.25</ele><time>2026-04-05T15:45:23Z</time></trkpt><trkpt lat="45.89288505114999" lon="12.69767441173989"><ele>15.5</ele><time>2026-04-05T15:45:24Z</time></trkpt><trkpt lat="45.892907233813105" lon="12.697513581898695"><ele>14.75</ele><time>2026-04-05T15:45:25Z</time></trkpt><trkpt lat="45.89293715094176" lon="12.697361298000997"><ele>14.0</ele><time>2026-04-05T15:45:26Z</time></trkpt><trkpt lat="45.89303371286549" lon="12.697251221198954"><ele>14.0</ele><time>2026-04-05T15:45:27Z</time></trkpt><trkpt lat="45.8931461605453" lon="12.69711289839169"><ele>14.0</ele><time>2026-04-05T15:45:28Z</time></trkpt><trkpt lat="45.893260216194584" lon="12.696946845587247"><ele>14.0</ele><time>2026-04-05T15:45:29Z</time></trkpt><trkpt lat="45.89339536411781" lon="12.696797338625412"><ele>13.666666666666668</ele><time>2026-04-05T15:45:30Z</time></trkpt><trkpt lat="45.89351408518094" lon="12.696594043726156"><ele>13.333333333333332</ele><time>2026-04-05T15:45:31Z</time></trkpt><trkpt lat="45.893627736891126" lon="12.696357614756815"><ele>13.0</ele><time>2026-04-05T15:45:32Z</time></trkpt><trkpt lat="45.89375828386876" lon="12.696112664478113"><ele>14.5</ele><time>2026-04-05T15:45:33Z</time></trkpt><trkpt lat="45.893902925534626" lon="12.695871417547492"><ele>16.0</ele><time>2026-04-05T15:45:34Z</time></trkpt><trkpt lat="45.89404900412321" lon="12.695601089662144"><ele>16.0</ele><time>2026-04-05T15:45:35Z</time></trkpt><trkpt lat="45.894199061429504" lon="12.695331243490934"><ele>16.0</ele><time>2026-04-05T15:45:36Z</time></trkpt><trkpt lat="45.89435491981246" lon="12.695036217545024"><ele>15.5</ele><time>2026-04-05T15:45:37Z</time></trkpt><trkpt lat="45.894510339117325" lon="12.694752655476798"><ele>15.0</ele><time>2026-04-05T15:45:38Z</time></trkpt><trkpt lat="45.89465911836395" lon="12.694480776316805"><ele>15.5</ele><time>2026-04-05T15:45:39Z</time></trkpt><trkpt lat="45.89480497861467" lon="12.69420479494901"><ele>16.0</ele><time>2026-04-05T15:45:40Z</time></trkpt><trkpt lat="45.89495068254739" lon="12.693922893999895"><ele>16.5</ele><time>2026-04-05T15:45:41Z</time></trkpt><trkpt lat="45.89510501437235" lon="12.693646913400046"><ele>17.0</ele><time>2026-04-05T15:45:42Z</time></trkpt><trkpt lat="45.8952504458829" lon="12.69339259065765"><ele>17.0</ele><time>2026-04-05T15:45:43Z</time></trkpt><trkpt lat="45.89537505983685" lon="12.693177542985286"><ele>17.0</ele><time>2026-04-05T15:45:44Z</time></trkpt><trkpt lat="45.89549418482546" lon="12.692954324392678"><ele>17.0</ele><time>2026-04-05T15:45:45Z</time></trkpt><trkpt lat="45.89560760602092" lon="12.692743882925932"><ele>16.666666666666668</ele><time>2026-04-05T15:45:46Z</time></trkpt><trkpt lat="45.89571645828606" lon="12.692549096073073"><ele>16.333333333333332</ele><time>2026-04-05T15:45:47Z</time></trkpt><trkpt lat="45.895801637200286" lon="12.692357168317196"><ele>16.0</ele><time>2026-04-05T15:45:48Z</time></trkpt><trkpt lat="45.89589502546393" lon="12.692182924548332"><ele>16.0</ele><time>2026-04-05T15:45:49Z</time></trkpt><trkpt lat="45.895938430831166" lon="12.69200798484611"><ele>16.0</ele><time>2026-04-05T15:45:50Z</time></trkpt><trkpt lat="45.89601573500423" lon="12.691855469613495"><ele>16.0</ele><time>2026-04-05T15:45:51Z</time></trkpt><trkpt lat="45.89612004912606" lon="12.691745117486873"><ele>16.0</ele><time>2026-04-05T15:45:52Z</time></trkpt><trkpt lat="45.89621067022041" lon="12.691619103207362"><ele>16.0</ele><time>2026-04-05T15:45:53Z</time></trkpt><trkpt lat="45.89626574368094" lon="12.691454242876997"><ele>16.0</ele><time>2026-04-05T15:45:54Z</time></trkpt><trkpt lat="45.89634414892026" lon="12.691326144451397"><ele>16.0</ele><time>2026-04-05T15:45:55Z</time></trkpt><trkpt lat="45.89643672877046" lon="12.691188277043214"><ele>16.0</ele><time>2026-04-05T15:45:56Z</time></trkpt><trkpt lat="45.896536102661244" lon="12.691032445362815"><ele>16.0</ele><time>2026-04-05T15:45:57Z</time></trkpt><trkpt lat="45.89665515978318" lon="12.690853087418036"><ele>16.0</ele><time>2026-04-05T15:45:58Z</time></trkpt><trkpt lat="45.89674115948792" lon="12.690668839009819"><ele>16.0</ele><time>2026-04-05T15:45:59Z</time></trkpt><trkpt lat="45.896861921729766" lon="12.69046965606094"><ele>15.666666666666666</ele><time>2026-04-05T15:46:00Z</time></trkpt><trkpt lat="45.896984044470386" lon="12.69026035325668"><ele>15.333333333333332</ele><time>2026-04-05T15:46:01Z</time></trkpt><trkpt lat="45.897106925440085" lon="12.690043142660048"><ele>15.0</ele><time>2026-04-05T15:46:02Z</time></trkpt><trkpt lat="45.8972375024693" lon="12.68981716583264"><ele>15.0</ele><time>2026-04-05T15:46:03Z</time></trkpt><trkpt lat="45.89736233733199" lon="12.689600470560093"><ele>15.0</ele><time>2026-04-05T15:46:04Z</time></trkpt><trkpt lat="45.89749039759592" lon="12.689383678673368"><ele>15.0</ele><time>2026-04-05T15:46:05Z</time></trkpt><trkpt lat="45.89761794764793" lon="12.689163424702864"><ele>15.0</ele><time>2026-04-05T15:46:06Z</time></trkpt><trkpt lat="45.897750517271184" lon="12.688953156379005"><ele>15.0</ele><time>2026-04-05T15:46:07Z</time></trkpt><trkpt lat="45.89789028259742" lon="12.68876061287912"><ele>15.0</ele><time>2026-04-05T15:46:08Z</time></trkpt><trkpt lat="45.89795795383353" lon="12.688521330259498"><ele>14.333333333333332</ele><time>2026-04-05T15:46:09Z</time></trkpt><trkpt lat="45.89806296074784" lon="12.688336728637973"><ele>13.666666666666666</ele><time>2026-04-05T15:46:10Z</time></trkpt><trkpt lat="45.898197105699055" lon="12.688139894503045"><ele>13.0</ele><time>2026-04-05T15:46:11Z</time></trkpt><trkpt lat="45.898312431287" lon="12.687985946977788"><ele>13.666666666666666</ele><time>2026-04-05T15:46:12Z</time></trkpt><trkpt lat="45.89842816135449" lon="12.68780903909725"><ele>14.333333333333332</ele><time>2026-04-05T15:46:13Z</time></trkpt><trkpt lat="45.89854487379073" lon="12.687612683675681"><ele>15.0</ele><time>2026-04-05T15:46:14Z</time></trkpt><trkpt lat="45.8986499716068" lon="12.687427384193173"><ele>15.0</ele><time>2026-04-05T15:46:15Z</time></trkpt><trkpt lat="45.89876539492441" lon="12.687245284669528"><ele>15.0</ele><time>2026-04-05T15:46:16Z</time></trkpt><trkpt lat="45.898879140414834" lon="12.687070551881172"><ele>15.0</ele><time>2026-04-05T15:46:17Z</time></trkpt><trkpt lat="45.89899521917927" lon="12.68689249430372"><ele>15.333333333333332</ele><time>2026-04-05T15:46:18Z</time></trkpt><trkpt lat="45.89911798879531" lon="12.686703679872528"><ele>15.666666666666666</ele><time>2026-04-05T15:46:19Z</time></trkpt><trkpt lat="45.899232356780125" lon="12.686534227217013"><ele>16.0</ele><time>2026-04-05T15:46:20Z</time></trkpt><trkpt lat="45.899346838390215" lon="12.686391546307144"><ele>16.333333333333332</ele><time>2026-04-05T15:46:21Z</time></trkpt><trkpt lat="45.89946568663534" lon="12.686211876293777"><ele>16.666666666666668</ele><time>2026-04-05T15:46:22Z</time></trkpt><trkpt lat="45.8995784293441" lon="12.686033898474985"><ele>17.0</ele><time>2026-04-05T15:46:23Z</time></trkpt><trkpt lat="45.89969903774985" lon="12.685844223036126"><ele>16.333333333333336</ele><time>2026-04-05T15:46:24Z</time></trkpt><trkpt lat="45.899825665555326" lon="12.685647186326902"><ele>15.666666666666668</ele><time>2026-04-05T15:46:25Z</time></trkpt><trkpt lat="45.8999499750744" lon="12.685453756799522"><ele>15.0</ele><time>2026-04-05T15:46:26Z</time></trkpt><trkpt lat="45.90007434053728" lon="12.685251875433167"><ele>13.5</ele><time>2026-04-05T15:46:26.999Z</time></trkpt><trkpt lat="45.90019285382606" lon="12.685044996148621"><ele>12.0</ele><time>2026-04-05T15:46:27.999Z</time></trkpt><trkpt lat="45.90043260173493" lon="12.684620384440377"><ele>11.333333333333334</ele><time>2026-04-05T15:46:29.999Z</time></trkpt><trkpt lat="45.90054314854915" lon="12.684392984255036"><ele>10.666666666666668</ele><time>2026-04-05T15:46:30.999Z</time></trkpt><trkpt lat="45.90066357076851" lon="12.684176299264788"><ele>10.0</ele><time>2026-04-05T15:46:31.999Z</time></trkpt><trkpt lat="45.900797423092634" lon="12.683971919528789"><ele>9.666666666666668</ele><time>2026-04-05T15:46:32.999Z</time></trkpt><trkpt lat="45.90092291624455" lon="12.68374766152633"><ele>9.333333333333334</ele><time>2026-04-05T15:46:33.999Z</time></trkpt><trkpt lat="45.90105013734192" lon="12.683520315531384"><ele>9.0</ele><time>2026-04-05T15:46:34.999Z</time></trkpt><trkpt lat="45.90117432726162" lon="12.683298386248143"><ele>9.0</ele><time>2026-04-05T15:46:35.999Z</time></trkpt><trkpt lat="45.90128665302369" lon="12.683060593589254"><ele>9.0</ele><time>2026-04-05T15:46:36.999Z</time></trkpt><trkpt lat="45.901413182157945" lon="12.6828335977836"><ele>9.0</ele><time>2026-04-05T15:46:37.999Z</time></trkpt><trkpt lat="45.90155281205924" lon="12.682622590644756"><ele>9.0</ele><time>2026-04-05T15:46:38.999Z</time></trkpt><trkpt lat="45.90167898849552" lon="12.682398959692302"><ele>9.0</ele><time>2026-04-05T15:46:39.999Z</time></trkpt><trkpt lat="45.90180505672497" lon="12.682178416606499"><ele>9.0</ele><time>2026-04-05T15:46:40.999Z</time></trkpt><trkpt lat="45.90192540162768" lon="12.681967885906827"><ele>9.0</ele><time>2026-04-05T15:46:41.999Z</time></trkpt><trkpt lat="45.90204371267671" lon="12.681758927507552"><ele>9.0</ele><time>2026-04-05T15:46:42.999Z</time></trkpt><trkpt lat="45.90216097648035" lon="12.681550726845213"><ele>9.0</ele><time>2026-04-05T15:46:43.999Z</time></trkpt><trkpt lat="45.90228286158903" lon="12.681333334820643"><ele>9.0</ele><time>2026-04-05T15:46:44.999Z</time></trkpt><trkpt lat="45.90240444391212" lon="12.681117189839005"><ele>9.0</ele><time>2026-04-05T15:46:45.999Z</time></trkpt><trkpt lat="45.90253121569504" lon="12.68089272228115"><ele>9.0</ele><time>2026-04-05T15:46:46.999Z</time></trkpt><trkpt lat="45.902656740851874" lon="12.680670376901956"><ele>10.0</ele><time>2026-04-05T15:46:47.999Z</time></trkpt><trkpt lat="45.90277428689108" lon="12.680426407587566"><ele>11.0</ele><time>2026-04-05T15:46:48.999Z</time></trkpt><trkpt lat="45.90290655265044" lon="12.680193225930822"><ele>12.0</ele><time>2026-04-05T15:46:49.999Z</time></trkpt><trkpt lat="45.90303865333591" lon="12.679957217673259"><ele>12.0</ele><time>2026-04-05T15:46:50.999Z</time></trkpt><trkpt lat="45.90317214690659" lon="12.679719062645445"><ele>12.0</ele><time>2026-04-05T15:46:51.999Z</time></trkpt><trkpt lat="45.903308266024126" lon="12.679470346521734"><ele>12.0</ele><time>2026-04-05T15:46:52.999Z</time></trkpt><trkpt lat="45.90343991939067" lon="12.679216579161023"><ele>12.0</ele><time>2026-04-05T15:46:53.999Z</time></trkpt><trkpt lat="45.90357231486636" lon="12.678967524134737"><ele>12.0</ele><time>2026-04-05T15:46:54.999Z</time></trkpt><trkpt lat="45.903703600142094" lon="12.67871442934552"><ele>12.0</ele><time>2026-04-05T15:46:55.999Z</time></trkpt><trkpt lat="45.90383514026346" lon="12.678456321996292"><ele>12.5</ele><time>2026-04-05T15:46:56.999Z</time></trkpt><trkpt lat="45.90397266517955" lon="12.67819103395914"><ele>13.0</ele><time>2026-04-05T15:46:57.999Z</time></trkpt><trkpt lat="45.90410990392243" lon="12.677933015375675"><ele>13.0</ele><time>2026-04-05T15:46:58.999Z</time></trkpt><trkpt lat="45.90424285783486" lon="12.67767330454683"><ele>13.0</ele><time>2026-04-05T15:46:59.999Z</time></trkpt><trkpt lat="45.90438078186389" lon="12.677413392841697"><ele>14.0</ele><time>2026-04-05T15:47:00.999Z</time></trkpt><trkpt lat="45.90451311233291" lon="12.677152614419668"><ele>15.0</ele><time>2026-04-05T15:47:01.999Z</time></trkpt><trkpt lat="45.90465069994759" lon="12.676889465795394"><ele>15.0</ele><time>2026-04-05T15:47:02.999Z</time></trkpt><trkpt lat="45.90478602197708" lon="12.676623750489574"><ele>15.0</ele><time>2026-04-05T15:47:03.999Z</time></trkpt><trkpt lat="45.9049396887096" lon="12.676369395701292"><ele>15.5</ele><time>2026-04-05T15:47:04.999Z</time></trkpt><trkpt lat="45.90506755743987" lon="12.676086450840296"><ele>16.0</ele><time>2026-04-05T15:47:05.999Z</time></trkpt><trkpt lat="45.90520901257606" lon="12.675822096480115"><ele>14.5</ele><time>2026-04-05T15:47:06.999Z</time></trkpt><trkpt lat="45.905351284109564" lon="12.67555738649657"><ele>13.0</ele><time>2026-04-05T15:47:07.999Z</time></trkpt><trkpt lat="45.90549131694159" lon="12.675290460848617"><ele>14.0</ele><time>2026-04-05T15:47:08.999Z</time></trkpt><trkpt lat="45.90562938709194" lon="12.675027671819084"><ele>15.0</ele><time>2026-04-05T15:47:09.999Z</time></trkpt><trkpt lat="45.905766508448366" lon="12.67476258285954"><ele>15.0</ele><time>2026-04-05T15:47:10.999Z</time></trkpt><trkpt lat="45.90590998579754" lon="12.674489434351539"><ele>15.0</ele><time>2026-04-05T15:47:11.999Z</time></trkpt><trkpt lat="45.90606547825322" lon="12.674220473764157"><ele>15.5</ele><time>2026-04-05T15:47:12.999Z</time></trkpt><trkpt lat="45.90620891734489" lon="12.673947020829948"><ele>16.0</ele><time>2026-04-05T15:47:13.999Z</time></trkpt><trkpt lat="45.906349052682025" lon="12.673679866194563"><ele>16.0</ele><time>2026-04-05T15:47:14.999Z</time></trkpt><trkpt lat="45.906474940688064" lon="12.673439252283218"><ele>16.0</ele><time>2026-04-05T15:47:15.999Z</time></trkpt><trkpt lat="45.90658417800961" lon="12.673192606674318"><ele>16.0</ele><time>2026-04-05T15:47:16.999Z</time></trkpt><trkpt lat="45.90671306178694" lon="12.672950995961402"><ele>16.0</ele><time>2026-04-05T15:47:17.999Z</time></trkpt><trkpt lat="45.90683929603408" lon="12.672714071627727"><ele>16.0</ele><time>2026-04-05T15:47:18.999Z</time></trkpt><trkpt lat="45.90696894130388" lon="12.672482197168236"><ele>16.0</ele><time>2026-04-05T15:47:19.999Z</time></trkpt><trkpt lat="45.907093298336875" lon="12.672249531030376"><ele>16.0</ele><time>2026-04-05T15:47:20.999Z</time></trkpt><trkpt lat="45.90722361626698" lon="12.672016432124112"><ele>16.0</ele><time>2026-04-05T15:47:21.999Z</time></trkpt><trkpt lat="45.907347402653976" lon="12.671799075707632"><ele>16.0</ele><time>2026-04-05T15:47:22.999Z</time></trkpt><trkpt lat="45.90745292641308" lon="12.671573593307253"><ele>16.333333333333332</ele><time>2026-04-05T15:47:23.999Z</time></trkpt><trkpt lat="45.90756979235822" lon="12.671357625219951"><ele>16.666666666666668</ele><time>2026-04-05T15:47:24.999Z</time></trkpt><trkpt lat="45.90767809374868" lon="12.671144119589437"><ele>17.0</ele><time>2026-04-05T15:47:25.999Z</time></trkpt><trkpt lat="45.907766987521505" lon="12.670928778357299"><ele>17.333333333333336</ele><time>2026-04-05T15:47:26.999Z</time></trkpt><trkpt lat="45.9078766191066" lon="12.67074854104796"><ele>17.666666666666668</ele><time>2026-04-05T15:47:27.999Z</time></trkpt><trkpt lat="45.9079739310835" lon="12.670562180664922"><ele>18.0</ele><time>2026-04-05T15:47:28.999Z</time></trkpt><trkpt lat="45.90806812801595" lon="12.670381785797659"><ele>18.0</ele><time>2026-04-05T15:47:29.999Z</time></trkpt><trkpt lat="45.90815377603513" lon="12.670217762882848"><ele>18.0</ele><time>2026-04-05T15:47:30.999Z</time></trkpt><trkpt lat="45.90823488224566" lon="12.67006176884442"><ele>18.0</ele><time>2026-04-05T15:47:31.999Z</time></trkpt><trkpt lat="45.90829861047669" lon="12.669937246330718"><ele>18.0</ele><time>2026-04-05T15:47:32.999Z</time></trkpt><trkpt lat="45.9083749189504" lon="12.669788665100736"><ele>17.75</ele><time>2026-04-05T15:47:33.999Z</time></trkpt><trkpt lat="45.90846910049504" lon="12.66964700587099"><ele>17.5</ele><time>2026-04-05T15:47:34.999Z</time></trkpt><trkpt lat="45.90855107047428" lon="12.669510062291508"><ele>17.25</ele><time>2026-04-05T15:47:35.999Z</time></trkpt><trkpt lat="45.90861927538041" lon="12.669388766128074"><ele>17.0</ele><time>2026-04-05T15:47:36.999Z</time></trkpt><trkpt lat="45.908672024656305" lon="12.66928421629129"><ele>16.8</ele><time>2026-04-05T15:47:37.999Z</time></trkpt><trkpt lat="45.908707291384" lon="12.669175025712802"><ele>16.6</ele><time>2026-04-05T15:47:38.999Z</time></trkpt><trkpt lat="45.908758390056455" lon="12.669092078144025"><ele>16.400000000000002</ele><time>2026-04-05T15:47:39.999Z</time></trkpt><trkpt lat="45.90884664809766" lon="12.669009186994383"><ele>16.2</ele><time>2026-04-05T15:47:40.999Z</time></trkpt><trkpt lat="45.90897420565086" lon="12.668990941905772"><ele>16.0</ele><time>2026-04-05T15:47:41.999Z</time></trkpt><trkpt lat="45.909086927534965" lon="12.669030287337172"><ele>16.0</ele><time>2026-04-05T15:47:42.999Z</time></trkpt><trkpt lat="45.90914586538182" lon="12.668896799409193"><ele>16.0</ele><time>2026-04-05T15:47:44.999Z</time></trkpt><trkpt lat="45.90917447027771" lon="12.668664981725533"><ele>16.0</ele><time>2026-04-05T15:47:46.999Z</time></trkpt><trkpt lat="45.90908428896889" lon="12.668597785204643"><ele>16.0</ele><time>2026-04-05T15:47:47.999Z</time></trkpt><trkpt lat="45.90900264423827" lon="12.668538047647088"><ele>16.5</ele><time>2026-04-05T15:47:48.999Z</time></trkpt><trkpt lat="45.90892811381724" lon="12.668461554038938"><ele>17.0</ele><time>2026-04-05T15:47:49.999Z</time></trkpt><trkpt lat="45.90887944343777" lon="12.668328238115393"><ele>17.5</ele><time>2026-04-05T15:47:50.999Z</time></trkpt><trkpt lat="45.908822508080746" lon="12.668176721201778"><ele>18.0</ele><time>2026-04-05T15:47:51.999Z</time></trkpt><trkpt lat="45.90880744070659" lon="12.667976853722923"><ele>17.666666666666668</ele><time>2026-04-05T15:47:52.999Z</time></trkpt><trkpt lat="45.90880747858263" lon="12.667750793040138"><ele>17.333333333333336</ele><time>2026-04-05T15:47:53.999Z</time></trkpt><trkpt lat="45.90877596000545" lon="12.667518632393849"><ele>17.0</ele><time>2026-04-05T15:47:54.999Z</time></trkpt><trkpt lat="45.90874597147796" lon="12.66720013516193"><ele>16.666666666666668</ele><time>2026-04-05T15:47:55.999Z</time></trkpt><trkpt lat="45.90876175121457" lon="12.666884017410512"><ele>16.333333333333332</ele><time>2026-04-05T15:47:56.999Z</time></trkpt><trkpt lat="45.90876982058234" lon="12.66656786169423"><ele>16.0</ele><time>2026-04-05T15:47:57.999Z</time></trkpt><trkpt lat="45.90877044061755" lon="12.66622918582055"><ele>17.0</ele><time>2026-04-05T15:47:58.999Z</time></trkpt><trkpt lat="45.90872440485408" lon="12.66582464801618"><ele>18.0</ele><time>2026-04-05T15:47:59.999Z</time></trkpt><trkpt lat="45.90871951879928" lon="12.665426086979318"><ele>17.5</ele><time>2026-04-05T15:48:00.999Z</time></trkpt><trkpt lat="45.908702985792566" lon="12.665020052374445"><ele>17.0</ele><time>2026-04-05T15:48:01.999Z</time></trkpt><trkpt lat="45.90867797947119" lon="12.664618398792134"><ele>17.0</ele><time>2026-04-05T15:48:02.999Z</time></trkpt><trkpt lat="45.90866775518976" lon="12.664219314516657"><ele>17.0</ele><time>2026-04-05T15:48:03.999Z</time></trkpt><trkpt lat="45.9086777413881" lon="12.663834637308986"><ele>17.0</ele><time>2026-04-05T15:48:04.999Z</time></trkpt><trkpt lat="45.90867388891943" lon="12.663454662507766"><ele>17.0</ele><time>2026-04-05T15:48:05.999Z</time></trkpt><trkpt lat="45.908676361254834" lon="12.663091971553117"><ele>17.0</ele><time>2026-04-05T15:48:06.999Z</time></trkpt><trkpt lat="45.90870324111075" lon="12.662734770442478"><ele>17.0</ele><time>2026-04-05T15:48:07.999Z</time></trkpt><trkpt lat="45.90861924312758" lon="12.662401760101016"><ele>17.0</ele><time>2026-04-05T15:48:08.999Z</time></trkpt><trkpt lat="45.908603447935846" lon="12.662052457152875"><ele>17.0</ele><time>2026-04-05T15:48:09.999Z</time></trkpt><trkpt lat="45.90852331895426" lon="12.661699575326416"><ele>17.0</ele><time>2026-04-05T15:48:10.999Z</time></trkpt><trkpt lat="45.90853070541419" lon="12.661347405545671"><ele>17.0</ele><time>2026-04-05T15:48:11.999Z</time></trkpt><trkpt lat="45.908523691978104" lon="12.66098595907598"><ele>16.333333333333336</ele><time>2026-04-05T15:48:12.999Z</time></trkpt><trkpt lat="45.90845564485256" lon="12.660652980285672"><ele>15.666666666666668</ele><time>2026-04-05T15:48:13.999Z</time></trkpt><trkpt lat="45.9084585115121" lon="12.660386542987208"><ele>15.0</ele><time>2026-04-05T15:48:14.999Z</time></trkpt><trkpt lat="45.9084561429756" lon="12.660101755740317"><ele>15.0</ele><time>2026-04-05T15:48:15.999Z</time></trkpt><trkpt lat="45.90844837752752" lon="12.659812608310201"><ele>15.0</ele><time>2026-04-05T15:48:16.999Z</time></trkpt><trkpt lat="45.908436198910124" lon="12.659529247927239"><ele>15.0</ele><time>2026-04-05T15:48:17.999Z</time></trkpt><trkpt lat="45.9084186654525" lon="12.659244216176154"><ele>15.333333333333332</ele><time>2026-04-05T15:48:18.999Z</time></trkpt><trkpt lat="45.90840763130213" lon="12.658959647544252"><ele>15.666666666666666</ele><time>2026-04-05T15:48:19.999Z</time></trkpt><trkpt lat="45.90837236687837" lon="12.658666951539914"><ele>16.0</ele><time>2026-04-05T15:48:20.999Z</time></trkpt><trkpt lat="45.908362899443645" lon="12.6584011945872"><ele>16.0</ele><time>2026-04-05T15:48:21.999Z</time></trkpt><trkpt lat="45.90836322411303" lon="12.658110982476183"><ele>16.0</ele><time>2026-04-05T15:48:22.999Z</time></trkpt><trkpt lat="45.908352134317326" lon="12.657826191105181"><ele>16.0</ele><time>2026-04-05T15:48:23.999Z</time></trkpt><trkpt lat="45.90832413407004" lon="12.657547020515427"><ele>16.0</ele><time>2026-04-05T15:48:24.999Z</time></trkpt><trkpt lat="45.90831242265051" lon="12.657213625598157"><ele>16.0</ele><time>2026-04-05T15:48:25.999Z</time></trkpt><trkpt lat="45.908260149670866" lon="12.656889021631942"><ele>16.0</ele><time>2026-04-05T15:48:26.999Z</time></trkpt><trkpt lat="45.90821076489038" lon="12.65659794438977"><ele>16.0</ele><time>2026-04-05T15:48:27.999Z</time></trkpt><trkpt lat="45.90813925999083" lon="12.656305490042673"><ele>16.0</ele><time>2026-04-05T15:48:28.999Z</time></trkpt><trkpt lat="45.908058445624455" lon="12.656050353973118"><ele>16.0</ele><time>2026-04-05T15:48:29.999Z</time></trkpt><trkpt lat="45.90796665806339" lon="12.655795501534008"><ele>16.0</ele><time>2026-04-05T15:48:30.999Z</time></trkpt><trkpt lat="45.9078751761729" lon="12.655556632951267"><ele>16.0</ele><time>2026-04-05T15:48:31.999Z</time></trkpt><trkpt lat="45.90776536331654" lon="12.655337333615831"><ele>16.333333333333332</ele><time>2026-04-05T15:48:32.999Z</time></trkpt><trkpt lat="45.90766537824159" lon="12.655151923799385"><ele>16.666666666666668</ele><time>2026-04-05T15:48:33.999Z</time></trkpt><trkpt lat="45.907550215005436" lon="12.654952046073179"><ele>17.0</ele><time>2026-04-05T15:48:34.999Z</time></trkpt><trkpt lat="45.90745383969724" lon="12.654773750309683"><ele>17.25</ele><time>2026-04-05T15:48:35.999Z</time></trkpt><trkpt lat="45.907369603962735" lon="12.654623781415124"><ele>17.5</ele><time>2026-04-05T15:48:36.999Z</time></trkpt><trkpt lat="45.90730671307355" lon="12.65447434253778"><ele>17.75</ele><time>2026-04-05T15:48:37.999Z</time></trkpt><trkpt lat="45.907274038010065" lon="12.6543045826164"><ele>18.0</ele><time>2026-04-05T15:48:38.999Z</time></trkpt><trkpt lat="45.907268991814796" lon="12.65413229134138"><ele>18.0</ele><time>2026-04-05T15:48:39.999Z</time></trkpt><trkpt lat="45.90730324731762" lon="12.653958924494223"><ele>18.0</ele><time>2026-04-05T15:48:40.999Z</time></trkpt><trkpt lat="45.9073849132153" lon="12.653797160622155"><ele>18.0</ele><time>2026-04-05T15:48:41.999Z</time></trkpt><trkpt lat="45.90748762379698" lon="12.65361912659942"><ele>18.0</ele><time>2026-04-05T15:48:42.999Z</time></trkpt><trkpt lat="45.90757114780148" lon="12.653452694040064"><ele>17.5</ele><time>2026-04-05T15:48:43.999Z</time></trkpt><trkpt lat="45.90766248379582" lon="12.653270695130361"><ele>17.0</ele><time>2026-04-05T15:48:44.999Z</time></trkpt><trkpt lat="45.90774486554344" lon="12.65310653871171"><ele>16.5</ele><time>2026-04-05T15:48:45.999Z</time></trkpt><trkpt lat="45.90782923886553" lon="12.65293841384537"><ele>16.0</ele><time>2026-04-05T15:48:46.999Z</time></trkpt><trkpt lat="45.90790248800921" lon="12.652772692897253"><ele>16.0</ele><time>2026-04-05T15:48:47.999Z</time></trkpt><trkpt lat="45.90798389574036" lon="12.652612296308673"><ele>16.0</ele><time>2026-04-05T15:48:48.999Z</time></trkpt><trkpt lat="45.908055596040846" lon="12.652468385910332"><ele>16.0</ele><time>2026-04-05T15:48:49.999Z</time></trkpt><trkpt lat="45.90816113465917" lon="12.652282719616801"><ele>16.0</ele><time>2026-04-05T15:48:50.999Z</time></trkpt><trkpt lat="45.908262402992214" lon="12.652061425290961"><ele>16.0</ele><time>2026-04-05T15:48:51.999Z</time></trkpt><trkpt lat="45.90840749958746" lon="12.651788129845068"><ele>16.0</ele><time>2026-04-05T15:48:52.999Z</time></trkpt><trkpt lat="45.90857954575074" lon="12.651529200641981"><ele>16.0</ele><time>2026-04-05T15:48:53.999Z</time></trkpt><trkpt lat="45.90874875851883" lon="12.651214721112876"><ele>16.0</ele><time>2026-04-05T15:48:54.999Z</time></trkpt><trkpt lat="45.90887323312854" lon="12.650977431496738"><ele>16.333333333333332</ele><time>2026-04-05T15:48:55.999Z</time></trkpt><trkpt lat="45.90899757667378" lon="12.650741237962041"><ele>16.666666666666668</ele><time>2026-04-05T15:48:56.999Z</time></trkpt><trkpt lat="45.9091111375639" lon="12.650525484772999"><ele>17.0</ele><time>2026-04-05T15:48:57.999Z</time></trkpt><trkpt lat="45.90924007510335" lon="12.650298462036766"><ele>16.75</ele><time>2026-04-05T15:48:58.999Z</time></trkpt><trkpt lat="45.90934065907948" lon="12.65010692209515"><ele>16.5</ele><time>2026-04-05T15:48:59.999Z</time></trkpt><trkpt lat="45.90937264482185" lon="12.649935336425967"><ele>16.25</ele><time>2026-04-05T15:49:00.999Z</time></trkpt><trkpt lat="45.909393365756316" lon="12.649783659405527"><ele>16.0</ele><time>2026-04-05T15:49:01.999Z</time></trkpt><trkpt lat="45.909430544262676" lon="12.649562710202396"><ele>16.0</ele><time>2026-04-05T15:49:02.999Z</time></trkpt><trkpt lat="45.90941923862693" lon="12.649330850648713"><ele>16.0</ele><time>2026-04-05T15:49:03.999Z</time></trkpt><trkpt lat="45.90935752084211" lon="12.649126598031433"><ele>16.0</ele><time>2026-04-05T15:49:04.999Z</time></trkpt><trkpt lat="45.90927363377132" lon="12.648962515003033"><ele>16.333333333333332</ele><time>2026-04-05T15:49:05.999Z</time></trkpt><trkpt lat="45.90915851850402" lon="12.648786410593019"><ele>16.666666666666668</ele><time>2026-04-05T15:49:06.999Z</time></trkpt><trkpt lat="45.90902707542509" lon="12.648585706759969"><ele>17.0</ele><time>2026-04-05T15:49:07.999Z</time></trkpt><trkpt lat="45.90888442445955" lon="12.648372310267614"><ele>17.0</ele><time>2026-04-05T15:49:08.999Z</time></trkpt><trkpt lat="45.90872663278739" lon="12.64809973355577"><ele>17.0</ele><time>2026-04-05T15:49:09.999Z</time></trkpt><trkpt lat="45.90851641967713" lon="12.647810960615201"><ele>17.5</ele><time>2026-04-05T15:49:10.999Z</time></trkpt><trkpt lat="45.9082839765925" lon="12.64746176287965"><ele>18.0</ele><time>2026-04-05T15:49:11.999Z</time></trkpt><trkpt lat="45.90801170490144" lon="12.647024181444076"><ele>17.0</ele><time>2026-04-05T15:49:12.999Z</time></trkpt><trkpt lat="45.907730105067145" lon="12.646599077008677"><ele>16.0</ele><time>2026-04-05T15:49:13.999Z</time></trkpt><trkpt lat="45.90742797692354" lon="12.646140545099392"><ele>15.5</ele><time>2026-04-05T15:49:14.999Z</time></trkpt><trkpt lat="45.90713651868679" lon="12.645710343173675"><ele>15.0</ele><time>2026-04-05T15:49:15.999Z</time></trkpt><trkpt lat="45.90687507167951" lon="12.645330844749271"><ele>15.5</ele><time>2026-04-05T15:49:16.999Z</time></trkpt><trkpt lat="45.906615170761434" lon="12.644953734715058"><ele>16.0</ele><time>2026-04-05T15:49:17.999Z</time></trkpt><trkpt lat="45.90634778428156" lon="12.644585836014931"><ele>16.0</ele><time>2026-04-05T15:49:18.999Z</time></trkpt><trkpt lat="45.90612407304663" lon="12.644219814125098"><ele>16.0</ele><time>2026-04-05T15:49:19.999Z</time></trkpt><trkpt lat="45.90590061660028" lon="12.643916538275146"><ele>16.5</ele><time>2026-04-05T15:49:20.999Z</time></trkpt><trkpt lat="45.905674025150205" lon="12.643597223727909"><ele>17.0</ele><time>2026-04-05T15:49:21.999Z</time></trkpt><trkpt lat="45.905446100668044" lon="12.643264882391081"><ele>17.0</ele><time>2026-04-05T15:49:22.999Z</time></trkpt><trkpt lat="45.905222297279515" lon="12.642939618972164"><ele>17.0</ele><time>2026-04-05T15:49:23.999Z</time></trkpt><trkpt lat="45.90503120169162" lon="12.642630674372985"><ele>16.5</ele><time>2026-04-05T15:49:24.999Z</time></trkpt><trkpt lat="45.90480708398756" lon="12.642337398385408"><ele>16.0</ele><time>2026-04-05T15:49:25.999Z</time></trkpt><trkpt lat="45.90464405363995" lon="12.642099892748815"><ele>15.5</ele><time>2026-04-05T15:49:26.999Z</time></trkpt><trkpt lat="45.904449912087365" lon="12.641810681119656"><ele>15.0</ele><time>2026-04-05T15:49:28Z</time></trkpt><trkpt lat="45.90428550761911" lon="12.641583387317096"><ele>15.0</ele><time>2026-04-05T15:49:29Z</time></trkpt><trkpt lat="45.90413679897339" lon="12.641362833839093"><ele>15.0</ele><time>2026-04-05T15:49:30Z</time></trkpt><trkpt lat="45.90400783980206" lon="12.641165427427556"><ele>15.0</ele><time>2026-04-05T15:49:31Z</time></trkpt><trkpt lat="45.903879137381075" lon="12.641100387551074"><ele>15.333333333333332</ele><time>2026-04-05T15:49:32Z</time></trkpt><trkpt lat="45.90372622270301" lon="12.640833238812979"><ele>15.666666666666666</ele><time>2026-04-05T15:49:33Z</time></trkpt><trkpt lat="45.903681223635225" lon="12.64070083580516"><ele>16.0</ele><time>2026-04-05T15:49:34Z</time></trkpt><trkpt lat="45.90358018175745" lon="12.640568574645412"><ele>16.0</ele><time>2026-04-05T15:49:35Z</time></trkpt><trkpt lat="45.90348111602075" lon="12.640421073212806"><ele>16.0</ele><time>2026-04-05T15:49:36Z</time></trkpt><trkpt lat="45.90337526289582" lon="12.640288171769384"><ele>16.0</ele><time>2026-04-05T15:49:37Z</time></trkpt><trkpt lat="45.903337306349236" lon="12.640188585689007"><ele>16.0</ele><time>2026-04-05T15:49:38Z</time></trkpt><trkpt lat="45.90326017467985" lon="12.640023410466505"><ele>15.857142857142856</ele><time>2026-04-05T15:49:39Z</time></trkpt><trkpt lat="45.903191881836975" lon="12.63997977927597"><ele>15.714285714285712</ele><time>2026-04-05T15:49:40Z</time></trkpt><trkpt lat="45.903148763202424" lon="12.639883687630068"><ele>15.571428571428571</ele><time>2026-04-05T15:49:42Z</time></trkpt><trkpt lat="45.90309999977714" lon="12.639805256940178"><ele>15.428571428571427</ele><time>2026-04-05T15:49:43Z</time></trkpt><trkpt lat="45.90303865881661" lon="12.639767172173327"><ele>15.285714285714285</ele><time>2026-04-05T15:51:03.999Z</time></trkpt><trkpt lat="45.90305870541403" lon="12.63967012536737"><ele>15.142857142857142</ele><time>2026-04-05T15:51:06.999Z</time></trkpt><trkpt lat="45.90305452419403" lon="12.63956270694135"><ele>15.0</ele><time>2026-04-05T15:51:08.999Z</time></trkpt><trkpt lat="45.90303861666864" lon="12.639470929111814"><ele>15.0</ele><time>2026-04-05T15:51:09.999Z</time></trkpt><trkpt lat="45.90304114584035" lon="12.639374156885621"><ele>15.0</ele><time>2026-04-05T15:51:10.999Z</time></trkpt><trkpt lat="45.90301703324562" lon="12.639212337410374"><ele>15.0</ele><time>2026-04-05T15:51:11.999Z</time></trkpt><trkpt lat="45.90302801088151" lon="12.639072944088042"><ele>15.0</ele><time>2026-04-05T15:51:12.999Z</time></trkpt><trkpt lat="45.903075283448715" lon="12.63869921742733"><ele>15.5</ele><time>2026-04-05T15:51:13.999Z</time></trkpt><trkpt lat="45.903111395815756" lon="12.638318399966945"><ele>16.0</ele><time>2026-04-05T15:51:14.999Z</time></trkpt><trkpt lat="45.90317182769123" lon="12.637982563678587"><ele>16.0</ele><time>2026-04-05T15:51:15.999Z</time></trkpt><trkpt lat="45.903212536075365" lon="12.637490367445103"><ele>16.0</ele><time>2026-04-05T15:51:16.999Z</time></trkpt><trkpt lat="45.90317744575404" lon="12.637019643057886"><ele>16.0</ele><time>2026-04-05T15:51:17.999Z</time></trkpt><trkpt lat="45.90313373883864" lon="12.636826269913625"><ele>16.0</ele><time>2026-04-05T15:51:18.999Z</time></trkpt><trkpt lat="45.90308367807799" lon="12.636646294810019"><ele>16.0</ele><time>2026-04-05T15:51:19.999Z</time></trkpt><trkpt lat="45.9029987286598" lon="12.636361085609293"><ele>16.0</ele><time>2026-04-05T15:51:20.999Z</time></trkpt><trkpt lat="45.90292417112654" lon="12.63611478154127"><ele>16.0</ele><time>2026-04-05T15:51:21.999Z</time></trkpt><trkpt lat="45.902818414235874" lon="12.635768422006901"><ele>16.0</ele><time>2026-04-05T15:51:22.999Z</time></trkpt><trkpt lat="45.90273434063623" lon="12.635494701755924"><ele>16.0</ele><time>2026-04-05T15:51:23.999Z</time></trkpt><trkpt lat="45.90262305907974" lon="12.635204349185244"><ele>16.0</ele><time>2026-04-05T15:51:24.999Z</time></trkpt><trkpt lat="45.90250029010887" lon="12.634905445065446"><ele>16.0</ele><time>2026-04-05T15:51:25.999Z</time></trkpt><trkpt lat="45.90230447717341" lon="12.634486394309176"><ele>16.0</ele><time>2026-04-05T15:51:26.999Z</time></trkpt><trkpt lat="45.902107392690276" lon="12.634076833052193"><ele>16.5</ele><time>2026-04-05T15:51:27.999Z</time></trkpt><trkpt lat="45.9019507570908" lon="12.63371738374501"><ele>17.0</ele><time>2026-04-05T15:51:28.999Z</time></trkpt><trkpt lat="45.9017897371764" lon="12.633436415253675"><ele>16.5</ele><time>2026-04-05T15:51:29.999Z</time></trkpt><trkpt lat="45.90164518205416" lon="12.633123605873749"><ele>16.0</ele><time>2026-04-05T15:51:30.999Z</time></trkpt><trkpt lat="45.90150563967848" lon="12.63280585355617"><ele>15.666666666666666</ele><time>2026-04-05T15:51:31.999Z</time></trkpt><trkpt lat="45.90138016171044" lon="12.632569598212383"><ele>15.333333333333332</ele><time>2026-04-05T15:51:32.999Z</time></trkpt><trkpt lat="45.90134285064963" lon="12.632443107143292"><ele>15.0</ele><time>2026-04-05T15:51:34Z</time></trkpt><trkpt lat="45.90126418747266" lon="12.632122015725669"><ele>15.5</ele><time>2026-04-05T15:51:35Z</time></trkpt><trkpt lat="45.90131239663269" lon="12.63177164966581"><ele>16.0</ele><time>2026-04-05T15:51:36Z</time></trkpt><trkpt lat="45.901254522708996" lon="12.631343767017169"><ele>15.0</ele><time>2026-04-05T15:51:37Z</time></trkpt><trkpt lat="45.9011389817116" lon="12.6306532584368"><ele>15.0</ele><time>2026-04-05T15:51:38Z</time></trkpt><trkpt lat="45.90108528649878" lon="12.630354585804037"><ele>15.0</ele><time>2026-04-05T15:51:39Z</time></trkpt><trkpt lat="45.90101022161716" lon="12.63001415054564"><ele>14.666666666666668</ele><time>2026-04-05T15:51:40Z</time></trkpt><trkpt lat="45.9009484132715" lon="12.629700071870552"><ele>14.333333333333334</ele><time>2026-04-05T15:51:41Z</time></trkpt><trkpt lat="45.90095141668142" lon="12.62945610105453"><ele>14.0</ele><time>2026-04-05T15:51:42Z</time></trkpt><trkpt lat="45.90096452341345" lon="12.629232562392726"><ele>14.0</ele><time>2026-04-05T15:51:43Z</time></trkpt><trkpt lat="45.90097278938295" lon="12.629005766816299"><ele>14.0</ele><time>2026-04-05T15:51:44Z</time></trkpt><trkpt lat="45.90097999405675" lon="12.628804727794464"><ele>14.0</ele><time>2026-04-05T15:51:45Z</time></trkpt><trkpt lat="45.90099758709644" lon="12.628313811040107"><ele>13.5</ele><time>2026-04-05T15:51:46Z</time></trkpt><trkpt lat="45.9010129318087" lon="12.627865041266706"><ele>13.0</ele><time>2026-04-05T15:51:47Z</time></trkpt><trkpt lat="45.90102233979028" lon="12.627547735262267"><ele>13.0</ele><time>2026-04-05T15:51:48Z</time></trkpt><trkpt lat="45.90101939791651" lon="12.627255814754934"><ele>13.0</ele><time>2026-04-05T15:51:49Z</time></trkpt><trkpt lat="45.900974447156855" lon="12.626790227283088"><ele>12.666666666666666</ele><time>2026-04-05T15:51:50Z</time></trkpt><trkpt lat="45.90094818602472" lon="12.626649833640023"><ele>12.333333333333332</ele><time>2026-04-05T15:51:51Z</time></trkpt><trkpt lat="45.900861460754236" lon="12.626313379916345"><ele>12.0</ele><time>2026-04-05T15:51:52Z</time></trkpt><trkpt lat="45.90074536715505" lon="12.625985111901722"><ele>12.333333333333332</ele><time>2026-04-05T15:51:53Z</time></trkpt><trkpt lat="45.900623532055434" lon="12.625718638636855"><ele>12.666666666666666</ele><time>2026-04-05T15:51:54Z</time></trkpt><trkpt lat="45.9005090973244" lon="12.625485841915435"><ele>13.0</ele><time>2026-04-05T15:51:55Z</time></trkpt><trkpt lat="45.90040631684332" lon="12.625239064874112"><ele>13.0</ele><time>2026-04-05T15:51:56Z</time></trkpt><trkpt lat="45.90028239902774" lon="12.62505297509405"><ele>13.0</ele><time>2026-04-05T15:51:57Z</time></trkpt><trkpt lat="45.90021862486644" lon="12.624813290336848"><ele>13.0</ele><time>2026-04-05T15:51:58Z</time></trkpt><trkpt lat="45.90015221366934" lon="12.624516451997989"><ele>13.666666666666666</ele><time>2026-04-05T15:51:59Z</time></trkpt><trkpt lat="45.90007369074383" lon="12.62430921443345"><ele>14.333333333333332</ele><time>2026-04-05T15:52:00Z</time></trkpt><trkpt lat="45.90003223128063" lon="12.62411873243848"><ele>15.0</ele><time>2026-04-05T15:52:01Z</time></trkpt><trkpt lat="45.89991586107526" lon="12.623719096186807"><ele>14.0</ele><time>2026-04-05T15:52:02Z</time></trkpt><trkpt lat="45.899884711002514" lon="12.623309860148405"><ele>13.0</ele><time>2026-04-05T15:52:03Z</time></trkpt><trkpt lat="45.89986256439803" lon="12.622960108420822"><ele>13.333333333333332</ele><time>2026-04-05T15:52:04Z</time></trkpt><trkpt lat="45.899850274217414" lon="12.622765978032914"><ele>13.666666666666668</ele><time>2026-04-05T15:52:05Z</time></trkpt><trkpt lat="45.89983560355562" lon="12.622534245016396"><ele>14.0</ele><time>2026-04-05T15:52:06Z</time></trkpt><trkpt lat="45.8998139363889" lon="12.622177492595963"><ele>14.333333333333334</ele><time>2026-04-05T15:52:07Z</time></trkpt><trkpt lat="45.899797184091284" lon="12.621904309504691"><ele>14.666666666666668</ele><time>2026-04-05T15:52:09Z</time></trkpt><trkpt lat="45.89978307286961" lon="12.621674957857499"><ele>15.0</ele><time>2026-04-05T15:52:10Z</time></trkpt><trkpt lat="45.899770813102016" lon="12.621482227241417"><ele>14.0</ele><time>2026-04-05T15:52:11Z</time></trkpt><trkpt lat="45.899755614194014" lon="12.621143703479525"><ele>13.0</ele><time>2026-04-05T15:52:12Z</time></trkpt><trkpt lat="45.89974904114673" lon="12.620545154018002"><ele>11.0</ele><time>2026-04-05T15:52:13Z</time></trkpt><trkpt lat="45.89974796314602" lon="12.619338888775541"><ele>11.0</ele><time>2026-04-05T15:52:14Z</time></trkpt><trkpt lat="45.89973428720623" lon="12.619121632148662"><ele>11.0</ele><time>2026-04-05T15:52:15Z</time></trkpt><trkpt lat="45.89976988758551" lon="12.618778177816907"><ele>11.0</ele><time>2026-04-05T15:52:16Z</time></trkpt><trkpt lat="45.899771935915254" lon="12.618449511165348"><ele>12.0</ele><time>2026-04-05T15:52:17Z</time></trkpt><trkpt lat="45.899740109094935" lon="12.618100549484954"><ele>13.0</ele><time>2026-04-05T15:52:18Z</time></trkpt><trkpt lat="45.89974806526507" lon="12.617761432348722"><ele>13.0</ele><time>2026-04-05T15:52:19Z</time></trkpt><trkpt lat="45.8997476835358" lon="12.61742558941185"><ele>13.0</ele><time>2026-04-05T15:52:20Z</time></trkpt><trkpt lat="45.89974729912832" lon="12.617085301357976"><ele>12.5</ele><time>2026-04-05T15:52:21Z</time></trkpt><trkpt lat="45.899745805115465" lon="12.61674630787488"><ele>12.0</ele><time>2026-04-05T15:52:22Z</time></trkpt><trkpt lat="45.8997435721202" lon="12.616409838366632"><ele>12.0</ele><time>2026-04-05T15:52:23Z</time></trkpt><trkpt lat="45.899740635825836" lon="12.6160824728566"><ele>12.0</ele><time>2026-04-05T15:52:24Z</time></trkpt><trkpt lat="45.899736104795934" lon="12.615794915242978"><ele>12.0</ele><time>2026-04-05T15:52:25Z</time></trkpt><trkpt lat="45.89972713271978" lon="12.615484756933165"><ele>12.5</ele><time>2026-04-05T15:52:26Z</time></trkpt><trkpt lat="45.899711357792846" lon="12.615145350651025"><ele>13.0</ele><time>2026-04-05T15:52:27Z</time></trkpt><trkpt lat="45.89969221835923" lon="12.614832583624242"><ele>13.0</ele><time>2026-04-05T15:52:28Z</time></trkpt><trkpt lat="45.899670418885734" lon="12.61449930420148"><ele>13.0</ele><time>2026-04-05T15:52:29Z</time></trkpt><trkpt lat="45.8996499490057" lon="12.614191306596656"><ele>13.0</ele><time>2026-04-05T15:52:30Z</time></trkpt><trkpt lat="45.89963457280612" lon="12.613929226489704"><ele>12.25</ele><time>2026-04-05T15:52:31Z</time></trkpt><trkpt lat="45.899623308196446" lon="12.613730173937254"><ele>11.5</ele><time>2026-04-05T15:52:32Z</time></trkpt><trkpt lat="45.899615555565276" lon="12.613495193686951"><ele>10.75</ele><time>2026-04-05T15:52:33Z</time></trkpt><trkpt lat="45.89962755687393" lon="12.613336988508468"><ele>10.0</ele><time>2026-04-05T15:52:34Z</time></trkpt><trkpt lat="45.8996487405582" lon="12.613154221364763"><ele>10.0</ele><time>2026-04-05T15:52:35Z</time></trkpt><trkpt lat="45.89967882443031" lon="12.613021057438917"><ele>10.0</ele><time>2026-04-05T15:52:36Z</time></trkpt><trkpt lat="45.89973652472911" lon="12.612849437490004"><ele>10.0</ele><time>2026-04-05T15:52:37Z</time></trkpt><trkpt lat="45.89980977012398" lon="12.612688971008001"><ele>10.0</ele><time>2026-04-05T15:52:38Z</time></trkpt><trkpt lat="45.89986947280986" lon="12.612545712518026"><ele>10.666666666666668</ele><time>2026-04-05T15:52:39Z</time></trkpt><trkpt lat="45.899949909685276" lon="12.612435002716516"><ele>11.333333333333334</ele><time>2026-04-05T15:52:40Z</time></trkpt><trkpt lat="45.90010093356132" lon="12.61216231897551"><ele>12.0</ele><time>2026-04-05T15:52:41Z</time></trkpt><trkpt lat="45.90019588878826" lon="12.612038705410054"><ele>12.666666666666668</ele><time>2026-04-05T15:52:42Z</time></trkpt><trkpt lat="45.90026843041071" lon="12.611981425319275"><ele>13.333333333333334</ele><time>2026-04-05T15:52:43Z</time></trkpt><trkpt lat="45.90032030604441" lon="12.611622063060247"><ele>14.0</ele><time>2026-04-05T15:52:44Z</time></trkpt><trkpt lat="45.900400593918626" lon="12.611832702168599"><ele>14.0</ele><time>2026-04-05T15:52:46Z</time></trkpt><trkpt lat="45.90053554098581" lon="12.611916761461526"><ele>14.0</ele><time>2026-04-05T15:52:48Z</time></trkpt><trkpt lat="45.9006547912807" lon="12.611878712276205"><ele>14.0</ele><time>2026-04-05T15:52:49Z</time></trkpt><trkpt lat="45.90086045764078" lon="12.611770355352997"><ele>14.000000000000002</ele><time>2026-04-05T15:52:51Z</time></trkpt><trkpt lat="45.900919677457075" lon="12.611712000339274"><ele>14.0</ele><time>2026-04-05T15:52:52Z</time></trkpt><trkpt lat="45.90097582684497" lon="12.611639450550589"><ele>14.0</ele><time>2026-04-05T15:52:53Z</time></trkpt><trkpt lat="45.90102543012912" lon="12.611477784524949"><ele>14.0</ele><time>2026-04-05T15:52:54Z</time></trkpt><trkpt lat="45.90107911623694" lon="12.611394468298684"><ele>14.000000000000002</ele><time>2026-04-05T15:52:55Z</time></trkpt><trkpt lat="45.901132718514035" lon="12.611311319728687"><ele>14.0</ele><time>2026-04-05T15:52:56Z</time></trkpt><trkpt lat="45.90083712128351" lon="12.611472261049743"><ele>14.0</ele><time>2026-04-05T15:52:57Z</time></trkpt><trkpt lat="45.90078105744268" lon="12.61142587902543"><ele>14.0</ele><time>2026-04-05T15:53:01Z</time></trkpt><trkpt lat="45.90060506561579" lon="12.611315895931009"><ele>14.0</ele><time>2026-04-05T15:53:02Z</time></trkpt><trkpt lat="45.90036405050679" lon="12.611029320789157"><ele>14.0</ele><time>2026-04-05T15:53:03Z</time></trkpt><trkpt lat="45.9002871702157" lon="12.610915485787995"><ele>14.0</ele><time>2026-04-05T15:53:04.014Z</time></trkpt><trkpt lat="45.900063263295124" lon="12.61054155417961"><ele>14.333333333333334</ele><time>2026-04-05T15:53:07.999Z</time></trkpt><trkpt lat="45.90001356703709" lon="12.610452618501212"><ele>14.666666666666668</ele><time>2026-04-05T15:53:08.999Z</time></trkpt><trkpt lat="45.90017872799822" lon="12.610081088204577"><ele>15.0</ele><time>2026-04-05T15:53:09.999Z</time></trkpt><trkpt lat="45.89888132161335" lon="12.608928790287456"><ele>13.5</ele><time>2026-04-05T15:53:10.999Z</time></trkpt><trkpt lat="45.89906726221395" lon="12.60857926269801"><ele>12.0</ele><time>2026-04-05T15:53:11.999Z</time></trkpt><trkpt lat="45.89911200230737" lon="12.608151076846783"><ele>13.0</ele><time>2026-04-05T15:53:12.999Z</time></trkpt><trkpt lat="45.899012371245824" lon="12.607728764676828"><ele>14.0</ele><time>2026-04-05T15:53:13.999Z</time></trkpt><trkpt lat="45.89895016122074" lon="12.6073086836875"><ele>13.5</ele><time>2026-04-05T15:53:14.999Z</time></trkpt><trkpt lat="45.898893496309455" lon="12.60687930527999"><ele>13.0</ele><time>2026-04-05T15:53:15.999Z</time></trkpt><trkpt lat="45.899035822878965" lon="12.60651002255593"><ele>13.0</ele><time>2026-04-05T15:53:16.999Z</time></trkpt><trkpt lat="45.89915084474408" lon="12.606325130258435"><ele>13.0</ele><time>2026-04-05T15:53:17.999Z</time></trkpt><trkpt lat="45.899101351249655" lon="12.606036147288773"><ele>13.0</ele><time>2026-04-05T15:53:18.999Z</time></trkpt><trkpt lat="45.899098046167836" lon="12.605689917735202"><ele>12.5</ele><time>2026-04-05T15:53:19.999Z</time></trkpt><trkpt lat="45.89899515333972" lon="12.605398192851007"><ele>12.0</ele><time>2026-04-05T15:53:20.999Z</time></trkpt><trkpt lat="45.89887976749815" lon="12.605044334015536"><ele>12.0</ele><time>2026-04-05T15:53:21.999Z</time></trkpt><trkpt lat="45.898825177804724" lon="12.604653413627291"><ele>12.0</ele><time>2026-04-05T15:53:22.999Z</time></trkpt><trkpt lat="45.898686400501894" lon="12.604331108104272"><ele>11.5</ele><time>2026-04-05T15:53:23.999Z</time></trkpt><trkpt lat="45.898499128711556" lon="12.604075179313929"><ele>11.0</ele><time>2026-04-05T15:53:24.999Z</time></trkpt><trkpt lat="45.89838245089655" lon="12.603737401622704"><ele>11.5</ele><time>2026-04-05T15:53:25.999Z</time></trkpt><trkpt lat="45.89824770115961" lon="12.603397353774385"><ele>12.0</ele><time>2026-04-05T15:53:26.999Z</time></trkpt><trkpt lat="45.89812673173325" lon="12.603069859835585"><ele>12.5</ele><time>2026-04-05T15:53:27.999Z</time></trkpt><trkpt lat="45.897975109954196" lon="12.602757389128053"><ele>13.0</ele><time>2026-04-05T15:53:29.013Z</time></trkpt><trkpt lat="45.897822212991215" lon="12.602444413075316"><ele>13.0</ele><time>2026-04-05T15:53:30.014Z</time></trkpt><trkpt lat="45.89767613150399" lon="12.602148209003078"><ele>13.0</ele><time>2026-04-05T15:53:31.013Z</time></trkpt><trkpt lat="45.89751430777332" lon="12.601876033735628"><ele>12.666666666666666</ele><time>2026-04-05T15:53:32.013Z</time></trkpt><trkpt lat="45.89742881087649" lon="12.601604492686539"><ele>12.333333333333332</ele><time>2026-04-05T15:53:33.011Z</time></trkpt><trkpt lat="45.89734647088233" lon="12.601412487208478"><ele>12.0</ele><time>2026-04-05T15:53:34.015Z</time></trkpt><trkpt lat="45.897582848599086" lon="12.600541105505638"><ele>12.0</ele><time>2026-04-05T15:53:36.999Z</time></trkpt><trkpt lat="45.89748046745162" lon="12.600249797864743"><ele>12.0</ele><time>2026-04-05T15:53:37.999Z</time></trkpt><trkpt lat="45.897374750110615" lon="12.599936463958514"><ele>12.0</ele><time>2026-04-05T15:53:38.999Z</time></trkpt><trkpt lat="45.89729939489095" lon="12.599629136904927"><ele>12.0</ele><time>2026-04-05T15:53:39.999Z</time></trkpt><trkpt lat="45.89719994357906" lon="12.599336525105777"><ele>13.0</ele><time>2026-04-05T15:53:40.999Z</time></trkpt><trkpt lat="45.897591565778384" lon="12.599893352028541"><ele>12.666666666666666</ele><time>2026-04-05T15:53:41.999Z</time></trkpt><trkpt lat="45.897549325056254" lon="12.599697539879214"><ele>12.333333333333332</ele><time>2026-04-05T15:53:45Z</time></trkpt><trkpt lat="45.89733116847963" lon="12.599770281126254"><ele>12.0</ele><time>2026-04-05T15:53:46Z</time></trkpt><trkpt lat="45.897234590439524" lon="12.599781645029019"><ele>12.0</ele><time>2026-04-05T15:53:48Z</time></trkpt><trkpt lat="45.8971623727876" lon="12.599768627300366"><ele>12.0</ele><time>2026-04-05T15:53:49Z</time></trkpt><trkpt lat="45.89708019262024" lon="12.599725355053788"><ele>12.0</ele><time>2026-04-05T15:53:50Z</time></trkpt><trkpt lat="45.8970116609183" lon="12.599646446712082"><ele>12.0</ele><time>2026-04-05T15:53:51Z</time></trkpt><trkpt lat="45.89697994604699" lon="12.599529233309621"><ele>12.0</ele><time>2026-04-05T15:53:52Z</time></trkpt><trkpt lat="45.89693476726774" lon="12.599408869004877"><ele>12.0</ele><time>2026-04-05T15:53:53Z</time></trkpt><trkpt lat="45.89690208882714" lon="12.599300932295609"><ele>12.5</ele><time>2026-04-05T15:53:54Z</time></trkpt><trkpt lat="45.89688963043688" lon="12.59920417410876"><ele>13.0</ele><time>2026-04-05T15:53:55Z</time></trkpt><trkpt lat="45.89639892876894" lon="12.599197297222956"><ele>13.0</ele><time>2026-04-05T15:53:57Z</time></trkpt><trkpt lat="45.89630277375863" lon="12.599275730644505"><ele>13.0</ele><time>2026-04-05T15:53:58Z</time></trkpt><trkpt lat="45.89614186269325" lon="12.599387103270294"><ele>13.0</ele><time>2026-04-05T15:54:00Z</time></trkpt><trkpt lat="45.89627850955164" lon="12.599714526462922"><ele>13.0</ele><time>2026-04-05T15:54:02Z</time></trkpt><trkpt lat="45.8963610847098" lon="12.599769183275775"><ele>13.0</ele><time>2026-04-05T15:54:03Z</time></trkpt><trkpt lat="45.89645802765461" lon="12.59977610002141"><ele>13.0</ele><time>2026-04-05T15:54:04Z</time></trkpt><trkpt lat="45.8965244999467" lon="12.599712626255045"><ele>13.0</ele><time>2026-04-05T15:54:06Z</time></trkpt><trkpt lat="45.89641037538344" lon="12.599247299182318"><ele>13.0</ele><time>2026-04-05T15:54:11Z</time></trkpt><trkpt lat="45.89636340590064" lon="12.599139062689972"><ele>13.0</ele><time>2026-04-05T15:54:13.019Z</time></trkpt><trkpt lat="45.89634120314026" lon="12.599052096152187"><ele>13.0</ele><time>2026-04-05T15:54:14.018Z</time></trkpt><trkpt lat="45.896294533717715" lon="12.598917072199834"><ele>13.0</ele><time>2026-04-05T15:54:16.019Z</time></trkpt><trkpt lat="45.89627828995398" lon="12.598750761011743"><ele>13.0</ele><time>2026-04-05T15:54:17.018Z</time></trkpt><trkpt lat="45.89620588720688" lon="12.598603532060622"><ele>14.0</ele><time>2026-04-05T15:54:19.017Z</time></trkpt><trkpt lat="45.89619171178174" lon="12.59833537184472"><ele>15.0</ele><time>2026-04-05T15:54:22Z</time></trkpt><trkpt lat="45.89602529316104" lon="12.597562175163548"><ele>13.0</ele><time>2026-04-05T15:54:23Z</time></trkpt><trkpt lat="45.89579793839377" lon="12.596809922493463"><ele>13.0</ele><time>2026-04-05T15:54:24Z</time></trkpt><trkpt lat="45.89574177063386" lon="12.596602590556703"><ele>13.0</ele><time>2026-04-05T15:54:25Z</time></trkpt><trkpt lat="45.89530809338323" lon="12.596778019724614"><ele>14.0</ele><time>2026-04-05T15:54:26Z</time></trkpt><trkpt lat="45.8956676427689" lon="12.59606219966253"><ele>14.0</ele><time>2026-04-05T15:54:27Z</time></trkpt><trkpt lat="45.89561333390499" lon="12.595847037242883"><ele>14.0</ele><time>2026-04-05T15:54:28Z</time></trkpt><trkpt lat="45.89547157911169" lon="12.595222162108369"><ele>14.5</ele><time>2026-04-05T15:54:29Z</time></trkpt><trkpt lat="45.89541251804102" lon="12.594991529336458"><ele>15.0</ele><time>2026-04-05T15:54:30Z</time></trkpt><trkpt lat="45.89417067051991" lon="12.594461474842497"><ele>15.5</ele><time>2026-04-05T15:54:32Z</time></trkpt><trkpt lat="45.893984422896494" lon="12.594201687401233"><ele>16.0</ele><time>2026-04-05T15:54:33Z</time></trkpt><trkpt lat="45.893838518202685" lon="12.593919160767173"><ele>16.0</ele><time>2026-04-05T15:54:34Z</time></trkpt><trkpt lat="45.893714831999056" lon="12.593633685756606"><ele>16.0</ele><time>2026-04-05T15:54:35Z</time></trkpt><trkpt lat="45.89354416302752" lon="12.593284410183463"><ele>16.0</ele><time>2026-04-05T15:54:36Z</time></trkpt><trkpt lat="45.89337544779109" lon="12.592970139752005"><ele>16.0</ele><time>2026-04-05T15:54:37Z</time></trkpt><trkpt lat="45.89327063363966" lon="12.592789508138583"><ele>16.0</ele><time>2026-04-05T15:54:38Z</time></trkpt><trkpt lat="45.89317824115207" lon="12.592566993997721"><ele>16.0</ele><time>2026-04-05T15:54:39Z</time></trkpt><trkpt lat="45.89307382701035" lon="12.592355859553155"><ele>16.0</ele><time>2026-04-05T15:54:40Z</time></trkpt><trkpt lat="45.89298761292461" lon="12.5921790176045"><ele>16.0</ele><time>2026-04-05T15:54:41Z</time></trkpt><trkpt lat="45.89290810061035" lon="12.59200436342175"><ele>16.0</ele><time>2026-04-05T15:54:42Z</time></trkpt><trkpt lat="45.892803310197046" lon="12.591803694893859"><ele>16.0</ele><time>2026-04-05T15:54:43Z</time></trkpt><trkpt lat="45.892690026669385" lon="12.591581495998334"><ele>16.0</ele><time>2026-04-05T15:54:44Z</time></trkpt><trkpt lat="45.89258455666461" lon="12.591383224813114"><ele>15.666666666666666</ele><time>2026-04-05T15:54:45Z</time></trkpt><trkpt lat="45.89247576568353" lon="12.591165286546534"><ele>15.333333333333332</ele><time>2026-04-05T15:54:46Z</time></trkpt><trkpt lat="45.89236368142724" lon="12.590947201910405"><ele>15.0</ele><time>2026-04-05T15:54:47Z</time></trkpt><trkpt lat="45.89226948094552" lon="12.590753216181445"><ele>15.0</ele><time>2026-04-05T15:54:48Z</time></trkpt><trkpt lat="45.89217691025122" lon="12.590571549581643"><ele>15.0</ele><time>2026-04-05T15:54:49Z</time></trkpt><trkpt lat="45.89209366073412" lon="12.59040145678425"><ele>15.0</ele><time>2026-04-05T15:54:50Z</time></trkpt><trkpt lat="45.89201553154466" lon="12.59024437911246"><ele>15.0</ele><time>2026-04-05T15:54:51Z</time></trkpt><trkpt lat="45.89194568761896" lon="12.590075024467607"><ele>15.0</ele><time>2026-04-05T15:54:52Z</time></trkpt><trkpt lat="45.89188588387833" lon="12.589913749562118"><ele>15.0</ele><time>2026-04-05T15:54:53Z</time></trkpt><trkpt lat="45.89185213394295" lon="12.589756904095738"><ele>15.0</ele><time>2026-04-05T15:54:54Z</time></trkpt><trkpt lat="45.891813413117994" lon="12.589634081260177"><ele>15.0</ele><time>2026-04-05T15:54:55Z</time></trkpt><trkpt lat="45.8917412398324" lon="12.589496196762756"><ele>15.25</ele><time>2026-04-05T15:54:56Z</time></trkpt><trkpt lat="45.89165921352862" lon="12.58940569110822"><ele>15.5</ele><time>2026-04-05T15:54:57Z</time></trkpt><trkpt lat="45.89157874618818" lon="12.589303205223711"><ele>15.75</ele><time>2026-04-05T15:54:58Z</time></trkpt><trkpt lat="45.891505291421126" lon="12.589159794692664"><ele>16.0</ele><time>2026-04-05T15:54:59Z</time></trkpt><trkpt lat="45.89142563733635" lon="12.588989417201306"><ele>16.0</ele><time>2026-04-05T15:55:00Z</time></trkpt><trkpt lat="45.89133341179351" lon="12.588802380419937"><ele>16.0</ele><time>2026-04-05T15:55:01Z</time></trkpt><trkpt lat="45.89123440121234" lon="12.588613795704402"><ele>16.0</ele><time>2026-04-05T15:55:02Z</time></trkpt><trkpt lat="45.89113203963561" lon="12.588416780847183"><ele>16.0</ele><time>2026-04-05T15:55:03Z</time></trkpt><trkpt lat="45.89101922263024" lon="12.588194633503932"><ele>16.0</ele><time>2026-04-05T15:55:04Z</time></trkpt><trkpt lat="45.89090201339694" lon="12.587971451379305"><ele>16.0</ele><time>2026-04-05T15:55:05Z</time></trkpt><trkpt lat="45.89078385819017" lon="12.58773995701525"><ele>15.666666666666666</ele><time>2026-04-05T15:55:06Z</time></trkpt><trkpt lat="45.890659017528485" lon="12.5874967430709"><ele>15.333333333333332</ele><time>2026-04-05T15:55:07Z</time></trkpt><trkpt lat="45.89053545073335" lon="12.587252200755573"><ele>15.0</ele><time>2026-04-05T15:55:08Z</time></trkpt><trkpt lat="45.89040436331679" lon="12.586982115313802"><ele>14.333333333333332</ele><time>2026-04-05T15:55:09Z</time></trkpt><trkpt lat="45.890276708333275" lon="12.586721610685018"><ele>13.666666666666666</ele><time>2026-04-05T15:55:10Z</time></trkpt><trkpt lat="45.89014537034711" lon="12.586458269505762"><ele>13.0</ele><time>2026-04-05T15:55:11Z</time></trkpt><trkpt lat="45.89000851562475" lon="12.58618357321533"><ele>14.5</ele><time>2026-04-05T15:55:12Z</time></trkpt><trkpt lat="45.8898668097049" lon="12.58590389388688"><ele>16.0</ele><time>2026-04-05T15:55:13Z</time></trkpt><trkpt lat="45.88973496820872" lon="12.585645238557852"><ele>16.0</ele><time>2026-04-05T15:55:14Z</time></trkpt><trkpt lat="45.88960854152883" lon="12.585397756972037"><ele>16.0</ele><time>2026-04-05T15:55:15Z</time></trkpt><trkpt lat="45.88948681195583" lon="12.585165077795258"><ele>16.0</ele><time>2026-04-05T15:55:16Z</time></trkpt><trkpt lat="45.88937844367901" lon="12.584942285450994"><ele>16.0</ele><time>2026-04-05T15:55:17Z</time></trkpt><trkpt lat="45.88927715677588" lon="12.584738618543154"><ele>16.0</ele><time>2026-04-05T15:55:18Z</time></trkpt><trkpt lat="45.88918342284465" lon="12.584534706006773"><ele>16.0</ele><time>2026-04-05T15:55:19Z</time></trkpt><trkpt lat="45.88909535775075" lon="12.584350610481161"><ele>16.0</ele><time>2026-04-05T15:55:19.999Z</time></trkpt><trkpt lat="45.88900834824316" lon="12.584175152044747"><ele>16.0</ele><time>2026-04-05T15:55:20.999Z</time></trkpt><trkpt lat="45.888927666869606" lon="12.584009169362146"><ele>16.0</ele><time>2026-04-05T15:55:21.999Z</time></trkpt><trkpt lat="45.88885910065518" lon="12.583862184714468"><ele>16.0</ele><time>2026-04-05T15:55:22.999Z</time></trkpt><trkpt lat="45.888794512906834" lon="12.583712579737817"><ele>15.600000000000001</ele><time>2026-04-05T15:55:23.999Z</time></trkpt><trkpt lat="45.888746179022554" lon="12.583573564601293"><ele>15.200000000000001</ele><time>2026-04-05T15:55:24.999Z</time></trkpt><trkpt lat="45.88871971187417" lon="12.583428470849277"><ele>14.799999999999999</ele><time>2026-04-05T15:55:25.999Z</time></trkpt><trkpt lat="45.88871412275682" lon="12.583279328679025"><ele>14.399999999999999</ele><time>2026-04-05T15:55:26.999Z</time></trkpt><trkpt lat="45.88871137168519" lon="12.583138801728063"><ele>14.0</ele><time>2026-04-05T15:55:27.999Z</time></trkpt><trkpt lat="45.888687526515575" lon="12.583029372787395"><ele>14.0</ele><time>2026-04-05T15:55:28.999Z</time></trkpt><trkpt lat="45.888632519445345" lon="12.582940438259376"><ele>13.999999999999998</ele><time>2026-04-05T15:55:29.999Z</time></trkpt><trkpt lat="45.88855240129261" lon="12.582881237465683"><ele>13.999999999999998</ele><time>2026-04-05T15:55:30.999Z</time></trkpt><trkpt lat="45.88846276714843" lon="12.582848002502732"><ele>14.0</ele><time>2026-04-05T15:55:31.999Z</time></trkpt><trkpt lat="45.88835967879795" lon="12.58283903356814"><ele>14.0</ele><time>2026-04-05T15:55:32.999Z</time></trkpt><trkpt lat="45.888267053876774" lon="12.58273591230892"><ele>14.25</ele><time>2026-04-05T15:55:33.999Z</time></trkpt><trkpt lat="45.88816802642869" lon="12.582599238801407"><ele>14.5</ele><time>2026-04-05T15:55:34.999Z</time></trkpt><trkpt lat="45.888044626571265" lon="12.582528172349905"><ele>14.75</ele><time>2026-04-05T15:55:35.999Z</time></trkpt><trkpt lat="45.88797116626344" lon="12.58229826646366"><ele>15.0</ele><time>2026-04-05T15:55:36.999Z</time></trkpt><trkpt lat="45.88787501553143" lon="12.582130341879962"><ele>15.666666666666668</ele><time>2026-04-05T15:55:37.999Z</time></trkpt><trkpt lat="45.887765772380774" lon="12.581959773976951"><ele>16.333333333333336</ele><time>2026-04-05T15:55:38.999Z</time></trkpt><trkpt lat="45.88764747660892" lon="12.581797835254093"><ele>17.0</ele><time>2026-04-05T15:55:39.999Z</time></trkpt><trkpt lat="45.887537412667655" lon="12.581646353093657"><ele>17.0</ele><time>2026-04-05T15:55:40.999Z</time></trkpt><trkpt lat="45.887468172887395" lon="12.581569401078669"><ele>17.0</ele><time>2026-04-05T15:55:41.999Z</time></trkpt><trkpt lat="45.887416901211544" lon="12.58148552815574"><ele>17.0</ele><time>2026-04-05T15:55:42.999Z</time></trkpt><trkpt lat="45.8873454305426" lon="12.581346644711406"><ele>17.0</ele><time>2026-04-05T15:55:44.999Z</time></trkpt><trkpt lat="45.88730277523141" lon="12.581274475054334"><ele>17.0</ele><time>2026-04-05T15:55:45.999Z</time></trkpt><trkpt lat="45.887242177040235" lon="12.581164499026828"><ele>17.0</ele><time>2026-04-05T15:55:47.999Z</time></trkpt><trkpt lat="45.887189581405075" lon="12.581086512842187"><ele>16.833333333333336</ele><time>2026-04-05T15:59:59.999Z</time></trkpt><trkpt lat="45.88712313766608" lon="12.581012037704209"><ele>16.666666666666668</ele><time>2026-04-05T16:00:02Z</time></trkpt><trkpt lat="45.88703667444203" lon="12.580920634976387"><ele>16.5</ele><time>2026-04-05T16:00:04Z</time></trkpt><trkpt lat="45.886988342100274" lon="12.580843787980815"><ele>16.333333333333332</ele><time>2026-04-05T16:00:05Z</time></trkpt><trkpt lat="45.8869410521455" lon="12.580764450201903"><ele>16.166666666666664</ele><time>2026-04-05T16:00:06Z</time></trkpt><trkpt lat="45.88687448684429" lon="12.580670817490775"><ele>16.0</ele><time>2026-04-05T16:00:07Z</time></trkpt><trkpt lat="45.88680272927713" lon="12.580564514697032"><ele>16.0</ele><time>2026-04-05T16:00:08Z</time></trkpt><trkpt lat="45.88672497975258" lon="12.58044728360478"><ele>16.0</ele><time>2026-04-05T16:00:09Z</time></trkpt><trkpt lat="45.88664456126355" lon="12.580329858481827"><ele>16.0</ele><time>2026-04-05T16:00:10Z</time></trkpt><trkpt lat="45.88656132402652" lon="12.580201062116172"><ele>16.0</ele><time>2026-04-05T16:00:11Z</time></trkpt><trkpt lat="45.88646980048884" lon="12.580052489095749"><ele>16.0</ele><time>2026-04-05T16:00:12Z</time></trkpt><trkpt lat="45.886377828721315" lon="12.5799085450654"><ele>16.0</ele><time>2026-04-05T16:00:13Z</time></trkpt><trkpt lat="45.88628537281903" lon="12.579749559172557"><ele>16.0</ele><time>2026-04-05T16:00:14Z</time></trkpt><trkpt lat="45.88618884789374" lon="12.579591748732877"><ele>16.0</ele><time>2026-04-05T16:00:15Z</time></trkpt><trkpt lat="45.88609930893394" lon="12.579420181479703"><ele>16.0</ele><time>2026-04-05T16:00:16Z</time></trkpt><trkpt lat="45.88601301657648" lon="12.579247815956153"><ele>16.0</ele><time>2026-04-05T16:00:17Z</time></trkpt><trkpt lat="45.88591957753791" lon="12.579071629643925"><ele>16.0</ele><time>2026-04-05T16:00:18Z</time></trkpt><trkpt lat="45.88584529105038" lon="12.578881970795553"><ele>15.666666666666666</ele><time>2026-04-05T16:00:19Z</time></trkpt><trkpt lat="45.885744194755084" lon="12.578677886937474"><ele>15.333333333333332</ele><time>2026-04-05T16:00:20Z</time></trkpt><trkpt lat="45.88560946758767" lon="12.578425895291243"><ele>15.0</ele><time>2026-04-05T16:00:21Z</time></trkpt><trkpt lat="45.885365532423364" lon="12.578213496440565"><ele>15.0</ele><time>2026-04-05T16:00:22Z</time></trkpt><trkpt lat="45.88526058027271" lon="12.57802654258571"><ele>15.0</ele><time>2026-04-05T16:00:23Z</time></trkpt><trkpt lat="45.885147429093244" lon="12.577822298812457"><ele>15.0</ele><time>2026-04-05T16:00:24Z</time></trkpt><trkpt lat="45.884927230033966" lon="12.577388108147163"><ele>15.0</ele><time>2026-04-05T16:00:26Z</time></trkpt><trkpt lat="45.88471286187781" lon="12.577121509723183"><ele>15.0</ele><time>2026-04-05T16:00:27Z</time></trkpt><trkpt lat="45.88456511181382" lon="12.57687795577543"><ele>14.666666666666668</ele><time>2026-04-05T16:00:28Z</time></trkpt><trkpt lat="45.88444774583378" lon="12.576646948878174"><ele>14.333333333333334</ele><time>2026-04-05T16:00:29Z</time></trkpt><trkpt lat="45.88435794881845" lon="12.576477452292202"><ele>14.0</ele><time>2026-04-05T16:00:30Z</time></trkpt><trkpt lat="45.88427125972486" lon="12.576313821521122"><ele>14.0</ele><time>2026-04-05T16:00:31Z</time></trkpt><trkpt lat="45.88414388559433" lon="12.576073392529583"><ele>14.0</ele><time>2026-04-05T16:00:32Z</time></trkpt><trkpt lat="45.88414355414422" lon="12.575927136639933"><ele>14.0</ele><time>2026-04-05T16:00:34Z</time></trkpt><trkpt lat="45.88406733129962" lon="12.575791491945248"><ele>14.0</ele><time>2026-04-05T16:00:35Z</time></trkpt><trkpt lat="45.88396304506391" lon="12.57558203507441"><ele>14.0</ele><time>2026-04-05T16:00:36Z</time></trkpt><trkpt lat="45.883867310737365" lon="12.575398240781391"><ele>14.0</ele><time>2026-04-05T16:00:37Z</time></trkpt><trkpt lat="45.88379963937539" lon="12.575292430308432"><ele>14.0</ele><time>2026-04-05T16:00:38Z</time></trkpt><trkpt lat="45.8837325022628" lon="12.575097788869558"><ele>14.0</ele><time>2026-04-05T16:00:39Z</time></trkpt><trkpt lat="45.88386374276275" lon="12.575057199556657"><ele>14.0</ele><time>2026-04-05T16:00:40Z</time></trkpt><trkpt lat="45.883782717624314" lon="12.574899183986155"><ele>14.0</ele><time>2026-04-05T16:00:41Z</time></trkpt><trkpt lat="45.883622989524014" lon="12.574622486644765"><ele>14.0</ele><time>2026-04-05T16:00:42Z</time></trkpt><trkpt lat="45.88355718927259" lon="12.574477216729653"><ele>13.6</ele><time>2026-04-05T16:00:43Z</time></trkpt><trkpt lat="45.88345269217597" lon="12.57443585637169"><ele>13.2</ele><time>2026-04-05T16:00:44Z</time></trkpt><trkpt lat="45.88334129170772" lon="12.574422147596216"><ele>12.799999999999999</ele><time>2026-04-05T16:00:45Z</time></trkpt><trkpt lat="45.88327119425553" lon="12.57435165648753"><ele>12.399999999999999</ele><time>2026-04-05T16:00:46Z</time></trkpt><trkpt lat="45.88320157063951" lon="12.574267119800455"><ele>12.0</ele><time>2026-04-05T16:00:47Z</time></trkpt><trkpt lat="45.883110637000236" lon="12.574261248593931"><ele>12.0</ele><time>2026-04-05T16:00:49Z</time></trkpt><trkpt lat="45.883189982452784" lon="12.574306171332841"><ele>12.0</ele><time>2026-04-05T16:00:51Z</time></trkpt><trkpt lat="45.88319335039088" lon="12.574646402681402"><ele>12.0</ele><time>2026-04-05T16:00:57Z</time></trkpt><trkpt lat="45.88333788584886" lon="12.575213314870394"><ele>14.0</ele><time>2026-04-05T16:00:58Z</time></trkpt><trkpt lat="45.883877233291024" lon="12.575376306664063"><ele>14.0</ele><time>2026-04-05T16:01:00Z</time></trkpt><trkpt lat="45.88390621927275" lon="12.575509482082012"><ele>13.999999999999998</ele><time>2026-04-05T16:01:01Z</time></trkpt><trkpt lat="45.883982568297625" lon="12.57566213564662"><ele>13.999999999999998</ele><time>2026-04-05T16:01:02Z</time></trkpt><trkpt lat="45.883967729899034" lon="12.57582100214011"><ele>14.0</ele><time>2026-04-05T16:01:03Z</time></trkpt><trkpt lat="45.88403434495199" lon="12.575945691800872"><ele>14.0</ele><time>2026-04-05T16:01:04Z</time></trkpt><trkpt lat="45.88414239465766" lon="12.576149474476273"><ele>14.0</ele><time>2026-04-05T16:01:05Z</time></trkpt><trkpt lat="45.88419209927481" lon="12.576243215119463"><ele>14.0</ele><time>2026-04-05T16:01:06Z</time></trkpt><trkpt lat="45.8842434755752" lon="12.576340245990144"><ele>14.0</ele><time>2026-04-05T16:01:07Z</time></trkpt><trkpt lat="45.88429484778872" lon="12.57643721398097"><ele>14.0</ele><time>2026-04-05T16:01:08Z</time></trkpt><trkpt lat="45.88445029930883" lon="12.57613625164573"><ele>15.0</ele><time>2026-04-05T16:01:09Z</time></trkpt><trkpt lat="45.884655906905394" lon="12.575667460199945"><ele>16.0</ele><time>2026-04-05T16:01:11Z</time></trkpt><trkpt lat="45.884753748469166" lon="12.575540274951116"><ele>13.0</ele><time>2026-04-05T16:01:12Z</time></trkpt><trkpt lat="45.88526798241389" lon="12.575277729441453"><ele>13.0</ele><time>2026-04-05T16:01:12.999Z</time></trkpt><trkpt lat="45.88542707481885" lon="12.575122305808785"><ele>13.0</ele><time>2026-04-05T16:01:13.999Z</time></trkpt><trkpt lat="45.88550535441165" lon="12.57494818564024"><ele>13.0</ele><time>2026-04-05T16:01:14.999Z</time></trkpt><trkpt lat="45.885606237097306" lon="12.574855669568574"><ele>13.0</ele><time>2026-04-05T16:01:15.999Z</time></trkpt><trkpt lat="45.885657031602825" lon="12.57458631839805"><ele>13.0</ele><time>2026-04-05T16:01:16.999Z</time></trkpt><trkpt lat="45.8859826117007" lon="12.574102741131084"><ele>12.0</ele><time>2026-04-05T16:01:17.999Z</time></trkpt><trkpt lat="45.886297698780595" lon="12.573687632639206"><ele>11.0</ele><time>2026-04-05T16:01:18.999Z</time></trkpt><trkpt lat="45.88648063203944" lon="12.573441721212362"><ele>11.0</ele><time>2026-04-05T16:01:19.999Z</time></trkpt><trkpt lat="45.88662346380169" lon="12.573276588252906"><ele>11.0</ele><time>2026-04-05T16:01:20.999Z</time></trkpt><trkpt lat="45.88676191987888" lon="12.573109740818177"><ele>11.0</ele><time>2026-04-05T16:01:21.999Z</time></trkpt><trkpt lat="45.88689922461102" lon="12.572923861346299"><ele>11.0</ele><time>2026-04-05T16:01:22.999Z</time></trkpt><trkpt lat="45.8870471886269" lon="12.57273963534688"><ele>11.0</ele><time>2026-04-05T16:01:23.999Z</time></trkpt><trkpt lat="45.88719758891094" lon="12.572552244378823"><ele>11.0</ele><time>2026-04-05T16:01:24.999Z</time></trkpt><trkpt lat="45.887353495571425" lon="12.57235447055423"><ele>11.0</ele><time>2026-04-05T16:01:25.999Z</time></trkpt><trkpt lat="45.88750929767319" lon="12.572159775896528"><ele>11.0</ele><time>2026-04-05T16:01:26.999Z</time></trkpt><trkpt lat="45.887661768111066" lon="12.571971148189727"><ele>11.0</ele><time>2026-04-05T16:01:27.999Z</time></trkpt><trkpt lat="45.88788015139383" lon="12.571905302050183"><ele>11.0</ele><time>2026-04-05T16:01:28.999Z</time></trkpt><trkpt lat="45.88803043653927" lon="12.571735294246832"><ele>11.0</ele><time>2026-04-05T16:01:29.999Z</time></trkpt><trkpt lat="45.888167438633104" lon="12.571558530402982"><ele>11.0</ele><time>2026-04-05T16:01:30.999Z</time></trkpt><trkpt lat="45.88827150288365" lon="12.571347054270891"><ele>11.333333333333332</ele><time>2026-04-05T16:01:31.999Z</time></trkpt><trkpt lat="45.88838259131395" lon="12.571125369841651"><ele>11.666666666666666</ele><time>2026-04-05T16:01:32.999Z</time></trkpt><trkpt lat="45.88848001527652" lon="12.570900363660911"><ele>12.0</ele><time>2026-04-05T16:01:33.999Z</time></trkpt><trkpt lat="45.88844128429238" lon="12.570459952634918"><ele>12.0</ele><time>2026-04-05T16:01:34.999Z</time></trkpt><trkpt lat="45.888561035193355" lon="12.570369653074755"><ele>12.0</ele><time>2026-04-05T16:01:35.999Z</time></trkpt><trkpt lat="45.888692481839804" lon="12.57023928241987"><ele>12.0</ele><time>2026-04-05T16:01:36.999Z</time></trkpt><trkpt lat="45.88841486538696" lon="12.569777045513813"><ele>12.333333333333332</ele><time>2026-04-05T16:01:37.999Z</time></trkpt><trkpt lat="45.88835765706925" lon="12.569885248824407"><ele>12.666666666666666</ele><time>2026-04-05T16:01:38.999Z</time></trkpt><trkpt lat="45.88830006463643" lon="12.569695650604194"><ele>13.0</ele><time>2026-04-05T16:01:41.999Z</time></trkpt><trkpt lat="45.88891082274973" lon="12.56941911370631"><ele>13.0</ele><time>2026-04-05T16:01:43.999Z</time></trkpt><trkpt lat="45.88914459264709" lon="12.569283484405029"><ele>13.0</ele><time>2026-04-05T16:01:44.999Z</time></trkpt><trkpt lat="45.88951053039683" lon="12.569257388834682"><ele>13.0</ele><time>2026-04-05T16:01:46.999Z</time></trkpt><trkpt lat="45.88956108686254" lon="12.56937838864895"><ele>13.0</ele><time>2026-04-05T16:01:47.999Z</time></trkpt><trkpt lat="45.88969014757726" lon="12.569553929354923"><ele>13.0</ele><time>2026-04-05T16:01:48.999Z</time></trkpt><trkpt lat="45.8889111810045" lon="12.57053170372253"><ele>13.0</ele><time>2026-04-05T16:01:49.999Z</time></trkpt><trkpt lat="45.888820623356516" lon="12.570477221884223"><ele>13.0</ele><time>2026-04-05T16:01:55.999Z</time></trkpt><trkpt lat="45.88880237077836" lon="12.570360421549632"><ele>13.0</ele><time>2026-04-05T16:01:56.999Z</time></trkpt><trkpt lat="45.888815205485095" lon="12.570190391463353"><ele>13.0</ele><time>2026-04-05T16:01:57.999Z</time></trkpt><trkpt lat="45.8887926343976" lon="12.570032459538629"><ele>13.0</ele><time>2026-04-05T16:01:58.999Z</time></trkpt><trkpt lat="45.88838612033941" lon="12.569810697781625"><ele>13.0</ele><time>2026-04-05T16:01:59.999Z</time></trkpt><trkpt lat="45.88831237770038" lon="12.569625995321914"><ele>13.0</ele><time>2026-04-05T16:02:00.999Z</time></trkpt><trkpt lat="45.8882174742574" lon="12.569430741571182"><ele>13.0</ele><time>2026-04-05T16:02:01.999Z</time></trkpt><trkpt lat="45.888196335824254" lon="12.569185024740865"><ele>13.0</ele><time>2026-04-05T16:02:03.016Z</time></trkpt><trkpt lat="45.88819092748347" lon="12.56891846238492"><ele>13.0</ele><time>2026-04-05T16:02:04.016Z</time></trkpt><trkpt lat="45.888187075613075" lon="12.568646145593046"><ele>13.0</ele><time>2026-04-05T16:02:05.016Z</time></trkpt><trkpt lat="45.88797818852658" lon="12.56834286258512"><ele>12.5</ele><time>2026-04-05T16:02:06.017Z</time></trkpt><trkpt lat="45.888200665071324" lon="12.568084308972338"><ele>12.0</ele><time>2026-04-05T16:02:07.012Z</time></trkpt><trkpt lat="45.888240739752284" lon="12.56783591904202"><ele>12.0</ele><time>2026-04-05T16:02:08.017Z</time></trkpt><trkpt lat="45.88829999435549" lon="12.567576061827094"><ele>12.0</ele><time>2026-04-05T16:02:09.018Z</time></trkpt><trkpt lat="45.88840129686802" lon="12.56732137423056"><ele>12.0</ele><time>2026-04-05T16:02:10.017Z</time></trkpt><trkpt lat="45.88850464155829" lon="12.567086116923491"><ele>10.0</ele><time>2026-04-05T16:02:11.018Z</time></trkpt><trkpt lat="45.8873003907929" lon="12.565921163198134"><ele>10.0</ele><time>2026-04-05T16:02:14.999Z</time></trkpt><trkpt lat="45.887273936915996" lon="12.565614038557142"><ele>10.0</ele><time>2026-04-05T16:02:15.999Z</time></trkpt><trkpt lat="45.887247953033736" lon="12.565307093611255"><ele>10.0</ele><time>2026-04-05T16:02:16.999Z</time></trkpt><trkpt lat="45.887221865439365" lon="12.565000571906795"><ele>10.333333333333334</ele><time>2026-04-05T16:02:17.999Z</time></trkpt><trkpt lat="45.88719560257138" lon="12.564693558823011"><ele>10.666666666666666</ele><time>2026-04-05T16:02:19Z</time></trkpt><trkpt lat="45.88716941641883" lon="12.564387604013561"><ele>11.0</ele><time>2026-04-05T16:02:20Z</time></trkpt><trkpt lat="45.88825531733517" lon="12.563492745455658"><ele>11.5</ele><time>2026-04-05T16:02:21Z</time></trkpt><trkpt lat="45.888162700794666" lon="12.563123393708189"><ele>12.0</ele><time>2026-04-05T16:02:22Z</time></trkpt><trkpt lat="45.888132425125455" lon="12.562775805713725"><ele>12.333333333333332</ele><time>2026-04-05T16:02:23Z</time></trkpt><trkpt lat="45.88810634600311" lon="12.562460088442386"><ele>12.666666666666666</ele><time>2026-04-05T16:02:24Z</time></trkpt><trkpt lat="45.88807919710321" lon="12.562170701652333"><ele>13.0</ele><time>2026-04-05T16:02:25Z</time></trkpt><trkpt lat="45.88804269677888" lon="12.561920023048753"><ele>13.2</ele><time>2026-04-05T16:02:26Z</time></trkpt><trkpt lat="45.8880127503073" lon="12.561702105219728"><ele>13.4</ele><time>2026-04-05T16:02:27Z</time></trkpt><trkpt lat="45.88795748803976" lon="12.561584166564467"><ele>13.599999999999998</ele><time>2026-04-05T16:02:28Z</time></trkpt><trkpt lat="45.88792119933308" lon="12.561436795708968"><ele>13.799999999999999</ele><time>2026-04-05T16:02:29Z</time></trkpt><trkpt lat="45.887931331476565" lon="12.56131378111397"><ele>14.0</ele><time>2026-04-05T16:02:30Z</time></trkpt><trkpt lat="45.88793698880912" lon="12.561165749736789"><ele>16.0</ele><time>2026-04-05T16:02:31Z</time></trkpt><trkpt lat="45.88716133235295" lon="12.560277051332399"><ele>16.0</ele><time>2026-04-05T16:02:32Z</time></trkpt><trkpt lat="45.88745416871637" lon="12.55996826844629"><ele>16.0</ele><time>2026-04-05T16:02:33Z</time></trkpt><trkpt lat="45.887428501953906" lon="12.559701038134437"><ele>15.5</ele><time>2026-04-05T16:02:41Z</time></trkpt><trkpt lat="45.88738759839316" lon="12.559502123870276"><ele>15.0</ele><time>2026-04-05T16:02:42Z</time></trkpt><trkpt lat="45.88733388167179" lon="12.559297834766697"><ele>14.5</ele><time>2026-04-05T16:02:43Z</time></trkpt><trkpt lat="45.88730685920498" lon="12.55913081859989"><ele>14.0</ele><time>2026-04-05T16:02:44Z</time></trkpt><trkpt lat="45.887257821606994" lon="12.55873529002718"><ele>12.0</ele><time>2026-04-05T16:02:45Z</time></trkpt><trkpt lat="45.88729270987831" lon="12.557906756422504"><ele>13.0</ele><time>2026-04-05T16:02:46Z</time></trkpt><trkpt lat="45.88733863914022" lon="12.55751623734722"><ele>14.0</ele><time>2026-04-05T16:02:47Z</time></trkpt><trkpt lat="45.88738556026391" lon="12.557194262478866"><ele>12.0</ele><time>2026-04-05T16:02:48Z</time></trkpt><trkpt lat="45.887568754384375" lon="12.556108641386329"><ele>12.0</ele><time>2026-04-05T16:02:49Z</time></trkpt><trkpt lat="45.8876830404691" lon="12.555723728994128"><ele>12.0</ele><time>2026-04-05T16:02:50Z</time></trkpt><trkpt lat="45.8878334170532" lon="12.555384277586096"><ele>11.666666666666666</ele><time>2026-04-05T16:02:51Z</time></trkpt><trkpt lat="45.88780944707103" lon="12.555134069976054"><ele>11.333333333333332</ele><time>2026-04-05T16:02:52Z</time></trkpt><trkpt lat="45.88771411858774" lon="12.554799582173766"><ele>11.0</ele><time>2026-04-05T16:02:53Z</time></trkpt><trkpt lat="45.88772853986948" lon="12.554554791145323"><ele>11.0</ele><time>2026-04-05T16:02:54Z</time></trkpt><trkpt lat="45.88771805692202" lon="12.554732731823686"><ele>11.0</ele><time>2026-04-05T16:02:56Z</time></trkpt><trkpt lat="45.88731861743307" lon="12.556694830850732"><ele>11.200000000000001</ele><time>2026-04-05T16:02:57Z</time></trkpt><trkpt lat="45.887363146902445" lon="12.556564240677217"><ele>11.4</ele><time>2026-04-05T16:02:58Z</time></trkpt><trkpt lat="45.887408403445434" lon="12.556431523708937"><ele>11.6</ele><time>2026-04-05T16:02:59Z</time></trkpt><trkpt lat="45.88745394684891" lon="12.556297962006116"><ele>11.8</ele><time>2026-04-05T16:03:00Z</time></trkpt><trkpt lat="45.88749971372662" lon="12.556163738341551"><ele>12.0</ele><time>2026-04-05T16:03:01Z</time></trkpt><trkpt lat="45.88707767241685" lon="12.555702301167342"><ele>10.0</ele><time>2026-04-05T16:03:02Z</time></trkpt><trkpt lat="45.887833546835004" lon="12.553902336704837"><ele>14.0</ele><time>2026-04-05T16:03:03.019Z</time></trkpt><trkpt lat="45.88887053080452" lon="12.549163643282418"><ele>14.0</ele><time>2026-04-05T16:03:13Z</time></trkpt><trkpt lat="45.888969103467076" lon="12.548753329665805"><ele>14.0</ele><time>2026-04-05T16:03:14Z</time></trkpt><trkpt lat="45.88937530293999" lon="12.54841973682858"><ele>14.0</ele><time>2026-04-05T16:03:15Z</time></trkpt><trkpt lat="45.8895441114769" lon="12.54788931765245"><ele>14.0</ele><time>2026-04-05T16:03:16Z</time></trkpt><trkpt lat="45.88968383144618" lon="12.547519659395128"><ele>14.5</ele><time>2026-04-05T16:03:17Z</time></trkpt><trkpt lat="45.88985165619101" lon="12.54705808580046"><ele>15.0</ele><time>2026-04-05T16:03:18Z</time></trkpt><trkpt lat="45.889990733493825" lon="12.546577297983864"><ele>15.0</ele><time>2026-04-05T16:03:19Z</time></trkpt><trkpt lat="45.88997569726524" lon="12.546158831084758"><ele>15.0</ele><time>2026-04-05T16:03:20Z</time></trkpt><trkpt lat="45.88999649621965" lon="12.545279434757294"><ele>15.0</ele><time>2026-04-05T16:03:22Z</time></trkpt><trkpt lat="45.890078112104895" lon="12.544857651680443"><ele>15.0</ele><time>2026-04-05T16:03:23Z</time></trkpt><trkpt lat="45.89019492388363" lon="12.544634119051642"><ele>16.0</ele><time>2026-04-05T16:03:24Z</time></trkpt><trkpt lat="45.890898406548324" lon="12.543010907259344"><ele>15.5</ele><time>2026-04-05T16:03:31Z</time></trkpt><trkpt lat="45.89103110585442" lon="12.542693856012185"><ele>15.0</ele><time>2026-04-05T16:03:31.999Z</time></trkpt><trkpt lat="45.89109709571855" lon="12.542307017660004"><ele>15.0</ele><time>2026-04-05T16:03:32.999Z</time></trkpt><trkpt lat="45.89078863644331" lon="12.542421695709509"><ele>15.0</ele><time>2026-04-05T16:03:33.999Z</time></trkpt><trkpt lat="45.8911547121229" lon="12.542338736136022"><ele>15.0</ele><time>2026-04-05T16:03:34.999Z</time></trkpt><trkpt lat="45.89123428276695" lon="12.542075538496903"><ele>15.0</ele><time>2026-04-05T16:03:36.013Z</time></trkpt><trkpt lat="45.89131069203507" lon="12.54182279787512"><ele>15.0</ele><time>2026-04-05T16:03:37.013Z</time></trkpt><trkpt lat="45.89116170082448" lon="12.541359450866006"><ele>13.5</ele><time>2026-04-05T16:03:38.017Z</time></trkpt><trkpt lat="45.8912475473419" lon="12.541063727458328"><ele>12.0</ele><time>2026-04-05T16:03:39.015Z</time></trkpt><trkpt lat="45.89135263087694" lon="12.540740972704729"><ele>12.0</ele><time>2026-04-05T16:03:40.014Z</time></trkpt><trkpt lat="45.89144283201874" lon="12.540416308926954"><ele>12.0</ele><time>2026-04-05T16:03:41.015Z</time></trkpt><trkpt lat="45.89123990447482" lon="12.539980518791769"><ele>12.0</ele><time>2026-04-05T16:03:42.015Z</time></trkpt><trkpt lat="45.89130114504422" lon="12.539652891996313"><ele>12.0</ele><time>2026-04-05T16:03:43.017Z</time></trkpt><trkpt lat="45.891503700742945" lon="12.53855916930497"><ele>12.5</ele><time>2026-04-05T16:03:46.999Z</time></trkpt><trkpt lat="45.89156638480469" lon="12.537963612916547"><ele>13.0</ele><time>2026-04-05T16:03:47.999Z</time></trkpt><trkpt lat="45.891630760618575" lon="12.53763170727104"><ele>13.0</ele><time>2026-04-05T16:03:48.999Z</time></trkpt><trkpt lat="45.89170586481296" lon="12.537319699545494"><ele>13.0</ele><time>2026-04-05T16:03:49.999Z</time></trkpt><trkpt lat="45.89176777651252" lon="12.536958419153889"><ele>13.0</ele><time>2026-04-05T16:03:50.999Z</time></trkpt><trkpt lat="45.89184023605623" lon="12.536601356710142"><ele>13.0</ele><time>2026-04-05T16:03:51.999Z</time></trkpt><trkpt lat="45.89192661179295" lon="12.536236833805516"><ele>13.0</ele><time>2026-04-05T16:03:52.999Z</time></trkpt><trkpt lat="45.89200184827008" lon="12.535884546959949"><ele>13.0</ele><time>2026-04-05T16:03:53.999Z</time></trkpt><trkpt lat="45.892068795829445" lon="12.535500767971493"><ele>13.0</ele><time>2026-04-05T16:03:54.999Z</time></trkpt><trkpt lat="45.89213521530091" lon="12.535147440522946"><ele>13.0</ele><time>2026-04-05T16:03:55.999Z</time></trkpt><trkpt lat="45.89220674589118" lon="12.534767186995417"><ele>13.0</ele><time>2026-04-05T16:03:56.999Z</time></trkpt><trkpt lat="45.892277976848014" lon="12.534389512552147"><ele>13.0</ele><time>2026-04-05T16:03:57.999Z</time></trkpt><trkpt lat="45.892348443262335" lon="12.534015604149786"><ele>14.0</ele><time>2026-04-05T16:03:58.999Z</time></trkpt><trkpt lat="45.89242226384241" lon="12.53361315432557"><ele>15.0</ele><time>2026-04-05T16:03:59.999Z</time></trkpt><trkpt lat="45.89249519826808" lon="12.533213864660267"><ele>14.5</ele><time>2026-04-05T16:04:00.999Z</time></trkpt><trkpt lat="45.89256312691308" lon="12.532842379229267"><ele>14.0</ele><time>2026-04-05T16:04:01.999Z</time></trkpt><trkpt lat="45.892627990156676" lon="12.53248640695532"><ele>14.0</ele><time>2026-04-05T16:04:02.999Z</time></trkpt><trkpt lat="45.89269454324096" lon="12.532120930208908"><ele>14.0</ele><time>2026-04-05T16:04:03.999Z</time></trkpt><trkpt lat="45.89289675581004" lon="12.530894617696415"><ele>14.0</ele><time>2026-04-05T16:04:06.999Z</time></trkpt><trkpt lat="45.893055713029305" lon="12.530149096702504"><ele>14.0</ele><time>2026-04-05T16:04:07.999Z</time></trkpt><trkpt lat="45.89311078360551" lon="12.529651749004353"><ele>14.0</ele><time>2026-04-05T16:04:08.999Z</time></trkpt><trkpt lat="45.893189273596604" lon="12.529244428119426"><ele>13.333333333333334</ele><time>2026-04-05T16:04:09.999Z</time></trkpt><trkpt lat="45.89326961920325" lon="12.528788963671936"><ele>12.666666666666668</ele><time>2026-04-05T16:04:10.999Z</time></trkpt><trkpt lat="45.893334986099504" lon="12.528667365840668"><ele>12.0</ele><time>2026-04-05T16:04:11.999Z</time></trkpt><trkpt lat="45.893406258967296" lon="12.528268072753486"><ele>11.0</ele><time>2026-04-05T16:04:12.999Z</time></trkpt><trkpt lat="45.89348010899857" lon="12.52787914124432"><ele>10.0</ele><time>2026-04-05T16:04:13.999Z</time></trkpt><trkpt lat="45.8935920009154" lon="12.527289862125016"><ele>10.5</ele><time>2026-04-05T16:04:14.999Z</time></trkpt><trkpt lat="45.89369344949531" lon="12.526743834638454"><ele>11.0</ele><time>2026-04-05T16:04:15.999Z</time></trkpt><trkpt lat="45.89376606402467" lon="12.526349777997156"><ele>11.5</ele><time>2026-04-05T16:04:16.999Z</time></trkpt><trkpt lat="45.89382034755446" lon="12.526055198000044"><ele>12.0</ele><time>2026-04-05T16:04:17.999Z</time></trkpt><trkpt lat="45.8939261651345" lon="12.525247166214742"><ele>12.0</ele><time>2026-04-05T16:04:21.999Z</time></trkpt><trkpt lat="45.893976242457164" lon="12.52497504490694"><ele>12.0</ele><time>2026-04-05T16:04:22.999Z</time></trkpt><trkpt lat="45.894035555415286" lon="12.524650646030752"><ele>12.0</ele><time>2026-04-05T16:04:23.999Z</time></trkpt><trkpt lat="45.89409895671067" lon="12.524303338946062"><ele>12.0</ele><time>2026-04-05T16:04:25Z</time></trkpt><trkpt lat="45.89416007093918" lon="12.52396630567578"><ele>12.0</ele><time>2026-04-05T16:04:26Z</time></trkpt><trkpt lat="45.894222351816964" lon="12.523639869942876"><ele>11.5</ele><time>2026-04-05T16:04:27Z</time></trkpt><trkpt lat="45.894295032940725" lon="12.523300182044009"><ele>11.0</ele><time>2026-04-05T16:04:28Z</time></trkpt><trkpt lat="45.89437810836282" lon="12.522959820970152"><ele>12.0</ele><time>2026-04-05T16:04:29Z</time></trkpt><trkpt lat="45.89447460434322" lon="12.522614896816533"><ele>13.0</ele><time>2026-04-05T16:04:30Z</time></trkpt><trkpt lat="45.89457321361622" lon="12.52226608184378"><ele>13.0</ele><time>2026-04-05T16:04:31Z</time></trkpt><trkpt lat="45.89466369727786" lon="12.521941180960397"><ele>13.0</ele><time>2026-04-05T16:04:32Z</time></trkpt><trkpt lat="45.89474089115129" lon="12.521589397818078"><ele>13.0</ele><time>2026-04-05T16:04:33Z</time></trkpt><trkpt lat="45.894883503433014" lon="12.521289725326946"><ele>13.0</ele><time>2026-04-05T16:04:34Z</time></trkpt><trkpt lat="45.89503933883332" lon="12.521073837601731"><ele>11.5</ele><time>2026-04-05T16:04:35Z</time></trkpt><trkpt lat="45.895267364461986" lon="12.520817559165016"><ele>10.0</ele><time>2026-04-05T16:04:36Z</time></trkpt><trkpt lat="45.89543949139201" lon="12.520591427522907"><ele>10.333333333333334</ele><time>2026-04-05T16:04:37Z</time></trkpt><trkpt lat="45.895605923217026" lon="12.52036179397458"><ele>10.666666666666666</ele><time>2026-04-05T16:04:38Z</time></trkpt><trkpt lat="45.895739982842905" lon="12.520139352601658"><ele>11.0</ele><time>2026-04-05T16:04:39Z</time></trkpt><trkpt lat="45.89588137510471" lon="12.51994117804663"><ele>11.333333333333332</ele><time>2026-04-05T16:04:40Z</time></trkpt><trkpt lat="45.896015645992705" lon="12.51976702235745"><ele>11.666666666666666</ele><time>2026-04-05T16:04:41Z</time></trkpt><trkpt lat="45.89614291151285" lon="12.519615831033688"><ele>12.0</ele><time>2026-04-05T16:04:42Z</time></trkpt><trkpt lat="45.896282188246936" lon="12.519461853974487"><ele>11.5</ele><time>2026-04-05T16:04:43Z</time></trkpt><trkpt lat="45.896403634676616" lon="12.519323484678173"><ele>11.0</ele><time>2026-04-05T16:04:44Z</time></trkpt><trkpt lat="45.89650562835144" lon="12.519184655144084"><ele>10.5</ele><time>2026-04-05T16:04:45Z</time></trkpt><trkpt lat="45.896601067422885" lon="12.519053177097275"><ele>10.0</ele><time>2026-04-05T16:04:46Z</time></trkpt><trkpt lat="45.89670202345165" lon="12.518945475032835"><ele>10.333333333333334</ele><time>2026-04-05T16:04:47Z</time></trkpt><trkpt lat="45.89680690481235" lon="12.518879429708129"><ele>10.666666666666668</ele><time>2026-04-05T16:04:48Z</time></trkpt><trkpt lat="45.89690021913945" lon="12.518874656242515"><ele>11.0</ele><time>2026-04-05T16:04:49Z</time></trkpt><trkpt lat="45.896992315807815" lon="12.518874195136492"><ele>11.333333333333334</ele><time>2026-04-05T16:04:50Z</time></trkpt><trkpt lat="45.897041874574676" lon="12.518810749355133"><ele>11.666666666666666</ele><time>2026-04-05T16:04:51Z</time></trkpt><trkpt lat="45.89708306349579" lon="12.518712915895554"><ele>12.0</ele><time>2026-04-05T16:04:52Z</time></trkpt><trkpt lat="45.89706591755002" lon="12.518589715224431"><ele>12.0</ele><time>2026-04-05T16:04:53Z</time></trkpt><trkpt lat="45.8970625037203" lon="12.518467678210538"><ele>12.0</ele><time>2026-04-05T16:04:54Z</time></trkpt><trkpt lat="45.89707941254126" lon="12.518327096249976"><ele>12.0</ele><time>2026-04-05T16:04:55Z</time></trkpt><trkpt lat="45.89710329309084" lon="12.518207478269549"><ele>12.0</ele><time>2026-04-05T16:04:56Z</time></trkpt><trkpt lat="45.89713136254651" lon="12.518058546024365"><ele>12.0</ele><time>2026-04-05T16:04:57Z</time></trkpt><trkpt lat="45.89715744465509" lon="12.51793493265524"><ele>12.666666666666668</ele><time>2026-04-05T16:04:58Z</time></trkpt><trkpt lat="45.89719955619648" lon="12.51779937453313"><ele>13.333333333333334</ele><time>2026-04-05T16:04:59Z</time></trkpt><trkpt lat="45.897283145265526" lon="12.517617576309032"><ele>14.0</ele><time>2026-04-05T16:05:00Z</time></trkpt><trkpt lat="45.89750798087196" lon="12.5174832366312"><ele>13.5</ele><time>2026-04-05T16:05:01Z</time></trkpt><trkpt lat="45.89770925536281" lon="12.517324199375244"><ele>13.0</ele><time>2026-04-05T16:05:02Z</time></trkpt><trkpt lat="45.89792380352126" lon="12.517154870114947"><ele>13.0</ele><time>2026-04-05T16:05:03Z</time></trkpt><trkpt lat="45.89809330122497" lon="12.516963057431386"><ele>13.0</ele><time>2026-04-05T16:05:04Z</time></trkpt><trkpt lat="45.89825292830748" lon="12.516793985789835"><ele>13.0</ele><time>2026-04-05T16:05:05Z</time></trkpt><trkpt lat="45.89841218171337" lon="12.516604954786578"><ele>12.666666666666666</ele><time>2026-04-05T16:05:06Z</time></trkpt><trkpt lat="45.89857642735731" lon="12.516442543257035"><ele>12.333333333333332</ele><time>2026-04-05T16:05:07Z</time></trkpt><trkpt lat="45.898726643099344" lon="12.516254227431615"><ele>12.0</ele><time>2026-04-05T16:05:08Z</time></trkpt><trkpt lat="45.89886204094294" lon="12.516089856529353"><ele>11.666666666666666</ele><time>2026-04-05T16:05:09Z</time></trkpt><trkpt lat="45.89900882841071" lon="12.515934492697262"><ele>11.333333333333332</ele><time>2026-04-05T16:05:10Z</time></trkpt><trkpt lat="45.89916745415142" lon="12.515724182723602"><ele>11.0</ele><time>2026-04-05T16:05:11Z</time></trkpt><trkpt lat="45.8993229151555" lon="12.515488287532895"><ele>12.5</ele><time>2026-04-05T16:05:12Z</time></trkpt><trkpt lat="45.89951554519683" lon="12.515125312991437"><ele>14.0</ele><time>2026-04-05T16:05:13Z</time></trkpt><trkpt lat="45.899637388475874" lon="12.514901420017674"><ele>14.0</ele><time>2026-04-05T16:05:14Z</time></trkpt><trkpt lat="45.89975417471314" lon="12.514696501668396"><ele>14.0</ele><time>2026-04-05T16:05:15Z</time></trkpt><trkpt lat="45.8998910101806" lon="12.514492886661357"><ele>14.0</ele><time>2026-04-05T16:05:16Z</time></trkpt><trkpt lat="45.900033968773315" lon="12.514298905638586"><ele>14.0</ele><time>2026-04-05T16:05:17.016Z</time></trkpt><trkpt lat="45.90020882205811" lon="12.514154083342214"><ele>14.0</ele><time>2026-04-05T16:05:18.016Z</time></trkpt><trkpt lat="45.9003703750006" lon="12.513997823517522"><ele>14.0</ele><time>2026-04-05T16:05:19.013Z</time></trkpt><trkpt lat="45.90054768924608" lon="12.513861499951883"><ele>14.0</ele><time>2026-04-05T16:05:20.015Z</time></trkpt><trkpt lat="45.90072984277907" lon="12.513729076007746"><ele>14.0</ele><time>2026-04-05T16:05:21.017Z</time></trkpt><trkpt lat="45.900882887524496" lon="12.51358702530126"><ele>14.0</ele><time>2026-04-05T16:05:22.016Z</time></trkpt><trkpt lat="45.90107267823977" lon="12.513425412675844"><ele>14.0</ele><time>2026-04-05T16:05:23.015Z</time></trkpt><trkpt lat="45.90118272890772" lon="12.513249689818903"><ele>14.0</ele><time>2026-04-05T16:05:24.01Z</time></trkpt><trkpt lat="45.90165980630172" lon="12.513122968387336"><ele>14.0</ele><time>2026-04-05T16:05:26Z</time></trkpt><trkpt lat="45.90182208032614" lon="12.513002375142275"><ele>14.0</ele><time>2026-04-05T16:05:27Z</time></trkpt><trkpt lat="45.90198088893683" lon="12.51170028386092"><ele>16.0</ele><time>2026-04-05T16:05:30Z</time></trkpt><trkpt lat="45.902430880185875" lon="12.511571827026742"><ele>15.666666666666666</ele><time>2026-04-05T16:05:31Z</time></trkpt><trkpt lat="45.90260439299882" lon="12.511369052339479"><ele>15.333333333333332</ele><time>2026-04-05T16:05:32Z</time></trkpt><trkpt lat="45.90276473956332" lon="12.51136404462666"><ele>15.0</ele><time>2026-04-05T16:05:33Z</time></trkpt><trkpt lat="45.90289483650416" lon="12.511070191481359"><ele>14.5</ele><time>2026-04-05T16:05:34Z</time></trkpt><trkpt lat="45.903163113920456" lon="12.51090784659104"><ele>14.0</ele><time>2026-04-05T16:05:35Z</time></trkpt><trkpt lat="45.90333921512033" lon="12.510742196885433"><ele>15.0</ele><time>2026-04-05T16:05:36Z</time></trkpt><trkpt lat="45.903379894424496" lon="12.511701477625445"><ele>17.0</ele><time>2026-04-05T16:05:37Z</time></trkpt><trkpt lat="45.90395917230257" lon="12.51182857866665"><ele>16.0</ele><time>2026-04-05T16:05:40Z</time></trkpt><trkpt lat="45.903965422691456" lon="12.512377027977857"><ele>15.0</ele><time>2026-04-05T16:05:41Z</time></trkpt><trkpt lat="45.904130585494016" lon="12.512427829234635"><ele>14.0</ele><time>2026-04-05T16:05:41.999Z</time></trkpt><trkpt lat="45.904326946591695" lon="12.512379916341219"><ele>13.0</ele><time>2026-04-05T16:05:42.999Z</time></trkpt><trkpt lat="45.904541037116424" lon="12.512006338150028"><ele>14.0</ele><time>2026-04-05T16:05:43.999Z</time></trkpt><trkpt lat="45.90465251316292" lon="12.511936532413353"><ele>15.0</ele><time>2026-04-05T16:05:44.999Z</time></trkpt><trkpt lat="45.904769456504745" lon="12.51187451479504"><ele>16.0</ele><time>2026-04-05T16:05:45.999Z</time></trkpt><trkpt lat="45.904888914284456" lon="12.511811163715736"><ele>17.0</ele><time>2026-04-05T16:05:46.999Z</time></trkpt><trkpt lat="45.90498399061875" lon="12.511747077748634"><ele>16.0</ele><time>2026-04-05T16:05:47.999Z</time></trkpt><trkpt lat="45.90516122947943" lon="12.511651450084496"><ele>15.0</ele><time>2026-04-05T16:05:48.999Z</time></trkpt><trkpt lat="45.90535345020289" lon="12.511547739375617"><ele>14.0</ele><time>2026-04-05T16:05:50.999Z</time></trkpt><trkpt lat="45.90545700337944" lon="12.511447106464663"><ele>14.0</ele><time>2026-04-05T16:05:52.999Z</time></trkpt><trkpt lat="45.90554640165016" lon="12.51137815910621"><ele>14.0</ele><time>2026-04-05T16:05:53.999Z</time></trkpt><trkpt lat="45.90593326388215" lon="12.511244469050544"><ele>12.0</ele><time>2026-04-05T16:05:54.999Z</time></trkpt><trkpt lat="45.90649196078256" lon="12.510468244650767"><ele>13.0</ele><time>2026-04-05T16:05:55.999Z</time></trkpt><trkpt lat="45.90660724846616" lon="12.510118452147701"><ele>14.0</ele><time>2026-04-05T16:05:56.999Z</time></trkpt><trkpt lat="45.90676723752962" lon="12.509886901890006"><ele>14.0</ele><time>2026-04-05T16:05:57.999Z</time></trkpt><trkpt lat="45.90692219554455" lon="12.509700668623374"><ele>14.0</ele><time>2026-04-05T16:05:58.999Z</time></trkpt><trkpt lat="45.907125823876946" lon="12.509499809909443"><ele>14.0</ele><time>2026-04-05T16:05:59.999Z</time></trkpt><trkpt lat="45.907269561629604" lon="12.509365041566646"><ele>14.0</ele><time>2026-04-05T16:06:00.999Z</time></trkpt><trkpt lat="45.90730787931041" lon="12.508968414120664"><ele>14.0</ele><time>2026-04-05T16:06:01.999Z</time></trkpt><trkpt lat="45.90758880755059" lon="12.50885907309577"><ele>14.333333333333334</ele><time>2026-04-05T16:06:04.999Z</time></trkpt><trkpt lat="45.907780097693" lon="12.508682404357309"><ele>14.666666666666668</ele><time>2026-04-05T16:06:05.999Z</time></trkpt><trkpt lat="45.90779257751844" lon="12.508485378354445"><ele>15.0</ele><time>2026-04-05T16:06:06.999Z</time></trkpt><trkpt lat="45.9078751021293" lon="12.50828054568096"><ele>15.0</ele><time>2026-04-05T16:06:07.999Z</time></trkpt><trkpt lat="45.9079425998026" lon="12.508201459361839"><ele>15.0</ele><time>2026-04-05T16:06:08.999Z</time></trkpt><trkpt lat="45.90804922895528" lon="12.508076523080168"><ele>15.0</ele><time>2026-04-05T16:06:09.999Z</time></trkpt><trkpt lat="45.9081617036588" lon="12.507944738030858"><ele>15.0</ele><time>2026-04-05T16:06:10.999Z</time></trkpt><trkpt lat="45.908327516227935" lon="12.50809914594569"><ele>15.5</ele><time>2026-04-05T16:06:11.999Z</time></trkpt><trkpt lat="45.908432451511636" lon="12.508102172275601"><ele>16.0</ele><time>2026-04-05T16:06:12.999Z</time></trkpt><trkpt lat="45.908532608140156" lon="12.508079756309906"><ele>16.5</ele><time>2026-04-05T16:06:14.999Z</time></trkpt><trkpt lat="45.90870844954186" lon="12.5080173974175"><ele>17.0</ele><time>2026-04-05T16:06:15.999Z</time></trkpt><trkpt lat="45.908851192460965" lon="12.507957986753196"><ele>16.75</ele><time>2026-04-05T16:06:16.999Z</time></trkpt><trkpt lat="45.90899989658062" lon="12.50789609702765"><ele>16.5</ele><time>2026-04-05T16:06:17.999Z</time></trkpt><trkpt lat="45.909092202145104" lon="12.507857678721711"><ele>16.25</ele><time>2026-04-05T16:06:18.999Z</time></trkpt><trkpt lat="45.90923201126373" lon="12.507799116081204"><ele>16.0</ele><time>2026-04-05T16:06:19.999Z</time></trkpt><trkpt lat="45.909382222125856" lon="12.507735909223685"><ele>16.0</ele><time>2026-04-05T16:06:20.999Z</time></trkpt><trkpt lat="45.90957080640254" lon="12.50765655530198"><ele>16.0</ele><time>2026-04-05T16:06:21.999Z</time></trkpt><trkpt lat="45.909735138355174" lon="12.507590002733654"><ele>16.0</ele><time>2026-04-05T16:06:22.999Z</time></trkpt><trkpt lat="45.91002722310116" lon="12.50747499191905"><ele>16.0</ele><time>2026-04-05T16:06:23.999Z</time></trkpt><trkpt lat="45.910125949061666" lon="12.50741265547677"><ele>16.0</ele><time>2026-04-05T16:06:24.999Z</time></trkpt><trkpt lat="45.91030688291339" lon="12.507249021202709"><ele>16.0</ele><time>2026-04-05T16:06:26.999Z</time></trkpt><trkpt lat="45.91040578889799" lon="12.507158281999182"><ele>16.0</ele><time>2026-04-05T16:06:27.999Z</time></trkpt><trkpt lat="45.91049571558588" lon="12.507046555202908"><ele>16.0</ele><time>2026-04-05T16:06:28.999Z</time></trkpt><trkpt lat="45.91057960281891" lon="12.50693057298774"><ele>16.0</ele><time>2026-04-05T16:06:29.999Z</time></trkpt><trkpt lat="45.9106521128554" lon="12.506819668262477"><ele>16.0</ele><time>2026-04-05T16:06:31Z</time></trkpt><trkpt lat="45.91072539231583" lon="12.506705636814914"><ele>16.0</ele><time>2026-04-05T16:06:32Z</time></trkpt><trkpt lat="45.91080353549684" lon="12.506586781172295"><ele>16.0</ele><time>2026-04-05T16:06:33Z</time></trkpt><trkpt lat="45.910870973060845" lon="12.50644746652784"><ele>15.8</ele><time>2026-04-05T16:06:34Z</time></trkpt><trkpt lat="45.91095068698192" lon="12.506337375173878"><ele>15.600000000000001</ele><time>2026-04-05T16:06:35Z</time></trkpt><trkpt lat="45.911010101589994" lon="12.506229188199514"><ele>15.4</ele><time>2026-04-05T16:06:36Z</time></trkpt><trkpt lat="45.91107138390514" lon="12.506134574313188"><ele>15.2</ele><time>2026-04-05T16:06:37Z</time></trkpt><trkpt lat="45.911150563140744" lon="12.506081630113206"><ele>15.0</ele><time>2026-04-05T16:06:38Z</time></trkpt><trkpt lat="45.91120089550436" lon="12.50600692878707"><ele>15.333333333333334</ele><time>2026-04-05T16:06:39Z</time></trkpt><trkpt lat="45.91124974938589" lon="12.505921944016661"><ele>15.666666666666668</ele><time>2026-04-05T16:06:40Z</time></trkpt><trkpt lat="45.911301299590484" lon="12.50585824312788"><ele>16.0</ele><time>2026-04-05T16:06:41Z</time></trkpt><trkpt lat="45.91137490563125" lon="12.50580636055318"><ele>16.333333333333336</ele><time>2026-04-05T16:06:42Z</time></trkpt><trkpt lat="45.91146239549298" lon="12.505772681730871"><ele>16.666666666666668</ele><time>2026-04-05T16:06:43Z</time></trkpt><trkpt lat="45.91155476135748" lon="12.505739579920169"><ele>17.0</ele><time>2026-04-05T16:06:44Z</time></trkpt><trkpt lat="45.91165703026085" lon="12.505724761997445"><ele>17.0</ele><time>2026-04-05T16:06:45Z</time></trkpt><trkpt lat="45.91177351328554" lon="12.505746152113888"><ele>17.0</ele><time>2026-04-05T16:06:46Z</time></trkpt><trkpt lat="45.91188561312207" lon="12.50581013985322"><ele>17.0</ele><time>2026-04-05T16:06:47Z</time></trkpt><trkpt lat="45.91199890855009" lon="12.5059122947125"><ele>17.0</ele><time>2026-04-05T16:06:48Z</time></trkpt><trkpt lat="45.912106979341075" lon="12.50603762779911"><ele>17.0</ele><time>2026-04-05T16:06:49Z</time></trkpt><trkpt lat="45.91222403815867" lon="12.506175425424722"><ele>17.0</ele><time>2026-04-05T16:06:50Z</time></trkpt><trkpt lat="45.91235626561772" lon="12.506296554656675"><ele>17.0</ele><time>2026-04-05T16:06:51Z</time></trkpt><trkpt lat="45.91248919492219" lon="12.506424105965342"><ele>16.666666666666668</ele><time>2026-04-05T16:06:52Z</time></trkpt><trkpt lat="45.91260795258433" lon="12.506557292253845"><ele>16.333333333333332</ele><time>2026-04-05T16:06:53Z</time></trkpt><trkpt lat="45.91274143553459" lon="12.506679229603984"><ele>16.0</ele><time>2026-04-05T16:06:54Z</time></trkpt><trkpt lat="45.91286966712203" lon="12.506815676437705"><ele>16.0</ele><time>2026-04-05T16:06:55Z</time></trkpt><trkpt lat="45.912998274745306" lon="12.5069345268948"><ele>16.0</ele><time>2026-04-05T16:06:56Z</time></trkpt><trkpt lat="45.91311388808049" lon="12.507059292700092"><ele>16.0</ele><time>2026-04-05T16:06:57Z</time></trkpt><trkpt lat="45.9132207495081" lon="12.507177010750883"><ele>16.0</ele><time>2026-04-05T16:06:58Z</time></trkpt><trkpt lat="45.913324982177286" lon="12.507261944557886"><ele>15.75</ele><time>2026-04-05T16:06:59Z</time></trkpt><trkpt lat="45.91344073179591" lon="12.507309089337461"><ele>15.5</ele><time>2026-04-05T16:07:00Z</time></trkpt><trkpt lat="45.91358533461001" lon="12.507335371946969"><ele>15.25</ele><time>2026-04-05T16:07:01Z</time></trkpt><trkpt lat="45.91375428232492" lon="12.507311593711993"><ele>15.0</ele><time>2026-04-05T16:07:02Z</time></trkpt><trkpt lat="45.913917194916905" lon="12.507234482929512"><ele>15.0</ele><time>2026-04-05T16:07:03Z</time></trkpt><trkpt lat="45.914088480675936" lon="12.507125578812651"><ele>15.0</ele><time>2026-04-05T16:07:04Z</time></trkpt><trkpt lat="45.91427256426713" lon="12.507017167936596"><ele>15.0</ele><time>2026-04-05T16:07:05Z</time></trkpt><trkpt lat="45.91447299420017" lon="12.506875706089165"><ele>15.0</ele><time>2026-04-05T16:07:06Z</time></trkpt><trkpt lat="45.9146802766978" lon="12.50675398619422"><ele>15.0</ele><time>2026-04-05T16:07:07Z</time></trkpt><trkpt lat="45.91489596495833" lon="12.50660696021866"><ele>15.0</ele><time>2026-04-05T16:07:08Z</time></trkpt><trkpt lat="45.91508957646085" lon="12.506481765431744"><ele>15.0</ele><time>2026-04-05T16:07:09Z</time></trkpt><trkpt lat="45.9152805692748" lon="12.506331906800323"><ele>15.0</ele><time>2026-04-05T16:07:10Z</time></trkpt><trkpt lat="45.915459379859776" lon="12.506209041431372"><ele>15.666666666666668</ele><time>2026-04-05T16:07:11Z</time></trkpt><trkpt lat="45.91561324412968" lon="12.50611432164319"><ele>16.333333333333336</ele><time>2026-04-05T16:07:12Z</time></trkpt><trkpt lat="45.91573029281512" lon="12.50597953432563"><ele>17.0</ele><time>2026-04-05T16:07:13Z</time></trkpt><trkpt lat="45.91584833387119" lon="12.505881768005617"><ele>16.25</ele><time>2026-04-05T16:07:14Z</time></trkpt><trkpt lat="45.915955357263904" lon="12.505832359618815"><ele>15.5</ele><time>2026-04-05T16:07:15Z</time></trkpt><trkpt lat="45.916076288582246" lon="12.505769600635302"><ele>14.75</ele><time>2026-04-05T16:07:16Z</time></trkpt><trkpt lat="45.916183997193045" lon="12.505720858888719"><ele>14.0</ele><time>2026-04-05T16:07:17Z</time></trkpt><trkpt lat="45.916322720229715" lon="12.505640250605628"><ele>14.0</ele><time>2026-04-05T16:07:18Z</time></trkpt><trkpt lat="45.91646808028416" lon="12.505551542145174"><ele>14.0</ele><time>2026-04-05T16:07:19Z</time></trkpt><trkpt lat="45.916657952838456" lon="12.505481231393652"><ele>14.0</ele><time>2026-04-05T16:07:20Z</time></trkpt><trkpt lat="45.916806925101554" lon="12.505424118697004"><ele>14.25</ele><time>2026-04-05T16:07:21Z</time></trkpt><trkpt lat="45.91695001904228" lon="12.505363627477367"><ele>14.5</ele><time>2026-04-05T16:07:22Z</time></trkpt><trkpt lat="45.91707028117685" lon="12.505321706702196"><ele>14.75</ele><time>2026-04-05T16:07:23Z</time></trkpt><trkpt lat="45.91716154540234" lon="12.505279907401794"><ele>15.0</ele><time>2026-04-05T16:07:24Z</time></trkpt><trkpt lat="45.917309125718795" lon="12.505202448948484"><ele>15.0</ele><time>2026-04-05T16:07:25Z</time></trkpt><trkpt lat="45.91747519956212" lon="12.50513559260334"><ele>15.0</ele><time>2026-04-05T16:07:26Z</time></trkpt><trkpt lat="45.917652155124934" lon="12.505092229787259"><ele>15.0</ele><time>2026-04-05T16:07:27Z</time></trkpt><trkpt lat="45.91791130202307" lon="12.505065497403002"><ele>16.0</ele><time>2026-04-05T16:07:28Z</time></trkpt><trkpt lat="45.918124992646526" lon="12.505032082232194"><ele>17.0</ele><time>2026-04-05T16:07:29Z</time></trkpt><trkpt lat="45.918352379788296" lon="12.50501247353517"><ele>18.0</ele><time>2026-04-05T16:07:30Z</time></trkpt><trkpt lat="45.91856683948442" lon="12.50501008862111"><ele>18.0</ele><time>2026-04-05T16:07:31Z</time></trkpt><trkpt lat="45.918770073714846" lon="12.504996177559336"><ele>18.0</ele><time>2026-04-05T16:07:32Z</time></trkpt><trkpt lat="45.918956521827084" lon="12.504982980872557"><ele>18.0</ele><time>2026-04-05T16:07:33Z</time></trkpt><trkpt lat="45.91914857909077" lon="12.504862654370783"><ele>18.333333333333332</ele><time>2026-04-05T16:07:34Z</time></trkpt><trkpt lat="45.91932564800289" lon="12.504727872395366"><ele>18.666666666666664</ele><time>2026-04-05T16:07:35Z</time></trkpt><trkpt lat="45.919530220357125" lon="12.504537903765105"><ele>19.0</ele><time>2026-04-05T16:07:36Z</time></trkpt><trkpt lat="45.91971035591664" lon="12.504328364894663"><ele>19.5</ele><time>2026-04-05T16:07:37Z</time></trkpt><trkpt lat="45.91988790413259" lon="12.504113002084646"><ele>20.0</ele><time>2026-04-05T16:07:38Z</time></trkpt><trkpt lat="45.920098423104115" lon="12.503934976521034"><ele>20.5</ele><time>2026-04-05T16:07:39Z</time></trkpt><trkpt lat="45.920299356239035" lon="12.503725320505547"><ele>21.0</ele><time>2026-04-05T16:07:40Z</time></trkpt><trkpt lat="45.92050863896845" lon="12.503514712663598"><ele>21.0</ele><time>2026-04-05T16:07:41Z</time></trkpt><trkpt lat="45.92071677871412" lon="12.503309217501007"><ele>21.0</ele><time>2026-04-05T16:07:42Z</time></trkpt><trkpt lat="45.92091124014908" lon="12.503116277261737"><ele>21.0</ele><time>2026-04-05T16:07:43Z</time></trkpt><trkpt lat="45.92110329212161" lon="12.502941029129154"><ele>21.0</ele><time>2026-04-05T16:07:44Z</time></trkpt><trkpt lat="45.92128103736398" lon="12.502756536159461"><ele>21.0</ele><time>2026-04-05T16:07:45Z</time></trkpt><trkpt lat="45.92148930517595" lon="12.502559692293202"><ele>21.0</ele><time>2026-04-05T16:07:46Z</time></trkpt><trkpt lat="45.92168831836291" lon="12.502395908881914"><ele>21.0</ele><time>2026-04-05T16:07:46.999Z</time></trkpt><trkpt lat="45.9218966392847" lon="12.502215197304391"><ele>21.0</ele><time>2026-04-05T16:07:47.999Z</time></trkpt><trkpt lat="45.92202190173693" lon="12.502094216484997"><ele>21.0</ele><time>2026-04-05T16:07:48.999Z</time></trkpt><trkpt lat="45.92227722933829" lon="12.50194939142847"><ele>21.0</ele><time>2026-04-05T16:07:49.999Z</time></trkpt><trkpt lat="45.922436037527824" lon="12.501881657970443"><ele>20.333333333333332</ele><time>2026-04-05T16:07:50.999Z</time></trkpt><trkpt lat="45.92260565094218" lon="12.501840891589557"><ele>19.666666666666664</ele><time>2026-04-05T16:07:51.999Z</time></trkpt><trkpt lat="45.922814214961825" lon="12.501798399758124"><ele>19.0</ele><time>2026-04-05T16:07:52.999Z</time></trkpt><trkpt lat="45.92300344308904" lon="12.501840079863115"><ele>19.0</ele><time>2026-04-05T16:07:53.999Z</time></trkpt><trkpt lat="45.9231914400886" lon="12.501880007761303"><ele>19.0</ele><time>2026-04-05T16:07:54.999Z</time></trkpt><trkpt lat="45.92335722515474" lon="12.50193451103428"><ele>19.0</ele><time>2026-04-05T16:07:55.999Z</time></trkpt><trkpt lat="45.923538126586685" lon="12.501947520442773"><ele>19.0</ele><time>2026-04-05T16:07:56.999Z</time></trkpt><trkpt lat="45.92366108040011" lon="12.501943602546982"><ele>19.0</ele><time>2026-04-05T16:07:57.999Z</time></trkpt><trkpt lat="45.92378472098944" lon="12.501962848514106"><ele>19.0</ele><time>2026-04-05T16:07:58.999Z</time></trkpt><trkpt lat="45.92388640535126" lon="12.502000056698346"><ele>19.0</ele><time>2026-04-05T16:07:59.999Z</time></trkpt><trkpt lat="45.92399948741656" lon="12.501964616611504"><ele>19.0</ele><time>2026-04-05T16:08:00.999Z</time></trkpt><trkpt lat="45.92408746631726" lon="12.501873630363203"><ele>19.0</ele><time>2026-04-05T16:08:01.999Z</time></trkpt><trkpt lat="45.924156452628615" lon="12.501659779275647"><ele>19.0</ele><time>2026-04-05T16:08:02.999Z</time></trkpt><trkpt lat="45.92426255134628" lon="12.501511539635823"><ele>19.0</ele><time>2026-04-05T16:08:03.999Z</time></trkpt><trkpt lat="45.92443551035746" lon="12.501366365990032"><ele>18.666666666666664</ele><time>2026-04-05T16:08:04.999Z</time></trkpt><trkpt lat="45.924606978058264" lon="12.501172734415334"><ele>18.333333333333332</ele><time>2026-04-05T16:08:05.999Z</time></trkpt><trkpt lat="45.924769959940946" lon="12.50099598881428"><ele>18.0</ele><time>2026-04-05T16:08:06.999Z</time></trkpt><trkpt lat="45.92497065908572" lon="12.500778340660675"><ele>18.0</ele><time>2026-04-05T16:08:07.999Z</time></trkpt><trkpt lat="45.925177891876515" lon="12.500547011767354"><ele>18.0</ele><time>2026-04-05T16:08:08.999Z</time></trkpt><trkpt lat="45.92538272216574" lon="12.500318719736326"><ele>18.0</ele><time>2026-04-05T16:08:09.999Z</time></trkpt><trkpt lat="45.925613451672525" lon="12.500074952414781"><ele>18.0</ele><time>2026-04-05T16:08:10.999Z</time></trkpt><trkpt lat="45.92582186643014" lon="12.499837809427897"><ele>18.0</ele><time>2026-04-05T16:08:11.999Z</time></trkpt><trkpt lat="45.925995711337144" lon="12.499613046581324"><ele>18.0</ele><time>2026-04-05T16:08:12.999Z</time></trkpt><trkpt lat="45.92612888964762" lon="12.499390308793108"><ele>18.0</ele><time>2026-04-05T16:08:13.999Z</time></trkpt><trkpt lat="45.92623874835034" lon="12.499146213198864"><ele>18.0</ele><time>2026-04-05T16:08:14.999Z</time></trkpt><trkpt lat="45.92631590895358" lon="12.498862807943253"><ele>18.0</ele><time>2026-04-05T16:08:15.999Z</time></trkpt><trkpt lat="45.92635670938797" lon="12.498574759135337"><ele>18.0</ele><time>2026-04-05T16:08:16.999Z</time></trkpt><trkpt lat="45.92637556297739" lon="12.49827998771276"><ele>18.0</ele><time>2026-04-05T16:08:17.999Z</time></trkpt><trkpt lat="45.926375719141596" lon="12.49800222525263"><ele>18.0</ele><time>2026-04-05T16:08:18.999Z</time></trkpt><trkpt lat="45.92637245950183" lon="12.497701901754077"><ele>18.0</ele><time>2026-04-05T16:08:19.999Z</time></trkpt><trkpt lat="45.92637181972255" lon="12.497358111523392"><ele>19.0</ele><time>2026-04-05T16:08:20.999Z</time></trkpt><trkpt lat="45.926389946668515" lon="12.4970452938866"><ele>20.0</ele><time>2026-04-05T16:08:21.999Z</time></trkpt><trkpt lat="45.92643571442892" lon="12.496742267479958"><ele>21.0</ele><time>2026-04-05T16:08:22.999Z</time></trkpt><trkpt lat="45.92650986989021" lon="12.496432041078895"><ele>20.666666666666668</ele><time>2026-04-05T16:08:23.999Z</time></trkpt><trkpt lat="45.92659127122631" lon="12.49612275266525"><ele>20.333333333333336</ele><time>2026-04-05T16:08:24.999Z</time></trkpt><trkpt lat="45.92666310642028" lon="12.495849133287619"><ele>20.0</ele><time>2026-04-05T16:08:25.999Z</time></trkpt><trkpt lat="45.92674720119506" lon="12.495529623411645"><ele>20.0</ele><time>2026-04-05T16:08:26.999Z</time></trkpt><trkpt lat="45.92684046792456" lon="12.49518341458443"><ele>20.0</ele><time>2026-04-05T16:08:28.011Z</time></trkpt><trkpt lat="45.92693276085384" lon="12.494837671947902"><ele>20.0</ele><time>2026-04-05T16:08:29.016Z</time></trkpt><trkpt lat="45.92702423141507" lon="12.494515527977294"><ele>20.0</ele><time>2026-04-05T16:08:29.999Z</time></trkpt><trkpt lat="45.92715494424981" lon="12.494153313734207"><ele>20.0</ele><time>2026-04-05T16:08:30.999Z</time></trkpt><trkpt lat="45.92724348430365" lon="12.49393970876146"><ele>20.0</ele><time>2026-04-05T16:08:31.999Z</time></trkpt><trkpt lat="45.92736549221047" lon="12.493664811442898"><ele>20.0</ele><time>2026-04-05T16:08:32.999Z</time></trkpt><trkpt lat="45.92751239781442" lon="12.493345081442298"><ele>20.333333333333336</ele><time>2026-04-05T16:08:33.999Z</time></trkpt><trkpt lat="45.9276314315534" lon="12.493091796825022"><ele>20.666666666666668</ele><time>2026-04-05T16:08:34.999Z</time></trkpt><trkpt lat="45.92775475344309" lon="12.492833207436666"><ele>21.0</ele><time>2026-04-05T16:08:35.999Z</time></trkpt><trkpt lat="45.927903188074076" lon="12.492554110502715"><ele>21.5</ele><time>2026-04-05T16:08:37Z</time></trkpt><trkpt lat="45.928025399109856" lon="12.492261147681969"><ele>22.0</ele><time>2026-04-05T16:08:38Z</time></trkpt><trkpt lat="45.92817158946492" lon="12.491980867790103"><ele>22.0</ele><time>2026-04-05T16:08:39Z</time></trkpt><trkpt lat="45.92829399524924" lon="12.491711030321602"><ele>22.0</ele><time>2026-04-05T16:08:40Z</time></trkpt><trkpt lat="45.92841509523165" lon="12.491430967466284"><ele>22.333333333333332</ele><time>2026-04-05T16:08:41Z</time></trkpt><trkpt lat="45.92853240149206" lon="12.491184568583984"><ele>22.666666666666668</ele><time>2026-04-05T16:08:42Z</time></trkpt><trkpt lat="45.92865211302585" lon="12.490947912752919"><ele>23.0</ele><time>2026-04-05T16:08:43Z</time></trkpt><trkpt lat="45.92877434739832" lon="12.49070153219131"><ele>23.0</ele><time>2026-04-05T16:08:44Z</time></trkpt><trkpt lat="45.928875552657615" lon="12.490479578580635"><ele>23.0</ele><time>2026-04-05T16:08:45Z</time></trkpt><trkpt lat="45.9289771600074" lon="12.490257700768245"><ele>23.0</ele><time>2026-04-05T16:08:46Z</time></trkpt><trkpt lat="45.929075126098546" lon="12.490036753597947"><ele>23.666666666666668</ele><time>2026-04-05T16:08:47Z</time></trkpt><trkpt lat="45.929166297908296" lon="12.489876106959251"><ele>24.333333333333336</ele><time>2026-04-05T16:08:48Z</time></trkpt><trkpt lat="45.929266565373105" lon="12.489632656729013"><ele>25.0</ele><time>2026-04-05T16:08:49Z</time></trkpt><trkpt lat="45.92938702084742" lon="12.48938215262414"><ele>25.0</ele><time>2026-04-05T16:08:50Z</time></trkpt><trkpt lat="45.92949042334721" lon="12.489120236761428"><ele>25.0</ele><time>2026-04-05T16:08:51Z</time></trkpt><trkpt lat="45.92958887905469" lon="12.488834449691012"><ele>25.0</ele><time>2026-04-05T16:08:52Z</time></trkpt><trkpt lat="45.9296289156411" lon="12.488518472946517"><ele>25.0</ele><time>2026-04-05T16:08:53Z</time></trkpt><trkpt lat="45.929692408357425" lon="12.488168624479872"><ele>25.0</ele><time>2026-04-05T16:08:54Z</time></trkpt><trkpt lat="45.929723331645114" lon="12.487765472658634"><ele>25.0</ele><time>2026-04-05T16:08:55Z</time></trkpt><trkpt lat="45.929753142639775" lon="12.48736398969596"><ele>25.0</ele><time>2026-04-05T16:08:56Z</time></trkpt><trkpt lat="45.92976737049055" lon="12.486927897980673"><ele>23.5</ele><time>2026-04-05T16:08:57Z</time></trkpt><trkpt lat="45.92980633194031" lon="12.486478823462376"><ele>22.0</ele><time>2026-04-05T16:08:58Z</time></trkpt><trkpt lat="45.92986317049706" lon="12.486045166760775"><ele>21.5</ele><time>2026-04-05T16:08:59Z</time></trkpt><trkpt lat="45.929951147000935" lon="12.48561789572598"><ele>21.0</ele><time>2026-04-05T16:09:00Z</time></trkpt><trkpt lat="45.93004310394769" lon="12.485237560261536"><ele>21.5</ele><time>2026-04-05T16:09:01Z</time></trkpt><trkpt lat="45.93012887585867" lon="12.484868336454745"><ele>22.0</ele><time>2026-04-05T16:09:02Z</time></trkpt><trkpt lat="45.93019434922294" lon="12.48455839320865"><ele>22.0</ele><time>2026-04-05T16:09:03Z</time></trkpt><trkpt lat="45.93027398250447" lon="12.48427299903344"><ele>22.0</ele><time>2026-04-05T16:09:04Z</time></trkpt><trkpt lat="45.93031933057756" lon="12.483989660060141"><ele>22.0</ele><time>2026-04-05T16:09:05Z</time></trkpt><trkpt lat="45.93034012577437" lon="12.483658989008436"><ele>23.0</ele><time>2026-04-05T16:09:06Z</time></trkpt><trkpt lat="45.93034547193352" lon="12.483352009568979"><ele>24.0</ele><time>2026-04-05T16:09:07Z</time></trkpt><trkpt lat="45.930343570273834" lon="12.483034042815634"><ele>25.0</ele><time>2026-04-05T16:09:08Z</time></trkpt><trkpt lat="45.93032865657971" lon="12.482705972879344"><ele>28.5</ele><time>2026-04-05T16:09:09Z</time></trkpt><trkpt lat="45.93031289919975" lon="12.482362624223969"><ele>32.0</ele><time>2026-04-05T16:09:10Z</time></trkpt><trkpt lat="45.930303395528945" lon="12.482003452540255"><ele>32.5</ele><time>2026-04-05T16:09:11Z</time></trkpt><trkpt lat="45.93028526191271" lon="12.48162171454938"><ele>33.0</ele><time>2026-04-05T16:09:12Z</time></trkpt><trkpt lat="45.93027475776956" lon="12.481230231883728"><ele>33.0</ele><time>2026-04-05T16:09:13Z</time></trkpt><trkpt lat="45.9302591727097" lon="12.480799061989908"><ele>33.0</ele><time>2026-04-05T16:09:14Z</time></trkpt><trkpt lat="45.930281010066516" lon="12.480362387712448"><ele>30.5</ele><time>2026-04-05T16:09:15Z</time></trkpt><trkpt lat="45.93028359368366" lon="12.47990464404908"><ele>28.0</ele><time>2026-04-05T16:09:16Z</time></trkpt><trkpt lat="45.93026598743145" lon="12.479518846168766"><ele>26.5</ele><time>2026-04-05T16:09:17Z</time></trkpt><trkpt lat="45.93028959154292" lon="12.479069569336138"><ele>25.0</ele><time>2026-04-05T16:09:18Z</time></trkpt><trkpt lat="45.930324581443" lon="12.47864851121128"><ele>25.0</ele><time>2026-04-05T16:09:19Z</time></trkpt><trkpt lat="45.93041623999773" lon="12.478202453481561"><ele>25.0</ele><time>2026-04-05T16:09:20Z</time></trkpt><trkpt lat="45.93054238628642" lon="12.477770277819197"><ele>26.0</ele><time>2026-04-05T16:09:21Z</time></trkpt><trkpt lat="45.93068607389865" lon="12.47735825996228"><ele>27.0</ele><time>2026-04-05T16:09:22Z</time></trkpt><trkpt lat="45.93084787131112" lon="12.47695039750238"><ele>27.0</ele><time>2026-04-05T16:09:23Z</time></trkpt><trkpt lat="45.930992738110106" lon="12.476499845798257"><ele>27.0</ele><time>2026-04-05T16:09:24Z</time></trkpt><trkpt lat="45.9311096751701" lon="12.476043690644604"><ele>27.0</ele><time>2026-04-05T16:09:25Z</time></trkpt><trkpt lat="45.931238964949614" lon="12.475581729810779"><ele>27.0</ele><time>2026-04-05T16:09:26Z</time></trkpt><trkpt lat="45.931354867445904" lon="12.475126070502318"><ele>27.5</ele><time>2026-04-05T16:09:27Z</time></trkpt><trkpt lat="45.93147724861102" lon="12.47467773491961"><ele>28.0</ele><time>2026-04-05T16:09:28Z</time></trkpt><trkpt lat="45.93159874149672" lon="12.474222367556898"><ele>28.5</ele><time>2026-04-05T16:09:29Z</time></trkpt><trkpt lat="45.93171055550959" lon="12.473777000356407"><ele>29.0</ele><time>2026-04-05T16:09:30Z</time></trkpt><trkpt lat="45.93186095382597" lon="12.47325212799752"><ele>29.5</ele><time>2026-04-05T16:09:31Z</time></trkpt><trkpt lat="45.93197297921368" lon="12.472807520609486"><ele>30.0</ele><time>2026-04-05T16:09:32Z</time></trkpt><trkpt lat="45.932094031172134" lon="12.47242426381907"><ele>30.0</ele><time>2026-04-05T16:09:33Z</time></trkpt><trkpt lat="45.93221762292179" lon="12.472057464071977"><ele>30.0</ele><time>2026-04-05T16:09:34Z</time></trkpt><trkpt lat="45.932368438700216" lon="12.471706059128016"><ele>30.0</ele><time>2026-04-05T16:09:35Z</time></trkpt><trkpt lat="45.93252592198091" lon="12.471347333198322"><ele>30.0</ele><time>2026-04-05T16:09:36Z</time></trkpt><trkpt lat="45.93267939093539" lon="12.47099193759896"><ele>30.0</ele><time>2026-04-05T16:09:37Z</time></trkpt><trkpt lat="45.9329334751211" lon="12.470660754663685"><ele>30.0</ele><time>2026-04-05T16:09:38Z</time></trkpt><trkpt lat="45.93316391456705" lon="12.47035066006579"><ele>30.0</ele><time>2026-04-05T16:09:39Z</time></trkpt><trkpt lat="45.93334651428603" lon="12.470060386017087"><ele>30.0</ele><time>2026-04-05T16:09:40Z</time></trkpt><trkpt lat="45.933548297695445" lon="12.469778162510266"><ele>29.0</ele><time>2026-04-05T16:09:41Z</time></trkpt><trkpt lat="45.933757995802964" lon="12.469496497428876"><ele>28.0</ele><time>2026-04-05T16:09:42Z</time></trkpt><trkpt lat="45.93392863523165" lon="12.469248787489846"><ele>28.0</ele><time>2026-04-05T16:09:43Z</time></trkpt><trkpt lat="45.93408119631886" lon="12.469020893722723"><ele>28.0</ele><time>2026-04-05T16:09:44Z</time></trkpt><trkpt lat="45.93417516488609" lon="12.468756933427386"><ele>28.0</ele><time>2026-04-05T16:09:45Z</time></trkpt><trkpt lat="45.934352463274465" lon="12.468536658802275"><ele>29.5</ele><time>2026-04-05T16:09:46Z</time></trkpt><trkpt lat="45.93456664501132" lon="12.468295452556442"><ele>31.0</ele><time>2026-04-05T16:09:46.999Z</time></trkpt><trkpt lat="45.934784052951315" lon="12.468024725844149"><ele>30.0</ele><time>2026-04-05T16:09:47.999Z</time></trkpt><trkpt lat="45.934966346339614" lon="12.46784778055982"><ele>29.0</ele><time>2026-04-05T16:09:48.999Z</time></trkpt><trkpt lat="45.93517801328665" lon="12.46756091002122"><ele>29.0</ele><time>2026-04-05T16:09:49.999Z</time></trkpt><trkpt lat="45.93538324562102" lon="12.467439863243007"><ele>29.0</ele><time>2026-04-05T16:09:50.999Z</time></trkpt><trkpt lat="45.93560924188035" lon="12.46724184946271"><ele>30.5</ele><time>2026-04-05T16:09:51.999Z</time></trkpt><trkpt lat="45.935833202495736" lon="12.467084488339417"><ele>32.0</ele><time>2026-04-05T16:09:52.999Z</time></trkpt><trkpt lat="45.936036465263236" lon="12.466987559154298"><ele>32.0</ele><time>2026-04-05T16:09:53.999Z</time></trkpt><trkpt lat="45.9362305426518" lon="12.466917477942163"><ele>32.0</ele><time>2026-04-05T16:09:54.999Z</time></trkpt><trkpt lat="45.936370508252516" lon="12.466922802279504"><ele>32.0</ele><time>2026-04-05T16:09:55.999Z</time></trkpt><trkpt lat="45.936496638143346" lon="12.466990456845792"><ele>32.0</ele><time>2026-04-05T16:09:56.999Z</time></trkpt><trkpt lat="45.93660768826903" lon="12.467081999398426"><ele>32.0</ele><time>2026-04-05T16:09:57.999Z</time></trkpt><trkpt lat="45.93681909410075" lon="12.467147331643588"><ele>32.0</ele><time>2026-04-05T16:09:59.999Z</time></trkpt><trkpt lat="45.93694192861755" lon="12.467105553778673"><ele>32.0</ele><time>2026-04-05T16:10:00.999Z</time></trkpt><trkpt lat="45.93706861248075" lon="12.466949895429115"><ele>32.0</ele><time>2026-04-05T16:10:01.999Z</time></trkpt><trkpt lat="45.93725584540743" lon="12.466866788931485"><ele>32.0</ele><time>2026-04-05T16:10:02.999Z</time></trkpt><trkpt lat="45.937454986477235" lon="12.466853623279958"><ele>32.0</ele><time>2026-04-05T16:10:03.999Z</time></trkpt><trkpt lat="45.93767375773124" lon="12.466907538206529"><ele>32.0</ele><time>2026-04-05T16:10:04.999Z</time></trkpt><trkpt lat="45.937942872701754" lon="12.466948287727362"><ele>32.0</ele><time>2026-04-05T16:10:05.999Z</time></trkpt><trkpt lat="45.93819130584115" lon="12.466993544730796"><ele>32.0</ele><time>2026-04-05T16:10:06.999Z</time></trkpt><trkpt lat="45.938475595540524" lon="12.467039574919479"><ele>32.0</ele><time>2026-04-05T16:10:07.999Z</time></trkpt><trkpt lat="45.93870096736598" lon="12.46717876959204"><ele>32.0</ele><time>2026-04-05T16:10:08.999Z</time></trkpt><trkpt lat="45.93903564479073" lon="12.467195447970486"><ele>32.0</ele><time>2026-04-05T16:10:09.999Z</time></trkpt><trkpt lat="45.9393603424865" lon="12.467197835059308"><ele>32.0</ele><time>2026-04-05T16:10:10.999Z</time></trkpt><trkpt lat="45.93961063750473" lon="12.46722937944801"><ele>33.0</ele><time>2026-04-05T16:10:11.999Z</time></trkpt><trkpt lat="45.94000577536582" lon="12.467092852998789"><ele>34.0</ele><time>2026-04-05T16:10:12.999Z</time></trkpt><trkpt lat="45.9405702317718" lon="12.46678751615013"><ele>34.5</ele><time>2026-04-05T16:10:13.999Z</time></trkpt><trkpt lat="45.94094563236651" lon="12.46675832669471"><ele>35.0</ele><time>2026-04-05T16:10:14.999Z</time></trkpt><trkpt lat="45.9412483339118" lon="12.466723340745883"><ele>35.0</ele><time>2026-04-05T16:10:15.999Z</time></trkpt><trkpt lat="45.941503072468855" lon="12.466709606557913"><ele>35.0</ele><time>2026-04-05T16:10:16.999Z</time></trkpt><trkpt lat="45.94173430412124" lon="12.466685883951492"><ele>35.0</ele><time>2026-04-05T16:10:17.999Z</time></trkpt><trkpt lat="45.94195296508808" lon="12.466676120673865"><ele>35.0</ele><time>2026-04-05T16:10:18.999Z</time></trkpt><trkpt lat="45.94215003471838" lon="12.4666626684996"><ele>35.0</ele><time>2026-04-05T16:10:19.999Z</time></trkpt><trkpt lat="45.94229788867436" lon="12.466690376789058"><ele>35.0</ele><time>2026-04-05T16:10:20.999Z</time></trkpt><trkpt lat="45.942453406910595" lon="12.466728093967232"><ele>35.0</ele><time>2026-04-05T16:10:21.999Z</time></trkpt><trkpt lat="45.94257075164179" lon="12.466795764992053"><ele>35.0</ele><time>2026-04-05T16:10:22.999Z</time></trkpt><trkpt lat="45.942718823264734" lon="12.466812660455284"><ele>35.0</ele><time>2026-04-05T16:10:23.999Z</time></trkpt><trkpt lat="45.94288630104489" lon="12.46679314104237"><ele>35.5</ele><time>2026-04-05T16:10:24.999Z</time></trkpt><trkpt lat="45.943087555911" lon="12.466816236584211"><ele>36.0</ele><time>2026-04-05T16:10:25.999Z</time></trkpt><trkpt lat="45.94355820948161" lon="12.46688509363336"><ele>34.5</ele><time>2026-04-05T16:10:27.999Z</time></trkpt><trkpt lat="45.94382283544993" lon="12.466902638116336"><ele>33.0</ele><time>2026-04-05T16:10:28.999Z</time></trkpt><trkpt lat="45.94408892899804" lon="12.46691152100239"><ele>32.5</ele><time>2026-04-05T16:10:29.999Z</time></trkpt><trkpt lat="45.94439752693336" lon="12.466913019705855"><ele>32.0</ele><time>2026-04-05T16:10:30.999Z</time></trkpt><trkpt lat="45.94465922215255" lon="12.466904113320657"><ele>32.0</ele><time>2026-04-05T16:10:31.999Z</time></trkpt><trkpt lat="45.94490084309421" lon="12.466872301945374"><ele>32.0</ele><time>2026-04-05T16:10:32.999Z</time></trkpt><trkpt lat="45.94516634892467" lon="12.466821474542131"><ele>34.0</ele><time>2026-04-05T16:10:33.999Z</time></trkpt><trkpt lat="45.94539145236508" lon="12.466754516813294"><ele>36.0</ele><time>2026-04-05T16:10:34.999Z</time></trkpt><trkpt lat="45.94561344306151" lon="12.46667236087276"><ele>36.0</ele><time>2026-04-05T16:10:35.999Z</time></trkpt><trkpt lat="45.945849710255466" lon="12.466570630902455"><ele>36.0</ele><time>2026-04-05T16:10:36.999Z</time></trkpt><trkpt lat="45.94602812387674" lon="12.466482269594477"><ele>36.0</ele><time>2026-04-05T16:10:37.999Z</time></trkpt><trkpt lat="45.946219256695066" lon="12.466383795302113"><ele>36.0</ele><time>2026-04-05T16:10:38.999Z</time></trkpt><trkpt lat="45.94636650032858" lon="12.4663065166771"><ele>36.0</ele><time>2026-04-05T16:10:39.999Z</time></trkpt><trkpt lat="45.9464768280087" lon="12.466249053172113"><ele>36.0</ele><time>2026-04-05T16:10:40.999Z</time></trkpt><trkpt lat="45.946582321836615" lon="12.466197408449494"><ele>36.0</ele><time>2026-04-05T16:10:41.999Z</time></trkpt><trkpt lat="45.946695925133625" lon="12.466135289039324"><ele>36.25</ele><time>2026-04-05T16:10:43Z</time></trkpt><trkpt lat="45.94680048606895" lon="12.46615838393545"><ele>36.5</ele><time>2026-04-05T16:10:44.015Z</time></trkpt><trkpt lat="45.94689264973351" lon="12.466238707260493"><ele>36.75</ele><time>2026-04-05T16:10:45.017Z</time></trkpt><trkpt lat="45.9470297648516" lon="12.466467764834084"><ele>37.0</ele><time>2026-04-05T16:10:47Z</time></trkpt><trkpt lat="45.94705016981079" lon="12.466617896522626"><ele>36.6</ele><time>2026-04-05T16:10:48Z</time></trkpt><trkpt lat="45.94707112773155" lon="12.466713323968868"><ele>36.2</ele><time>2026-04-05T16:10:49Z</time></trkpt><trkpt lat="45.94699564719205" lon="12.466860800065426"><ele>35.8</ele><time>2026-04-05T16:10:50Z</time></trkpt><trkpt lat="45.94692754221931" lon="12.467016234650632"><ele>35.4</ele><time>2026-04-05T16:10:51Z</time></trkpt><trkpt lat="45.94685377885849" lon="12.467143163082058"><ele>35.0</ele><time>2026-04-05T16:10:52Z</time></trkpt><trkpt lat="45.947982130011596" lon="12.46581087281911"><ele>35.0</ele><time>2026-04-05T16:10:53Z</time></trkpt><trkpt lat="45.94736239160513" lon="12.466665263697669"><ele>35.0</ele><time>2026-04-05T16:10:54Z</time></trkpt><trkpt lat="45.94709185885268" lon="12.467047470335803"><ele>35.0</ele><time>2026-04-05T16:10:55Z</time></trkpt><trkpt lat="45.9464225578357" lon="12.46735118947652"><ele>34.75</ele><time>2026-04-05T16:10:56Z</time></trkpt><trkpt lat="45.94626563968905" lon="12.467466615015525"><ele>34.5</ele><time>2026-04-05T16:10:57Z</time></trkpt><trkpt lat="45.946191735055066" lon="12.46743683826975"><ele>34.25</ele><time>2026-04-05T16:10:58Z</time></trkpt><trkpt lat="45.946062792621035" lon="12.467335620354428"><ele>34.0</ele><time>2026-04-05T16:10:59Z</time></trkpt><trkpt lat="45.94594746357977" lon="12.467170332574037"><ele>34.66666666666667</ele><time>2026-04-05T16:11:00Z</time></trkpt><trkpt lat="45.94584902985094" lon="12.466990749382926"><ele>35.333333333333336</ele><time>2026-04-05T16:11:01Z</time></trkpt><trkpt lat="45.94577466044942" lon="12.466761997476251"><ele>36.0</ele><time>2026-04-05T16:11:02Z</time></trkpt><trkpt lat="45.945710256696835" lon="12.466540842588765"><ele>36.0</ele><time>2026-04-05T16:11:03Z</time></trkpt><trkpt lat="45.94563331847019" lon="12.466292585232532"><ele>36.0</ele><time>2026-04-05T16:11:04Z</time></trkpt><trkpt lat="45.9455515994839" lon="12.466024965013386"><ele>36.0</ele><time>2026-04-05T16:11:05Z</time></trkpt><trkpt lat="45.94546920450649" lon="12.46575563406196"><ele>36.5</ele><time>2026-04-05T16:11:06Z</time></trkpt><trkpt lat="45.94537969327906" lon="12.465453148314632"><ele>37.0</ele><time>2026-04-05T16:11:07Z</time></trkpt><trkpt lat="45.94531340381476" lon="12.465131502848385"><ele>37.0</ele><time>2026-04-05T16:11:08Z</time></trkpt><trkpt lat="45.94522481322532" lon="12.464816937373328"><ele>37.0</ele><time>2026-04-05T16:11:09Z</time></trkpt><trkpt lat="45.9451243669749" lon="12.464465758192913"><ele>36.0</ele><time>2026-04-05T16:11:10Z</time></trkpt><trkpt lat="45.94501669316922" lon="12.464095161418461"><ele>35.0</ele><time>2026-04-05T16:11:11Z</time></trkpt><trkpt lat="45.944920233908874" lon="12.463732082672758"><ele>35.0</ele><time>2026-04-05T16:11:12Z</time></trkpt><trkpt lat="45.944831381169166" lon="12.463360031042733"><ele>35.0</ele><time>2026-04-05T16:11:13Z</time></trkpt><trkpt lat="45.944742528952304" lon="12.46302957072624"><ele>35.0</ele><time>2026-04-05T16:11:14Z</time></trkpt><trkpt lat="45.944659087890045" lon="12.462712033325369"><ele>35.0</ele><time>2026-04-05T16:11:15Z</time></trkpt><trkpt lat="45.944550951980446" lon="12.462302392717154"><ele>35.5</ele><time>2026-04-05T16:11:16Z</time></trkpt><trkpt lat="45.944451524761035" lon="12.461941696630321"><ele>36.0</ele><time>2026-04-05T16:11:17.013Z</time></trkpt><trkpt lat="45.94435280763914" lon="12.461573461082343"><ele>36.0</ele><time>2026-04-05T16:11:18.016Z</time></trkpt><trkpt lat="45.94426021715738" lon="12.46120812407445"><ele>36.0</ele><time>2026-04-05T16:11:19.016Z</time></trkpt><trkpt lat="45.94416094365497" lon="12.460850552322636"><ele>35.5</ele><time>2026-04-05T16:11:20.017Z</time></trkpt><trkpt lat="45.944053545070695" lon="12.460476672519878"><ele>35.0</ele><time>2026-04-05T16:11:21.015Z</time></trkpt><trkpt lat="45.943957107329744" lon="12.460114734025122"><ele>35.0</ele><time>2026-04-05T16:11:22Z</time></trkpt><trkpt lat="45.943831249342544" lon="12.45967933834812"><ele>35.0</ele><time>2026-04-05T16:11:23Z</time></trkpt><trkpt lat="45.94370348541153" lon="12.45923317329655"><ele>35.5</ele><time>2026-04-05T16:11:24Z</time></trkpt><trkpt lat="45.943593048956274" lon="12.45879130534945"><ele>36.0</ele><time>2026-04-05T16:11:25Z</time></trkpt><trkpt lat="45.94346701649274" lon="12.458343463965129"><ele>36.0</ele><time>2026-04-05T16:11:26Z</time></trkpt><trkpt lat="45.9433489154497" lon="12.457896289179775"><ele>36.0</ele><time>2026-04-05T16:11:27Z</time></trkpt><trkpt lat="45.94322533035908" lon="12.45743493812851"><ele>36.5</ele><time>2026-04-05T16:11:28Z</time></trkpt><trkpt lat="45.94311890082546" lon="12.457007813214636"><ele>37.0</ele><time>2026-04-05T16:11:29Z</time></trkpt><trkpt lat="45.94302722679564" lon="12.456617104997449"><ele>37.0</ele><time>2026-04-05T16:11:30Z</time></trkpt><trkpt lat="45.94286725774909" lon="12.456374459930762"><ele>37.0</ele><time>2026-04-05T16:11:31Z</time></trkpt><trkpt lat="45.94282674068192" lon="12.45616775460328"><ele>37.0</ele><time>2026-04-05T16:11:32Z</time></trkpt><trkpt lat="45.94282903313799" lon="12.456032346293"><ele>37.66666666666667</ele><time>2026-04-05T16:11:33Z</time></trkpt><trkpt lat="45.942736832212624" lon="12.455688018325347"><ele>38.333333333333336</ele><time>2026-04-05T16:11:34Z</time></trkpt><trkpt lat="45.94273644405014" lon="12.455538425253067"><ele>39.0</ele><time>2026-04-05T16:11:35Z</time></trkpt><trkpt lat="45.942746946467125" lon="12.45525480978264"><ele>39.0</ele><time>2026-04-05T16:11:36Z</time></trkpt><trkpt lat="45.942774316078236" lon="12.454977254793548"><ele>39.0</ele><time>2026-04-05T16:11:37Z</time></trkpt><trkpt lat="45.942328543319235" lon="12.454890857146937"><ele>39.0</ele><time>2026-04-05T16:11:38Z</time></trkpt><trkpt lat="45.94224526909062" lon="12.45460075984584"><ele>39.0</ele><time>2026-04-05T16:11:39Z</time></trkpt><trkpt lat="45.94261833647093" lon="12.454079665922674"><ele>39.5</ele><time>2026-04-05T16:11:40Z</time></trkpt><trkpt lat="45.94258671607446" lon="12.453814419134181"><ele>40.0</ele><time>2026-04-05T16:11:41Z</time></trkpt><trkpt lat="45.94279707826306" lon="12.453483449413143"><ele>39.0</ele><time>2026-04-05T16:11:42Z</time></trkpt><trkpt lat="45.94292498589132" lon="12.453015770789396"><ele>38.0</ele><time>2026-04-05T16:11:43Z</time></trkpt><trkpt lat="45.94290805230102" lon="12.45280656454342"><ele>38.0</ele><time>2026-04-05T16:11:44Z</time></trkpt><trkpt lat="45.942894358255295" lon="12.452530028858748"><ele>38.0</ele><time>2026-04-05T16:11:45Z</time></trkpt><trkpt lat="45.94291540306538" lon="12.45234209808412"><ele>38.0</ele><time>2026-04-05T16:11:46Z</time></trkpt><trkpt lat="45.94298309413111" lon="12.451982922929433"><ele>38.0</ele><time>2026-04-05T16:11:47Z</time></trkpt><trkpt lat="45.943076925294534" lon="12.451617677823432"><ele>38.0</ele><time>2026-04-05T16:11:48Z</time></trkpt><trkpt lat="45.94316275981011" lon="12.451308880989513"><ele>37.5</ele><time>2026-04-05T16:11:49Z</time></trkpt><trkpt lat="45.94331109519968" lon="12.450986228253369"><ele>37.0</ele><time>2026-04-05T16:11:50Z</time></trkpt><trkpt lat="45.94334837753765" lon="12.450608201716301"><ele>38.0</ele><time>2026-04-05T16:11:52Z</time></trkpt><trkpt lat="45.94334147083085" lon="12.450395712170456"><ele>39.0</ele><time>2026-04-05T16:11:53Z</time></trkpt><trkpt lat="45.943333441551594" lon="12.450178871926147"><ele>40.0</ele><time>2026-04-05T16:11:54Z</time></trkpt><trkpt lat="45.94332139490415" lon="12.449961094118414"><ele>40.0</ele><time>2026-04-05T16:11:55Z</time></trkpt><trkpt lat="45.94333332988663" lon="12.449776625921512"><ele>40.0</ele><time>2026-04-05T16:11:56Z</time></trkpt><trkpt lat="45.94339280252419" lon="12.449606324942861"><ele>40.0</ele><time>2026-04-05T16:11:57Z</time></trkpt><trkpt lat="45.94349283822531" lon="12.449499639204532"><ele>40.0</ele><time>2026-04-05T16:11:58Z</time></trkpt><trkpt lat="45.94351480223912" lon="12.44924580774009"><ele>40.25</ele><time>2026-04-05T16:11:59Z</time></trkpt><trkpt lat="45.94360235688279" lon="12.449093330729701"><ele>40.5</ele><time>2026-04-05T16:12:00Z</time></trkpt><trkpt lat="45.94371425144326" lon="12.44902369112243"><ele>40.75</ele><time>2026-04-05T16:12:00.999Z</time></trkpt><trkpt lat="45.94382550040589" lon="12.448898329131069"><ele>41.0</ele><time>2026-04-05T16:12:01.999Z</time></trkpt><trkpt lat="45.94396357104824" lon="12.448837445640006"><ele>40.75</ele><time>2026-04-05T16:12:02.999Z</time></trkpt><trkpt lat="45.94405158807865" lon="12.448717358228278"><ele>40.5</ele><time>2026-04-05T16:12:03.999Z</time></trkpt><trkpt lat="45.94410781333435" lon="12.448527566737448"><ele>40.25</ele><time>2026-04-05T16:12:04.999Z</time></trkpt><trkpt lat="45.94413487011851" lon="12.448378266963045"><ele>40.0</ele><time>2026-04-05T16:12:05.999Z</time></trkpt><trkpt lat="45.94414107578538" lon="12.448217815843194"><ele>40.0</ele><time>2026-04-05T16:12:06.999Z</time></trkpt><trkpt lat="45.94417199109363" lon="12.448039351397401"><ele>40.0</ele><time>2026-04-05T16:12:07.999Z</time></trkpt><trkpt lat="45.94408436019217" lon="12.447875145570677"><ele>40.0</ele><time>2026-04-05T16:12:08.999Z</time></trkpt><trkpt lat="45.94423646675064" lon="12.447639036482194"><ele>40.0</ele><time>2026-04-05T16:12:09.999Z</time></trkpt><trkpt lat="45.944282646329135" lon="12.447383657837811"><ele>40.0</ele><time>2026-04-05T16:12:10.999Z</time></trkpt><trkpt lat="45.94431092347859" lon="12.447150171708364"><ele>40.0</ele><time>2026-04-05T16:12:11.999Z</time></trkpt><trkpt lat="45.944313910459975" lon="12.446930791331495"><ele>41.0</ele><time>2026-04-05T16:12:12.999Z</time></trkpt><trkpt lat="45.943859054613995" lon="12.446786353602052"><ele>40.0</ele><time>2026-04-05T16:12:13.999Z</time></trkpt><trkpt lat="45.943850113330086" lon="12.447489839331139"><ele>40.0</ele><time>2026-04-05T16:12:14.999Z</time></trkpt><trkpt lat="45.943860252822226" lon="12.447702228880301"><ele>40.0</ele><time>2026-04-05T16:12:15.999Z</time></trkpt><trkpt lat="45.943851441775635" lon="12.447468203877637"><ele>40.0</ele><time>2026-04-05T16:12:16.999Z</time></trkpt><trkpt lat="45.94385888622185" lon="12.447346962279576"><ele>40.0</ele><time>2026-04-05T16:12:17.999Z</time></trkpt><trkpt lat="45.94387164487981" lon="12.447139172541519"><ele>40.0</ele><time>2026-04-05T16:12:18.999Z</time></trkpt><trkpt lat="45.94428580324005" lon="12.447016071267562"><ele>40.0</ele><time>2026-04-05T16:12:20.999Z</time></trkpt><trkpt lat="45.94424859705918" lon="12.446898253382136"><ele>40.25</ele><time>2026-04-05T16:12:21.999Z</time></trkpt><trkpt lat="45.94400262457387" lon="12.446841776931512"><ele>40.5</ele><time>2026-04-05T16:12:22.999Z</time></trkpt><trkpt lat="45.94400275030242" lon="12.446715461600897"><ele>40.75</ele><time>2026-04-05T16:12:23.999Z</time></trkpt><trkpt lat="45.94400275029996" lon="12.446587205409443"><ele>41.0</ele><time>2026-04-05T16:12:25.018Z</time></trkpt><trkpt lat="45.944808881308276" lon="12.439898242311164"><ele>47.0</ele><time>2026-04-05T16:12:50.411Z</time></trkpt><trkpt lat="45.944606337885965" lon="12.437198125209122"><ele>46.0</ele><time>2026-04-05T16:12:55.775Z</time></trkpt><trkpt lat="45.94502962156611" lon="12.431798924725934"><ele>46.333333333333336</ele><time>2026-04-05T16:13:08.999Z</time></trkpt><trkpt lat="45.94512314381621" lon="12.431635738964113"><ele>46.666666666666664</ele><time>2026-04-05T16:13:09.999Z</time></trkpt><trkpt lat="45.94528819234923" lon="12.43141982941595"><ele>47.0</ele><time>2026-04-05T16:13:10.999Z</time></trkpt><trkpt lat="45.94529870459353" lon="12.431154419963091"><ele>47.33333333333333</ele><time>2026-04-05T16:13:11.999Z</time></trkpt><trkpt lat="45.94536023306629" lon="12.430874492651105"><ele>47.666666666666664</ele><time>2026-04-05T16:13:12.999Z</time></trkpt><trkpt lat="45.945410203781535" lon="12.430602946837459"><ele>48.0</ele><time>2026-04-05T16:13:13.999Z</time></trkpt><trkpt lat="45.945438603532786" lon="12.430351607451959"><ele>48.33333333333333</ele><time>2026-04-05T16:13:14.999Z</time></trkpt><trkpt lat="45.945446345560384" lon="12.430153994761008"><ele>48.666666666666664</ele><time>2026-04-05T16:13:15.999Z</time></trkpt><trkpt lat="45.94545144401288" lon="12.429884092918604"><ele>49.0</ele><time>2026-04-05T16:13:16.999Z</time></trkpt><trkpt lat="45.94544209788012" lon="12.429611866217185"><ele>49.0</ele><time>2026-04-05T16:13:17.999Z</time></trkpt><trkpt lat="45.94542571836764" lon="12.429321569016917"><ele>49.0</ele><time>2026-04-05T16:13:19Z</time></trkpt><trkpt lat="45.94539414582511" lon="12.42901155356671"><ele>49.0</ele><time>2026-04-05T16:13:20Z</time></trkpt><trkpt lat="45.94537580745907" lon="12.428719542527924"><ele>49.0</ele><time>2026-04-05T16:13:21Z</time></trkpt><trkpt lat="45.945365104196505" lon="12.428436913443244"><ele>49.0</ele><time>2026-04-05T16:13:22Z</time></trkpt><trkpt lat="45.94534869605331" lon="12.428144791022318"><ele>49.0</ele><time>2026-04-05T16:13:23Z</time></trkpt><trkpt lat="45.94534206299962" lon="12.427895087438703"><ele>49.0</ele><time>2026-04-05T16:13:24Z</time></trkpt><trkpt lat="45.94534227149326" lon="12.427642027831718"><ele>49.0</ele><time>2026-04-05T16:13:25Z</time></trkpt><trkpt lat="45.94534613542709" lon="12.42739780170142"><ele>49.0</ele><time>2026-04-05T16:13:26Z</time></trkpt><trkpt lat="45.945354712713815" lon="12.427165752768206"><ele>49.33333333333333</ele><time>2026-04-05T16:13:27Z</time></trkpt><trkpt lat="45.945360718852946" lon="12.426969594743193"><ele>49.66666666666667</ele><time>2026-04-05T16:13:28Z</time></trkpt><trkpt lat="45.94535880365233" lon="12.426740874133019"><ele>50.0</ele><time>2026-04-05T16:13:29Z</time></trkpt><trkpt lat="45.94538030591474" lon="12.42651084785068"><ele>50.25</ele><time>2026-04-05T16:13:30Z</time></trkpt><trkpt lat="45.945387642375955" lon="12.426293429010489"><ele>50.5</ele><time>2026-04-05T16:13:31Z</time></trkpt><trkpt lat="45.945394585654746" lon="12.426087661483836"><ele>50.75</ele><time>2026-04-05T16:13:32Z</time></trkpt><trkpt lat="45.94538580596547" lon="12.425876792501883"><ele>51.0</ele><time>2026-04-05T16:13:33Z</time></trkpt><trkpt lat="45.94539373047195" lon="12.425666899385298"><ele>51.0</ele><time>2026-04-05T16:13:34Z</time></trkpt><trkpt lat="45.94540380724799" lon="12.425451115471512"><ele>51.0</ele><time>2026-04-05T16:13:35Z</time></trkpt><trkpt lat="45.94541609541375" lon="12.425243091381027"><ele>51.0</ele><time>2026-04-05T16:13:36Z</time></trkpt><trkpt lat="45.94543070020173" lon="12.425023467741529"><ele>51.0</ele><time>2026-04-05T16:13:37Z</time></trkpt><trkpt lat="45.94543794489373" lon="12.424788787808538"><ele>51.0</ele><time>2026-04-05T16:13:38Z</time></trkpt><trkpt lat="45.94545110886248" lon="12.424569448657932"><ele>51.0</ele><time>2026-04-05T16:13:39Z</time></trkpt><trkpt lat="45.94546118716257" lon="12.424355870034086"><ele>51.0</ele><time>2026-04-05T16:13:40Z</time></trkpt><trkpt lat="45.94547274134484" lon="12.424142664709834"><ele>51.0</ele><time>2026-04-05T16:13:41Z</time></trkpt><trkpt lat="45.945485661694605" lon="12.423935261850119"><ele>51.0</ele><time>2026-04-05T16:13:42Z</time></trkpt><trkpt lat="45.945492608041484" lon="12.423728289919362"><ele>51.0</ele><time>2026-04-05T16:13:43Z</time></trkpt><trkpt lat="45.9454936681403" lon="12.42352329781091"><ele>51.0</ele><time>2026-04-05T16:13:44Z</time></trkpt><trkpt lat="45.94550750087591" lon="12.42333384129226"><ele>51.0</ele><time>2026-04-05T16:13:45Z</time></trkpt><trkpt lat="45.94552854922204" lon="12.423130740288617"><ele>51.0</ele><time>2026-04-05T16:13:46Z</time></trkpt><trkpt lat="45.94555144020365" lon="12.422949460766908"><ele>51.0</ele><time>2026-04-05T16:13:47Z</time></trkpt><trkpt lat="45.945583010105246" lon="12.422752724184425"><ele>51.0</ele><time>2026-04-05T16:13:48Z</time></trkpt><trkpt lat="45.945616221724556" lon="12.422554487339326"><ele>51.0</ele><time>2026-04-05T16:13:49Z</time></trkpt><trkpt lat="45.94564272134626" lon="12.422354731671595"><ele>51.0</ele><time>2026-04-05T16:13:50Z</time></trkpt><trkpt lat="45.945666875430426" lon="12.422156824775724"><ele>51.0</ele><time>2026-04-05T16:13:51Z</time></trkpt><trkpt lat="45.94568708466805" lon="12.421964629850795"><ele>51.0</ele><time>2026-04-05T16:13:52Z</time></trkpt><trkpt lat="45.94569723948313" lon="12.421749955088819"><ele>51.0</ele><time>2026-04-05T16:13:53Z</time></trkpt><trkpt lat="45.94572411662417" lon="12.421546346037278"><ele>51.0</ele><time>2026-04-05T16:13:54Z</time></trkpt><trkpt lat="45.94571787832682" lon="12.421314271023023"><ele>51.0</ele><time>2026-04-05T16:13:55Z</time></trkpt><trkpt lat="45.94570574701974" lon="12.42108796694774"><ele>51.0</ele><time>2026-04-05T16:13:56Z</time></trkpt><trkpt lat="45.94568227808883" lon="12.420838725720273"><ele>51.0</ele><time>2026-04-05T16:13:57Z</time></trkpt><trkpt lat="45.94565506460884" lon="12.420585189171511"><ele>51.0</ele><time>2026-04-05T16:13:58Z</time></trkpt><trkpt lat="45.94563612958442" lon="12.420318051318242"><ele>51.0</ele><time>2026-04-05T16:13:59Z</time></trkpt><trkpt lat="45.94561926341425" lon="12.420034576683008"><ele>51.0</ele><time>2026-04-05T16:14:00Z</time></trkpt><trkpt lat="45.94560273709359" lon="12.419745819390464"><ele>51.0</ele><time>2026-04-05T16:14:01Z</time></trkpt><trkpt lat="45.94558109601545" lon="12.419459189893123"><ele>51.33333333333333</ele><time>2026-04-05T16:14:02Z</time></trkpt><trkpt lat="45.94555531093459" lon="12.419170397078663"><ele>51.666666666666664</ele><time>2026-04-05T16:14:03Z</time></trkpt><trkpt lat="45.9455328120217" lon="12.4188965720426"><ele>52.0</ele><time>2026-04-05T16:14:04Z</time></trkpt><trkpt lat="45.945521229025296" lon="12.418638822164686"><ele>52.33333333333333</ele><time>2026-04-05T16:14:05Z</time></trkpt><trkpt lat="45.94550325067505" lon="12.418371672929169"><ele>52.66666666666667</ele><time>2026-04-05T16:14:06Z</time></trkpt><trkpt lat="45.94547947588862" lon="12.418131572112255"><ele>53.0</ele><time>2026-04-05T16:14:07Z</time></trkpt><trkpt lat="45.9454519304839" lon="12.417906794182326"><ele>54.0</ele><time>2026-04-05T16:14:08Z</time></trkpt><trkpt lat="45.94543079130006" lon="12.417685512370193"><ele>55.0</ele><time>2026-04-05T16:14:09Z</time></trkpt><trkpt lat="45.94541752578753" lon="12.417489348166102"><ele>56.0</ele><time>2026-04-05T16:14:10Z</time></trkpt><trkpt lat="45.9454008579223" lon="12.417300202469269"><ele>57.0</ele><time>2026-04-05T16:14:11Z</time></trkpt><trkpt lat="45.94538823092905" lon="12.417135012074732"><ele>57.0</ele><time>2026-04-05T16:14:12Z</time></trkpt><trkpt lat="45.94540125622766" lon="12.417006352882067"><ele>57.0</ele><time>2026-04-05T16:14:13Z</time></trkpt><trkpt lat="45.94542458844285" lon="12.416871951552418"><ele>57.0</ele><time>2026-04-05T16:14:14Z</time></trkpt><trkpt lat="45.94546236219501" lon="12.416722280414156"><ele>57.0</ele><time>2026-04-05T16:14:15Z</time></trkpt><trkpt lat="45.94549985624825" lon="12.416592610408506"><ele>57.0</ele><time>2026-04-05T16:14:16Z</time></trkpt><trkpt lat="45.94549562249121" lon="12.416428892922989"><ele>57.0</ele><time>2026-04-05T16:14:17Z</time></trkpt><trkpt lat="45.945456508371095" lon="12.416216011033608"><ele>57.0</ele><time>2026-04-05T16:14:18Z</time></trkpt><trkpt lat="45.94544226822832" lon="12.415994042564817"><ele>57.0</ele><time>2026-04-05T16:14:19Z</time></trkpt><trkpt lat="45.94546747848505" lon="12.415755448604529"><ele>57.0</ele><time>2026-04-05T16:14:20.015Z</time></trkpt><trkpt lat="45.94550588337493" lon="12.415527609949418"><ele>57.0</ele><time>2026-04-05T16:14:21.015Z</time></trkpt><trkpt lat="45.94555486828532" lon="12.41526748601659"><ele>57.0</ele><time>2026-04-05T16:14:22.015Z</time></trkpt><trkpt lat="45.94561192025919" lon="12.414996552252308"><ele>57.0</ele><time>2026-04-05T16:14:23.011Z</time></trkpt><trkpt lat="45.94566966900661" lon="12.414724259374724"><ele>57.0</ele><time>2026-04-05T16:14:24.016Z</time></trkpt><trkpt lat="45.947168888566964" lon="12.409405466180676"><ele>57.0</ele><time>2026-04-05T16:14:41.999Z</time></trkpt><trkpt lat="45.947280863046785" lon="12.40910067468129"><ele>57.0</ele><time>2026-04-05T16:14:42.999Z</time></trkpt><trkpt lat="45.947715904044195" lon="12.408833342339951"><ele>56.5</ele><time>2026-04-05T16:14:43.999Z</time></trkpt><trkpt lat="45.94783243210443" lon="12.408539035663024"><ele>56.0</ele><time>2026-04-05T16:14:44.999Z</time></trkpt><trkpt lat="45.94794031001335" lon="12.408267963922423"><ele>56.0</ele><time>2026-04-05T16:14:45.999Z</time></trkpt><trkpt lat="45.948043661954266" lon="12.407999828914217"><ele>56.0</ele><time>2026-04-05T16:14:46.999Z</time></trkpt><trkpt lat="45.94814818682445" lon="12.407729426613688"><ele>56.0</ele><time>2026-04-05T16:14:47.999Z</time></trkpt><trkpt lat="45.94825161054439" lon="12.40745588492146"><ele>56.0</ele><time>2026-04-05T16:14:48.999Z</time></trkpt><trkpt lat="45.94836850412622" lon="12.407177632832473"><ele>56.0</ele><time>2026-04-05T16:14:49.999Z</time></trkpt><trkpt lat="45.94847526762935" lon="12.406896156888484"><ele>56.0</ele><time>2026-04-05T16:14:50.999Z</time></trkpt><trkpt lat="45.948580015844996" lon="12.406609021425393"><ele>57.66666666666667</ele><time>2026-04-05T16:14:51.999Z</time></trkpt><trkpt lat="45.94866511218918" lon="12.40632626435572"><ele>59.33333333333333</ele><time>2026-04-05T16:14:52.999Z</time></trkpt><trkpt lat="45.94877660144816" lon="12.406037099802354"><ele>61.0</ele><time>2026-04-05T16:14:53.999Z</time></trkpt><trkpt lat="45.94888045224504" lon="12.405735803552199"><ele>61.33333333333333</ele><time>2026-04-05T16:14:55.012Z</time></trkpt><trkpt lat="45.9489773385991" lon="12.40544871758611"><ele>61.66666666666667</ele><time>2026-04-05T16:14:55.999Z</time></trkpt><trkpt lat="45.9490834298156" lon="12.40517486135733"><ele>62.0</ele><time>2026-04-05T16:14:56.999Z</time></trkpt><trkpt lat="45.94916186113389" lon="12.404920751642802"><ele>62.0</ele><time>2026-04-05T16:14:57.999Z</time></trkpt><trkpt lat="45.949258316653555" lon="12.404650995890268"><ele>62.0</ele><time>2026-04-05T16:14:58.999Z</time></trkpt><trkpt lat="45.94938348074878" lon="12.404408563285017"><ele>62.0</ele><time>2026-04-05T16:14:59.999Z</time></trkpt><trkpt lat="45.949488331173704" lon="12.404134890145327"><ele>62.0</ele><time>2026-04-05T16:15:00.999Z</time></trkpt><trkpt lat="45.949592976678346" lon="12.403855817058341"><ele>62.0</ele><time>2026-04-05T16:15:01.999Z</time></trkpt><trkpt lat="45.94969922971136" lon="12.403573486263717"><ele>62.0</ele><time>2026-04-05T16:15:02.999Z</time></trkpt><trkpt lat="45.94980364841566" lon="12.403293099459628"><ele>62.0</ele><time>2026-04-05T16:15:03.999Z</time></trkpt><trkpt lat="45.94985914990648" lon="12.402999840882138"><ele>62.0</ele><time>2026-04-05T16:15:04.999Z</time></trkpt><trkpt lat="45.95003625140178" lon="12.402773978528463"><ele>62.0</ele><time>2026-04-05T16:15:05.999Z</time></trkpt><trkpt lat="45.95009134702672" lon="12.402475776367552"><ele>62.0</ele><time>2026-04-05T16:15:08.999Z</time></trkpt><trkpt lat="45.95009748773283" lon="12.402244670373287"><ele>62.0</ele><time>2026-04-05T16:15:09.999Z</time></trkpt><trkpt lat="45.95016896223091" lon="12.401990303656195"><ele>62.0</ele><time>2026-04-05T16:15:10.999Z</time></trkpt><trkpt lat="45.95017536138851" lon="12.401723830070878"><ele>62.333333333333336</ele><time>2026-04-05T16:15:11.999Z</time></trkpt><trkpt lat="45.95031235232494" lon="12.401479677447938"><ele>62.66666666666667</ele><time>2026-04-05T16:15:12.999Z</time></trkpt><trkpt lat="45.95010207045028" lon="12.401487078562925"><ele>63.0</ele><time>2026-04-05T16:15:13.999Z</time></trkpt><trkpt lat="45.95013302142708" lon="12.401279568335152"><ele>63.0</ele><time>2026-04-05T16:15:14.999Z</time></trkpt><trkpt lat="45.95025409928491" lon="12.400819792888848"><ele>63.0</ele><time>2026-04-05T16:15:15.999Z</time></trkpt><trkpt lat="45.95025596451901" lon="12.40054706087822"><ele>63.0</ele><time>2026-04-05T16:15:16.999Z</time></trkpt><trkpt lat="45.95027264482088" lon="12.400292334476243"><ele>63.0</ele><time>2026-04-05T16:15:17.999Z</time></trkpt><trkpt lat="45.95028930588032" lon="12.400037901788805"><ele>63.0</ele><time>2026-04-05T16:15:18.999Z</time></trkpt><trkpt lat="45.95031807820738" lon="12.399598517621158"><ele>63.0</ele><time>2026-04-05T16:15:19.999Z</time></trkpt><trkpt lat="45.95034512063949" lon="12.399198428023823"><ele>63.0</ele><time>2026-04-05T16:15:20.999Z</time></trkpt><trkpt lat="45.95036504135133" lon="12.398906572402305"><ele>64.33333333333333</ele><time>2026-04-05T16:15:21.999Z</time></trkpt><trkpt lat="45.950386379029645" lon="12.398593956786728"><ele>65.66666666666666</ele><time>2026-04-05T16:15:22.999Z</time></trkpt><trkpt lat="45.95040556976778" lon="12.398312795483479"><ele>67.0</ele><time>2026-04-05T16:15:23.999Z</time></trkpt><trkpt lat="45.950419418891364" lon="12.398108195184697"><ele>67.0</ele><time>2026-04-05T16:15:25Z</time></trkpt><trkpt lat="45.95074012897589" lon="12.397821219998958"><ele>67.0</ele><time>2026-04-05T16:15:26Z</time></trkpt><trkpt lat="45.950473838039066" lon="12.39729805258295"><ele>66.0</ele><time>2026-04-05T16:15:27Z</time></trkpt><trkpt lat="45.950499063039814" lon="12.396698380293248"><ele>65.0</ele><time>2026-04-05T16:15:28Z</time></trkpt><trkpt lat="45.950521382239444" lon="12.396396885988866"><ele>66.0</ele><time>2026-04-05T16:15:29Z</time></trkpt><trkpt lat="45.95054404874928" lon="12.396090648368753"><ele>67.0</ele><time>2026-04-05T16:15:30.017Z</time></trkpt><trkpt lat="45.95162282511017" lon="12.392132783311611"><ele>70.0</ele><time>2026-04-05T16:15:47.623Z</time></trkpt><trkpt lat="45.95217200434549" lon="12.388362125136242"><ele>71.0</ele><time>2026-04-05T16:16:08.417Z</time></trkpt><trkpt lat="45.952665338988986" lon="12.384947600118583"><ele>77.0</ele><time>2026-04-05T16:16:14.5Z</time></trkpt><trkpt lat="45.954527990004" lon="12.375100012880168"><ele>77.0</ele><time>2026-04-05T16:16:45.999Z</time></trkpt><trkpt lat="45.954583295622484" lon="12.374783458950086"><ele>77.0</ele><time>2026-04-05T16:16:46.999Z</time></trkpt><trkpt lat="45.95466201217816" lon="12.374376133823562"><ele>77.0</ele><time>2026-04-05T16:16:47.999Z</time></trkpt><trkpt lat="45.954376887527566" lon="12.374023376031088"><ele>77.0</ele><time>2026-04-05T16:16:48.999Z</time></trkpt><trkpt lat="45.954400650200355" lon="12.373693213032857"><ele>77.0</ele><time>2026-04-05T16:16:49.999Z</time></trkpt><trkpt lat="45.95446764030117" lon="12.373097492393454"><ele>77.0</ele><time>2026-04-05T16:16:50.999Z</time></trkpt><trkpt lat="45.95449665855943" lon="12.372742244333566"><ele>77.5</ele><time>2026-04-05T16:16:51.999Z</time></trkpt><trkpt lat="45.95442109803844" lon="12.3724235298006"><ele>78.0</ele><time>2026-04-05T16:16:52.999Z</time></trkpt><trkpt lat="45.954444102109036" lon="12.37207663709515"><ele>78.0</ele><time>2026-04-05T16:16:53.999Z</time></trkpt><trkpt lat="45.954555044024794" lon="12.371656757394717"><ele>78.0</ele><time>2026-04-05T16:16:54.999Z</time></trkpt><trkpt lat="45.95458937824495" lon="12.371301652426844"><ele>78.5</ele><time>2026-04-05T16:16:55.999Z</time></trkpt><trkpt lat="45.95457827976612" lon="12.370866162589593"><ele>79.0</ele><time>2026-04-05T16:16:56.999Z</time></trkpt><trkpt lat="45.95490470152137" lon="12.37030837767846"><ele>79.0</ele><time>2026-04-05T16:16:57.999Z</time></trkpt><trkpt lat="45.95504493815677" lon="12.369367419273042"><ele>79.0</ele><time>2026-04-05T16:16:58.999Z</time></trkpt><trkpt lat="45.955014297474904" lon="12.368947607608943"><ele>79.0</ele><time>2026-04-05T16:16:59.999Z</time></trkpt><trkpt lat="45.95506722919861" lon="12.368539408491047"><ele>79.0</ele><time>2026-04-05T16:17:00.999Z</time></trkpt><trkpt lat="45.95512087479013" lon="12.368125414430892"><ele>79.0</ele><time>2026-04-05T16:17:02.016Z</time></trkpt><trkpt lat="45.955697139767885" lon="12.364364555117081"><ele>80.66666666666666</ele><time>2026-04-05T16:17:13.999Z</time></trkpt><trkpt lat="45.95572681274402" lon="12.364110111358713"><ele>82.33333333333333</ele><time>2026-04-05T16:17:14.999Z</time></trkpt><trkpt lat="45.955820767927655" lon="12.363825748302249"><ele>84.0</ele><time>2026-04-05T16:17:15.999Z</time></trkpt><trkpt lat="45.95592450423088" lon="12.363454673057005"><ele>84.0</ele><time>2026-04-05T16:17:16.999Z</time></trkpt><trkpt lat="45.95594327744857" lon="12.363243310086313"><ele>84.0</ele><time>2026-04-05T16:17:18.999Z</time></trkpt><trkpt lat="45.955964067506486" lon="12.363113992671147"><ele>84.0</ele><time>2026-04-05T16:17:19.999Z</time></trkpt><trkpt lat="45.9559959339398" lon="12.362986462702345"><ele>84.0</ele><time>2026-04-05T16:17:20.999Z</time></trkpt><trkpt lat="45.9560273410384" lon="12.36284878995668"><ele>84.0</ele><time>2026-04-05T16:17:21.999Z</time></trkpt><trkpt lat="45.9560635007894" lon="12.36272210325749"><ele>84.0</ele><time>2026-04-05T16:17:22.999Z</time></trkpt><trkpt lat="45.9560636737969" lon="12.362599045256042"><ele>84.0</ele><time>2026-04-05T16:17:23.999Z</time></trkpt><trkpt lat="45.9560776525295" lon="12.362458133758338"><ele>84.0</ele><time>2026-04-05T16:17:24.999Z</time></trkpt><trkpt lat="45.95609636903641" lon="12.362303066557335"><ele>84.0</ele><time>2026-04-05T16:17:25.999Z</time></trkpt><trkpt lat="45.95616191923101" lon="12.362130759282913"><ele>84.0</ele><time>2026-04-05T16:17:27.999Z</time></trkpt><trkpt lat="45.95627664749422" lon="12.362052023379754"><ele>84.16666666666667</ele><time>2026-04-05T16:17:28.999Z</time></trkpt><trkpt lat="45.95632478716499" lon="12.361971914039552"><ele>84.33333333333333</ele><time>2026-04-05T16:17:29.999Z</time></trkpt><trkpt lat="45.956379420071386" lon="12.361880302658118"><ele>84.5</ele><time>2026-04-05T16:17:31Z</time></trkpt><trkpt lat="45.95642847189484" lon="12.361793929744247"><ele>84.66666666666666</ele><time>2026-04-05T16:17:32Z</time></trkpt><trkpt lat="45.95642558398214" lon="12.361644145060737"><ele>84.83333333333333</ele><time>2026-04-05T16:17:33Z</time></trkpt><trkpt lat="45.95646891867231" lon="12.361519338719171"><ele>85.0</ele><time>2026-04-05T16:17:34Z</time></trkpt><trkpt lat="45.956539976151305" lon="12.361362958796995"><ele>85.2</ele><time>2026-04-05T16:17:35Z</time></trkpt><trkpt lat="45.95653849525713" lon="12.361196526794238"><ele>85.4</ele><time>2026-04-05T16:17:36Z</time></trkpt><trkpt lat="45.956575881829615" lon="12.361042421016336"><ele>85.6</ele><time>2026-04-05T16:17:37Z</time></trkpt><trkpt lat="45.95662434559757" lon="12.360862103435892"><ele>85.8</ele><time>2026-04-05T16:17:39Z</time></trkpt><trkpt lat="45.95666736503967" lon="12.360760388259672"><ele>86.0</ele><time>2026-04-05T16:17:40Z</time></trkpt><trkpt lat="45.9567004524563" lon="12.360665094590882"><ele>86.25</ele><time>2026-04-05T16:17:42Z</time></trkpt><trkpt lat="45.95676781770241" lon="12.360471078927965"><ele>86.5</ele><time>2026-04-05T16:17:43Z</time></trkpt><trkpt lat="45.95675126467661" lon="12.360706166523864"><ele>86.75</ele><time>2026-04-05T16:17:44Z</time></trkpt><trkpt lat="45.95678043734602" lon="12.360622147299804"><ele>87.0</ele><time>2026-04-05T16:17:46Z</time></trkpt><trkpt lat="45.95681225534903" lon="12.360530509674707"><ele>87.0</ele><time>2026-04-05T16:17:48Z</time></trkpt><trkpt lat="45.95684253983247" lon="12.360443289001259"><ele>87.0</ele><time>2026-04-05T16:17:50Z</time></trkpt><trkpt lat="45.95687808038006" lon="12.360339350398958"><ele>87.0</ele><time>2026-04-05T16:17:52Z</time></trkpt><trkpt lat="45.95689140444648" lon="12.360208685174447"><ele>87.0</ele><time>2026-04-05T16:18:00Z</time></trkpt><trkpt lat="45.95690203994666" lon="12.360077577394188"><ele>87.0</ele><time>2026-04-05T16:18:02Z</time></trkpt><trkpt lat="45.956919233766286" lon="12.35994855926819"><ele>87.0</ele><time>2026-04-05T16:18:04Z</time></trkpt><trkpt lat="45.95693345840561" lon="12.359820346289922"><ele>87.0</ele><time>2026-04-05T16:18:06Z</time></trkpt><trkpt lat="45.95702655765998" lon="12.360109067689907"><ele>87.0</ele><time>2026-04-05T16:18:07Z</time></trkpt><trkpt lat="45.956980555542906" lon="12.359984668008677"><ele>87.0</ele><time>2026-04-05T16:18:08Z</time></trkpt><trkpt lat="45.95699262711403" lon="12.359860793813013"><ele>87.0</ele><time>2026-04-05T16:18:10Z</time></trkpt><trkpt lat="45.95765821744403" lon="12.358715809608967"><ele>87.33333333333333</ele><time>2026-04-05T16:18:11Z</time></trkpt><trkpt lat="45.95750615728221" lon="12.358367131932225"><ele>87.66666666666666</ele><time>2026-04-05T16:18:12Z</time></trkpt><trkpt lat="45.95756052917816" lon="12.358185876510529"><ele>88.0</ele><time>2026-04-05T16:18:14Z</time></trkpt><trkpt lat="45.957600700534854" lon="12.358067212315921"><ele>87.66666666666666</ele><time>2026-04-05T16:18:15Z</time></trkpt><trkpt lat="45.957725794341954" lon="12.357702601854463"><ele>87.33333333333333</ele><time>2026-04-05T16:18:16Z</time></trkpt><trkpt lat="45.95778482799272" lon="12.357530283639592"><ele>87.0</ele><time>2026-04-05T16:18:17Z</time></trkpt><trkpt lat="45.95785108965376" lon="12.357336915460865"><ele>87.0</ele><time>2026-04-05T16:18:18Z</time></trkpt><trkpt lat="45.95788904343147" lon="12.35722631585682"><ele>87.0</ele><time>2026-04-05T16:18:19Z</time></trkpt><trkpt lat="45.95793688354239" lon="12.357086906929338"><ele>87.0</ele><time>2026-04-05T16:18:20Z</time></trkpt><trkpt lat="45.95799199471802" lon="12.356926309670815"><ele>87.0</ele><time>2026-04-05T16:18:21Z</time></trkpt><trkpt lat="45.95803132578191" lon="12.356811696609606"><ele>87.0</ele><time>2026-04-05T16:18:22Z</time></trkpt><trkpt lat="45.9581165852228" lon="12.35656324548528"><ele>87.33333333333333</ele><time>2026-04-05T16:18:23Z</time></trkpt><trkpt lat="45.95816845819017" lon="12.356411533931821"><ele>87.66666666666666</ele><time>2026-04-05T16:18:24Z</time></trkpt><trkpt lat="45.95827646974249" lon="12.356095322233783"><ele>88.0</ele><time>2026-04-05T16:18:25Z</time></trkpt><trkpt lat="45.958350067673436" lon="12.355871849148013"><ele>87.0</ele><time>2026-04-05T16:18:26Z</time></trkpt><trkpt lat="45.95841323233851" lon="12.3556506066666"><ele>86.0</ele><time>2026-04-05T16:18:27Z</time></trkpt><trkpt lat="45.95845812341614" lon="12.35546617032038"><ele>85.0</ele><time>2026-04-05T16:18:28Z</time></trkpt><trkpt lat="45.958532106356266" lon="12.355090000458356"><ele>85.0</ele><time>2026-04-05T16:18:29Z</time></trkpt><trkpt lat="45.95856738862247" lon="12.35480603871748"><ele>85.0</ele><time>2026-04-05T16:18:30Z</time></trkpt><trkpt lat="45.958600438541026" lon="12.354229689752662"><ele>87.0</ele><time>2026-04-05T16:18:31Z</time></trkpt><trkpt lat="45.95842453740658" lon="12.352753032876326"><ele>87.0</ele><time>2026-04-05T16:18:34Z</time></trkpt><trkpt lat="45.958369963852235" lon="12.352520470448814"><ele>87.0</ele><time>2026-04-05T16:18:35Z</time></trkpt><trkpt lat="45.95831438399599" lon="12.352284995337824"><ele>87.0</ele><time>2026-04-05T16:18:36Z</time></trkpt><trkpt lat="45.95825902908212" lon="12.352049354997211"><ele>89.5</ele><time>2026-04-05T16:18:37Z</time></trkpt><trkpt lat="45.9582026948912" lon="12.351812647887634"><ele>92.0</ele><time>2026-04-05T16:18:38.017Z</time></trkpt><trkpt lat="45.95691238999921" lon="12.343774493795207"><ele>93.0</ele><time>2026-04-05T16:19:00.999Z</time></trkpt><trkpt lat="45.956887921820595" lon="12.34343940240809"><ele>94.0</ele><time>2026-04-05T16:19:01.999Z</time></trkpt><trkpt lat="45.95711975466726" lon="12.343242827298871"><ele>94.33333333333333</ele><time>2026-04-05T16:19:02.999Z</time></trkpt><trkpt lat="45.957225904045515" lon="12.342959236435592"><ele>94.66666666666667</ele><time>2026-04-05T16:19:03.999Z</time></trkpt><trkpt lat="45.957262564465545" lon="12.342675899266425"><ele>95.0</ele><time>2026-04-05T16:19:04.999Z</time></trkpt><trkpt lat="45.95731970269594" lon="12.342438082233617"><ele>95.0</ele><time>2026-04-05T16:19:05.999Z</time></trkpt><trkpt lat="45.95737880682414" lon="12.342180282630597"><ele>95.0</ele><time>2026-04-05T16:19:06.999Z</time></trkpt><trkpt lat="45.95742689357128" lon="12.341996652552433"><ele>95.0</ele><time>2026-04-05T16:19:07.999Z</time></trkpt><trkpt lat="45.95747253932255" lon="12.341842495357367"><ele>95.0</ele><time>2026-04-05T16:19:08.999Z</time></trkpt><trkpt lat="45.95751265142903" lon="12.341679820525169"><ele>94.8</ele><time>2026-04-05T16:19:09.999Z</time></trkpt><trkpt lat="45.957581057837544" lon="12.34163676807029"><ele>94.6</ele><time>2026-04-05T16:19:10.999Z</time></trkpt><trkpt lat="45.957579957020826" lon="12.341501001484815"><ele>94.4</ele><time>2026-04-05T16:19:11.999Z</time></trkpt><trkpt lat="45.95758011408025" lon="12.34136402694548"><ele>94.2</ele><time>2026-04-05T16:19:12.999Z</time></trkpt><trkpt lat="45.95761742054263" lon="12.341210303848282"><ele>94.0</ele><time>2026-04-05T16:19:13.999Z</time></trkpt><trkpt lat="45.95763026724806" lon="12.34106915517129"><ele>93.66666666666666</ele><time>2026-04-05T16:19:14.999Z</time></trkpt><trkpt lat="45.95765365160638" lon="12.34091325866441"><ele>93.33333333333333</ele><time>2026-04-05T16:19:15.999Z</time></trkpt><trkpt lat="45.957715457759846" lon="12.340491242348483"><ele>93.0</ele><time>2026-04-05T16:19:16.999Z</time></trkpt><trkpt lat="45.95777191145111" lon="12.340246633417118"><ele>93.33333333333333</ele><time>2026-04-05T16:19:17.999Z</time></trkpt><trkpt lat="45.957838859779514" lon="12.339988723305359"><ele>93.66666666666666</ele><time>2026-04-05T16:19:18.999Z</time></trkpt><trkpt lat="45.95786460568907" lon="12.3396675142882"><ele>94.0</ele><time>2026-04-05T16:19:19.999Z</time></trkpt><trkpt lat="45.957922433953655" lon="12.339344320759862"><ele>94.0</ele><time>2026-04-05T16:19:20.999Z</time></trkpt><trkpt lat="45.95795973344528" lon="12.339061598815443"><ele>94.0</ele><time>2026-04-05T16:19:21.999Z</time></trkpt><trkpt lat="45.95798824789447" lon="12.338898985935744"><ele>94.0</ele><time>2026-04-05T16:19:22.999Z</time></trkpt><trkpt lat="45.95803280238487" lon="12.338601495140978"><ele>94.0</ele><time>2026-04-05T16:19:23.999Z</time></trkpt><trkpt lat="45.9580792675471" lon="12.338318626486883"><ele>94.0</ele><time>2026-04-05T16:19:24.999Z</time></trkpt><trkpt lat="45.958127373127084" lon="12.338029292114605"><ele>94.0</ele><time>2026-04-05T16:19:25.999Z</time></trkpt><trkpt lat="45.95817636945216" lon="12.337735504053002"><ele>95.0</ele><time>2026-04-05T16:19:26.999Z</time></trkpt><trkpt lat="45.95822261854852" lon="12.337462594691779"><ele>96.0</ele><time>2026-04-05T16:19:27.999Z</time></trkpt><trkpt lat="45.958277435490324" lon="12.337128735708124"><ele>97.0</ele><time>2026-04-05T16:19:28.999Z</time></trkpt><trkpt lat="45.958331045141044" lon="12.336810509034128"><ele>97.0</ele><time>2026-04-05T16:19:29.999Z</time></trkpt><trkpt lat="45.95837774708818" lon="12.33652550030413"><ele>97.0</ele><time>2026-04-05T16:19:30.999Z</time></trkpt><trkpt lat="45.95842543576265" lon="12.33623553470478"><ele>97.0</ele><time>2026-04-05T16:19:31.999Z</time></trkpt><trkpt lat="45.95846572540612" lon="12.336006865787258"><ele>97.0</ele><time>2026-04-05T16:19:32.999Z</time></trkpt><trkpt lat="45.958517582617525" lon="12.335740986269741"><ele>97.0</ele><time>2026-04-05T16:19:33.999Z</time></trkpt><trkpt lat="45.9585731002837" lon="12.335504842014025"><ele>97.0</ele><time>2026-04-05T16:19:34.999Z</time></trkpt><trkpt lat="45.95863588272827" lon="12.335291608800794"><ele>97.33333333333334</ele><time>2026-04-05T16:19:35.999Z</time></trkpt><trkpt lat="45.958725130467684" lon="12.335018872435429"><ele>97.66666666666666</ele><time>2026-04-05T16:19:37Z</time></trkpt><trkpt lat="45.95882104126106" lon="12.334766170351607"><ele>98.0</ele><time>2026-04-05T16:19:38Z</time></trkpt><trkpt lat="45.95891901079377" lon="12.334508330714918"><ele>98.33333333333333</ele><time>2026-04-05T16:19:39Z</time></trkpt><trkpt lat="45.95901763334889" lon="12.334223932602944"><ele>98.66666666666666</ele><time>2026-04-05T16:19:40Z</time></trkpt><trkpt lat="45.959106562865735" lon="12.334014724627568"><ele>99.0</ele><time>2026-04-05T16:19:41Z</time></trkpt><trkpt lat="45.959200992105366" lon="12.333765740167568"><ele>98.0</ele><time>2026-04-05T16:19:42Z</time></trkpt><trkpt lat="45.959328655711225" lon="12.333428101580747"><ele>97.0</ele><time>2026-04-05T16:19:43Z</time></trkpt><trkpt lat="45.959467711467205" lon="12.333058037266063"><ele>98.5</ele><time>2026-04-05T16:19:44Z</time></trkpt><trkpt lat="45.95957882965707" lon="12.332762384135144"><ele>100.0</ele><time>2026-04-05T16:19:45Z</time></trkpt><trkpt lat="45.95968508998367" lon="12.33247965640069"><ele>100.33333333333334</ele><time>2026-04-05T16:19:46Z</time></trkpt><trkpt lat="45.95978696172335" lon="12.332208605411255"><ele>100.66666666666666</ele><time>2026-04-05T16:19:47Z</time></trkpt><trkpt lat="45.959891218853826" lon="12.331931207601777"><ele>101.0</ele><time>2026-04-05T16:19:48Z</time></trkpt><trkpt lat="45.959953027374226" lon="12.331766753114625"><ele>100.33333333333333</ele><time>2026-04-05T16:19:49Z</time></trkpt><trkpt lat="45.96003566400636" lon="12.331507881743502"><ele>99.66666666666666</ele><time>2026-04-05T16:19:50Z</time></trkpt><trkpt lat="45.960146890985605" lon="12.33126489708476"><ele>99.0</ele><time>2026-04-05T16:19:51Z</time></trkpt><trkpt lat="45.960230983520475" lon="12.331015211999102"><ele>99.0</ele><time>2026-04-05T16:19:52Z</time></trkpt><trkpt lat="45.960332881989316" lon="12.330768173127748"><ele>99.0</ele><time>2026-04-05T16:19:53Z</time></trkpt><trkpt lat="45.96042584278163" lon="12.330526634294023"><ele>99.0</ele><time>2026-04-05T16:19:54Z</time></trkpt><trkpt lat="45.96052149399331" lon="12.330277168788601"><ele>99.66666666666666</ele><time>2026-04-05T16:19:55Z</time></trkpt><trkpt lat="45.96061747951759" lon="12.33002562651897"><ele>100.33333333333333</ele><time>2026-04-05T16:19:56Z</time></trkpt><trkpt lat="45.9607308771555" lon="12.32975594780214"><ele>101.0</ele><time>2026-04-05T16:19:57Z</time></trkpt><trkpt lat="45.960824131793174" lon="12.329491878884657"><ele>101.0</ele><time>2026-04-05T16:19:58Z</time></trkpt><trkpt lat="45.960910622487184" lon="12.32922510778266"><ele>101.0</ele><time>2026-04-05T16:19:59Z</time></trkpt><trkpt lat="45.96107853805373" lon="12.328809123315954"><ele>101.0</ele><time>2026-04-05T16:20:00Z</time></trkpt><trkpt lat="45.961182604496166" lon="12.328534247379935"><ele>101.0</ele><time>2026-04-05T16:20:01Z</time></trkpt><trkpt lat="45.96128198730435" lon="12.328213013348948"><ele>102.5</ele><time>2026-04-05T16:20:02Z</time></trkpt><trkpt lat="45.96150703675206" lon="12.327664690041683"><ele>104.0</ele><time>2026-04-05T16:20:03Z</time></trkpt><trkpt lat="45.961636361522984" lon="12.327391457681964"><ele>104.5</ele><time>2026-04-05T16:20:04Z</time></trkpt><trkpt lat="45.96186561985335" lon="12.326982006744391"><ele>105.0</ele><time>2026-04-05T16:20:05Z</time></trkpt><trkpt lat="45.96182782048071" lon="12.326610685115073"><ele>105.5</ele><time>2026-04-05T16:20:06Z</time></trkpt><trkpt lat="45.96199314439162" lon="12.326333759133727"><ele>106.0</ele><time>2026-04-05T16:20:07Z</time></trkpt><trkpt lat="45.96209618846216" lon="12.326080894671986"><ele>106.0</ele><time>2026-04-05T16:20:08Z</time></trkpt><trkpt lat="45.962236237299905" lon="12.325806708789324"><ele>106.0</ele><time>2026-04-05T16:20:09Z</time></trkpt><trkpt lat="45.96228542355144" lon="12.325596036848005"><ele>106.0</ele><time>2026-04-05T16:20:10Z</time></trkpt><trkpt lat="45.962399220199636" lon="12.325303976643546"><ele>106.0</ele><time>2026-04-05T16:20:11Z</time></trkpt><trkpt lat="45.962521120280634" lon="12.325031268634108"><ele>106.0</ele><time>2026-04-05T16:20:12Z</time></trkpt><trkpt lat="45.96267033906885" lon="12.324774121609435"><ele>106.0</ele><time>2026-04-05T16:20:13Z</time></trkpt><trkpt lat="45.96282397423537" lon="12.324530895206257"><ele>106.0</ele><time>2026-04-05T16:20:14Z</time></trkpt><trkpt lat="45.96292748623757" lon="12.324225879715604"><ele>106.0</ele><time>2026-04-05T16:20:15Z</time></trkpt><trkpt lat="45.96302465324008" lon="12.3241477622652"><ele>106.0</ele><time>2026-04-05T16:20:16Z</time></trkpt><trkpt lat="45.963093329901966" lon="12.32396027357564"><ele>106.0</ele><time>2026-04-05T16:20:17Z</time></trkpt><trkpt lat="45.963243696687435" lon="12.323804526645976"><ele>106.0</ele><time>2026-04-05T16:20:18.016Z</time></trkpt><trkpt lat="45.9637487448951" lon="12.322753297453161"><ele>106.0</ele><time>2026-04-05T16:20:27Z</time></trkpt><trkpt lat="45.96384937400953" lon="12.322620792094481"><ele>106.0</ele><time>2026-04-05T16:20:28Z</time></trkpt><trkpt lat="45.96397643968404" lon="12.322446949678913"><ele>106.0</ele><time>2026-04-05T16:20:30Z</time></trkpt><trkpt lat="45.964050567894034" lon="12.32251626000699"><ele>106.0</ele><time>2026-04-05T16:20:31Z</time></trkpt><trkpt lat="45.96423827605834" lon="12.322604875990407"><ele>106.0</ele><time>2026-04-05T16:20:34Z</time></trkpt><trkpt lat="45.96423281248051" lon="12.322502028153743"><ele>106.0</ele><time>2026-04-05T16:20:35Z</time></trkpt><trkpt lat="45.964312847099045" lon="12.322380202243197"><ele>106.0</ele><time>2026-04-05T16:20:36Z</time></trkpt><trkpt lat="45.96438235978396" lon="12.322298865753638"><ele>106.0</ele><time>2026-04-05T16:20:37Z</time></trkpt><trkpt lat="45.96444333412757" lon="12.322219177366796"><ele>106.0</ele><time>2026-04-05T16:20:38Z</time></trkpt><trkpt lat="45.964475807936736" lon="12.322089222550629"><ele>106.25</ele><time>2026-04-05T16:20:39Z</time></trkpt><trkpt lat="45.96451381824" lon="12.321944371313228"><ele>106.5</ele><time>2026-04-05T16:20:40Z</time></trkpt><trkpt lat="45.96458358332221" lon="12.321803058588365"><ele>106.75</ele><time>2026-04-05T16:20:41Z</time></trkpt><trkpt lat="45.96468343028547" lon="12.321664372538633"><ele>107.0</ele><time>2026-04-05T16:20:42Z</time></trkpt><trkpt lat="45.96478581581485" lon="12.321551310184155"><ele>107.0</ele><time>2026-04-05T16:20:43Z</time></trkpt><trkpt lat="45.964895240608406" lon="12.321456006161101"><ele>107.0</ele><time>2026-04-05T16:20:44Z</time></trkpt><trkpt lat="45.964980917943514" lon="12.321340877293478"><ele>107.0</ele><time>2026-04-05T16:20:45Z</time></trkpt><trkpt lat="45.96505882685544" lon="12.32124171625426"><ele>107.0</ele><time>2026-04-05T16:20:46Z</time></trkpt><trkpt lat="45.965171231947075" lon="12.321191136597712"><ele>107.25</ele><time>2026-04-05T16:20:47Z</time></trkpt><trkpt lat="45.96524950448692" lon="12.32109626640517"><ele>107.5</ele><time>2026-04-05T16:20:48Z</time></trkpt><trkpt lat="45.96532766194758" lon="12.321006695819603"><ele>107.75</ele><time>2026-04-05T16:20:49Z</time></trkpt><trkpt lat="45.965409701436585" lon="12.320908463267404"><ele>108.0</ele><time>2026-04-05T16:20:50Z</time></trkpt><trkpt lat="45.9656699662276" lon="12.320269203894284"><ele>108.66666666666666</ele><time>2026-04-05T16:20:51Z</time></trkpt><trkpt lat="45.96577574428877" lon="12.320135359511848"><ele>109.33333333333333</ele><time>2026-04-05T16:20:52Z</time></trkpt><trkpt lat="45.96587012306515" lon="12.319981901358306"><ele>110.0</ele><time>2026-04-05T16:20:53Z</time></trkpt><trkpt lat="45.965849469846404" lon="12.3197324629353"><ele>109.66666666666666</ele><time>2026-04-05T16:20:54Z</time></trkpt><trkpt lat="45.9659428834467" lon="12.319545898824297"><ele>109.33333333333334</ele><time>2026-04-05T16:20:55Z</time></trkpt><trkpt lat="45.96608943765656" lon="12.319372152114378"><ele>109.0</ele><time>2026-04-05T16:20:56Z</time></trkpt><trkpt lat="45.96618120684983" lon="12.31911463841792"><ele>109.33333333333334</ele><time>2026-04-05T16:20:57Z</time></trkpt><trkpt lat="45.96632195614958" lon="12.318800363502332"><ele>109.66666666666666</ele><time>2026-04-05T16:20:58Z</time></trkpt><trkpt lat="45.96641054301417" lon="12.318741486636055"><ele>110.0</ele><time>2026-04-05T16:20:59Z</time></trkpt><trkpt lat="45.966514378397804" lon="12.318491798535145"><ele>110.0</ele><time>2026-04-05T16:21:00Z</time></trkpt><trkpt lat="45.96662843467857" lon="12.318131512364477"><ele>110.0</ele><time>2026-04-05T16:21:01Z</time></trkpt><trkpt lat="45.96678895099562" lon="12.318040367603144"><ele>110.0</ele><time>2026-04-05T16:21:02.999Z</time></trkpt><trkpt lat="45.96689592584036" lon="12.317815673799682"><ele>109.66666666666666</ele><time>2026-04-05T16:21:03.999Z</time></trkpt><trkpt lat="45.96700215029029" lon="12.317650442701792"><ele>109.33333333333334</ele><time>2026-04-05T16:21:04.999Z</time></trkpt><trkpt lat="45.96710564376309" lon="12.317478492800902"><ele>109.0</ele><time>2026-04-05T16:21:05.999Z</time></trkpt><trkpt lat="45.96722644017843" lon="12.317325564565625"><ele>109.66666666666667</ele><time>2026-04-05T16:21:06.999Z</time></trkpt><trkpt lat="45.967356334122535" lon="12.317225093293974"><ele>110.33333333333334</ele><time>2026-04-05T16:21:07.999Z</time></trkpt><trkpt lat="45.9674479747368" lon="12.317039363927428"><ele>111.0</ele><time>2026-04-05T16:21:08.999Z</time></trkpt><trkpt lat="45.967593518902476" lon="12.316866691502804"><ele>111.0</ele><time>2026-04-05T16:21:09.999Z</time></trkpt><trkpt lat="45.967696486379516" lon="12.316721628878115"><ele>111.0</ele><time>2026-04-05T16:21:10.999Z</time></trkpt><trkpt lat="45.96781265270434" lon="12.316551984950616"><ele>111.0</ele><time>2026-04-05T16:21:11.999Z</time></trkpt><trkpt lat="45.96792294180463" lon="12.316404740727329"><ele>111.0</ele><time>2026-04-05T16:21:12.999Z</time></trkpt><trkpt lat="45.96800834422834" lon="12.316167988351042"><ele>111.0</ele><time>2026-04-05T16:21:13.999Z</time></trkpt><trkpt lat="45.96813067192082" lon="12.316039611492545"><ele>111.0</ele><time>2026-04-05T16:21:14.999Z</time></trkpt><trkpt lat="45.968264817269414" lon="12.3158733063151"><ele>111.0</ele><time>2026-04-05T16:21:15.999Z</time></trkpt><trkpt lat="45.968380188958136" lon="12.3157076345343"><ele>111.0</ele><time>2026-04-05T16:21:16.999Z</time></trkpt><trkpt lat="45.968522228932336" lon="12.315514068718137"><ele>111.0</ele><time>2026-04-05T16:21:17.999Z</time></trkpt><trkpt lat="45.96865014429601" lon="12.315344963352636"><ele>111.0</ele><time>2026-04-05T16:21:18.999Z</time></trkpt><trkpt lat="45.96881909273638" lon="12.31514780235903"><ele>111.0</ele><time>2026-04-05T16:21:19.999Z</time></trkpt><trkpt lat="45.968961662975374" lon="12.31495765705688"><ele>111.0</ele><time>2026-04-05T16:21:20.999Z</time></trkpt><trkpt lat="45.96911434624258" lon="12.314761780174535"><ele>111.33333333333334</ele><time>2026-04-05T16:21:21.999Z</time></trkpt><trkpt lat="45.9692557488838" lon="12.31458126992968"><ele>111.66666666666667</ele><time>2026-04-05T16:21:22.999Z</time></trkpt><trkpt lat="45.9693970642192" lon="12.314394902174058"><ele>112.0</ele><time>2026-04-05T16:21:23.999Z</time></trkpt><trkpt lat="45.96952784915085" lon="12.314200065534665"><ele>112.0</ele><time>2026-04-05T16:21:24.999Z</time></trkpt><trkpt lat="45.96965971081287" lon="12.31402814975757"><ele>112.0</ele><time>2026-04-05T16:21:25.999Z</time></trkpt><trkpt lat="45.96971956564879" lon="12.313854627952848"><ele>112.0</ele><time>2026-04-05T16:21:26.999Z</time></trkpt><trkpt lat="45.96985547866815" lon="12.313711083600419"><ele>112.0</ele><time>2026-04-05T16:21:27.999Z</time></trkpt><trkpt lat="45.969963393756444" lon="12.313547676509367"><ele>112.0</ele><time>2026-04-05T16:21:28.999Z</time></trkpt><trkpt lat="45.97004703952103" lon="12.313406352508157"><ele>112.0</ele><time>2026-04-05T16:21:29.999Z</time></trkpt><trkpt lat="45.97012668768735" lon="12.31331318063238"><ele>112.0</ele><time>2026-04-05T16:21:30.999Z</time></trkpt><trkpt lat="45.97023363968699" lon="12.313185893416774"><ele>112.75</ele><time>2026-04-05T16:21:31.999Z</time></trkpt><trkpt lat="45.970313433316214" lon="12.31306635088131"><ele>113.5</ele><time>2026-04-05T16:21:32.999Z</time></trkpt><trkpt lat="45.970402453851314" lon="12.312957319822178"><ele>114.25</ele><time>2026-04-05T16:21:33.999Z</time></trkpt><trkpt lat="45.97049875908659" lon="12.312825837126422"><ele>115.0</ele><time>2026-04-05T16:21:34.999Z</time></trkpt><trkpt lat="45.97056816154398" lon="12.312714203677444"><ele>115.0</ele><time>2026-04-05T16:21:35.999Z</time></trkpt><trkpt lat="45.97062646953492" lon="12.312637514798741"><ele>115.0</ele><time>2026-04-05T16:21:36.999Z</time></trkpt><trkpt lat="45.97067686939457" lon="12.312558648186894"><ele>115.0</ele><time>2026-04-05T16:21:37.999Z</time></trkpt><trkpt lat="45.97077741878468" lon="12.312430078648209"><ele>115.0</ele><time>2026-04-05T16:21:39.999Z</time></trkpt><trkpt lat="45.97086633214982" lon="12.312314088315196"><ele>115.0</ele><time>2026-04-05T16:21:41.999Z</time></trkpt><trkpt lat="45.97094309397444" lon="12.312207195800221"><ele>114.6</ele><time>2026-04-05T16:21:44Z</time></trkpt><trkpt lat="45.97102314234676" lon="12.312118239454051"><ele>114.2</ele><time>2026-04-05T16:21:46Z</time></trkpt><trkpt lat="45.97108303025103" lon="12.312016902452237"><ele>113.80000000000001</ele><time>2026-04-05T16:21:48Z</time></trkpt><trkpt lat="45.97114528287533" lon="12.311940461866826"><ele>113.4</ele><time>2026-04-05T16:21:50Z</time></trkpt><trkpt lat="45.97122733171249" lon="12.311815480740698"><ele>113.0</ele><time>2026-04-05T16:21:52Z</time></trkpt><trkpt lat="45.97128349277612" lon="12.311753559330858"><ele>112.99999999999999</ele><time>2026-04-05T16:21:53Z</time></trkpt><trkpt lat="45.97134586964319" lon="12.311695758930629"><ele>113.0</ele><time>2026-04-05T16:21:54Z</time></trkpt><trkpt lat="45.97140438739807" lon="12.311624343066399"><ele>113.0</ele><time>2026-04-05T16:21:55Z</time></trkpt><trkpt lat="45.97145367532087" lon="12.31153526488505"><ele>113.0</ele><time>2026-04-05T16:21:56Z</time></trkpt><trkpt lat="45.97151506482524" lon="12.311443296622521"><ele>112.99999999999999</ele><time>2026-04-05T16:21:57Z</time></trkpt><trkpt lat="45.97157883902001" lon="12.311357545892974"><ele>113.0</ele><time>2026-04-05T16:21:58Z</time></trkpt><trkpt lat="45.971653590120056" lon="12.31127000681337"><ele>113.60000000000001</ele><time>2026-04-05T16:21:59Z</time></trkpt><trkpt lat="45.97173141238128" lon="12.311188099067106"><ele>114.20000000000002</ele><time>2026-04-05T16:22:00Z</time></trkpt><trkpt lat="45.971775984515965" lon="12.311107208386941"><ele>114.8</ele><time>2026-04-05T16:22:01Z</time></trkpt><trkpt lat="45.971848760899164" lon="12.3110009092762"><ele>115.4</ele><time>2026-04-05T16:22:02Z</time></trkpt><trkpt lat="45.97193466237153" lon="12.310883958640456"><ele>116.0</ele><time>2026-04-05T16:22:03Z</time></trkpt><trkpt lat="45.97203659453889" lon="12.31075789288763"><ele>116.0</ele><time>2026-04-05T16:22:04Z</time></trkpt><trkpt lat="45.972124733252414" lon="12.310624890118953"><ele>116.0</ele><time>2026-04-05T16:22:05Z</time></trkpt><trkpt lat="45.97222737055416" lon="12.310485516660004"><ele>116.0</ele><time>2026-04-05T16:22:06Z</time></trkpt><trkpt lat="45.97233649507539" lon="12.31034745640311"><ele>116.0</ele><time>2026-04-05T16:22:07Z</time></trkpt><trkpt lat="45.97247376241891" lon="12.31020624306647"><ele>115.8</ele><time>2026-04-05T16:22:08Z</time></trkpt><trkpt lat="45.97255724226649" lon="12.31009411039795"><ele>115.6</ele><time>2026-04-05T16:22:09Z</time></trkpt><trkpt lat="45.97264383721993" lon="12.309976618972769"><ele>115.4</ele><time>2026-04-05T16:22:10Z</time></trkpt><trkpt lat="45.97272983065354" lon="12.309858932861802"><ele>115.2</ele><time>2026-04-05T16:22:11Z</time></trkpt><trkpt lat="45.97279673829385" lon="12.309766940204481"><ele>115.0</ele><time>2026-04-05T16:22:12Z</time></trkpt><trkpt lat="45.97286508714966" lon="12.309670959313605"><ele>115.4</ele><time>2026-04-05T16:22:13Z</time></trkpt><trkpt lat="45.97292623724231" lon="12.309555664161932"><ele>115.8</ele><time>2026-04-05T16:22:14Z</time></trkpt><trkpt lat="45.973017759417" lon="12.30947391595821"><ele>116.19999999999999</ele><time>2026-04-05T16:22:15Z</time></trkpt><trkpt lat="45.97307269921849" lon="12.309392044424419"><ele>116.6</ele><time>2026-04-05T16:22:16Z</time></trkpt><trkpt lat="45.97316799582357" lon="12.30935413749926"><ele>117.0</ele><time>2026-04-05T16:22:18Z</time></trkpt><trkpt lat="45.973227198090676" lon="12.309430630581693"><ele>117.0</ele><time>2026-04-05T16:24:00Z</time></trkpt><trkpt lat="45.97318681353482" lon="12.30958684943169"><ele>117.0</ele><time>2026-04-05T16:24:04Z</time></trkpt><trkpt lat="45.97323278780681" lon="12.30945198814368"><ele>117.0</ele><time>2026-04-05T16:25:18.999Z</time></trkpt><trkpt lat="45.973280299002944" lon="12.309375604733626"><ele>117.0</ele><time>2026-04-05T16:25:22.999Z</time></trkpt><trkpt lat="45.97334064719173" lon="12.3093107851458"><ele>117.0</ele><time>2026-04-05T16:25:26.999Z</time></trkpt><trkpt lat="45.97336866641768" lon="12.309227164337623"><ele>117.0</ele><time>2026-04-05T16:33:32.999Z</time></trkpt><trkpt lat="45.97330903705451" lon="12.309191678693374"><ele>117.0</ele><time>2026-04-05T16:33:37.999Z</time></trkpt><trkpt lat="45.9733058582402" lon="12.309095941319327"><ele>116.99999999999999</ele><time>2026-04-05T16:33:47.999Z</time></trkpt><trkpt lat="45.973366560833554" lon="12.308938237284709"><ele>116.99999999999999</ele><time>2026-04-05T16:33:49.999Z</time></trkpt><trkpt lat="45.973416463285446" lon="12.308878294538625"><ele>117.0</ele><time>2026-04-05T16:33:50.999Z</time></trkpt><trkpt lat="45.97345534430285" lon="12.308770830560592"><ele>117.0</ele><time>2026-04-05T16:33:51.999Z</time></trkpt><trkpt lat="45.973570071947954" lon="12.308737878989342"><ele>117.0</ele><time>2026-04-05T16:33:52.999Z</time></trkpt><trkpt lat="45.973709676916826" lon="12.308576434486891"><ele>117.0</ele><time>2026-04-05T16:33:53.999Z</time></trkpt><trkpt lat="45.97385949539259" lon="12.30839096953834"><ele>117.0</ele><time>2026-04-05T16:33:54.999Z</time></trkpt><trkpt lat="45.97403058562259" lon="12.308253996861474"><ele>117.5</ele><time>2026-04-05T16:33:55.999Z</time></trkpt><trkpt lat="45.97424201533564" lon="12.308167450346332"><ele>118.0</ele><time>2026-04-05T16:33:56.999Z</time></trkpt><trkpt lat="45.974486736037775" lon="12.30809682678797"><ele>118.66666666666667</ele><time>2026-04-05T16:33:57.999Z</time></trkpt><trkpt lat="45.974669850815125" lon="12.307999499405458"><ele>119.33333333333334</ele><time>2026-04-05T16:33:58.999Z</time></trkpt><trkpt lat="45.97484055036536" lon="12.307927982196935"><ele>120.0</ele><time>2026-04-05T16:33:59.999Z</time></trkpt><trkpt lat="45.97500309780281" lon="12.307860540675883"><ele>119.66666666666666</ele><time>2026-04-05T16:34:00.999Z</time></trkpt><trkpt lat="45.97514838049869" lon="12.307812919349075"><ele>119.33333333333333</ele><time>2026-04-05T16:34:01.999Z</time></trkpt><trkpt lat="45.975320099075255" lon="12.307741203262411"><ele>119.0</ele><time>2026-04-05T16:34:02.999Z</time></trkpt><trkpt lat="45.97544388203616" lon="12.307676315798362"><ele>119.0</ele><time>2026-04-05T16:34:03.999Z</time></trkpt><trkpt lat="45.97554156061954" lon="12.307647697097668"><ele>119.0</ele><time>2026-04-05T16:34:04.999Z</time></trkpt><trkpt lat="45.97565855384145" lon="12.307597966251455"><ele>119.0</ele><time>2026-04-05T16:34:05.999Z</time></trkpt><trkpt lat="45.97574283832019" lon="12.30755901361428"><ele>119.0</ele><time>2026-04-05T16:34:06.999Z</time></trkpt><trkpt lat="45.975863077435676" lon="12.307495403877796"><ele>119.0</ele><time>2026-04-05T16:34:08.999Z</time></trkpt><trkpt lat="45.975942927183446" lon="12.307479541063294"><ele>118.6</ele><time>2026-04-05T16:34:09.999Z</time></trkpt><trkpt lat="45.97606312559871" lon="12.307418985790745"><ele>118.2</ele><time>2026-04-05T16:34:11.999Z</time></trkpt><trkpt lat="45.97614714247496" lon="12.307369614760157"><ele>117.79999999999998</ele><time>2026-04-05T16:34:13.999Z</time></trkpt><trkpt lat="45.9762189045922" lon="12.307364472414196"><ele>117.39999999999999</ele><time>2026-04-05T16:34:22Z</time></trkpt><trkpt lat="45.9763092775723" lon="12.307332858517633"><ele>117.0</ele><time>2026-04-05T16:34:24Z</time></trkpt><trkpt lat="45.976388505280944" lon="12.307299039014376"><ele>117.5</ele><time>2026-04-05T16:34:25Z</time></trkpt><trkpt lat="45.97650286108342" lon="12.30724240087833"><ele>118.0</ele><time>2026-04-05T16:34:26Z</time></trkpt><trkpt lat="45.976622514700274" lon="12.307203094016277"><ele>118.5</ele><time>2026-04-05T16:34:27Z</time></trkpt><trkpt lat="45.97676659046548" lon="12.307165011882265"><ele>119.0</ele><time>2026-04-05T16:34:28Z</time></trkpt><trkpt lat="45.976918876251986" lon="12.307120703490916"><ele>119.33333333333333</ele><time>2026-04-05T16:34:29Z</time></trkpt><trkpt lat="45.97707262560807" lon="12.307068413049345"><ele>119.66666666666666</ele><time>2026-04-05T16:34:30Z</time></trkpt><trkpt lat="45.97725129293805" lon="12.306989582245347"><ele>120.0</ele><time>2026-04-05T16:34:31Z</time></trkpt><trkpt lat="45.97742544427322" lon="12.306924228272614"><ele>119.33333333333334</ele><time>2026-04-05T16:34:32Z</time></trkpt><trkpt lat="45.977616139855414" lon="12.306840710845389"><ele>118.66666666666667</ele><time>2026-04-05T16:34:33Z</time></trkpt><trkpt lat="45.97776216115624" lon="12.306785287344105"><ele>118.0</ele><time>2026-04-05T16:34:34Z</time></trkpt><trkpt lat="45.97794111474193" lon="12.306711196098579"><ele>118.0</ele><time>2026-04-05T16:34:35Z</time></trkpt><trkpt lat="45.97810534764737" lon="12.306659689617256"><ele>118.0</ele><time>2026-04-05T16:34:36Z</time></trkpt><trkpt lat="45.978260254276755" lon="12.30659127422738"><ele>118.0</ele><time>2026-04-05T16:34:37Z</time></trkpt><trkpt lat="45.97838126648916" lon="12.306536926510585"><ele>118.60000000000001</ele><time>2026-04-05T16:34:38Z</time></trkpt><trkpt lat="45.97850847601029" lon="12.30648920785446"><ele>119.20000000000002</ele><time>2026-04-05T16:34:39Z</time></trkpt><trkpt lat="45.97859075390596" lon="12.306436295494523"><ele>119.8</ele><time>2026-04-05T16:34:40Z</time></trkpt><trkpt lat="45.9786742904022" lon="12.306431085067578"><ele>120.4</ele><time>2026-04-05T16:34:41Z</time></trkpt><trkpt lat="45.978795047604" lon="12.306486127490693"><ele>121.0</ele><time>2026-04-05T16:34:43Z</time></trkpt><trkpt lat="45.97888870138846" lon="12.306489029336475"><ele>121.0</ele><time>2026-04-05T16:34:44Z</time></trkpt><trkpt lat="45.978972613626716" lon="12.306415932581096"><ele>121.0</ele><time>2026-04-05T16:34:45Z</time></trkpt><trkpt lat="45.97908017023671" lon="12.306358876852709"><ele>121.0</ele><time>2026-04-05T16:34:46Z</time></trkpt><trkpt lat="45.97916824845204" lon="12.30635792780985"><ele>121.0</ele><time>2026-04-05T16:34:47Z</time></trkpt><trkpt lat="45.979151862336565" lon="12.30623058272975"><ele>121.0</ele><time>2026-04-05T16:34:49Z</time></trkpt><trkpt lat="45.97924831981815" lon="12.306177720419612"><ele>121.0</ele><time>2026-04-05T16:34:50Z</time></trkpt><trkpt lat="45.97939352348423" lon="12.30612905568891"><ele>121.0</ele><time>2026-04-05T16:34:53Z</time></trkpt><trkpt lat="45.97955870785302" lon="12.306002104883358"><ele>121.0</ele><time>2026-04-05T16:34:54Z</time></trkpt><trkpt lat="45.97962904926471" lon="12.3059057720469"><ele>121.0</ele><time>2026-04-05T16:34:55Z</time></trkpt><trkpt lat="45.979785890819315" lon="12.30573669562145"><ele>121.0</ele><time>2026-04-05T16:34:56Z</time></trkpt><trkpt lat="45.979844113346076" lon="12.305609729288276"><ele>121.0</ele><time>2026-04-05T16:34:57Z</time></trkpt><trkpt lat="45.98016336810732" lon="12.30558957767167"><ele>121.0</ele><time>2026-04-05T16:34:58Z</time></trkpt><trkpt lat="45.98027885983519" lon="12.305514478564897"><ele>122.0</ele><time>2026-04-05T16:34:59Z</time></trkpt><trkpt lat="45.98043846735825" lon="12.30540787831576"><ele>123.0</ele><time>2026-04-05T16:35:00Z</time></trkpt><trkpt lat="45.98056990676082" lon="12.305167293500194"><ele>124.0</ele><time>2026-04-05T16:35:01Z</time></trkpt><trkpt lat="45.98068954626276" lon="12.305088225047168"><ele>124.0</ele><time>2026-04-05T16:35:02Z</time></trkpt><trkpt lat="45.98078762241448" lon="12.305003140958744"><ele>124.0</ele><time>2026-04-05T16:35:03Z</time></trkpt><trkpt lat="45.98090364252188" lon="12.304953149260612"><ele>124.0</ele><time>2026-04-05T16:35:04Z</time></trkpt><trkpt lat="45.98125605923781" lon="12.304789697464132"><ele>124.2</ele><time>2026-04-05T16:35:07Z</time></trkpt><trkpt lat="45.9814021331664" lon="12.304760060031589"><ele>124.4</ele><time>2026-04-05T16:35:09Z</time></trkpt><trkpt lat="45.98148887294346" lon="12.304700453111234"><ele>124.6</ele><time>2026-04-05T16:35:10Z</time></trkpt><trkpt lat="45.98159148759277" lon="12.304627700814498"><ele>124.8</ele><time>2026-04-05T16:35:11Z</time></trkpt><trkpt lat="45.98165398413257" lon="12.304592448712254"><ele>125.0</ele><time>2026-04-05T16:35:12Z</time></trkpt><trkpt lat="45.98173937038961" lon="12.30454472986638"><ele>125.0</ele><time>2026-04-05T16:35:13Z</time></trkpt><trkpt lat="45.98181560084526" lon="12.304478578971363"><ele>125.0</ele><time>2026-04-05T16:35:14Z</time></trkpt><trkpt lat="45.981948662355386" lon="12.304367251889547"><ele>125.0</ele><time>2026-04-05T16:35:15Z</time></trkpt><trkpt lat="45.98201615798197" lon="12.304303816040328"><ele>125.0</ele><time>2026-04-05T16:35:16Z</time></trkpt><trkpt lat="45.982131154491654" lon="12.304191944129595"><ele>125.0</ele><time>2026-04-05T16:35:17Z</time></trkpt><trkpt lat="45.982241064438206" lon="12.304084621749087"><ele>125.0</ele><time>2026-04-05T16:35:18Z</time></trkpt><trkpt lat="45.9823769342315" lon="12.303951069773762"><ele>125.0</ele><time>2026-04-05T16:35:19Z</time></trkpt><trkpt lat="45.98252979660862" lon="12.303804552281163"><ele>125.25</ele><time>2026-04-05T16:35:20Z</time></trkpt><trkpt lat="45.98261993500835" lon="12.303723381488847"><ele>125.5</ele><time>2026-04-05T16:35:21Z</time></trkpt><trkpt lat="45.982703727476036" lon="12.303657583495857"><ele>125.75</ele><time>2026-04-05T16:35:22Z</time></trkpt><trkpt lat="45.982849136566514" lon="12.303544391511306"><ele>126.0</ele><time>2026-04-05T16:35:23Z</time></trkpt><trkpt lat="45.982944823911964" lon="12.303471801151966"><ele>126.0</ele><time>2026-04-05T16:35:24Z</time></trkpt><trkpt lat="45.98315440039592" lon="12.303311562818333"><ele>126.0</ele><time>2026-04-05T16:35:25Z</time></trkpt><trkpt lat="45.983312225514496" lon="12.303190224964306"><ele>126.0</ele><time>2026-04-05T16:35:26Z</time></trkpt><trkpt lat="45.983480542545244" lon="12.303063055272588"><ele>125.5</ele><time>2026-04-05T16:35:27Z</time></trkpt><trkpt lat="45.98370399674479" lon="12.302905979273678"><ele>125.0</ele><time>2026-04-05T16:35:28Z</time></trkpt><trkpt lat="45.98388977431658" lon="12.302728643452328"><ele>125.0</ele><time>2026-04-05T16:35:29Z</time></trkpt><trkpt lat="45.98411737948525" lon="12.302569383771171"><ele>125.0</ele><time>2026-04-05T16:35:30Z</time></trkpt><trkpt lat="45.98430854142646" lon="12.302433445604036"><ele>125.5</ele><time>2026-04-05T16:35:31Z</time></trkpt><trkpt lat="45.98452383828311" lon="12.302252692681247"><ele>126.0</ele><time>2026-04-05T16:35:32Z</time></trkpt><trkpt lat="45.984731954136414" lon="12.302104275795354"><ele>126.33333333333334</ele><time>2026-04-05T16:35:33Z</time></trkpt><trkpt lat="45.984913559089875" lon="12.30196099079292"><ele>126.66666666666667</ele><time>2026-04-05T16:35:34Z</time></trkpt><trkpt lat="45.9851199354942" lon="12.301817140180201"><ele>127.0</ele><time>2026-04-05T16:35:35Z</time></trkpt><trkpt lat="45.98527882045684" lon="12.301648621929305"><ele>127.0</ele><time>2026-04-05T16:35:36Z</time></trkpt><trkpt lat="45.985473922134794" lon="12.301505629777122"><ele>127.0</ele><time>2026-04-05T16:35:36.999Z</time></trkpt><trkpt lat="45.985664669298494" lon="12.30131947451031"><ele>127.0</ele><time>2026-04-05T16:35:37.999Z</time></trkpt><trkpt lat="45.98585266537668" lon="12.301144659600315"><ele>127.66666666666667</ele><time>2026-04-05T16:35:38.999Z</time></trkpt><trkpt lat="45.98604392545507" lon="12.300981821258665"><ele>128.33333333333334</ele><time>2026-04-05T16:35:39.999Z</time></trkpt><trkpt lat="45.986216212483065" lon="12.300846580777288"><ele>129.0</ele><time>2026-04-05T16:35:40.999Z</time></trkpt><trkpt lat="45.986363119659444" lon="12.300734268466382"><ele>129.0</ele><time>2026-04-05T16:35:41.999Z</time></trkpt><trkpt lat="45.98653237843377" lon="12.300604866147843"><ele>129.0</ele><time>2026-04-05T16:35:42.999Z</time></trkpt><trkpt lat="45.98669910679255" lon="12.300477398146528"><ele>129.0</ele><time>2026-04-05T16:35:43.999Z</time></trkpt><trkpt lat="45.98685292112015" lon="12.300359800616633"><ele>129.5</ele><time>2026-04-05T16:35:44.999Z</time></trkpt><trkpt lat="45.98697676812269" lon="12.300247890421934"><ele>130.0</ele><time>2026-04-05T16:35:45.999Z</time></trkpt><trkpt lat="45.98710433015679" lon="12.300178250119936"><ele>130.5</ele><time>2026-04-05T16:35:46.999Z</time></trkpt><trkpt lat="45.98725614055965" lon="12.30007900940171"><ele>131.0</ele><time>2026-04-05T16:35:47.999Z</time></trkpt><trkpt lat="45.987367319432856" lon="12.300009876312583"><ele>131.0</ele><time>2026-04-05T16:35:48.999Z</time></trkpt><trkpt lat="45.987513262077464" lon="12.299919127458592"><ele>131.0</ele><time>2026-04-05T16:35:49.999Z</time></trkpt><trkpt lat="45.98763038161763" lon="12.299842469886594"><ele>131.0</ele><time>2026-04-05T16:35:50.999Z</time></trkpt><trkpt lat="45.98781470596633" lon="12.299723648231243"><ele>131.66666666666666</ele><time>2026-04-05T16:35:51.999Z</time></trkpt><trkpt lat="45.98796400358976" lon="12.299625445372412"><ele>132.33333333333334</ele><time>2026-04-05T16:35:52.999Z</time></trkpt><trkpt lat="45.98810750328589" lon="12.29953827526866"><ele>133.0</ele><time>2026-04-05T16:35:53.999Z</time></trkpt><trkpt lat="45.98828062453192" lon="12.299439215266068"><ele>133.0</ele><time>2026-04-05T16:35:54.999Z</time></trkpt><trkpt lat="45.98844317524573" lon="12.299371794917029"><ele>133.0</ele><time>2026-04-05T16:35:55.999Z</time></trkpt><trkpt lat="45.98860263815721" lon="12.299297103053588"><ele>133.0</ele><time>2026-04-05T16:35:56.999Z</time></trkpt><trkpt lat="45.988761789544036" lon="12.299222557079727"><ele>133.0</ele><time>2026-04-05T16:35:57.999Z</time></trkpt><trkpt lat="45.98891831592178" lon="12.299148870002774"><ele>133.0</ele><time>2026-04-05T16:35:58.999Z</time></trkpt><trkpt lat="45.98907220395586" lon="12.29907639977652"><ele>133.0</ele><time>2026-04-05T16:35:59.999Z</time></trkpt><trkpt lat="45.989235489231994" lon="12.298993712269"><ele>133.0</ele><time>2026-04-05T16:36:00.999Z</time></trkpt><trkpt lat="45.98933945684365" lon="12.298755133774437"><ele>133.0</ele><time>2026-04-05T16:36:01.999Z</time></trkpt><trkpt lat="45.989483097062795" lon="12.298692129828622"><ele>133.0</ele><time>2026-04-05T16:36:02.999Z</time></trkpt><trkpt lat="45.98967754999147" lon="12.298639333302779"><ele>133.0</ele><time>2026-04-05T16:36:03.999Z</time></trkpt><trkpt lat="45.98983912300816" lon="12.298562695456628"><ele>133.0</ele><time>2026-04-05T16:36:04.999Z</time></trkpt><trkpt lat="45.99028000210186" lon="12.29850651962371"><ele>133.33333333333334</ele><time>2026-04-05T16:36:06.999Z</time></trkpt><trkpt lat="45.9903706978377" lon="12.298462992289503"><ele>133.66666666666666</ele><time>2026-04-05T16:36:07.999Z</time></trkpt><trkpt lat="45.99055588345412" lon="12.298375983762892"><ele>134.0</ele><time>2026-04-05T16:36:08.999Z</time></trkpt><trkpt lat="45.99078444434635" lon="12.298268891121191"><ele>134.33333333333331</ele><time>2026-04-05T16:36:09.999Z</time></trkpt><trkpt lat="45.99099873844683" lon="12.298166633281731"><ele>134.66666666666666</ele><time>2026-04-05T16:36:10.999Z</time></trkpt><trkpt lat="45.99120922128316" lon="12.29806591983437"><ele>135.0</ele><time>2026-04-05T16:36:11.999Z</time></trkpt><trkpt lat="45.99144472238273" lon="12.297953233174857"><ele>136.0</ele><time>2026-04-05T16:36:12.999Z</time></trkpt><trkpt lat="45.991652343298036" lon="12.297852179853923"><ele>137.0</ele><time>2026-04-05T16:36:13.999Z</time></trkpt><trkpt lat="45.991901608720326" lon="12.297702922595327"><ele>137.0</ele><time>2026-04-05T16:36:14.999Z</time></trkpt><trkpt lat="45.99203826426544" lon="12.29760532112448"><ele>137.0</ele><time>2026-04-05T16:36:15.999Z</time></trkpt><trkpt lat="45.992192505236304" lon="12.297485471712317"><ele>137.0</ele><time>2026-04-05T16:36:16.999Z</time></trkpt><trkpt lat="45.992332488436" lon="12.297368310108514"><ele>137.0</ele><time>2026-04-05T16:36:17.999Z</time></trkpt><trkpt lat="45.992463110816146" lon="12.297253376967774"><ele>137.0</ele><time>2026-04-05T16:36:18.999Z</time></trkpt><trkpt lat="45.99256990984353" lon="12.297158223804752"><ele>137.0</ele><time>2026-04-05T16:36:19.999Z</time></trkpt><trkpt lat="45.99257479236562" lon="12.296868755912001"><ele>136.75</ele><time>2026-04-05T16:36:20.999Z</time></trkpt><trkpt lat="45.99269996796668" lon="12.296762108150109"><ele>136.5</ele><time>2026-04-05T16:36:21.999Z</time></trkpt><trkpt lat="45.99289755942414" lon="12.296662638944543"><ele>136.25</ele><time>2026-04-05T16:36:22.999Z</time></trkpt><trkpt lat="45.992956579409466" lon="12.296565368467089"><ele>136.0</ele><time>2026-04-05T16:36:23.999Z</time></trkpt><trkpt lat="45.993043498886955" lon="12.296470939236166"><ele>136.0</ele><time>2026-04-05T16:36:25Z</time></trkpt><trkpt lat="45.993143765972064" lon="12.296366793702685"><ele>136.0</ele><time>2026-04-05T16:36:26Z</time></trkpt><trkpt lat="45.99359502483002" lon="12.29622379251352"><ele>136.0</ele><time>2026-04-05T16:36:30Z</time></trkpt><trkpt lat="45.99368339163463" lon="12.296143056339536"><ele>136.0</ele><time>2026-04-05T16:36:31Z</time></trkpt><trkpt lat="45.99374660346167" lon="12.296054143991181"><ele>136.0</ele><time>2026-04-05T16:36:32Z</time></trkpt><trkpt lat="45.99383687619449" lon="12.295971464578818"><ele>136.0</ele><time>2026-04-05T16:36:33Z</time></trkpt><trkpt lat="45.993923925685216" lon="12.295888409583528"><ele>136.0</ele><time>2026-04-05T16:36:34Z</time></trkpt><trkpt lat="45.99400815294225" lon="12.295809476201866"><ele>136.0</ele><time>2026-04-05T16:36:35Z</time></trkpt><trkpt lat="45.994085765391226" lon="12.295737480925377"><ele>136.0</ele><time>2026-04-05T16:36:36Z</time></trkpt><trkpt lat="45.99418055168253" lon="12.295642423711802"><ele>136.0</ele><time>2026-04-05T16:36:37.012Z</time></trkpt><trkpt lat="45.99427049105242" lon="12.29554689656524"><ele>136.0</ele><time>2026-04-05T16:36:38.017Z</time></trkpt><trkpt lat="45.9942040978157" lon="12.29567813015083"><ele>136.0</ele><time>2026-04-05T16:36:42Z</time></trkpt><trkpt lat="45.99430188335936" lon="12.295587751682138"><ele>136.6</ele><time>2026-04-05T16:36:44Z</time></trkpt><trkpt lat="45.99439013897243" lon="12.29550632532336"><ele>137.2</ele><time>2026-04-05T16:36:45Z</time></trkpt><trkpt lat="45.9944608619461" lon="12.295441184395978"><ele>137.8</ele><time>2026-04-05T16:36:47Z</time></trkpt><trkpt lat="45.99453632856873" lon="12.29537203601273"><ele>138.4</ele><time>2026-04-05T16:36:50Z</time></trkpt><trkpt lat="45.994596403210714" lon="12.29528931300248"><ele>139.0</ele><time>2026-04-05T16:36:51Z</time></trkpt><trkpt lat="45.99468466720726" lon="12.295214843955092"><ele>139.0</ele><time>2026-04-05T16:36:52Z</time></trkpt><trkpt lat="45.994782991478985" lon="12.295127975586933"><ele>139.0</ele><time>2026-04-05T16:36:53Z</time></trkpt><trkpt lat="45.994894294841394" lon="12.295027725057938"><ele>139.0</ele><time>2026-04-05T16:36:54Z</time></trkpt><trkpt lat="45.99502218433415" lon="12.294910632735558"><ele>139.0</ele><time>2026-04-05T16:36:55Z</time></trkpt><trkpt lat="45.99516586065108" lon="12.294807541250925"><ele>139.66666666666669</ele><time>2026-04-05T16:36:56Z</time></trkpt><trkpt lat="45.99530750877194" lon="12.294680919824307"><ele>140.33333333333334</ele><time>2026-04-05T16:36:57Z</time></trkpt><trkpt lat="45.9954622250149" lon="12.29454017972203"><ele>141.0</ele><time>2026-04-05T16:36:58Z</time></trkpt><trkpt lat="45.99558376613707" lon="12.294402766726138"><ele>141.0</ele><time>2026-04-05T16:36:59Z</time></trkpt><trkpt lat="45.99574110774412" lon="12.294265662670682"><ele>141.0</ele><time>2026-04-05T16:37:00Z</time></trkpt><trkpt lat="45.99589422335619" lon="12.294133062162587"><ele>141.0</ele><time>2026-04-05T16:37:01Z</time></trkpt><trkpt lat="45.996046359559216" lon="12.293998618331342"><ele>140.0</ele><time>2026-04-05T16:37:02Z</time></trkpt><trkpt lat="45.99620474289646" lon="12.293856793945565"><ele>139.0</ele><time>2026-04-05T16:37:03Z</time></trkpt><trkpt lat="45.99637693502194" lon="12.293705247611708"><ele>138.0</ele><time>2026-04-05T16:37:04Z</time></trkpt><trkpt lat="45.99652947549604" lon="12.293578110085866"><ele>138.0</ele><time>2026-04-05T16:37:05Z</time></trkpt><trkpt lat="45.99666562047867" lon="12.293419102231894"><ele>138.0</ele><time>2026-04-05T16:37:06Z</time></trkpt><trkpt lat="45.99682427462874" lon="12.29323279300066"><ele>138.0</ele><time>2026-04-05T16:37:07Z</time></trkpt><trkpt lat="45.99695240475815" lon="12.293088768239402"><ele>138.0</ele><time>2026-04-05T16:37:08Z</time></trkpt><trkpt lat="45.997044323715585" lon="12.292930253270576"><ele>138.0</ele><time>2026-04-05T16:37:09Z</time></trkpt><trkpt lat="45.997194762404455" lon="12.292755329334442"><ele>138.0</ele><time>2026-04-05T16:37:10Z</time></trkpt><trkpt lat="45.997232866912306" lon="12.292569922444542"><ele>138.0</ele><time>2026-04-05T16:37:11Z</time></trkpt><trkpt lat="45.99730425103566" lon="12.292414912822624"><ele>138.0</ele><time>2026-04-05T16:37:12Z</time></trkpt><trkpt lat="45.99735422031091" lon="12.292275910245474"><ele>138.0</ele><time>2026-04-05T16:37:13Z</time></trkpt><trkpt lat="45.99743270742889" lon="12.29215603805706"><ele>138.0</ele><time>2026-04-05T16:37:14Z</time></trkpt><trkpt lat="45.99753523759471" lon="12.291998486680509"><ele>138.5</ele><time>2026-04-05T16:37:15Z</time></trkpt><trkpt lat="45.99762588001556" lon="12.291859202243476"><ele>139.0</ele><time>2026-04-05T16:37:16Z</time></trkpt><trkpt lat="45.997724107938865" lon="12.291711474424297"><ele>139.5</ele><time>2026-04-05T16:37:17Z</time></trkpt><trkpt lat="45.99780935454506" lon="12.291583306929654"><ele>140.0</ele><time>2026-04-05T16:37:18Z</time></trkpt><trkpt lat="45.99789464762182" lon="12.291451843916542"><ele>140.4</ele><time>2026-04-05T16:37:19Z</time></trkpt><trkpt lat="45.997968635282184" lon="12.291350011792042"><ele>140.8</ele><time>2026-04-05T16:37:20Z</time></trkpt><trkpt lat="45.998053690553114" lon="12.291285715628252"><ele>141.2</ele><time>2026-04-05T16:37:21Z</time></trkpt><trkpt lat="45.998161393294026" lon="12.291258683026351"><ele>141.6</ele><time>2026-04-05T16:37:22Z</time></trkpt><trkpt lat="45.99826810677517" lon="12.29123621847859"><ele>142.0</ele><time>2026-04-05T16:37:23Z</time></trkpt><trkpt lat="45.998377076318754" lon="12.29121522193263"><ele>142.33333333333334</ele><time>2026-04-05T16:37:24Z</time></trkpt><trkpt lat="45.99848363661846" lon="12.2911946895831"><ele>142.66666666666666</ele><time>2026-04-05T16:37:25Z</time></trkpt><trkpt lat="45.998588943727306" lon="12.291174398729865"><ele>143.0</ele><time>2026-04-05T16:37:26Z</time></trkpt><trkpt lat="45.99861257478376" lon="12.290630871505968"><ele>143.0</ele><time>2026-04-05T16:37:27Z</time></trkpt><trkpt lat="45.99869341320712" lon="12.290628803228714"><ele>143.0</ele><time>2026-04-05T16:37:28Z</time></trkpt><trkpt lat="45.99877438732555" lon="12.290603454259175"><ele>143.0</ele><time>2026-04-05T16:37:29Z</time></trkpt><trkpt lat="45.9988487164714" lon="12.290596594815446"><ele>143.0</ele><time>2026-04-05T16:37:30Z</time></trkpt><trkpt lat="45.99895527278523" lon="12.29060523946956"><ele>143.0</ele><time>2026-04-05T16:37:32Z</time></trkpt><trkpt lat="45.99915310410432" lon="12.290735681981396"><ele>145.25</ele><time>2026-04-05T16:37:33Z</time></trkpt><trkpt lat="45.99926109860679" lon="12.290746911503291"><ele>147.5</ele><time>2026-04-05T16:37:34Z</time></trkpt><trkpt lat="45.9993654524639" lon="12.290748093002266"><ele>149.75</ele><time>2026-04-05T16:37:35Z</time></trkpt><trkpt lat="45.99946216961553" lon="12.290729548558398"><ele>152.0</ele><time>2026-04-05T16:37:36Z</time></trkpt><trkpt lat="45.99963110526683" lon="12.290948657947691"><ele>152.0</ele><time>2026-04-05T16:37:36.999Z</time></trkpt><trkpt lat="45.99969977287035" lon="12.290897028089123"><ele>152.0</ele><time>2026-04-05T16:37:37.999Z</time></trkpt><trkpt lat="45.99976735961489" lon="12.29084841826853"><ele>152.0</ele><time>2026-04-05T16:37:38.999Z</time></trkpt><trkpt lat="45.99984780840638" lon="12.29079055778518"><ele>152.0</ele><time>2026-04-05T16:37:39.999Z</time></trkpt><trkpt lat="45.999514647625965" lon="12.290654943542103"><ele>152.0</ele><time>2026-04-05T16:37:42.999Z</time></trkpt><trkpt lat="45.99961420511633" lon="12.290618207866286"><ele>152.0</ele><time>2026-04-05T16:37:44.999Z</time></trkpt><trkpt lat="45.999700661087886" lon="12.290579529240516"><ele>152.0</ele><time>2026-04-05T16:37:46.999Z</time></trkpt><trkpt lat="45.99968753987533" lon="12.290206454836552"><ele>151.0</ele><time>2026-04-05T16:37:49.999Z</time></trkpt><trkpt lat="45.99963987023226" lon="12.290125236514985"><ele>150.0</ele><time>2026-04-05T16:37:50.999Z</time></trkpt><trkpt lat="45.99974528580447" lon="12.290131575897204"><ele>149.0</ele><time>2026-04-05T16:37:52.999Z</time></trkpt><trkpt lat="45.999810675176654" lon="12.29014059048852"><ele>148.0</ele><time>2026-04-05T16:37:53.999Z</time></trkpt><trkpt lat="45.999929869596315" lon="12.290177950831383"><ele>147.0</ele><time>2026-04-05T16:37:56.012Z</time></trkpt><trkpt lat="46.00000454787894" lon="12.29019183759496"><ele>146.0</ele><time>2026-04-05T16:37:57.016Z</time></trkpt><trkpt lat="46.000072553913945" lon="12.290197292048434"><ele>153.0</ele><time>2026-04-05T16:37:58.015Z</time></trkpt><trkpt lat="46.00053164646588" lon="12.289002444606544"><ele>153.0</ele><time>2026-04-05T16:38:06.999Z</time></trkpt><trkpt lat="46.00059245561891" lon="12.288939376452593"><ele>153.0</ele><time>2026-04-05T16:38:07.999Z</time></trkpt><trkpt lat="46.00079114436936" lon="12.289153124601958"><ele>153.0</ele><time>2026-04-05T16:38:08.999Z</time></trkpt><trkpt lat="46.00117334464544" lon="12.289222195447982"><ele>154.5</ele><time>2026-04-05T16:38:09.999Z</time></trkpt><trkpt lat="46.00146808907911" lon="12.289259680307214"><ele>156.0</ele><time>2026-04-05T16:38:10.999Z</time></trkpt><trkpt lat="46.001583884379926" lon="12.289092929050293"><ele>155.33333333333334</ele><time>2026-04-05T16:38:11.999Z</time></trkpt><trkpt lat="46.0016008051962" lon="12.288780952503984"><ele>154.66666666666669</ele><time>2026-04-05T16:38:12.999Z</time></trkpt><trkpt lat="46.00172853257675" lon="12.288605525780088"><ele>154.0</ele><time>2026-04-05T16:38:13.999Z</time></trkpt><trkpt lat="46.0018443955962" lon="12.288393100983475"><ele>154.0</ele><time>2026-04-05T16:38:14.999Z</time></trkpt><trkpt lat="46.0019526698531" lon="12.288216651313006"><ele>154.0</ele><time>2026-04-05T16:38:15.999Z</time></trkpt><trkpt lat="46.00205890799009" lon="12.288061579470002"><ele>154.0</ele><time>2026-04-05T16:38:16.999Z</time></trkpt><trkpt lat="46.002128169938246" lon="12.287941342164563"><ele>154.0</ele><time>2026-04-05T16:38:17.999Z</time></trkpt><trkpt lat="46.00202151741229" lon="12.287753727969502"><ele>154.66666666666669</ele><time>2026-04-05T16:38:18.999Z</time></trkpt><trkpt lat="46.00210697125607" lon="12.287622468648285"><ele>155.33333333333334</ele><time>2026-04-05T16:38:19.999Z</time></trkpt><trkpt lat="46.002345642939495" lon="12.287754507836242"><ele>156.0</ele><time>2026-04-05T16:38:20.999Z</time></trkpt><trkpt lat="46.00241934601614" lon="12.287625219870632"><ele>154.0</ele><time>2026-04-05T16:38:21.999Z</time></trkpt><trkpt lat="46.00272413027137" lon="12.287084012428949"><ele>154.0</ele><time>2026-04-05T16:38:22.999Z</time></trkpt><trkpt lat="46.00280930180737" lon="12.28694697139718"><ele>154.0</ele><time>2026-04-05T16:38:23.999Z</time></trkpt><trkpt lat="46.00289886088861" lon="12.286808277204614"><ele>154.0</ele><time>2026-04-05T16:38:24.999Z</time></trkpt><trkpt lat="46.00306041703138" lon="12.28660451718051"><ele>154.0</ele><time>2026-04-05T16:38:25.999Z</time></trkpt><trkpt lat="46.003224280125956" lon="12.286459965800447"><ele>154.0</ele><time>2026-04-05T16:38:26.999Z</time></trkpt><trkpt lat="46.00341178092503" lon="12.286385169215379"><ele>154.0</ele><time>2026-04-05T16:38:27.999Z</time></trkpt><trkpt lat="46.00354928248414" lon="12.286289550526806"><ele>154.66666666666669</ele><time>2026-04-05T16:38:28.999Z</time></trkpt><trkpt lat="46.00371862155001" lon="12.286181622794901"><ele>155.33333333333334</ele><time>2026-04-05T16:38:29.999Z</time></trkpt><trkpt lat="46.003851856002115" lon="12.286125825391983"><ele>156.0</ele><time>2026-04-05T16:38:31Z</time></trkpt><trkpt lat="46.0039916346046" lon="12.286072045297606"><ele>156.0</ele><time>2026-04-05T16:38:33Z</time></trkpt><trkpt lat="46.0040969505861" lon="12.28604380422113"><ele>156.0</ele><time>2026-04-05T16:38:35Z</time></trkpt><trkpt lat="46.00467090796277" lon="12.286033748458195"><ele>156.0</ele><time>2026-04-05T16:38:41Z</time></trkpt><trkpt lat="46.00501011538536" lon="12.286012653304265"><ele>156.0</ele><time>2026-04-05T16:38:46Z</time></trkpt><trkpt lat="46.00511149078223" lon="12.285990815543583"><ele>156.0</ele><time>2026-04-05T16:38:47Z</time></trkpt><trkpt lat="46.00523577666096" lon="12.28528249923506"><ele>160.33333333333334</ele><time>2026-04-05T16:38:48Z</time></trkpt><trkpt lat="46.00537647507875" lon="12.285211014451605"><ele>164.66666666666669</ele><time>2026-04-05T16:38:49Z</time></trkpt><trkpt lat="46.0055021100816" lon="12.285193217993122"><ele>169.0</ele><time>2026-04-05T16:38:50Z</time></trkpt><trkpt lat="46.005730679574036" lon="12.285167482233161"><ele>170.0</ele><time>2026-04-05T16:38:51Z</time></trkpt><trkpt lat="46.00587291588674" lon="12.285226321046588"><ele>171.0</ele><time>2026-04-05T16:38:53Z</time></trkpt><trkpt lat="46.00594202570578" lon="12.285466825895329"><ele>172.0</ele><time>2026-04-05T16:38:54Z</time></trkpt><trkpt lat="46.00600838601344" lon="12.285707959101206"><ele>166.66666666666669</ele><time>2026-04-05T16:38:55Z</time></trkpt><trkpt lat="46.00612385123882" lon="12.285735937776614"><ele>161.33333333333334</ele><time>2026-04-05T16:38:56Z</time></trkpt><trkpt lat="46.00635894136359" lon="12.285823813147651"><ele>156.0</ele><time>2026-04-05T16:38:58Z</time></trkpt><trkpt lat="46.006686289209256" lon="12.285843369398604"><ele>155.66666666666666</ele><time>2026-04-05T16:39:00Z</time></trkpt><trkpt lat="46.00681303259773" lon="12.285861283487264"><ele>155.33333333333331</ele><time>2026-04-05T16:39:01Z</time></trkpt><trkpt lat="46.0069843376351" lon="12.285890519819525"><ele>155.0</ele><time>2026-04-05T16:39:02Z</time></trkpt><trkpt lat="46.007324680983686" lon="12.28594959403085"><ele>156.0</ele><time>2026-04-05T16:39:03Z</time></trkpt><trkpt lat="46.00774913114859" lon="12.286024210319844"><ele>157.0</ele><time>2026-04-05T16:39:05Z</time></trkpt><trkpt lat="46.008091717800646" lon="12.286083094958302"><ele>158.0</ele><time>2026-04-05T16:39:06Z</time></trkpt><trkpt lat="46.00837105295693" lon="12.28618753335702"><ele>159.0</ele><time>2026-04-05T16:39:07Z</time></trkpt><trkpt lat="46.008532189784944" lon="12.28619230313783"><ele>159.0</ele><time>2026-04-05T16:39:08Z</time></trkpt><trkpt lat="46.008756437579095" lon="12.286196037030084"><ele>159.0</ele><time>2026-04-05T16:39:09Z</time></trkpt><trkpt lat="46.00896061496808" lon="12.286234309674812"><ele>159.0</ele><time>2026-04-05T16:39:10Z</time></trkpt><trkpt lat="46.00909587164407" lon="12.286313555137006"><ele>159.33333333333334</ele><time>2026-04-05T16:39:12Z</time></trkpt><trkpt lat="46.00922937844374" lon="12.286392686927783"><ele>159.66666666666669</ele><time>2026-04-05T16:39:13Z</time></trkpt><trkpt lat="46.009298950760375" lon="12.286531685031584"><ele>160.0</ele><time>2026-04-05T16:39:14.014Z</time></trkpt><trkpt lat="46.0124648732429" lon="12.289963336976006"><ele>174.0</ele><time>2026-04-05T16:39:45.999Z</time></trkpt><trkpt lat="46.01360044778513" lon="12.289838886005995"><ele>174.0</ele><time>2026-04-05T16:39:55.016Z</time></trkpt><trkpt lat="46.013891199634735" lon="12.289774224581777"><ele>174.0</ele><time>2026-04-05T16:39:58.999Z</time></trkpt><trkpt lat="46.01397924100425" lon="12.289581048373106"><ele>172.5</ele><time>2026-04-05T16:39:59.999Z</time></trkpt><trkpt lat="46.01408640583724" lon="12.289355699664931"><ele>171.0</ele><time>2026-04-05T16:40:01.015Z</time></trkpt><trkpt lat="46.01432331579562" lon="12.289157615868499"><ele>171.0</ele><time>2026-04-05T16:40:02.013Z</time></trkpt><trkpt lat="46.014562616683854" lon="12.289130180962959"><ele>171.0</ele><time>2026-04-05T16:40:03.016Z</time></trkpt><trkpt lat="46.01469955709758" lon="12.289119262486565"><ele>171.0</ele><time>2026-04-05T16:40:04.015Z</time></trkpt><trkpt lat="46.01489207052742" lon="12.28909085366957"><ele>161.0</ele><time>2026-04-05T16:40:05.015Z</time></trkpt><trkpt lat="46.017388990773526" lon="12.289364632801856"><ele>161.0</ele><time>2026-04-05T16:40:16.788Z</time></trkpt><trkpt lat="46.01746767916511" lon="12.289418561375827"><ele>161.0</ele><time>2026-04-05T16:40:38.377Z</time></trkpt><trkpt lat="46.023039183891655" lon="12.294358677297641"><ele>163.0</ele><time>2026-04-05T16:40:43.999Z</time></trkpt><trkpt lat="46.02337034851379" lon="12.294601293014361"><ele>165.0</ele><time>2026-04-05T16:40:44.999Z</time></trkpt><trkpt lat="46.023468684212304" lon="12.294801902192509"><ele>165.0</ele><time>2026-04-05T16:40:45.999Z</time></trkpt><trkpt lat="46.02372071866182" lon="12.29503265699113"><ele>165.0</ele><time>2026-04-05T16:40:46.999Z</time></trkpt><trkpt lat="46.02395433076943" lon="12.295306489238673"><ele>164.5</ele><time>2026-04-05T16:40:47.999Z</time></trkpt><trkpt lat="46.02419944398909" lon="12.295492982165703"><ele>164.0</ele><time>2026-04-05T16:40:48.999Z</time></trkpt><trkpt lat="46.02445155461367" lon="12.295695628903857"><ele>164.0</ele><time>2026-04-05T16:40:50Z</time></trkpt><trkpt lat="46.024682312869146" lon="12.295829803534724"><ele>164.0</ele><time>2026-04-05T16:40:51Z</time></trkpt><trkpt lat="46.024933427448474" lon="12.296176006479122"><ele>165.0</ele><time>2026-04-05T16:40:52Z</time></trkpt><trkpt lat="46.02502011800774" lon="12.296243167535993"><ele>166.0</ele><time>2026-04-05T16:40:53Z</time></trkpt><trkpt lat="46.025233512684366" lon="12.29650690668423"><ele>167.0</ele><time>2026-04-05T16:40:54Z</time></trkpt><trkpt lat="46.02537944563273" lon="12.296690518841093"><ele>163.5</ele><time>2026-04-05T16:40:55Z</time></trkpt><trkpt lat="46.025615409456634" lon="12.297068521596142"><ele>160.0</ele><time>2026-04-05T16:40:56Z</time></trkpt><trkpt lat="46.02577082951695" lon="12.297382959661512"><ele>162.0</ele><time>2026-04-05T16:40:57Z</time></trkpt><trkpt lat="46.025931238664256" lon="12.297745099276868"><ele>164.0</ele><time>2026-04-05T16:40:58Z</time></trkpt><trkpt lat="46.0260906325645" lon="12.298123017636417"><ele>164.0</ele><time>2026-04-05T16:40:59Z</time></trkpt><trkpt lat="46.02651147987113" lon="12.29823884889121"><ele>164.0</ele><time>2026-04-05T16:41:01Z</time></trkpt><trkpt lat="46.02667276464654" lon="12.29850627227519"><ele>165.0</ele><time>2026-04-05T16:41:02Z</time></trkpt><trkpt lat="46.02686956952179" lon="12.29869838105932"><ele>166.0</ele><time>2026-04-05T16:41:03Z</time></trkpt><trkpt lat="46.027051888569474" lon="12.29887102471754"><ele>165.5</ele><time>2026-04-05T16:41:04Z</time></trkpt><trkpt lat="46.02719119376334" lon="12.29920985646612"><ele>165.0</ele><time>2026-04-05T16:41:05Z</time></trkpt><trkpt lat="46.02731629853366" lon="12.29961528293597"><ele>164.5</ele><time>2026-04-05T16:41:06Z</time></trkpt><trkpt lat="46.027486547288916" lon="12.299902316834222"><ele>164.0</ele><time>2026-04-05T16:41:07Z</time></trkpt><trkpt lat="46.02767265635692" lon="12.30012343124995"><ele>164.0</ele><time>2026-04-05T16:41:08Z</time></trkpt><trkpt lat="46.0278547659046" lon="12.300383422144376"><ele>164.0</ele><time>2026-04-05T16:41:09Z</time></trkpt><trkpt lat="46.02805790095957" lon="12.30055510248858"><ele>165.0</ele><time>2026-04-05T16:41:10Z</time></trkpt><trkpt lat="46.02817187751092" lon="12.3008184803599"><ele>166.0</ele><time>2026-04-05T16:41:11Z</time></trkpt><trkpt lat="46.0283111346411" lon="12.30100486378625"><ele>167.0</ele><time>2026-04-05T16:41:12Z</time></trkpt><trkpt lat="46.02840672566824" lon="12.301234389293183"><ele>166.33333333333331</ele><time>2026-04-05T16:41:13Z</time></trkpt><trkpt lat="46.02848758169531" lon="12.301427037130065"><ele>165.66666666666666</ele><time>2026-04-05T16:41:14Z</time></trkpt><trkpt lat="46.02867081538932" lon="12.301723854885001"><ele>165.0</ele><time>2026-04-05T16:41:15Z</time></trkpt><trkpt lat="46.028766766787285" lon="12.302099342100403"><ele>165.0</ele><time>2026-04-05T16:41:16Z</time></trkpt><trkpt lat="46.02875153986133" lon="12.302276135013066"><ele>165.0</ele><time>2026-04-05T16:41:17.014Z</time></trkpt><trkpt lat="46.0287769205085" lon="12.302502437971858"><ele>165.0</ele><time>2026-04-05T16:41:18.016Z</time></trkpt><trkpt lat="46.02921694217095" lon="12.302714095529614"><ele>168.0</ele><time>2026-04-05T16:41:19.016Z</time></trkpt><trkpt lat="46.02930742146632" lon="12.302933327236127"><ele>171.0</ele><time>2026-04-05T16:41:20.017Z</time></trkpt><trkpt lat="46.03080016565139" lon="12.303348155703677"><ele>180.25</ele><time>2026-04-05T16:41:28Z</time></trkpt><trkpt lat="46.03095984367185" lon="12.303383600602853"><ele>189.5</ele><time>2026-04-05T16:41:29Z</time></trkpt><trkpt lat="46.03110955746047" lon="12.30338575911847"><ele>198.75</ele><time>2026-04-05T16:41:30Z</time></trkpt><trkpt lat="46.03121568085015" lon="12.303311624007108"><ele>208.0</ele><time>2026-04-05T16:41:31Z</time></trkpt><trkpt lat="46.03607183792259" lon="12.308681644510765"><ele>208.0</ele><time>2026-04-05T16:42:09.999Z</time></trkpt><trkpt lat="46.036191212695805" lon="12.308898520058065"><ele>208.0</ele><time>2026-04-05T16:42:10.999Z</time></trkpt><trkpt lat="46.0362827685159" lon="12.309017423551817"><ele>208.0</ele><time>2026-04-05T16:42:11.999Z</time></trkpt><trkpt lat="46.03640762193297" lon="12.309227844076378"><ele>216.0</ele><time>2026-04-05T16:42:12.999Z</time></trkpt><trkpt lat="46.036636369190575" lon="12.309292027326567"><ele>224.0</ele><time>2026-04-05T16:42:13.999Z</time></trkpt><trkpt lat="46.036787379361265" lon="12.309380776443781"><ele>232.0</ele><time>2026-04-05T16:42:14.999Z</time></trkpt><trkpt lat="46.03698016194016" lon="12.309510959479457"><ele>232.0</ele><time>2026-04-05T16:42:15.999Z</time></trkpt><trkpt lat="46.037137673023054" lon="12.309611264695334"><ele>232.0</ele><time>2026-04-05T16:42:16.999Z</time></trkpt><trkpt lat="46.037297294820924" lon="12.30971291415904"><ele>232.0</ele><time>2026-04-05T16:42:18.015Z</time></trkpt><trkpt lat="46.03982948702391" lon="12.30977782980754"><ele>233.0</ele><time>2026-04-05T16:42:27.999Z</time></trkpt><trkpt lat="46.040029955652834" lon="12.309770763237456"><ele>234.0</ele><time>2026-04-05T16:42:28.999Z</time></trkpt><trkpt lat="46.04035789771772" lon="12.309005337054618"><ele>229.33333333333331</ele><time>2026-04-05T16:42:31.999Z</time></trkpt><trkpt lat="46.040478819956455" lon="12.308842577561009"><ele>224.66666666666666</ele><time>2026-04-05T16:42:32.999Z</time></trkpt><trkpt lat="46.04063800373278" lon="12.308674992786536"><ele>220.0</ele><time>2026-04-05T16:42:33.999Z</time></trkpt><trkpt lat="46.04069733683149" lon="12.30847283910864"><ele>223.8</ele><time>2026-04-05T16:42:34.999Z</time></trkpt><trkpt lat="46.04080299920473" lon="12.308374712338017"><ele>227.6</ele><time>2026-04-05T16:42:35.999Z</time></trkpt><trkpt lat="46.04086960631566" lon="12.308320021275405"><ele>231.39999999999998</ele><time>2026-04-05T16:42:36.999Z</time></trkpt><trkpt lat="46.04093067458722" lon="12.308345466683038"><ele>235.2</ele><time>2026-04-05T16:42:37.999Z</time></trkpt><trkpt lat="46.04104471213193" lon="12.308408301861249"><ele>239.0</ele><time>2026-04-05T16:42:39.999Z</time></trkpt><trkpt lat="46.041257951043086" lon="12.308486518441162"><ele>239.0</ele><time>2026-04-05T16:42:40.999Z</time></trkpt><trkpt lat="46.04134388906205" lon="12.308532397279812"><ele>239.0</ele><time>2026-04-05T16:42:41.999Z</time></trkpt><trkpt lat="46.041950947393104" lon="12.3077051999662"><ele>239.33333333333334</ele><time>2026-04-05T16:42:42.999Z</time></trkpt><trkpt lat="46.04216758035508" lon="12.307669970440719"><ele>239.66666666666669</ele><time>2026-04-05T16:42:43.999Z</time></trkpt><trkpt lat="46.04228029950276" lon="12.307915633909495"><ele>240.0</ele><time>2026-04-05T16:42:44.999Z</time></trkpt><trkpt lat="46.04222124272793" lon="12.308733580388978"><ele>242.66666666666669</ele><time>2026-04-05T16:42:45.999Z</time></trkpt><trkpt lat="46.042331937562466" lon="12.308585723303032"><ele>245.33333333333334</ele><time>2026-04-05T16:42:46.999Z</time></trkpt><trkpt lat="46.04250968402852" lon="12.308398814331708"><ele>248.0</ele><time>2026-04-05T16:42:47.999Z</time></trkpt><trkpt lat="46.04257669518284" lon="12.30826526778405"><ele>251.33333333333334</ele><time>2026-04-05T16:42:48.999Z</time></trkpt><trkpt lat="46.04254552946012" lon="12.307962864335494"><ele>254.66666666666669</ele><time>2026-04-05T16:42:49.999Z</time></trkpt><trkpt lat="46.04258656428779" lon="12.3077446097933"><ele>258.0</ele><time>2026-04-05T16:42:50.999Z</time></trkpt><trkpt lat="46.042531615637806" lon="12.307455536476121"><ele>261.5</ele><time>2026-04-05T16:42:51.999Z</time></trkpt><trkpt lat="46.04265853660332" lon="12.307147716617127"><ele>265.0</ele><time>2026-04-05T16:42:52.999Z</time></trkpt><trkpt lat="46.0428992079022" lon="12.306961579208677"><ele>265.0</ele><time>2026-04-05T16:42:53.999Z</time></trkpt><trkpt lat="46.0431526236707" lon="12.306971560955493"><ele>265.0</ele><time>2026-04-05T16:42:54.999Z</time></trkpt><trkpt lat="46.04329414474678" lon="12.306974347807301"><ele>265.0</ele><time>2026-04-05T16:42:56Z</time></trkpt><trkpt lat="46.07911710166007" lon="12.3350382875766"><ele>333.0</ele><time>2026-04-05T16:47:03Z</time></trkpt><trkpt lat="46.079038605136866" lon="12.334739305090471"><ele>401.0</ele><time>2026-04-05T16:47:04Z</time></trkpt><trkpt lat="46.07906752270281" lon="12.334611313429042"><ele>469.0</ele><time>2026-04-05T16:47:05Z</time></trkpt><trkpt lat="46.0791446781215" lon="12.334446022298499"><ele>482.0</ele><time>2026-04-05T16:47:07Z</time></trkpt><trkpt lat="46.07919760984003" lon="12.334321634855431"><ele>495.0</ele><time>2026-04-05T16:47:08Z</time></trkpt><trkpt lat="46.08203190848798" lon="12.336342427891061"><ele>495.33333333333337</ele><time>2026-04-05T16:47:41.999Z</time></trkpt><trkpt lat="46.082161325072946" lon="12.336131623026295"><ele>495.6666666666667</ele><time>2026-04-05T16:47:42.999Z</time></trkpt><trkpt lat="46.082383319778444" lon="12.336099352699085"><ele>496.0</ele><time>2026-04-05T16:47:43.999Z</time></trkpt><trkpt lat="46.082596681123675" lon="12.33599751257555"><ele>493.0</ele><time>2026-04-05T16:47:44.999Z</time></trkpt><trkpt lat="46.082818759648205" lon="12.33586113901095"><ele>490.0</ele><time>2026-04-05T16:47:45.999Z</time></trkpt><trkpt lat="46.08303291727424" lon="12.335783103492423"><ele>487.0</ele><time>2026-04-05T16:47:46.999Z</time></trkpt><trkpt lat="46.08329686340511" lon="12.335756197583242"><ele>484.0</ele><time>2026-04-05T16:47:47.999Z</time></trkpt><trkpt lat="46.083853204954266" lon="12.336203003343359"><ele>486.0</ele><time>2026-04-05T16:47:54.999Z</time></trkpt><trkpt lat="46.08424145914382" lon="12.33656770056544"><ele>486.0</ele><time>2026-04-05T16:47:55.999Z</time></trkpt><trkpt lat="46.08446057871463" lon="12.33643111096837"><ele>486.0</ele><time>2026-04-05T16:47:58.999Z</time></trkpt><trkpt lat="46.084564691532854" lon="12.33659581147649"><ele>486.0</ele><time>2026-04-05T16:48:00.015Z</time></trkpt><trkpt lat="46.08467992652363" lon="12.336734775831694"><ele>486.0</ele><time>2026-04-05T16:48:01.012Z</time></trkpt><trkpt lat="46.08476687570939" lon="12.336863991480453"><ele>486.0</ele><time>2026-04-05T16:48:02.014Z</time></trkpt><trkpt lat="46.08485196933128" lon="12.337009834394797"><ele>486.0</ele><time>2026-04-05T16:48:03.015Z</time></trkpt><trkpt lat="46.084919477354504" lon="12.337166649289788"><ele>486.0</ele><time>2026-04-05T16:48:04.016Z</time></trkpt><trkpt lat="46.08597898860097" lon="12.337730806332395"><ele>474.0</ele><time>2026-04-05T16:48:12.999Z</time></trkpt><trkpt lat="46.086200522301795" lon="12.33749452048199"><ele>462.0</ele><time>2026-04-05T16:48:15.999Z</time></trkpt><trkpt lat="46.08649334408909" lon="12.337424615409539"><ele>461.5</ele><time>2026-04-05T16:48:16.999Z</time></trkpt><trkpt lat="46.08667820696354" lon="12.337423777219222"><ele>461.0</ele><time>2026-04-05T16:48:17.999Z</time></trkpt><trkpt lat="46.08683763076186" lon="12.337844800215528"><ele>461.0</ele><time>2026-04-05T16:48:19.999Z</time></trkpt><trkpt lat="46.086949447636115" lon="12.337910211759874"><ele>461.0</ele><time>2026-04-05T16:48:20.999Z</time></trkpt><trkpt lat="46.08711284412596" lon="12.33780371187314"><ele>461.0</ele><time>2026-04-05T16:48:21.999Z</time></trkpt><trkpt lat="46.08727580956334" lon="12.337991572807834"><ele>461.3333333333333</ele><time>2026-04-05T16:48:23Z</time></trkpt><trkpt lat="46.087370437167394" lon="12.338143787387823"><ele>461.66666666666663</ele><time>2026-04-05T16:48:24Z</time></trkpt><trkpt lat="46.08746871611027" lon="12.338323102727431"><ele>462.0</ele><time>2026-04-05T16:48:25Z</time></trkpt><trkpt lat="46.08759019232441" lon="12.338520655294372"><ele>462.0</ele><time>2026-04-05T16:48:26Z</time></trkpt><trkpt lat="46.0876943048025" lon="12.338768037538777"><ele>462.0</ele><time>2026-04-05T16:48:27Z</time></trkpt><trkpt lat="46.08780179577035" lon="12.339028231913655"><ele>462.0</ele><time>2026-04-05T16:48:28Z</time></trkpt><trkpt lat="46.08792058519294" lon="12.339277074667107"><ele>466.66666666666663</ele><time>2026-04-05T16:48:29Z</time></trkpt><trkpt lat="46.08806579963914" lon="12.339502731178694"><ele>471.3333333333333</ele><time>2026-04-05T16:48:30Z</time></trkpt><trkpt lat="46.088212362556554" lon="12.339685668425686"><ele>476.0</ele><time>2026-04-05T16:48:31Z</time></trkpt><trkpt lat="46.08836768248977" lon="12.339856706016374"><ele>476.0</ele><time>2026-04-05T16:48:32Z</time></trkpt><trkpt lat="46.08852164135537" lon="12.340011489463905"><ele>476.0</ele><time>2026-04-05T16:48:33Z</time></trkpt><trkpt lat="46.088657671327" lon="12.340180013959792"><ele>476.0</ele><time>2026-04-05T16:48:34Z</time></trkpt><trkpt lat="46.08877227373405" lon="12.340346690495178"><ele>482.66666666666663</ele><time>2026-04-05T16:48:35Z</time></trkpt><trkpt lat="46.088823782988165" lon="12.340562357102694"><ele>489.33333333333337</ele><time>2026-04-05T16:48:36Z</time></trkpt><trkpt lat="46.08887357664334" lon="12.340793456827427"><ele>496.0</ele><time>2026-04-05T16:48:37Z</time></trkpt><trkpt lat="46.088917034097186" lon="12.341043386378328"><ele>496.0</ele><time>2026-04-05T16:48:38Z</time></trkpt><trkpt lat="46.088957165583906" lon="12.341275344406988"><ele>496.0</ele><time>2026-04-05T16:48:39Z</time></trkpt><trkpt lat="46.08900465102972" lon="12.341588571618228"><ele>496.0</ele><time>2026-04-05T16:48:40Z</time></trkpt><trkpt lat="46.08902371358206" lon="12.341828499094351"><ele>496.5</ele><time>2026-04-05T16:48:41Z</time></trkpt><trkpt lat="46.08903338505104" lon="12.342053553097449"><ele>497.0</ele><time>2026-04-05T16:48:42Z</time></trkpt><trkpt lat="46.08902842594375" lon="12.342252173588953"><ele>497.5</ele><time>2026-04-05T16:48:43Z</time></trkpt><trkpt lat="46.08901332327766" lon="12.342438851674133"><ele>498.0</ele><time>2026-04-05T16:48:44Z</time></trkpt><trkpt lat="46.08900432451105" lon="12.342624624276924"><ele>495.75</ele><time>2026-04-05T16:48:45Z</time></trkpt><trkpt lat="46.08901357661422" lon="12.342801096832133"><ele>493.5</ele><time>2026-04-05T16:48:46Z</time></trkpt><trkpt lat="46.08905285048025" lon="12.342964017439524"><ele>491.25</ele><time>2026-04-05T16:48:47Z</time></trkpt><trkpt lat="46.08912873943272" lon="12.343086484987015"><ele>489.0</ele><time>2026-04-05T16:48:48Z</time></trkpt><trkpt lat="46.08923097857801" lon="12.343197235655097"><ele>480.5</ele><time>2026-04-05T16:48:49Z</time></trkpt><trkpt lat="46.08934808181338" lon="12.343253728427692"><ele>472.0</ele><time>2026-04-05T16:48:50Z</time></trkpt><trkpt lat="46.089465841070535" lon="12.34324232757637"><ele>463.5</ele><time>2026-04-05T16:48:51Z</time></trkpt><trkpt lat="46.08960392158009" lon="12.343190081684012"><ele>455.0</ele><time>2026-04-05T16:48:52Z</time></trkpt><trkpt lat="46.08975255285864" lon="12.34311367621585"><ele>454.66666666666663</ele><time>2026-04-05T16:48:53Z</time></trkpt><trkpt lat="46.08991765725377" lon="12.343026290521221"><ele>454.33333333333337</ele><time>2026-04-05T16:48:54Z</time></trkpt><trkpt lat="46.090091787244404" lon="12.342944461483972"><ele>454.0</ele><time>2026-04-05T16:48:55Z</time></trkpt><trkpt lat="46.090282675065545" lon="12.342847558523482"><ele>447.33333333333337</ele><time>2026-04-05T16:48:56Z</time></trkpt><trkpt lat="46.09048240233475" lon="12.342757402175968"><ele>440.66666666666663</ele><time>2026-04-05T16:48:57Z</time></trkpt><trkpt lat="46.0906734767955" lon="12.342632685086052"><ele>434.0</ele><time>2026-04-05T16:48:58Z</time></trkpt><trkpt lat="46.090841787757824" lon="12.342502970459861"><ele>433.3333333333333</ele><time>2026-04-05T16:48:59Z</time></trkpt><trkpt lat="46.090996947998086" lon="12.34230962582078"><ele>432.66666666666663</ele><time>2026-04-05T16:49:00Z</time></trkpt><trkpt lat="46.09113440478347" lon="12.342078114156422"><ele>432.0</ele><time>2026-04-05T16:49:01.014Z</time></trkpt><trkpt lat="46.09129070358104" lon="12.341814106512143"><ele>432.0</ele><time>2026-04-05T16:49:02.014Z</time></trkpt><trkpt lat="46.091457854979545" lon="12.341536117667312"><ele>432.0</ele><time>2026-04-05T16:49:03.012Z</time></trkpt><trkpt lat="46.091613414253054" lon="12.341275955427346"><ele>430.0</ele><time>2026-04-05T16:49:04.012Z</time></trkpt><trkpt lat="46.091800716026604" lon="12.340971599630008"><ele>428.0</ele><time>2026-04-05T16:49:05.015Z</time></trkpt><trkpt lat="46.09516363431492" lon="12.340922715451551"><ele>404.0</ele><time>2026-04-05T16:49:19.144Z</time></trkpt><trkpt lat="46.09547307566192" lon="12.340940532022984"><ele>380.0</ele><time>2026-04-05T16:49:20.245Z</time></trkpt><trkpt lat="46.09572751023956" lon="12.340999968679357"><ele>380.0</ele><time>2026-04-05T16:49:21.159Z</time></trkpt><trkpt lat="46.09608868132336" lon="12.341246775130408"><ele>380.0</ele><time>2026-04-05T16:49:22.678Z</time></trkpt><trkpt lat="46.09676666557188" lon="12.341872961310546"><ele>396.0</ele><time>2026-04-05T16:49:25.914Z</time></trkpt><trkpt lat="46.106667347780274" lon="12.354202659004741"><ele>393.0</ele><time>2026-04-05T16:50:22.163Z</time></trkpt><trkpt lat="46.12053141467843" lon="12.355483425792638"><ele>396.0</ele><time>2026-04-05T16:51:15Z</time></trkpt><trkpt lat="46.12073580738727" lon="12.356202006351534"><ele>396.0</ele><time>2026-04-05T16:51:16Z</time></trkpt><trkpt lat="46.12199623607669" lon="12.35697967932779"><ele>394.0</ele><time>2026-04-05T16:51:34Z</time></trkpt><trkpt lat="46.12284289211605" lon="12.356809275236312"><ele>394.0</ele><time>2026-04-05T16:51:39Z</time></trkpt><trkpt lat="46.12299229954008" lon="12.356774657976214"><ele>394.0</ele><time>2026-04-05T16:51:40Z</time></trkpt><trkpt lat="46.12334903333906" lon="12.356508448731486"><ele>394.0</ele><time>2026-04-05T16:51:42Z</time></trkpt><trkpt lat="46.12349420790199" lon="12.356455978017632"><ele>394.0</ele><time>2026-04-05T16:51:43Z</time></trkpt><trkpt lat="46.123656774914004" lon="12.356412559759203"><ele>394.0</ele><time>2026-04-05T16:51:44Z</time></trkpt><trkpt lat="46.12387633886758" lon="12.356393029924813"><ele>393.6666666666667</ele><time>2026-04-05T16:51:46Z</time></trkpt><trkpt lat="46.123880948914326" lon="12.356263194244686"><ele>393.33333333333337</ele><time>2026-04-05T16:51:47Z</time></trkpt><trkpt lat="46.124068535907305" lon="12.35619446263868"><ele>393.0</ele><time>2026-04-05T16:51:48Z</time></trkpt><trkpt lat="46.12431697551731" lon="12.355053853255095"><ele>394.0</ele><time>2026-04-05T16:51:49.999Z</time></trkpt><trkpt lat="46.12444333270762" lon="12.354721259337248"><ele>395.0</ele><time>2026-04-05T16:51:50.999Z</time></trkpt><trkpt lat="46.12458708234701" lon="12.354574492212715"><ele>396.0</ele><time>2026-04-05T16:51:51.999Z</time></trkpt><trkpt lat="46.12480547283415" lon="12.354412302386345"><ele>396.5</ele><time>2026-04-05T16:51:52.999Z</time></trkpt><trkpt lat="46.12507662740175" lon="12.354061771195711"><ele>397.0</ele><time>2026-04-05T16:51:53.999Z</time></trkpt><trkpt lat="46.12527561378304" lon="12.35351979733664"><ele>396.5</ele><time>2026-04-05T16:51:54.999Z</time></trkpt><trkpt lat="46.12547539644514" lon="12.353289546456516"><ele>396.0</ele><time>2026-04-05T16:51:55.999Z</time></trkpt><trkpt lat="46.12571176611458" lon="12.352963071327984"><ele>396.0</ele><time>2026-04-05T16:51:56.999Z</time></trkpt><trkpt lat="46.12592299604053" lon="12.352710623027614"><ele>396.0</ele><time>2026-04-05T16:51:57.999Z</time></trkpt><trkpt lat="46.126197272596144" lon="12.352402889164939"><ele>396.0</ele><time>2026-04-05T16:51:58.999Z</time></trkpt><trkpt lat="46.12641045711854" lon="12.35210393033259"><ele>396.0</ele><time>2026-04-05T16:51:59.999Z</time></trkpt><trkpt lat="46.12661000178186" lon="12.351873623395734"><ele>396.5</ele><time>2026-04-05T16:52:00.999Z</time></trkpt><trkpt lat="46.126841970594924" lon="12.351603042301669"><ele>397.0</ele><time>2026-04-05T16:52:01.999Z</time></trkpt><trkpt lat="46.12712466162269" lon="12.351273950200854"><ele>397.0</ele><time>2026-04-05T16:52:02.999Z</time></trkpt><trkpt lat="46.127341864529974" lon="12.350997725171883"><ele>397.0</ele><time>2026-04-05T16:52:03.999Z</time></trkpt><trkpt lat="46.12756380099159" lon="12.350431219512243"><ele>396.5</ele><time>2026-04-05T16:52:04.999Z</time></trkpt><trkpt lat="46.127759373700364" lon="12.350135921903693"><ele>396.0</ele><time>2026-04-05T16:52:05.999Z</time></trkpt><trkpt lat="46.127970870073774" lon="12.349886570910625"><ele>395.5</ele><time>2026-04-05T16:52:06.999Z</time></trkpt><trkpt lat="46.12819167615718" lon="12.34956648292538"><ele>395.0</ele><time>2026-04-05T16:52:07.999Z</time></trkpt><trkpt lat="46.1283952917249" lon="12.349264031732686"><ele>395.0</ele><time>2026-04-05T16:52:08.999Z</time></trkpt><trkpt lat="46.12858435773216" lon="12.348970952185873"><ele>395.0</ele><time>2026-04-05T16:52:09.999Z</time></trkpt><trkpt lat="46.128763559957925" lon="12.348688668372997"><ele>395.0</ele><time>2026-04-05T16:52:10.999Z</time></trkpt><trkpt lat="46.12894336949662" lon="12.34838285707962"><ele>395.0</ele><time>2026-04-05T16:52:11.999Z</time></trkpt><trkpt lat="46.12913131345685" lon="12.348057871808376"><ele>394.5</ele><time>2026-04-05T16:52:12.999Z</time></trkpt><trkpt lat="46.12933747896199" lon="12.347747789419074"><ele>394.0</ele><time>2026-04-05T16:52:13.999Z</time></trkpt><trkpt lat="46.129515891041926" lon="12.347414842375468"><ele>393.0</ele><time>2026-04-05T16:52:14.999Z</time></trkpt><trkpt lat="46.12968907610676" lon="12.347104971077648"><ele>392.0</ele><time>2026-04-05T16:52:15.999Z</time></trkpt><trkpt lat="46.1298650475302" lon="12.346822940540893"><ele>392.5</ele><time>2026-04-05T16:52:16.999Z</time></trkpt><trkpt lat="46.13000234536591" lon="12.346541373346978"><ele>393.0</ele><time>2026-04-05T16:52:17.999Z</time></trkpt><trkpt lat="46.13013678775948" lon="12.346281326939286"><ele>393.0</ele><time>2026-04-05T16:52:18.999Z</time></trkpt><trkpt lat="46.13030782481897" lon="12.346003530805621"><ele>393.0</ele><time>2026-04-05T16:52:19.999Z</time></trkpt><trkpt lat="46.13045187362343" lon="12.345700659574858"><ele>390.0</ele><time>2026-04-05T16:52:20.999Z</time></trkpt><trkpt lat="46.13073865034652" lon="12.345128337899197"><ele>390.0</ele><time>2026-04-05T16:52:21.999Z</time></trkpt><trkpt lat="46.13091343305963" lon="12.344775089837583"><ele>390.0</ele><time>2026-04-05T16:52:22.999Z</time></trkpt><trkpt lat="46.13106268861295" lon="12.34447371339158"><ele>390.0</ele><time>2026-04-05T16:52:23.999Z</time></trkpt><trkpt lat="46.13118423516244" lon="12.344230879824332"><ele>390.0</ele><time>2026-04-05T16:52:24.999Z</time></trkpt><trkpt lat="46.131248065005195" lon="12.34409757643083"><ele>390.0</ele><time>2026-04-05T16:52:25.999Z</time></trkpt><trkpt lat="46.13135421708394" lon="12.343879412785544"><ele>390.0</ele><time>2026-04-05T16:52:26.999Z</time></trkpt><trkpt lat="46.13151497820672" lon="12.343609995636621"><ele>390.0</ele><time>2026-04-05T16:52:27.999Z</time></trkpt><trkpt lat="46.13164793144216" lon="12.343391229153195"><ele>390.0</ele><time>2026-04-05T16:52:28.999Z</time></trkpt><trkpt lat="46.131786469842666" lon="12.343123440327862"><ele>391.0</ele><time>2026-04-05T16:52:29.999Z</time></trkpt><trkpt lat="46.13192082568962" lon="12.342859341387268"><ele>392.0</ele><time>2026-04-05T16:52:30.999Z</time></trkpt><trkpt lat="46.13206559491209" lon="12.342590192471485"><ele>392.0</ele><time>2026-04-05T16:52:31.999Z</time></trkpt><trkpt lat="46.13220944002712" lon="12.342301613898105"><ele>392.0</ele><time>2026-04-05T16:52:32.999Z</time></trkpt><trkpt lat="46.132035313445485" lon="12.34188187658358"><ele>393.0</ele><time>2026-04-05T16:52:33.999Z</time></trkpt><trkpt lat="46.132094056266574" lon="12.34157515868192"><ele>394.0</ele><time>2026-04-05T16:52:34.999Z</time></trkpt><trkpt lat="46.13216022894489" lon="12.341220749491967"><ele>394.0</ele><time>2026-04-05T16:52:35.999Z</time></trkpt><trkpt lat="46.13204682683798" lon="12.341824435006945"><ele>394.0</ele><time>2026-04-05T16:52:36.999Z</time></trkpt><trkpt lat="46.132085948754515" lon="12.341702655598354"><ele>396.0</ele><time>2026-04-05T16:52:42Z</time></trkpt><trkpt lat="46.13269503928881" lon="12.341900251050909"><ele>396.0</ele><time>2026-04-05T16:52:43Z</time></trkpt><trkpt lat="46.13256256386278" lon="12.34163683006951"><ele>396.0</ele><time>2026-04-05T16:52:44Z</time></trkpt><trkpt lat="46.13253999579233" lon="12.341435195785497"><ele>396.0</ele><time>2026-04-05T16:52:45Z</time></trkpt><trkpt lat="46.13247987626788" lon="12.341327338822902"><ele>395.75</ele><time>2026-04-05T16:52:46Z</time></trkpt><trkpt lat="46.132485785522974" lon="12.341164478079554"><ele>395.5</ele><time>2026-04-05T16:52:47Z</time></trkpt><trkpt lat="46.132364668885295" lon="12.341125795289694"><ele>395.25</ele><time>2026-04-05T16:52:48Z</time></trkpt><trkpt lat="46.132358758120965" lon="12.340996860695174"><ele>395.0</ele><time>2026-04-05T16:52:49Z</time></trkpt><trkpt lat="46.13232384895927" lon="12.340760868942716"><ele>395.0</ele><time>2026-04-05T16:52:50Z</time></trkpt><trkpt lat="46.132250646504055" lon="12.340303406437872"><ele>395.0</ele><time>2026-04-05T16:52:52Z</time></trkpt><trkpt lat="46.13215411632203" lon="12.339861522509866"><ele>394.0</ele><time>2026-04-05T16:52:53Z</time></trkpt><trkpt lat="46.13243967192041" lon="12.339390835672594"><ele>393.0</ele><time>2026-04-05T16:52:54Z</time></trkpt><trkpt lat="46.13255201321963" lon="12.339023858061566"><ele>392.5</ele><time>2026-04-05T16:52:55Z</time></trkpt><trkpt lat="46.13266010088243" lon="12.338669743048783"><ele>392.0</ele><time>2026-04-05T16:52:56Z</time></trkpt><trkpt lat="46.13261898574204" lon="12.338314674509043"><ele>392.0</ele><time>2026-04-05T16:52:57Z</time></trkpt><trkpt lat="46.13259477206859" lon="12.337983994035904"><ele>392.0</ele><time>2026-04-05T16:52:58Z</time></trkpt><trkpt lat="46.13255504683002" lon="12.3376254392241"><ele>392.0</ele><time>2026-04-05T16:52:59Z</time></trkpt><trkpt lat="46.13253789266313" lon="12.337279951471434"><ele>392.0</ele><time>2026-04-05T16:53:00Z</time></trkpt><trkpt lat="46.13253247072718" lon="12.336900480690863"><ele>390.5</ele><time>2026-04-05T16:53:01Z</time></trkpt><trkpt lat="46.13235332756773" lon="12.33651180044124"><ele>389.0</ele><time>2026-04-05T16:53:02Z</time></trkpt><trkpt lat="46.13232483349017" lon="12.336148114399917"><ele>388.5</ele><time>2026-04-05T16:53:03Z</time></trkpt><trkpt lat="46.132219172287655" lon="12.335855217924268"><ele>388.0</ele><time>2026-04-05T16:53:04Z</time></trkpt><trkpt lat="46.13221499767894" lon="12.335382657194923"><ele>388.0</ele><time>2026-04-05T16:53:05Z</time></trkpt><trkpt lat="46.13217636595811" lon="12.335033509236204"><ele>388.0</ele><time>2026-04-05T16:53:06Z</time></trkpt><trkpt lat="46.13213275282571" lon="12.334549070499028"><ele>388.0</ele><time>2026-04-05T16:53:07Z</time></trkpt><trkpt lat="46.13208224138565" lon="12.334147139016492"><ele>388.0</ele><time>2026-04-05T16:53:08Z</time></trkpt><trkpt lat="46.13200860756946" lon="12.333819038096362"><ele>388.0</ele><time>2026-04-05T16:53:09Z</time></trkpt><trkpt lat="46.131934075627754" lon="12.333526891532468"><ele>388.0</ele><time>2026-04-05T16:53:10Z</time></trkpt><trkpt lat="46.13189656794764" lon="12.333198699462919"><ele>388.0</ele><time>2026-04-05T16:53:11Z</time></trkpt><trkpt lat="46.13182965317252" lon="12.332860944265928"><ele>387.0</ele><time>2026-04-05T16:53:12Z</time></trkpt><trkpt lat="46.13179379683326" lon="12.332524083573626"><ele>386.0</ele><time>2026-04-05T16:53:13Z</time></trkpt><trkpt lat="46.13176255574925" lon="12.332202444105027"><ele>386.0</ele><time>2026-04-05T16:53:14Z</time></trkpt><trkpt lat="46.13175631192661" lon="12.331934278580096"><ele>386.0</ele><time>2026-04-05T16:53:15Z</time></trkpt><trkpt lat="46.13172666611149" lon="12.331650673160082"><ele>386.0</ele><time>2026-04-05T16:53:16Z</time></trkpt><trkpt lat="46.13179847634856" lon="12.331332399573357"><ele>386.0</ele><time>2026-04-05T16:53:17Z</time></trkpt><trkpt lat="46.131778158502094" lon="12.331021057016695"><ele>386.0</ele><time>2026-04-05T16:53:18Z</time></trkpt><trkpt lat="46.13217835044988" lon="12.330904759788767"><ele>386.0</ele><time>2026-04-05T16:53:19Z</time></trkpt><trkpt lat="46.13205715238858" lon="12.33061993056086"><ele>386.0</ele><time>2026-04-05T16:53:20Z</time></trkpt><trkpt lat="46.13219372393708" lon="12.33031282707193"><ele>386.0</ele><time>2026-04-05T16:53:21Z</time></trkpt><trkpt lat="46.13230045289546" lon="12.32982408607747"><ele>386.0</ele><time>2026-04-05T16:53:22Z</time></trkpt><trkpt lat="46.13227002779373" lon="12.329400307312373"><ele>385.0</ele><time>2026-04-05T16:53:23Z</time></trkpt><trkpt lat="46.1323087475882" lon="12.328897232495576"><ele>384.0</ele><time>2026-04-05T16:53:24Z</time></trkpt><trkpt lat="46.13228513625796" lon="12.328519772850418"><ele>384.0</ele><time>2026-04-05T16:53:25Z</time></trkpt><trkpt lat="46.13230624582324" lon="12.328170915786197"><ele>384.0</ele><time>2026-04-05T16:53:26Z</time></trkpt><trkpt lat="46.132295615580105" lon="12.327761400615696"><ele>383.0</ele><time>2026-04-05T16:53:27Z</time></trkpt><trkpt lat="46.13229791839844" lon="12.327399644734516"><ele>382.0</ele><time>2026-04-05T16:53:28Z</time></trkpt><trkpt lat="46.13230022342141" lon="12.327037881826545"><ele>381.66666666666663</ele><time>2026-04-05T16:53:29Z</time></trkpt><trkpt lat="46.13230859783357" lon="12.32672003587342"><ele>381.3333333333333</ele><time>2026-04-05T16:53:30Z</time></trkpt><trkpt lat="46.13232990317371" lon="12.326429384018411"><ele>381.0</ele><time>2026-04-05T16:53:31Z</time></trkpt><trkpt lat="46.13231443590442" lon="12.32605146748997"><ele>381.0</ele><time>2026-04-05T16:53:32Z</time></trkpt><trkpt lat="46.13247062275746" lon="12.325693298642445"><ele>381.0</ele><time>2026-04-05T16:53:33Z</time></trkpt><trkpt lat="46.13240468285809" lon="12.325146464299998"><ele>381.0</ele><time>2026-04-05T16:53:34Z</time></trkpt><trkpt lat="46.13239935161501" lon="12.324741214911828"><ele>381.0</ele><time>2026-04-05T16:53:35Z</time></trkpt><trkpt lat="46.13241696059923" lon="12.324382920015342"><ele>381.5</ele><time>2026-04-05T16:53:36Z</time></trkpt><trkpt lat="46.13238395141234" lon="12.324068896536714"><ele>382.0</ele><time>2026-04-05T16:53:37Z</time></trkpt><trkpt lat="46.13234536807351" lon="12.323666683183603"><ele>382.5</ele><time>2026-04-05T16:53:38Z</time></trkpt><trkpt lat="46.132339330484264" lon="12.323251868347135"><ele>383.0</ele><time>2026-04-05T16:53:39Z</time></trkpt><trkpt lat="46.13236970956822" lon="12.32278233851178"><ele>381.5</ele><time>2026-04-05T16:53:40Z</time></trkpt><trkpt lat="46.13238030177532" lon="12.322321878074199"><ele>380.0</ele><time>2026-04-05T16:53:41Z</time></trkpt><trkpt lat="46.132409703519535" lon="12.321880200394505"><ele>379.5</ele><time>2026-04-05T16:53:42Z</time></trkpt><trkpt lat="46.13242053651762" lon="12.32145445964151"><ele>379.0</ele><time>2026-04-05T16:53:43Z</time></trkpt><trkpt lat="46.13251327577015" lon="12.320819697555425"><ele>379.0</ele><time>2026-04-05T16:53:44Z</time></trkpt><trkpt lat="46.13249884006799" lon="12.320350984785337"><ele>379.0</ele><time>2026-04-05T16:53:45Z</time></trkpt><trkpt lat="46.13253255668252" lon="12.319882116063393"><ele>378.5</ele><time>2026-04-05T16:53:46Z</time></trkpt><trkpt lat="46.132484966019206" lon="12.319447864095626"><ele>378.0</ele><time>2026-04-05T16:53:47Z</time></trkpt><trkpt lat="46.13245563018506" lon="12.319150697747208"><ele>379.0</ele><time>2026-04-05T16:53:48Z</time></trkpt><trkpt lat="46.13242420855778" lon="12.318884239854135"><ele>380.0</ele><time>2026-04-05T16:53:49Z</time></trkpt><trkpt lat="46.132631704905144" lon="12.31857035116528"><ele>380.0</ele><time>2026-04-05T16:53:50Z</time></trkpt><trkpt lat="46.13265064544296" lon="12.318214896108728"><ele>380.0</ele><time>2026-04-05T16:53:51Z</time></trkpt><trkpt lat="46.13265674175584" lon="12.317851534638455"><ele>383.0</ele><time>2026-04-05T16:53:52.017Z</time></trkpt><trkpt lat="46.13268918639486" lon="12.317492472072592"><ele>386.0</ele><time>2026-04-05T16:53:53.016Z</time></trkpt><trkpt lat="46.13271960975933" lon="12.317123160897742"><ele>392.5</ele><time>2026-04-05T16:53:54.015Z</time></trkpt><trkpt lat="46.132750297479305" lon="12.316760770877954"><ele>399.0</ele><time>2026-04-05T16:53:55.014Z</time></trkpt><trkpt lat="46.13277554906659" lon="12.316403032771117"><ele>410.0</ele><time>2026-04-05T16:53:56.017Z</time></trkpt><trkpt lat="46.132799560674144" lon="12.316050286611096"><ele>421.0</ele><time>2026-04-05T16:53:57.017Z</time></trkpt><trkpt lat="46.13282857125758" lon="12.315692152979455"><ele>428.5</ele><time>2026-04-05T16:53:58.015Z</time></trkpt><trkpt lat="46.13285558735358" lon="12.31533222582373"><ele>436.0</ele><time>2026-04-05T16:53:59.011Z</time></trkpt><trkpt lat="46.137615637159165" lon="12.316570097011562"><ele>390.0</ele><time>2026-04-05T16:54:21.999Z</time></trkpt><trkpt lat="46.13808283907539" lon="12.316591011908237"><ele>389.5</ele><time>2026-04-05T16:54:22.999Z</time></trkpt><trkpt lat="46.13839507453093" lon="12.316592054859713"><ele>389.0</ele><time>2026-04-05T16:54:23.999Z</time></trkpt><trkpt lat="46.13916184618975" lon="12.316581629902037"><ele>385.0</ele><time>2026-04-05T16:54:26.999Z</time></trkpt><trkpt lat="46.1396312860925" lon="12.316475506089889"><ele>385.0</ele><time>2026-04-05T16:54:27.999Z</time></trkpt><trkpt lat="46.13991099014931" lon="12.316467962340438"><ele>385.0</ele><time>2026-04-05T16:54:28.999Z</time></trkpt><trkpt lat="46.140190179212794" lon="12.316460507169674"><ele>394.0</ele><time>2026-04-05T16:54:29.999Z</time></trkpt><trkpt lat="46.141106011388956" lon="12.315997034322764"><ele>394.0</ele><time>2026-04-05T16:54:32.999Z</time></trkpt><trkpt lat="46.14138642517842" lon="12.315972250789919"><ele>394.0</ele><time>2026-04-05T16:54:33.999Z</time></trkpt><trkpt lat="46.14599574166652" lon="12.315895670673275"><ele>390.0</ele><time>2026-04-05T16:54:52.235Z</time></trkpt><trkpt lat="46.14960101027371" lon="12.319102597690982"><ele>384.0</ele><time>2026-04-05T16:54:57.478Z</time></trkpt><trkpt lat="46.15522115252563" lon="12.319110172350815"><ele>393.0</ele><time>2026-04-05T16:55:17.999Z</time></trkpt><trkpt lat="46.15592020615614" lon="12.31885986783173"><ele>393.0</ele><time>2026-04-05T16:55:19.999Z</time></trkpt><trkpt lat="46.15620411135854" lon="12.318784064283415"><ele>393.0</ele><time>2026-04-05T16:55:21Z</time></trkpt><trkpt lat="46.15658039075142" lon="12.31868966188427"><ele>391.5</ele><time>2026-04-05T16:55:22Z</time></trkpt><trkpt lat="46.15690532145346" lon="12.31856237705535"><ele>390.0</ele><time>2026-04-05T16:55:23Z</time></trkpt><trkpt lat="46.15723706296333" lon="12.31845834552138"><ele>386.5</ele><time>2026-04-05T16:55:24Z</time></trkpt><trkpt lat="46.157565367473865" lon="12.318369737565632"><ele>383.0</ele><time>2026-04-05T16:55:25Z</time></trkpt><trkpt lat="46.15794736158083" lon="12.318318606358512"><ele>382.5</ele><time>2026-04-05T16:55:26Z</time></trkpt><trkpt lat="46.15827810049954" lon="12.318283561715216"><ele>382.0</ele><time>2026-04-05T16:55:27Z</time></trkpt><trkpt lat="46.15861249859196" lon="12.318263296261648"><ele>382.0</ele><time>2026-04-05T16:55:28Z</time></trkpt><trkpt lat="46.158944995035206" lon="12.318295474039745"><ele>382.0</ele><time>2026-04-05T16:55:29Z</time></trkpt><trkpt lat="46.15928044329853" lon="12.318305472310438"><ele>383.0</ele><time>2026-04-05T16:55:30Z</time></trkpt><trkpt lat="46.15955650796192" lon="12.318419918712049"><ele>384.0</ele><time>2026-04-05T16:55:31Z</time></trkpt><trkpt lat="46.15980365944104" lon="12.31856697121112"><ele>388.5</ele><time>2026-04-05T16:55:32Z</time></trkpt><trkpt lat="46.160110737694055" lon="12.318719095534568"><ele>393.0</ele><time>2026-04-05T16:55:33Z</time></trkpt><trkpt lat="46.160617281355464" lon="12.317987738924534"><ele>399.33333333333337</ele><time>2026-04-05T16:55:34Z</time></trkpt><trkpt lat="46.16073301263125" lon="12.31795846306808"><ele>405.6666666666667</ele><time>2026-04-05T16:55:35Z</time></trkpt><trkpt lat="46.16090153813351" lon="12.317955256207199"><ele>412.0</ele><time>2026-04-05T16:55:36Z</time></trkpt><trkpt lat="46.16117653920639" lon="12.317910284611928"><ele>412.0</ele><time>2026-04-05T16:55:37Z</time></trkpt><trkpt lat="46.16148576567784" lon="12.317574751210877"><ele>412.0</ele><time>2026-04-05T16:55:38Z</time></trkpt><trkpt lat="46.16177073407932" lon="12.317497354019919"><ele>408.0</ele><time>2026-04-05T16:55:39Z</time></trkpt><trkpt lat="46.16193063153672" lon="12.31801889698124"><ele>404.0</ele><time>2026-04-05T16:55:40Z</time></trkpt><trkpt lat="46.1617540924955" lon="12.3189774873372"><ele>386.0</ele><time>2026-04-05T16:55:41Z</time></trkpt><trkpt lat="46.16271008462833" lon="12.318978417773653"><ele>386.0</ele><time>2026-04-05T16:55:45Z</time></trkpt><trkpt lat="46.16271553370775" lon="12.319113370244077"><ele>386.0</ele><time>2026-04-05T16:55:46Z</time></trkpt><trkpt lat="46.1626191745397" lon="12.31875246976775"><ele>386.0</ele><time>2026-04-05T16:55:47Z</time></trkpt><trkpt lat="46.162785476532406" lon="12.318720361385736"><ele>400.0</ele><time>2026-04-05T16:55:48Z</time></trkpt><trkpt lat="46.16311517708434" lon="12.318173121079099"><ele>400.0</ele><time>2026-04-05T16:55:51Z</time></trkpt><trkpt lat="46.16326656128875" lon="12.318000448852526"><ele>400.0</ele><time>2026-04-05T16:55:52Z</time></trkpt><trkpt lat="46.163416289855064" lon="12.317810249699528"><ele>400.0</ele><time>2026-04-05T16:55:53Z</time></trkpt><trkpt lat="46.16347038272679" lon="12.317735503746002"><ele>400.0</ele><time>2026-04-05T16:55:54Z</time></trkpt><trkpt lat="46.163550439157135" lon="12.317622863468436"><ele>400.0</ele><time>2026-04-05T16:55:55Z</time></trkpt><trkpt lat="46.16385795234703" lon="12.31735563643717"><ele>400.33333333333337</ele><time>2026-04-05T16:55:56Z</time></trkpt><trkpt lat="46.16402036984519" lon="12.317201315878474"><ele>400.66666666666663</ele><time>2026-04-05T16:55:57Z</time></trkpt><trkpt lat="46.16418153885765" lon="12.317048272397413"><ele>401.0</ele><time>2026-04-05T16:55:58.015Z</time></trkpt><trkpt lat="46.165563196286826" lon="12.316323718363593"><ele>385.0</ele><time>2026-04-05T16:56:08.788Z</time></trkpt><trkpt lat="46.16909646012194" lon="12.313492220166973"><ele>385.0</ele><time>2026-04-05T16:56:18Z</time></trkpt><trkpt lat="46.16932201709636" lon="12.313322905056484"><ele>385.0</ele><time>2026-04-05T16:56:19Z</time></trkpt><trkpt lat="46.169547490242294" lon="12.313153589953306"><ele>389.0</ele><time>2026-04-05T16:56:20Z</time></trkpt><trkpt lat="46.16956990523511" lon="12.31242108666084"><ele>389.0</ele><time>2026-04-05T16:56:21Z</time></trkpt><trkpt lat="46.16979212503105" lon="12.31231718722408"><ele>389.0</ele><time>2026-04-05T16:56:22Z</time></trkpt><trkpt lat="46.169915313295114" lon="12.311953555976546"><ele>384.5</ele><time>2026-04-05T16:56:23Z</time></trkpt><trkpt lat="46.170110234452466" lon="12.31169162057011"><ele>380.0</ele><time>2026-04-05T16:56:24Z</time></trkpt><trkpt lat="46.17030483825938" lon="12.311430024728066"><ele>380.0</ele><time>2026-04-05T16:56:25Z</time></trkpt><trkpt lat="46.17049908273301" lon="12.311168768549642"><ele>380.0</ele><time>2026-04-05T16:56:26Z</time></trkpt><trkpt lat="46.17069613474512" lon="12.310903757431708"><ele>389.0</ele><time>2026-04-05T16:56:27.015Z</time></trkpt><trkpt lat="46.17496507342511" lon="12.30965499622147"><ele>388.5</ele><time>2026-04-05T16:57:05.739Z</time></trkpt><trkpt lat="46.17523167892213" lon="12.309752674558395"><ele>388.0</ele><time>2026-04-05T16:57:07.56Z</time></trkpt><trkpt lat="46.17581455221458" lon="12.313106130052178"><ele>393.5</ele><time>2026-04-05T16:57:19.996Z</time></trkpt><trkpt lat="46.17603074150045" lon="12.313185052680696"><ele>399.0</ele><time>2026-04-05T16:57:21.31Z</time></trkpt><trkpt lat="46.174641991961074" lon="12.320977978171488"><ele>471.0</ele><time>2026-04-05T16:58:20.436Z</time></trkpt><trkpt lat="46.173431477277" lon="12.321819298787542"><ele>472.0</ele><time>2026-04-05T16:58:26.404Z</time></trkpt><trkpt lat="46.17415283810922" lon="12.322055138659032"><ele>472.0</ele><time>2026-04-05T16:58:46.999Z</time></trkpt><trkpt lat="46.17445353529364" lon="12.321943943974484"><ele>472.0</ele><time>2026-04-05T16:58:50.998Z</time></trkpt><trkpt lat="46.17462240282611" lon="12.322006421708876"><ele>472.0</ele><time>2026-04-05T16:58:54.998Z</time></trkpt><trkpt lat="46.17469645167524" lon="12.321990758150312"><ele>472.0</ele><time>2026-04-05T16:58:55.998Z</time></trkpt><trkpt lat="46.174696735770006" lon="12.321847749777726"><ele>472.0</ele><time>2026-04-05T16:58:58Z</time></trkpt><trkpt lat="46.17467173409427" lon="12.32175157638419"><ele>472.0</ele><time>2026-04-05T16:59:00Z</time></trkpt><trkpt lat="46.17448378841874" lon="12.321875090807485"><ele>472.00000000000006</ele><time>2026-04-05T16:59:01Z</time></trkpt><trkpt lat="46.174424159373366" lon="12.321820643852353"><ele>472.0</ele><time>2026-04-05T16:59:03Z</time></trkpt><trkpt lat="46.17436342063109" lon="12.321846308329677"><ele>472.0</ele><time>2026-04-05T16:59:19Z</time></trkpt><trkpt lat="46.17443460034619" lon="12.321850527464838"><ele>472.0</ele><time>2026-04-05T17:08:36Z</time></trkpt><trkpt lat="46.174479825576086" lon="12.321932373306524"><ele>472.00000000000006</ele><time>2026-04-05T17:08:40Z</time></trkpt><trkpt lat="46.17439054771719" lon="12.322018332325928"><ele>472.0</ele><time>2026-04-05T17:08:46Z</time></trkpt><trkpt lat="46.17432903614957" lon="12.322051134628767"><ele>472.00000000000006</ele><time>2026-04-05T17:08:46.999Z</time></trkpt><trkpt lat="46.174229835430445" lon="12.322105711850524"><ele>472.0</ele><time>2026-04-05T17:08:48.999Z</time></trkpt><trkpt lat="46.1741322193403" lon="12.322175077446612"><ele>472.0</ele><time>2026-04-05T17:08:50.999Z</time></trkpt><trkpt lat="46.17408541712317" lon="12.322239631231486"><ele>472.0</ele><time>2026-04-05T17:08:51.999Z</time></trkpt><trkpt lat="46.17403480483517" lon="12.322300974379798"><ele>472.00000000000006</ele><time>2026-04-05T17:08:52.999Z</time></trkpt><trkpt lat="46.173981419592415" lon="12.32237014332759"><ele>472.0</ele><time>2026-04-05T17:08:53.999Z</time></trkpt><trkpt lat="46.17390218013759" lon="12.322430451381962"><ele>473.50000000000006</ele><time>2026-04-05T17:08:54.999Z</time></trkpt><trkpt lat="46.17382085495648" lon="12.322475057798677"><ele>475.0</ele><time>2026-04-05T17:08:55.999Z</time></trkpt><trkpt lat="46.17374390366577" lon="12.322523755623843"><ele>476.5</ele><time>2026-04-05T17:08:56.999Z</time></trkpt><trkpt lat="46.17367471332553" lon="12.32253521671564"><ele>478.0</ele><time>2026-04-05T17:08:57.999Z</time></trkpt><trkpt lat="46.173606659233215" lon="12.322562056645058"><ele>479.50000000000006</ele><time>2026-04-05T17:08:58.999Z</time></trkpt><trkpt lat="46.17354040320639" lon="12.322664185383903"><ele>481.0</ele><time>2026-04-05T17:08:59.999Z</time></trkpt><trkpt lat="46.17344979105698" lon="12.32267140772758"><ele>481.0</ele><time>2026-04-05T17:09:00.999Z</time></trkpt><trkpt lat="46.17338483618705" lon="12.322664493554457"><ele>481.0</ele><time>2026-04-05T17:09:01.999Z</time></trkpt><trkpt lat="46.17327777696384" lon="12.322636729400237"><ele>481.0</ele><time>2026-04-05T17:09:02.999Z</time></trkpt><trkpt lat="46.17320119970259" lon="12.322649436355746"><ele>481.0</ele><time>2026-04-05T17:09:03.999Z</time></trkpt><trkpt lat="46.17309616440261" lon="12.322698320356178"><ele>481.0</ele><time>2026-04-05T17:09:04.999Z</time></trkpt><trkpt lat="46.17300022360036" lon="12.3227841285179"><ele>481.5</ele><time>2026-04-05T17:09:05.999Z</time></trkpt><trkpt lat="46.172916924786264" lon="12.32290003321084"><ele>482.0</ele><time>2026-04-05T17:09:06.999Z</time></trkpt><trkpt lat="46.17285468178093" lon="12.323027910064173"><ele>482.5</ele><time>2026-04-05T17:09:07.999Z</time></trkpt><trkpt lat="46.17282719432877" lon="12.32318203117928"><ele>483.0</ele><time>2026-04-05T17:09:08.999Z</time></trkpt><trkpt lat="46.172789184715754" lon="12.323355212662058"><ele>483.0</ele><time>2026-04-05T17:09:09.999Z</time></trkpt><trkpt lat="46.17275658610131" lon="12.323535510412297"><ele>483.0</ele><time>2026-04-05T17:09:10.999Z</time></trkpt><trkpt lat="46.172709346650414" lon="12.323705515473138"><ele>483.0</ele><time>2026-04-05T17:09:11.999Z</time></trkpt><trkpt lat="46.172688103370334" lon="12.323893805375354"><ele>483.0</ele><time>2026-04-05T17:09:12.999Z</time></trkpt><trkpt lat="46.17264559806195" lon="12.324073425198545"><ele>485.0</ele><time>2026-04-05T17:09:13.999Z</time></trkpt><trkpt lat="46.172595312483814" lon="12.324239599990435"><ele>487.0</ele><time>2026-04-05T17:09:14.999Z</time></trkpt><trkpt lat="46.17257718132197" lon="12.32443234378732"><ele>489.0</ele><time>2026-04-05T17:09:15.999Z</time></trkpt><trkpt lat="46.172551179040475" lon="12.32461557022026"><ele>491.0</ele><time>2026-04-05T17:09:16.999Z</time></trkpt><trkpt lat="46.17253027218681" lon="12.324803206571175"><ele>492.75</ele><time>2026-04-05T17:09:17.999Z</time></trkpt><trkpt lat="46.172510545761234" lon="12.324988955783837"><ele>494.5</ele><time>2026-04-05T17:09:18.999Z</time></trkpt><trkpt lat="46.17247090597904" lon="12.325177347444633"><ele>496.25</ele><time>2026-04-05T17:09:19.999Z</time></trkpt><trkpt lat="46.172450886539636" lon="12.325374240865658"><ele>498.0</ele><time>2026-04-05T17:09:20.999Z</time></trkpt><trkpt lat="46.17243120574785" lon="12.32556780374405"><ele>497.0</ele><time>2026-04-05T17:09:21.999Z</time></trkpt><trkpt lat="46.17241126559176" lon="12.32575974708246"><ele>496.0</ele><time>2026-04-05T17:09:22.999Z</time></trkpt><trkpt lat="46.172385988460924" lon="12.325943919408857"><ele>495.0</ele><time>2026-04-05T17:09:23.999Z</time></trkpt><trkpt lat="46.17234939500159" lon="12.326138587093038"><ele>494.0</ele><time>2026-04-05T17:09:24.999Z</time></trkpt><trkpt lat="46.17231432585446" lon="12.326328666224395"><ele>496.0</ele><time>2026-04-05T17:09:25.999Z</time></trkpt><trkpt lat="46.17226144095576" lon="12.326508658358962"><ele>498.0</ele><time>2026-04-05T17:09:27Z</time></trkpt><trkpt lat="46.17220221233748" lon="12.326671051474277"><ele>500.0</ele><time>2026-04-05T17:09:28Z</time></trkpt><trkpt lat="46.17214495430494" lon="12.326806197114564"><ele>502.0</ele><time>2026-04-05T17:09:29Z</time></trkpt><trkpt lat="46.17207761912781" lon="12.326923897652799"><ele>502.0</ele><time>2026-04-05T17:09:30Z</time></trkpt><trkpt lat="46.17202057886045" lon="12.327037029308094"><ele>502.00000000000006</ele><time>2026-04-05T17:09:31Z</time></trkpt><trkpt lat="46.17197626682019" lon="12.327158013855756"><ele>502.00000000000006</ele><time>2026-04-05T17:09:32Z</time></trkpt><trkpt lat="46.17195176777051" lon="12.327300332000396"><ele>502.0</ele><time>2026-04-05T17:09:33Z</time></trkpt><trkpt lat="46.17193194834492" lon="12.327427076686629"><ele>502.0</ele><time>2026-04-05T17:09:34Z</time></trkpt><trkpt lat="46.17190759728713" lon="12.327554803974783"><ele>503.20000000000005</ele><time>2026-04-05T17:09:35Z</time></trkpt><trkpt lat="46.1718809580312" lon="12.327705144160147"><ele>504.40000000000003</ele><time>2026-04-05T17:09:36Z</time></trkpt><trkpt lat="46.17185414408377" lon="12.327835285737256"><ele>505.59999999999997</ele><time>2026-04-05T17:09:37Z</time></trkpt><trkpt lat="46.171822312706404" lon="12.327966340544554"><ele>506.79999999999995</ele><time>2026-04-05T17:09:38Z</time></trkpt><trkpt lat="46.17182134571873" lon="12.328124570782313"><ele>508.0</ele><time>2026-04-05T17:09:39Z</time></trkpt><trkpt lat="46.17180849747976" lon="12.328274646433051"><ele>509.0</ele><time>2026-04-05T17:09:40Z</time></trkpt><trkpt lat="46.17179683787425" lon="12.328426488182503"><ele>509.99999999999994</ele><time>2026-04-05T17:09:41Z</time></trkpt><trkpt lat="46.171790565102825" lon="12.328586248764132"><ele>510.99999999999994</ele><time>2026-04-05T17:09:42Z</time></trkpt><trkpt lat="46.17178410832918" lon="12.328743398178922"><ele>512.0</ele><time>2026-04-05T17:09:43Z</time></trkpt><trkpt lat="46.17176708269362" lon="12.328919481800002"><ele>513.0</ele><time>2026-04-05T17:09:44Z</time></trkpt><trkpt lat="46.17174240638303" lon="12.32911856901886"><ele>513.75</ele><time>2026-04-05T17:09:45Z</time></trkpt><trkpt lat="46.17171672176532" lon="12.32930573685198"><ele>514.5</ele><time>2026-04-05T17:09:46Z</time></trkpt><trkpt lat="46.171679522658465" lon="12.329501568006677"><ele>515.25</ele><time>2026-04-05T17:09:47Z</time></trkpt><trkpt lat="46.17164102883461" lon="12.329705128429454"><ele>516.0</ele><time>2026-04-05T17:09:48Z</time></trkpt><trkpt lat="46.171603162264574" lon="12.3299042741696"><ele>516.75</ele><time>2026-04-05T17:09:49Z</time></trkpt><trkpt lat="46.17156476255988" lon="12.330111372263504"><ele>517.5</ele><time>2026-04-05T17:09:50Z</time></trkpt><trkpt lat="46.17152622493164" lon="12.33032240382536"><ele>518.25</ele><time>2026-04-05T17:09:51Z</time></trkpt><trkpt lat="46.17149395412587" lon="12.33053304094986"><ele>519.0</ele><time>2026-04-05T17:09:52Z</time></trkpt><trkpt lat="46.17146804932048" lon="12.330737283396646"><ele>514.6666666666666</ele><time>2026-04-05T17:09:53Z</time></trkpt><trkpt lat="46.1714541109833" lon="12.330957565590522"><ele>510.3333333333333</ele><time>2026-04-05T17:09:54Z</time></trkpt><trkpt lat="46.171450575270015" lon="12.331176006104942"><ele>506.0</ele><time>2026-04-05T17:09:55Z</time></trkpt><trkpt lat="46.17144483579963" lon="12.331392753781408"><ele>506.0</ele><time>2026-04-05T17:09:56Z</time></trkpt><trkpt lat="46.1714407134403" lon="12.331618199764083"><ele>506.0</ele><time>2026-04-05T17:09:57Z</time></trkpt><trkpt lat="46.17143832592489" lon="12.331839939223432"><ele>506.0</ele><time>2026-04-05T17:09:58Z</time></trkpt><trkpt lat="46.17143678510905" lon="12.33206600447429"><ele>509.25</ele><time>2026-04-05T17:09:59Z</time></trkpt><trkpt lat="46.17143432956253" lon="12.332285076721458"><ele>512.5</ele><time>2026-04-05T17:10:00Z</time></trkpt><trkpt lat="46.1714330056179" lon="12.332492438927268"><ele>515.75</ele><time>2026-04-05T17:10:01Z</time></trkpt><trkpt lat="46.17142851531004" lon="12.33269361771271"><ele>519.0</ele><time>2026-04-05T17:10:02Z</time></trkpt><trkpt lat="46.171425425706516" lon="12.332884531033379"><ele>519.0</ele><time>2026-04-05T17:10:03Z</time></trkpt><trkpt lat="46.17140614064807" lon="12.333054607679637"><ele>519.0</ele><time>2026-04-05T17:10:04Z</time></trkpt><trkpt lat="46.17136848246979" lon="12.3332001397561"><ele>519.0</ele><time>2026-04-05T17:10:05Z</time></trkpt><trkpt lat="46.17130620934826" lon="12.333324694570875"><ele>519.0</ele><time>2026-04-05T17:10:06Z</time></trkpt><trkpt lat="46.1712075608182" lon="12.333330216387186"><ele>519.0</ele><time>2026-04-05T17:10:07Z</time></trkpt><trkpt lat="46.17111382056753" lon="12.333383393657959"><ele>521.4</ele><time>2026-04-05T17:10:08Z</time></trkpt><trkpt lat="46.171012649372386" lon="12.333399257486757"><ele>523.8</ele><time>2026-04-05T17:10:09Z</time></trkpt><trkpt lat="46.17090746237869" lon="12.333434991447144"><ele>526.2</ele><time>2026-04-05T17:10:10Z</time></trkpt><trkpt lat="46.170802468552104" lon="12.333463137809971"><ele>528.6</ele><time>2026-04-05T17:10:11Z</time></trkpt><trkpt lat="46.17070304373852" lon="12.333447583184663"><ele>531.0</ele><time>2026-04-05T17:10:12Z</time></trkpt><trkpt lat="46.17060693552002" lon="12.333388903736184"><ele>532.2</ele><time>2026-04-05T17:10:13Z</time></trkpt><trkpt lat="46.170508373962456" lon="12.333343451500376"><ele>533.4000000000001</ele><time>2026-04-05T17:10:14Z</time></trkpt><trkpt lat="46.17039842717192" lon="12.333325742583229"><ele>534.6</ele><time>2026-04-05T17:10:15Z</time></trkpt><trkpt lat="46.17029043987756" lon="12.333327921044452"><ele>535.8000000000001</ele><time>2026-04-05T17:10:16Z</time></trkpt><trkpt lat="46.17018269251832" lon="12.333342843059954"><ele>537.0</ele><time>2026-04-05T17:10:17Z</time></trkpt><trkpt lat="46.170075446635046" lon="12.333361911330389"><ele>537.0</ele><time>2026-04-05T17:10:18Z</time></trkpt><trkpt lat="46.16997661467676" lon="12.333377091351629"><ele>537.0</ele><time>2026-04-05T17:10:19Z</time></trkpt><trkpt lat="46.16986346826174" lon="12.33339937615478"><ele>537.0</ele><time>2026-04-05T17:10:20Z</time></trkpt><trkpt lat="46.169775785756315" lon="12.333492183628586"><ele>537.0</ele><time>2026-04-05T17:10:21Z</time></trkpt><trkpt lat="46.16967416039264" lon="12.33355003330832"><ele>537.0</ele><time>2026-04-05T17:10:22Z</time></trkpt><trkpt lat="46.169577382574076" lon="12.333615904654222"><ele>534.75</ele><time>2026-04-05T17:10:23Z</time></trkpt><trkpt lat="46.16948914703846" lon="12.333702524279316"><ele>532.5</ele><time>2026-04-05T17:10:24Z</time></trkpt><trkpt lat="46.16938690819056" lon="12.333778662465246"><ele>530.25</ele><time>2026-04-05T17:10:25Z</time></trkpt><trkpt lat="46.1693042228321" lon="12.333934048518651"><ele>528.0</ele><time>2026-04-05T17:10:26Z</time></trkpt><trkpt lat="46.16924075062901" lon="12.334069715600153"><ele>530.25</ele><time>2026-04-05T17:10:27Z</time></trkpt><trkpt lat="46.16921351534076" lon="12.334236067991178"><ele>532.5</ele><time>2026-04-05T17:10:28Z</time></trkpt><trkpt lat="46.169146435286954" lon="12.334374413128144"><ele>534.75</ele><time>2026-04-05T17:10:29Z</time></trkpt><trkpt lat="46.169099908275854" lon="12.334535086867652"><ele>537.0</ele><time>2026-04-05T17:10:30Z</time></trkpt><trkpt lat="46.16902395238225" lon="12.334675203477685"><ele>540.25</ele><time>2026-04-05T17:10:31Z</time></trkpt><trkpt lat="46.16895313534762" lon="12.33482321176605"><ele>543.5</ele><time>2026-04-05T17:10:32Z</time></trkpt><trkpt lat="46.16887994790561" lon="12.334949696931595"><ele>546.75</ele><time>2026-04-05T17:10:33Z</time></trkpt><trkpt lat="46.1687976100435" lon="12.33508594879618"><ele>550.0</ele><time>2026-04-05T17:10:34Z</time></trkpt><trkpt lat="46.1687061147964" lon="12.335213633375904"><ele>550.0</ele><time>2026-04-05T17:10:35Z</time></trkpt><trkpt lat="46.16861221981059" lon="12.335327908720524"><ele>550.0</ele><time>2026-04-05T17:10:36Z</time></trkpt><trkpt lat="46.1685053979573" lon="12.335428106554705"><ele>550.0</ele><time>2026-04-05T17:10:37Z</time></trkpt><trkpt lat="46.168393409919474" lon="12.335507185836425"><ele>550.0</ele><time>2026-04-05T17:10:38Z</time></trkpt><trkpt lat="46.16826948012188" lon="12.335571523485097"><ele>552.5</ele><time>2026-04-05T17:10:38.999Z</time></trkpt><trkpt lat="46.168146426594554" lon="12.335637329690206"><ele>555.0</ele><time>2026-04-05T17:10:39.999Z</time></trkpt><trkpt lat="46.16802053963357" lon="12.335686964242003"><ele>557.5</ele><time>2026-04-05T17:10:40.999Z</time></trkpt><trkpt lat="46.167899192381476" lon="12.33574221025071"><ele>560.0</ele><time>2026-04-05T17:10:41.999Z</time></trkpt><trkpt lat="46.167779275607685" lon="12.33578171329137"><ele>560.0</ele><time>2026-04-05T17:10:42.999Z</time></trkpt><trkpt lat="46.16767443140547" lon="12.335817488466475"><ele>560.0</ele><time>2026-04-05T17:10:43.999Z</time></trkpt><trkpt lat="46.16757534055471" lon="12.335841736678278"><ele>560.0</ele><time>2026-04-05T17:10:44.999Z</time></trkpt><trkpt lat="46.167488200130514" lon="12.335856262377758"><ele>560.0</ele><time>2026-04-05T17:10:45.999Z</time></trkpt><trkpt lat="46.16741813545608" lon="12.335871506676373"><ele>560.0</ele><time>2026-04-05T17:10:46.999Z</time></trkpt><trkpt lat="46.16732697288096" lon="12.335958894969014"><ele>560.0</ele><time>2026-04-05T17:10:48.999Z</time></trkpt><trkpt lat="46.16731992010801" lon="12.336050862576638"><ele>560.0</ele><time>2026-04-05T17:10:49.999Z</time></trkpt><trkpt lat="46.167338700134785" lon="12.336150609873178"><ele>560.0</ele><time>2026-04-05T17:10:50.999Z</time></trkpt><trkpt lat="46.16741744736847" lon="12.336166210708809"><ele>560.0</ele><time>2026-04-05T17:10:51.999Z</time></trkpt><trkpt lat="46.16750978673181" lon="12.336080767887335"><ele>560.0</ele><time>2026-04-05T17:10:52.999Z</time></trkpt><trkpt lat="46.16758221781158" lon="12.336044356663853"><ele>560.0</ele><time>2026-04-05T17:10:53.999Z</time></trkpt><trkpt lat="46.16766880377039" lon="12.336021330526037"><ele>560.0</ele><time>2026-04-05T17:10:54.999Z</time></trkpt><trkpt lat="46.167762773010544" lon="12.336009648872764"><ele>560.0</ele><time>2026-04-05T17:10:55.999Z</time></trkpt><trkpt lat="46.16785619738144" lon="12.336006906110809"><ele>560.0</ele><time>2026-04-05T17:10:56.999Z</time></trkpt><trkpt lat="46.16795053114984" lon="12.336016807679432"><ele>560.0</ele><time>2026-04-05T17:10:57.999Z</time></trkpt><trkpt lat="46.16805473673099" lon="12.336029730915403"><ele>560.0</ele><time>2026-04-05T17:10:58.999Z</time></trkpt><trkpt lat="46.168159812866875" lon="12.33602050890147"><ele>562.5</ele><time>2026-04-05T17:10:59.999Z</time></trkpt><trkpt lat="46.16827176564313" lon="12.336052663254064"><ele>565.0</ele><time>2026-04-05T17:11:00.999Z</time></trkpt><trkpt lat="46.168379699191256" lon="12.336061709645875"><ele>567.5</ele><time>2026-04-05T17:11:01.999Z</time></trkpt><trkpt lat="46.168496616617674" lon="12.33605439598274"><ele>570.0</ele><time>2026-04-05T17:11:02.999Z</time></trkpt><trkpt lat="46.16861513570815" lon="12.336041901522655"><ele>570.0</ele><time>2026-04-05T17:11:03.999Z</time></trkpt><trkpt lat="46.16873895757388" lon="12.336002926773608"><ele>570.0</ele><time>2026-04-05T17:11:04.999Z</time></trkpt><trkpt lat="46.16886039849148" lon="12.335923379386513"><ele>570.0</ele><time>2026-04-05T17:11:05.999Z</time></trkpt><trkpt lat="46.16897582817484" lon="12.335835415295962"><ele>570.0</ele><time>2026-04-05T17:11:06.999Z</time></trkpt><trkpt lat="46.16909044130145" lon="12.33574779939626"><ele>568.5</ele><time>2026-04-05T17:11:07.999Z</time></trkpt><trkpt lat="46.16919993050412" lon="12.335664595563738"><ele>567.0</ele><time>2026-04-05T17:11:08.999Z</time></trkpt><trkpt lat="46.169300574726435" lon="12.335565100263894"><ele>565.5</ele><time>2026-04-05T17:11:09.999Z</time></trkpt><trkpt lat="46.169386005980705" lon="12.335439843849082"><ele>564.0</ele><time>2026-04-05T17:11:10.999Z</time></trkpt><trkpt lat="46.169461401295635" lon="12.335304169021937"><ele>564.0</ele><time>2026-04-05T17:11:11.999Z</time></trkpt><trkpt lat="46.169544605702015" lon="12.335189508533322"><ele>564.0</ele><time>2026-04-05T17:11:12.999Z</time></trkpt><trkpt lat="46.1696196765832" lon="12.335084237495993"><ele>564.0</ele><time>2026-04-05T17:11:13.999Z</time></trkpt><trkpt lat="46.169697919337594" lon="12.335018712480707"><ele>564.0</ele><time>2026-04-05T17:11:14.999Z</time></trkpt><trkpt lat="46.169782106621405" lon="12.334948281753771"><ele>564.0</ele><time>2026-04-05T17:11:15.999Z</time></trkpt><trkpt lat="46.16985362234646" lon="12.334896818507678"><ele>564.0</ele><time>2026-04-05T17:11:16.999Z</time></trkpt><trkpt lat="46.16991525272235" lon="12.33485672777024"><ele>564.0</ele><time>2026-04-05T17:11:17.999Z</time></trkpt><trkpt lat="46.1700243158046" lon="12.334859585033596"><ele>564.0</ele><time>2026-04-05T17:11:19.999Z</time></trkpt><trkpt lat="46.17003255291509" lon="12.334995157564702"><ele>564.0</ele><time>2026-04-05T17:11:21.999Z</time></trkpt><trkpt lat="46.169967825859715" lon="12.335014446655634"><ele>564.0</ele><time>2026-04-05T17:11:22.999Z</time></trkpt><trkpt lat="46.169877311444246" lon="12.335019841896624"><ele>564.0</ele><time>2026-04-05T17:11:23.999Z</time></trkpt><trkpt lat="46.1698055396904" lon="12.33508227362178"><ele>564.0</ele><time>2026-04-05T17:11:24.999Z</time></trkpt><trkpt lat="46.16970845718216" lon="12.33515523428039"><ele>564.0</ele><time>2026-04-05T17:11:25.999Z</time></trkpt><trkpt lat="46.169633153238536" lon="12.335244341310945"><ele>564.0</ele><time>2026-04-05T17:11:26.999Z</time></trkpt><trkpt lat="46.169559644061636" lon="12.335378340939938"><ele>564.0</ele><time>2026-04-05T17:11:27.999Z</time></trkpt><trkpt lat="46.16951860876828" lon="12.335516589308417"><ele>564.0</ele><time>2026-04-05T17:11:28.999Z</time></trkpt><trkpt lat="46.16948612218452" lon="12.335667030354358"><ele>569.0</ele><time>2026-04-05T17:11:29.999Z</time></trkpt><trkpt lat="46.16944085857679" lon="12.335812311407585"><ele>574.0</ele><time>2026-04-05T17:11:30.999Z</time></trkpt><trkpt lat="46.169393645276465" lon="12.335963852400411"><ele>579.0</ele><time>2026-04-05T17:11:31.999Z</time></trkpt><trkpt lat="46.16933920795872" lon="12.336108828635952"><ele>584.0</ele><time>2026-04-05T17:11:33Z</time></trkpt><trkpt lat="46.169295130811086" lon="12.336261531751399"><ele>584.8</ele><time>2026-04-05T17:11:34Z</time></trkpt><trkpt lat="46.16925259391319" lon="12.336409505933263"><ele>585.5999999999999</ele><time>2026-04-05T17:11:35Z</time></trkpt><trkpt lat="46.169210806290614" lon="12.336541308495844"><ele>586.4</ele><time>2026-04-05T17:11:36Z</time></trkpt><trkpt lat="46.16916019325418" lon="12.33666420549564"><ele>587.1999999999999</ele><time>2026-04-05T17:11:37Z</time></trkpt><trkpt lat="46.16908904295062" lon="12.336767724017532"><ele>588.0</ele><time>2026-04-05T17:11:38Z</time></trkpt><trkpt lat="46.16900079821103" lon="12.33685151234039"><ele>588.0</ele><time>2026-04-05T17:11:39Z</time></trkpt><trkpt lat="46.16890691609532" lon="12.336910723439956"><ele>588.0</ele><time>2026-04-05T17:11:40Z</time></trkpt><trkpt lat="46.168810380548585" lon="12.336946784352918"><ele>588.0</ele><time>2026-04-05T17:11:41Z</time></trkpt><trkpt lat="46.168719882393845" lon="12.336996459140279"><ele>588.0</ele><time>2026-04-05T17:11:42Z</time></trkpt><trkpt lat="46.168639438697156" lon="12.337033941155102"><ele>588.0</ele><time>2026-04-05T17:11:43Z</time></trkpt><trkpt lat="46.16857340896171" lon="12.337089218138226"><ele>588.0</ele><time>2026-04-05T17:11:44Z</time></trkpt><trkpt lat="46.16854197930781" lon="12.337184488032186"><ele>588.0</ele><time>2026-04-05T17:11:45Z</time></trkpt><trkpt lat="46.16858436786826" lon="12.337277396620884"><ele>588.0</ele><time>2026-04-05T17:11:46Z</time></trkpt><trkpt lat="46.16864023870089" lon="12.337334444862286"><ele>588.0</ele><time>2026-04-05T17:11:47Z</time></trkpt><trkpt lat="46.16872978103601" lon="12.337252073894453"><ele>588.0</ele><time>2026-04-05T17:11:48Z</time></trkpt><trkpt lat="46.1688147965167" lon="12.337211705129985"><ele>588.0</ele><time>2026-04-05T17:11:49Z</time></trkpt><trkpt lat="46.16890340320589" lon="12.337154720004737"><ele>588.0</ele><time>2026-04-05T17:11:50Z</time></trkpt><trkpt lat="46.16900288370498" lon="12.337091674291747"><ele>588.0</ele><time>2026-04-05T17:11:51Z</time></trkpt><trkpt lat="46.169106558171656" lon="12.337025970550007"><ele>588.0</ele><time>2026-04-05T17:11:52Z</time></trkpt><trkpt lat="46.16921058400431" lon="12.336960044308373"><ele>588.0</ele><time>2026-04-05T17:11:53Z</time></trkpt><trkpt lat="46.16930262393177" lon="12.336876868598278"><ele>588.0</ele><time>2026-04-05T17:11:54Z</time></trkpt><trkpt lat="46.169402102132366" lon="12.336836127024728"><ele>589.3333333333334</ele><time>2026-04-05T17:11:55Z</time></trkpt><trkpt lat="46.169489056045634" lon="12.336788270600154"><ele>590.6666666666666</ele><time>2026-04-05T17:11:56Z</time></trkpt><trkpt lat="46.16957165136243" lon="12.33670904652174"><ele>592.0</ele><time>2026-04-05T17:11:57Z</time></trkpt><trkpt lat="46.16964579212021" lon="12.336675683576347"><ele>593.3333333333333</ele><time>2026-04-05T17:11:58Z</time></trkpt><trkpt lat="46.169702779934596" lon="12.336619853117593"><ele>594.6666666666666</ele><time>2026-04-05T17:11:59Z</time></trkpt><trkpt lat="46.16978437873704" lon="12.336677871013798"><ele>596.0</ele><time>2026-04-05T17:12:01Z</time></trkpt><trkpt lat="46.16978819579323" lon="12.336769490305192"><ele>596.0</ele><time>2026-04-05T17:12:02Z</time></trkpt><trkpt lat="46.16967447509948" lon="12.336821833823011"><ele>596.0</ele><time>2026-04-05T17:12:04Z</time></trkpt><trkpt lat="46.1696029429428" lon="12.336859982073811"><ele>596.0</ele><time>2026-04-05T17:12:05Z</time></trkpt><trkpt lat="46.16951693918823" lon="12.336911766628047"><ele>596.0</ele><time>2026-04-05T17:12:06Z</time></trkpt><trkpt lat="46.16943131353095" lon="12.336968879117984"><ele>596.0</ele><time>2026-04-05T17:12:07Z</time></trkpt><trkpt lat="46.16935137537449" lon="12.337048568367583"><ele>596.0</ele><time>2026-04-05T17:12:08Z</time></trkpt><trkpt lat="46.169270697531594" lon="12.337111072602012"><ele>596.0</ele><time>2026-04-05T17:12:09Z</time></trkpt><trkpt lat="46.16922139032028" lon="12.337254262969305"><ele>596.0</ele><time>2026-04-05T17:12:10Z</time></trkpt><trkpt lat="46.16919546277574" lon="12.337393484936122"><ele>596.0</ele><time>2026-04-05T17:12:11Z</time></trkpt><trkpt lat="46.169164585694155" lon="12.337537703211439"><ele>596.0</ele><time>2026-04-05T17:12:12Z</time></trkpt><trkpt lat="46.169126872424926" lon="12.337680771884532"><ele>598.0</ele><time>2026-04-05T17:12:13Z</time></trkpt><trkpt lat="46.16909444364973" lon="12.337833245483356"><ele>600.0</ele><time>2026-04-05T17:12:14Z</time></trkpt><trkpt lat="46.16906510430059" lon="12.337964067231704"><ele>602.0</ele><time>2026-04-05T17:12:15Z</time></trkpt><trkpt lat="46.16904561997186" lon="12.33809953913073"><ele>604.0</ele><time>2026-04-05T17:12:16Z</time></trkpt><trkpt lat="46.16904625547297" lon="12.338242641648186"><ele>606.0</ele><time>2026-04-05T17:12:17Z</time></trkpt><trkpt lat="46.169069831920396" lon="12.3383879117533"><ele>607.0</ele><time>2026-04-05T17:12:18Z</time></trkpt><trkpt lat="46.169111535859834" lon="12.338526519828413"><ele>608.0</ele><time>2026-04-05T17:12:19Z</time></trkpt><trkpt lat="46.16914270406206" lon="12.338662842438486"><ele>609.0</ele><time>2026-04-05T17:12:20Z</time></trkpt><trkpt lat="46.169176991919926" lon="12.338800526291237"><ele>610.0</ele><time>2026-04-05T17:12:21Z</time></trkpt><trkpt lat="46.16921543284242" lon="12.338950623642592"><ele>611.0</ele><time>2026-04-05T17:12:22Z</time></trkpt><trkpt lat="46.169267016887474" lon="12.339080944982944"><ele>611.0</ele><time>2026-04-05T17:12:23Z</time></trkpt><trkpt lat="46.1693333539041" lon="12.339186766098326"><ele>611.0</ele><time>2026-04-05T17:12:24Z</time></trkpt><trkpt lat="46.169395217969004" lon="12.339295003625693"><ele>611.0</ele><time>2026-04-05T17:12:25Z</time></trkpt><trkpt lat="46.16946234556305" lon="12.339422147778972"><ele>611.0</ele><time>2026-04-05T17:12:26Z</time></trkpt><trkpt lat="46.169509882963716" lon="12.339546095487812"><ele>611.0</ele><time>2026-04-05T17:12:27Z</time></trkpt><trkpt lat="46.16956722131873" lon="12.339667864167668"><ele>609.6</ele><time>2026-04-05T17:12:28Z</time></trkpt><trkpt lat="46.16961619115696" lon="12.339789055422871"><ele>608.2</ele><time>2026-04-05T17:12:29Z</time></trkpt><trkpt lat="46.16967298401137" lon="12.339907602042066"><ele>606.8</ele><time>2026-04-05T17:12:30Z</time></trkpt><trkpt lat="46.16971942873463" lon="12.34003697549313"><ele>605.4</ele><time>2026-04-05T17:12:31Z</time></trkpt><trkpt lat="46.16975715768626" lon="12.340160859914553"><ele>604.0</ele><time>2026-04-05T17:12:32Z</time></trkpt><trkpt lat="46.169796416044434" lon="12.340308013916824"><ele>604.0</ele><time>2026-04-05T17:12:33Z</time></trkpt><trkpt lat="46.16981626576364" lon="12.34061569262077"><ele>612.0</ele><time>2026-04-05T17:12:35Z</time></trkpt></trkseg></trk></gpx>